<?xml version='1.0' encoding='UTF-8'?><gpx version="1.1" creator="JPX - https://github.com/jenetics/jpx" xmlns="http://www.topografix.com/GPX/1/1"><trk><trkseg><trkpt lat="45.1866548" lon="9.1430935"><ele>74.0</ele><time>2026-03-29T07:26:45.979Z</time></trkpt><trkpt lat="45.1866516" lon="9.1429882"><ele>74.0</ele><time>2026-03-29T07:29:08.169Z</time></trkpt><trkpt lat="45.186658" lon="9.1428757"><ele>74.0</ele><time>2026-03-29T07:29:10.171Z</time></trkpt><trkpt lat="45.186622" lon="9.1427972"><ele>74.0</ele><time>2026-03-29T07:29:14.172Z</time></trkpt><trkpt lat="45.1865485" lon="9.1428317"><ele>74.0</ele><time>2026-03-29T07:29:20.172Z</time></trkpt><trkpt lat="45.1864991" lon="9.1428952"><ele>74.0</ele><time>2026-03-29T07:29:27.171Z</time></trkpt><trkpt lat="45.1864088" lon="9.1428675"><ele>73.2</ele><time>2026-03-29T07:29:49.172Z</time></trkpt><trkpt lat="45.1862854" lon="9.1428446"><ele>72.4</ele><time>2026-03-29T07:29:51.171Z</time></trkpt><trkpt lat="45.1862219" lon="9.1428087"><ele>71.6</ele><time>2026-03-29T07:29:52.173Z</time></trkpt><trkpt lat="45.1861505" lon="9.1427441"><ele>70.8</ele><time>2026-03-29T07:29:54.173Z</time></trkpt><trkpt lat="45.1861175" lon="9.1426183"><ele>70.0</ele><time>2026-03-29T07:30:01.175Z</time></trkpt><trkpt lat="45.1860832" lon="9.1425192"><ele>70.0</ele><time>2026-03-29T07:30:02.176Z</time></trkpt><trkpt lat="45.1860433" lon="9.1424068"><ele>70.0</ele><time>2026-03-29T07:30:03.176Z</time></trkpt><trkpt lat="45.1860005" lon="9.1422797"><ele>70.0</ele><time>2026-03-29T07:30:04.178Z</time></trkpt><trkpt lat="45.185957" lon="9.1421455"><ele>70.0</ele><time>2026-03-29T07:30:05.174Z</time></trkpt><trkpt lat="45.1859252" lon="9.1420128"><ele>70.0</ele><time>2026-03-29T07:30:06.174Z</time></trkpt><trkpt lat="45.1858983" lon="9.1418915"><ele>69.83333333333333</ele><time>2026-03-29T07:30:07.174Z</time></trkpt><trkpt lat="45.1858757" lon="9.1417722"><ele>69.66666666666666</ele><time>2026-03-29T07:30:08.175Z</time></trkpt><trkpt lat="45.1858593" lon="9.141666"><ele>69.5</ele><time>2026-03-29T07:30:09.175Z</time></trkpt><trkpt lat="45.1858575" lon="9.1415762"><ele>69.33333333333333</ele><time>2026-03-29T07:30:10.175Z</time></trkpt><trkpt lat="45.1859242" lon="9.1414553"><ele>69.16666666666667</ele><time>2026-03-29T07:30:12.175Z</time></trkpt><trkpt lat="45.18599" lon="9.1414425"><ele>69.0</ele><time>2026-03-29T07:30:13.175Z</time></trkpt><trkpt lat="45.1860698" lon="9.1414418"><ele>69.0</ele><time>2026-03-29T07:30:14.177Z</time></trkpt><trkpt lat="45.1861618" lon="9.1414497"><ele>69.0</ele><time>2026-03-29T07:30:15.175Z</time></trkpt><trkpt lat="45.1862543" lon="9.1414787"><ele>69.0</ele><time>2026-03-29T07:30:16.174Z</time></trkpt><trkpt lat="45.1863505" lon="9.1415085"><ele>69.0</ele><time>2026-03-29T07:30:17.173Z</time></trkpt><trkpt lat="45.1864515" lon="9.1415397"><ele>69.0</ele><time>2026-03-29T07:30:18.173Z</time></trkpt><trkpt lat="45.1865442" lon="9.1415612"><ele>69.8</ele><time>2026-03-29T07:30:19.173Z</time></trkpt><trkpt lat="45.1866425" lon="9.1415865"><ele>70.60000000000001</ele><time>2026-03-29T07:30:20.173Z</time></trkpt><trkpt lat="45.186746" lon="9.1416135"><ele>71.4</ele><time>2026-03-29T07:30:21.173Z</time></trkpt><trkpt lat="45.1868528" lon="9.1416532"><ele>72.2</ele><time>2026-03-29T07:30:22.173Z</time></trkpt><trkpt lat="45.1869418" lon="9.1416868"><ele>73.0</ele><time>2026-03-29T07:30:23.174Z</time></trkpt><trkpt lat="45.1870328" lon="9.1417163"><ele>73.0</ele><time>2026-03-29T07:30:24.175Z</time></trkpt><trkpt lat="45.187108" lon="9.1417458"><ele>73.0</ele><time>2026-03-29T07:30:25.175Z</time></trkpt><trkpt lat="45.1871743" lon="9.141776"><ele>73.0</ele><time>2026-03-29T07:30:26.175Z</time></trkpt><trkpt lat="45.1872287" lon="9.1418425"><ele>73.0</ele><time>2026-03-29T07:30:27.178Z</time></trkpt><trkpt lat="45.1872738" lon="9.1419507"><ele>73.0</ele><time>2026-03-29T07:30:28.178Z</time></trkpt><trkpt lat="45.1873187" lon="9.1420833"><ele>73.0</ele><time>2026-03-29T07:30:29.175Z</time></trkpt><trkpt lat="45.1873733" lon="9.142215"><ele>73.0</ele><time>2026-03-29T07:30:30.177Z</time></trkpt><trkpt lat="45.1874248" lon="9.1423362"><ele>73.0</ele><time>2026-03-29T07:30:31.179Z</time></trkpt><trkpt lat="45.1874605" lon="9.1424428"><ele>73.0</ele><time>2026-03-29T07:30:32.175Z</time></trkpt><trkpt lat="45.1874922" lon="9.1425218"><ele>73.0</ele><time>2026-03-29T07:30:33.175Z</time></trkpt><trkpt lat="45.1875317" lon="9.1426122"><ele>73.0</ele><time>2026-03-29T07:30:35.178Z</time></trkpt><trkpt lat="45.1875677" lon="9.1427467"><ele>73.0</ele><time>2026-03-29T07:30:38.177Z</time></trkpt><trkpt lat="45.1875655" lon="9.1429052"><ele>73.0</ele><time>2026-03-29T07:30:40.174Z</time></trkpt><trkpt lat="45.1875498" lon="9.1430682"><ele>73.0</ele><time>2026-03-29T07:30:42.175Z</time></trkpt><trkpt lat="45.1874958" lon="9.1432405"><ele>73.0</ele><time>2026-03-29T07:30:44.177Z</time></trkpt><trkpt lat="45.1874883" lon="9.1433663"><ele>73.0</ele><time>2026-03-29T07:30:45.179Z</time></trkpt><trkpt lat="45.1874655" lon="9.1434807"><ele>73.0</ele><time>2026-03-29T07:30:46.175Z</time></trkpt><trkpt lat="45.1874522" lon="9.143624"><ele>73.4</ele><time>2026-03-29T07:30:47.175Z</time></trkpt><trkpt lat="45.1874358" lon="9.1437707"><ele>73.8</ele><time>2026-03-29T07:30:48.175Z</time></trkpt><trkpt lat="45.1874183" lon="9.1439167"><ele>74.2</ele><time>2026-03-29T07:30:49.174Z</time></trkpt><trkpt lat="45.1874008" lon="9.1440723"><ele>74.6</ele><time>2026-03-29T07:30:50.173Z</time></trkpt><trkpt lat="45.1873823" lon="9.1442187"><ele>75.0</ele><time>2026-03-29T07:30:51.175Z</time></trkpt><trkpt lat="45.1873367" lon="9.1443345"><ele>75.0</ele><time>2026-03-29T07:30:52.174Z</time></trkpt><trkpt lat="45.1873137" lon="9.144467"><ele>75.0</ele><time>2026-03-29T07:30:53.174Z</time></trkpt><trkpt lat="45.1873002" lon="9.1446068"><ele>75.0</ele><time>2026-03-29T07:30:54.175Z</time></trkpt><trkpt lat="45.1872968" lon="9.1447312"><ele>75.0</ele><time>2026-03-29T07:30:55.174Z</time></trkpt><trkpt lat="45.1872868" lon="9.1448525"><ele>75.0</ele><time>2026-03-29T07:30:56.174Z</time></trkpt><trkpt lat="45.1872778" lon="9.1449825"><ele>75.0</ele><time>2026-03-29T07:30:57.176Z</time></trkpt><trkpt lat="45.1872698" lon="9.1451322"><ele>75.0</ele><time>2026-03-29T07:30:58.176Z</time></trkpt><trkpt lat="45.1872547" lon="9.145291"><ele>75.0</ele><time>2026-03-29T07:30:59.176Z</time></trkpt><trkpt lat="45.1872328" lon="9.1454533"><ele>75.0</ele><time>2026-03-29T07:31:00.175Z</time></trkpt><trkpt lat="45.187202" lon="9.1456098"><ele>75.2</ele><time>2026-03-29T07:31:01.176Z</time></trkpt><trkpt lat="45.1871835" lon="9.14576"><ele>75.4</ele><time>2026-03-29T07:31:02.174Z</time></trkpt><trkpt lat="45.1871805" lon="9.1459003"><ele>75.6</ele><time>2026-03-29T07:31:03.174Z</time></trkpt><trkpt lat="45.1871823" lon="9.1460297"><ele>75.8</ele><time>2026-03-29T07:31:04.174Z</time></trkpt><trkpt lat="45.187166" lon="9.146145"><ele>76.0</ele><time>2026-03-29T07:31:05.174Z</time></trkpt><trkpt lat="45.1871543" lon="9.1462622"><ele>76.0</ele><time>2026-03-29T07:31:06.174Z</time></trkpt><trkpt lat="45.1871437" lon="9.1463653"><ele>76.0</ele><time>2026-03-29T07:31:07.174Z</time></trkpt><trkpt lat="45.1871293" lon="9.14647"><ele>76.0</ele><time>2026-03-29T07:31:08.175Z</time></trkpt><trkpt lat="45.1871038" lon="9.1465668"><ele>76.0</ele><time>2026-03-29T07:31:09.177Z</time></trkpt><trkpt lat="45.1870232" lon="9.1466978"><ele>76.0</ele><time>2026-03-29T07:31:11.178Z</time></trkpt><trkpt lat="45.1869548" lon="9.146732"><ele>76.0</ele><time>2026-03-29T07:31:12.177Z</time></trkpt><trkpt lat="45.186869" lon="9.1467522"><ele>76.0</ele><time>2026-03-29T07:31:13.177Z</time></trkpt><trkpt lat="45.1867735" lon="9.1467607"><ele>76.0</ele><time>2026-03-29T07:31:14.177Z</time></trkpt><trkpt lat="45.1866675" lon="9.146767"><ele>76.0</ele><time>2026-03-29T07:31:15.178Z</time></trkpt><trkpt lat="45.1865522" lon="9.1467788"><ele>76.0</ele><time>2026-03-29T07:31:16.178Z</time></trkpt><trkpt lat="45.1864423" lon="9.1467938"><ele>76.0</ele><time>2026-03-29T07:31:17.177Z</time></trkpt><trkpt lat="45.1863337" lon="9.1468093"><ele>75.5</ele><time>2026-03-29T07:31:18.178Z</time></trkpt><trkpt lat="45.1862245" lon="9.1468205"><ele>75.0</ele><time>2026-03-29T07:31:19.177Z</time></trkpt><trkpt lat="45.186114" lon="9.1468283"><ele>74.5</ele><time>2026-03-29T07:31:20.177Z</time></trkpt><trkpt lat="45.1859935" lon="9.1468343"><ele>74.0</ele><time>2026-03-29T07:31:21.177Z</time></trkpt><trkpt lat="45.1858635" lon="9.1468352"><ele>74.0</ele><time>2026-03-29T07:31:22.179Z</time></trkpt><trkpt lat="45.1857298" lon="9.1468317"><ele>74.0</ele><time>2026-03-29T07:31:23.176Z</time></trkpt><trkpt lat="45.1856027" lon="9.1468207"><ele>74.0</ele><time>2026-03-29T07:31:24.176Z</time></trkpt><trkpt lat="45.1854795" lon="9.1468112"><ele>74.0</ele><time>2026-03-29T07:31:25.177Z</time></trkpt><trkpt lat="45.1853595" lon="9.1468038"><ele>73.60000000000001</ele><time>2026-03-29T07:31:26.178Z</time></trkpt><trkpt lat="45.1852428" lon="9.1467958"><ele>73.2</ele><time>2026-03-29T07:31:27.176Z</time></trkpt><trkpt lat="45.1851275" lon="9.1467902"><ele>72.80000000000001</ele><time>2026-03-29T07:31:28.177Z</time></trkpt><trkpt lat="45.1850153" lon="9.1467903"><ele>72.4</ele><time>2026-03-29T07:31:29.175Z</time></trkpt><trkpt lat="45.1849108" lon="9.1467905"><ele>72.0</ele><time>2026-03-29T07:31:30.174Z</time></trkpt><trkpt lat="45.1848175" lon="9.1467902"><ele>71.83333333333333</ele><time>2026-03-29T07:31:31.174Z</time></trkpt><trkpt lat="45.1847315" lon="9.1467918"><ele>71.66666666666667</ele><time>2026-03-29T07:31:32.173Z</time></trkpt><trkpt lat="45.1846578" lon="9.1467933"><ele>71.5</ele><time>2026-03-29T07:31:33.175Z</time></trkpt><trkpt lat="45.184579" lon="9.146799"><ele>71.33333333333334</ele><time>2026-03-29T07:31:35.176Z</time></trkpt><trkpt lat="45.184511" lon="9.1468257"><ele>71.16666666666667</ele><time>2026-03-29T07:31:47.175Z</time></trkpt><trkpt lat="45.1843927" lon="9.1468207"><ele>71.0</ele><time>2026-03-29T07:31:49.177Z</time></trkpt><trkpt lat="45.184321" lon="9.146817"><ele>71.0</ele><time>2026-03-29T07:31:50.176Z</time></trkpt><trkpt lat="45.1842413" lon="9.1468087"><ele>71.0</ele><time>2026-03-29T07:31:51.177Z</time></trkpt><trkpt lat="45.184153" lon="9.1468013"><ele>71.0</ele><time>2026-03-29T07:31:52.175Z</time></trkpt><trkpt lat="45.1840565" lon="9.1467978"><ele>71.0</ele><time>2026-03-29T07:31:53.175Z</time></trkpt><trkpt lat="45.183962" lon="9.1467975"><ele>71.0</ele><time>2026-03-29T07:31:54.174Z</time></trkpt><trkpt lat="45.1838605" lon="9.1467962"><ele>70.75</ele><time>2026-03-29T07:31:55.174Z</time></trkpt><trkpt lat="45.1837513" lon="9.1467898"><ele>70.5</ele><time>2026-03-29T07:31:56.175Z</time></trkpt><trkpt lat="45.183633" lon="9.1467878"><ele>70.25</ele><time>2026-03-29T07:31:57.175Z</time></trkpt><trkpt lat="45.1835143" lon="9.1467783"><ele>70.0</ele><time>2026-03-29T07:31:58.175Z</time></trkpt><trkpt lat="45.1833943" lon="9.1467707"><ele>70.0</ele><time>2026-03-29T07:31:59.175Z</time></trkpt><trkpt lat="45.1832765" lon="9.146767"><ele>70.0</ele><time>2026-03-29T07:32:00.176Z</time></trkpt><trkpt lat="45.1831593" lon="9.1467637"><ele>70.0</ele><time>2026-03-29T07:32:01.174Z</time></trkpt><trkpt lat="45.1830543" lon="9.146756"><ele>70.0</ele><time>2026-03-29T07:32:02.175Z</time></trkpt><trkpt lat="45.1829575" lon="9.1467432"><ele>70.0</ele><time>2026-03-29T07:32:03.177Z</time></trkpt><trkpt lat="45.1828627" lon="9.1467312"><ele>69.83333333333333</ele><time>2026-03-29T07:32:04.177Z</time></trkpt><trkpt lat="45.1827732" lon="9.1467102"><ele>69.66666666666666</ele><time>2026-03-29T07:32:05.177Z</time></trkpt><trkpt lat="45.1826893" lon="9.146667"><ele>69.5</ele><time>2026-03-29T07:32:06.177Z</time></trkpt><trkpt lat="45.1826072" lon="9.1466025"><ele>69.33333333333333</ele><time>2026-03-29T07:32:07.179Z</time></trkpt><trkpt lat="45.1825315" lon="9.1465427"><ele>69.16666666666667</ele><time>2026-03-29T07:32:08.178Z</time></trkpt><trkpt lat="45.1824543" lon="9.1465125"><ele>69.0</ele><time>2026-03-29T07:32:09.177Z</time></trkpt><trkpt lat="45.1823798" lon="9.1465232"><ele>67.0</ele><time>2026-03-29T07:32:10.178Z</time></trkpt><trkpt lat="45.1823168" lon="9.1465652"><ele>65.0</ele><time>2026-03-29T07:32:11.179Z</time></trkpt><trkpt lat="45.1822423" lon="9.1466227"><ele>63.00000000000001</ele><time>2026-03-29T07:32:12.177Z</time></trkpt><trkpt lat="45.1821497" lon="9.1466638"><ele>61.0</ele><time>2026-03-29T07:32:13.177Z</time></trkpt><trkpt lat="45.1820332" lon="9.146673"><ele>59.0</ele><time>2026-03-29T07:32:14.178Z</time></trkpt><trkpt lat="45.1819023" lon="9.1466635"><ele>59.0</ele><time>2026-03-29T07:32:15.177Z</time></trkpt><trkpt lat="45.1817737" lon="9.1466545"><ele>59.0</ele><time>2026-03-29T07:32:16.178Z</time></trkpt><trkpt lat="45.1816465" lon="9.1466478"><ele>59.0</ele><time>2026-03-29T07:32:17.177Z</time></trkpt><trkpt lat="45.181517" lon="9.1466397"><ele>59.0</ele><time>2026-03-29T07:32:18.174Z</time></trkpt><trkpt lat="45.1813873" lon="9.1466282"><ele>57.5</ele><time>2026-03-29T07:32:19.175Z</time></trkpt><trkpt lat="45.1812465" lon="9.1466172"><ele>56.0</ele><time>2026-03-29T07:32:20.175Z</time></trkpt><trkpt lat="45.1810973" lon="9.1466073"><ele>54.5</ele><time>2026-03-29T07:32:21.176Z</time></trkpt><trkpt lat="45.1809413" lon="9.1465988"><ele>53.0</ele><time>2026-03-29T07:32:22.179Z</time></trkpt><trkpt lat="45.180785" lon="9.1465888"><ele>53.333333333333336</ele><time>2026-03-29T07:32:23.178Z</time></trkpt><trkpt lat="45.1806322" lon="9.1465777"><ele>53.66666666666667</ele><time>2026-03-29T07:32:24.179Z</time></trkpt><trkpt lat="45.1804815" lon="9.1465663"><ele>54.0</ele><time>2026-03-29T07:32:25.178Z</time></trkpt><trkpt lat="45.1803345" lon="9.1465563"><ele>54.0</ele><time>2026-03-29T07:32:26.18Z</time></trkpt><trkpt lat="45.1801887" lon="9.146547"><ele>54.0</ele><time>2026-03-29T07:32:27.179Z</time></trkpt><trkpt lat="45.1800415" lon="9.146536"><ele>54.0</ele><time>2026-03-29T07:32:28.178Z</time></trkpt><trkpt lat="45.179893" lon="9.1465252"><ele>54.0</ele><time>2026-03-29T07:32:29.178Z</time></trkpt><trkpt lat="45.179742" lon="9.1465157"><ele>57.66666666666667</ele><time>2026-03-29T07:32:30.177Z</time></trkpt><trkpt lat="45.17959" lon="9.1465072"><ele>61.333333333333336</ele><time>2026-03-29T07:32:31.179Z</time></trkpt><trkpt lat="45.179436" lon="9.1465002"><ele>65.0</ele><time>2026-03-29T07:32:32.178Z</time></trkpt><trkpt lat="45.1792715" lon="9.1464937"><ele>65.0</ele><time>2026-03-29T07:32:33.178Z</time></trkpt><trkpt lat="45.179099" lon="9.1464867"><ele>65.0</ele><time>2026-03-29T07:32:34.178Z</time></trkpt><trkpt lat="45.1789242" lon="9.1464775"><ele>65.0</ele><time>2026-03-29T07:32:35.177Z</time></trkpt><trkpt lat="45.1787515" lon="9.1464668"><ele>65.33333333333334</ele><time>2026-03-29T07:32:36.179Z</time></trkpt><trkpt lat="45.1785845" lon="9.146455"><ele>65.66666666666667</ele><time>2026-03-29T07:32:37.18Z</time></trkpt><trkpt lat="45.1784235" lon="9.146444"><ele>66.0</ele><time>2026-03-29T07:32:38.178Z</time></trkpt><trkpt lat="45.1782713" lon="9.1464355"><ele>66.75</ele><time>2026-03-29T07:32:39.179Z</time></trkpt><trkpt lat="45.1781245" lon="9.1464275"><ele>67.5</ele><time>2026-03-29T07:32:40.179Z</time></trkpt><trkpt lat="45.1779812" lon="9.1464192"><ele>68.25</ele><time>2026-03-29T07:32:41.178Z</time></trkpt><trkpt lat="45.1778448" lon="9.1464118"><ele>69.0</ele><time>2026-03-29T07:32:42.177Z</time></trkpt><trkpt lat="45.1777175" lon="9.1464025"><ele>69.0</ele><time>2026-03-29T07:32:43.178Z</time></trkpt><trkpt lat="45.1776008" lon="9.1463952"><ele>69.0</ele><time>2026-03-29T07:32:44.179Z</time></trkpt><trkpt lat="45.1774965" lon="9.1463877"><ele>69.0</ele><time>2026-03-29T07:32:45.177Z</time></trkpt><trkpt lat="45.1774052" lon="9.146378"><ele>69.0</ele><time>2026-03-29T07:32:46.18Z</time></trkpt><trkpt lat="45.1773167" lon="9.1463617"><ele>69.0</ele><time>2026-03-29T07:32:47.18Z</time></trkpt><trkpt lat="45.1772268" lon="9.1463268"><ele>68.2</ele><time>2026-03-29T07:32:48.181Z</time></trkpt><trkpt lat="45.1771323" lon="9.1462692"><ele>67.4</ele><time>2026-03-29T07:32:49.182Z</time></trkpt><trkpt lat="45.1770333" lon="9.1462143"><ele>66.6</ele><time>2026-03-29T07:32:50.181Z</time></trkpt><trkpt lat="45.1769383" lon="9.1461972"><ele>65.8</ele><time>2026-03-29T07:32:51.179Z</time></trkpt><trkpt lat="45.1768443" lon="9.1462237"><ele>65.0</ele><time>2026-03-29T07:32:52.18Z</time></trkpt><trkpt lat="45.1767447" lon="9.1462703"><ele>65.0</ele><time>2026-03-29T07:32:53.18Z</time></trkpt><trkpt lat="45.1766348" lon="9.146303"><ele>65.0</ele><time>2026-03-29T07:32:54.179Z</time></trkpt><trkpt lat="45.1765117" lon="9.1463157"><ele>65.0</ele><time>2026-03-29T07:32:55.18Z</time></trkpt><trkpt lat="45.176381" lon="9.1463143"><ele>65.0</ele><time>2026-03-29T07:32:56.18Z</time></trkpt><trkpt lat="45.1762378" lon="9.1463082"><ele>64.0</ele><time>2026-03-29T07:32:57.18Z</time></trkpt><trkpt lat="45.1760792" lon="9.1463015"><ele>63.0</ele><time>2026-03-29T07:32:58.18Z</time></trkpt><trkpt lat="45.1759088" lon="9.1462937"><ele>62.0</ele><time>2026-03-29T07:32:59.18Z</time></trkpt><trkpt lat="45.1757403" lon="9.1462832"><ele>62.0</ele><time>2026-03-29T07:33:00.18Z</time></trkpt><trkpt lat="45.1755688" lon="9.1462728"><ele>62.0</ele><time>2026-03-29T07:33:01.179Z</time></trkpt><trkpt lat="45.1753945" lon="9.1462605"><ele>62.0</ele><time>2026-03-29T07:33:02.179Z</time></trkpt><trkpt lat="45.1752185" lon="9.1462483"><ele>62.0</ele><time>2026-03-29T07:33:03.179Z</time></trkpt><trkpt lat="45.1750447" lon="9.1462357"><ele>62.0</ele><time>2026-03-29T07:33:04.18Z</time></trkpt><trkpt lat="45.1748807" lon="9.1462235"><ele>62.0</ele><time>2026-03-29T07:33:05.181Z</time></trkpt><trkpt lat="45.1747158" lon="9.146204"><ele>61.333333333333336</ele><time>2026-03-29T07:33:06.18Z</time></trkpt><trkpt lat="45.174553" lon="9.1461825"><ele>60.66666666666667</ele><time>2026-03-29T07:33:07.178Z</time></trkpt><trkpt lat="45.1743922" lon="9.1461537"><ele>60.0</ele><time>2026-03-29T07:33:08.18Z</time></trkpt><trkpt lat="45.1742333" lon="9.1461217"><ele>60.0</ele><time>2026-03-29T07:33:09.178Z</time></trkpt><trkpt lat="45.1740755" lon="9.1460898"><ele>60.0</ele><time>2026-03-29T07:33:10.178Z</time></trkpt><trkpt lat="45.17392" lon="9.1460525"><ele>60.0</ele><time>2026-03-29T07:33:11.179Z</time></trkpt><trkpt lat="45.1737632" lon="9.1460113"><ele>61.33333333333333</ele><time>2026-03-29T07:33:12.179Z</time></trkpt><trkpt lat="45.1736033" lon="9.1459677"><ele>62.666666666666664</ele><time>2026-03-29T07:33:13.178Z</time></trkpt><trkpt lat="45.1734407" lon="9.1459207"><ele>64.0</ele><time>2026-03-29T07:33:14.178Z</time></trkpt><trkpt lat="45.173276" lon="9.1458698"><ele>64.0</ele><time>2026-03-29T07:33:15.18Z</time></trkpt><trkpt lat="45.1731125" lon="9.1458173"><ele>64.0</ele><time>2026-03-29T07:33:16.178Z</time></trkpt><trkpt lat="45.1729585" lon="9.1457633"><ele>64.0</ele><time>2026-03-29T07:33:17.179Z</time></trkpt><trkpt lat="45.172813" lon="9.1457107"><ele>63.5</ele><time>2026-03-29T07:33:18.179Z</time></trkpt><trkpt lat="45.1726753" lon="9.1456562"><ele>63.0</ele><time>2026-03-29T07:33:19.179Z</time></trkpt><trkpt lat="45.1725422" lon="9.1455972"><ele>62.5</ele><time>2026-03-29T07:33:20.178Z</time></trkpt><trkpt lat="45.1724107" lon="9.1455345"><ele>62.0</ele><time>2026-03-29T07:33:21.18Z</time></trkpt><trkpt lat="45.1722767" lon="9.1454682"><ele>62.0</ele><time>2026-03-29T07:33:22.18Z</time></trkpt><trkpt lat="45.1721453" lon="9.1454008"><ele>62.0</ele><time>2026-03-29T07:33:23.178Z</time></trkpt><trkpt lat="45.1720187" lon="9.1453357"><ele>62.0</ele><time>2026-03-29T07:33:24.179Z</time></trkpt><trkpt lat="45.1718967" lon="9.14527"><ele>62.0</ele><time>2026-03-29T07:33:25.179Z</time></trkpt><trkpt lat="45.1717753" lon="9.1452015"><ele>62.0</ele><time>2026-03-29T07:33:26.179Z</time></trkpt><trkpt lat="45.1716532" lon="9.1451317"><ele>62.0</ele><time>2026-03-29T07:33:27.181Z</time></trkpt><trkpt lat="45.1715325" lon="9.145061"><ele>62.0</ele><time>2026-03-29T07:33:28.179Z</time></trkpt><trkpt lat="45.1714087" lon="9.1449862"><ele>62.0</ele><time>2026-03-29T07:33:29.179Z</time></trkpt><trkpt lat="45.1712825" lon="9.1449075"><ele>62.0</ele><time>2026-03-29T07:33:30.18Z</time></trkpt><trkpt lat="45.1711615" lon="9.144831"><ele>62.0</ele><time>2026-03-29T07:33:31.179Z</time></trkpt><trkpt lat="45.1710428" lon="9.1447523"><ele>62.0</ele><time>2026-03-29T07:33:32.178Z</time></trkpt><trkpt lat="45.17092" lon="9.144667"><ele>62.0</ele><time>2026-03-29T07:33:33.178Z</time></trkpt><trkpt lat="45.1707943" lon="9.1445743"><ele>62.5</ele><time>2026-03-29T07:33:34.179Z</time></trkpt><trkpt lat="45.170666" lon="9.1444755"><ele>63.0</ele><time>2026-03-29T07:33:35.178Z</time></trkpt><trkpt lat="45.1705362" lon="9.1443702"><ele>63.5</ele><time>2026-03-29T07:33:36.181Z</time></trkpt><trkpt lat="45.1704043" lon="9.1442607"><ele>64.0</ele><time>2026-03-29T07:33:37.18Z</time></trkpt><trkpt lat="45.1702748" lon="9.1441515"><ele>63.666666666666664</ele><time>2026-03-29T07:33:38.179Z</time></trkpt><trkpt lat="45.170142" lon="9.1440395"><ele>63.33333333333333</ele><time>2026-03-29T07:33:39.182Z</time></trkpt><trkpt lat="45.1700047" lon="9.1439233"><ele>63.0</ele><time>2026-03-29T07:33:40.18Z</time></trkpt><trkpt lat="45.1698673" lon="9.1438088"><ele>63.0</ele><time>2026-03-29T07:33:41.18Z</time></trkpt><trkpt lat="45.1697352" lon="9.1436965"><ele>63.0</ele><time>2026-03-29T07:33:42.179Z</time></trkpt><trkpt lat="45.169608" lon="9.1435793"><ele>63.0</ele><time>2026-03-29T07:33:43.179Z</time></trkpt><trkpt lat="45.1694833" lon="9.1434505"><ele>63.0</ele><time>2026-03-29T07:33:44.179Z</time></trkpt><trkpt lat="45.1693618" lon="9.1433117"><ele>63.0</ele><time>2026-03-29T07:33:45.18Z</time></trkpt><trkpt lat="45.1692407" lon="9.1431643"><ele>63.0</ele><time>2026-03-29T07:33:46.181Z</time></trkpt><trkpt lat="45.1691197" lon="9.1430097"><ele>62.33333333333333</ele><time>2026-03-29T07:33:47.182Z</time></trkpt><trkpt lat="45.1689997" lon="9.1428515"><ele>61.666666666666664</ele><time>2026-03-29T07:33:48.181Z</time></trkpt><trkpt lat="45.1688808" lon="9.1426905"><ele>61.0</ele><time>2026-03-29T07:33:49.181Z</time></trkpt><trkpt lat="45.1687633" lon="9.1425285"><ele>60.33333333333333</ele><time>2026-03-29T07:33:50.182Z</time></trkpt><trkpt lat="45.1686457" lon="9.1423655"><ele>59.66666666666667</ele><time>2026-03-29T07:33:51.18Z</time></trkpt><trkpt lat="45.168527" lon="9.1422018"><ele>59.0</ele><time>2026-03-29T07:33:52.183Z</time></trkpt><trkpt lat="45.1684072" lon="9.1420365"><ele>59.0</ele><time>2026-03-29T07:33:53.179Z</time></trkpt><trkpt lat="45.1682853" lon="9.141868"><ele>59.0</ele><time>2026-03-29T07:33:54.18Z</time></trkpt><trkpt lat="45.168161" lon="9.1416965"><ele>59.0</ele><time>2026-03-29T07:33:55.181Z</time></trkpt><trkpt lat="45.1680342" lon="9.1415215"><ele>59.333333333333336</ele><time>2026-03-29T07:33:56.178Z</time></trkpt><trkpt lat="45.1679048" lon="9.1413423"><ele>59.66666666666667</ele><time>2026-03-29T07:33:57.181Z</time></trkpt><trkpt lat="45.1677733" lon="9.1411588"><ele>60.0</ele><time>2026-03-29T07:33:58.18Z</time></trkpt><trkpt lat="45.167643" lon="9.1409775"><ele>60.0</ele><time>2026-03-29T07:33:59.179Z</time></trkpt><trkpt lat="45.167509" lon="9.1407913"><ele>60.0</ele><time>2026-03-29T07:34:00.181Z</time></trkpt><trkpt lat="45.1673698" lon="9.1405977"><ele>60.0</ele><time>2026-03-29T07:34:01.181Z</time></trkpt><trkpt lat="45.1672293" lon="9.1404028"><ele>60.0</ele><time>2026-03-29T07:34:02.181Z</time></trkpt><trkpt lat="45.1670885" lon="9.1402127"><ele>60.0</ele><time>2026-03-29T07:34:03.18Z</time></trkpt><trkpt lat="45.166943" lon="9.1400213"><ele>60.0</ele><time>2026-03-29T07:34:04.181Z</time></trkpt><trkpt lat="45.1667927" lon="9.139827"><ele>60.0</ele><time>2026-03-29T07:34:05.18Z</time></trkpt><trkpt lat="45.1666477" lon="9.1396385"><ele>60.0</ele><time>2026-03-29T07:34:06.181Z</time></trkpt><trkpt lat="45.1665122" lon="9.1394613"><ele>60.0</ele><time>2026-03-29T07:34:07.181Z</time></trkpt><trkpt lat="45.1663737" lon="9.139283"><ele>60.66666666666667</ele><time>2026-03-29T07:34:08.181Z</time></trkpt><trkpt lat="45.1662205" lon="9.1390917"><ele>61.333333333333336</ele><time>2026-03-29T07:34:09.181Z</time></trkpt><trkpt lat="45.1660573" lon="9.1388868"><ele>62.0</ele><time>2026-03-29T07:34:10.182Z</time></trkpt><trkpt lat="45.1658942" lon="9.1386752"><ele>62.333333333333336</ele><time>2026-03-29T07:34:11.181Z</time></trkpt><trkpt lat="45.165732" lon="9.1384592"><ele>62.66666666666667</ele><time>2026-03-29T07:34:12.181Z</time></trkpt><trkpt lat="45.1655713" lon="9.1382468"><ele>63.0</ele><time>2026-03-29T07:34:13.18Z</time></trkpt><trkpt lat="45.1654183" lon="9.1380485"><ele>63.0</ele><time>2026-03-29T07:34:14.18Z</time></trkpt><trkpt lat="45.1652738" lon="9.1378667"><ele>63.0</ele><time>2026-03-29T07:34:15.18Z</time></trkpt><trkpt lat="45.1651372" lon="9.1376948"><ele>63.0</ele><time>2026-03-29T07:34:16.183Z</time></trkpt><trkpt lat="45.1650098" lon="9.1375313"><ele>62.66666666666667</ele><time>2026-03-29T07:34:17.181Z</time></trkpt><trkpt lat="45.1648888" lon="9.1373747"><ele>62.333333333333336</ele><time>2026-03-29T07:34:18.181Z</time></trkpt><trkpt lat="45.1647652" lon="9.1372163"><ele>62.0</ele><time>2026-03-29T07:34:19.181Z</time></trkpt><trkpt lat="45.164639" lon="9.1370602"><ele>62.0</ele><time>2026-03-29T07:34:20.18Z</time></trkpt><trkpt lat="45.1645218" lon="9.136917"><ele>62.0</ele><time>2026-03-29T07:34:21.179Z</time></trkpt><trkpt lat="45.164417" lon="9.1367888"><ele>62.0</ele><time>2026-03-29T07:34:22.179Z</time></trkpt><trkpt lat="45.1643237" lon="9.1366725"><ele>62.0</ele><time>2026-03-29T07:34:23.179Z</time></trkpt><trkpt lat="45.1642437" lon="9.136572"><ele>62.2</ele><time>2026-03-29T07:34:24.179Z</time></trkpt><trkpt lat="45.1641755" lon="9.1364862"><ele>62.400000000000006</ele><time>2026-03-29T07:34:25.18Z</time></trkpt><trkpt lat="45.1641255" lon="9.1364205"><ele>62.599999999999994</ele><time>2026-03-29T07:34:26.181Z</time></trkpt><trkpt lat="45.1640645" lon="9.1363203"><ele>62.8</ele><time>2026-03-29T07:34:28.182Z</time></trkpt><trkpt lat="45.1640352" lon="9.1361957"><ele>63.0</ele><time>2026-03-29T07:34:30.183Z</time></trkpt><trkpt lat="45.1639848" lon="9.1360443"><ele>62.666666666666664</ele><time>2026-03-29T07:34:32.183Z</time></trkpt><trkpt lat="45.163934" lon="9.1359882"><ele>62.33333333333333</ele><time>2026-03-29T07:34:33.181Z</time></trkpt><trkpt lat="45.1638713" lon="9.1359523"><ele>62.0</ele><time>2026-03-29T07:34:34.182Z</time></trkpt><trkpt lat="45.1637942" lon="9.135916"><ele>61.666666666666664</ele><time>2026-03-29T07:34:35.182Z</time></trkpt><trkpt lat="45.1637112" lon="9.1358622"><ele>61.33333333333333</ele><time>2026-03-29T07:34:36.184Z</time></trkpt><trkpt lat="45.1636303" lon="9.1357908"><ele>61.0</ele><time>2026-03-29T07:34:37.182Z</time></trkpt><trkpt lat="45.1635465" lon="9.135702"><ele>61.0</ele><time>2026-03-29T07:34:38.183Z</time></trkpt><trkpt lat="45.1634622" lon="9.135601"><ele>61.0</ele><time>2026-03-29T07:34:39.181Z</time></trkpt><trkpt lat="45.1633763" lon="9.1354913"><ele>61.0</ele><time>2026-03-29T07:34:40.182Z</time></trkpt><trkpt lat="45.1632877" lon="9.1353782"><ele>61.0</ele><time>2026-03-29T07:34:41.184Z</time></trkpt><trkpt lat="45.163196" lon="9.1352635"><ele>61.25</ele><time>2026-03-29T07:34:42.182Z</time></trkpt><trkpt lat="45.163103" lon="9.1351475"><ele>61.5</ele><time>2026-03-29T07:34:43.182Z</time></trkpt><trkpt lat="45.1630047" lon="9.1350237"><ele>61.75</ele><time>2026-03-29T07:34:44.184Z</time></trkpt><trkpt lat="45.1629042" lon="9.1348967"><ele>62.0</ele><time>2026-03-29T07:34:45.181Z</time></trkpt><trkpt lat="45.1628048" lon="9.1347723"><ele>62.0</ele><time>2026-03-29T07:34:46.182Z</time></trkpt><trkpt lat="45.1627067" lon="9.13465"><ele>62.0</ele><time>2026-03-29T07:34:47.181Z</time></trkpt><trkpt lat="45.162605" lon="9.1345247"><ele>62.0</ele><time>2026-03-29T07:34:48.179Z</time></trkpt><trkpt lat="45.1625008" lon="9.1343943"><ele>62.0</ele><time>2026-03-29T07:34:49.182Z</time></trkpt><trkpt lat="45.1623947" lon="9.1342605"><ele>62.25</ele><time>2026-03-29T07:34:50.182Z</time></trkpt><trkpt lat="45.1622883" lon="9.1341268"><ele>62.5</ele><time>2026-03-29T07:34:51.182Z</time></trkpt><trkpt lat="45.1621845" lon="9.1339953"><ele>62.75</ele><time>2026-03-29T07:34:52.182Z</time></trkpt><trkpt lat="45.1620812" lon="9.1338645"><ele>63.0</ele><time>2026-03-29T07:34:53.181Z</time></trkpt><trkpt lat="45.1619765" lon="9.1337318"><ele>63.0</ele><time>2026-03-29T07:34:54.181Z</time></trkpt><trkpt lat="45.1618702" lon="9.133598"><ele>63.0</ele><time>2026-03-29T07:34:55.181Z</time></trkpt><trkpt lat="45.161764" lon="9.1334627"><ele>63.0</ele><time>2026-03-29T07:34:56.181Z</time></trkpt><trkpt lat="45.1616602" lon="9.1333285"><ele>63.0</ele><time>2026-03-29T07:34:57.181Z</time></trkpt><trkpt lat="45.1615587" lon="9.133198"><ele>62.75</ele><time>2026-03-29T07:34:58.181Z</time></trkpt><trkpt lat="45.1614577" lon="9.1330703"><ele>62.5</ele><time>2026-03-29T07:34:59.184Z</time></trkpt><trkpt lat="45.1613545" lon="9.1329397"><ele>62.25</ele><time>2026-03-29T07:35:00.181Z</time></trkpt><trkpt lat="45.161246" lon="9.1328042"><ele>62.0</ele><time>2026-03-29T07:35:01.182Z</time></trkpt><trkpt lat="45.1611338" lon="9.1326635"><ele>62.0</ele><time>2026-03-29T07:35:02.182Z</time></trkpt><trkpt lat="45.1610197" lon="9.1325212"><ele>62.0</ele><time>2026-03-29T07:35:03.182Z</time></trkpt><trkpt lat="45.1609068" lon="9.1323813"><ele>62.0</ele><time>2026-03-29T07:35:04.183Z</time></trkpt><trkpt lat="45.1607948" lon="9.1322422"><ele>62.333333333333336</ele><time>2026-03-29T07:35:05.183Z</time></trkpt><trkpt lat="45.1606827" lon="9.1321018"><ele>62.66666666666667</ele><time>2026-03-29T07:35:06.182Z</time></trkpt><trkpt lat="45.1605717" lon="9.1319628"><ele>63.0</ele><time>2026-03-29T07:35:07.182Z</time></trkpt><trkpt lat="45.1604575" lon="9.1318205"><ele>63.0</ele><time>2026-03-29T07:35:08.182Z</time></trkpt><trkpt lat="45.16034" lon="9.1316743"><ele>63.0</ele><time>2026-03-29T07:35:09.181Z</time></trkpt><trkpt lat="45.160231" lon="9.1315352"><ele>63.0</ele><time>2026-03-29T07:35:10.182Z</time></trkpt><trkpt lat="45.1601332" lon="9.1314073"><ele>63.0</ele><time>2026-03-29T07:35:11.181Z</time></trkpt><trkpt lat="45.1600443" lon="9.1312918"><ele>63.25</ele><time>2026-03-29T07:35:12.182Z</time></trkpt><trkpt lat="45.159959" lon="9.1311812"><ele>63.5</ele><time>2026-03-29T07:35:13.182Z</time></trkpt><trkpt lat="45.1598663" lon="9.1310637"><ele>63.75</ele><time>2026-03-29T07:35:14.182Z</time></trkpt><trkpt lat="45.1597792" lon="9.1309533"><ele>64.0</ele><time>2026-03-29T07:35:15.183Z</time></trkpt><trkpt lat="45.1597057" lon="9.13086"><ele>63.99999999999999</ele><time>2026-03-29T07:35:16.182Z</time></trkpt><trkpt lat="45.1596485" lon="9.1307863"><ele>64.0</ele><time>2026-03-29T07:35:17.184Z</time></trkpt><trkpt lat="45.1595635" lon="9.1306797"><ele>64.0</ele><time>2026-03-29T07:35:19.185Z</time></trkpt><trkpt lat="45.159502" lon="9.1306073"><ele>64.0</ele><time>2026-03-29T07:35:22.183Z</time></trkpt><trkpt lat="45.159427" lon="9.1305195"><ele>63.99999999999999</ele><time>2026-03-29T07:35:24.181Z</time></trkpt><trkpt lat="45.1593715" lon="9.1304485"><ele>64.0</ele><time>2026-03-29T07:35:25.182Z</time></trkpt><trkpt lat="45.1592983" lon="9.1303528"><ele>64.0</ele><time>2026-03-29T07:35:26.182Z</time></trkpt><trkpt lat="45.1592175" lon="9.1302462"><ele>64.0</ele><time>2026-03-29T07:35:27.181Z</time></trkpt><trkpt lat="45.1591297" lon="9.1301298"><ele>64.0</ele><time>2026-03-29T07:35:28.181Z</time></trkpt><trkpt lat="45.159027" lon="9.1299967"><ele>64.0</ele><time>2026-03-29T07:35:29.181Z</time></trkpt><trkpt lat="45.1589158" lon="9.1298563"><ele>62.666666666666664</ele><time>2026-03-29T07:35:30.181Z</time></trkpt><trkpt lat="45.158797" lon="9.1297073"><ele>61.33333333333333</ele><time>2026-03-29T07:35:31.181Z</time></trkpt><trkpt lat="45.1586693" lon="9.1295472"><ele>60.0</ele><time>2026-03-29T07:35:32.181Z</time></trkpt><trkpt lat="45.1585382" lon="9.129381"><ele>60.0</ele><time>2026-03-29T07:35:33.18Z</time></trkpt><trkpt lat="45.1583997" lon="9.1292057"><ele>60.0</ele><time>2026-03-29T07:35:34.18Z</time></trkpt><trkpt lat="45.1582592" lon="9.1290307"><ele>60.0</ele><time>2026-03-29T07:35:35.179Z</time></trkpt><trkpt lat="45.1581107" lon="9.1288513"><ele>60.33333333333333</ele><time>2026-03-29T07:35:36.178Z</time></trkpt><trkpt lat="45.1579562" lon="9.1286698"><ele>60.666666666666664</ele><time>2026-03-29T07:35:37.179Z</time></trkpt><trkpt lat="45.1577995" lon="9.1284848"><ele>61.0</ele><time>2026-03-29T07:35:38.182Z</time></trkpt><trkpt lat="45.157643" lon="9.1282945"><ele>61.0</ele><time>2026-03-29T07:35:39.181Z</time></trkpt><trkpt lat="45.1574883" lon="9.1281032"><ele>61.0</ele><time>2026-03-29T07:35:40.18Z</time></trkpt><trkpt lat="45.1573365" lon="9.1279155"><ele>61.0</ele><time>2026-03-29T07:35:41.181Z</time></trkpt><trkpt lat="45.1571862" lon="9.1277303"><ele>61.0</ele><time>2026-03-29T07:35:42.182Z</time></trkpt><trkpt lat="45.157039" lon="9.1275463"><ele>61.0</ele><time>2026-03-29T07:35:43.181Z</time></trkpt><trkpt lat="45.1568948" lon="9.127366"><ele>61.0</ele><time>2026-03-29T07:35:44.179Z</time></trkpt><trkpt lat="45.1567535" lon="9.1271878"><ele>61.33333333333333</ele><time>2026-03-29T07:35:45.18Z</time></trkpt><trkpt lat="45.1566168" lon="9.127015"><ele>61.66666666666667</ele><time>2026-03-29T07:35:46.181Z</time></trkpt><trkpt lat="45.1564898" lon="9.1268533"><ele>62.0</ele><time>2026-03-29T07:35:47.181Z</time></trkpt><trkpt lat="45.1563678" lon="9.1266985"><ele>61.333333333333336</ele><time>2026-03-29T07:35:48.18Z</time></trkpt><trkpt lat="45.1562452" lon="9.126544"><ele>60.66666666666667</ele><time>2026-03-29T07:35:49.18Z</time></trkpt><trkpt lat="45.1561227" lon="9.1263895"><ele>60.0</ele><time>2026-03-29T07:35:50.181Z</time></trkpt><trkpt lat="45.1560002" lon="9.1262367"><ele>60.0</ele><time>2026-03-29T07:35:51.18Z</time></trkpt><trkpt lat="45.155884" lon="9.1260913"><ele>60.0</ele><time>2026-03-29T07:35:52.179Z</time></trkpt><trkpt lat="45.1557753" lon="9.1259558"><ele>60.0</ele><time>2026-03-29T07:35:53.18Z</time></trkpt><trkpt lat="45.1556723" lon="9.1258273"><ele>60.0</ele><time>2026-03-29T07:35:54.18Z</time></trkpt><trkpt lat="45.1555713" lon="9.1256992"><ele>60.5</ele><time>2026-03-29T07:35:55.183Z</time></trkpt><trkpt lat="45.1554722" lon="9.1255662"><ele>61.0</ele><time>2026-03-29T07:35:56.18Z</time></trkpt><trkpt lat="45.155378" lon="9.125422"><ele>61.5</ele><time>2026-03-29T07:35:57.181Z</time></trkpt><trkpt lat="45.1552942" lon="9.125273"><ele>62.0</ele><time>2026-03-29T07:35:58.18Z</time></trkpt><trkpt lat="45.155227" lon="9.1251317"><ele>62.00000000000001</ele><time>2026-03-29T07:35:59.183Z</time></trkpt><trkpt lat="45.1551787" lon="9.1249983"><ele>62.0</ele><time>2026-03-29T07:36:00.179Z</time></trkpt><trkpt lat="45.1551498" lon="9.1248698"><ele>62.0</ele><time>2026-03-29T07:36:01.179Z</time></trkpt><trkpt lat="45.1551393" lon="9.1247467"><ele>62.0</ele><time>2026-03-29T07:36:02.18Z</time></trkpt><trkpt lat="45.155147" lon="9.1246377"><ele>62.00000000000001</ele><time>2026-03-29T07:36:03.181Z</time></trkpt><trkpt lat="45.155172" lon="9.1245382"><ele>62.0</ele><time>2026-03-29T07:36:04.181Z</time></trkpt><trkpt lat="45.1552117" lon="9.1244417"><ele>61.8</ele><time>2026-03-29T07:36:05.182Z</time></trkpt><trkpt lat="45.1552705" lon="9.1243488"><ele>61.6</ele><time>2026-03-29T07:36:06.181Z</time></trkpt><trkpt lat="45.1553417" lon="9.1242598"><ele>61.39999999999999</ele><time>2026-03-29T07:36:07.182Z</time></trkpt><trkpt lat="45.1554127" lon="9.124168"><ele>61.199999999999996</ele><time>2026-03-29T07:36:08.183Z</time></trkpt><trkpt lat="45.1554753" lon="9.124058"><ele>61.0</ele><time>2026-03-29T07:36:09.182Z</time></trkpt><trkpt lat="45.1555185" lon="9.1239302"><ele>61.0</ele><time>2026-03-29T07:36:10.181Z</time></trkpt><trkpt lat="45.15554" lon="9.123792"><ele>60.99999999999999</ele><time>2026-03-29T07:36:11.18Z</time></trkpt><trkpt lat="45.1555368" lon="9.123651"><ele>60.99999999999999</ele><time>2026-03-29T07:36:12.18Z</time></trkpt><trkpt lat="45.1555098" lon="9.1235147"><ele>61.0</ele><time>2026-03-29T07:36:13.181Z</time></trkpt><trkpt lat="45.1554622" lon="9.1233882"><ele>61.0</ele><time>2026-03-29T07:36:14.181Z</time></trkpt><trkpt lat="45.1553972" lon="9.123277"><ele>61.0</ele><time>2026-03-29T07:36:15.181Z</time></trkpt><trkpt lat="45.1553257" lon="9.1231852"><ele>60.99999999999999</ele><time>2026-03-29T07:36:16.18Z</time></trkpt><trkpt lat="45.1552527" lon="9.1231067"><ele>60.99999999999999</ele><time>2026-03-29T07:36:17.183Z</time></trkpt><trkpt lat="45.1551682" lon="9.1230305"><ele>61.0</ele><time>2026-03-29T07:36:18.18Z</time></trkpt><trkpt lat="45.155081" lon="9.1229447"><ele>61.0</ele><time>2026-03-29T07:36:19.18Z</time></trkpt><trkpt lat="45.1550112" lon="9.1228442"><ele>61.0</ele><time>2026-03-29T07:36:20.179Z</time></trkpt><trkpt lat="45.1549677" lon="9.1227115"><ele>61.0</ele><time>2026-03-29T07:36:21.18Z</time></trkpt><trkpt lat="45.1549548" lon="9.1225445"><ele>61.0</ele><time>2026-03-29T07:36:22.181Z</time></trkpt><trkpt lat="45.1549637" lon="9.1223378"><ele>61.0</ele><time>2026-03-29T07:36:23.177Z</time></trkpt><trkpt lat="45.1549813" lon="9.1221085"><ele>61.0</ele><time>2026-03-29T07:36:24.178Z</time></trkpt><trkpt lat="45.1550033" lon="9.1218547"><ele>61.0</ele><time>2026-03-29T07:36:25.178Z</time></trkpt><trkpt lat="45.1550268" lon="9.1215892"><ele>61.0</ele><time>2026-03-29T07:36:26.178Z</time></trkpt><trkpt lat="45.1550513" lon="9.1213133"><ele>61.33333333333333</ele><time>2026-03-29T07:36:27.179Z</time></trkpt><trkpt lat="45.155076" lon="9.1210227"><ele>61.66666666666667</ele><time>2026-03-29T07:36:28.18Z</time></trkpt><trkpt lat="45.1551018" lon="9.1207182"><ele>62.0</ele><time>2026-03-29T07:36:29.18Z</time></trkpt><trkpt lat="45.1551275" lon="9.1204137"><ele>62.333333333333336</ele><time>2026-03-29T07:36:30.18Z</time></trkpt><trkpt lat="45.1551537" lon="9.1201095"><ele>62.66666666666667</ele><time>2026-03-29T07:36:31.18Z</time></trkpt><trkpt lat="45.1551797" lon="9.1198047"><ele>63.0</ele><time>2026-03-29T07:36:32.182Z</time></trkpt><trkpt lat="45.1552063" lon="9.1194983"><ele>63.0</ele><time>2026-03-29T07:36:33.18Z</time></trkpt><trkpt lat="45.1552323" lon="9.1191905"><ele>63.0</ele><time>2026-03-29T07:36:34.18Z</time></trkpt><trkpt lat="45.1552592" lon="9.1188822"><ele>63.0</ele><time>2026-03-29T07:36:35.179Z</time></trkpt><trkpt lat="45.1552867" lon="9.118575"><ele>62.66666666666667</ele><time>2026-03-29T07:36:36.18Z</time></trkpt><trkpt lat="45.1553147" lon="9.11827"><ele>62.333333333333336</ele><time>2026-03-29T07:36:37.181Z</time></trkpt><trkpt lat="45.1553422" lon="9.1179668"><ele>62.0</ele><time>2026-03-29T07:36:38.176Z</time></trkpt><trkpt lat="45.1553692" lon="9.1176653"><ele>61.0</ele><time>2026-03-29T07:36:39.18Z</time></trkpt><trkpt lat="45.1553958" lon="9.1173667"><ele>60.0</ele><time>2026-03-29T07:36:40.18Z</time></trkpt><trkpt lat="45.155423" lon="9.1170712"><ele>59.0</ele><time>2026-03-29T07:36:41.179Z</time></trkpt><trkpt lat="45.1554492" lon="9.1167762"><ele>58.66666666666667</ele><time>2026-03-29T07:36:42.181Z</time></trkpt><trkpt lat="45.1554738" lon="9.1164803"><ele>58.33333333333333</ele><time>2026-03-29T07:36:43.18Z</time></trkpt><trkpt lat="45.155498" lon="9.1161835"><ele>58.0</ele><time>2026-03-29T07:36:44.18Z</time></trkpt><trkpt lat="45.1555217" lon="9.1158858"><ele>59.0</ele><time>2026-03-29T07:36:45.18Z</time></trkpt><trkpt lat="45.1555442" lon="9.115587"><ele>60.0</ele><time>2026-03-29T07:36:46.181Z</time></trkpt><trkpt lat="45.1555668" lon="9.1152882"><ele>61.0</ele><time>2026-03-29T07:36:47.178Z</time></trkpt><trkpt lat="45.1555927" lon="9.1149907"><ele>61.33333333333333</ele><time>2026-03-29T07:36:48.179Z</time></trkpt><trkpt lat="45.1556188" lon="9.1146955"><ele>61.66666666666667</ele><time>2026-03-29T07:36:49.179Z</time></trkpt><trkpt lat="45.155644" lon="9.1144032"><ele>62.0</ele><time>2026-03-29T07:36:50.179Z</time></trkpt><trkpt lat="45.155669" lon="9.1141143"><ele>62.66666666666667</ele><time>2026-03-29T07:36:51.179Z</time></trkpt><trkpt lat="45.1556932" lon="9.1138283"><ele>63.33333333333333</ele><time>2026-03-29T07:36:52.181Z</time></trkpt><trkpt lat="45.155717" lon="9.1135452"><ele>64.0</ele><time>2026-03-29T07:36:53.179Z</time></trkpt><trkpt lat="45.1557403" lon="9.1132637"><ele>64.33333333333333</ele><time>2026-03-29T07:36:54.178Z</time></trkpt><trkpt lat="45.1557638" lon="9.112984"><ele>64.66666666666667</ele><time>2026-03-29T07:36:55.18Z</time></trkpt><trkpt lat="45.1557878" lon="9.1127053"><ele>65.0</ele><time>2026-03-29T07:36:56.18Z</time></trkpt><trkpt lat="45.1558115" lon="9.1124257"><ele>64.33333333333334</ele><time>2026-03-29T07:36:57.179Z</time></trkpt><trkpt lat="45.1558347" lon="9.1121433"><ele>63.66666666666667</ele><time>2026-03-29T07:36:58.18Z</time></trkpt><trkpt lat="45.1558577" lon="9.111859"><ele>63.0</ele><time>2026-03-29T07:36:59.18Z</time></trkpt><trkpt lat="45.1558817" lon="9.1115733"><ele>63.0</ele><time>2026-03-29T07:37:00.181Z</time></trkpt><trkpt lat="45.1559073" lon="9.1112905"><ele>63.0</ele><time>2026-03-29T07:37:01.183Z</time></trkpt><trkpt lat="45.1559318" lon="9.1110245"><ele>63.0</ele><time>2026-03-29T07:37:02.181Z</time></trkpt><trkpt lat="45.1559538" lon="9.110776"><ele>62.33333333333333</ele><time>2026-03-29T07:37:03.183Z</time></trkpt><trkpt lat="45.155974" lon="9.1105332"><ele>61.666666666666664</ele><time>2026-03-29T07:37:04.183Z</time></trkpt><trkpt lat="45.1559927" lon="9.1102973"><ele>61.0</ele><time>2026-03-29T07:37:05.179Z</time></trkpt><trkpt lat="45.1560085" lon="9.1100802"><ele>60.75</ele><time>2026-03-29T07:37:06.181Z</time></trkpt><trkpt lat="45.1560227" lon="9.1098835"><ele>60.5</ele><time>2026-03-29T07:37:07.18Z</time></trkpt><trkpt lat="45.1560373" lon="9.1097057"><ele>60.25</ele><time>2026-03-29T07:37:08.182Z</time></trkpt><trkpt lat="45.156052" lon="9.1095447"><ele>60.0</ele><time>2026-03-29T07:37:09.181Z</time></trkpt><trkpt lat="45.1560657" lon="9.1093977"><ele>60.0</ele><time>2026-03-29T07:37:10.181Z</time></trkpt><trkpt lat="45.1560785" lon="9.1092608"><ele>60.0</ele><time>2026-03-29T07:37:11.18Z</time></trkpt><trkpt lat="45.1560895" lon="9.1091438"><ele>60.0</ele><time>2026-03-29T07:37:12.18Z</time></trkpt><trkpt lat="45.1560997" lon="9.1090398"><ele>60.0</ele><time>2026-03-29T07:37:13.179Z</time></trkpt><trkpt lat="45.156115" lon="9.108886"><ele>60.0</ele><time>2026-03-29T07:37:15.178Z</time></trkpt><trkpt lat="45.1561275" lon="9.1087878"><ele>60.0</ele><time>2026-03-29T07:37:18.18Z</time></trkpt><trkpt lat="45.1561382" lon="9.1086943"><ele>60.2</ele><time>2026-03-29T07:37:24.18Z</time></trkpt><trkpt lat="45.1561715" lon="9.1084913"><ele>60.4</ele><time>2026-03-29T07:37:27.179Z</time></trkpt><trkpt lat="45.1561925" lon="9.1083073"><ele>60.599999999999994</ele><time>2026-03-29T07:37:29.179Z</time></trkpt><trkpt lat="45.1562052" lon="9.108196"><ele>60.8</ele><time>2026-03-29T07:37:30.18Z</time></trkpt><trkpt lat="45.1562165" lon="9.1080817"><ele>61.0</ele><time>2026-03-29T07:37:31.181Z</time></trkpt><trkpt lat="45.156224" lon="9.1079755"><ele>60.99999999999999</ele><time>2026-03-29T07:37:32.181Z</time></trkpt><trkpt lat="45.1562308" lon="9.1078678"><ele>61.0</ele><time>2026-03-29T07:37:33.181Z</time></trkpt><trkpt lat="45.1562382" lon="9.107756"><ele>61.0</ele><time>2026-03-29T07:37:34.179Z</time></trkpt><trkpt lat="45.1562438" lon="9.1076388"><ele>61.0</ele><time>2026-03-29T07:37:35.181Z</time></trkpt><trkpt lat="45.1562498" lon="9.1075117"><ele>60.99999999999999</ele><time>2026-03-29T07:37:36.179Z</time></trkpt><trkpt lat="45.1562547" lon="9.1073833"><ele>61.0</ele><time>2026-03-29T07:37:37.18Z</time></trkpt><trkpt lat="45.1562602" lon="9.1072578"><ele>61.0</ele><time>2026-03-29T07:37:38.177Z</time></trkpt><trkpt lat="45.156268" lon="9.1071238"><ele>60.99999999999999</ele><time>2026-03-29T07:37:39.18Z</time></trkpt><trkpt lat="45.1562785" lon="9.1069778"><ele>60.99999999999999</ele><time>2026-03-29T07:37:40.179Z</time></trkpt><trkpt lat="45.1562905" lon="9.106827"><ele>61.0</ele><time>2026-03-29T07:37:41.18Z</time></trkpt><trkpt lat="45.1563037" lon="9.106674"><ele>61.0</ele><time>2026-03-29T07:37:42.18Z</time></trkpt><trkpt lat="45.1563177" lon="9.106519"><ele>61.0</ele><time>2026-03-29T07:37:43.18Z</time></trkpt><trkpt lat="45.1563318" lon="9.1063587"><ele>61.0</ele><time>2026-03-29T07:37:44.18Z</time></trkpt><trkpt lat="45.1563465" lon="9.106191"><ele>61.0</ele><time>2026-03-29T07:37:45.18Z</time></trkpt><trkpt lat="45.1563618" lon="9.1060215"><ele>61.0</ele><time>2026-03-29T07:37:46.18Z</time></trkpt><trkpt lat="45.1563783" lon="9.1058478"><ele>60.75</ele><time>2026-03-29T07:37:47.181Z</time></trkpt><trkpt lat="45.1563953" lon="9.105666"><ele>60.5</ele><time>2026-03-29T07:37:48.182Z</time></trkpt><trkpt lat="45.1564115" lon="9.1054763"><ele>60.25</ele><time>2026-03-29T07:37:49.181Z</time></trkpt><trkpt lat="45.1564273" lon="9.1052828"><ele>60.0</ele><time>2026-03-29T07:37:50.181Z</time></trkpt><trkpt lat="45.1564435" lon="9.1050915"><ele>60.0</ele><time>2026-03-29T07:37:51.184Z</time></trkpt><trkpt lat="45.1564592" lon="9.104905"><ele>60.0</ele><time>2026-03-29T07:37:52.183Z</time></trkpt><trkpt lat="45.1564747" lon="9.104723"><ele>60.0</ele><time>2026-03-29T07:37:53.182Z</time></trkpt><trkpt lat="45.1564915" lon="9.1045415"><ele>60.0</ele><time>2026-03-29T07:37:54.181Z</time></trkpt><trkpt lat="45.1565088" lon="9.104356"><ele>60.0</ele><time>2026-03-29T07:37:55.181Z</time></trkpt><trkpt lat="45.156526" lon="9.1041677"><ele>60.0</ele><time>2026-03-29T07:37:56.18Z</time></trkpt><trkpt lat="45.1565425" lon="9.1039785"><ele>60.0</ele><time>2026-03-29T07:37:57.18Z</time></trkpt><trkpt lat="45.1565597" lon="9.1037857"><ele>60.0</ele><time>2026-03-29T07:37:58.181Z</time></trkpt><trkpt lat="45.1565758" lon="9.1035875"><ele>60.25</ele><time>2026-03-29T07:37:59.18Z</time></trkpt><trkpt lat="45.1565907" lon="9.1033857"><ele>60.5</ele><time>2026-03-29T07:38:00.183Z</time></trkpt><trkpt lat="45.1566065" lon="9.1031813"><ele>60.75</ele><time>2026-03-29T07:38:01.181Z</time></trkpt><trkpt lat="45.1566238" lon="9.102976"><ele>61.0</ele><time>2026-03-29T07:38:02.179Z</time></trkpt><trkpt lat="45.1566417" lon="9.1027708"><ele>61.0</ele><time>2026-03-29T07:38:03.18Z</time></trkpt><trkpt lat="45.1566588" lon="9.1025685"><ele>61.0</ele><time>2026-03-29T07:38:04.18Z</time></trkpt><trkpt lat="45.1566767" lon="9.1023597"><ele>61.0</ele><time>2026-03-29T07:38:05.183Z</time></trkpt><trkpt lat="45.1566948" lon="9.102141"><ele>61.0</ele><time>2026-03-29T07:38:06.182Z</time></trkpt><trkpt lat="45.1567132" lon="9.1019192"><ele>61.0</ele><time>2026-03-29T07:38:07.183Z</time></trkpt><trkpt lat="45.1567323" lon="9.1016997"><ele>61.0</ele><time>2026-03-29T07:38:08.182Z</time></trkpt><trkpt lat="45.1567528" lon="9.1014808"><ele>61.0</ele><time>2026-03-29T07:38:09.183Z</time></trkpt><trkpt lat="45.1567735" lon="9.1012602"><ele>61.33333333333333</ele><time>2026-03-29T07:38:10.182Z</time></trkpt><trkpt lat="45.1567937" lon="9.1010393"><ele>61.66666666666667</ele><time>2026-03-29T07:38:11.181Z</time></trkpt><trkpt lat="45.156813" lon="9.1008237"><ele>62.0</ele><time>2026-03-29T07:38:12.181Z</time></trkpt><trkpt lat="45.156831" lon="9.1006115"><ele>62.0</ele><time>2026-03-29T07:38:13.182Z</time></trkpt><trkpt lat="45.156849" lon="9.1003982"><ele>62.0</ele><time>2026-03-29T07:38:14.181Z</time></trkpt><trkpt lat="45.156868" lon="9.1001837"><ele>62.0</ele><time>2026-03-29T07:38:15.182Z</time></trkpt><trkpt lat="45.156887" lon="9.0999682"><ele>62.25</ele><time>2026-03-29T07:38:16.182Z</time></trkpt><trkpt lat="45.1569055" lon="9.0997532"><ele>62.5</ele><time>2026-03-29T07:38:17.18Z</time></trkpt><trkpt lat="45.1569195" lon="9.0995438"><ele>62.75</ele><time>2026-03-29T07:38:18.181Z</time></trkpt><trkpt lat="45.156926" lon="9.0993398"><ele>63.0</ele><time>2026-03-29T07:38:19.181Z</time></trkpt><trkpt lat="45.1569257" lon="9.09914"><ele>64.0</ele><time>2026-03-29T07:38:20.18Z</time></trkpt><trkpt lat="45.1569217" lon="9.0989418"><ele>65.0</ele><time>2026-03-29T07:38:21.183Z</time></trkpt><trkpt lat="45.1569138" lon="9.0987398"><ele>66.0</ele><time>2026-03-29T07:38:22.18Z</time></trkpt><trkpt lat="45.1569008" lon="9.0985305"><ele>67.0</ele><time>2026-03-29T07:38:23.182Z</time></trkpt><trkpt lat="45.1568848" lon="9.0983155"><ele>67.5</ele><time>2026-03-29T07:38:24.182Z</time></trkpt><trkpt lat="45.1568665" lon="9.0981053"><ele>68.0</ele><time>2026-03-29T07:38:25.181Z</time></trkpt><trkpt lat="45.1568475" lon="9.0979042"><ele>68.5</ele><time>2026-03-29T07:38:26.179Z</time></trkpt><trkpt lat="45.1568273" lon="9.097706"><ele>69.0</ele><time>2026-03-29T07:38:27.181Z</time></trkpt><trkpt lat="45.1568052" lon="9.097508"><ele>69.75</ele><time>2026-03-29T07:38:28.178Z</time></trkpt><trkpt lat="45.1567827" lon="9.0973092"><ele>70.5</ele><time>2026-03-29T07:38:29.178Z</time></trkpt><trkpt lat="45.1567622" lon="9.097113"><ele>71.25</ele><time>2026-03-29T07:38:30.18Z</time></trkpt><trkpt lat="45.1567433" lon="9.0969278"><ele>72.0</ele><time>2026-03-29T07:38:31.183Z</time></trkpt><trkpt lat="45.1567235" lon="9.0967442"><ele>73.0</ele><time>2026-03-29T07:38:32.18Z</time></trkpt><trkpt lat="45.1567035" lon="9.0965563"><ele>74.0</ele><time>2026-03-29T07:38:33.183Z</time></trkpt><trkpt lat="45.1566828" lon="9.0963613"><ele>75.0</ele><time>2026-03-29T07:38:34.181Z</time></trkpt><trkpt lat="45.156662" lon="9.0961622"><ele>76.0</ele><time>2026-03-29T07:38:35.179Z</time></trkpt><trkpt lat="45.156641" lon="9.0959627"><ele>76.0</ele><time>2026-03-29T07:38:36.18Z</time></trkpt><trkpt lat="45.1566197" lon="9.0957692"><ele>76.0</ele><time>2026-03-29T07:38:37.181Z</time></trkpt><trkpt lat="45.156599" lon="9.0955845"><ele>76.0</ele><time>2026-03-29T07:38:38.18Z</time></trkpt><trkpt lat="45.1565807" lon="9.0954122"><ele>76.0</ele><time>2026-03-29T07:38:39.181Z</time></trkpt><trkpt lat="45.1565653" lon="9.0952533"><ele>76.6</ele><time>2026-03-29T07:38:40.18Z</time></trkpt><trkpt lat="45.1565517" lon="9.0950995"><ele>77.19999999999999</ele><time>2026-03-29T07:38:41.178Z</time></trkpt><trkpt lat="45.1565395" lon="9.0949465"><ele>77.80000000000001</ele><time>2026-03-29T07:38:42.18Z</time></trkpt><trkpt lat="45.1565275" lon="9.0947922"><ele>78.4</ele><time>2026-03-29T07:38:43.182Z</time></trkpt><trkpt lat="45.1565132" lon="9.0946415"><ele>79.0</ele><time>2026-03-29T07:38:44.18Z</time></trkpt><trkpt lat="45.156498" lon="9.094503"><ele>79.0</ele><time>2026-03-29T07:38:45.184Z</time></trkpt><trkpt lat="45.1564828" lon="9.0943752"><ele>79.0</ele><time>2026-03-29T07:38:46.182Z</time></trkpt><trkpt lat="45.1564682" lon="9.0942572"><ele>79.0</ele><time>2026-03-29T07:38:47.182Z</time></trkpt><trkpt lat="45.1564538" lon="9.094151"><ele>79.0</ele><time>2026-03-29T07:38:48.183Z</time></trkpt><trkpt lat="45.1564405" lon="9.0940562"><ele>79.0</ele><time>2026-03-29T07:38:49.182Z</time></trkpt><trkpt lat="45.156433" lon="9.0939087"><ele>79.0</ele><time>2026-03-29T07:38:51.18Z</time></trkpt><trkpt lat="45.1564802" lon="9.0937567"><ele>79.16666666666666</ele><time>2026-03-29T07:38:53.18Z</time></trkpt><trkpt lat="45.156514" lon="9.0936722"><ele>79.33333333333333</ele><time>2026-03-29T07:38:54.18Z</time></trkpt><trkpt lat="45.1565332" lon="9.093586"><ele>79.5</ele><time>2026-03-29T07:38:55.181Z</time></trkpt><trkpt lat="45.1564907" lon="9.0934375"><ele>79.66666666666667</ele><time>2026-03-29T07:38:57.182Z</time></trkpt><trkpt lat="45.1564302" lon="9.0933897"><ele>79.83333333333334</ele><time>2026-03-29T07:38:58.182Z</time></trkpt><trkpt lat="45.1563458" lon="9.0933543"><ele>80.0</ele><time>2026-03-29T07:38:59.182Z</time></trkpt><trkpt lat="45.156257" lon="9.0933055"><ele>79.75</ele><time>2026-03-29T07:39:00.182Z</time></trkpt><trkpt lat="45.1561663" lon="9.0932207"><ele>79.5</ele><time>2026-03-29T07:39:01.182Z</time></trkpt><trkpt lat="45.156073" lon="9.0930875"><ele>79.25</ele><time>2026-03-29T07:39:02.18Z</time></trkpt><trkpt lat="45.1559803" lon="9.0929173"><ele>79.0</ele><time>2026-03-29T07:39:03.182Z</time></trkpt><trkpt lat="45.1558875" lon="9.0927197"><ele>79.0</ele><time>2026-03-29T07:39:04.182Z</time></trkpt><trkpt lat="45.1557847" lon="9.0924893"><ele>79.0</ele><time>2026-03-29T07:39:05.183Z</time></trkpt><trkpt lat="45.155681" lon="9.0922525"><ele>79.0</ele><time>2026-03-29T07:39:06.18Z</time></trkpt><trkpt lat="45.1555688" lon="9.0919958"><ele>79.0</ele><time>2026-03-29T07:39:07.181Z</time></trkpt><trkpt lat="45.1554495" lon="9.0917235"><ele>79.0</ele><time>2026-03-29T07:39:08.181Z</time></trkpt><trkpt lat="45.1553277" lon="9.0914497"><ele>80.0</ele><time>2026-03-29T07:39:09.183Z</time></trkpt><trkpt lat="45.1552028" lon="9.0911687"><ele>81.0</ele><time>2026-03-29T07:39:10.181Z</time></trkpt><trkpt lat="45.1550785" lon="9.090884"><ele>81.0</ele><time>2026-03-29T07:39:11.18Z</time></trkpt><trkpt lat="45.1549532" lon="9.0905968"><ele>81.0</ele><time>2026-03-29T07:39:12.181Z</time></trkpt><trkpt lat="45.1548262" lon="9.0903083"><ele>81.0</ele><time>2026-03-29T07:39:13.184Z</time></trkpt><trkpt lat="45.1546972" lon="9.0900175"><ele>81.0</ele><time>2026-03-29T07:39:14.181Z</time></trkpt><trkpt lat="45.1545678" lon="9.0897247"><ele>81.0</ele><time>2026-03-29T07:39:15.179Z</time></trkpt><trkpt lat="45.1544378" lon="9.08943"><ele>81.0</ele><time>2026-03-29T07:39:16.179Z</time></trkpt><trkpt lat="45.1543072" lon="9.0891337"><ele>80.5</ele><time>2026-03-29T07:39:17.18Z</time></trkpt><trkpt lat="45.1541763" lon="9.0888362"><ele>80.0</ele><time>2026-03-29T07:39:18.18Z</time></trkpt><trkpt lat="45.1540453" lon="9.0885382"><ele>80.0</ele><time>2026-03-29T07:39:19.182Z</time></trkpt><trkpt lat="45.1539137" lon="9.08824"><ele>80.0</ele><time>2026-03-29T07:39:20.183Z</time></trkpt><trkpt lat="45.1537815" lon="9.0879425"><ele>80.0</ele><time>2026-03-29T07:39:21.181Z</time></trkpt><trkpt lat="45.15365" lon="9.0876453"><ele>80.0</ele><time>2026-03-29T07:39:22.181Z</time></trkpt><trkpt lat="45.153519" lon="9.0873482"><ele>80.0</ele><time>2026-03-29T07:39:23.181Z</time></trkpt><trkpt lat="45.1533878" lon="9.087051"><ele>80.0</ele><time>2026-03-29T07:39:24.183Z</time></trkpt><trkpt lat="45.1532568" lon="9.0867535"><ele>80.5</ele><time>2026-03-29T07:39:25.181Z</time></trkpt><trkpt lat="45.1531257" lon="9.086456"><ele>81.0</ele><time>2026-03-29T07:39:26.181Z</time></trkpt><trkpt lat="45.1529942" lon="9.0861582"><ele>81.0</ele><time>2026-03-29T07:39:27.181Z</time></trkpt><trkpt lat="45.152863" lon="9.0858602"><ele>81.0</ele><time>2026-03-29T07:39:28.181Z</time></trkpt><trkpt lat="45.1527315" lon="9.0855615"><ele>80.0</ele><time>2026-03-29T07:39:29.183Z</time></trkpt><trkpt lat="45.1525997" lon="9.0852623"><ele>79.0</ele><time>2026-03-29T07:39:30.183Z</time></trkpt><trkpt lat="45.1524675" lon="9.0849632"><ele>80.0</ele><time>2026-03-29T07:39:31.182Z</time></trkpt><trkpt lat="45.1523348" lon="9.0846635"><ele>81.0</ele><time>2026-03-29T07:39:32.182Z</time></trkpt><trkpt lat="45.1522022" lon="9.0843625"><ele>80.5</ele><time>2026-03-29T07:39:33.182Z</time></trkpt><trkpt lat="45.1520695" lon="9.0840597"><ele>80.0</ele><time>2026-03-29T07:39:34.181Z</time></trkpt><trkpt lat="45.1519365" lon="9.0837552"><ele>80.0</ele><time>2026-03-29T07:39:35.181Z</time></trkpt><trkpt lat="45.1518037" lon="9.0834493"><ele>80.0</ele><time>2026-03-29T07:39:36.183Z</time></trkpt><trkpt lat="45.151671" lon="9.0831433"><ele>81.0</ele><time>2026-03-29T07:39:37.182Z</time></trkpt><trkpt lat="45.151538" lon="9.082839"><ele>82.0</ele><time>2026-03-29T07:39:38.181Z</time></trkpt><trkpt lat="45.1514053" lon="9.0825368"><ele>81.5</ele><time>2026-03-29T07:39:39.181Z</time></trkpt><trkpt lat="45.1512723" lon="9.0822372"><ele>81.0</ele><time>2026-03-29T07:39:40.18Z</time></trkpt><trkpt lat="45.15114" lon="9.0819403"><ele>81.0</ele><time>2026-03-29T07:39:41.181Z</time></trkpt><trkpt lat="45.151009" lon="9.0816455"><ele>81.0</ele><time>2026-03-29T07:39:42.18Z</time></trkpt><trkpt lat="45.1508792" lon="9.0813522"><ele>81.0</ele><time>2026-03-29T07:39:43.184Z</time></trkpt><trkpt lat="45.1507507" lon="9.0810603"><ele>81.0</ele><time>2026-03-29T07:39:44.18Z</time></trkpt><trkpt lat="45.1506237" lon="9.0807698"><ele>82.0</ele><time>2026-03-29T07:39:45.181Z</time></trkpt><trkpt lat="45.1504963" lon="9.0804815"><ele>83.0</ele><time>2026-03-29T07:39:46.183Z</time></trkpt><trkpt lat="45.1503715" lon="9.0801937"><ele>83.5</ele><time>2026-03-29T07:39:47.181Z</time></trkpt><trkpt lat="45.1502455" lon="9.0799068"><ele>84.0</ele><time>2026-03-29T07:39:48.182Z</time></trkpt><trkpt lat="45.1501193" lon="9.079621"><ele>84.0</ele><time>2026-03-29T07:39:49.182Z</time></trkpt><trkpt lat="45.1499937" lon="9.0793357"><ele>84.0</ele><time>2026-03-29T07:39:50.181Z</time></trkpt><trkpt lat="45.149866" lon="9.079053"><ele>83.0</ele><time>2026-03-29T07:39:51.181Z</time></trkpt><trkpt lat="45.1497347" lon="9.0787733"><ele>82.0</ele><time>2026-03-29T07:39:52.182Z</time></trkpt><trkpt lat="45.1495995" lon="9.0784965"><ele>82.0</ele><time>2026-03-29T07:39:53.18Z</time></trkpt><trkpt lat="45.1494627" lon="9.07822"><ele>82.0</ele><time>2026-03-29T07:39:54.182Z</time></trkpt><trkpt lat="45.1493238" lon="9.0779445"><ele>82.0</ele><time>2026-03-29T07:39:55.18Z</time></trkpt><trkpt lat="45.1491823" lon="9.0776708"><ele>82.0</ele><time>2026-03-29T07:39:56.183Z</time></trkpt><trkpt lat="45.1490395" lon="9.0773973"><ele>82.5</ele><time>2026-03-29T07:39:57.182Z</time></trkpt><trkpt lat="45.1488945" lon="9.0771253"><ele>83.0</ele><time>2026-03-29T07:39:58.181Z</time></trkpt><trkpt lat="45.148746" lon="9.0768567"><ele>85.0</ele><time>2026-03-29T07:39:59.182Z</time></trkpt><trkpt lat="45.1485948" lon="9.0765898"><ele>87.0</ele><time>2026-03-29T07:40:00.182Z</time></trkpt><trkpt lat="45.1484428" lon="9.0763227"><ele>87.0</ele><time>2026-03-29T07:40:01.182Z</time></trkpt><trkpt lat="45.1482905" lon="9.0760557"><ele>87.0</ele><time>2026-03-29T07:40:02.181Z</time></trkpt><trkpt lat="45.1481373" lon="9.0757888"><ele>87.5</ele><time>2026-03-29T07:40:03.181Z</time></trkpt><trkpt lat="45.147984" lon="9.0755228"><ele>88.0</ele><time>2026-03-29T07:40:04.179Z</time></trkpt><trkpt lat="45.1478303" lon="9.0752568"><ele>88.0</ele><time>2026-03-29T07:40:05.178Z</time></trkpt><trkpt lat="45.1476773" lon="9.07499"><ele>88.0</ele><time>2026-03-29T07:40:06.178Z</time></trkpt><trkpt lat="45.1475248" lon="9.0747232"><ele>85.0</ele><time>2026-03-29T07:40:07.179Z</time></trkpt><trkpt lat="45.1473712" lon="9.0744572"><ele>82.0</ele><time>2026-03-29T07:40:08.182Z</time></trkpt><trkpt lat="45.1472178" lon="9.0741905"><ele>82.0</ele><time>2026-03-29T07:40:09.181Z</time></trkpt><trkpt lat="45.147066" lon="9.073922"><ele>82.0</ele><time>2026-03-29T07:40:10.182Z</time></trkpt><trkpt lat="45.1469142" lon="9.073654"><ele>82.0</ele><time>2026-03-29T07:40:11.182Z</time></trkpt><trkpt lat="45.1467615" lon="9.0733862"><ele>82.0</ele><time>2026-03-29T07:40:12.182Z</time></trkpt><trkpt lat="45.1466083" lon="9.07312"><ele>81.0</ele><time>2026-03-29T07:40:13.181Z</time></trkpt><trkpt lat="45.146454" lon="9.0728555"><ele>80.0</ele><time>2026-03-29T07:40:14.183Z</time></trkpt><trkpt lat="45.1463027" lon="9.072598"><ele>80.0</ele><time>2026-03-29T07:40:15.182Z</time></trkpt><trkpt lat="45.1461612" lon="9.0723577"><ele>80.0</ele><time>2026-03-29T07:40:16.184Z</time></trkpt><trkpt lat="45.1460335" lon="9.0721392"><ele>80.0</ele><time>2026-03-29T07:40:17.181Z</time></trkpt><trkpt lat="45.145922" lon="9.0719453"><ele>80.0</ele><time>2026-03-29T07:40:18.181Z</time></trkpt><trkpt lat="45.1458247" lon="9.0717687"><ele>80.0</ele><time>2026-03-29T07:40:19.181Z</time></trkpt><trkpt lat="45.145747" lon="9.0715965"><ele>80.0</ele><time>2026-03-29T07:40:20.181Z</time></trkpt><trkpt lat="45.1456973" lon="9.0714162"><ele>80.0</ele><time>2026-03-29T07:40:21.183Z</time></trkpt><trkpt lat="45.1456672" lon="9.0712213"><ele>80.25</ele><time>2026-03-29T07:40:22.183Z</time></trkpt><trkpt lat="45.145635" lon="9.0710343"><ele>80.5</ele><time>2026-03-29T07:40:23.182Z</time></trkpt><trkpt lat="45.1455853" lon="9.0708802"><ele>80.75</ele><time>2026-03-29T07:40:24.183Z</time></trkpt><trkpt lat="45.1455138" lon="9.0707648"><ele>81.0</ele><time>2026-03-29T07:40:25.182Z</time></trkpt><trkpt lat="45.1454167" lon="9.0706883"><ele>81.0</ele><time>2026-03-29T07:40:26.182Z</time></trkpt><trkpt lat="45.1452963" lon="9.0706325"><ele>81.0</ele><time>2026-03-29T07:40:27.184Z</time></trkpt><trkpt lat="45.145181" lon="9.0705552"><ele>81.0</ele><time>2026-03-29T07:40:28.181Z</time></trkpt><trkpt lat="45.1450775" lon="9.0704223"><ele>81.0</ele><time>2026-03-29T07:40:29.18Z</time></trkpt><trkpt lat="45.1449768" lon="9.0702278"><ele>80.33333333333333</ele><time>2026-03-29T07:40:30.181Z</time></trkpt><trkpt lat="45.1448747" lon="9.0699912"><ele>79.66666666666666</ele><time>2026-03-29T07:40:31.18Z</time></trkpt><trkpt lat="45.1447682" lon="9.0697242"><ele>79.0</ele><time>2026-03-29T07:40:32.181Z</time></trkpt><trkpt lat="45.1446607" lon="9.0694438"><ele>78.5</ele><time>2026-03-29T07:40:33.183Z</time></trkpt><trkpt lat="45.144552" lon="9.0691528"><ele>78.0</ele><time>2026-03-29T07:40:34.184Z</time></trkpt><trkpt lat="45.1444442" lon="9.0688623"><ele>78.0</ele><time>2026-03-29T07:40:35.181Z</time></trkpt><trkpt lat="45.1443373" lon="9.0685778"><ele>78.0</ele><time>2026-03-29T07:40:36.182Z</time></trkpt><trkpt lat="45.1442332" lon="9.0683048"><ele>78.0</ele><time>2026-03-29T07:40:37.18Z</time></trkpt><trkpt lat="45.1441323" lon="9.068043"><ele>76.66666666666667</ele><time>2026-03-29T07:40:38.182Z</time></trkpt><trkpt lat="45.144033" lon="9.0677852"><ele>75.33333333333334</ele><time>2026-03-29T07:40:39.182Z</time></trkpt><trkpt lat="45.1439358" lon="9.0675305"><ele>74.0</ele><time>2026-03-29T07:40:40.184Z</time></trkpt><trkpt lat="45.1438397" lon="9.067278"><ele>74.0</ele><time>2026-03-29T07:40:41.184Z</time></trkpt><trkpt lat="45.1437437" lon="9.0670257"><ele>74.0</ele><time>2026-03-29T07:40:42.182Z</time></trkpt><trkpt lat="45.1436467" lon="9.0667727"><ele>74.0</ele><time>2026-03-29T07:40:43.183Z</time></trkpt><trkpt lat="45.1435488" lon="9.0665188"><ele>74.66666666666667</ele><time>2026-03-29T07:40:44.184Z</time></trkpt><trkpt lat="45.1434542" lon="9.0662733"><ele>75.33333333333333</ele><time>2026-03-29T07:40:45.183Z</time></trkpt><trkpt lat="45.1433673" lon="9.0660458"><ele>76.0</ele><time>2026-03-29T07:40:46.182Z</time></trkpt><trkpt lat="45.1432817" lon="9.0658265"><ele>75.33333333333333</ele><time>2026-03-29T07:40:47.182Z</time></trkpt><trkpt lat="45.143191" lon="9.0655978"><ele>74.66666666666667</ele><time>2026-03-29T07:40:48.182Z</time></trkpt><trkpt lat="45.1430983" lon="9.0653532"><ele>74.0</ele><time>2026-03-29T07:40:49.185Z</time></trkpt><trkpt lat="45.1430068" lon="9.0650983"><ele>75.33333333333334</ele><time>2026-03-29T07:40:50.181Z</time></trkpt><trkpt lat="45.1429133" lon="9.064842"><ele>76.66666666666667</ele><time>2026-03-29T07:40:51.183Z</time></trkpt><trkpt lat="45.1428188" lon="9.0645897"><ele>78.0</ele><time>2026-03-29T07:40:52.181Z</time></trkpt><trkpt lat="45.1427253" lon="9.0643415"><ele>77.66666666666667</ele><time>2026-03-29T07:40:53.181Z</time></trkpt><trkpt lat="45.1426325" lon="9.0640952"><ele>77.33333333333334</ele><time>2026-03-29T07:40:54.18Z</time></trkpt><trkpt lat="45.14254" lon="9.0638508"><ele>77.0</ele><time>2026-03-29T07:40:55.179Z</time></trkpt><trkpt lat="45.1424477" lon="9.063609"><ele>76.33333333333334</ele><time>2026-03-29T07:40:56.182Z</time></trkpt><trkpt lat="45.1423562" lon="9.0633695"><ele>75.66666666666667</ele><time>2026-03-29T07:40:57.182Z</time></trkpt><trkpt lat="45.1422667" lon="9.0631352"><ele>75.0</ele><time>2026-03-29T07:40:58.183Z</time></trkpt><trkpt lat="45.1421825" lon="9.0629155"><ele>75.0</ele><time>2026-03-29T07:40:59.182Z</time></trkpt><trkpt lat="45.1421022" lon="9.062709"><ele>75.0</ele><time>2026-03-29T07:41:00.183Z</time></trkpt><trkpt lat="45.1420267" lon="9.0625147"><ele>75.0</ele><time>2026-03-29T07:41:01.183Z</time></trkpt><trkpt lat="45.1419573" lon="9.0623338"><ele>76.25</ele><time>2026-03-29T07:41:02.183Z</time></trkpt><trkpt lat="45.141894" lon="9.0621683"><ele>77.5</ele><time>2026-03-29T07:41:03.183Z</time></trkpt><trkpt lat="45.141835" lon="9.0620148"><ele>78.75</ele><time>2026-03-29T07:41:04.184Z</time></trkpt><trkpt lat="45.1417793" lon="9.06187"><ele>80.0</ele><time>2026-03-29T07:41:05.181Z</time></trkpt><trkpt lat="45.141727" lon="9.0617332"><ele>80.6</ele><time>2026-03-29T07:41:06.182Z</time></trkpt><trkpt lat="45.141675" lon="9.0615983"><ele>81.2</ele><time>2026-03-29T07:41:07.182Z</time></trkpt><trkpt lat="45.1416247" lon="9.0614688"><ele>81.80000000000001</ele><time>2026-03-29T07:41:08.183Z</time></trkpt><trkpt lat="45.1415723" lon="9.061342"><ele>82.4</ele><time>2026-03-29T07:41:09.187Z</time></trkpt><trkpt lat="45.1415137" lon="9.06121"><ele>83.0</ele><time>2026-03-29T07:41:10.184Z</time></trkpt><trkpt lat="45.1414545" lon="9.06107"><ele>83.2</ele><time>2026-03-29T07:41:11.183Z</time></trkpt><trkpt lat="45.141402" lon="9.0609287"><ele>83.4</ele><time>2026-03-29T07:41:12.182Z</time></trkpt><trkpt lat="45.1413583" lon="9.0607905"><ele>83.60000000000001</ele><time>2026-03-29T07:41:13.182Z</time></trkpt><trkpt lat="45.1413175" lon="9.0606577"><ele>83.80000000000001</ele><time>2026-03-29T07:41:14.182Z</time></trkpt><trkpt lat="45.1412762" lon="9.060535"><ele>84.0</ele><time>2026-03-29T07:41:15.182Z</time></trkpt><trkpt lat="45.1412322" lon="9.0604147"><ele>84.0</ele><time>2026-03-29T07:41:16.182Z</time></trkpt><trkpt lat="45.141183" lon="9.0602847"><ele>84.0</ele><time>2026-03-29T07:41:17.181Z</time></trkpt><trkpt lat="45.1411273" lon="9.0601432"><ele>84.0</ele><time>2026-03-29T07:41:18.18Z</time></trkpt><trkpt lat="45.1410685" lon="9.0599935"><ele>84.0</ele><time>2026-03-29T07:41:19.18Z</time></trkpt><trkpt lat="45.1410083" lon="9.059838"><ele>84.0</ele><time>2026-03-29T07:41:20.18Z</time></trkpt><trkpt lat="45.1409485" lon="9.0596813"><ele>84.0</ele><time>2026-03-29T07:41:21.183Z</time></trkpt><trkpt lat="45.1408858" lon="9.059516"><ele>84.0</ele><time>2026-03-29T07:41:22.183Z</time></trkpt><trkpt lat="45.1408232" lon="9.0593495"><ele>84.0</ele><time>2026-03-29T07:41:23.182Z</time></trkpt><trkpt lat="45.1407615" lon="9.0591857"><ele>83.5</ele><time>2026-03-29T07:41:24.182Z</time></trkpt><trkpt lat="45.1406987" lon="9.0590182"><ele>83.0</ele><time>2026-03-29T07:41:25.183Z</time></trkpt><trkpt lat="45.1406337" lon="9.058847"><ele>82.5</ele><time>2026-03-29T07:41:26.183Z</time></trkpt><trkpt lat="45.1405657" lon="9.0586713"><ele>82.0</ele><time>2026-03-29T07:41:27.184Z</time></trkpt><trkpt lat="45.1404962" lon="9.0584897"><ele>82.0</ele><time>2026-03-29T07:41:28.184Z</time></trkpt><trkpt lat="45.1404252" lon="9.0583042"><ele>82.0</ele><time>2026-03-29T07:41:29.182Z</time></trkpt><trkpt lat="45.1403528" lon="9.058116"><ele>82.0</ele><time>2026-03-29T07:41:30.182Z</time></trkpt><trkpt lat="45.1402795" lon="9.0579263"><ele>81.66666666666666</ele><time>2026-03-29T07:41:31.182Z</time></trkpt><trkpt lat="45.1402045" lon="9.0577333"><ele>81.33333333333333</ele><time>2026-03-29T07:41:32.186Z</time></trkpt><trkpt lat="45.1401287" lon="9.0575348"><ele>81.0</ele><time>2026-03-29T07:41:33.182Z</time></trkpt><trkpt lat="45.1400513" lon="9.0573318"><ele>81.0</ele><time>2026-03-29T07:41:34.182Z</time></trkpt><trkpt lat="45.139974" lon="9.0571282"><ele>81.0</ele><time>2026-03-29T07:41:35.182Z</time></trkpt><trkpt lat="45.1398978" lon="9.0569277"><ele>81.0</ele><time>2026-03-29T07:41:36.182Z</time></trkpt><trkpt lat="45.139824" lon="9.0567343"><ele>81.25</ele><time>2026-03-29T07:41:37.183Z</time></trkpt><trkpt lat="45.1397537" lon="9.05655"><ele>81.5</ele><time>2026-03-29T07:41:38.183Z</time></trkpt><trkpt lat="45.1396877" lon="9.056375"><ele>81.75</ele><time>2026-03-29T07:41:39.182Z</time></trkpt><trkpt lat="45.1396223" lon="9.0562027"><ele>82.0</ele><time>2026-03-29T07:41:40.182Z</time></trkpt><trkpt lat="45.1395557" lon="9.0560277"><ele>82.0</ele><time>2026-03-29T07:41:41.18Z</time></trkpt><trkpt lat="45.1394872" lon="9.055848"><ele>82.0</ele><time>2026-03-29T07:41:42.18Z</time></trkpt><trkpt lat="45.1394193" lon="9.0556682"><ele>82.0</ele><time>2026-03-29T07:41:43.179Z</time></trkpt><trkpt lat="45.1393542" lon="9.0554978"><ele>82.0</ele><time>2026-03-29T07:41:44.18Z</time></trkpt><trkpt lat="45.139292" lon="9.0553365"><ele>82.0</ele><time>2026-03-29T07:41:45.182Z</time></trkpt><trkpt lat="45.1392283" lon="9.0551698"><ele>82.0</ele><time>2026-03-29T07:41:46.184Z</time></trkpt><trkpt lat="45.1391595" lon="9.054991"><ele>82.0</ele><time>2026-03-29T07:41:47.182Z</time></trkpt><trkpt lat="45.1390857" lon="9.0548002"><ele>82.0</ele><time>2026-03-29T07:41:48.184Z</time></trkpt><trkpt lat="45.1390087" lon="9.0546002"><ele>82.0</ele><time>2026-03-29T07:41:49.183Z</time></trkpt><trkpt lat="45.1389303" lon="9.0543945"><ele>82.0</ele><time>2026-03-29T07:41:50.182Z</time></trkpt><trkpt lat="45.1388517" lon="9.0541875"><ele>82.0</ele><time>2026-03-29T07:41:51.182Z</time></trkpt><trkpt lat="45.1387747" lon="9.0539842"><ele>82.66666666666666</ele><time>2026-03-29T07:41:52.183Z</time></trkpt><trkpt lat="45.1386992" lon="9.0537838"><ele>83.33333333333333</ele><time>2026-03-29T07:41:53.18Z</time></trkpt><trkpt lat="45.1386233" lon="9.0535848"><ele>84.0</ele><time>2026-03-29T07:41:54.181Z</time></trkpt><trkpt lat="45.1385472" lon="9.0533883"><ele>83.66666666666667</ele><time>2026-03-29T07:41:55.181Z</time></trkpt><trkpt lat="45.1384718" lon="9.0531932"><ele>83.33333333333334</ele><time>2026-03-29T07:41:56.18Z</time></trkpt><trkpt lat="45.1383987" lon="9.0529973"><ele>83.0</ele><time>2026-03-29T07:41:57.181Z</time></trkpt><trkpt lat="45.138325" lon="9.0527988"><ele>83.0</ele><time>2026-03-29T07:41:58.183Z</time></trkpt><trkpt lat="45.1382503" lon="9.052598"><ele>83.0</ele><time>2026-03-29T07:41:59.18Z</time></trkpt><trkpt lat="45.1381737" lon="9.0523955"><ele>83.0</ele><time>2026-03-29T07:42:00.182Z</time></trkpt><trkpt lat="45.1380945" lon="9.0521912"><ele>83.0</ele><time>2026-03-29T07:42:01.184Z</time></trkpt><trkpt lat="45.1380155" lon="9.0519845"><ele>83.0</ele><time>2026-03-29T07:42:02.182Z</time></trkpt><trkpt lat="45.1379388" lon="9.0517803"><ele>83.0</ele><time>2026-03-29T07:42:03.182Z</time></trkpt><trkpt lat="45.1378663" lon="9.0515898"><ele>83.0</ele><time>2026-03-29T07:42:04.181Z</time></trkpt><trkpt lat="45.1377987" lon="9.051413"><ele>83.0</ele><time>2026-03-29T07:42:05.182Z</time></trkpt><trkpt lat="45.1377333" lon="9.0512417"><ele>83.0</ele><time>2026-03-29T07:42:06.179Z</time></trkpt><trkpt lat="45.137667" lon="9.0510677"><ele>83.0</ele><time>2026-03-29T07:42:07.18Z</time></trkpt><trkpt lat="45.137598" lon="9.0508855"><ele>83.0</ele><time>2026-03-29T07:42:08.181Z</time></trkpt><trkpt lat="45.1375245" lon="9.0506933"><ele>83.0</ele><time>2026-03-29T07:42:09.179Z</time></trkpt><trkpt lat="45.137448" lon="9.050494"><ele>83.0</ele><time>2026-03-29T07:42:10.184Z</time></trkpt><trkpt lat="45.1373703" lon="9.0502923"><ele>83.0</ele><time>2026-03-29T07:42:11.182Z</time></trkpt><trkpt lat="45.137296" lon="9.0500955"><ele>83.0</ele><time>2026-03-29T07:42:12.191Z</time></trkpt><trkpt lat="45.1372252" lon="9.0499122"><ele>83.0</ele><time>2026-03-29T07:42:13.185Z</time></trkpt><trkpt lat="45.1371622" lon="9.0497468"><ele>83.0</ele><time>2026-03-29T07:42:14.191Z</time></trkpt><trkpt lat="45.1371072" lon="9.0496028"><ele>82.83333333333334</ele><time>2026-03-29T07:42:15.182Z</time></trkpt><trkpt lat="45.137057" lon="9.0494725"><ele>82.66666666666667</ele><time>2026-03-29T07:42:16.185Z</time></trkpt><trkpt lat="45.1370142" lon="9.0493622"><ele>82.5</ele><time>2026-03-29T07:42:17.183Z</time></trkpt><trkpt lat="45.1369752" lon="9.0492672"><ele>82.33333333333333</ele><time>2026-03-29T07:42:18.183Z</time></trkpt><trkpt lat="45.1369408" lon="9.0491902"><ele>82.16666666666666</ele><time>2026-03-29T07:42:19.184Z</time></trkpt><trkpt lat="45.1368935" lon="9.0490687"><ele>82.0</ele><time>2026-03-29T07:42:21.182Z</time></trkpt><trkpt lat="45.1368625" lon="9.0489847"><ele>81.83333333333333</ele><time>2026-03-29T07:42:25.185Z</time></trkpt><trkpt lat="45.1368277" lon="9.0489062"><ele>81.66666666666666</ele><time>2026-03-29T07:42:41.186Z</time></trkpt><trkpt lat="45.136798" lon="9.0488238"><ele>81.5</ele><time>2026-03-29T07:42:42.184Z</time></trkpt><trkpt lat="45.1367618" lon="9.0487198"><ele>81.33333333333333</ele><time>2026-03-29T07:42:43.184Z</time></trkpt><trkpt lat="45.1367223" lon="9.048611"><ele>81.16666666666667</ele><time>2026-03-29T07:42:44.183Z</time></trkpt><trkpt lat="45.1366797" lon="9.0485063"><ele>81.0</ele><time>2026-03-29T07:42:45.184Z</time></trkpt><trkpt lat="45.1366327" lon="9.0483907"><ele>80.8</ele><time>2026-03-29T07:42:46.184Z</time></trkpt><trkpt lat="45.1365828" lon="9.048259"><ele>80.6</ele><time>2026-03-29T07:42:47.183Z</time></trkpt><trkpt lat="45.13653" lon="9.0481167"><ele>80.4</ele><time>2026-03-29T07:42:48.203Z</time></trkpt><trkpt lat="45.1364763" lon="9.047975"><ele>80.2</ele><time>2026-03-29T07:42:49.185Z</time></trkpt><trkpt lat="45.136421" lon="9.0478318"><ele>80.0</ele><time>2026-03-29T07:42:50.192Z</time></trkpt><trkpt lat="45.136363" lon="9.0476822"><ele>79.75</ele><time>2026-03-29T07:42:51.184Z</time></trkpt><trkpt lat="45.1363027" lon="9.0475237"><ele>79.5</ele><time>2026-03-29T07:42:52.183Z</time></trkpt><trkpt lat="45.1362423" lon="9.0473643"><ele>79.25</ele><time>2026-03-29T07:42:53.183Z</time></trkpt><trkpt lat="45.136176" lon="9.0471905"><ele>79.0</ele><time>2026-03-29T07:42:54.183Z</time></trkpt><trkpt lat="45.1361057" lon="9.0470042"><ele>79.0</ele><time>2026-03-29T07:42:55.183Z</time></trkpt><trkpt lat="45.1360323" lon="9.0468087"><ele>79.0</ele><time>2026-03-29T07:42:56.182Z</time></trkpt><trkpt lat="45.1359568" lon="9.0466078"><ele>79.0</ele><time>2026-03-29T07:42:57.182Z</time></trkpt><trkpt lat="45.1358818" lon="9.0464078"><ele>79.0</ele><time>2026-03-29T07:42:58.183Z</time></trkpt><trkpt lat="45.1358075" lon="9.0462098"><ele>79.0</ele><time>2026-03-29T07:42:59.183Z</time></trkpt><trkpt lat="45.1357318" lon="9.0460083"><ele>79.0</ele><time>2026-03-29T07:43:00.184Z</time></trkpt><trkpt lat="45.1356513" lon="9.0457992"><ele>79.0</ele><time>2026-03-29T07:43:01.184Z</time></trkpt><trkpt lat="45.1355688" lon="9.0455867"><ele>79.0</ele><time>2026-03-29T07:43:02.184Z</time></trkpt><trkpt lat="45.1354882" lon="9.0453753"><ele>79.0</ele><time>2026-03-29T07:43:03.184Z</time></trkpt><trkpt lat="45.1354092" lon="9.0451655"><ele>78.66666666666666</ele><time>2026-03-29T07:43:04.185Z</time></trkpt><trkpt lat="45.1353302" lon="9.0449562"><ele>78.33333333333333</ele><time>2026-03-29T07:43:05.183Z</time></trkpt><trkpt lat="45.1352478" lon="9.0447425"><ele>78.0</ele><time>2026-03-29T07:43:06.185Z</time></trkpt><trkpt lat="45.13516" lon="9.0445207"><ele>78.0</ele><time>2026-03-29T07:43:07.184Z</time></trkpt><trkpt lat="45.135069" lon="9.0442863"><ele>78.0</ele><time>2026-03-29T07:43:08.186Z</time></trkpt><trkpt lat="45.134975" lon="9.0440392"><ele>78.0</ele><time>2026-03-29T07:43:09.184Z</time></trkpt><trkpt lat="45.1348797" lon="9.0437862"><ele>78.66666666666667</ele><time>2026-03-29T07:43:10.185Z</time></trkpt><trkpt lat="45.134786" lon="9.0435372"><ele>79.33333333333334</ele><time>2026-03-29T07:43:11.185Z</time></trkpt><trkpt lat="45.1346945" lon="9.0432947"><ele>80.0</ele><time>2026-03-29T07:43:12.183Z</time></trkpt><trkpt lat="45.1346027" lon="9.0430522"><ele>80.33333333333334</ele><time>2026-03-29T07:43:13.184Z</time></trkpt><trkpt lat="45.1345075" lon="9.0428025"><ele>80.66666666666667</ele><time>2026-03-29T07:43:14.184Z</time></trkpt><trkpt lat="45.1344108" lon="9.0425487"><ele>81.0</ele><time>2026-03-29T07:43:15.184Z</time></trkpt><trkpt lat="45.1343158" lon="9.042302"><ele>80.33333333333333</ele><time>2026-03-29T07:43:16.184Z</time></trkpt><trkpt lat="45.1342252" lon="9.0420697"><ele>79.66666666666666</ele><time>2026-03-29T07:43:17.184Z</time></trkpt><trkpt lat="45.1341372" lon="9.0418402"><ele>79.0</ele><time>2026-03-29T07:43:18.185Z</time></trkpt><trkpt lat="45.1340503" lon="9.0416098"><ele>79.0</ele><time>2026-03-29T07:43:19.183Z</time></trkpt><trkpt lat="45.1339627" lon="9.0413788"><ele>79.0</ele><time>2026-03-29T07:43:20.183Z</time></trkpt><trkpt lat="45.1338738" lon="9.0411472"><ele>79.0</ele><time>2026-03-29T07:43:21.183Z</time></trkpt><trkpt lat="45.1337855" lon="9.0409145"><ele>79.0</ele><time>2026-03-29T07:43:22.185Z</time></trkpt><trkpt lat="45.1336982" lon="9.040681"><ele>79.0</ele><time>2026-03-29T07:43:23.182Z</time></trkpt><trkpt lat="45.13361" lon="9.040448"><ele>79.0</ele><time>2026-03-29T07:43:24.186Z</time></trkpt><trkpt lat="45.1335208" lon="9.0402162"><ele>79.0</ele><time>2026-03-29T07:43:25.186Z</time></trkpt><trkpt lat="45.1334317" lon="9.0399858"><ele>79.0</ele><time>2026-03-29T07:43:26.184Z</time></trkpt><trkpt lat="45.1333425" lon="9.0397558"><ele>79.0</ele><time>2026-03-29T07:43:27.186Z</time></trkpt><trkpt lat="45.1332527" lon="9.0395237"><ele>79.66666666666666</ele><time>2026-03-29T07:43:28.187Z</time></trkpt><trkpt lat="45.1331633" lon="9.0392897"><ele>80.33333333333333</ele><time>2026-03-29T07:43:29.184Z</time></trkpt><trkpt lat="45.1330748" lon="9.0390573"><ele>81.0</ele><time>2026-03-29T07:43:30.185Z</time></trkpt><trkpt lat="45.1329875" lon="9.0388277"><ele>81.0</ele><time>2026-03-29T07:43:31.184Z</time></trkpt><trkpt lat="45.1329007" lon="9.0385997"><ele>81.0</ele><time>2026-03-29T07:43:32.183Z</time></trkpt><trkpt lat="45.1328147" lon="9.0383725"><ele>81.0</ele><time>2026-03-29T07:43:33.187Z</time></trkpt><trkpt lat="45.1327283" lon="9.038144"><ele>81.66666666666667</ele><time>2026-03-29T07:43:34.184Z</time></trkpt><trkpt lat="45.1326408" lon="9.0379133"><ele>82.33333333333334</ele><time>2026-03-29T07:43:35.185Z</time></trkpt><trkpt lat="45.1325527" lon="9.0376812"><ele>83.0</ele><time>2026-03-29T07:43:36.185Z</time></trkpt><trkpt lat="45.1324638" lon="9.0374495"><ele>82.66666666666667</ele><time>2026-03-29T07:43:37.185Z</time></trkpt><trkpt lat="45.132373" lon="9.0372217"><ele>82.33333333333333</ele><time>2026-03-29T07:43:38.185Z</time></trkpt><trkpt lat="45.1322783" lon="9.0369972"><ele>82.0</ele><time>2026-03-29T07:43:39.185Z</time></trkpt><trkpt lat="45.1321785" lon="9.0367755"><ele>82.0</ele><time>2026-03-29T07:43:40.184Z</time></trkpt><trkpt lat="45.132075" lon="9.03656"><ele>82.0</ele><time>2026-03-29T07:43:41.183Z</time></trkpt><trkpt lat="45.1319728" lon="9.0363585"><ele>82.0</ele><time>2026-03-29T07:43:42.184Z</time></trkpt><trkpt lat="45.13187" lon="9.0361655"><ele>82.0</ele><time>2026-03-29T07:43:43.183Z</time></trkpt><trkpt lat="45.1317652" lon="9.0359765"><ele>82.0</ele><time>2026-03-29T07:43:44.181Z</time></trkpt><trkpt lat="45.131661" lon="9.0357975"><ele>82.0</ele><time>2026-03-29T07:43:45.183Z</time></trkpt><trkpt lat="45.1315563" lon="9.0356265"><ele>82.33333333333333</ele><time>2026-03-29T07:43:46.182Z</time></trkpt><trkpt lat="45.1314507" lon="9.0354598"><ele>82.66666666666667</ele><time>2026-03-29T07:43:47.184Z</time></trkpt><trkpt lat="45.1313473" lon="9.0352978"><ele>83.0</ele><time>2026-03-29T07:43:48.183Z</time></trkpt><trkpt lat="45.1312457" lon="9.0351403"><ele>83.0</ele><time>2026-03-29T07:43:49.183Z</time></trkpt><trkpt lat="45.1311477" lon="9.03499"><ele>83.0</ele><time>2026-03-29T07:43:50.183Z</time></trkpt><trkpt lat="45.1310562" lon="9.034849"><ele>83.0</ele><time>2026-03-29T07:43:51.184Z</time></trkpt><trkpt lat="45.1309663" lon="9.034713"><ele>83.0</ele><time>2026-03-29T07:43:52.185Z</time></trkpt><trkpt lat="45.130869" lon="9.0345678"><ele>83.0</ele><time>2026-03-29T07:43:53.184Z</time></trkpt><trkpt lat="45.1307647" lon="9.0344113"><ele>83.0</ele><time>2026-03-29T07:43:54.184Z</time></trkpt><trkpt lat="45.1306537" lon="9.0342447"><ele>83.0</ele><time>2026-03-29T07:43:55.184Z</time></trkpt><trkpt lat="45.1305362" lon="9.0340703"><ele>83.0</ele><time>2026-03-29T07:43:56.183Z</time></trkpt><trkpt lat="45.1304152" lon="9.033892"><ele>83.0</ele><time>2026-03-29T07:43:57.185Z</time></trkpt><trkpt lat="45.1302955" lon="9.033714"><ele>83.0</ele><time>2026-03-29T07:43:58.186Z</time></trkpt><trkpt lat="45.1301772" lon="9.0335382"><ele>83.0</ele><time>2026-03-29T07:43:59.186Z</time></trkpt><trkpt lat="45.1300598" lon="9.033365"><ele>83.0</ele><time>2026-03-29T07:44:00.185Z</time></trkpt><trkpt lat="45.129945" lon="9.0331942"><ele>83.0</ele><time>2026-03-29T07:44:01.185Z</time></trkpt><trkpt lat="45.129833" lon="9.033028"><ele>82.33333333333334</ele><time>2026-03-29T07:44:02.184Z</time></trkpt><trkpt lat="45.1297233" lon="9.0328637"><ele>81.66666666666667</ele><time>2026-03-29T07:44:03.184Z</time></trkpt><trkpt lat="45.129616" lon="9.0326975"><ele>81.0</ele><time>2026-03-29T07:44:04.184Z</time></trkpt><trkpt lat="45.1295058" lon="9.032531"><ele>81.33333333333333</ele><time>2026-03-29T07:44:05.184Z</time></trkpt><trkpt lat="45.1293928" lon="9.0323623"><ele>81.66666666666666</ele><time>2026-03-29T07:44:06.185Z</time></trkpt><trkpt lat="45.1292782" lon="9.0321907"><ele>82.0</ele><time>2026-03-29T07:44:07.185Z</time></trkpt><trkpt lat="45.1291622" lon="9.0320172"><ele>82.0</ele><time>2026-03-29T07:44:08.184Z</time></trkpt><trkpt lat="45.129048" lon="9.031847"><ele>82.0</ele><time>2026-03-29T07:44:09.182Z</time></trkpt><trkpt lat="45.1289388" lon="9.0316833"><ele>82.0</ele><time>2026-03-29T07:44:10.182Z</time></trkpt><trkpt lat="45.1288338" lon="9.0315253"><ele>82.0</ele><time>2026-03-29T07:44:11.181Z</time></trkpt><trkpt lat="45.1287325" lon="9.0313732"><ele>82.0</ele><time>2026-03-29T07:44:12.185Z</time></trkpt><trkpt lat="45.1286355" lon="9.0312267"><ele>82.0</ele><time>2026-03-29T07:44:13.183Z</time></trkpt><trkpt lat="45.1285413" lon="9.0310837"><ele>82.0</ele><time>2026-03-29T07:44:14.184Z</time></trkpt><trkpt lat="45.1284465" lon="9.03094"><ele>82.0</ele><time>2026-03-29T07:44:15.184Z</time></trkpt><trkpt lat="45.1283482" lon="9.0307948"><ele>82.0</ele><time>2026-03-29T07:44:16.183Z</time></trkpt><trkpt lat="45.1282473" lon="9.0306443"><ele>82.0</ele><time>2026-03-29T07:44:17.182Z</time></trkpt><trkpt lat="45.1281443" lon="9.0304903"><ele>82.0</ele><time>2026-03-29T07:44:18.182Z</time></trkpt><trkpt lat="45.1280458" lon="9.0303405"><ele>81.75</ele><time>2026-03-29T07:44:19.182Z</time></trkpt><trkpt lat="45.1279537" lon="9.0301993"><ele>81.5</ele><time>2026-03-29T07:44:20.181Z</time></trkpt><trkpt lat="45.127864" lon="9.0300623"><ele>81.25</ele><time>2026-03-29T07:44:21.184Z</time></trkpt><trkpt lat="45.1277783" lon="9.0299338"><ele>81.0</ele><time>2026-03-29T07:44:22.184Z</time></trkpt><trkpt lat="45.1277002" lon="9.029818"><ele>81.0</ele><time>2026-03-29T07:44:23.182Z</time></trkpt><trkpt lat="45.1276327" lon="9.029718"><ele>81.0</ele><time>2026-03-29T07:44:24.181Z</time></trkpt><trkpt lat="45.1275703" lon="9.0296323"><ele>81.0</ele><time>2026-03-29T07:44:25.182Z</time></trkpt><trkpt lat="45.1275052" lon="9.0295517"><ele>81.0</ele><time>2026-03-29T07:44:26.182Z</time></trkpt><trkpt lat="45.127429" lon="9.029451"><ele>81.0</ele><time>2026-03-29T07:44:27.183Z</time></trkpt><trkpt lat="45.1273385" lon="9.029334"><ele>81.0</ele><time>2026-03-29T07:44:28.183Z</time></trkpt><trkpt lat="45.1272342" lon="9.0292152"><ele>81.0</ele><time>2026-03-29T07:44:29.183Z</time></trkpt><trkpt lat="45.1271175" lon="9.0290908"><ele>81.0</ele><time>2026-03-29T07:44:30.181Z</time></trkpt><trkpt lat="45.1269915" lon="9.0289522"><ele>81.0</ele><time>2026-03-29T07:44:31.182Z</time></trkpt><trkpt lat="45.1268637" lon="9.0288047"><ele>81.0</ele><time>2026-03-29T07:44:32.182Z</time></trkpt><trkpt lat="45.1267392" lon="9.0286455"><ele>81.0</ele><time>2026-03-29T07:44:33.18Z</time></trkpt><trkpt lat="45.1266177" lon="9.0284802"><ele>81.0</ele><time>2026-03-29T07:44:34.18Z</time></trkpt><trkpt lat="45.1264993" lon="9.0283125"><ele>80.66666666666667</ele><time>2026-03-29T07:44:35.179Z</time></trkpt><trkpt lat="45.126378" lon="9.0281402"><ele>80.33333333333334</ele><time>2026-03-29T07:44:36.179Z</time></trkpt><trkpt lat="45.1262533" lon="9.0279668"><ele>80.0</ele><time>2026-03-29T07:44:37.182Z</time></trkpt><trkpt lat="45.1261255" lon="9.0277945"><ele>80.0</ele><time>2026-03-29T07:44:38.181Z</time></trkpt><trkpt lat="45.1259992" lon="9.0276217"><ele>80.0</ele><time>2026-03-29T07:44:39.182Z</time></trkpt><trkpt lat="45.1258725" lon="9.0274513"><ele>80.0</ele><time>2026-03-29T07:44:40.185Z</time></trkpt><trkpt lat="45.1257475" lon="9.0272857"><ele>80.33333333333334</ele><time>2026-03-29T07:44:41.185Z</time></trkpt><trkpt lat="45.1256262" lon="9.0271228"><ele>80.66666666666667</ele><time>2026-03-29T07:44:42.183Z</time></trkpt><trkpt lat="45.1255082" lon="9.026961"><ele>81.0</ele><time>2026-03-29T07:44:43.184Z</time></trkpt><trkpt lat="45.1253915" lon="9.0268"><ele>81.33333333333333</ele><time>2026-03-29T07:44:44.182Z</time></trkpt><trkpt lat="45.1252792" lon="9.0266345"><ele>81.66666666666666</ele><time>2026-03-29T07:44:45.183Z</time></trkpt><trkpt lat="45.1251802" lon="9.0264668"><ele>82.0</ele><time>2026-03-29T07:44:46.182Z</time></trkpt><trkpt lat="45.1250935" lon="9.0263077"><ele>82.0</ele><time>2026-03-29T07:44:47.182Z</time></trkpt><trkpt lat="45.1250165" lon="9.0261633"><ele>82.0</ele><time>2026-03-29T07:44:48.183Z</time></trkpt><trkpt lat="45.1249467" lon="9.0260385"><ele>82.0</ele><time>2026-03-29T07:44:49.183Z</time></trkpt><trkpt lat="45.1248863" lon="9.0259212"><ele>82.0</ele><time>2026-03-29T07:44:50.183Z</time></trkpt><trkpt lat="45.1248322" lon="9.0258068"><ele>82.0</ele><time>2026-03-29T07:44:51.184Z</time></trkpt><trkpt lat="45.1247723" lon="9.025678"><ele>82.0</ele><time>2026-03-29T07:44:52.206Z</time></trkpt><trkpt lat="45.1247048" lon="9.0255217"><ele>82.0</ele><time>2026-03-29T07:44:53.185Z</time></trkpt><trkpt lat="45.1246405" lon="9.0253453"><ele>82.0</ele><time>2026-03-29T07:44:54.194Z</time></trkpt><trkpt lat="45.1245778" lon="9.0251457"><ele>82.0</ele><time>2026-03-29T07:44:55.184Z</time></trkpt><trkpt lat="45.124518" lon="9.0249282"><ele>82.33333333333333</ele><time>2026-03-29T07:44:56.191Z</time></trkpt><trkpt lat="45.124463" lon="9.0247073"><ele>82.66666666666667</ele><time>2026-03-29T07:44:57.183Z</time></trkpt><trkpt lat="45.1244088" lon="9.0244703"><ele>83.0</ele><time>2026-03-29T07:44:58.181Z</time></trkpt><trkpt lat="45.1243545" lon="9.0242222"><ele>82.66666666666667</ele><time>2026-03-29T07:44:59.18Z</time></trkpt><trkpt lat="45.1243023" lon="9.0239723"><ele>82.33333333333333</ele><time>2026-03-29T07:45:00.18Z</time></trkpt><trkpt lat="45.1242538" lon="9.0237205"><ele>82.0</ele><time>2026-03-29T07:45:01.182Z</time></trkpt><trkpt lat="45.124209" lon="9.023468"><ele>81.5</ele><time>2026-03-29T07:45:02.183Z</time></trkpt><trkpt lat="45.12417" lon="9.023241"><ele>81.0</ele><time>2026-03-29T07:45:03.188Z</time></trkpt><trkpt lat="45.1241393" lon="9.0230498"><ele>80.5</ele><time>2026-03-29T07:45:04.182Z</time></trkpt><trkpt lat="45.1241143" lon="9.0228785"><ele>80.0</ele><time>2026-03-29T07:45:05.181Z</time></trkpt><trkpt lat="45.1240893" lon="9.0226927"><ele>77.0</ele><time>2026-03-29T07:45:06.181Z</time></trkpt><trkpt lat="45.12406" lon="9.0224752"><ele>74.0</ele><time>2026-03-29T07:45:07.183Z</time></trkpt><trkpt lat="45.1240277" lon="9.0222332"><ele>71.0</ele><time>2026-03-29T07:45:08.183Z</time></trkpt><trkpt lat="45.1239943" lon="9.0219827"><ele>71.0</ele><time>2026-03-29T07:45:09.183Z</time></trkpt><trkpt lat="45.1239607" lon="9.0217288"><ele>71.0</ele><time>2026-03-29T07:45:10.185Z</time></trkpt><trkpt lat="45.1239257" lon="9.0214602"><ele>71.0</ele><time>2026-03-29T07:45:11.183Z</time></trkpt><trkpt lat="45.12389" lon="9.0211805"><ele>70.66666666666667</ele><time>2026-03-29T07:45:12.193Z</time></trkpt><trkpt lat="45.1238538" lon="9.0208953"><ele>70.33333333333333</ele><time>2026-03-29T07:45:13.184Z</time></trkpt><trkpt lat="45.1238182" lon="9.0206172"><ele>70.0</ele><time>2026-03-29T07:45:14.183Z</time></trkpt><trkpt lat="45.1237832" lon="9.0203475"><ele>70.0</ele><time>2026-03-29T07:45:15.183Z</time></trkpt><trkpt lat="45.1237497" lon="9.0200933"><ele>70.0</ele><time>2026-03-29T07:45:16.185Z</time></trkpt><trkpt lat="45.1237172" lon="9.0198475"><ele>70.0</ele><time>2026-03-29T07:45:17.181Z</time></trkpt><trkpt lat="45.123687" lon="9.0195985"><ele>70.0</ele><time>2026-03-29T07:45:18.183Z</time></trkpt><trkpt lat="45.1236583" lon="9.019346"><ele>70.0</ele><time>2026-03-29T07:45:19.185Z</time></trkpt><trkpt lat="45.1236283" lon="9.0190922"><ele>70.0</ele><time>2026-03-29T07:45:20.184Z</time></trkpt><trkpt lat="45.1235983" lon="9.0188378"><ele>71.0</ele><time>2026-03-29T07:45:21.184Z</time></trkpt><trkpt lat="45.1235702" lon="9.0185927"><ele>72.0</ele><time>2026-03-29T07:45:22.183Z</time></trkpt><trkpt lat="45.1235433" lon="9.0183622"><ele>73.0</ele><time>2026-03-29T07:45:23.181Z</time></trkpt><trkpt lat="45.1235142" lon="9.0181317"><ele>73.0</ele><time>2026-03-29T07:45:24.18Z</time></trkpt><trkpt lat="45.1234827" lon="9.0178943"><ele>73.0</ele><time>2026-03-29T07:45:25.18Z</time></trkpt><trkpt lat="45.1234502" lon="9.0176477"><ele>73.0</ele><time>2026-03-29T07:45:26.182Z</time></trkpt><trkpt lat="45.1234173" lon="9.0173923"><ele>74.0</ele><time>2026-03-29T07:45:27.185Z</time></trkpt><trkpt lat="45.1233835" lon="9.0171277"><ele>75.0</ele><time>2026-03-29T07:45:28.185Z</time></trkpt><trkpt lat="45.123349" lon="9.0168527"><ele>76.0</ele><time>2026-03-29T07:45:29.183Z</time></trkpt><trkpt lat="45.1233138" lon="9.0165698"><ele>76.66666666666666</ele><time>2026-03-29T07:45:30.184Z</time></trkpt><trkpt lat="45.1232785" lon="9.0162827"><ele>77.33333333333333</ele><time>2026-03-29T07:45:31.183Z</time></trkpt><trkpt lat="45.1232422" lon="9.0159927"><ele>78.0</ele><time>2026-03-29T07:45:32.183Z</time></trkpt><trkpt lat="45.1232055" lon="9.015698"><ele>78.0</ele><time>2026-03-29T07:45:33.184Z</time></trkpt><trkpt lat="45.1231682" lon="9.0154"><ele>78.0</ele><time>2026-03-29T07:45:34.183Z</time></trkpt><trkpt lat="45.1231295" lon="9.0151005"><ele>78.0</ele><time>2026-03-29T07:45:35.182Z</time></trkpt><trkpt lat="45.12309" lon="9.014801"><ele>78.0</ele><time>2026-03-29T07:45:36.182Z</time></trkpt><trkpt lat="45.1230518" lon="9.0145033"><ele>78.0</ele><time>2026-03-29T07:45:37.183Z</time></trkpt><trkpt lat="45.1230145" lon="9.0142093"><ele>78.0</ele><time>2026-03-29T07:45:38.182Z</time></trkpt><trkpt lat="45.1229775" lon="9.0139187"><ele>78.66666666666667</ele><time>2026-03-29T07:45:39.182Z</time></trkpt><trkpt lat="45.1229407" lon="9.0136307"><ele>79.33333333333334</ele><time>2026-03-29T07:45:40.183Z</time></trkpt><trkpt lat="45.1229033" lon="9.0133433"><ele>80.0</ele><time>2026-03-29T07:45:41.183Z</time></trkpt><trkpt lat="45.1228662" lon="9.0130557"><ele>80.0</ele><time>2026-03-29T07:45:42.184Z</time></trkpt><trkpt lat="45.1228288" lon="9.0127675"><ele>80.0</ele><time>2026-03-29T07:45:43.184Z</time></trkpt><trkpt lat="45.1227917" lon="9.012478"><ele>80.0</ele><time>2026-03-29T07:45:44.185Z</time></trkpt><trkpt lat="45.1227552" lon="9.0121867"><ele>79.66666666666667</ele><time>2026-03-29T07:45:45.184Z</time></trkpt><trkpt lat="45.1227185" lon="9.0118937"><ele>79.33333333333333</ele><time>2026-03-29T07:45:46.183Z</time></trkpt><trkpt lat="45.1226812" lon="9.0115977"><ele>79.0</ele><time>2026-03-29T07:45:47.183Z</time></trkpt><trkpt lat="45.1226428" lon="9.0112992"><ele>79.0</ele><time>2026-03-29T07:45:48.182Z</time></trkpt><trkpt lat="45.1226037" lon="9.0109985"><ele>79.0</ele><time>2026-03-29T07:45:49.182Z</time></trkpt><trkpt lat="45.1225652" lon="9.0106962"><ele>79.0</ele><time>2026-03-29T07:45:50.182Z</time></trkpt><trkpt lat="45.1225265" lon="9.0103932"><ele>79.0</ele><time>2026-03-29T07:45:51.184Z</time></trkpt><trkpt lat="45.122488" lon="9.0100895"><ele>79.0</ele><time>2026-03-29T07:45:52.184Z</time></trkpt><trkpt lat="45.1224497" lon="9.0097863"><ele>79.0</ele><time>2026-03-29T07:45:53.185Z</time></trkpt><trkpt lat="45.1224117" lon="9.0094845"><ele>79.33333333333333</ele><time>2026-03-29T07:45:54.186Z</time></trkpt><trkpt lat="45.1223737" lon="9.0091855"><ele>79.66666666666667</ele><time>2026-03-29T07:45:55.185Z</time></trkpt><trkpt lat="45.1223358" lon="9.0088898"><ele>80.0</ele><time>2026-03-29T07:45:56.183Z</time></trkpt><trkpt lat="45.1222978" lon="9.0085962"><ele>79.66666666666667</ele><time>2026-03-29T07:45:57.185Z</time></trkpt><trkpt lat="45.1222602" lon="9.008304"><ele>79.33333333333333</ele><time>2026-03-29T07:45:58.184Z</time></trkpt><trkpt lat="45.1222247" lon="9.0080238"><ele>79.0</ele><time>2026-03-29T07:45:59.183Z</time></trkpt><trkpt lat="45.1221917" lon="9.0077625"><ele>79.0</ele><time>2026-03-29T07:46:00.186Z</time></trkpt><trkpt lat="45.1221602" lon="9.007517"><ele>79.0</ele><time>2026-03-29T07:46:01.185Z</time></trkpt><trkpt lat="45.1221303" lon="9.0072873"><ele>79.0</ele><time>2026-03-29T07:46:02.184Z</time></trkpt><trkpt lat="45.1221028" lon="9.0070747"><ele>79.75</ele><time>2026-03-29T07:46:03.184Z</time></trkpt><trkpt lat="45.1220772" lon="9.0068757"><ele>80.5</ele><time>2026-03-29T07:46:04.185Z</time></trkpt><trkpt lat="45.1220538" lon="9.006692"><ele>81.25</ele><time>2026-03-29T07:46:05.183Z</time></trkpt><trkpt lat="45.1220323" lon="9.0065135"><ele>82.0</ele><time>2026-03-29T07:46:06.184Z</time></trkpt><trkpt lat="45.1220108" lon="9.006336"><ele>82.0</ele><time>2026-03-29T07:46:07.183Z</time></trkpt><trkpt lat="45.1219863" lon="9.0061613"><ele>82.0</ele><time>2026-03-29T07:46:08.185Z</time></trkpt><trkpt lat="45.1219572" lon="9.0059868"><ele>82.0</ele><time>2026-03-29T07:46:09.182Z</time></trkpt><trkpt lat="45.1219228" lon="9.0058092"><ele>82.0</ele><time>2026-03-29T07:46:10.183Z</time></trkpt><trkpt lat="45.1218803" lon="9.0056157"><ele>82.0</ele><time>2026-03-29T07:46:11.18Z</time></trkpt><trkpt lat="45.1218335" lon="9.0054018"><ele>82.0</ele><time>2026-03-29T07:46:12.18Z</time></trkpt><trkpt lat="45.1217852" lon="9.0051787"><ele>82.0</ele><time>2026-03-29T07:46:13.182Z</time></trkpt><trkpt lat="45.1217323" lon="9.0049375"><ele>81.66666666666666</ele><time>2026-03-29T07:46:14.18Z</time></trkpt><trkpt lat="45.1216782" lon="9.0046897"><ele>81.33333333333333</ele><time>2026-03-29T07:46:15.182Z</time></trkpt><trkpt lat="45.1216218" lon="9.0044428"><ele>81.0</ele><time>2026-03-29T07:46:16.183Z</time></trkpt><trkpt lat="45.1215665" lon="9.0042072"><ele>81.0</ele><time>2026-03-29T07:46:17.183Z</time></trkpt><trkpt lat="45.1215155" lon="9.0039875"><ele>81.0</ele><time>2026-03-29T07:46:18.183Z</time></trkpt><trkpt lat="45.1214692" lon="9.0037837"><ele>81.0</ele><time>2026-03-29T07:46:19.182Z</time></trkpt><trkpt lat="45.1214263" lon="9.0035927"><ele>81.0</ele><time>2026-03-29T07:46:20.182Z</time></trkpt><trkpt lat="45.1213882" lon="9.003405"><ele>81.0</ele><time>2026-03-29T07:46:21.182Z</time></trkpt><trkpt lat="45.1213642" lon="9.0032125"><ele>81.0</ele><time>2026-03-29T07:46:22.181Z</time></trkpt><trkpt lat="45.1213533" lon="9.0030067"><ele>81.0</ele><time>2026-03-29T07:46:23.18Z</time></trkpt><trkpt lat="45.1213467" lon="9.0027948"><ele>81.0</ele><time>2026-03-29T07:46:24.181Z</time></trkpt><trkpt lat="45.1213438" lon="9.002594"><ele>81.0</ele><time>2026-03-29T07:46:25.182Z</time></trkpt><trkpt lat="45.12134" lon="9.0023997"><ele>81.0</ele><time>2026-03-29T07:46:26.182Z</time></trkpt><trkpt lat="45.1213375" lon="9.002206"><ele>81.0</ele><time>2026-03-29T07:46:27.182Z</time></trkpt><trkpt lat="45.1213387" lon="9.002009"><ele>81.0</ele><time>2026-03-29T07:46:28.18Z</time></trkpt><trkpt lat="45.1213418" lon="9.0018072"><ele>81.0</ele><time>2026-03-29T07:46:29.179Z</time></trkpt><trkpt lat="45.1213495" lon="9.001608"><ele>81.0</ele><time>2026-03-29T07:46:30.18Z</time></trkpt><trkpt lat="45.1213622" lon="9.0014173"><ele>81.0</ele><time>2026-03-29T07:46:31.18Z</time></trkpt><trkpt lat="45.1213782" lon="9.0012208"><ele>81.0</ele><time>2026-03-29T07:46:32.178Z</time></trkpt><trkpt lat="45.1213963" lon="9.0010175"><ele>81.0</ele><time>2026-03-29T07:46:33.181Z</time></trkpt><trkpt lat="45.1214155" lon="9.0008095"><ele>81.0</ele><time>2026-03-29T07:46:34.179Z</time></trkpt><trkpt lat="45.1214347" lon="9.0006002"><ele>81.0</ele><time>2026-03-29T07:46:35.178Z</time></trkpt><trkpt lat="45.1214538" lon="9.0003955"><ele>81.0</ele><time>2026-03-29T07:46:36.178Z</time></trkpt><trkpt lat="45.1214702" lon="9.0002005"><ele>81.0</ele><time>2026-03-29T07:46:37.177Z</time></trkpt><trkpt lat="45.1214845" lon="9.0000155"><ele>81.0</ele><time>2026-03-29T07:46:38.18Z</time></trkpt><trkpt lat="45.1214982" lon="8.9998425"><ele>81.0</ele><time>2026-03-29T07:46:39.18Z</time></trkpt><trkpt lat="45.1215115" lon="8.9996828"><ele>81.0</ele><time>2026-03-29T07:46:40.183Z</time></trkpt><trkpt lat="45.1215258" lon="8.9995242"><ele>81.0</ele><time>2026-03-29T07:46:41.18Z</time></trkpt><trkpt lat="45.1215403" lon="8.9993595"><ele>81.0</ele><time>2026-03-29T07:46:42.181Z</time></trkpt><trkpt lat="45.1215555" lon="8.9991842"><ele>81.0</ele><time>2026-03-29T07:46:43.182Z</time></trkpt><trkpt lat="45.1215715" lon="8.9989912"><ele>80.66666666666667</ele><time>2026-03-29T07:46:44.181Z</time></trkpt><trkpt lat="45.1215897" lon="8.9987763"><ele>80.33333333333334</ele><time>2026-03-29T07:46:45.182Z</time></trkpt><trkpt lat="45.1216088" lon="8.9985375"><ele>80.0</ele><time>2026-03-29T07:46:46.181Z</time></trkpt><trkpt lat="45.121627" lon="8.9982892"><ele>80.0</ele><time>2026-03-29T07:46:47.182Z</time></trkpt><trkpt lat="45.1216478" lon="8.9980327"><ele>80.0</ele><time>2026-03-29T07:46:48.183Z</time></trkpt><trkpt lat="45.1216715" lon="8.997757"><ele>80.0</ele><time>2026-03-29T07:46:49.183Z</time></trkpt><trkpt lat="45.1216977" lon="8.9974667"><ele>80.0</ele><time>2026-03-29T07:46:50.184Z</time></trkpt><trkpt lat="45.121724" lon="8.9971732"><ele>80.0</ele><time>2026-03-29T07:46:51.185Z</time></trkpt><trkpt lat="45.1217495" lon="8.9968737"><ele>80.0</ele><time>2026-03-29T07:46:52.183Z</time></trkpt><trkpt lat="45.1217748" lon="8.996564"><ele>79.33333333333334</ele><time>2026-03-29T07:46:53.184Z</time></trkpt><trkpt lat="45.121802" lon="8.9962487"><ele>78.66666666666667</ele><time>2026-03-29T07:46:54.183Z</time></trkpt><trkpt lat="45.1218293" lon="8.9959387"><ele>78.0</ele><time>2026-03-29T07:46:55.184Z</time></trkpt><trkpt lat="45.1218565" lon="8.995635"><ele>77.33333333333333</ele><time>2026-03-29T07:46:56.184Z</time></trkpt><trkpt lat="45.1218827" lon="8.9953297"><ele>76.66666666666666</ele><time>2026-03-29T07:46:57.181Z</time></trkpt><trkpt lat="45.1219075" lon="8.9950223"><ele>76.0</ele><time>2026-03-29T07:46:58.182Z</time></trkpt><trkpt lat="45.1219313" lon="8.9947167"><ele>75.33333333333333</ele><time>2026-03-29T07:46:59.183Z</time></trkpt><trkpt lat="45.1219525" lon="8.9944145"><ele>74.66666666666667</ele><time>2026-03-29T07:47:00.183Z</time></trkpt><trkpt lat="45.121964" lon="8.9941102"><ele>74.0</ele><time>2026-03-29T07:47:01.183Z</time></trkpt><trkpt lat="45.1219605" lon="8.9937998"><ele>73.0</ele><time>2026-03-29T07:47:02.181Z</time></trkpt><trkpt lat="45.1219405" lon="8.9934825"><ele>72.0</ele><time>2026-03-29T07:47:03.182Z</time></trkpt><trkpt lat="45.121909" lon="8.9931578"><ele>72.0</ele><time>2026-03-29T07:47:04.185Z</time></trkpt><trkpt lat="45.1218688" lon="8.9928275"><ele>72.0</ele><time>2026-03-29T07:47:05.184Z</time></trkpt><trkpt lat="45.1218255" lon="8.9924942"><ele>72.0</ele><time>2026-03-29T07:47:06.184Z</time></trkpt><trkpt lat="45.121783" lon="8.9921578"><ele>72.0</ele><time>2026-03-29T07:47:07.184Z</time></trkpt><trkpt lat="45.1217405" lon="8.99182"><ele>71.0</ele><time>2026-03-29T07:47:08.184Z</time></trkpt><trkpt lat="45.1216975" lon="8.9914812"><ele>70.0</ele><time>2026-03-29T07:47:09.184Z</time></trkpt><trkpt lat="45.1216548" lon="8.991144"><ele>69.5</ele><time>2026-03-29T07:47:10.188Z</time></trkpt><trkpt lat="45.1216122" lon="8.9908087"><ele>69.0</ele><time>2026-03-29T07:47:11.185Z</time></trkpt><trkpt lat="45.1215693" lon="8.9904748"><ele>69.0</ele><time>2026-03-29T07:47:12.183Z</time></trkpt><trkpt lat="45.1215257" lon="8.9901445"><ele>69.0</ele><time>2026-03-29T07:47:13.185Z</time></trkpt><trkpt lat="45.1214842" lon="8.989819"><ele>69.0</ele><time>2026-03-29T07:47:14.182Z</time></trkpt><trkpt lat="45.1214433" lon="8.9894995"><ele>69.0</ele><time>2026-03-29T07:47:15.185Z</time></trkpt><trkpt lat="45.1214022" lon="8.9891858"><ele>69.33333333333333</ele><time>2026-03-29T07:47:16.183Z</time></trkpt><trkpt lat="45.121361" lon="8.9888775"><ele>69.66666666666666</ele><time>2026-03-29T07:47:17.183Z</time></trkpt><trkpt lat="45.1213167" lon="8.9885745"><ele>70.0</ele><time>2026-03-29T07:47:18.183Z</time></trkpt><trkpt lat="45.1212572" lon="8.988274"><ele>70.0</ele><time>2026-03-29T07:47:19.184Z</time></trkpt><trkpt lat="45.1211787" lon="8.9879723"><ele>70.0</ele><time>2026-03-29T07:47:20.183Z</time></trkpt><trkpt lat="45.1210868" lon="8.9876688"><ele>69.5</ele><time>2026-03-29T07:47:21.183Z</time></trkpt><trkpt lat="45.1209898" lon="8.9873603"><ele>69.0</ele><time>2026-03-29T07:47:22.186Z</time></trkpt><trkpt lat="45.1208935" lon="8.9870482"><ele>69.0</ele><time>2026-03-29T07:47:23.186Z</time></trkpt><trkpt lat="45.1207982" lon="8.9867343"><ele>69.0</ele><time>2026-03-29T07:47:24.182Z</time></trkpt><trkpt lat="45.1207038" lon="8.9864193"><ele>72.5</ele><time>2026-03-29T07:47:25.183Z</time></trkpt><trkpt lat="45.120608" lon="8.9861048"><ele>76.0</ele><time>2026-03-29T07:47:26.181Z</time></trkpt><trkpt lat="45.1205118" lon="8.9857923"><ele>77.0</ele><time>2026-03-29T07:47:27.183Z</time></trkpt><trkpt lat="45.1204172" lon="8.9854813"><ele>78.0</ele><time>2026-03-29T07:47:28.182Z</time></trkpt><trkpt lat="45.1203245" lon="8.985171"><ele>78.5</ele><time>2026-03-29T07:47:29.184Z</time></trkpt><trkpt lat="45.1202325" lon="8.9848622"><ele>79.0</ele><time>2026-03-29T07:47:30.184Z</time></trkpt><trkpt lat="45.12014" lon="8.9845552"><ele>79.0</ele><time>2026-03-29T07:47:31.184Z</time></trkpt><trkpt lat="45.1200482" lon="8.9842493"><ele>79.0</ele><time>2026-03-29T07:47:32.184Z</time></trkpt><trkpt lat="45.119957" lon="8.9839438"><ele>79.0</ele><time>2026-03-29T07:47:33.184Z</time></trkpt><trkpt lat="45.1198653" lon="8.9836392"><ele>79.0</ele><time>2026-03-29T07:47:34.186Z</time></trkpt><trkpt lat="45.1197733" lon="8.9833357"><ele>79.5</ele><time>2026-03-29T07:47:35.184Z</time></trkpt><trkpt lat="45.1196815" lon="8.9830327"><ele>80.0</ele><time>2026-03-29T07:47:36.185Z</time></trkpt><trkpt lat="45.1195893" lon="8.9827308"><ele>80.0</ele><time>2026-03-29T07:47:37.183Z</time></trkpt><trkpt lat="45.1194965" lon="8.9824305"><ele>80.0</ele><time>2026-03-29T07:47:38.183Z</time></trkpt><trkpt lat="45.1194037" lon="8.9821308"><ele>80.0</ele><time>2026-03-29T07:47:39.184Z</time></trkpt><trkpt lat="45.119312" lon="8.981831"><ele>80.0</ele><time>2026-03-29T07:47:40.184Z</time></trkpt><trkpt lat="45.1192208" lon="8.9815307"><ele>80.0</ele><time>2026-03-29T07:47:41.183Z</time></trkpt><trkpt lat="45.1191293" lon="8.9812285"><ele>80.0</ele><time>2026-03-29T07:47:42.187Z</time></trkpt><trkpt lat="45.1190377" lon="8.9809225"><ele>81.5</ele><time>2026-03-29T07:47:43.185Z</time></trkpt><trkpt lat="45.118945" lon="8.9806147"><ele>83.0</ele><time>2026-03-29T07:47:44.185Z</time></trkpt><trkpt lat="45.1188507" lon="8.9803053"><ele>81.5</ele><time>2026-03-29T07:47:45.183Z</time></trkpt><trkpt lat="45.118756" lon="8.9799952"><ele>80.0</ele><time>2026-03-29T07:47:46.185Z</time></trkpt><trkpt lat="45.1186612" lon="8.9796838"><ele>80.0</ele><time>2026-03-29T07:47:47.184Z</time></trkpt><trkpt lat="45.1185665" lon="8.9793715"><ele>80.0</ele><time>2026-03-29T07:47:48.185Z</time></trkpt><trkpt lat="45.1184722" lon="8.9790585"><ele>79.5</ele><time>2026-03-29T07:47:49.183Z</time></trkpt><trkpt lat="45.1183775" lon="8.9787458"><ele>79.0</ele><time>2026-03-29T07:47:50.183Z</time></trkpt><trkpt lat="45.1182832" lon="8.9784333"><ele>79.0</ele><time>2026-03-29T07:47:51.185Z</time></trkpt><trkpt lat="45.1181892" lon="8.9781215"><ele>79.0</ele><time>2026-03-29T07:47:52.185Z</time></trkpt><trkpt lat="45.1180948" lon="8.9778103"><ele>79.0</ele><time>2026-03-29T07:47:53.188Z</time></trkpt><trkpt lat="45.1180013" lon="8.9774995"><ele>79.0</ele><time>2026-03-29T07:47:54.186Z</time></trkpt><trkpt lat="45.117908" lon="8.9771892"><ele>79.0</ele><time>2026-03-29T07:47:55.186Z</time></trkpt><trkpt lat="45.1178145" lon="8.9768795"><ele>79.0</ele><time>2026-03-29T07:47:56.185Z</time></trkpt><trkpt lat="45.1177213" lon="8.9765697"><ele>80.0</ele><time>2026-03-29T07:47:57.185Z</time></trkpt><trkpt lat="45.1176285" lon="8.9762602"><ele>81.0</ele><time>2026-03-29T07:47:58.186Z</time></trkpt><trkpt lat="45.1175348" lon="8.9759507"><ele>83.0</ele><time>2026-03-29T07:47:59.185Z</time></trkpt><trkpt lat="45.1174405" lon="8.9756407"><ele>85.0</ele><time>2026-03-29T07:48:00.186Z</time></trkpt><trkpt lat="45.1173465" lon="8.9753297"><ele>82.5</ele><time>2026-03-29T07:48:01.185Z</time></trkpt><trkpt lat="45.1172518" lon="8.9750182"><ele>80.0</ele><time>2026-03-29T07:48:02.185Z</time></trkpt><trkpt lat="45.117157" lon="8.9747058"><ele>80.0</ele><time>2026-03-29T07:48:03.186Z</time></trkpt><trkpt lat="45.1170625" lon="8.9743933"><ele>80.0</ele><time>2026-03-29T07:48:04.185Z</time></trkpt><trkpt lat="45.1169673" lon="8.974081"><ele>81.0</ele><time>2026-03-29T07:48:05.185Z</time></trkpt><trkpt lat="45.1168717" lon="8.973769"><ele>82.0</ele><time>2026-03-29T07:48:06.186Z</time></trkpt><trkpt lat="45.1167763" lon="8.973457"><ele>83.5</ele><time>2026-03-29T07:48:07.185Z</time></trkpt><trkpt lat="45.1166818" lon="8.9731442"><ele>85.0</ele><time>2026-03-29T07:48:08.185Z</time></trkpt><trkpt lat="45.1165873" lon="8.9728302"><ele>83.0</ele><time>2026-03-29T07:48:09.188Z</time></trkpt><trkpt lat="45.116492" lon="8.972515"><ele>81.0</ele><time>2026-03-29T07:48:10.185Z</time></trkpt><trkpt lat="45.1163947" lon="8.972199"><ele>81.0</ele><time>2026-03-29T07:48:11.185Z</time></trkpt><trkpt lat="45.116296" lon="8.9718823"><ele>81.0</ele><time>2026-03-29T07:48:12.184Z</time></trkpt><trkpt lat="45.116197" lon="8.9715645"><ele>81.5</ele><time>2026-03-29T07:48:13.187Z</time></trkpt><trkpt lat="45.1160992" lon="8.9712477"><ele>82.0</ele><time>2026-03-29T07:48:14.185Z</time></trkpt><trkpt lat="45.116005" lon="8.9709345"><ele>83.0</ele><time>2026-03-29T07:48:15.181Z</time></trkpt><trkpt lat="45.1159133" lon="8.9706227"><ele>84.0</ele><time>2026-03-29T07:48:16.183Z</time></trkpt><trkpt lat="45.1158212" lon="8.9703097"><ele>81.5</ele><time>2026-03-29T07:48:17.182Z</time></trkpt><trkpt lat="45.1157287" lon="8.9699957"><ele>79.0</ele><time>2026-03-29T07:48:18.181Z</time></trkpt><trkpt lat="45.1156353" lon="8.9696817"><ele>79.0</ele><time>2026-03-29T07:48:19.182Z</time></trkpt><trkpt lat="45.1155405" lon="8.969368"><ele>79.0</ele><time>2026-03-29T07:48:20.182Z</time></trkpt><trkpt lat="45.1154452" lon="8.9690547"><ele>79.5</ele><time>2026-03-29T07:48:21.185Z</time></trkpt><trkpt lat="45.1153512" lon="8.9687472"><ele>80.0</ele><time>2026-03-29T07:48:22.185Z</time></trkpt><trkpt lat="45.1152628" lon="8.9684597"><ele>80.0</ele><time>2026-03-29T07:48:23.186Z</time></trkpt><trkpt lat="45.1151792" lon="8.9681905"><ele>80.0</ele><time>2026-03-29T07:48:24.185Z</time></trkpt><trkpt lat="45.1150988" lon="8.9679325"><ele>80.0</ele><time>2026-03-29T07:48:25.185Z</time></trkpt><trkpt lat="45.1150197" lon="8.9676813"><ele>80.33333333333334</ele><time>2026-03-29T07:48:26.185Z</time></trkpt><trkpt lat="45.1149448" lon="8.9674413"><ele>80.66666666666667</ele><time>2026-03-29T07:48:27.185Z</time></trkpt><trkpt lat="45.114878" lon="8.9672217"><ele>81.0</ele><time>2026-03-29T07:48:28.186Z</time></trkpt><trkpt lat="45.114815" lon="8.9670153"><ele>81.0</ele><time>2026-03-29T07:48:29.184Z</time></trkpt><trkpt lat="45.1147555" lon="8.96682"><ele>81.0</ele><time>2026-03-29T07:48:30.186Z</time></trkpt><trkpt lat="45.1146993" lon="8.9666365"><ele>81.0</ele><time>2026-03-29T07:48:31.184Z</time></trkpt><trkpt lat="45.1146477" lon="8.9664685"><ele>81.0</ele><time>2026-03-29T07:48:32.184Z</time></trkpt><trkpt lat="45.1145987" lon="8.9663112"><ele>81.0</ele><time>2026-03-29T07:48:33.184Z</time></trkpt><trkpt lat="45.1145532" lon="8.96616"><ele>81.0</ele><time>2026-03-29T07:48:34.187Z</time></trkpt><trkpt lat="45.1145113" lon="8.9660177"><ele>81.0</ele><time>2026-03-29T07:48:35.184Z</time></trkpt><trkpt lat="45.114472" lon="8.9658882"><ele>81.0</ele><time>2026-03-29T07:48:36.185Z</time></trkpt><trkpt lat="45.1144358" lon="8.9657687"><ele>81.0</ele><time>2026-03-29T07:48:37.185Z</time></trkpt><trkpt lat="45.1143988" lon="8.9656493"><ele>81.19999999999999</ele><time>2026-03-29T07:48:38.182Z</time></trkpt><trkpt lat="45.1143603" lon="8.9655267"><ele>81.39999999999999</ele><time>2026-03-29T07:48:39.182Z</time></trkpt><trkpt lat="45.1143188" lon="8.965392"><ele>81.6</ele><time>2026-03-29T07:48:40.182Z</time></trkpt><trkpt lat="45.1142767" lon="8.9652378"><ele>81.8</ele><time>2026-03-29T07:48:41.182Z</time></trkpt><trkpt lat="45.1142285" lon="8.9650648"><ele>82.0</ele><time>2026-03-29T07:48:42.184Z</time></trkpt><trkpt lat="45.1141748" lon="8.9648857"><ele>82.33333333333333</ele><time>2026-03-29T07:48:43.184Z</time></trkpt><trkpt lat="45.114118" lon="8.9646978"><ele>82.66666666666667</ele><time>2026-03-29T07:48:44.184Z</time></trkpt><trkpt lat="45.1140572" lon="8.9644987"><ele>83.0</ele><time>2026-03-29T07:48:45.186Z</time></trkpt><trkpt lat="45.1139952" lon="8.9642933"><ele>82.66666666666667</ele><time>2026-03-29T07:48:46.185Z</time></trkpt><trkpt lat="45.1139333" lon="8.9640853"><ele>82.33333333333333</ele><time>2026-03-29T07:48:47.185Z</time></trkpt><trkpt lat="45.1138728" lon="8.9638783"><ele>82.0</ele><time>2026-03-29T07:48:48.184Z</time></trkpt><trkpt lat="45.1138127" lon="8.9636707"><ele>82.0</ele><time>2026-03-29T07:48:49.185Z</time></trkpt><trkpt lat="45.1137522" lon="8.9634638"><ele>82.0</ele><time>2026-03-29T07:48:50.183Z</time></trkpt><trkpt lat="45.1136925" lon="8.9632632"><ele>82.0</ele><time>2026-03-29T07:48:51.186Z</time></trkpt><trkpt lat="45.1136305" lon="8.9630598"><ele>82.66666666666666</ele><time>2026-03-29T07:48:52.185Z</time></trkpt><trkpt lat="45.1135645" lon="8.9628463"><ele>83.33333333333333</ele><time>2026-03-29T07:48:53.183Z</time></trkpt><trkpt lat="45.1134978" lon="8.9626302"><ele>84.0</ele><time>2026-03-29T07:48:54.184Z</time></trkpt><trkpt lat="45.1134325" lon="8.962418"><ele>84.33333333333333</ele><time>2026-03-29T07:48:55.184Z</time></trkpt><trkpt lat="45.1133707" lon="8.9622147"><ele>84.66666666666666</ele><time>2026-03-29T07:48:56.183Z</time></trkpt><trkpt lat="45.1133113" lon="8.9620193"><ele>85.0</ele><time>2026-03-29T07:48:57.184Z</time></trkpt><trkpt lat="45.11325" lon="8.9618285"><ele>85.33333333333333</ele><time>2026-03-29T07:48:58.184Z</time></trkpt><trkpt lat="45.1131825" lon="8.9616407"><ele>85.66666666666667</ele><time>2026-03-29T07:48:59.183Z</time></trkpt><trkpt lat="45.113106" lon="8.9614543"><ele>86.0</ele><time>2026-03-29T07:49:00.184Z</time></trkpt><trkpt lat="45.1130205" lon="8.961279"><ele>86.0</ele><time>2026-03-29T07:49:01.184Z</time></trkpt><trkpt lat="45.1129315" lon="8.961124"><ele>86.0</ele><time>2026-03-29T07:49:02.181Z</time></trkpt><trkpt lat="45.1128518" lon="8.9609753"><ele>86.0</ele><time>2026-03-29T07:49:03.182Z</time></trkpt><trkpt lat="45.1127737" lon="8.9608362"><ele>86.0</ele><time>2026-03-29T07:49:04.181Z</time></trkpt><trkpt lat="45.1127012" lon="8.9607098"><ele>86.0</ele><time>2026-03-29T07:49:05.179Z</time></trkpt><trkpt lat="45.112637" lon="8.9605973"><ele>86.0</ele><time>2026-03-29T07:49:06.181Z</time></trkpt><trkpt lat="45.1125825" lon="8.9605012"><ele>86.0</ele><time>2026-03-29T07:49:07.181Z</time></trkpt><trkpt lat="45.1125367" lon="8.9604235"><ele>86.0</ele><time>2026-03-29T07:49:08.182Z</time></trkpt><trkpt lat="45.112481" lon="8.9603293"><ele>86.0</ele><time>2026-03-29T07:49:10.183Z</time></trkpt><trkpt lat="45.1124163" lon="8.9602085"><ele>86.0</ele><time>2026-03-29T07:49:59.181Z</time></trkpt><trkpt lat="45.1123678" lon="8.9601063"><ele>86.0</ele><time>2026-03-29T07:50:00.18Z</time></trkpt><trkpt lat="45.1123098" lon="8.959974"><ele>86.0</ele><time>2026-03-29T07:50:01.182Z</time></trkpt><trkpt lat="45.1122478" lon="8.9598182"><ele>86.0</ele><time>2026-03-29T07:50:02.18Z</time></trkpt><trkpt lat="45.112178" lon="8.9596353"><ele>86.0</ele><time>2026-03-29T07:50:03.181Z</time></trkpt><trkpt lat="45.1121063" lon="8.9594398"><ele>86.0</ele><time>2026-03-29T07:50:04.182Z</time></trkpt><trkpt lat="45.1120313" lon="8.9592308"><ele>86.0</ele><time>2026-03-29T07:50:05.181Z</time></trkpt><trkpt lat="45.1119578" lon="8.9590155"><ele>86.66666666666667</ele><time>2026-03-29T07:50:06.181Z</time></trkpt><trkpt lat="45.1118875" lon="8.9588123"><ele>87.33333333333333</ele><time>2026-03-29T07:50:07.183Z</time></trkpt><trkpt lat="45.1118228" lon="8.9586053"><ele>88.0</ele><time>2026-03-29T07:50:08.183Z</time></trkpt><trkpt lat="45.1117687" lon="8.9583817"><ele>87.33333333333333</ele><time>2026-03-29T07:50:09.181Z</time></trkpt><trkpt lat="45.1117272" lon="8.9581458"><ele>86.66666666666667</ele><time>2026-03-29T07:50:10.187Z</time></trkpt><trkpt lat="45.1116977" lon="8.9579063"><ele>86.0</ele><time>2026-03-29T07:50:11.183Z</time></trkpt><trkpt lat="45.1116753" lon="8.9576717"><ele>85.0</ele><time>2026-03-29T07:50:12.182Z</time></trkpt><trkpt lat="45.1116543" lon="8.9574422"><ele>84.0</ele><time>2026-03-29T07:50:13.181Z</time></trkpt><trkpt lat="45.1116342" lon="8.9572163"><ele>83.0</ele><time>2026-03-29T07:50:14.182Z</time></trkpt><trkpt lat="45.1116137" lon="8.956993"><ele>83.0</ele><time>2026-03-29T07:50:15.183Z</time></trkpt><trkpt lat="45.1115935" lon="8.956773"><ele>83.0</ele><time>2026-03-29T07:50:16.181Z</time></trkpt><trkpt lat="45.1115735" lon="8.9565555"><ele>83.0</ele><time>2026-03-29T07:50:17.182Z</time></trkpt><trkpt lat="45.1115525" lon="8.9563317"><ele>83.0</ele><time>2026-03-29T07:50:18.182Z</time></trkpt><trkpt lat="45.1115313" lon="8.9561018"><ele>83.0</ele><time>2026-03-29T07:50:19.182Z</time></trkpt><trkpt lat="45.111511" lon="8.9558718"><ele>83.0</ele><time>2026-03-29T07:50:20.184Z</time></trkpt><trkpt lat="45.1114932" lon="8.9556548"><ele>83.0</ele><time>2026-03-29T07:50:21.184Z</time></trkpt><trkpt lat="45.1114757" lon="8.9554358"><ele>83.0</ele><time>2026-03-29T07:50:22.185Z</time></trkpt><trkpt lat="45.1114567" lon="8.9552213"><ele>83.0</ele><time>2026-03-29T07:50:23.184Z</time></trkpt><trkpt lat="45.1114367" lon="8.955012"><ele>83.0</ele><time>2026-03-29T07:50:24.186Z</time></trkpt><trkpt lat="45.1114165" lon="8.9548018"><ele>83.0</ele><time>2026-03-29T07:50:25.184Z</time></trkpt><trkpt lat="45.1113963" lon="8.9545862"><ele>83.0</ele><time>2026-03-29T07:50:26.184Z</time></trkpt><trkpt lat="45.1113743" lon="8.954353"><ele>83.0</ele><time>2026-03-29T07:50:27.183Z</time></trkpt><trkpt lat="45.1113473" lon="8.9540993"><ele>83.0</ele><time>2026-03-29T07:50:28.183Z</time></trkpt><trkpt lat="45.1113127" lon="8.9538117"><ele>83.0</ele><time>2026-03-29T07:50:29.184Z</time></trkpt><trkpt lat="45.11128" lon="8.9535002"><ele>83.0</ele><time>2026-03-29T07:50:30.183Z</time></trkpt><trkpt lat="45.1112532" lon="8.953174"><ele>83.0</ele><time>2026-03-29T07:50:31.184Z</time></trkpt><trkpt lat="45.1112292" lon="8.952822"><ele>82.0</ele><time>2026-03-29T07:50:32.186Z</time></trkpt><trkpt lat="45.1112047" lon="8.9524687"><ele>81.0</ele><time>2026-03-29T07:50:33.187Z</time></trkpt><trkpt lat="45.1111775" lon="8.952115"><ele>81.0</ele><time>2026-03-29T07:50:34.186Z</time></trkpt><trkpt lat="45.1111477" lon="8.9517605"><ele>81.0</ele><time>2026-03-29T07:50:35.188Z</time></trkpt><trkpt lat="45.111117" lon="8.9514062"><ele>81.0</ele><time>2026-03-29T07:50:36.184Z</time></trkpt><trkpt lat="45.1110858" lon="8.9510525"><ele>81.0</ele><time>2026-03-29T07:50:37.184Z</time></trkpt><trkpt lat="45.1110535" lon="8.9507008"><ele>81.0</ele><time>2026-03-29T07:50:38.184Z</time></trkpt><trkpt lat="45.111021" lon="8.9503502"><ele>81.0</ele><time>2026-03-29T07:50:39.184Z</time></trkpt><trkpt lat="45.1109887" lon="8.9500005"><ele>81.0</ele><time>2026-03-29T07:50:40.185Z</time></trkpt><trkpt lat="45.1109563" lon="8.9496513"><ele>81.0</ele><time>2026-03-29T07:50:41.183Z</time></trkpt><trkpt lat="45.1109248" lon="8.9493013"><ele>81.5</ele><time>2026-03-29T07:50:42.184Z</time></trkpt><trkpt lat="45.110894" lon="8.9489502"><ele>82.0</ele><time>2026-03-29T07:50:43.183Z</time></trkpt><trkpt lat="45.1108618" lon="8.948598"><ele>82.0</ele><time>2026-03-29T07:50:44.183Z</time></trkpt><trkpt lat="45.1108293" lon="8.9482452"><ele>82.0</ele><time>2026-03-29T07:50:45.187Z</time></trkpt><trkpt lat="45.1107977" lon="8.9478922"><ele>82.0</ele><time>2026-03-29T07:50:46.186Z</time></trkpt><trkpt lat="45.1107663" lon="8.9475392"><ele>82.0</ele><time>2026-03-29T07:50:47.185Z</time></trkpt><trkpt lat="45.1107343" lon="8.9471852"><ele>82.0</ele><time>2026-03-29T07:50:48.187Z</time></trkpt><trkpt lat="45.1107022" lon="8.946829"><ele>82.0</ele><time>2026-03-29T07:50:49.187Z</time></trkpt><trkpt lat="45.1106703" lon="8.9464715"><ele>82.0</ele><time>2026-03-29T07:50:50.186Z</time></trkpt><trkpt lat="45.1106393" lon="8.9461123"><ele>82.0</ele><time>2026-03-29T07:50:51.184Z</time></trkpt><trkpt lat="45.110608" lon="8.945752"><ele>82.0</ele><time>2026-03-29T07:50:52.184Z</time></trkpt><trkpt lat="45.110576" lon="8.9453907"><ele>82.0</ele><time>2026-03-29T07:50:53.186Z</time></trkpt><trkpt lat="45.1105433" lon="8.94503"><ele>82.5</ele><time>2026-03-29T07:50:54.184Z</time></trkpt><trkpt lat="45.1105103" lon="8.9446697"><ele>83.0</ele><time>2026-03-29T07:50:55.187Z</time></trkpt><trkpt lat="45.1104767" lon="8.9443105"><ele>82.5</ele><time>2026-03-29T07:50:56.183Z</time></trkpt><trkpt lat="45.1104427" lon="8.943953"><ele>82.0</ele><time>2026-03-29T07:50:57.183Z</time></trkpt><trkpt lat="45.110409" lon="8.9435982"><ele>83.0</ele><time>2026-03-29T07:50:58.185Z</time></trkpt><trkpt lat="45.1103765" lon="8.9432458"><ele>84.0</ele><time>2026-03-29T07:50:59.185Z</time></trkpt><trkpt lat="45.1103457" lon="8.9428958"><ele>84.0</ele><time>2026-03-29T07:51:00.185Z</time></trkpt><trkpt lat="45.1103138" lon="8.942548"><ele>84.0</ele><time>2026-03-29T07:51:01.185Z</time></trkpt><trkpt lat="45.1102818" lon="8.9422023"><ele>84.5</ele><time>2026-03-29T07:51:02.184Z</time></trkpt><trkpt lat="45.1102503" lon="8.9418578"><ele>85.0</ele><time>2026-03-29T07:51:03.185Z</time></trkpt><trkpt lat="45.1102208" lon="8.9415125"><ele>85.0</ele><time>2026-03-29T07:51:04.183Z</time></trkpt><trkpt lat="45.1101908" lon="8.9411653"><ele>85.0</ele><time>2026-03-29T07:51:05.182Z</time></trkpt><trkpt lat="45.11016" lon="8.9408172"><ele>85.0</ele><time>2026-03-29T07:51:06.183Z</time></trkpt><trkpt lat="45.1101283" lon="8.9404673"><ele>85.0</ele><time>2026-03-29T07:51:07.182Z</time></trkpt><trkpt lat="45.1100963" lon="8.9401148"><ele>85.0</ele><time>2026-03-29T07:51:08.183Z</time></trkpt><trkpt lat="45.1100643" lon="8.93976"><ele>85.0</ele><time>2026-03-29T07:51:09.189Z</time></trkpt><trkpt lat="45.1100323" lon="8.9394033"><ele>85.0</ele><time>2026-03-29T07:51:10.19Z</time></trkpt><trkpt lat="45.1099997" lon="8.939046"><ele>85.0</ele><time>2026-03-29T07:51:11.185Z</time></trkpt><trkpt lat="45.1099675" lon="8.9386887"><ele>85.0</ele><time>2026-03-29T07:51:12.185Z</time></trkpt><trkpt lat="45.1099363" lon="8.9383312"><ele>85.0</ele><time>2026-03-29T07:51:13.185Z</time></trkpt><trkpt lat="45.1099053" lon="8.9379742"><ele>83.5</ele><time>2026-03-29T07:51:14.184Z</time></trkpt><trkpt lat="45.1098728" lon="8.9376178"><ele>82.0</ele><time>2026-03-29T07:51:15.185Z</time></trkpt><trkpt lat="45.1098402" lon="8.9372618"><ele>82.0</ele><time>2026-03-29T07:51:16.183Z</time></trkpt><trkpt lat="45.109808" lon="8.9369063"><ele>82.0</ele><time>2026-03-29T07:51:17.184Z</time></trkpt><trkpt lat="45.1097752" lon="8.9365522"><ele>82.0</ele><time>2026-03-29T07:51:18.185Z</time></trkpt><trkpt lat="45.1097423" lon="8.9361987"><ele>82.0</ele><time>2026-03-29T07:51:19.185Z</time></trkpt><trkpt lat="45.1097105" lon="8.9358455"><ele>82.0</ele><time>2026-03-29T07:51:20.185Z</time></trkpt><trkpt lat="45.1096795" lon="8.935492"><ele>82.0</ele><time>2026-03-29T07:51:21.185Z</time></trkpt><trkpt lat="45.1096478" lon="8.9351388"><ele>82.0</ele><time>2026-03-29T07:51:22.185Z</time></trkpt><trkpt lat="45.109616" lon="8.9347857"><ele>82.0</ele><time>2026-03-29T07:51:23.184Z</time></trkpt><trkpt lat="45.1095847" lon="8.9344322"><ele>82.0</ele><time>2026-03-29T07:51:24.184Z</time></trkpt><trkpt lat="45.1095525" lon="8.9340772"><ele>82.0</ele><time>2026-03-29T07:51:25.184Z</time></trkpt><trkpt lat="45.1095188" lon="8.9337203"><ele>82.0</ele><time>2026-03-29T07:51:26.186Z</time></trkpt><trkpt lat="45.109485" lon="8.9333617"><ele>82.0</ele><time>2026-03-29T07:51:27.186Z</time></trkpt><trkpt lat="45.1094517" lon="8.9330015"><ele>82.0</ele><time>2026-03-29T07:51:28.184Z</time></trkpt><trkpt lat="45.1094192" lon="8.9326403"><ele>82.0</ele><time>2026-03-29T07:51:29.182Z</time></trkpt><trkpt lat="45.1093867" lon="8.9322795"><ele>82.0</ele><time>2026-03-29T07:51:30.183Z</time></trkpt><trkpt lat="45.109354" lon="8.9319208"><ele>82.0</ele><time>2026-03-29T07:51:31.183Z</time></trkpt><trkpt lat="45.1093212" lon="8.9315655"><ele>82.5</ele><time>2026-03-29T07:51:32.182Z</time></trkpt><trkpt lat="45.1092908" lon="8.9312308"><ele>83.0</ele><time>2026-03-29T07:51:33.183Z</time></trkpt><trkpt lat="45.1092638" lon="8.9309235"><ele>83.0</ele><time>2026-03-29T07:51:34.183Z</time></trkpt><trkpt lat="45.1092403" lon="8.930642"><ele>83.0</ele><time>2026-03-29T07:51:35.183Z</time></trkpt><trkpt lat="45.1092197" lon="8.9303918"><ele>83.0</ele><time>2026-03-29T07:51:36.185Z</time></trkpt><trkpt lat="45.1091992" lon="8.9301688"><ele>83.0</ele><time>2026-03-29T07:51:37.183Z</time></trkpt><trkpt lat="45.1091783" lon="8.929971"><ele>83.0</ele><time>2026-03-29T07:51:38.187Z</time></trkpt><trkpt lat="45.1091572" lon="8.9297912"><ele>83.0</ele><time>2026-03-29T07:51:39.184Z</time></trkpt><trkpt lat="45.1091422" lon="8.9296278"><ele>83.0</ele><time>2026-03-29T07:51:40.186Z</time></trkpt><trkpt lat="45.1091383" lon="8.9294665"><ele>83.0</ele><time>2026-03-29T07:51:41.187Z</time></trkpt><trkpt lat="45.1091278" lon="8.9292958"><ele>83.0</ele><time>2026-03-29T07:51:42.185Z</time></trkpt><trkpt lat="45.1091033" lon="8.9290995"><ele>83.0</ele><time>2026-03-29T07:51:43.186Z</time></trkpt><trkpt lat="45.1090832" lon="8.928872"><ele>83.0</ele><time>2026-03-29T07:51:44.185Z</time></trkpt><trkpt lat="45.1090677" lon="8.9286313"><ele>83.66666666666667</ele><time>2026-03-29T07:51:45.183Z</time></trkpt><trkpt lat="45.1090447" lon="8.9283723"><ele>84.33333333333333</ele><time>2026-03-29T07:51:46.184Z</time></trkpt><trkpt lat="45.1090138" lon="8.9280988"><ele>85.0</ele><time>2026-03-29T07:51:47.186Z</time></trkpt><trkpt lat="45.1089818" lon="8.9278185"><ele>85.33333333333333</ele><time>2026-03-29T07:51:48.184Z</time></trkpt><trkpt lat="45.108952" lon="8.9275185"><ele>85.66666666666667</ele><time>2026-03-29T07:51:49.185Z</time></trkpt><trkpt lat="45.1089243" lon="8.9272113"><ele>86.0</ele><time>2026-03-29T07:51:50.185Z</time></trkpt><trkpt lat="45.1088973" lon="8.9269118"><ele>85.33333333333334</ele><time>2026-03-29T07:51:51.187Z</time></trkpt><trkpt lat="45.108872" lon="8.9266328"><ele>84.66666666666667</ele><time>2026-03-29T07:51:52.186Z</time></trkpt><trkpt lat="45.1088473" lon="8.9263737"><ele>84.0</ele><time>2026-03-29T07:51:53.184Z</time></trkpt><trkpt lat="45.1088253" lon="8.9261252"><ele>84.33333333333333</ele><time>2026-03-29T07:51:54.181Z</time></trkpt><trkpt lat="45.108814" lon="8.9258868"><ele>84.66666666666666</ele><time>2026-03-29T07:51:55.181Z</time></trkpt><trkpt lat="45.1088232" lon="8.9256628"><ele>85.0</ele><time>2026-03-29T07:51:56.183Z</time></trkpt><trkpt lat="45.1088563" lon="8.9254385"><ele>85.0</ele><time>2026-03-29T07:51:57.182Z</time></trkpt><trkpt lat="45.1089152" lon="8.9252187"><ele>85.0</ele><time>2026-03-29T07:51:58.184Z</time></trkpt><trkpt lat="45.1089902" lon="8.925024"><ele>85.0</ele><time>2026-03-29T07:51:59.184Z</time></trkpt><trkpt lat="45.1090602" lon="8.9248493"><ele>84.25</ele><time>2026-03-29T07:52:00.188Z</time></trkpt><trkpt lat="45.1091095" lon="8.924682"><ele>83.5</ele><time>2026-03-29T07:52:01.185Z</time></trkpt><trkpt lat="45.1091362" lon="8.9245338"><ele>82.75</ele><time>2026-03-29T07:52:02.185Z</time></trkpt><trkpt lat="45.1091495" lon="8.9243882"><ele>82.0</ele><time>2026-03-29T07:52:03.185Z</time></trkpt><trkpt lat="45.109157" lon="8.9242237"><ele>82.0</ele><time>2026-03-29T07:52:04.184Z</time></trkpt><trkpt lat="45.1091528" lon="8.9240452"><ele>82.0</ele><time>2026-03-29T07:52:05.183Z</time></trkpt><trkpt lat="45.1091283" lon="8.9238803"><ele>82.0</ele><time>2026-03-29T07:52:06.183Z</time></trkpt><trkpt lat="45.1090822" lon="8.9237462"><ele>82.0</ele><time>2026-03-29T07:52:07.187Z</time></trkpt><trkpt lat="45.1090137" lon="8.9236457"><ele>82.0</ele><time>2026-03-29T07:52:08.186Z</time></trkpt><trkpt lat="45.1089243" lon="8.9235852"><ele>82.19999999999999</ele><time>2026-03-29T07:52:09.184Z</time></trkpt><trkpt lat="45.1088222" lon="8.9235737"><ele>82.4</ele><time>2026-03-29T07:52:10.186Z</time></trkpt><trkpt lat="45.1087143" lon="8.9236013"><ele>82.6</ele><time>2026-03-29T07:52:11.187Z</time></trkpt><trkpt lat="45.108614" lon="8.9236282"><ele>82.80000000000001</ele><time>2026-03-29T07:52:12.186Z</time></trkpt><trkpt lat="45.1085025" lon="8.9236158"><ele>83.0</ele><time>2026-03-29T07:52:13.187Z</time></trkpt><trkpt lat="45.1083788" lon="8.9235583"><ele>83.33333333333334</ele><time>2026-03-29T07:52:14.186Z</time></trkpt><trkpt lat="45.1082378" lon="8.923462"><ele>83.66666666666667</ele><time>2026-03-29T07:52:15.185Z</time></trkpt><trkpt lat="45.1080892" lon="8.9233382"><ele>84.0</ele><time>2026-03-29T07:52:16.184Z</time></trkpt><trkpt lat="45.1079317" lon="8.9231877"><ele>84.0</ele><time>2026-03-29T07:52:17.188Z</time></trkpt><trkpt lat="45.1077735" lon="8.9230157"><ele>84.0</ele><time>2026-03-29T07:52:18.184Z</time></trkpt><trkpt lat="45.1076137" lon="8.9228258"><ele>84.0</ele><time>2026-03-29T07:52:19.183Z</time></trkpt><trkpt lat="45.1074462" lon="8.9226193"><ele>83.0</ele><time>2026-03-29T07:52:20.184Z</time></trkpt><trkpt lat="45.1072723" lon="8.9224055"><ele>82.0</ele><time>2026-03-29T07:52:21.183Z</time></trkpt><trkpt lat="45.1070977" lon="8.922194"><ele>82.0</ele><time>2026-03-29T07:52:22.183Z</time></trkpt><trkpt lat="45.1069187" lon="8.9219787"><ele>82.0</ele><time>2026-03-29T07:52:23.184Z</time></trkpt><trkpt lat="45.106738" lon="8.9217582"><ele>78.0</ele><time>2026-03-29T07:52:24.185Z</time></trkpt><trkpt lat="45.1065558" lon="8.9215357"><ele>74.0</ele><time>2026-03-29T07:52:25.186Z</time></trkpt><trkpt lat="45.1063718" lon="8.921312"><ele>74.0</ele><time>2026-03-29T07:52:26.183Z</time></trkpt><trkpt lat="45.1061862" lon="8.9210882"><ele>74.0</ele><time>2026-03-29T07:52:27.183Z</time></trkpt><trkpt lat="45.1059995" lon="8.9208645"><ele>73.5</ele><time>2026-03-29T07:52:28.183Z</time></trkpt><trkpt lat="45.1058135" lon="8.9206428"><ele>73.0</ele><time>2026-03-29T07:52:29.186Z</time></trkpt><trkpt lat="45.1056278" lon="8.920421"><ele>71.5</ele><time>2026-03-29T07:52:30.183Z</time></trkpt><trkpt lat="45.1054413" lon="8.9201987"><ele>70.0</ele><time>2026-03-29T07:52:31.184Z</time></trkpt><trkpt lat="45.1052552" lon="8.9199748"><ele>70.0</ele><time>2026-03-29T07:52:32.185Z</time></trkpt><trkpt lat="45.1050687" lon="8.9197488"><ele>70.0</ele><time>2026-03-29T07:52:33.183Z</time></trkpt><trkpt lat="45.1048813" lon="8.9195213"><ele>70.0</ele><time>2026-03-29T07:52:34.184Z</time></trkpt><trkpt lat="45.1046928" lon="8.919293"><ele>70.0</ele><time>2026-03-29T07:52:35.184Z</time></trkpt><trkpt lat="45.104503" lon="8.9190643"><ele>70.5</ele><time>2026-03-29T07:52:36.186Z</time></trkpt><trkpt lat="45.1043125" lon="8.9188363"><ele>71.0</ele><time>2026-03-29T07:52:37.185Z</time></trkpt><trkpt lat="45.1041223" lon="8.9186085"><ele>69.5</ele><time>2026-03-29T07:52:38.183Z</time></trkpt><trkpt lat="45.1039328" lon="8.9183802"><ele>68.0</ele><time>2026-03-29T07:52:39.184Z</time></trkpt><trkpt lat="45.1037433" lon="8.9181507"><ele>68.0</ele><time>2026-03-29T07:52:40.184Z</time></trkpt><trkpt lat="45.103553" lon="8.9179215"><ele>68.0</ele><time>2026-03-29T07:52:41.184Z</time></trkpt><trkpt lat="45.1033615" lon="8.9176925"><ele>69.0</ele><time>2026-03-29T07:52:42.185Z</time></trkpt><trkpt lat="45.1031712" lon="8.9174613"><ele>70.0</ele><time>2026-03-29T07:52:43.182Z</time></trkpt><trkpt lat="45.1029817" lon="8.9172293"><ele>70.0</ele><time>2026-03-29T07:52:44.183Z</time></trkpt><trkpt lat="45.1027917" lon="8.9169982"><ele>70.0</ele><time>2026-03-29T07:52:45.182Z</time></trkpt><trkpt lat="45.102601" lon="8.9167673"><ele>69.5</ele><time>2026-03-29T07:52:46.182Z</time></trkpt><trkpt lat="45.1024102" lon="8.9165367"><ele>69.0</ele><time>2026-03-29T07:52:47.184Z</time></trkpt><trkpt lat="45.1022193" lon="8.9163057"><ele>69.0</ele><time>2026-03-29T07:52:48.185Z</time></trkpt><trkpt lat="45.1020282" lon="8.9160735"><ele>69.0</ele><time>2026-03-29T07:52:49.185Z</time></trkpt><trkpt lat="45.1018365" lon="8.9158408"><ele>69.0</ele><time>2026-03-29T07:52:50.184Z</time></trkpt><trkpt lat="45.1016442" lon="8.9156088"><ele>69.0</ele><time>2026-03-29T07:52:51.185Z</time></trkpt><trkpt lat="45.1014523" lon="8.9153768"><ele>69.0</ele><time>2026-03-29T07:52:52.185Z</time></trkpt><trkpt lat="45.1012612" lon="8.9151453"><ele>69.0</ele><time>2026-03-29T07:52:53.186Z</time></trkpt><trkpt lat="45.1010702" lon="8.9149142"><ele>69.0</ele><time>2026-03-29T07:52:54.185Z</time></trkpt><trkpt lat="45.1008792" lon="8.9146833"><ele>69.0</ele><time>2026-03-29T07:52:55.185Z</time></trkpt><trkpt lat="45.1006878" lon="8.9144538"><ele>69.5</ele><time>2026-03-29T07:52:56.184Z</time></trkpt><trkpt lat="45.1004955" lon="8.9142263"><ele>70.0</ele><time>2026-03-29T07:52:57.186Z</time></trkpt><trkpt lat="45.1003043" lon="8.9139968"><ele>70.0</ele><time>2026-03-29T07:52:58.185Z</time></trkpt><trkpt lat="45.1001148" lon="8.9137655"><ele>70.0</ele><time>2026-03-29T07:52:59.184Z</time></trkpt><trkpt lat="45.099925" lon="8.9135358"><ele>69.5</ele><time>2026-03-29T07:53:00.185Z</time></trkpt><trkpt lat="45.099734" lon="8.9133088"><ele>69.0</ele><time>2026-03-29T07:53:01.185Z</time></trkpt><trkpt lat="45.099542" lon="8.9130835"><ele>69.0</ele><time>2026-03-29T07:53:02.183Z</time></trkpt><trkpt lat="45.0993513" lon="8.912856"><ele>69.0</ele><time>2026-03-29T07:53:03.183Z</time></trkpt><trkpt lat="45.0991592" lon="8.9126312"><ele>69.0</ele><time>2026-03-29T07:53:04.171Z</time></trkpt><trkpt lat="45.0989683" lon="8.912405"><ele>69.0</ele><time>2026-03-29T07:53:05.184Z</time></trkpt><trkpt lat="45.0987797" lon="8.9121762"><ele>69.0</ele><time>2026-03-29T07:53:06.185Z</time></trkpt><trkpt lat="45.098599" lon="8.9119487"><ele>69.0</ele><time>2026-03-29T07:53:07.182Z</time></trkpt><trkpt lat="45.098434" lon="8.91173"><ele>69.33333333333333</ele><time>2026-03-29T07:53:08.183Z</time></trkpt><trkpt lat="45.0982833" lon="8.911512"><ele>69.66666666666666</ele><time>2026-03-29T07:53:09.183Z</time></trkpt><trkpt lat="45.0981453" lon="8.911278"><ele>70.0</ele><time>2026-03-29T07:53:10.182Z</time></trkpt><trkpt lat="45.0980235" lon="8.9110242"><ele>70.0</ele><time>2026-03-29T07:53:11.183Z</time></trkpt><trkpt lat="45.09792" lon="8.9107542"><ele>70.0</ele><time>2026-03-29T07:53:12.185Z</time></trkpt><trkpt lat="45.0978323" lon="8.9104702"><ele>70.0</ele><time>2026-03-29T07:53:13.184Z</time></trkpt><trkpt lat="45.0977607" lon="8.9101703"><ele>70.33333333333333</ele><time>2026-03-29T07:53:14.183Z</time></trkpt><trkpt lat="45.0977107" lon="8.9098633"><ele>70.66666666666667</ele><time>2026-03-29T07:53:15.183Z</time></trkpt><trkpt lat="45.097682" lon="8.9095702"><ele>71.0</ele><time>2026-03-29T07:53:16.183Z</time></trkpt><trkpt lat="45.0976665" lon="8.9092962"><ele>71.33333333333334</ele><time>2026-03-29T07:53:17.183Z</time></trkpt><trkpt lat="45.0976563" lon="8.9090418"><ele>71.66666666666667</ele><time>2026-03-29T07:53:18.183Z</time></trkpt><trkpt lat="45.0976495" lon="8.9088108"><ele>72.0</ele><time>2026-03-29T07:53:19.185Z</time></trkpt><trkpt lat="45.0976452" lon="8.9086055"><ele>72.0</ele><time>2026-03-29T07:53:20.183Z</time></trkpt><trkpt lat="45.097646" lon="8.908427"><ele>72.0</ele><time>2026-03-29T07:53:21.184Z</time></trkpt><trkpt lat="45.0976568" lon="8.9082673"><ele>72.0</ele><time>2026-03-29T07:53:22.184Z</time></trkpt><trkpt lat="45.0976868" lon="8.9081132"><ele>72.0</ele><time>2026-03-29T07:53:23.184Z</time></trkpt><trkpt lat="45.0977265" lon="8.9079495"><ele>72.25</ele><time>2026-03-29T07:53:24.184Z</time></trkpt><trkpt lat="45.0977518" lon="8.9077715"><ele>72.5</ele><time>2026-03-29T07:53:25.183Z</time></trkpt><trkpt lat="45.0977802" lon="8.9075727"><ele>72.75</ele><time>2026-03-29T07:53:26.183Z</time></trkpt><trkpt lat="45.0978332" lon="8.9073682"><ele>73.0</ele><time>2026-03-29T07:53:27.184Z</time></trkpt><trkpt lat="45.097899" lon="8.907168"><ele>72.33333333333333</ele><time>2026-03-29T07:53:28.184Z</time></trkpt><trkpt lat="45.0979738" lon="8.9069478"><ele>71.66666666666667</ele><time>2026-03-29T07:53:29.185Z</time></trkpt><trkpt lat="45.098046" lon="8.906736"><ele>71.0</ele><time>2026-03-29T07:53:30.184Z</time></trkpt><trkpt lat="45.0981203" lon="8.906523"><ele>71.0</ele><time>2026-03-29T07:53:31.185Z</time></trkpt><trkpt lat="45.0981975" lon="8.906297"><ele>71.0</ele><time>2026-03-29T07:53:32.182Z</time></trkpt><trkpt lat="45.0982795" lon="8.9060585"><ele>71.0</ele><time>2026-03-29T07:53:33.181Z</time></trkpt><trkpt lat="45.0983692" lon="8.9058182"><ele>70.66666666666667</ele><time>2026-03-29T07:53:34.182Z</time></trkpt><trkpt lat="45.098466" lon="8.9055747"><ele>70.33333333333333</ele><time>2026-03-29T07:53:35.183Z</time></trkpt><trkpt lat="45.0985615" lon="8.905332"><ele>70.0</ele><time>2026-03-29T07:53:36.183Z</time></trkpt><trkpt lat="45.0986485" lon="8.9051017"><ele>70.0</ele><time>2026-03-29T07:53:37.187Z</time></trkpt><trkpt lat="45.0987268" lon="8.9048847"><ele>70.0</ele><time>2026-03-29T07:53:38.184Z</time></trkpt><trkpt lat="45.0987992" lon="8.9046792"><ele>70.0</ele><time>2026-03-29T07:53:39.185Z</time></trkpt><trkpt lat="45.0988707" lon="8.9044783"><ele>70.0</ele><time>2026-03-29T07:53:40.187Z</time></trkpt><trkpt lat="45.0989437" lon="8.9042822"><ele>70.0</ele><time>2026-03-29T07:53:41.186Z</time></trkpt><trkpt lat="45.0990173" lon="8.9040902"><ele>70.0</ele><time>2026-03-29T07:53:42.185Z</time></trkpt><trkpt lat="45.09909" lon="8.9039015"><ele>69.66666666666666</ele><time>2026-03-29T07:53:43.185Z</time></trkpt><trkpt lat="45.0991632" lon="8.9037142"><ele>69.33333333333333</ele><time>2026-03-29T07:53:44.184Z</time></trkpt><trkpt lat="45.0992362" lon="8.9035263"><ele>69.0</ele><time>2026-03-29T07:53:45.185Z</time></trkpt><trkpt lat="45.0993092" lon="8.9033348"><ele>68.66666666666667</ele><time>2026-03-29T07:53:46.186Z</time></trkpt><trkpt lat="45.0993835" lon="8.9031423"><ele>68.33333333333334</ele><time>2026-03-29T07:53:47.185Z</time></trkpt><trkpt lat="45.0994615" lon="8.9029563"><ele>68.0</ele><time>2026-03-29T07:53:48.184Z</time></trkpt><trkpt lat="45.0995478" lon="8.902779"><ele>68.0</ele><time>2026-03-29T07:53:49.185Z</time></trkpt><trkpt lat="45.0996405" lon="8.9026093"><ele>68.0</ele><time>2026-03-29T07:53:50.185Z</time></trkpt><trkpt lat="45.0997393" lon="8.9024462"><ele>68.0</ele><time>2026-03-29T07:53:51.186Z</time></trkpt><trkpt lat="45.0998472" lon="8.9022913"><ele>69.33333333333334</ele><time>2026-03-29T07:53:52.188Z</time></trkpt><trkpt lat="45.099964" lon="8.9021445"><ele>70.66666666666667</ele><time>2026-03-29T07:53:53.186Z</time></trkpt><trkpt lat="45.1000888" lon="8.9020082"><ele>72.0</ele><time>2026-03-29T07:53:54.185Z</time></trkpt><trkpt lat="45.1002173" lon="8.9018835"><ele>72.0</ele><time>2026-03-29T07:53:55.184Z</time></trkpt><trkpt lat="45.100346" lon="8.9017688"><ele>72.0</ele><time>2026-03-29T07:53:56.182Z</time></trkpt><trkpt lat="45.1004748" lon="8.9016597"><ele>72.0</ele><time>2026-03-29T07:53:57.182Z</time></trkpt><trkpt lat="45.1006053" lon="8.9015528"><ele>72.33333333333333</ele><time>2026-03-29T07:53:58.181Z</time></trkpt><trkpt lat="45.1007355" lon="8.9014473"><ele>72.66666666666666</ele><time>2026-03-29T07:53:59.182Z</time></trkpt><trkpt lat="45.1008657" lon="8.9013415"><ele>73.0</ele><time>2026-03-29T07:54:00.181Z</time></trkpt><trkpt lat="45.1009963" lon="8.9012343"><ele>74.33333333333333</ele><time>2026-03-29T07:54:01.183Z</time></trkpt><trkpt lat="45.1011272" lon="8.9011253"><ele>75.66666666666667</ele><time>2026-03-29T07:54:02.183Z</time></trkpt><trkpt lat="45.1012577" lon="8.9010172"><ele>77.0</ele><time>2026-03-29T07:54:03.185Z</time></trkpt><trkpt lat="45.1013867" lon="8.9009122"><ele>77.5</ele><time>2026-03-29T07:54:04.183Z</time></trkpt><trkpt lat="45.1015115" lon="8.9008097"><ele>78.0</ele><time>2026-03-29T07:54:05.184Z</time></trkpt><trkpt lat="45.1016342" lon="8.9007097"><ele>78.5</ele><time>2026-03-29T07:54:06.183Z</time></trkpt><trkpt lat="45.1017567" lon="8.9006093"><ele>79.0</ele><time>2026-03-29T07:54:07.183Z</time></trkpt><trkpt lat="45.1018788" lon="8.9005082"><ele>80.25</ele><time>2026-03-29T07:54:08.183Z</time></trkpt><trkpt lat="45.1020022" lon="8.9004097"><ele>81.5</ele><time>2026-03-29T07:54:09.184Z</time></trkpt><trkpt lat="45.1021183" lon="8.9003143"><ele>82.75</ele><time>2026-03-29T07:54:10.187Z</time></trkpt><trkpt lat="45.102227" lon="8.900227"><ele>84.0</ele><time>2026-03-29T07:54:11.184Z</time></trkpt><trkpt lat="45.1023318" lon="8.9001435"><ele>83.75</ele><time>2026-03-29T07:54:12.184Z</time></trkpt><trkpt lat="45.1024372" lon="8.90006"><ele>83.5</ele><time>2026-03-29T07:54:13.185Z</time></trkpt><trkpt lat="45.1025443" lon="8.8999732"><ele>83.25</ele><time>2026-03-29T07:54:14.186Z</time></trkpt><trkpt lat="45.1026523" lon="8.8998845"><ele>83.0</ele><time>2026-03-29T07:54:15.184Z</time></trkpt><trkpt lat="45.1027597" lon="8.8997958"><ele>83.0</ele><time>2026-03-29T07:54:16.184Z</time></trkpt><trkpt lat="45.1028668" lon="8.8997075"><ele>83.0</ele><time>2026-03-29T07:54:17.183Z</time></trkpt><trkpt lat="45.1029755" lon="8.8996177"><ele>83.0</ele><time>2026-03-29T07:54:18.184Z</time></trkpt><trkpt lat="45.103088" lon="8.8995247"><ele>83.0</ele><time>2026-03-29T07:54:19.185Z</time></trkpt><trkpt lat="45.1032025" lon="8.8994297"><ele>83.5</ele><time>2026-03-29T07:54:20.183Z</time></trkpt><trkpt lat="45.1033118" lon="8.8993348"><ele>84.0</ele><time>2026-03-29T07:54:21.18Z</time></trkpt><trkpt lat="45.103411" lon="8.899254"><ele>84.5</ele><time>2026-03-29T07:54:22.181Z</time></trkpt><trkpt lat="45.1035042" lon="8.8991722"><ele>85.0</ele><time>2026-03-29T07:54:23.182Z</time></trkpt><trkpt lat="45.1036113" lon="8.8990818"><ele>85.0</ele><time>2026-03-29T07:54:24.182Z</time></trkpt><trkpt lat="45.1037433" lon="8.8989798"><ele>85.0</ele><time>2026-03-29T07:54:25.185Z</time></trkpt><trkpt lat="45.1038978" lon="8.8988613"><ele>85.0</ele><time>2026-03-29T07:54:26.184Z</time></trkpt><trkpt lat="45.1040565" lon="8.8987325"><ele>85.0</ele><time>2026-03-29T07:54:27.184Z</time></trkpt><trkpt lat="45.1042258" lon="8.898591"><ele>85.0</ele><time>2026-03-29T07:54:28.183Z</time></trkpt><trkpt lat="45.1044053" lon="8.8984428"><ele>85.0</ele><time>2026-03-29T07:54:29.186Z</time></trkpt><trkpt lat="45.1045895" lon="8.898287"><ele>85.33333333333333</ele><time>2026-03-29T07:54:30.182Z</time></trkpt><trkpt lat="45.1047585" lon="8.8981442"><ele>85.66666666666667</ele><time>2026-03-29T07:54:31.185Z</time></trkpt><trkpt lat="45.1049102" lon="8.8980178"><ele>86.0</ele><time>2026-03-29T07:54:32.184Z</time></trkpt><trkpt lat="45.1050432" lon="8.8979135"><ele>86.0</ele><time>2026-03-29T07:54:33.184Z</time></trkpt><trkpt lat="45.1051565" lon="8.897838"><ele>86.0</ele><time>2026-03-29T07:54:34.186Z</time></trkpt><trkpt lat="45.1052493" lon="8.897789"><ele>86.0</ele><time>2026-03-29T07:54:35.186Z</time></trkpt><trkpt lat="45.1053338" lon="8.897761"><ele>86.0</ele><time>2026-03-29T07:54:36.186Z</time></trkpt><trkpt lat="45.1054203" lon="8.8977452"><ele>86.0</ele><time>2026-03-29T07:54:37.188Z</time></trkpt><trkpt lat="45.1055017" lon="8.8977227"><ele>86.0</ele><time>2026-03-29T07:54:38.185Z</time></trkpt><trkpt lat="45.105568" lon="8.8976767"><ele>86.0</ele><time>2026-03-29T07:54:39.184Z</time></trkpt><trkpt lat="45.1056112" lon="8.8976015"><ele>86.0</ele><time>2026-03-29T07:54:40.185Z</time></trkpt><trkpt lat="45.1056278" lon="8.8974928"><ele>86.0</ele><time>2026-03-29T07:54:41.185Z</time></trkpt><trkpt lat="45.105625" lon="8.8973458"><ele>86.0</ele><time>2026-03-29T07:54:42.185Z</time></trkpt><trkpt lat="45.1056177" lon="8.8971623"><ele>85.33333333333334</ele><time>2026-03-29T07:54:43.184Z</time></trkpt><trkpt lat="45.1056233" lon="8.896947"><ele>84.66666666666667</ele><time>2026-03-29T07:54:44.186Z</time></trkpt><trkpt lat="45.1056543" lon="8.8967157"><ele>84.0</ele><time>2026-03-29T07:54:45.185Z</time></trkpt><trkpt lat="45.1057157" lon="8.8964543"><ele>84.0</ele><time>2026-03-29T07:54:46.182Z</time></trkpt><trkpt lat="45.1057933" lon="8.8961803"><ele>84.0</ele><time>2026-03-29T07:54:47.185Z</time></trkpt><trkpt lat="45.105879" lon="8.8958867"><ele>84.0</ele><time>2026-03-29T07:54:48.183Z</time></trkpt><trkpt lat="45.1059683" lon="8.8955778"><ele>84.5</ele><time>2026-03-29T07:54:49.184Z</time></trkpt><trkpt lat="45.1060593" lon="8.895268"><ele>85.0</ele><time>2026-03-29T07:54:50.186Z</time></trkpt><trkpt lat="45.106153" lon="8.894957"><ele>86.0</ele><time>2026-03-29T07:54:51.186Z</time></trkpt><trkpt lat="45.1062463" lon="8.8946448"><ele>87.0</ele><time>2026-03-29T07:54:52.187Z</time></trkpt><trkpt lat="45.1063385" lon="8.894331"><ele>88.0</ele><time>2026-03-29T07:54:53.186Z</time></trkpt><trkpt lat="45.1064312" lon="8.894016"><ele>89.0</ele><time>2026-03-29T07:54:54.189Z</time></trkpt><trkpt lat="45.1065242" lon="8.8936997"><ele>88.5</ele><time>2026-03-29T07:54:55.186Z</time></trkpt><trkpt lat="45.1066173" lon="8.8933822"><ele>88.0</ele><time>2026-03-29T07:54:56.185Z</time></trkpt><trkpt lat="45.1067107" lon="8.8930645"><ele>88.0</ele><time>2026-03-29T07:54:57.186Z</time></trkpt><trkpt lat="45.1068032" lon="8.892747"><ele>88.0</ele><time>2026-03-29T07:54:58.188Z</time></trkpt><trkpt lat="45.1068948" lon="8.8924318"><ele>88.0</ele><time>2026-03-29T07:54:59.186Z</time></trkpt><trkpt lat="45.1069857" lon="8.8921203"><ele>88.0</ele><time>2026-03-29T07:55:00.187Z</time></trkpt><trkpt lat="45.1070755" lon="8.891813"><ele>88.5</ele><time>2026-03-29T07:55:01.185Z</time></trkpt><trkpt lat="45.1071642" lon="8.8915072"><ele>89.0</ele><time>2026-03-29T07:55:02.184Z</time></trkpt><trkpt lat="45.1072535" lon="8.8911992"><ele>88.5</ele><time>2026-03-29T07:55:03.186Z</time></trkpt><trkpt lat="45.1073442" lon="8.8908877"><ele>88.0</ele><time>2026-03-29T07:55:04.186Z</time></trkpt><trkpt lat="45.1074367" lon="8.8905725"><ele>88.0</ele><time>2026-03-29T07:55:05.186Z</time></trkpt><trkpt lat="45.1075303" lon="8.8902537"><ele>88.0</ele><time>2026-03-29T07:55:06.187Z</time></trkpt><trkpt lat="45.1076257" lon="8.8899308"><ele>88.0</ele><time>2026-03-29T07:55:07.186Z</time></trkpt><trkpt lat="45.1077223" lon="8.8896055"><ele>88.0</ele><time>2026-03-29T07:55:08.186Z</time></trkpt><trkpt lat="45.107819" lon="8.8892788"><ele>88.0</ele><time>2026-03-29T07:55:09.185Z</time></trkpt><trkpt lat="45.107916" lon="8.8889505"><ele>88.0</ele><time>2026-03-29T07:55:10.185Z</time></trkpt><trkpt lat="45.1080127" lon="8.888621"><ele>87.0</ele><time>2026-03-29T07:55:11.185Z</time></trkpt><trkpt lat="45.1081097" lon="8.8882918"><ele>86.0</ele><time>2026-03-29T07:55:12.184Z</time></trkpt><trkpt lat="45.1082067" lon="8.8879632"><ele>85.5</ele><time>2026-03-29T07:55:13.185Z</time></trkpt><trkpt lat="45.1083038" lon="8.8876357"><ele>85.0</ele><time>2026-03-29T07:55:14.185Z</time></trkpt><trkpt lat="45.1084005" lon="8.887309"><ele>85.0</ele><time>2026-03-29T07:55:15.188Z</time></trkpt><trkpt lat="45.108496" lon="8.8869822"><ele>85.0</ele><time>2026-03-29T07:55:16.186Z</time></trkpt><trkpt lat="45.1085903" lon="8.8866553"><ele>85.0</ele><time>2026-03-29T07:55:17.185Z</time></trkpt><trkpt lat="45.1086847" lon="8.8863282"><ele>85.0</ele><time>2026-03-29T07:55:18.188Z</time></trkpt><trkpt lat="45.1087798" lon="8.8860018"><ele>86.0</ele><time>2026-03-29T07:55:19.186Z</time></trkpt><trkpt lat="45.1088748" lon="8.885676"><ele>87.0</ele><time>2026-03-29T07:55:20.186Z</time></trkpt><trkpt lat="45.1089712" lon="8.8853507"><ele>87.0</ele><time>2026-03-29T07:55:21.185Z</time></trkpt><trkpt lat="45.1090672" lon="8.8850255"><ele>87.0</ele><time>2026-03-29T07:55:22.186Z</time></trkpt><trkpt lat="45.1091622" lon="8.8847005"><ele>88.0</ele><time>2026-03-29T07:55:23.186Z</time></trkpt><trkpt lat="45.1092582" lon="8.884377"><ele>89.0</ele><time>2026-03-29T07:55:24.186Z</time></trkpt><trkpt lat="45.1093537" lon="8.8840547"><ele>89.0</ele><time>2026-03-29T07:55:25.188Z</time></trkpt><trkpt lat="45.1094485" lon="8.8837327"><ele>89.0</ele><time>2026-03-29T07:55:26.186Z</time></trkpt><trkpt lat="45.109544" lon="8.8834108"><ele>89.0</ele><time>2026-03-29T07:55:27.188Z</time></trkpt><trkpt lat="45.1096383" lon="8.8830887"><ele>89.0</ele><time>2026-03-29T07:55:28.187Z</time></trkpt><trkpt lat="45.109732" lon="8.8827655"><ele>89.0</ele><time>2026-03-29T07:55:29.185Z</time></trkpt><trkpt lat="45.1098255" lon="8.8824418"><ele>89.0</ele><time>2026-03-29T07:55:30.185Z</time></trkpt><trkpt lat="45.1099198" lon="8.8821177"><ele>89.5</ele><time>2026-03-29T07:55:31.187Z</time></trkpt><trkpt lat="45.1100153" lon="8.8817933"><ele>90.0</ele><time>2026-03-29T07:55:32.186Z</time></trkpt><trkpt lat="45.1101115" lon="8.8814678"><ele>90.5</ele><time>2026-03-29T07:55:33.188Z</time></trkpt><trkpt lat="45.1102083" lon="8.8811412"><ele>91.0</ele><time>2026-03-29T07:55:34.186Z</time></trkpt><trkpt lat="45.1103057" lon="8.8808133"><ele>91.0</ele><time>2026-03-29T07:55:35.184Z</time></trkpt><trkpt lat="45.1104025" lon="8.880484"><ele>91.0</ele><time>2026-03-29T07:55:36.185Z</time></trkpt><trkpt lat="45.1104982" lon="8.8801535"><ele>90.5</ele><time>2026-03-29T07:55:37.184Z</time></trkpt><trkpt lat="45.1105943" lon="8.8798215"><ele>90.0</ele><time>2026-03-29T07:55:38.185Z</time></trkpt><trkpt lat="45.110691" lon="8.8794887"><ele>89.5</ele><time>2026-03-29T07:55:39.187Z</time></trkpt><trkpt lat="45.1107885" lon="8.879155"><ele>89.0</ele><time>2026-03-29T07:55:40.186Z</time></trkpt><trkpt lat="45.1108872" lon="8.8788207"><ele>89.0</ele><time>2026-03-29T07:55:41.185Z</time></trkpt><trkpt lat="45.1109858" lon="8.8784852"><ele>89.0</ele><time>2026-03-29T07:55:42.187Z</time></trkpt><trkpt lat="45.111084" lon="8.8781473"><ele>88.5</ele><time>2026-03-29T07:55:43.188Z</time></trkpt><trkpt lat="45.1111833" lon="8.8778078"><ele>88.0</ele><time>2026-03-29T07:55:44.188Z</time></trkpt><trkpt lat="45.1112832" lon="8.8774687"><ele>87.5</ele><time>2026-03-29T07:55:45.187Z</time></trkpt><trkpt lat="45.111383" lon="8.877129"><ele>87.0</ele><time>2026-03-29T07:55:46.191Z</time></trkpt><trkpt lat="45.111483" lon="8.8767888"><ele>87.5</ele><time>2026-03-29T07:55:47.186Z</time></trkpt><trkpt lat="45.1115828" lon="8.8764482"><ele>88.0</ele><time>2026-03-29T07:55:48.186Z</time></trkpt><trkpt lat="45.111682" lon="8.8761077"><ele>87.5</ele><time>2026-03-29T07:55:49.189Z</time></trkpt><trkpt lat="45.111781" lon="8.8757682"><ele>87.0</ele><time>2026-03-29T07:55:50.185Z</time></trkpt><trkpt lat="45.1118803" lon="8.8754312"><ele>86.5</ele><time>2026-03-29T07:55:51.187Z</time></trkpt><trkpt lat="45.1119795" lon="8.8750965"><ele>86.0</ele><time>2026-03-29T07:55:52.188Z</time></trkpt><trkpt lat="45.1120778" lon="8.874764"><ele>86.0</ele><time>2026-03-29T07:55:53.188Z</time></trkpt><trkpt lat="45.1121757" lon="8.8744335"><ele>86.0</ele><time>2026-03-29T07:55:54.186Z</time></trkpt><trkpt lat="45.1122728" lon="8.874104"><ele>86.5</ele><time>2026-03-29T07:55:55.187Z</time></trkpt><trkpt lat="45.1123685" lon="8.873776"><ele>87.0</ele><time>2026-03-29T07:55:56.185Z</time></trkpt><trkpt lat="45.112463" lon="8.8734503"><ele>87.5</ele><time>2026-03-29T07:55:57.186Z</time></trkpt><trkpt lat="45.1125572" lon="8.8731273"><ele>88.0</ele><time>2026-03-29T07:55:58.186Z</time></trkpt><trkpt lat="45.1126508" lon="8.8728068"><ele>88.5</ele><time>2026-03-29T07:55:59.184Z</time></trkpt><trkpt lat="45.1127442" lon="8.8724897"><ele>89.0</ele><time>2026-03-29T07:56:00.183Z</time></trkpt><trkpt lat="45.1128363" lon="8.8721753"><ele>89.0</ele><time>2026-03-29T07:56:01.184Z</time></trkpt><trkpt lat="45.1129267" lon="8.8718637"><ele>89.0</ele><time>2026-03-29T07:56:02.183Z</time></trkpt><trkpt lat="45.1130162" lon="8.8715543"><ele>89.0</ele><time>2026-03-29T07:56:03.187Z</time></trkpt><trkpt lat="45.1131037" lon="8.8712527"><ele>89.0</ele><time>2026-03-29T07:56:04.188Z</time></trkpt><trkpt lat="45.1131855" lon="8.8709692"><ele>89.0</ele><time>2026-03-29T07:56:05.186Z</time></trkpt><trkpt lat="45.1132625" lon="8.8707035"><ele>88.66666666666667</ele><time>2026-03-29T07:56:06.186Z</time></trkpt><trkpt lat="45.1133362" lon="8.8704503"><ele>88.33333333333333</ele><time>2026-03-29T07:56:07.186Z</time></trkpt><trkpt lat="45.1134083" lon="8.870203"><ele>88.0</ele><time>2026-03-29T07:56:08.188Z</time></trkpt><trkpt lat="45.1134793" lon="8.8699603"><ele>88.0</ele><time>2026-03-29T07:56:09.187Z</time></trkpt><trkpt lat="45.1135472" lon="8.869729"><ele>88.0</ele><time>2026-03-29T07:56:10.187Z</time></trkpt><trkpt lat="45.1136113" lon="8.8695098"><ele>88.0</ele><time>2026-03-29T07:56:11.186Z</time></trkpt><trkpt lat="45.113671" lon="8.8693055"><ele>88.25</ele><time>2026-03-29T07:56:12.187Z</time></trkpt><trkpt lat="45.113726" lon="8.8691158"><ele>88.5</ele><time>2026-03-29T07:56:13.187Z</time></trkpt><trkpt lat="45.1137763" lon="8.8689397"><ele>88.75</ele><time>2026-03-29T07:56:14.186Z</time></trkpt><trkpt lat="45.113821" lon="8.8687818"><ele>89.0</ele><time>2026-03-29T07:56:15.186Z</time></trkpt><trkpt lat="45.1138603" lon="8.8686447"><ele>89.0</ele><time>2026-03-29T07:56:16.187Z</time></trkpt><trkpt lat="45.1138937" lon="8.8685305"><ele>89.0</ele><time>2026-03-29T07:56:17.185Z</time></trkpt><trkpt lat="45.1139213" lon="8.868437"><ele>89.0</ele><time>2026-03-29T07:56:18.185Z</time></trkpt><trkpt lat="45.1139622" lon="8.868295"><ele>89.0</ele><time>2026-03-29T07:56:20.183Z</time></trkpt><trkpt lat="45.1139892" lon="8.868206"><ele>89.0</ele><time>2026-03-29T07:56:23.184Z</time></trkpt><trkpt lat="45.1140217" lon="8.8680853"><ele>89.0</ele><time>2026-03-29T07:56:48.18Z</time></trkpt><trkpt lat="45.1140578" lon="8.8679842"><ele>89.0</ele><time>2026-03-29T07:56:50.181Z</time></trkpt><trkpt lat="45.1140922" lon="8.8678765"><ele>89.0</ele><time>2026-03-29T07:56:52.183Z</time></trkpt><trkpt lat="45.1141278" lon="8.8677327"><ele>89.0</ele><time>2026-03-29T07:56:54.184Z</time></trkpt><trkpt lat="45.1141548" lon="8.8676153"><ele>89.0</ele><time>2026-03-29T07:56:56.184Z</time></trkpt><trkpt lat="45.1141868" lon="8.8674643"><ele>89.0</ele><time>2026-03-29T07:56:58.184Z</time></trkpt><trkpt lat="45.1142038" lon="8.8673635"><ele>89.0</ele><time>2026-03-29T07:56:59.182Z</time></trkpt><trkpt lat="45.114219" lon="8.8672533"><ele>89.0</ele><time>2026-03-29T07:57:00.183Z</time></trkpt><trkpt lat="45.1142312" lon="8.8671405"><ele>89.0</ele><time>2026-03-29T07:57:01.182Z</time></trkpt><trkpt lat="45.1142443" lon="8.867022"><ele>89.0</ele><time>2026-03-29T07:57:02.182Z</time></trkpt><trkpt lat="45.1142557" lon="8.8669142"><ele>89.0</ele><time>2026-03-29T07:57:03.184Z</time></trkpt><trkpt lat="45.1142642" lon="8.8668162"><ele>89.0</ele><time>2026-03-29T07:57:04.183Z</time></trkpt><trkpt lat="45.1142755" lon="8.8667245"><ele>89.4</ele><time>2026-03-29T07:57:05.182Z</time></trkpt><trkpt lat="45.1142947" lon="8.8665552"><ele>89.80000000000001</ele><time>2026-03-29T07:57:07.183Z</time></trkpt><trkpt lat="45.1143048" lon="8.866461"><ele>90.19999999999999</ele><time>2026-03-29T07:57:08.183Z</time></trkpt><trkpt lat="45.114321" lon="8.8663417"><ele>90.6</ele><time>2026-03-29T07:57:09.184Z</time></trkpt><trkpt lat="45.1143413" lon="8.8662003"><ele>91.0</ele><time>2026-03-29T07:57:10.186Z</time></trkpt><trkpt lat="45.114362" lon="8.8660397"><ele>91.5</ele><time>2026-03-29T07:57:11.184Z</time></trkpt><trkpt lat="45.1143822" lon="8.8658657"><ele>92.0</ele><time>2026-03-29T07:57:12.184Z</time></trkpt><trkpt lat="45.1144042" lon="8.8656833"><ele>92.5</ele><time>2026-03-29T07:57:13.182Z</time></trkpt><trkpt lat="45.1144302" lon="8.865507"><ele>93.0</ele><time>2026-03-29T07:57:14.182Z</time></trkpt><trkpt lat="45.1144638" lon="8.8653265"><ele>93.0</ele><time>2026-03-29T07:57:15.181Z</time></trkpt><trkpt lat="45.1145038" lon="8.8651592"><ele>93.0</ele><time>2026-03-29T07:57:16.182Z</time></trkpt><trkpt lat="45.1145465" lon="8.8649967"><ele>93.0</ele><time>2026-03-29T07:57:17.182Z</time></trkpt><trkpt lat="45.1145925" lon="8.8648287"><ele>93.0</ele><time>2026-03-29T07:57:18.182Z</time></trkpt><trkpt lat="45.1146403" lon="8.8646645"><ele>93.0</ele><time>2026-03-29T07:57:19.181Z</time></trkpt><trkpt lat="45.114688" lon="8.8645052"><ele>93.0</ele><time>2026-03-29T07:57:20.185Z</time></trkpt><trkpt lat="45.114737" lon="8.8643403"><ele>93.0</ele><time>2026-03-29T07:57:21.181Z</time></trkpt><trkpt lat="45.1147853" lon="8.8641728"><ele>93.0</ele><time>2026-03-29T07:57:22.182Z</time></trkpt><trkpt lat="45.1148312" lon="8.8640088"><ele>92.75</ele><time>2026-03-29T07:57:23.181Z</time></trkpt><trkpt lat="45.1148737" lon="8.8638482"><ele>92.5</ele><time>2026-03-29T07:57:24.181Z</time></trkpt><trkpt lat="45.1149153" lon="8.8636915"><ele>92.25</ele><time>2026-03-29T07:57:25.182Z</time></trkpt><trkpt lat="45.1149548" lon="8.8635352"><ele>92.0</ele><time>2026-03-29T07:57:26.18Z</time></trkpt><trkpt lat="45.1149927" lon="8.863375"><ele>92.0</ele><time>2026-03-29T07:57:27.181Z</time></trkpt><trkpt lat="45.1150233" lon="8.8632063"><ele>92.0</ele><time>2026-03-29T07:57:28.181Z</time></trkpt><trkpt lat="45.1150408" lon="8.8630207"><ele>92.0</ele><time>2026-03-29T07:57:29.18Z</time></trkpt><trkpt lat="45.1150487" lon="8.8628235"><ele>92.0</ele><time>2026-03-29T07:57:30.181Z</time></trkpt><trkpt lat="45.1150507" lon="8.862619"><ele>91.75</ele><time>2026-03-29T07:57:31.181Z</time></trkpt><trkpt lat="45.1150525" lon="8.8624138"><ele>91.5</ele><time>2026-03-29T07:57:32.18Z</time></trkpt><trkpt lat="45.1150528" lon="8.8622093"><ele>91.25</ele><time>2026-03-29T07:57:33.181Z</time></trkpt><trkpt lat="45.1150533" lon="8.8620067"><ele>91.0</ele><time>2026-03-29T07:57:34.181Z</time></trkpt><trkpt lat="45.1150538" lon="8.8618048"><ele>90.5</ele><time>2026-03-29T07:57:35.183Z</time></trkpt><trkpt lat="45.115054" lon="8.8616048"><ele>90.0</ele><time>2026-03-29T07:57:36.182Z</time></trkpt><trkpt lat="45.1150553" lon="8.8614085"><ele>89.5</ele><time>2026-03-29T07:57:37.181Z</time></trkpt><trkpt lat="45.1150618" lon="8.8612138"><ele>89.0</ele><time>2026-03-29T07:57:38.18Z</time></trkpt><trkpt lat="45.1150815" lon="8.861017"><ele>89.0</ele><time>2026-03-29T07:57:39.18Z</time></trkpt><trkpt lat="45.1151178" lon="8.8608192"><ele>89.0</ele><time>2026-03-29T07:57:40.181Z</time></trkpt><trkpt lat="45.1151707" lon="8.8606145"><ele>89.0</ele><time>2026-03-29T07:57:41.185Z</time></trkpt><trkpt lat="45.1152372" lon="8.8603957"><ele>89.0</ele><time>2026-03-29T07:57:42.182Z</time></trkpt><trkpt lat="45.1153075" lon="8.8601695"><ele>89.0</ele><time>2026-03-29T07:57:43.184Z</time></trkpt><trkpt lat="45.1153753" lon="8.85995"><ele>89.0</ele><time>2026-03-29T07:57:44.183Z</time></trkpt><trkpt lat="45.1154468" lon="8.8597182"><ele>89.0</ele><time>2026-03-29T07:57:45.184Z</time></trkpt><trkpt lat="45.1155222" lon="8.8594713"><ele>89.0</ele><time>2026-03-29T07:57:46.183Z</time></trkpt><trkpt lat="45.1156025" lon="8.859211"><ele>89.0</ele><time>2026-03-29T07:57:47.185Z</time></trkpt><trkpt lat="45.1156867" lon="8.8589375"><ele>88.66666666666667</ele><time>2026-03-29T07:57:48.186Z</time></trkpt><trkpt lat="45.1157743" lon="8.8586558"><ele>88.33333333333333</ele><time>2026-03-29T07:57:49.184Z</time></trkpt><trkpt lat="45.1158608" lon="8.8583825"><ele>88.0</ele><time>2026-03-29T07:57:50.184Z</time></trkpt><trkpt lat="45.1159465" lon="8.8581073"><ele>88.0</ele><time>2026-03-29T07:57:51.184Z</time></trkpt><trkpt lat="45.1160315" lon="8.8578275"><ele>88.0</ele><time>2026-03-29T07:57:52.184Z</time></trkpt><trkpt lat="45.1161185" lon="8.857539"><ele>88.0</ele><time>2026-03-29T07:57:53.183Z</time></trkpt><trkpt lat="45.1162067" lon="8.857244"><ele>88.0</ele><time>2026-03-29T07:57:54.185Z</time></trkpt><trkpt lat="45.1162963" lon="8.8569453"><ele>88.0</ele><time>2026-03-29T07:57:55.185Z</time></trkpt><trkpt lat="45.1163887" lon="8.8566402"><ele>88.5</ele><time>2026-03-29T07:57:56.184Z</time></trkpt><trkpt lat="45.1164838" lon="8.8563287"><ele>89.0</ele><time>2026-03-29T07:57:57.185Z</time></trkpt><trkpt lat="45.11658" lon="8.8560118"><ele>88.5</ele><time>2026-03-29T07:57:58.184Z</time></trkpt><trkpt lat="45.1166763" lon="8.8556907"><ele>88.0</ele><time>2026-03-29T07:57:59.184Z</time></trkpt><trkpt lat="45.116774" lon="8.8553687"><ele>88.0</ele><time>2026-03-29T07:58:00.184Z</time></trkpt><trkpt lat="45.1168733" lon="8.855046"><ele>88.0</ele><time>2026-03-29T07:58:01.183Z</time></trkpt><trkpt lat="45.1169732" lon="8.8547237"><ele>88.0</ele><time>2026-03-29T07:58:02.181Z</time></trkpt><trkpt lat="45.1170728" lon="8.8544008"><ele>88.0</ele><time>2026-03-29T07:58:03.182Z</time></trkpt><trkpt lat="45.1171715" lon="8.8540772"><ele>87.5</ele><time>2026-03-29T07:58:04.183Z</time></trkpt><trkpt lat="45.1172688" lon="8.8537532"><ele>87.0</ele><time>2026-03-29T07:58:05.185Z</time></trkpt><trkpt lat="45.1173663" lon="8.8534307"><ele>88.0</ele><time>2026-03-29T07:58:06.184Z</time></trkpt><trkpt lat="45.1174653" lon="8.8531087"><ele>89.0</ele><time>2026-03-29T07:58:07.184Z</time></trkpt><trkpt lat="45.1175655" lon="8.852784"><ele>88.5</ele><time>2026-03-29T07:58:08.186Z</time></trkpt><trkpt lat="45.1176668" lon="8.8524563"><ele>88.0</ele><time>2026-03-29T07:58:09.183Z</time></trkpt><trkpt lat="45.117768" lon="8.8521275"><ele>88.0</ele><time>2026-03-29T07:58:10.184Z</time></trkpt><trkpt lat="45.1178682" lon="8.851798"><ele>88.0</ele><time>2026-03-29T07:58:11.184Z</time></trkpt><trkpt lat="45.1179685" lon="8.8514683"><ele>88.0</ele><time>2026-03-29T07:58:12.182Z</time></trkpt><trkpt lat="45.1180697" lon="8.8511355"><ele>88.0</ele><time>2026-03-29T07:58:13.183Z</time></trkpt><trkpt lat="45.1181723" lon="8.8507982"><ele>88.5</ele><time>2026-03-29T07:58:14.184Z</time></trkpt><trkpt lat="45.1182767" lon="8.8504575"><ele>89.0</ele><time>2026-03-29T07:58:15.187Z</time></trkpt><trkpt lat="45.1183822" lon="8.8501143"><ele>89.0</ele><time>2026-03-29T07:58:16.184Z</time></trkpt><trkpt lat="45.1184882" lon="8.8497675"><ele>89.0</ele><time>2026-03-29T07:58:17.185Z</time></trkpt><trkpt lat="45.1185947" lon="8.8494177"><ele>89.0</ele><time>2026-03-29T07:58:18.186Z</time></trkpt><trkpt lat="45.118702" lon="8.8490673"><ele>89.0</ele><time>2026-03-29T07:58:19.184Z</time></trkpt><trkpt lat="45.1188082" lon="8.8487187"><ele>89.0</ele><time>2026-03-29T07:58:20.183Z</time></trkpt><trkpt lat="45.1189135" lon="8.8483718"><ele>89.0</ele><time>2026-03-29T07:58:21.184Z</time></trkpt><trkpt lat="45.1190188" lon="8.8480262"><ele>90.0</ele><time>2026-03-29T07:58:22.185Z</time></trkpt><trkpt lat="45.1191235" lon="8.847682"><ele>91.0</ele><time>2026-03-29T07:58:23.183Z</time></trkpt><trkpt lat="45.1192277" lon="8.8473388"><ele>91.0</ele><time>2026-03-29T07:58:24.183Z</time></trkpt><trkpt lat="45.1193317" lon="8.846997"><ele>91.0</ele><time>2026-03-29T07:58:25.184Z</time></trkpt><trkpt lat="45.1194357" lon="8.8466562"><ele>91.5</ele><time>2026-03-29T07:58:26.181Z</time></trkpt><trkpt lat="45.11954" lon="8.8463158"><ele>92.0</ele><time>2026-03-29T07:58:27.181Z</time></trkpt><trkpt lat="45.1196438" lon="8.8459758"><ele>91.0</ele><time>2026-03-29T07:58:28.182Z</time></trkpt><trkpt lat="45.1197457" lon="8.8456353"><ele>90.0</ele><time>2026-03-29T07:58:29.182Z</time></trkpt><trkpt lat="45.1198472" lon="8.8452952"><ele>90.5</ele><time>2026-03-29T07:58:30.185Z</time></trkpt><trkpt lat="45.1199482" lon="8.8449562"><ele>91.0</ele><time>2026-03-29T07:58:31.186Z</time></trkpt><trkpt lat="45.1200498" lon="8.8446188"><ele>91.0</ele><time>2026-03-29T07:58:32.184Z</time></trkpt><trkpt lat="45.120152" lon="8.8442812"><ele>91.0</ele><time>2026-03-29T07:58:33.184Z</time></trkpt><trkpt lat="45.1202558" lon="8.8439418"><ele>91.0</ele><time>2026-03-29T07:58:34.184Z</time></trkpt><trkpt lat="45.120361" lon="8.843601"><ele>91.0</ele><time>2026-03-29T07:58:35.186Z</time></trkpt><trkpt lat="45.1204657" lon="8.8432575"><ele>90.5</ele><time>2026-03-29T07:58:36.183Z</time></trkpt><trkpt lat="45.1205697" lon="8.8429123"><ele>90.0</ele><time>2026-03-29T07:58:37.184Z</time></trkpt><trkpt lat="45.1206745" lon="8.8425668"><ele>91.0</ele><time>2026-03-29T07:58:38.184Z</time></trkpt><trkpt lat="45.1207793" lon="8.8422203"><ele>92.0</ele><time>2026-03-29T07:58:39.185Z</time></trkpt><trkpt lat="45.120885" lon="8.8418733"><ele>92.5</ele><time>2026-03-29T07:58:40.185Z</time></trkpt><trkpt lat="45.1209913" lon="8.841526"><ele>93.0</ele><time>2026-03-29T07:58:41.185Z</time></trkpt><trkpt lat="45.1210967" lon="8.8411772"><ele>93.0</ele><time>2026-03-29T07:58:42.183Z</time></trkpt><trkpt lat="45.1212022" lon="8.8408275"><ele>93.0</ele><time>2026-03-29T07:58:43.185Z</time></trkpt><trkpt lat="45.1213085" lon="8.8404775"><ele>92.0</ele><time>2026-03-29T07:58:44.183Z</time></trkpt><trkpt lat="45.1214157" lon="8.840126"><ele>91.0</ele><time>2026-03-29T07:58:45.185Z</time></trkpt><trkpt lat="45.1215222" lon="8.8397743"><ele>90.5</ele><time>2026-03-29T07:58:46.187Z</time></trkpt><trkpt lat="45.1216273" lon="8.8394232"><ele>90.0</ele><time>2026-03-29T07:58:47.184Z</time></trkpt><trkpt lat="45.1217327" lon="8.8390715"><ele>89.5</ele><time>2026-03-29T07:58:48.186Z</time></trkpt><trkpt lat="45.1218387" lon="8.8387198"><ele>89.0</ele><time>2026-03-29T07:58:49.186Z</time></trkpt><trkpt lat="45.1219462" lon="8.8383688"><ele>90.0</ele><time>2026-03-29T07:58:50.182Z</time></trkpt><trkpt lat="45.1220543" lon="8.8380175"><ele>91.0</ele><time>2026-03-29T07:58:51.181Z</time></trkpt><trkpt lat="45.1221628" lon="8.837665"><ele>91.5</ele><time>2026-03-29T07:58:52.182Z</time></trkpt><trkpt lat="45.122271" lon="8.8373103"><ele>92.0</ele><time>2026-03-29T07:58:53.18Z</time></trkpt><trkpt lat="45.1223783" lon="8.8369538"><ele>91.5</ele><time>2026-03-29T07:58:54.182Z</time></trkpt><trkpt lat="45.1224847" lon="8.8365968"><ele>91.0</ele><time>2026-03-29T07:58:55.184Z</time></trkpt><trkpt lat="45.1225908" lon="8.8362423"><ele>91.5</ele><time>2026-03-29T07:58:56.183Z</time></trkpt><trkpt lat="45.1226978" lon="8.8358895"><ele>92.0</ele><time>2026-03-29T07:58:57.184Z</time></trkpt><trkpt lat="45.1228057" lon="8.8355378"><ele>92.0</ele><time>2026-03-29T07:58:58.189Z</time></trkpt><trkpt lat="45.1229122" lon="8.835186"><ele>92.0</ele><time>2026-03-29T07:58:59.183Z</time></trkpt><trkpt lat="45.1230173" lon="8.8348352"><ele>91.5</ele><time>2026-03-29T07:59:00.184Z</time></trkpt><trkpt lat="45.123123" lon="8.8344875"><ele>91.0</ele><time>2026-03-29T07:59:01.188Z</time></trkpt><trkpt lat="45.1232285" lon="8.8341412"><ele>91.0</ele><time>2026-03-29T07:59:02.184Z</time></trkpt><trkpt lat="45.1233338" lon="8.8337938"><ele>91.0</ele><time>2026-03-29T07:59:03.184Z</time></trkpt><trkpt lat="45.1234395" lon="8.8334452"><ele>90.5</ele><time>2026-03-29T07:59:04.187Z</time></trkpt><trkpt lat="45.1235452" lon="8.8330958"><ele>90.0</ele><time>2026-03-29T07:59:05.184Z</time></trkpt><trkpt lat="45.1236517" lon="8.8327467"><ele>90.5</ele><time>2026-03-29T07:59:06.184Z</time></trkpt><trkpt lat="45.1237583" lon="8.832398"><ele>91.0</ele><time>2026-03-29T07:59:07.185Z</time></trkpt><trkpt lat="45.1238652" lon="8.8320498"><ele>92.0</ele><time>2026-03-29T07:59:08.186Z</time></trkpt><trkpt lat="45.123971" lon="8.8317013"><ele>93.0</ele><time>2026-03-29T07:59:09.186Z</time></trkpt><trkpt lat="45.1240767" lon="8.8313523"><ele>93.0</ele><time>2026-03-29T07:59:10.186Z</time></trkpt><trkpt lat="45.1241828" lon="8.831004"><ele>93.0</ele><time>2026-03-29T07:59:11.186Z</time></trkpt><trkpt lat="45.1242903" lon="8.8306557"><ele>93.5</ele><time>2026-03-29T07:59:12.185Z</time></trkpt><trkpt lat="45.1243977" lon="8.8303068"><ele>94.0</ele><time>2026-03-29T07:59:13.185Z</time></trkpt><trkpt lat="45.124504" lon="8.8299567"><ele>94.0</ele><time>2026-03-29T07:59:14.185Z</time></trkpt><trkpt lat="45.1246093" lon="8.8296062"><ele>94.0</ele><time>2026-03-29T07:59:15.182Z</time></trkpt><trkpt lat="45.1247127" lon="8.8292555"><ele>93.5</ele><time>2026-03-29T07:59:16.184Z</time></trkpt><trkpt lat="45.1248178" lon="8.8289065"><ele>93.0</ele><time>2026-03-29T07:59:17.183Z</time></trkpt><trkpt lat="45.124924" lon="8.8285583"><ele>92.5</ele><time>2026-03-29T07:59:18.184Z</time></trkpt><trkpt lat="45.1250287" lon="8.8282113"><ele>92.0</ele><time>2026-03-29T07:59:19.186Z</time></trkpt><trkpt lat="45.1251315" lon="8.8278657"><ele>91.5</ele><time>2026-03-29T07:59:20.185Z</time></trkpt><trkpt lat="45.1252342" lon="8.8275215"><ele>91.0</ele><time>2026-03-29T07:59:21.185Z</time></trkpt><trkpt lat="45.1253378" lon="8.827179"><ele>91.0</ele><time>2026-03-29T07:59:22.185Z</time></trkpt><trkpt lat="45.125443" lon="8.8268395"><ele>91.0</ele><time>2026-03-29T07:59:23.185Z</time></trkpt><trkpt lat="45.1255473" lon="8.8265008"><ele>91.0</ele><time>2026-03-29T07:59:24.185Z</time></trkpt><trkpt lat="45.1256512" lon="8.826163"><ele>91.0</ele><time>2026-03-29T07:59:25.185Z</time></trkpt><trkpt lat="45.1257555" lon="8.8258238"><ele>91.0</ele><time>2026-03-29T07:59:26.185Z</time></trkpt><trkpt lat="45.1258607" lon="8.8254837"><ele>91.0</ele><time>2026-03-29T07:59:27.184Z</time></trkpt><trkpt lat="45.1259667" lon="8.825141"><ele>91.0</ele><time>2026-03-29T07:59:28.185Z</time></trkpt><trkpt lat="45.1260715" lon="8.8247953"><ele>91.0</ele><time>2026-03-29T07:59:29.185Z</time></trkpt><trkpt lat="45.1261767" lon="8.8244465"><ele>91.5</ele><time>2026-03-29T07:59:30.185Z</time></trkpt><trkpt lat="45.1262823" lon="8.8240962"><ele>92.0</ele><time>2026-03-29T07:59:31.185Z</time></trkpt><trkpt lat="45.1263887" lon="8.8237457"><ele>92.5</ele><time>2026-03-29T07:59:32.185Z</time></trkpt><trkpt lat="45.1264953" lon="8.8233958"><ele>93.0</ele><time>2026-03-29T07:59:33.186Z</time></trkpt><trkpt lat="45.1266008" lon="8.8230455"><ele>92.5</ele><time>2026-03-29T07:59:34.186Z</time></trkpt><trkpt lat="45.1267057" lon="8.8226938"><ele>92.0</ele><time>2026-03-29T07:59:35.186Z</time></trkpt><trkpt lat="45.1268105" lon="8.8223423"><ele>92.0</ele><time>2026-03-29T07:59:36.188Z</time></trkpt><trkpt lat="45.1269183" lon="8.8219925"><ele>92.0</ele><time>2026-03-29T07:59:37.19Z</time></trkpt><trkpt lat="45.1270273" lon="8.8216432"><ele>92.0</ele><time>2026-03-29T07:59:38.184Z</time></trkpt><trkpt lat="45.1271355" lon="8.8212925"><ele>92.0</ele><time>2026-03-29T07:59:39.183Z</time></trkpt><trkpt lat="45.1272428" lon="8.8209397"><ele>92.0</ele><time>2026-03-29T07:59:40.181Z</time></trkpt><trkpt lat="45.1273495" lon="8.8205862"><ele>92.0</ele><time>2026-03-29T07:59:41.181Z</time></trkpt><trkpt lat="45.1274553" lon="8.820233"><ele>92.0</ele><time>2026-03-29T07:59:42.181Z</time></trkpt><trkpt lat="45.1275597" lon="8.8198813"><ele>92.0</ele><time>2026-03-29T07:59:43.184Z</time></trkpt><trkpt lat="45.1276648" lon="8.8195308"><ele>92.0</ele><time>2026-03-29T07:59:44.186Z</time></trkpt><trkpt lat="45.1277717" lon="8.819182"><ele>92.0</ele><time>2026-03-29T07:59:45.186Z</time></trkpt><trkpt lat="45.1278792" lon="8.8188345"><ele>92.0</ele><time>2026-03-29T07:59:46.187Z</time></trkpt><trkpt lat="45.1279865" lon="8.818488"><ele>92.0</ele><time>2026-03-29T07:59:47.185Z</time></trkpt><trkpt lat="45.1280923" lon="8.8181423"><ele>91.5</ele><time>2026-03-29T07:59:48.186Z</time></trkpt><trkpt lat="45.1281963" lon="8.8177975"><ele>91.0</ele><time>2026-03-29T07:59:49.187Z</time></trkpt><trkpt lat="45.1282983" lon="8.8174533"><ele>91.0</ele><time>2026-03-29T07:59:50.186Z</time></trkpt><trkpt lat="45.1283995" lon="8.8171113"><ele>91.0</ele><time>2026-03-29T07:59:51.186Z</time></trkpt><trkpt lat="45.1285015" lon="8.816773"><ele>91.0</ele><time>2026-03-29T07:59:52.187Z</time></trkpt><trkpt lat="45.1286038" lon="8.8164373"><ele>91.0</ele><time>2026-03-29T07:59:53.186Z</time></trkpt><trkpt lat="45.1287052" lon="8.8161042"><ele>91.0</ele><time>2026-03-29T07:59:54.186Z</time></trkpt><trkpt lat="45.128806" lon="8.8157728"><ele>91.0</ele><time>2026-03-29T07:59:55.185Z</time></trkpt><trkpt lat="45.1289077" lon="8.8154423"><ele>91.5</ele><time>2026-03-29T07:59:56.185Z</time></trkpt><trkpt lat="45.1290075" lon="8.8151122"><ele>92.0</ele><time>2026-03-29T07:59:57.186Z</time></trkpt><trkpt lat="45.129107" lon="8.8147832"><ele>92.0</ele><time>2026-03-29T07:59:58.185Z</time></trkpt><trkpt lat="45.1292083" lon="8.8144567"><ele>92.0</ele><time>2026-03-29T07:59:59.184Z</time></trkpt><trkpt lat="45.1293077" lon="8.8141307"><ele>93.0</ele><time>2026-03-29T08:00:00.198Z</time></trkpt><trkpt lat="45.1294073" lon="8.813806"><ele>94.0</ele><time>2026-03-29T08:00:01.185Z</time></trkpt><trkpt lat="45.1295082" lon="8.8134812"><ele>94.0</ele><time>2026-03-29T08:00:02.186Z</time></trkpt><trkpt lat="45.1296077" lon="8.8131565"><ele>94.0</ele><time>2026-03-29T08:00:03.185Z</time></trkpt><trkpt lat="45.1297053" lon="8.8128378"><ele>93.0</ele><time>2026-03-29T08:00:04.184Z</time></trkpt><trkpt lat="45.1297993" lon="8.81253"><ele>92.0</ele><time>2026-03-29T08:00:05.183Z</time></trkpt><trkpt lat="45.129887" lon="8.812242"><ele>92.0</ele><time>2026-03-29T08:00:06.185Z</time></trkpt><trkpt lat="45.1299687" lon="8.8119633"><ele>92.0</ele><time>2026-03-29T08:00:07.185Z</time></trkpt><trkpt lat="45.1300398" lon="8.8116842"><ele>92.0</ele><time>2026-03-29T08:00:08.188Z</time></trkpt><trkpt lat="45.1300932" lon="8.8114007"><ele>92.0</ele><time>2026-03-29T08:00:09.186Z</time></trkpt><trkpt lat="45.1301277" lon="8.8111037"><ele>92.0</ele><time>2026-03-29T08:00:10.186Z</time></trkpt><trkpt lat="45.1301417" lon="8.8107905"><ele>92.0</ele><time>2026-03-29T08:00:11.185Z</time></trkpt><trkpt lat="45.1301322" lon="8.8104625"><ele>91.5</ele><time>2026-03-29T08:00:12.186Z</time></trkpt><trkpt lat="45.130098" lon="8.8101203"><ele>91.0</ele><time>2026-03-29T08:00:13.188Z</time></trkpt><trkpt lat="45.1300495" lon="8.8097613"><ele>91.0</ele><time>2026-03-29T08:00:14.186Z</time></trkpt><trkpt lat="45.1299925" lon="8.8093908"><ele>91.0</ele><time>2026-03-29T08:00:15.186Z</time></trkpt><trkpt lat="45.1299327" lon="8.8090087"><ele>90.0</ele><time>2026-03-29T08:00:16.189Z</time></trkpt><trkpt lat="45.129874" lon="8.80862"><ele>89.0</ele><time>2026-03-29T08:00:17.186Z</time></trkpt><trkpt lat="45.1298143" lon="8.8082275"><ele>88.5</ele><time>2026-03-29T08:00:18.187Z</time></trkpt><trkpt lat="45.1297535" lon="8.8078327"><ele>88.0</ele><time>2026-03-29T08:00:19.186Z</time></trkpt><trkpt lat="45.1296918" lon="8.8074365"><ele>87.5</ele><time>2026-03-29T08:00:20.186Z</time></trkpt><trkpt lat="45.1296313" lon="8.807041"><ele>87.0</ele><time>2026-03-29T08:00:21.184Z</time></trkpt><trkpt lat="45.1295715" lon="8.8066482"><ele>90.0</ele><time>2026-03-29T08:00:22.185Z</time></trkpt><trkpt lat="45.1295122" lon="8.8062585"><ele>93.0</ele><time>2026-03-29T08:00:23.187Z</time></trkpt><trkpt lat="45.1294527" lon="8.8058715"><ele>93.0</ele><time>2026-03-29T08:00:24.186Z</time></trkpt><trkpt lat="45.1293928" lon="8.8054867"><ele>93.0</ele><time>2026-03-29T08:00:25.186Z</time></trkpt><trkpt lat="45.1293337" lon="8.8051055"><ele>92.0</ele><time>2026-03-29T08:00:26.185Z</time></trkpt><trkpt lat="45.1292758" lon="8.8047278"><ele>91.0</ele><time>2026-03-29T08:00:27.184Z</time></trkpt><trkpt lat="45.129218" lon="8.8043533"><ele>90.0</ele><time>2026-03-29T08:00:28.182Z</time></trkpt><trkpt lat="45.1291618" lon="8.8039805"><ele>89.0</ele><time>2026-03-29T08:00:29.182Z</time></trkpt><trkpt lat="45.1291058" lon="8.8036102"><ele>89.0</ele><time>2026-03-29T08:00:30.18Z</time></trkpt><trkpt lat="45.129049" lon="8.8032427"><ele>89.0</ele><time>2026-03-29T08:00:31.183Z</time></trkpt><trkpt lat="45.1289903" lon="8.8028778"><ele>88.5</ele><time>2026-03-29T08:00:32.183Z</time></trkpt><trkpt lat="45.1289357" lon="8.8025292"><ele>88.0</ele><time>2026-03-29T08:00:33.186Z</time></trkpt><trkpt lat="45.1288853" lon="8.802203"><ele>88.0</ele><time>2026-03-29T08:00:34.185Z</time></trkpt><trkpt lat="45.128838" lon="8.8018977"><ele>88.0</ele><time>2026-03-29T08:00:35.184Z</time></trkpt><trkpt lat="45.1287952" lon="8.8016117"><ele>88.0</ele><time>2026-03-29T08:00:36.188Z</time></trkpt><trkpt lat="45.128754" lon="8.8013433"><ele>88.0</ele><time>2026-03-29T08:00:37.187Z</time></trkpt><trkpt lat="45.1287148" lon="8.8010973"><ele>88.0</ele><time>2026-03-29T08:00:38.187Z</time></trkpt><trkpt lat="45.1286787" lon="8.8008752"><ele>88.0</ele><time>2026-03-29T08:00:39.186Z</time></trkpt><trkpt lat="45.1286478" lon="8.8006748"><ele>88.0</ele><time>2026-03-29T08:00:40.185Z</time></trkpt><trkpt lat="45.1286237" lon="8.8004973"><ele>88.0</ele><time>2026-03-29T08:00:41.187Z</time></trkpt><trkpt lat="45.1286112" lon="8.8003468"><ele>88.0</ele><time>2026-03-29T08:00:42.184Z</time></trkpt><trkpt lat="45.1286188" lon="8.800226"><ele>88.0</ele><time>2026-03-29T08:00:43.185Z</time></trkpt><trkpt lat="45.1286495" lon="8.8001288"><ele>88.0</ele><time>2026-03-29T08:00:44.188Z</time></trkpt><trkpt lat="45.1286983" lon="8.8000435"><ele>88.0</ele><time>2026-03-29T08:00:45.186Z</time></trkpt><trkpt lat="45.1287482" lon="8.7999548"><ele>88.0</ele><time>2026-03-29T08:00:46.186Z</time></trkpt><trkpt lat="45.1287737" lon="8.7998605"><ele>88.0</ele><time>2026-03-29T08:00:47.185Z</time></trkpt><trkpt lat="45.1287643" lon="8.7997715"><ele>88.0</ele><time>2026-03-29T08:00:48.186Z</time></trkpt><trkpt lat="45.1287248" lon="8.7996943"><ele>88.0</ele><time>2026-03-29T08:00:49.185Z</time></trkpt><trkpt lat="45.1286607" lon="8.7996527"><ele>88.0</ele><time>2026-03-29T08:00:50.184Z</time></trkpt><trkpt lat="45.1285765" lon="8.799651"><ele>88.0</ele><time>2026-03-29T08:00:51.181Z</time></trkpt><trkpt lat="45.1284713" lon="8.7996733"><ele>88.0</ele><time>2026-03-29T08:00:52.183Z</time></trkpt><trkpt lat="45.1283505" lon="8.7996923"><ele>88.0</ele><time>2026-03-29T08:00:53.181Z</time></trkpt><trkpt lat="45.128206" lon="8.7997177"><ele>88.0</ele><time>2026-03-29T08:00:54.183Z</time></trkpt><trkpt lat="45.1280398" lon="8.7997573"><ele>88.0</ele><time>2026-03-29T08:00:55.182Z</time></trkpt><trkpt lat="45.1278587" lon="8.7998012"><ele>87.33333333333333</ele><time>2026-03-29T08:00:56.182Z</time></trkpt><trkpt lat="45.127657" lon="8.799849"><ele>86.66666666666667</ele><time>2026-03-29T08:00:57.182Z</time></trkpt><trkpt lat="45.1274508" lon="8.7998983"><ele>86.0</ele><time>2026-03-29T08:00:58.187Z</time></trkpt><trkpt lat="45.1272368" lon="8.7999488"><ele>86.0</ele><time>2026-03-29T08:00:59.185Z</time></trkpt><trkpt lat="45.1270147" lon="8.7999998"><ele>86.0</ele><time>2026-03-29T08:01:00.184Z</time></trkpt><trkpt lat="45.1267875" lon="8.8000533"><ele>86.0</ele><time>2026-03-29T08:01:01.187Z</time></trkpt><trkpt lat="45.1265628" lon="8.8001017"><ele>86.0</ele><time>2026-03-29T08:01:02.184Z</time></trkpt><trkpt lat="45.126332" lon="8.8001357"><ele>85.0</ele><time>2026-03-29T08:01:03.183Z</time></trkpt><trkpt lat="45.1260952" lon="8.8001482"><ele>84.0</ele><time>2026-03-29T08:01:04.183Z</time></trkpt><trkpt lat="45.1258548" lon="8.8001395"><ele>84.5</ele><time>2026-03-29T08:01:05.182Z</time></trkpt><trkpt lat="45.1256137" lon="8.8001185"><ele>85.0</ele><time>2026-03-29T08:01:06.181Z</time></trkpt><trkpt lat="45.1253792" lon="8.8000862"><ele>85.0</ele><time>2026-03-29T08:01:07.184Z</time></trkpt><trkpt lat="45.1251578" lon="8.8000385"><ele>85.0</ele><time>2026-03-29T08:01:08.186Z</time></trkpt><trkpt lat="45.1249408" lon="8.7999688"><ele>85.0</ele><time>2026-03-29T08:01:09.185Z</time></trkpt><trkpt lat="45.1247267" lon="8.7998758"><ele>85.0</ele><time>2026-03-29T08:01:10.185Z</time></trkpt><trkpt lat="45.124515" lon="8.7997662"><ele>85.0</ele><time>2026-03-29T08:01:11.185Z</time></trkpt><trkpt lat="45.1243037" lon="8.7996532"><ele>85.0</ele><time>2026-03-29T08:01:12.183Z</time></trkpt><trkpt lat="45.1240952" lon="8.7995458"><ele>85.0</ele><time>2026-03-29T08:01:13.185Z</time></trkpt><trkpt lat="45.1238935" lon="8.7994423"><ele>85.0</ele><time>2026-03-29T08:01:14.184Z</time></trkpt><trkpt lat="45.1237058" lon="8.7993452"><ele>86.0</ele><time>2026-03-29T08:01:15.184Z</time></trkpt><trkpt lat="45.1235292" lon="8.7992543"><ele>87.0</ele><time>2026-03-29T08:01:16.183Z</time></trkpt><trkpt lat="45.123365" lon="8.7991687"><ele>88.0</ele><time>2026-03-29T08:01:17.183Z</time></trkpt><trkpt lat="45.1232073" lon="8.7990837"><ele>88.0</ele><time>2026-03-29T08:01:18.183Z</time></trkpt><trkpt lat="45.1230515" lon="8.7989917"><ele>88.0</ele><time>2026-03-29T08:01:19.182Z</time></trkpt><trkpt lat="45.1229032" lon="8.7988778"><ele>88.0</ele><time>2026-03-29T08:01:20.182Z</time></trkpt><trkpt lat="45.1227657" lon="8.7987372"><ele>88.0</ele><time>2026-03-29T08:01:21.184Z</time></trkpt><trkpt lat="45.1226408" lon="8.7985775"><ele>88.0</ele><time>2026-03-29T08:01:22.185Z</time></trkpt><trkpt lat="45.1225268" lon="8.7984112"><ele>88.0</ele><time>2026-03-29T08:01:23.185Z</time></trkpt><trkpt lat="45.1224253" lon="8.798254"><ele>89.0</ele><time>2026-03-29T08:01:24.184Z</time></trkpt><trkpt lat="45.122334" lon="8.7981068"><ele>90.0</ele><time>2026-03-29T08:01:25.184Z</time></trkpt><trkpt lat="45.1222497" lon="8.7979678"><ele>91.0</ele><time>2026-03-29T08:01:26.183Z</time></trkpt><trkpt lat="45.1221673" lon="8.7978297"><ele>92.0</ele><time>2026-03-29T08:01:27.183Z</time></trkpt><trkpt lat="45.1220858" lon="8.7976927"><ele>92.25</ele><time>2026-03-29T08:01:28.183Z</time></trkpt><trkpt lat="45.1220053" lon="8.7975577"><ele>92.5</ele><time>2026-03-29T08:01:29.183Z</time></trkpt><trkpt lat="45.1219247" lon="8.7974242"><ele>92.75</ele><time>2026-03-29T08:01:30.184Z</time></trkpt><trkpt lat="45.1218425" lon="8.7972893"><ele>93.0</ele><time>2026-03-29T08:01:31.184Z</time></trkpt><trkpt lat="45.1217603" lon="8.797152"><ele>93.0</ele><time>2026-03-29T08:01:32.183Z</time></trkpt><trkpt lat="45.1216783" lon="8.7970108"><ele>93.0</ele><time>2026-03-29T08:01:33.182Z</time></trkpt><trkpt lat="45.1215942" lon="8.7968677"><ele>93.0</ele><time>2026-03-29T08:01:34.183Z</time></trkpt><trkpt lat="45.121507" lon="8.7967253"><ele>93.0</ele><time>2026-03-29T08:01:35.183Z</time></trkpt><trkpt lat="45.121417" lon="8.796584"><ele>92.75</ele><time>2026-03-29T08:01:36.183Z</time></trkpt><trkpt lat="45.1213218" lon="8.7964425"><ele>92.5</ele><time>2026-03-29T08:01:37.183Z</time></trkpt><trkpt lat="45.1212225" lon="8.7962947"><ele>92.25</ele><time>2026-03-29T08:01:38.181Z</time></trkpt><trkpt lat="45.1211262" lon="8.7961462"><ele>92.0</ele><time>2026-03-29T08:01:39.182Z</time></trkpt><trkpt lat="45.1210445" lon="8.796007"><ele>92.19999999999999</ele><time>2026-03-29T08:01:40.183Z</time></trkpt><trkpt lat="45.1209763" lon="8.795879"><ele>92.4</ele><time>2026-03-29T08:01:41.183Z</time></trkpt><trkpt lat="45.1209155" lon="8.7957637"><ele>92.6</ele><time>2026-03-29T08:01:42.181Z</time></trkpt><trkpt lat="45.1208638" lon="8.795661"><ele>92.80000000000001</ele><time>2026-03-29T08:01:43.18Z</time></trkpt><trkpt lat="45.1208243" lon="8.795579"><ele>93.0</ele><time>2026-03-29T08:01:44.179Z</time></trkpt><trkpt lat="45.120786" lon="8.795417"><ele>93.0</ele><time>2026-03-29T08:01:46.18Z</time></trkpt><trkpt lat="45.1207947" lon="8.7952945"><ele>93.0</ele><time>2026-03-29T08:01:47.18Z</time></trkpt><trkpt lat="45.1208172" lon="8.795138"><ele>93.0</ele><time>2026-03-29T08:01:48.182Z</time></trkpt><trkpt lat="45.1208482" lon="8.7949688"><ele>93.0</ele><time>2026-03-29T08:01:49.182Z</time></trkpt><trkpt lat="45.1208807" lon="8.794779"><ele>93.25</ele><time>2026-03-29T08:01:50.181Z</time></trkpt><trkpt lat="45.1209115" lon="8.7945947"><ele>93.5</ele><time>2026-03-29T08:01:51.18Z</time></trkpt><trkpt lat="45.1209388" lon="8.7944225"><ele>93.75</ele><time>2026-03-29T08:01:52.182Z</time></trkpt><trkpt lat="45.1209665" lon="8.7942505"><ele>94.0</ele><time>2026-03-29T08:01:53.181Z</time></trkpt><trkpt lat="45.1209963" lon="8.7940788"><ele>94.0</ele><time>2026-03-29T08:01:54.185Z</time></trkpt><trkpt lat="45.1210283" lon="8.7939138"><ele>94.0</ele><time>2026-03-29T08:01:55.183Z</time></trkpt><trkpt lat="45.1210582" lon="8.7937648"><ele>94.0</ele><time>2026-03-29T08:01:56.183Z</time></trkpt><trkpt lat="45.1210755" lon="8.7936303"><ele>94.0</ele><time>2026-03-29T08:01:57.183Z</time></trkpt><trkpt lat="45.1210675" lon="8.7935077"><ele>94.0</ele><time>2026-03-29T08:01:58.182Z</time></trkpt><trkpt lat="45.1210292" lon="8.7933995"><ele>93.80000000000001</ele><time>2026-03-29T08:01:59.182Z</time></trkpt><trkpt lat="45.1209567" lon="8.7933037"><ele>93.60000000000001</ele><time>2026-03-29T08:02:00.18Z</time></trkpt><trkpt lat="45.1208653" lon="8.7932177"><ele>93.4</ele><time>2026-03-29T08:02:01.181Z</time></trkpt><trkpt lat="45.120784" lon="8.7931393"><ele>93.2</ele><time>2026-03-29T08:02:02.181Z</time></trkpt><trkpt lat="45.120704" lon="8.7930678"><ele>93.0</ele><time>2026-03-29T08:02:03.181Z</time></trkpt><trkpt lat="45.1206303" lon="8.7929972"><ele>92.83333333333333</ele><time>2026-03-29T08:02:04.182Z</time></trkpt><trkpt lat="45.1205602" lon="8.7929298"><ele>92.66666666666667</ele><time>2026-03-29T08:02:05.181Z</time></trkpt><trkpt lat="45.1204905" lon="8.792865"><ele>92.5</ele><time>2026-03-29T08:02:06.18Z</time></trkpt><trkpt lat="45.1204198" lon="8.792803"><ele>92.33333333333334</ele><time>2026-03-29T08:02:07.179Z</time></trkpt><trkpt lat="45.1203497" lon="8.7927435"><ele>92.16666666666667</ele><time>2026-03-29T08:02:08.181Z</time></trkpt><trkpt lat="45.120285" lon="8.7926838"><ele>92.0</ele><time>2026-03-29T08:02:09.181Z</time></trkpt><trkpt lat="45.1202195" lon="8.7926208"><ele>92.0</ele><time>2026-03-29T08:02:10.183Z</time></trkpt><trkpt lat="45.1201573" lon="8.7925585"><ele>92.0</ele><time>2026-03-29T08:02:11.184Z</time></trkpt><trkpt lat="45.1200993" lon="8.792504"><ele>92.0</ele><time>2026-03-29T08:02:12.184Z</time></trkpt><trkpt lat="45.1200153" lon="8.7924383"><ele>92.0</ele><time>2026-03-29T08:02:14.184Z</time></trkpt><trkpt lat="45.1199478" lon="8.7923805"><ele>92.0</ele><time>2026-03-29T08:02:16.185Z</time></trkpt><trkpt lat="45.1198705" lon="8.7923088"><ele>92.0</ele><time>2026-03-29T08:02:18.184Z</time></trkpt><trkpt lat="45.1197948" lon="8.7922333"><ele>92.0</ele><time>2026-03-29T08:02:20.184Z</time></trkpt><trkpt lat="45.1197112" lon="8.7921278"><ele>92.0</ele><time>2026-03-29T08:02:22.183Z</time></trkpt><trkpt lat="45.1196323" lon="8.7920058"><ele>92.0</ele><time>2026-03-29T08:02:24.182Z</time></trkpt><trkpt lat="45.1195625" lon="8.7918723"><ele>92.0</ele><time>2026-03-29T08:02:26.183Z</time></trkpt><trkpt lat="45.1194892" lon="8.7917203"><ele>92.0</ele><time>2026-03-29T08:02:28.18Z</time></trkpt><trkpt lat="45.1194398" lon="8.7916157"><ele>92.0</ele><time>2026-03-29T08:02:29.18Z</time></trkpt><trkpt lat="45.1193908" lon="8.7914895"><ele>92.0</ele><time>2026-03-29T08:02:30.182Z</time></trkpt><trkpt lat="45.1193412" lon="8.7913412"><ele>92.0</ele><time>2026-03-29T08:02:31.18Z</time></trkpt><trkpt lat="45.1192798" lon="8.7911655"><ele>92.0</ele><time>2026-03-29T08:02:32.181Z</time></trkpt><trkpt lat="45.1192105" lon="8.7909833"><ele>92.0</ele><time>2026-03-29T08:02:33.179Z</time></trkpt><trkpt lat="45.1191333" lon="8.7907827"><ele>92.0</ele><time>2026-03-29T08:02:34.18Z</time></trkpt><trkpt lat="45.1190517" lon="8.7905695"><ele>92.0</ele><time>2026-03-29T08:02:35.182Z</time></trkpt><trkpt lat="45.1189732" lon="8.7903502"><ele>90.66666666666667</ele><time>2026-03-29T08:02:36.181Z</time></trkpt><trkpt lat="45.1188982" lon="8.7901338"><ele>89.33333333333333</ele><time>2026-03-29T08:02:37.184Z</time></trkpt><trkpt lat="45.1188232" lon="8.789927"><ele>88.0</ele><time>2026-03-29T08:02:38.183Z</time></trkpt><trkpt lat="45.1187473" lon="8.7897293"><ele>88.0</ele><time>2026-03-29T08:02:39.183Z</time></trkpt><trkpt lat="45.1186705" lon="8.789541"><ele>88.0</ele><time>2026-03-29T08:02:40.187Z</time></trkpt><trkpt lat="45.1185927" lon="8.789364"><ele>88.0</ele><time>2026-03-29T08:02:41.183Z</time></trkpt><trkpt lat="45.1185178" lon="8.7891975"><ele>88.0</ele><time>2026-03-29T08:02:42.183Z</time></trkpt><trkpt lat="45.1184512" lon="8.7890433"><ele>88.5</ele><time>2026-03-29T08:02:43.184Z</time></trkpt><trkpt lat="45.118389" lon="8.7888892"><ele>89.0</ele><time>2026-03-29T08:02:44.181Z</time></trkpt><trkpt lat="45.1183313" lon="8.7887357"><ele>89.5</ele><time>2026-03-29T08:02:45.181Z</time></trkpt><trkpt lat="45.118283" lon="8.7885943"><ele>90.0</ele><time>2026-03-29T08:02:46.182Z</time></trkpt><trkpt lat="45.1182475" lon="8.7884703"><ele>89.83333333333333</ele><time>2026-03-29T08:02:47.183Z</time></trkpt><trkpt lat="45.1182248" lon="8.7883557"><ele>89.66666666666667</ele><time>2026-03-29T08:02:48.181Z</time></trkpt><trkpt lat="45.1182157" lon="8.7882393"><ele>89.5</ele><time>2026-03-29T08:02:49.182Z</time></trkpt><trkpt lat="45.1182173" lon="8.7881202"><ele>89.33333333333334</ele><time>2026-03-29T08:02:50.183Z</time></trkpt><trkpt lat="45.1182188" lon="8.7880092"><ele>89.16666666666667</ele><time>2026-03-29T08:02:51.183Z</time></trkpt><trkpt lat="45.1182097" lon="8.7879062"><ele>89.0</ele><time>2026-03-29T08:02:52.185Z</time></trkpt><trkpt lat="45.1181838" lon="8.7878105"><ele>89.0</ele><time>2026-03-29T08:02:53.183Z</time></trkpt><trkpt lat="45.118142" lon="8.7877317"><ele>89.0</ele><time>2026-03-29T08:02:54.184Z</time></trkpt><trkpt lat="45.1180858" lon="8.7876643"><ele>89.0</ele><time>2026-03-29T08:02:55.182Z</time></trkpt><trkpt lat="45.118019" lon="8.787601"><ele>89.0</ele><time>2026-03-29T08:02:56.181Z</time></trkpt><trkpt lat="45.1179502" lon="8.7875297"><ele>89.0</ele><time>2026-03-29T08:02:57.181Z</time></trkpt><trkpt lat="45.1178825" lon="8.7874408"><ele>89.0</ele><time>2026-03-29T08:02:58.183Z</time></trkpt><trkpt lat="45.1178163" lon="8.7873307"><ele>89.0</ele><time>2026-03-29T08:02:59.181Z</time></trkpt><trkpt lat="45.117755" lon="8.7872062"><ele>89.0</ele><time>2026-03-29T08:03:00.184Z</time></trkpt><trkpt lat="45.1176988" lon="8.7870778"><ele>89.0</ele><time>2026-03-29T08:03:01.183Z</time></trkpt><trkpt lat="45.1176447" lon="8.7869478"><ele>89.0</ele><time>2026-03-29T08:03:02.182Z</time></trkpt><trkpt lat="45.1175878" lon="8.7868117"><ele>89.0</ele><time>2026-03-29T08:03:03.182Z</time></trkpt><trkpt lat="45.117528" lon="8.7866665"><ele>89.25</ele><time>2026-03-29T08:03:04.183Z</time></trkpt><trkpt lat="45.1174663" lon="8.7865132"><ele>89.5</ele><time>2026-03-29T08:03:05.182Z</time></trkpt><trkpt lat="45.1173958" lon="8.78635"><ele>89.75</ele><time>2026-03-29T08:03:06.183Z</time></trkpt><trkpt lat="45.1173113" lon="8.7861608"><ele>90.0</ele><time>2026-03-29T08:03:07.183Z</time></trkpt><trkpt lat="45.1172262" lon="8.7859503"><ele>90.33333333333333</ele><time>2026-03-29T08:03:08.181Z</time></trkpt><trkpt lat="45.1171357" lon="8.7857113"><ele>90.66666666666666</ele><time>2026-03-29T08:03:09.181Z</time></trkpt><trkpt lat="45.1170422" lon="8.7854532"><ele>91.0</ele><time>2026-03-29T08:03:10.181Z</time></trkpt><trkpt lat="45.116948" lon="8.7851843"><ele>91.5</ele><time>2026-03-29T08:03:11.182Z</time></trkpt><trkpt lat="45.1168487" lon="8.7849053"><ele>92.0</ele><time>2026-03-29T08:03:12.183Z</time></trkpt><trkpt lat="45.1167423" lon="8.7846158"><ele>92.5</ele><time>2026-03-29T08:03:13.184Z</time></trkpt><trkpt lat="45.1166322" lon="8.7843232"><ele>93.0</ele><time>2026-03-29T08:03:14.183Z</time></trkpt><trkpt lat="45.116521" lon="8.7840302"><ele>93.5</ele><time>2026-03-29T08:03:15.183Z</time></trkpt><trkpt lat="45.1164083" lon="8.7837352"><ele>94.0</ele><time>2026-03-29T08:03:16.183Z</time></trkpt><trkpt lat="45.1162947" lon="8.7834383"><ele>94.0</ele><time>2026-03-29T08:03:17.183Z</time></trkpt><trkpt lat="45.1161803" lon="8.7831398"><ele>94.0</ele><time>2026-03-29T08:03:18.183Z</time></trkpt><trkpt lat="45.1160653" lon="8.7828402"><ele>92.5</ele><time>2026-03-29T08:03:19.183Z</time></trkpt><trkpt lat="45.115949" lon="8.7825398"><ele>91.0</ele><time>2026-03-29T08:03:20.181Z</time></trkpt><trkpt lat="45.1158322" lon="8.7822395"><ele>91.0</ele><time>2026-03-29T08:03:21.182Z</time></trkpt><trkpt lat="45.1157153" lon="8.7819375"><ele>91.0</ele><time>2026-03-29T08:03:22.182Z</time></trkpt><trkpt lat="45.1155978" lon="8.7816343"><ele>90.5</ele><time>2026-03-29T08:03:23.183Z</time></trkpt><trkpt lat="45.1154798" lon="8.7813325"><ele>90.0</ele><time>2026-03-29T08:03:24.189Z</time></trkpt><trkpt lat="45.1153615" lon="8.7810307"><ele>90.0</ele><time>2026-03-29T08:03:25.185Z</time></trkpt><trkpt lat="45.1152447" lon="8.7807282"><ele>90.0</ele><time>2026-03-29T08:03:26.184Z</time></trkpt><trkpt lat="45.115128" lon="8.780426"><ele>90.0</ele><time>2026-03-29T08:03:27.185Z</time></trkpt><trkpt lat="45.1150118" lon="8.7801232"><ele>90.0</ele><time>2026-03-29T08:03:28.184Z</time></trkpt><trkpt lat="45.1148952" lon="8.7798205"><ele>90.0</ele><time>2026-03-29T08:03:29.184Z</time></trkpt><trkpt lat="45.1147778" lon="8.7795185"><ele>90.0</ele><time>2026-03-29T08:03:30.184Z</time></trkpt><trkpt lat="45.114661" lon="8.7792163"><ele>90.5</ele><time>2026-03-29T08:03:31.184Z</time></trkpt><trkpt lat="45.1145437" lon="8.778914"><ele>91.0</ele><time>2026-03-29T08:03:32.186Z</time></trkpt><trkpt lat="45.1144252" lon="8.778611"><ele>90.5</ele><time>2026-03-29T08:03:33.185Z</time></trkpt><trkpt lat="45.1143063" lon="8.7783077"><ele>90.0</ele><time>2026-03-29T08:03:34.185Z</time></trkpt><trkpt lat="45.1141877" lon="8.7780042"><ele>89.0</ele><time>2026-03-29T08:03:35.184Z</time></trkpt><trkpt lat="45.1140692" lon="8.7777002"><ele>88.0</ele><time>2026-03-29T08:03:36.186Z</time></trkpt><trkpt lat="45.1139503" lon="8.7773952"><ele>88.0</ele><time>2026-03-29T08:03:37.186Z</time></trkpt><trkpt lat="45.1138318" lon="8.7770885"><ele>88.0</ele><time>2026-03-29T08:03:38.183Z</time></trkpt><trkpt lat="45.1137127" lon="8.7767808"><ele>88.5</ele><time>2026-03-29T08:03:39.183Z</time></trkpt><trkpt lat="45.1135928" lon="8.7764728"><ele>89.0</ele><time>2026-03-29T08:03:40.183Z</time></trkpt><trkpt lat="45.1134725" lon="8.7761655"><ele>88.5</ele><time>2026-03-29T08:03:41.183Z</time></trkpt><trkpt lat="45.113352" lon="8.775861"><ele>88.0</ele><time>2026-03-29T08:03:42.183Z</time></trkpt><trkpt lat="45.113233" lon="8.7755598"><ele>88.0</ele><time>2026-03-29T08:03:43.184Z</time></trkpt><trkpt lat="45.1131165" lon="8.7752622"><ele>88.0</ele><time>2026-03-29T08:03:44.183Z</time></trkpt><trkpt lat="45.1130023" lon="8.7749682"><ele>88.0</ele><time>2026-03-29T08:03:45.181Z</time></trkpt><trkpt lat="45.1128898" lon="8.774678"><ele>88.0</ele><time>2026-03-29T08:03:46.181Z</time></trkpt><trkpt lat="45.1127833" lon="8.774402"><ele>88.0</ele><time>2026-03-29T08:03:47.182Z</time></trkpt><trkpt lat="45.1126833" lon="8.774143"><ele>88.0</ele><time>2026-03-29T08:03:48.18Z</time></trkpt><trkpt lat="45.1125893" lon="8.773901"><ele>88.0</ele><time>2026-03-29T08:03:49.183Z</time></trkpt><trkpt lat="45.1125018" lon="8.773677"><ele>88.33333333333333</ele><time>2026-03-29T08:03:50.185Z</time></trkpt><trkpt lat="45.1124198" lon="8.773468"><ele>88.66666666666667</ele><time>2026-03-29T08:03:51.185Z</time></trkpt><trkpt lat="45.1123405" lon="8.7732658"><ele>89.0</ele><time>2026-03-29T08:03:52.186Z</time></trkpt><trkpt lat="45.1122605" lon="8.7730655"><ele>89.0</ele><time>2026-03-29T08:03:53.185Z</time></trkpt><trkpt lat="45.112181" lon="8.7728677"><ele>89.0</ele><time>2026-03-29T08:03:54.187Z</time></trkpt><trkpt lat="45.1121002" lon="8.7726667"><ele>89.0</ele><time>2026-03-29T08:03:55.186Z</time></trkpt><trkpt lat="45.1120122" lon="8.772451"><ele>89.0</ele><time>2026-03-29T08:03:56.184Z</time></trkpt><trkpt lat="45.111915" lon="8.7722083"><ele>89.0</ele><time>2026-03-29T08:03:57.186Z</time></trkpt><trkpt lat="45.1118072" lon="8.771936"><ele>89.0</ele><time>2026-03-29T08:03:58.185Z</time></trkpt><trkpt lat="45.1116905" lon="8.7716403"><ele>89.0</ele><time>2026-03-29T08:03:59.184Z</time></trkpt><trkpt lat="45.1115743" lon="8.7713353"><ele>89.0</ele><time>2026-03-29T08:04:00.184Z</time></trkpt><trkpt lat="45.1114592" lon="8.7710167"><ele>88.0</ele><time>2026-03-29T08:04:01.186Z</time></trkpt><trkpt lat="45.1113425" lon="8.7706898"><ele>87.0</ele><time>2026-03-29T08:04:02.186Z</time></trkpt><trkpt lat="45.1112213" lon="8.7703585"><ele>87.5</ele><time>2026-03-29T08:04:03.186Z</time></trkpt><trkpt lat="45.1110977" lon="8.7700268"><ele>88.0</ele><time>2026-03-29T08:04:04.185Z</time></trkpt><trkpt lat="45.110972" lon="8.7696968"><ele>88.0</ele><time>2026-03-29T08:04:05.185Z</time></trkpt><trkpt lat="45.110845" lon="8.769368"><ele>88.0</ele><time>2026-03-29T08:04:06.184Z</time></trkpt><trkpt lat="45.110718" lon="8.7690408"><ele>87.5</ele><time>2026-03-29T08:04:07.184Z</time></trkpt><trkpt lat="45.1105928" lon="8.7687175"><ele>87.0</ele><time>2026-03-29T08:04:08.185Z</time></trkpt><trkpt lat="45.1104692" lon="8.7683982"><ele>87.0</ele><time>2026-03-29T08:04:09.183Z</time></trkpt><trkpt lat="45.1103463" lon="8.768081"><ele>87.0</ele><time>2026-03-29T08:04:10.182Z</time></trkpt><trkpt lat="45.110224" lon="8.7677645"><ele>87.5</ele><time>2026-03-29T08:04:11.181Z</time></trkpt><trkpt lat="45.1101028" lon="8.7674497"><ele>88.0</ele><time>2026-03-29T08:04:12.182Z</time></trkpt><trkpt lat="45.1099818" lon="8.7671365"><ele>87.5</ele><time>2026-03-29T08:04:13.185Z</time></trkpt><trkpt lat="45.1098608" lon="8.7668252"><ele>87.0</ele><time>2026-03-29T08:04:14.184Z</time></trkpt><trkpt lat="45.1097407" lon="8.7665157"><ele>87.0</ele><time>2026-03-29T08:04:15.184Z</time></trkpt><trkpt lat="45.1096213" lon="8.7662072"><ele>87.0</ele><time>2026-03-29T08:04:16.185Z</time></trkpt><trkpt lat="45.1095027" lon="8.7659"><ele>87.5</ele><time>2026-03-29T08:04:17.184Z</time></trkpt><trkpt lat="45.1093835" lon="8.7655935"><ele>88.0</ele><time>2026-03-29T08:04:18.185Z</time></trkpt><trkpt lat="45.1092637" lon="8.7652873"><ele>88.0</ele><time>2026-03-29T08:04:19.185Z</time></trkpt><trkpt lat="45.1091438" lon="8.7649805"><ele>88.0</ele><time>2026-03-29T08:04:20.185Z</time></trkpt><trkpt lat="45.109024" lon="8.7646733"><ele>89.0</ele><time>2026-03-29T08:04:21.185Z</time></trkpt><trkpt lat="45.1089043" lon="8.7643652"><ele>90.0</ele><time>2026-03-29T08:04:22.186Z</time></trkpt><trkpt lat="45.1087845" lon="8.7640565"><ele>90.0</ele><time>2026-03-29T08:04:23.185Z</time></trkpt><trkpt lat="45.1086647" lon="8.7637485"><ele>90.0</ele><time>2026-03-29T08:04:24.186Z</time></trkpt><trkpt lat="45.1085457" lon="8.7634403"><ele>91.0</ele><time>2026-03-29T08:04:25.185Z</time></trkpt><trkpt lat="45.1084272" lon="8.763132"><ele>92.0</ele><time>2026-03-29T08:04:26.185Z</time></trkpt><trkpt lat="45.1083087" lon="8.7628253"><ele>92.0</ele><time>2026-03-29T08:04:27.184Z</time></trkpt><trkpt lat="45.1081898" lon="8.7625192"><ele>92.0</ele><time>2026-03-29T08:04:28.185Z</time></trkpt><trkpt lat="45.108071" lon="8.762213"><ele>92.0</ele><time>2026-03-29T08:04:29.188Z</time></trkpt><trkpt lat="45.1079528" lon="8.7619063"><ele>92.0</ele><time>2026-03-29T08:04:30.188Z</time></trkpt><trkpt lat="45.1078343" lon="8.7615992"><ele>92.0</ele><time>2026-03-29T08:04:31.185Z</time></trkpt><trkpt lat="45.1077155" lon="8.7612912"><ele>92.0</ele><time>2026-03-29T08:04:32.186Z</time></trkpt><trkpt lat="45.1075957" lon="8.7609833"><ele>92.0</ele><time>2026-03-29T08:04:33.184Z</time></trkpt><trkpt lat="45.1074748" lon="8.760674"><ele>92.0</ele><time>2026-03-29T08:04:34.184Z</time></trkpt><trkpt lat="45.1073542" lon="8.7603635"><ele>92.5</ele><time>2026-03-29T08:04:35.183Z</time></trkpt><trkpt lat="45.1072335" lon="8.7600513"><ele>93.0</ele><time>2026-03-29T08:04:36.183Z</time></trkpt><trkpt lat="45.107112" lon="8.7597388"><ele>93.0</ele><time>2026-03-29T08:04:37.185Z</time></trkpt><trkpt lat="45.1069905" lon="8.759426"><ele>93.0</ele><time>2026-03-29T08:04:38.185Z</time></trkpt><trkpt lat="45.1068687" lon="8.7591138"><ele>93.0</ele><time>2026-03-29T08:04:39.185Z</time></trkpt><trkpt lat="45.1067472" lon="8.7588023"><ele>93.0</ele><time>2026-03-29T08:04:40.186Z</time></trkpt><trkpt lat="45.1066263" lon="8.7584908"><ele>93.0</ele><time>2026-03-29T08:04:41.187Z</time></trkpt><trkpt lat="45.106507" lon="8.758179"><ele>93.0</ele><time>2026-03-29T08:04:42.187Z</time></trkpt><trkpt lat="45.1063872" lon="8.7578688"><ele>93.5</ele><time>2026-03-29T08:04:43.187Z</time></trkpt><trkpt lat="45.1062665" lon="8.7575618"><ele>94.0</ele><time>2026-03-29T08:04:44.186Z</time></trkpt><trkpt lat="45.1061477" lon="8.757256"><ele>94.0</ele><time>2026-03-29T08:04:45.187Z</time></trkpt><trkpt lat="45.1060305" lon="8.7569523"><ele>94.0</ele><time>2026-03-29T08:04:46.187Z</time></trkpt><trkpt lat="45.1059122" lon="8.7566527"><ele>94.0</ele><time>2026-03-29T08:04:47.186Z</time></trkpt><trkpt lat="45.1057978" lon="8.7563582"><ele>94.0</ele><time>2026-03-29T08:04:48.186Z</time></trkpt><trkpt lat="45.1056907" lon="8.7560817"><ele>93.33333333333333</ele><time>2026-03-29T08:04:49.188Z</time></trkpt><trkpt lat="45.1055888" lon="8.7558168"><ele>92.66666666666667</ele><time>2026-03-29T08:04:50.186Z</time></trkpt><trkpt lat="45.1054895" lon="8.7555598"><ele>92.0</ele><time>2026-03-29T08:04:51.186Z</time></trkpt><trkpt lat="45.1053962" lon="8.755316"><ele>92.0</ele><time>2026-03-29T08:04:52.188Z</time></trkpt><trkpt lat="45.1053087" lon="8.7550885"><ele>92.0</ele><time>2026-03-29T08:04:53.185Z</time></trkpt><trkpt lat="45.1052263" lon="8.7548745"><ele>92.0</ele><time>2026-03-29T08:04:54.185Z</time></trkpt><trkpt lat="45.1051477" lon="8.7546643"><ele>92.0</ele><time>2026-03-29T08:04:55.186Z</time></trkpt><trkpt lat="45.1050773" lon="8.75445"><ele>92.0</ele><time>2026-03-29T08:04:56.187Z</time></trkpt><trkpt lat="45.1050242" lon="8.7542348"><ele>92.0</ele><time>2026-03-29T08:04:57.186Z</time></trkpt><trkpt lat="45.1049918" lon="8.7540278"><ele>91.75</ele><time>2026-03-29T08:04:58.185Z</time></trkpt><trkpt lat="45.1049722" lon="8.7538348"><ele>91.5</ele><time>2026-03-29T08:04:59.184Z</time></trkpt><trkpt lat="45.1049507" lon="8.7536562"><ele>91.25</ele><time>2026-03-29T08:05:00.185Z</time></trkpt><trkpt lat="45.1049185" lon="8.7535005"><ele>91.0</ele><time>2026-03-29T08:05:01.188Z</time></trkpt><trkpt lat="45.1048715" lon="8.7533627"><ele>90.8</ele><time>2026-03-29T08:05:02.187Z</time></trkpt><trkpt lat="45.1048087" lon="8.7532485"><ele>90.6</ele><time>2026-03-29T08:05:03.187Z</time></trkpt><trkpt lat="45.1047332" lon="8.753179"><ele>90.4</ele><time>2026-03-29T08:05:04.188Z</time></trkpt><trkpt lat="45.1046507" lon="8.7531632"><ele>90.2</ele><time>2026-03-29T08:05:05.19Z</time></trkpt><trkpt lat="45.1045657" lon="8.7531967"><ele>90.0</ele><time>2026-03-29T08:05:06.188Z</time></trkpt><trkpt lat="45.1044815" lon="8.753279"><ele>90.0</ele><time>2026-03-29T08:05:07.186Z</time></trkpt><trkpt lat="45.104402" lon="8.753397"><ele>90.0</ele><time>2026-03-29T08:05:08.189Z</time></trkpt><trkpt lat="45.1043328" lon="8.7535205"><ele>90.0</ele><time>2026-03-29T08:05:09.185Z</time></trkpt><trkpt lat="45.1042522" lon="8.7536538"><ele>90.0</ele><time>2026-03-29T08:05:10.188Z</time></trkpt><trkpt lat="45.1041508" lon="8.7537865"><ele>90.0</ele><time>2026-03-29T08:05:11.187Z</time></trkpt><trkpt lat="45.1040327" lon="8.753898"><ele>90.0</ele><time>2026-03-29T08:05:12.187Z</time></trkpt><trkpt lat="45.1038947" lon="8.7539778"><ele>90.0</ele><time>2026-03-29T08:05:13.186Z</time></trkpt><trkpt lat="45.1037358" lon="8.7540185"><ele>90.0</ele><time>2026-03-29T08:05:14.186Z</time></trkpt><trkpt lat="45.1035567" lon="8.7540217"><ele>90.0</ele><time>2026-03-29T08:05:15.188Z</time></trkpt><trkpt lat="45.1033547" lon="8.7539998"><ele>90.0</ele><time>2026-03-29T08:05:16.186Z</time></trkpt><trkpt lat="45.103146" lon="8.7539693"><ele>90.33333333333333</ele><time>2026-03-29T08:05:17.186Z</time></trkpt><trkpt lat="45.1029302" lon="8.7539362"><ele>90.66666666666666</ele><time>2026-03-29T08:05:18.187Z</time></trkpt><trkpt lat="45.1027032" lon="8.7539007"><ele>91.0</ele><time>2026-03-29T08:05:19.187Z</time></trkpt><trkpt lat="45.102471" lon="8.7538647"><ele>92.0</ele><time>2026-03-29T08:05:20.186Z</time></trkpt><trkpt lat="45.102237" lon="8.7538275"><ele>93.0</ele><time>2026-03-29T08:05:21.186Z</time></trkpt><trkpt lat="45.101997" lon="8.7537913"><ele>93.0</ele><time>2026-03-29T08:05:22.184Z</time></trkpt><trkpt lat="45.1017537" lon="8.753757"><ele>93.0</ele><time>2026-03-29T08:05:23.182Z</time></trkpt><trkpt lat="45.101509" lon="8.7537255"><ele>92.0</ele><time>2026-03-29T08:05:24.183Z</time></trkpt><trkpt lat="45.1012645" lon="8.7536948"><ele>91.0</ele><time>2026-03-29T08:05:25.182Z</time></trkpt><trkpt lat="45.1010205" lon="8.7536627"><ele>91.0</ele><time>2026-03-29T08:05:26.184Z</time></trkpt><trkpt lat="45.1007767" lon="8.7536282"><ele>91.0</ele><time>2026-03-29T08:05:27.185Z</time></trkpt><trkpt lat="45.1005327" lon="8.753592"><ele>92.0</ele><time>2026-03-29T08:05:28.187Z</time></trkpt><trkpt lat="45.1002892" lon="8.7535538"><ele>93.0</ele><time>2026-03-29T08:05:29.186Z</time></trkpt><trkpt lat="45.1000463" lon="8.7535143"><ele>91.5</ele><time>2026-03-29T08:05:30.187Z</time></trkpt><trkpt lat="45.0998053" lon="8.7534757"><ele>90.0</ele><time>2026-03-29T08:05:31.189Z</time></trkpt><trkpt lat="45.0995662" lon="8.7534382"><ele>90.0</ele><time>2026-03-29T08:05:32.187Z</time></trkpt><trkpt lat="45.0993255" lon="8.7534005"><ele>90.0</ele><time>2026-03-29T08:05:33.187Z</time></trkpt><trkpt lat="45.0990838" lon="8.7533617"><ele>90.5</ele><time>2026-03-29T08:05:34.186Z</time></trkpt><trkpt lat="45.0988413" lon="8.753322"><ele>91.0</ele><time>2026-03-29T08:05:35.185Z</time></trkpt><trkpt lat="45.0985982" lon="8.7532812"><ele>91.0</ele><time>2026-03-29T08:05:36.188Z</time></trkpt><trkpt lat="45.0983537" lon="8.75324"><ele>91.0</ele><time>2026-03-29T08:05:37.185Z</time></trkpt><trkpt lat="45.0981082" lon="8.7531997"><ele>90.5</ele><time>2026-03-29T08:05:38.188Z</time></trkpt><trkpt lat="45.0978612" lon="8.7531607"><ele>90.0</ele><time>2026-03-29T08:05:39.185Z</time></trkpt><trkpt lat="45.0976128" lon="8.7531222"><ele>90.0</ele><time>2026-03-29T08:05:40.186Z</time></trkpt><trkpt lat="45.0973635" lon="8.7530833"><ele>90.0</ele><time>2026-03-29T08:05:41.186Z</time></trkpt><trkpt lat="45.0971125" lon="8.7530437"><ele>90.0</ele><time>2026-03-29T08:05:42.189Z</time></trkpt><trkpt lat="45.0968583" lon="8.7530035"><ele>90.0</ele><time>2026-03-29T08:05:43.187Z</time></trkpt><trkpt lat="45.0966013" lon="8.7529632"><ele>90.0</ele><time>2026-03-29T08:05:44.186Z</time></trkpt><trkpt lat="45.0963418" lon="8.7529225"><ele>90.0</ele><time>2026-03-29T08:05:45.187Z</time></trkpt><trkpt lat="45.0960807" lon="8.7528808"><ele>90.0</ele><time>2026-03-29T08:05:46.186Z</time></trkpt><trkpt lat="45.0958177" lon="8.7528377"><ele>90.0</ele><time>2026-03-29T08:05:47.184Z</time></trkpt><trkpt lat="45.0955523" lon="8.752795"><ele>90.0</ele><time>2026-03-29T08:05:48.184Z</time></trkpt><trkpt lat="45.0952865" lon="8.7527523"><ele>90.0</ele><time>2026-03-29T08:05:49.183Z</time></trkpt><trkpt lat="45.0950218" lon="8.7527095"><ele>90.0</ele><time>2026-03-29T08:05:50.183Z</time></trkpt><trkpt lat="45.0947583" lon="8.7526665"><ele>90.0</ele><time>2026-03-29T08:05:51.184Z</time></trkpt><trkpt lat="45.0944963" lon="8.752625"><ele>90.0</ele><time>2026-03-29T08:05:52.186Z</time></trkpt><trkpt lat="45.0942368" lon="8.7525853"><ele>90.0</ele><time>2026-03-29T08:05:53.186Z</time></trkpt><trkpt lat="45.093991" lon="8.7525482"><ele>90.0</ele><time>2026-03-29T08:05:54.186Z</time></trkpt><trkpt lat="45.0937617" lon="8.7525133"><ele>90.0</ele><time>2026-03-29T08:05:55.186Z</time></trkpt><trkpt lat="45.093549" lon="8.7524805"><ele>90.0</ele><time>2026-03-29T08:05:56.186Z</time></trkpt><trkpt lat="45.0933515" lon="8.7524488"><ele>89.66666666666667</ele><time>2026-03-29T08:05:57.186Z</time></trkpt><trkpt lat="45.0931685" lon="8.7524162"><ele>89.33333333333334</ele><time>2026-03-29T08:05:58.186Z</time></trkpt><trkpt lat="45.0929987" lon="8.7523767"><ele>89.0</ele><time>2026-03-29T08:05:59.186Z</time></trkpt><trkpt lat="45.0928403" lon="8.7523245"><ele>89.0</ele><time>2026-03-29T08:06:00.186Z</time></trkpt><trkpt lat="45.0926942" lon="8.75226"><ele>89.0</ele><time>2026-03-29T08:06:01.186Z</time></trkpt><trkpt lat="45.0925567" lon="8.752187"><ele>89.0</ele><time>2026-03-29T08:06:02.186Z</time></trkpt><trkpt lat="45.0924313" lon="8.7521147"><ele>89.0</ele><time>2026-03-29T08:06:03.186Z</time></trkpt><trkpt lat="45.0923075" lon="8.7520483"><ele>89.66666666666667</ele><time>2026-03-29T08:06:04.188Z</time></trkpt><trkpt lat="45.0921758" lon="8.7519985"><ele>90.33333333333333</ele><time>2026-03-29T08:06:05.186Z</time></trkpt><trkpt lat="45.0920273" lon="8.7519718"><ele>91.0</ele><time>2026-03-29T08:06:06.186Z</time></trkpt><trkpt lat="45.0918577" lon="8.7519718"><ele>91.0</ele><time>2026-03-29T08:06:07.189Z</time></trkpt><trkpt lat="45.0916678" lon="8.7519913"><ele>91.0</ele><time>2026-03-29T08:06:08.187Z</time></trkpt><trkpt lat="45.0914697" lon="8.7520177"><ele>91.0</ele><time>2026-03-29T08:06:09.186Z</time></trkpt><trkpt lat="45.0912657" lon="8.7520385"><ele>91.0</ele><time>2026-03-29T08:06:10.187Z</time></trkpt><trkpt lat="45.0910518" lon="8.7520385"><ele>91.0</ele><time>2026-03-29T08:06:11.184Z</time></trkpt><trkpt lat="45.0908307" lon="8.7520085"><ele>91.0</ele><time>2026-03-29T08:06:12.184Z</time></trkpt><trkpt lat="45.090612" lon="8.751955"><ele>90.5</ele><time>2026-03-29T08:06:13.185Z</time></trkpt><trkpt lat="45.090391" lon="8.7518788"><ele>90.0</ele><time>2026-03-29T08:06:14.185Z</time></trkpt><trkpt lat="45.0901687" lon="8.7517783"><ele>90.0</ele><time>2026-03-29T08:06:15.185Z</time></trkpt><trkpt lat="45.0899487" lon="8.7516528"><ele>90.0</ele><time>2026-03-29T08:06:16.186Z</time></trkpt><trkpt lat="45.0897325" lon="8.7515023"><ele>90.0</ele><time>2026-03-29T08:06:17.186Z</time></trkpt><trkpt lat="45.0895223" lon="8.7513288"><ele>90.0</ele><time>2026-03-29T08:06:18.186Z</time></trkpt><trkpt lat="45.0893198" lon="8.7511335"><ele>90.0</ele><time>2026-03-29T08:06:19.186Z</time></trkpt><trkpt lat="45.0891262" lon="8.7509173"><ele>90.0</ele><time>2026-03-29T08:06:20.186Z</time></trkpt><trkpt lat="45.0889425" lon="8.7506823"><ele>90.0</ele><time>2026-03-29T08:06:21.187Z</time></trkpt><trkpt lat="45.0887693" lon="8.75043"><ele>90.0</ele><time>2026-03-29T08:06:22.188Z</time></trkpt><trkpt lat="45.0886085" lon="8.7501598"><ele>90.0</ele><time>2026-03-29T08:06:23.187Z</time></trkpt><trkpt lat="45.0884622" lon="8.7498718"><ele>90.0</ele><time>2026-03-29T08:06:24.188Z</time></trkpt><trkpt lat="45.0883303" lon="8.749569"><ele>90.0</ele><time>2026-03-29T08:06:25.19Z</time></trkpt><trkpt lat="45.0882142" lon="8.7492533"><ele>90.0</ele><time>2026-03-29T08:06:26.188Z</time></trkpt><trkpt lat="45.0881158" lon="8.748925"><ele>90.0</ele><time>2026-03-29T08:06:27.187Z</time></trkpt><trkpt lat="45.0880348" lon="8.7485865"><ele>90.0</ele><time>2026-03-29T08:06:28.187Z</time></trkpt><trkpt lat="45.087966" lon="8.74824"><ele>90.5</ele><time>2026-03-29T08:06:29.187Z</time></trkpt><trkpt lat="45.0879063" lon="8.747889"><ele>91.0</ele><time>2026-03-29T08:06:30.187Z</time></trkpt><trkpt lat="45.0878515" lon="8.7475345"><ele>91.0</ele><time>2026-03-29T08:06:31.188Z</time></trkpt><trkpt lat="45.0877973" lon="8.747179"><ele>91.0</ele><time>2026-03-29T08:06:32.187Z</time></trkpt><trkpt lat="45.0877428" lon="8.7468237"><ele>90.5</ele><time>2026-03-29T08:06:33.189Z</time></trkpt><trkpt lat="45.0876887" lon="8.7464685"><ele>90.0</ele><time>2026-03-29T08:06:34.187Z</time></trkpt><trkpt lat="45.0876347" lon="8.746113"><ele>90.0</ele><time>2026-03-29T08:06:35.186Z</time></trkpt><trkpt lat="45.0875807" lon="8.7457565"><ele>90.0</ele><time>2026-03-29T08:06:36.184Z</time></trkpt><trkpt lat="45.0875272" lon="8.7453987"><ele>90.0</ele><time>2026-03-29T08:06:37.185Z</time></trkpt><trkpt lat="45.0874733" lon="8.745039"><ele>90.0</ele><time>2026-03-29T08:06:38.184Z</time></trkpt><trkpt lat="45.087419" lon="8.7446785"><ele>90.0</ele><time>2026-03-29T08:06:39.184Z</time></trkpt><trkpt lat="45.0873645" lon="8.7443173"><ele>90.0</ele><time>2026-03-29T08:06:40.187Z</time></trkpt><trkpt lat="45.0873097" lon="8.7439555"><ele>90.0</ele><time>2026-03-29T08:06:41.186Z</time></trkpt><trkpt lat="45.0872545" lon="8.7435928"><ele>90.0</ele><time>2026-03-29T08:06:42.185Z</time></trkpt><trkpt lat="45.0871982" lon="8.7432288"><ele>90.0</ele><time>2026-03-29T08:06:43.186Z</time></trkpt><trkpt lat="45.0871405" lon="8.7428635"><ele>90.0</ele><time>2026-03-29T08:06:44.185Z</time></trkpt><trkpt lat="45.0870837" lon="8.742498"><ele>90.0</ele><time>2026-03-29T08:06:45.187Z</time></trkpt><trkpt lat="45.0870278" lon="8.7421325"><ele>90.0</ele><time>2026-03-29T08:06:46.186Z</time></trkpt><trkpt lat="45.0869723" lon="8.741766"><ele>89.5</ele><time>2026-03-29T08:06:47.186Z</time></trkpt><trkpt lat="45.0869162" lon="8.741399"><ele>89.0</ele><time>2026-03-29T08:06:48.187Z</time></trkpt><trkpt lat="45.0868592" lon="8.7410322"><ele>89.0</ele><time>2026-03-29T08:06:49.188Z</time></trkpt><trkpt lat="45.0868032" lon="8.7406632"><ele>89.0</ele><time>2026-03-29T08:06:50.186Z</time></trkpt><trkpt lat="45.0867475" lon="8.7402933"><ele>89.0</ele><time>2026-03-29T08:06:51.186Z</time></trkpt><trkpt lat="45.086691" lon="8.7399222"><ele>89.0</ele><time>2026-03-29T08:06:52.186Z</time></trkpt><trkpt lat="45.0866342" lon="8.7395497"><ele>89.5</ele><time>2026-03-29T08:06:53.186Z</time></trkpt><trkpt lat="45.0865773" lon="8.7391762"><ele>90.0</ele><time>2026-03-29T08:06:54.186Z</time></trkpt><trkpt lat="45.0865208" lon="8.7388025"><ele>89.5</ele><time>2026-03-29T08:06:55.188Z</time></trkpt><trkpt lat="45.0864645" lon="8.7384288"><ele>89.0</ele><time>2026-03-29T08:06:56.186Z</time></trkpt><trkpt lat="45.0864072" lon="8.7380548"><ele>88.5</ele><time>2026-03-29T08:06:57.186Z</time></trkpt><trkpt lat="45.0863498" lon="8.7376802"><ele>88.0</ele><time>2026-03-29T08:06:58.186Z</time></trkpt><trkpt lat="45.0862928" lon="8.7373057"><ele>88.0</ele><time>2026-03-29T08:06:59.186Z</time></trkpt><trkpt lat="45.0862363" lon="8.736932"><ele>88.0</ele><time>2026-03-29T08:07:00.184Z</time></trkpt><trkpt lat="45.0861788" lon="8.7365592"><ele>88.5</ele><time>2026-03-29T08:07:01.185Z</time></trkpt><trkpt lat="45.0861223" lon="8.736186"><ele>89.0</ele><time>2026-03-29T08:07:02.184Z</time></trkpt><trkpt lat="45.0860662" lon="8.7358132"><ele>89.0</ele><time>2026-03-29T08:07:03.184Z</time></trkpt><trkpt lat="45.0860093" lon="8.7354412"><ele>89.0</ele><time>2026-03-29T08:07:04.188Z</time></trkpt><trkpt lat="45.0859517" lon="8.73507"><ele>89.0</ele><time>2026-03-29T08:07:05.186Z</time></trkpt><trkpt lat="45.0858943" lon="8.7346995"><ele>89.0</ele><time>2026-03-29T08:07:06.188Z</time></trkpt><trkpt lat="45.0858377" lon="8.7343292"><ele>89.0</ele><time>2026-03-29T08:07:07.189Z</time></trkpt><trkpt lat="45.0857815" lon="8.7339588"><ele>89.0</ele><time>2026-03-29T08:07:08.187Z</time></trkpt><trkpt lat="45.0857248" lon="8.7335878"><ele>89.5</ele><time>2026-03-29T08:07:09.187Z</time></trkpt><trkpt lat="45.0856683" lon="8.7332157"><ele>90.0</ele><time>2026-03-29T08:07:10.186Z</time></trkpt><trkpt lat="45.0856113" lon="8.7328418"><ele>89.5</ele><time>2026-03-29T08:07:11.187Z</time></trkpt><trkpt lat="45.0855528" lon="8.7324667"><ele>89.0</ele><time>2026-03-29T08:07:12.187Z</time></trkpt><trkpt lat="45.0854945" lon="8.7320917"><ele>88.5</ele><time>2026-03-29T08:07:13.187Z</time></trkpt><trkpt lat="45.0854373" lon="8.731717"><ele>88.0</ele><time>2026-03-29T08:07:14.186Z</time></trkpt><trkpt lat="45.0853805" lon="8.7313438"><ele>89.5</ele><time>2026-03-29T08:07:15.187Z</time></trkpt><trkpt lat="45.0853232" lon="8.7309722"><ele>91.0</ele><time>2026-03-29T08:07:16.188Z</time></trkpt><trkpt lat="45.0852655" lon="8.730602"><ele>91.0</ele><time>2026-03-29T08:07:17.185Z</time></trkpt><trkpt lat="45.0852092" lon="8.7302328"><ele>91.0</ele><time>2026-03-29T08:07:18.186Z</time></trkpt><trkpt lat="45.0851538" lon="8.7298645"><ele>91.5</ele><time>2026-03-29T08:07:19.187Z</time></trkpt><trkpt lat="45.0850985" lon="8.7294977"><ele>92.0</ele><time>2026-03-29T08:07:20.187Z</time></trkpt><trkpt lat="45.085043" lon="8.7291327"><ele>91.0</ele><time>2026-03-29T08:07:21.187Z</time></trkpt><trkpt lat="45.0849875" lon="8.728769"><ele>90.0</ele><time>2026-03-29T08:07:22.188Z</time></trkpt><trkpt lat="45.0849317" lon="8.7284068"><ele>90.0</ele><time>2026-03-29T08:07:23.186Z</time></trkpt><trkpt lat="45.0848748" lon="8.7280458"><ele>90.0</ele><time>2026-03-29T08:07:24.185Z</time></trkpt><trkpt lat="45.0848183" lon="8.7276852"><ele>90.0</ele><time>2026-03-29T08:07:25.185Z</time></trkpt><trkpt lat="45.0847635" lon="8.7273248"><ele>90.0</ele><time>2026-03-29T08:07:26.184Z</time></trkpt><trkpt lat="45.0847095" lon="8.7269653"><ele>90.5</ele><time>2026-03-29T08:07:27.184Z</time></trkpt><trkpt lat="45.0846548" lon="8.7266065"><ele>91.0</ele><time>2026-03-29T08:07:28.184Z</time></trkpt><trkpt lat="45.0846002" lon="8.7262482"><ele>91.5</ele><time>2026-03-29T08:07:29.185Z</time></trkpt><trkpt lat="45.084546" lon="8.7258898"><ele>92.0</ele><time>2026-03-29T08:07:30.185Z</time></trkpt><trkpt lat="45.0844917" lon="8.7255312"><ele>92.5</ele><time>2026-03-29T08:07:31.187Z</time></trkpt><trkpt lat="45.084437" lon="8.7251717"><ele>93.0</ele><time>2026-03-29T08:07:32.186Z</time></trkpt><trkpt lat="45.0843817" lon="8.7248118"><ele>93.0</ele><time>2026-03-29T08:07:33.187Z</time></trkpt><trkpt lat="45.084326" lon="8.7244517"><ele>93.0</ele><time>2026-03-29T08:07:34.187Z</time></trkpt><trkpt lat="45.0842698" lon="8.7240933"><ele>93.0</ele><time>2026-03-29T08:07:35.186Z</time></trkpt><trkpt lat="45.0842135" lon="8.7237362"><ele>93.0</ele><time>2026-03-29T08:07:36.189Z</time></trkpt><trkpt lat="45.0841585" lon="8.7233792"><ele>93.0</ele><time>2026-03-29T08:07:37.187Z</time></trkpt><trkpt lat="45.0841048" lon="8.7230232"><ele>93.0</ele><time>2026-03-29T08:07:38.186Z</time></trkpt><trkpt lat="45.0840537" lon="8.722668"><ele>91.5</ele><time>2026-03-29T08:07:39.186Z</time></trkpt><trkpt lat="45.0840048" lon="8.7223147"><ele>90.0</ele><time>2026-03-29T08:07:40.188Z</time></trkpt><trkpt lat="45.083958" lon="8.7219643"><ele>90.5</ele><time>2026-03-29T08:07:41.186Z</time></trkpt><trkpt lat="45.0839113" lon="8.7216208"><ele>91.0</ele><time>2026-03-29T08:07:42.187Z</time></trkpt><trkpt lat="45.083864" lon="8.7213"><ele>91.33333333333333</ele><time>2026-03-29T08:07:43.188Z</time></trkpt><trkpt lat="45.0838115" lon="8.721002"><ele>91.66666666666667</ele><time>2026-03-29T08:07:44.187Z</time></trkpt><trkpt lat="45.0837425" lon="8.7207155"><ele>92.0</ele><time>2026-03-29T08:07:45.187Z</time></trkpt><trkpt lat="45.0836457" lon="8.720433"><ele>91.0</ele><time>2026-03-29T08:07:46.188Z</time></trkpt><trkpt lat="45.083516" lon="8.7201605"><ele>90.0</ele><time>2026-03-29T08:07:47.187Z</time></trkpt><trkpt lat="45.0833548" lon="8.7199028"><ele>90.5</ele><time>2026-03-29T08:07:48.188Z</time></trkpt><trkpt lat="45.0831692" lon="8.7196472"><ele>91.0</ele><time>2026-03-29T08:07:49.188Z</time></trkpt><trkpt lat="45.08297" lon="8.7193852"><ele>91.0</ele><time>2026-03-29T08:07:50.185Z</time></trkpt><trkpt lat="45.082767" lon="8.7191173"><ele>91.0</ele><time>2026-03-29T08:07:51.185Z</time></trkpt><trkpt lat="45.0825638" lon="8.7188465"><ele>90.5</ele><time>2026-03-29T08:07:52.185Z</time></trkpt><trkpt lat="45.082359" lon="8.7185772"><ele>90.0</ele><time>2026-03-29T08:07:53.188Z</time></trkpt><trkpt lat="45.0821542" lon="8.7183093"><ele>89.5</ele><time>2026-03-29T08:07:54.188Z</time></trkpt><trkpt lat="45.0819505" lon="8.7180433"><ele>89.0</ele><time>2026-03-29T08:07:55.189Z</time></trkpt><trkpt lat="45.081747" lon="8.71778"><ele>89.0</ele><time>2026-03-29T08:07:56.187Z</time></trkpt><trkpt lat="45.081544" lon="8.7175165"><ele>89.0</ele><time>2026-03-29T08:07:57.188Z</time></trkpt><trkpt lat="45.081342" lon="8.7172525"><ele>89.0</ele><time>2026-03-29T08:07:58.188Z</time></trkpt><trkpt lat="45.0811403" lon="8.7169893"><ele>89.0</ele><time>2026-03-29T08:07:59.186Z</time></trkpt><trkpt lat="45.0809383" lon="8.7167277"><ele>90.0</ele><time>2026-03-29T08:08:00.19Z</time></trkpt><trkpt lat="45.0807367" lon="8.7164677"><ele>91.0</ele><time>2026-03-29T08:08:01.187Z</time></trkpt><trkpt lat="45.080536" lon="8.7162095"><ele>90.5</ele><time>2026-03-29T08:08:02.186Z</time></trkpt><trkpt lat="45.0803382" lon="8.7159515"><ele>90.0</ele><time>2026-03-29T08:08:03.187Z</time></trkpt><trkpt lat="45.0801427" lon="8.7156948"><ele>90.0</ele><time>2026-03-29T08:08:04.188Z</time></trkpt><trkpt lat="45.079949" lon="8.7154408"><ele>90.0</ele><time>2026-03-29T08:08:05.186Z</time></trkpt><trkpt lat="45.0797558" lon="8.7151893"><ele>90.0</ele><time>2026-03-29T08:08:06.186Z</time></trkpt><trkpt lat="45.0795632" lon="8.7149398"><ele>90.0</ele><time>2026-03-29T08:08:07.187Z</time></trkpt><trkpt lat="45.0793717" lon="8.7146905"><ele>90.0</ele><time>2026-03-29T08:08:08.189Z</time></trkpt><trkpt lat="45.0791805" lon="8.7144415"><ele>90.0</ele><time>2026-03-29T08:08:09.187Z</time></trkpt><trkpt lat="45.0789888" lon="8.7141935"><ele>91.0</ele><time>2026-03-29T08:08:10.187Z</time></trkpt><trkpt lat="45.0787972" lon="8.7139455"><ele>92.0</ele><time>2026-03-29T08:08:11.186Z</time></trkpt><trkpt lat="45.078606" lon="8.713698"><ele>92.0</ele><time>2026-03-29T08:08:12.187Z</time></trkpt><trkpt lat="45.0784158" lon="8.7134495"><ele>92.0</ele><time>2026-03-29T08:08:13.186Z</time></trkpt><trkpt lat="45.0782262" lon="8.713201"><ele>92.0</ele><time>2026-03-29T08:08:14.183Z</time></trkpt><trkpt lat="45.0780363" lon="8.712953"><ele>92.0</ele><time>2026-03-29T08:08:15.184Z</time></trkpt><trkpt lat="45.0778465" lon="8.7127055"><ele>91.0</ele><time>2026-03-29T08:08:16.185Z</time></trkpt><trkpt lat="45.0776573" lon="8.7124593"><ele>90.0</ele><time>2026-03-29T08:08:17.187Z</time></trkpt><trkpt lat="45.0774772" lon="8.7122265"><ele>90.0</ele><time>2026-03-29T08:08:18.186Z</time></trkpt><trkpt lat="45.0773078" lon="8.7120087"><ele>90.0</ele><time>2026-03-29T08:08:19.189Z</time></trkpt><trkpt lat="45.0771463" lon="8.7117997"><ele>90.0</ele><time>2026-03-29T08:08:20.186Z</time></trkpt><trkpt lat="45.0769882" lon="8.7115943"><ele>90.33333333333333</ele><time>2026-03-29T08:08:21.187Z</time></trkpt><trkpt lat="45.0768328" lon="8.711393"><ele>90.66666666666666</ele><time>2026-03-29T08:08:22.187Z</time></trkpt><trkpt lat="45.0766835" lon="8.7111995"><ele>91.0</ele><time>2026-03-29T08:08:23.187Z</time></trkpt><trkpt lat="45.076543" lon="8.7110172"><ele>91.33333333333333</ele><time>2026-03-29T08:08:24.188Z</time></trkpt><trkpt lat="45.0764125" lon="8.7108448"><ele>91.66666666666667</ele><time>2026-03-29T08:08:25.187Z</time></trkpt><trkpt lat="45.0762963" lon="8.7106765"><ele>92.0</ele><time>2026-03-29T08:08:26.187Z</time></trkpt><trkpt lat="45.0761992" lon="8.7105038"><ele>92.0</ele><time>2026-03-29T08:08:27.186Z</time></trkpt><trkpt lat="45.0761232" lon="8.7103303"><ele>92.0</ele><time>2026-03-29T08:08:28.189Z</time></trkpt><trkpt lat="45.0760653" lon="8.7101627"><ele>92.0</ele><time>2026-03-29T08:08:29.186Z</time></trkpt><trkpt lat="45.0760188" lon="8.7100005"><ele>92.0</ele><time>2026-03-29T08:08:30.187Z</time></trkpt><trkpt lat="45.0759767" lon="8.7098333"><ele>92.5</ele><time>2026-03-29T08:08:31.186Z</time></trkpt><trkpt lat="45.0759335" lon="8.7096553"><ele>93.0</ele><time>2026-03-29T08:08:32.185Z</time></trkpt><trkpt lat="45.0758877" lon="8.7094617"><ele>93.5</ele><time>2026-03-29T08:08:33.186Z</time></trkpt><trkpt lat="45.0758395" lon="8.7092542"><ele>94.0</ele><time>2026-03-29T08:08:34.185Z</time></trkpt><trkpt lat="45.0757913" lon="8.7090368"><ele>94.0</ele><time>2026-03-29T08:08:35.185Z</time></trkpt><trkpt lat="45.075741" lon="8.7088147"><ele>94.0</ele><time>2026-03-29T08:08:36.185Z</time></trkpt><trkpt lat="45.0756928" lon="8.7085878"><ele>94.0</ele><time>2026-03-29T08:08:37.185Z</time></trkpt><trkpt lat="45.0756472" lon="8.7083672"><ele>94.0</ele><time>2026-03-29T08:08:38.183Z</time></trkpt><trkpt lat="45.0756038" lon="8.7081438"><ele>94.0</ele><time>2026-03-29T08:08:39.183Z</time></trkpt><trkpt lat="45.075562" lon="8.707918"><ele>94.0</ele><time>2026-03-29T08:08:40.183Z</time></trkpt><trkpt lat="45.075528" lon="8.7077018"><ele>93.75</ele><time>2026-03-29T08:08:41.182Z</time></trkpt><trkpt lat="45.0754992" lon="8.7075008"><ele>93.5</ele><time>2026-03-29T08:08:42.182Z</time></trkpt><trkpt lat="45.0754713" lon="8.7073063"><ele>93.25</ele><time>2026-03-29T08:08:43.184Z</time></trkpt><trkpt lat="45.0754392" lon="8.7071118"><ele>93.0</ele><time>2026-03-29T08:08:44.186Z</time></trkpt><trkpt lat="45.0753963" lon="8.7069163"><ele>92.33333333333333</ele><time>2026-03-29T08:08:45.183Z</time></trkpt><trkpt lat="45.0753373" lon="8.706716"><ele>91.66666666666666</ele><time>2026-03-29T08:08:46.185Z</time></trkpt><trkpt lat="45.0752622" lon="8.7065098"><ele>91.0</ele><time>2026-03-29T08:08:47.181Z</time></trkpt><trkpt lat="45.0751762" lon="8.7062882"><ele>90.33333333333333</ele><time>2026-03-29T08:08:48.181Z</time></trkpt><trkpt lat="45.0750873" lon="8.7060608"><ele>89.66666666666667</ele><time>2026-03-29T08:08:49.183Z</time></trkpt><trkpt lat="45.074991" lon="8.7058208"><ele>89.0</ele><time>2026-03-29T08:08:50.185Z</time></trkpt><trkpt lat="45.0748882" lon="8.7055653"><ele>89.0</ele><time>2026-03-29T08:08:51.183Z</time></trkpt><trkpt lat="45.0747825" lon="8.7053007"><ele>89.0</ele><time>2026-03-29T08:08:52.183Z</time></trkpt><trkpt lat="45.0746785" lon="8.705037"><ele>89.0</ele><time>2026-03-29T08:08:53.183Z</time></trkpt><trkpt lat="45.0745768" lon="8.7047818"><ele>89.0</ele><time>2026-03-29T08:08:54.186Z</time></trkpt><trkpt lat="45.0744737" lon="8.7045257"><ele>89.0</ele><time>2026-03-29T08:08:55.185Z</time></trkpt><trkpt lat="45.0743693" lon="8.7042652"><ele>89.0</ele><time>2026-03-29T08:08:56.184Z</time></trkpt><trkpt lat="45.0742633" lon="8.7039992"><ele>88.66666666666667</ele><time>2026-03-29T08:08:57.185Z</time></trkpt><trkpt lat="45.0741573" lon="8.7037305"><ele>88.33333333333333</ele><time>2026-03-29T08:08:58.185Z</time></trkpt><trkpt lat="45.0740537" lon="8.7034675"><ele>88.0</ele><time>2026-03-29T08:08:59.184Z</time></trkpt><trkpt lat="45.0739532" lon="8.7032152"><ele>88.0</ele><time>2026-03-29T08:09:00.186Z</time></trkpt><trkpt lat="45.073856" lon="8.7029738"><ele>88.0</ele><time>2026-03-29T08:09:01.185Z</time></trkpt><trkpt lat="45.0737632" lon="8.702743"><ele>88.0</ele><time>2026-03-29T08:09:02.183Z</time></trkpt><trkpt lat="45.0736742" lon="8.7025215"><ele>88.33333333333333</ele><time>2026-03-29T08:09:03.184Z</time></trkpt><trkpt lat="45.0735847" lon="8.7022993"><ele>88.66666666666667</ele><time>2026-03-29T08:09:04.182Z</time></trkpt><trkpt lat="45.0734863" lon="8.70206"><ele>89.0</ele><time>2026-03-29T08:09:05.182Z</time></trkpt><trkpt lat="45.0733765" lon="8.7018005"><ele>88.0</ele><time>2026-03-29T08:09:06.182Z</time></trkpt><trkpt lat="45.0732548" lon="8.7015225"><ele>87.0</ele><time>2026-03-29T08:09:07.186Z</time></trkpt><trkpt lat="45.0731335" lon="8.7012225"><ele>86.5</ele><time>2026-03-29T08:09:08.183Z</time></trkpt><trkpt lat="45.073013" lon="8.7009028"><ele>86.0</ele><time>2026-03-29T08:09:09.185Z</time></trkpt><trkpt lat="45.07289" lon="8.70057"><ele>86.5</ele><time>2026-03-29T08:09:10.185Z</time></trkpt><trkpt lat="45.0727628" lon="8.700232"><ele>87.0</ele><time>2026-03-29T08:09:11.185Z</time></trkpt><trkpt lat="45.0726318" lon="8.6998935"><ele>87.0</ele><time>2026-03-29T08:09:12.186Z</time></trkpt><trkpt lat="45.072498" lon="8.6995552"><ele>87.0</ele><time>2026-03-29T08:09:13.187Z</time></trkpt><trkpt lat="45.072363" lon="8.6992173"><ele>87.0</ele><time>2026-03-29T08:09:14.186Z</time></trkpt><trkpt lat="45.0722283" lon="8.69888"><ele>87.0</ele><time>2026-03-29T08:09:15.184Z</time></trkpt><trkpt lat="45.0720953" lon="8.6985428"><ele>86.5</ele><time>2026-03-29T08:09:16.185Z</time></trkpt><trkpt lat="45.071962" lon="8.6982072"><ele>86.0</ele><time>2026-03-29T08:09:17.184Z</time></trkpt><trkpt lat="45.0718297" lon="8.6978727"><ele>86.5</ele><time>2026-03-29T08:09:18.184Z</time></trkpt><trkpt lat="45.0716983" lon="8.6975408"><ele>87.0</ele><time>2026-03-29T08:09:19.184Z</time></trkpt><trkpt lat="45.0715683" lon="8.6972128"><ele>87.0</ele><time>2026-03-29T08:09:20.184Z</time></trkpt><trkpt lat="45.0714393" lon="8.6968883"><ele>87.0</ele><time>2026-03-29T08:09:21.185Z</time></trkpt><trkpt lat="45.0713115" lon="8.6965673"><ele>87.0</ele><time>2026-03-29T08:09:22.186Z</time></trkpt><trkpt lat="45.0711847" lon="8.6962503"><ele>87.0</ele><time>2026-03-29T08:09:23.184Z</time></trkpt><trkpt lat="45.071058" lon="8.695935"><ele>87.0</ele><time>2026-03-29T08:09:24.189Z</time></trkpt><trkpt lat="45.0709318" lon="8.6956207"><ele>87.0</ele><time>2026-03-29T08:09:25.185Z</time></trkpt><trkpt lat="45.0708067" lon="8.6953067"><ele>86.5</ele><time>2026-03-29T08:09:26.185Z</time></trkpt><trkpt lat="45.0706828" lon="8.6949942"><ele>86.0</ele><time>2026-03-29T08:09:27.184Z</time></trkpt><trkpt lat="45.0705595" lon="8.6946828"><ele>86.5</ele><time>2026-03-29T08:09:28.183Z</time></trkpt><trkpt lat="45.0704362" lon="8.6943725"><ele>87.0</ele><time>2026-03-29T08:09:29.183Z</time></trkpt><trkpt lat="45.0703127" lon="8.6940618"><ele>87.0</ele><time>2026-03-29T08:09:30.184Z</time></trkpt><trkpt lat="45.0701882" lon="8.6937515"><ele>87.0</ele><time>2026-03-29T08:09:31.184Z</time></trkpt><trkpt lat="45.0700638" lon="8.6934412"><ele>87.0</ele><time>2026-03-29T08:09:32.184Z</time></trkpt><trkpt lat="45.0699403" lon="8.693129"><ele>87.0</ele><time>2026-03-29T08:09:33.185Z</time></trkpt><trkpt lat="45.069817" lon="8.692815"><ele>87.0</ele><time>2026-03-29T08:09:34.187Z</time></trkpt><trkpt lat="45.069693" lon="8.6925005"><ele>87.0</ele><time>2026-03-29T08:09:35.189Z</time></trkpt><trkpt lat="45.0695678" lon="8.6921867"><ele>88.0</ele><time>2026-03-29T08:09:36.184Z</time></trkpt><trkpt lat="45.0694423" lon="8.6918725"><ele>89.0</ele><time>2026-03-29T08:09:37.186Z</time></trkpt><trkpt lat="45.0693167" lon="8.6915587"><ele>89.0</ele><time>2026-03-29T08:09:38.184Z</time></trkpt><trkpt lat="45.0691913" lon="8.6912457"><ele>89.0</ele><time>2026-03-29T08:09:39.186Z</time></trkpt><trkpt lat="45.0690667" lon="8.6909337"><ele>87.0</ele><time>2026-03-29T08:09:40.184Z</time></trkpt><trkpt lat="45.0689428" lon="8.690623"><ele>85.0</ele><time>2026-03-29T08:09:41.184Z</time></trkpt><trkpt lat="45.0688193" lon="8.6903128"><ele>85.5</ele><time>2026-03-29T08:09:42.184Z</time></trkpt><trkpt lat="45.0686953" lon="8.6900033"><ele>86.0</ele><time>2026-03-29T08:09:43.184Z</time></trkpt><trkpt lat="45.0685708" lon="8.6896932"><ele>86.5</ele><time>2026-03-29T08:09:44.185Z</time></trkpt><trkpt lat="45.0684467" lon="8.689381"><ele>87.0</ele><time>2026-03-29T08:09:45.184Z</time></trkpt><trkpt lat="45.0683212" lon="8.6890688"><ele>86.5</ele><time>2026-03-29T08:09:46.183Z</time></trkpt><trkpt lat="45.0681953" lon="8.6887573"><ele>86.0</ele><time>2026-03-29T08:09:47.184Z</time></trkpt><trkpt lat="45.0680707" lon="8.6884462"><ele>86.0</ele><time>2026-03-29T08:09:48.185Z</time></trkpt><trkpt lat="45.0679453" lon="8.6881353"><ele>86.0</ele><time>2026-03-29T08:09:49.185Z</time></trkpt><trkpt lat="45.0678207" lon="8.6878225"><ele>85.5</ele><time>2026-03-29T08:09:50.185Z</time></trkpt><trkpt lat="45.0676958" lon="8.6875088"><ele>85.0</ele><time>2026-03-29T08:09:51.188Z</time></trkpt><trkpt lat="45.067571" lon="8.687195"><ele>85.0</ele><time>2026-03-29T08:09:52.184Z</time></trkpt><trkpt lat="45.0674462" lon="8.6868812"><ele>85.0</ele><time>2026-03-29T08:09:53.182Z</time></trkpt><trkpt lat="45.0673215" lon="8.6865667"><ele>85.0</ele><time>2026-03-29T08:09:54.182Z</time></trkpt><trkpt lat="45.0671975" lon="8.6862512"><ele>85.0</ele><time>2026-03-29T08:09:55.182Z</time></trkpt><trkpt lat="45.0670735" lon="8.6859367"><ele>85.0</ele><time>2026-03-29T08:09:56.184Z</time></trkpt><trkpt lat="45.0669485" lon="8.6856232"><ele>85.0</ele><time>2026-03-29T08:09:57.185Z</time></trkpt><trkpt lat="45.066822" lon="8.6853105"><ele>85.0</ele><time>2026-03-29T08:09:58.186Z</time></trkpt><trkpt lat="45.066696" lon="8.684998"><ele>85.0</ele><time>2026-03-29T08:09:59.184Z</time></trkpt><trkpt lat="45.0665712" lon="8.6846848"><ele>85.0</ele><time>2026-03-29T08:10:00.184Z</time></trkpt><trkpt lat="45.0664463" lon="8.6843707"><ele>85.0</ele><time>2026-03-29T08:10:01.184Z</time></trkpt><trkpt lat="45.0663218" lon="8.684057"><ele>85.0</ele><time>2026-03-29T08:10:02.184Z</time></trkpt><trkpt lat="45.0661977" lon="8.6837443"><ele>85.0</ele><time>2026-03-29T08:10:03.185Z</time></trkpt><trkpt lat="45.0660735" lon="8.6834328"><ele>86.0</ele><time>2026-03-29T08:10:04.187Z</time></trkpt><trkpt lat="45.065949" lon="8.6831225"><ele>87.0</ele><time>2026-03-29T08:10:05.185Z</time></trkpt><trkpt lat="45.0658245" lon="8.6828133"><ele>86.5</ele><time>2026-03-29T08:10:06.185Z</time></trkpt><trkpt lat="45.0657012" lon="8.6825043"><ele>86.0</ele><time>2026-03-29T08:10:07.185Z</time></trkpt><trkpt lat="45.0655792" lon="8.6821958"><ele>85.5</ele><time>2026-03-29T08:10:08.184Z</time></trkpt><trkpt lat="45.065459" lon="8.6818893"><ele>85.0</ele><time>2026-03-29T08:10:09.185Z</time></trkpt><trkpt lat="45.0653382" lon="8.6815852"><ele>85.0</ele><time>2026-03-29T08:10:10.185Z</time></trkpt><trkpt lat="45.065217" lon="8.6812835"><ele>85.0</ele><time>2026-03-29T08:10:11.184Z</time></trkpt><trkpt lat="45.0650963" lon="8.6809818"><ele>85.0</ele><time>2026-03-29T08:10:12.186Z</time></trkpt><trkpt lat="45.0649758" lon="8.6806795"><ele>85.0</ele><time>2026-03-29T08:10:13.185Z</time></trkpt><trkpt lat="45.064855" lon="8.6803762"><ele>86.0</ele><time>2026-03-29T08:10:14.184Z</time></trkpt><trkpt lat="45.064733" lon="8.6800712"><ele>87.0</ele><time>2026-03-29T08:10:15.185Z</time></trkpt><trkpt lat="45.0646108" lon="8.6797642"><ele>87.0</ele><time>2026-03-29T08:10:16.184Z</time></trkpt><trkpt lat="45.064489" lon="8.679456"><ele>87.0</ele><time>2026-03-29T08:10:17.182Z</time></trkpt><trkpt lat="45.0643667" lon="8.6791473"><ele>87.5</ele><time>2026-03-29T08:10:18.183Z</time></trkpt><trkpt lat="45.0642437" lon="8.6788385"><ele>88.0</ele><time>2026-03-29T08:10:19.181Z</time></trkpt><trkpt lat="45.0641207" lon="8.6785287"><ele>87.5</ele><time>2026-03-29T08:10:20.182Z</time></trkpt><trkpt lat="45.063998" lon="8.678218"><ele>87.0</ele><time>2026-03-29T08:10:21.185Z</time></trkpt><trkpt lat="45.0638752" lon="8.6779075"><ele>87.5</ele><time>2026-03-29T08:10:22.185Z</time></trkpt><trkpt lat="45.0637513" lon="8.6775993"><ele>88.0</ele><time>2026-03-29T08:10:23.184Z</time></trkpt><trkpt lat="45.063628" lon="8.6772922"><ele>88.0</ele><time>2026-03-29T08:10:24.183Z</time></trkpt><trkpt lat="45.0635055" lon="8.6769863"><ele>88.0</ele><time>2026-03-29T08:10:25.184Z</time></trkpt><trkpt lat="45.0633838" lon="8.6766815"><ele>87.5</ele><time>2026-03-29T08:10:26.183Z</time></trkpt><trkpt lat="45.0632627" lon="8.6763783"><ele>87.0</ele><time>2026-03-29T08:10:27.184Z</time></trkpt><trkpt lat="45.0631457" lon="8.6760845"><ele>87.66666666666667</ele><time>2026-03-29T08:10:28.184Z</time></trkpt><trkpt lat="45.0630368" lon="8.6758092"><ele>88.33333333333334</ele><time>2026-03-29T08:10:29.183Z</time></trkpt><trkpt lat="45.0629372" lon="8.6755552"><ele>89.0</ele><time>2026-03-29T08:10:30.184Z</time></trkpt><trkpt lat="45.0628435" lon="8.6753183"><ele>88.66666666666667</ele><time>2026-03-29T08:10:31.183Z</time></trkpt><trkpt lat="45.0627545" lon="8.675097"><ele>88.33333333333333</ele><time>2026-03-29T08:10:32.184Z</time></trkpt><trkpt lat="45.062672" lon="8.6748923"><ele>88.0</ele><time>2026-03-29T08:10:33.184Z</time></trkpt><trkpt lat="45.0625987" lon="8.6747077"><ele>88.0</ele><time>2026-03-29T08:10:34.185Z</time></trkpt><trkpt lat="45.0625337" lon="8.6745397"><ele>88.0</ele><time>2026-03-29T08:10:35.185Z</time></trkpt><trkpt lat="45.0624672" lon="8.6743665"><ele>88.0</ele><time>2026-03-29T08:10:36.185Z</time></trkpt><trkpt lat="45.0623957" lon="8.674186"><ele>88.0</ele><time>2026-03-29T08:10:37.185Z</time></trkpt><trkpt lat="45.0623195" lon="8.6740005"><ele>88.5</ele><time>2026-03-29T08:10:38.183Z</time></trkpt><trkpt lat="45.0622475" lon="8.6738257"><ele>89.0</ele><time>2026-03-29T08:10:39.183Z</time></trkpt><trkpt lat="45.062181" lon="8.6736622"><ele>89.5</ele><time>2026-03-29T08:10:40.184Z</time></trkpt><trkpt lat="45.0621197" lon="8.6735057"><ele>90.0</ele><time>2026-03-29T08:10:41.182Z</time></trkpt><trkpt lat="45.0620637" lon="8.6733638"><ele>90.0</ele><time>2026-03-29T08:10:42.182Z</time></trkpt><trkpt lat="45.0620122" lon="8.673238"><ele>90.0</ele><time>2026-03-29T08:10:43.182Z</time></trkpt><trkpt lat="45.0619642" lon="8.6731203"><ele>90.0</ele><time>2026-03-29T08:10:44.181Z</time></trkpt><trkpt lat="45.0619153" lon="8.6729963"><ele>90.0</ele><time>2026-03-29T08:10:45.183Z</time></trkpt><trkpt lat="45.0618648" lon="8.6728675"><ele>90.0</ele><time>2026-03-29T08:10:46.182Z</time></trkpt><trkpt lat="45.0618112" lon="8.6727335"><ele>89.8</ele><time>2026-03-29T08:10:47.183Z</time></trkpt><trkpt lat="45.0617573" lon="8.6725997"><ele>89.6</ele><time>2026-03-29T08:10:48.184Z</time></trkpt><trkpt lat="45.0617093" lon="8.6724768"><ele>89.4</ele><time>2026-03-29T08:10:49.183Z</time></trkpt><trkpt lat="45.0616678" lon="8.6723678"><ele>89.2</ele><time>2026-03-29T08:10:50.184Z</time></trkpt><trkpt lat="45.0616347" lon="8.6722735"><ele>89.0</ele><time>2026-03-29T08:10:51.184Z</time></trkpt><trkpt lat="45.0615848" lon="8.6721265"><ele>89.33333333333334</ele><time>2026-03-29T08:10:53.184Z</time></trkpt><trkpt lat="45.0615515" lon="8.6720228"><ele>89.66666666666667</ele><time>2026-03-29T08:10:59.185Z</time></trkpt><trkpt lat="45.0614817" lon="8.6719293"><ele>90.0</ele><time>2026-03-29T08:11:02.185Z</time></trkpt><trkpt lat="45.0614093" lon="8.6719097"><ele>90.33333333333333</ele><time>2026-03-29T08:11:03.187Z</time></trkpt><trkpt lat="45.0613245" lon="8.6719087"><ele>90.66666666666666</ele><time>2026-03-29T08:11:04.186Z</time></trkpt><trkpt lat="45.06125" lon="8.6719173"><ele>91.0</ele><time>2026-03-29T08:11:05.183Z</time></trkpt><trkpt lat="45.0611858" lon="8.6719192"><ele>91.0</ele><time>2026-03-29T08:11:06.182Z</time></trkpt><trkpt lat="45.0610917" lon="8.6718503"><ele>91.0</ele><time>2026-03-29T08:11:08.182Z</time></trkpt><trkpt lat="45.0610527" lon="8.671761"><ele>91.0</ele><time>2026-03-29T08:11:09.186Z</time></trkpt><trkpt lat="45.0610182" lon="8.6716487"><ele>91.0</ele><time>2026-03-29T08:11:10.184Z</time></trkpt><trkpt lat="45.0609908" lon="8.6715403"><ele>91.0</ele><time>2026-03-29T08:11:11.185Z</time></trkpt><trkpt lat="45.0609645" lon="8.6714433"><ele>91.0</ele><time>2026-03-29T08:11:12.185Z</time></trkpt><trkpt lat="45.060941" lon="8.6713467"><ele>91.0</ele><time>2026-03-29T08:11:13.187Z</time></trkpt><trkpt lat="45.0609163" lon="8.6712293"><ele>91.0</ele><time>2026-03-29T08:11:14.183Z</time></trkpt><trkpt lat="45.060889" lon="8.6711125"><ele>91.0</ele><time>2026-03-29T08:11:15.186Z</time></trkpt><trkpt lat="45.0608645" lon="8.671009"><ele>91.0</ele><time>2026-03-29T08:11:16.186Z</time></trkpt><trkpt lat="45.0608398" lon="8.6709052"><ele>91.0</ele><time>2026-03-29T08:11:17.184Z</time></trkpt><trkpt lat="45.0608132" lon="8.670796"><ele>91.0</ele><time>2026-03-29T08:11:18.185Z</time></trkpt><trkpt lat="45.0607833" lon="8.6706762"><ele>91.0</ele><time>2026-03-29T08:11:19.185Z</time></trkpt><trkpt lat="45.0607488" lon="8.6705478"><ele>91.0</ele><time>2026-03-29T08:11:20.184Z</time></trkpt><trkpt lat="45.060711" lon="8.6704157"><ele>91.0</ele><time>2026-03-29T08:11:21.184Z</time></trkpt><trkpt lat="45.0606682" lon="8.6702778"><ele>91.0</ele><time>2026-03-29T08:11:22.185Z</time></trkpt><trkpt lat="45.0606265" lon="8.6701428"><ele>91.0</ele><time>2026-03-29T08:11:23.185Z</time></trkpt><trkpt lat="45.0605808" lon="8.6700093"><ele>91.0</ele><time>2026-03-29T08:11:24.185Z</time></trkpt><trkpt lat="45.0605295" lon="8.669881"><ele>91.0</ele><time>2026-03-29T08:11:25.188Z</time></trkpt><trkpt lat="45.0604708" lon="8.669762"><ele>91.0</ele><time>2026-03-29T08:11:26.185Z</time></trkpt><trkpt lat="45.06041" lon="8.6696545"><ele>91.0</ele><time>2026-03-29T08:11:27.186Z</time></trkpt><trkpt lat="45.0603532" lon="8.66956"><ele>91.0</ele><time>2026-03-29T08:11:28.185Z</time></trkpt><trkpt lat="45.0603027" lon="8.6694747"><ele>90.8</ele><time>2026-03-29T08:11:29.186Z</time></trkpt><trkpt lat="45.0602643" lon="8.6693973"><ele>90.6</ele><time>2026-03-29T08:11:30.183Z</time></trkpt><trkpt lat="45.0602083" lon="8.669266"><ele>90.4</ele><time>2026-03-29T08:11:32.182Z</time></trkpt><trkpt lat="45.0601017" lon="8.6692017"><ele>90.2</ele><time>2026-03-29T08:11:34.185Z</time></trkpt><trkpt lat="45.0600223" lon="8.669192"><ele>90.0</ele><time>2026-03-29T08:11:35.184Z</time></trkpt><trkpt lat="45.0599295" lon="8.6691752"><ele>90.0</ele><time>2026-03-29T08:11:36.184Z</time></trkpt><trkpt lat="45.059835" lon="8.6691457"><ele>90.0</ele><time>2026-03-29T08:11:37.186Z</time></trkpt><trkpt lat="45.0597363" lon="8.669104"><ele>90.0</ele><time>2026-03-29T08:11:38.186Z</time></trkpt><trkpt lat="45.0596328" lon="8.6690605"><ele>90.0</ele><time>2026-03-29T08:11:39.185Z</time></trkpt><trkpt lat="45.0595288" lon="8.6690168"><ele>90.0</ele><time>2026-03-29T08:11:40.187Z</time></trkpt><trkpt lat="45.0594228" lon="8.6689717"><ele>90.0</ele><time>2026-03-29T08:11:41.185Z</time></trkpt><trkpt lat="45.0593167" lon="8.6689233"><ele>90.0</ele><time>2026-03-29T08:11:42.185Z</time></trkpt><trkpt lat="45.0592078" lon="8.668872"><ele>90.0</ele><time>2026-03-29T08:11:43.184Z</time></trkpt><trkpt lat="45.0590957" lon="8.66882"><ele>90.0</ele><time>2026-03-29T08:11:44.183Z</time></trkpt><trkpt lat="45.0589798" lon="8.6687688"><ele>90.25</ele><time>2026-03-29T08:11:45.184Z</time></trkpt><trkpt lat="45.0588613" lon="8.6687165"><ele>90.5</ele><time>2026-03-29T08:11:46.185Z</time></trkpt><trkpt lat="45.0587452" lon="8.6686625"><ele>90.75</ele><time>2026-03-29T08:11:47.184Z</time></trkpt><trkpt lat="45.0586227" lon="8.668607"><ele>91.0</ele><time>2026-03-29T08:11:48.183Z</time></trkpt><trkpt lat="45.0584965" lon="8.668551"><ele>91.0</ele><time>2026-03-29T08:11:49.185Z</time></trkpt><trkpt lat="45.0583592" lon="8.6684912"><ele>91.0</ele><time>2026-03-29T08:11:50.184Z</time></trkpt><trkpt lat="45.0582168" lon="8.6684283"><ele>91.0</ele><time>2026-03-29T08:11:51.186Z</time></trkpt><trkpt lat="45.0580737" lon="8.6683633"><ele>91.0</ele><time>2026-03-29T08:11:52.185Z</time></trkpt><trkpt lat="45.05793" lon="8.6682982"><ele>90.66666666666666</ele><time>2026-03-29T08:11:53.184Z</time></trkpt><trkpt lat="45.0577872" lon="8.6682328"><ele>90.33333333333333</ele><time>2026-03-29T08:11:54.183Z</time></trkpt><trkpt lat="45.05764" lon="8.6681687"><ele>90.0</ele><time>2026-03-29T08:11:55.183Z</time></trkpt><trkpt lat="45.0574863" lon="8.6681018"><ele>88.66666666666667</ele><time>2026-03-29T08:11:56.183Z</time></trkpt><trkpt lat="45.0573342" lon="8.6680352"><ele>87.33333333333334</ele><time>2026-03-29T08:11:57.183Z</time></trkpt><trkpt lat="45.0571915" lon="8.6679692"><ele>86.0</ele><time>2026-03-29T08:11:58.183Z</time></trkpt><trkpt lat="45.0570448" lon="8.667903"><ele>86.0</ele><time>2026-03-29T08:11:59.185Z</time></trkpt><trkpt lat="45.0568945" lon="8.667835"><ele>86.0</ele><time>2026-03-29T08:12:00.184Z</time></trkpt><trkpt lat="45.0567392" lon="8.6677668"><ele>86.0</ele><time>2026-03-29T08:12:01.184Z</time></trkpt><trkpt lat="45.0565675" lon="8.6677022"><ele>87.0</ele><time>2026-03-29T08:12:02.184Z</time></trkpt><trkpt lat="45.0563745" lon="8.667627"><ele>88.0</ele><time>2026-03-29T08:12:03.184Z</time></trkpt><trkpt lat="45.0561662" lon="8.6675352"><ele>89.0</ele><time>2026-03-29T08:12:04.184Z</time></trkpt><trkpt lat="45.055954" lon="8.6674362"><ele>89.5</ele><time>2026-03-29T08:12:05.185Z</time></trkpt><trkpt lat="45.0557305" lon="8.6673283"><ele>90.0</ele><time>2026-03-29T08:12:06.185Z</time></trkpt><trkpt lat="45.0554968" lon="8.6672152"><ele>90.0</ele><time>2026-03-29T08:12:07.187Z</time></trkpt><trkpt lat="45.0552573" lon="8.6671017"><ele>90.0</ele><time>2026-03-29T08:12:08.186Z</time></trkpt><trkpt lat="45.0550068" lon="8.666987"><ele>89.0</ele><time>2026-03-29T08:12:09.184Z</time></trkpt><trkpt lat="45.0547472" lon="8.6668707"><ele>88.0</ele><time>2026-03-29T08:12:10.185Z</time></trkpt><trkpt lat="45.0544838" lon="8.6667505"><ele>88.0</ele><time>2026-03-29T08:12:11.185Z</time></trkpt><trkpt lat="45.05422" lon="8.66663"><ele>88.0</ele><time>2026-03-29T08:12:12.186Z</time></trkpt><trkpt lat="45.0539585" lon="8.6665115"><ele>88.0</ele><time>2026-03-29T08:12:13.186Z</time></trkpt><trkpt lat="45.0536982" lon="8.6663942"><ele>88.0</ele><time>2026-03-29T08:12:14.186Z</time></trkpt><trkpt lat="45.0534388" lon="8.6662772"><ele>87.5</ele><time>2026-03-29T08:12:15.186Z</time></trkpt><trkpt lat="45.05318" lon="8.6661602"><ele>87.0</ele><time>2026-03-29T08:12:16.186Z</time></trkpt><trkpt lat="45.052921" lon="8.6660435"><ele>87.0</ele><time>2026-03-29T08:12:17.186Z</time></trkpt><trkpt lat="45.0526632" lon="8.6659288"><ele>87.0</ele><time>2026-03-29T08:12:18.189Z</time></trkpt><trkpt lat="45.0524058" lon="8.665814"><ele>88.0</ele><time>2026-03-29T08:12:19.184Z</time></trkpt><trkpt lat="45.0521472" lon="8.6656978"><ele>89.0</ele><time>2026-03-29T08:12:20.183Z</time></trkpt><trkpt lat="45.0518883" lon="8.6655815"><ele>89.0</ele><time>2026-03-29T08:12:21.182Z</time></trkpt><trkpt lat="45.0516292" lon="8.6654662"><ele>89.0</ele><time>2026-03-29T08:12:22.182Z</time></trkpt><trkpt lat="45.0513705" lon="8.665352"><ele>89.0</ele><time>2026-03-29T08:12:23.184Z</time></trkpt><trkpt lat="45.0511113" lon="8.6652387"><ele>89.0</ele><time>2026-03-29T08:12:24.183Z</time></trkpt><trkpt lat="45.0508522" lon="8.665126"><ele>88.5</ele><time>2026-03-29T08:12:25.184Z</time></trkpt><trkpt lat="45.0505957" lon="8.6650143"><ele>88.0</ele><time>2026-03-29T08:12:26.185Z</time></trkpt><trkpt lat="45.0503523" lon="8.6649072"><ele>88.0</ele><time>2026-03-29T08:12:27.185Z</time></trkpt><trkpt lat="45.050123" lon="8.6648057"><ele>88.0</ele><time>2026-03-29T08:12:28.185Z</time></trkpt><trkpt lat="45.0499072" lon="8.6647097"><ele>88.33333333333333</ele><time>2026-03-29T08:12:29.186Z</time></trkpt><trkpt lat="45.0497035" lon="8.6646202"><ele>88.66666666666667</ele><time>2026-03-29T08:12:30.185Z</time></trkpt><trkpt lat="45.0495152" lon="8.6645375"><ele>89.0</ele><time>2026-03-29T08:12:31.185Z</time></trkpt><trkpt lat="45.049347" lon="8.6644597"><ele>89.0</ele><time>2026-03-29T08:12:32.185Z</time></trkpt><trkpt lat="45.0491988" lon="8.6643807"><ele>89.0</ele><time>2026-03-29T08:12:33.186Z</time></trkpt><trkpt lat="45.049072" lon="8.6642945"><ele>89.0</ele><time>2026-03-29T08:12:34.187Z</time></trkpt><trkpt lat="45.0489667" lon="8.664195"><ele>89.0</ele><time>2026-03-29T08:12:35.185Z</time></trkpt><trkpt lat="45.0488858" lon="8.6640857"><ele>89.0</ele><time>2026-03-29T08:12:36.186Z</time></trkpt><trkpt lat="45.0488263" lon="8.6639682"><ele>89.0</ele><time>2026-03-29T08:12:37.185Z</time></trkpt><trkpt lat="45.0487808" lon="8.6638412"><ele>89.0</ele><time>2026-03-29T08:12:38.186Z</time></trkpt><trkpt lat="45.0487402" lon="8.6636907"><ele>89.0</ele><time>2026-03-29T08:12:39.186Z</time></trkpt><trkpt lat="45.048715" lon="8.663526"><ele>89.0</ele><time>2026-03-29T08:12:40.184Z</time></trkpt><trkpt lat="45.0487172" lon="8.6633535"><ele>88.33333333333334</ele><time>2026-03-29T08:12:41.183Z</time></trkpt><trkpt lat="45.0487497" lon="8.6631638"><ele>87.66666666666667</ele><time>2026-03-29T08:12:42.187Z</time></trkpt><trkpt lat="45.048809" lon="8.662968"><ele>87.0</ele><time>2026-03-29T08:12:43.185Z</time></trkpt><trkpt lat="45.048893" lon="8.6627545"><ele>87.0</ele><time>2026-03-29T08:12:44.185Z</time></trkpt><trkpt lat="45.0489925" lon="8.6625185"><ele>87.0</ele><time>2026-03-29T08:12:45.182Z</time></trkpt><trkpt lat="45.0490945" lon="8.6622772"><ele>87.0</ele><time>2026-03-29T08:12:46.182Z</time></trkpt><trkpt lat="45.049201" lon="8.6620215"><ele>87.0</ele><time>2026-03-29T08:12:47.182Z</time></trkpt><trkpt lat="45.049312" lon="8.6617533"><ele>87.0</ele><time>2026-03-29T08:12:48.184Z</time></trkpt><trkpt lat="45.0494272" lon="8.661482"><ele>87.0</ele><time>2026-03-29T08:12:49.186Z</time></trkpt><trkpt lat="45.0495442" lon="8.6612075"><ele>87.5</ele><time>2026-03-29T08:12:50.184Z</time></trkpt><trkpt lat="45.0496627" lon="8.6609262"><ele>88.0</ele><time>2026-03-29T08:12:51.186Z</time></trkpt><trkpt lat="45.0497823" lon="8.66064"><ele>88.0</ele><time>2026-03-29T08:12:52.185Z</time></trkpt><trkpt lat="45.0499043" lon="8.6603512"><ele>88.0</ele><time>2026-03-29T08:12:53.183Z</time></trkpt><trkpt lat="45.0500272" lon="8.6600598"><ele>88.5</ele><time>2026-03-29T08:12:54.185Z</time></trkpt><trkpt lat="45.0501508" lon="8.6597672"><ele>89.0</ele><time>2026-03-29T08:12:55.185Z</time></trkpt><trkpt lat="45.0502747" lon="8.6594732"><ele>90.5</ele><time>2026-03-29T08:12:56.186Z</time></trkpt><trkpt lat="45.0503973" lon="8.6591808"><ele>92.0</ele><time>2026-03-29T08:12:57.186Z</time></trkpt><trkpt lat="45.0505173" lon="8.6588882"><ele>93.5</ele><time>2026-03-29T08:12:58.188Z</time></trkpt><trkpt lat="45.0506278" lon="8.6585908"><ele>95.0</ele><time>2026-03-29T08:12:59.186Z</time></trkpt><trkpt lat="45.0507203" lon="8.6582818"><ele>93.0</ele><time>2026-03-29T08:13:00.187Z</time></trkpt><trkpt lat="45.0508003" lon="8.6579597"><ele>91.0</ele><time>2026-03-29T08:13:01.185Z</time></trkpt><trkpt lat="45.0508775" lon="8.657632"><ele>91.0</ele><time>2026-03-29T08:13:02.185Z</time></trkpt><trkpt lat="45.0509537" lon="8.6573022"><ele>91.0</ele><time>2026-03-29T08:13:03.184Z</time></trkpt><trkpt lat="45.0510312" lon="8.6569717"><ele>90.0</ele><time>2026-03-29T08:13:04.185Z</time></trkpt><trkpt lat="45.05111" lon="8.6566408"><ele>89.0</ele><time>2026-03-29T08:13:05.185Z</time></trkpt><trkpt lat="45.0511883" lon="8.6563093"><ele>88.0</ele><time>2026-03-29T08:13:06.187Z</time></trkpt><trkpt lat="45.0512652" lon="8.6559767"><ele>87.0</ele><time>2026-03-29T08:13:07.185Z</time></trkpt><trkpt lat="45.0513423" lon="8.6556448"><ele>87.0</ele><time>2026-03-29T08:13:08.184Z</time></trkpt><trkpt lat="45.0514202" lon="8.6553123"><ele>87.0</ele><time>2026-03-29T08:13:09.184Z</time></trkpt><trkpt lat="45.0514988" lon="8.6549775"><ele>87.5</ele><time>2026-03-29T08:13:10.183Z</time></trkpt><trkpt lat="45.0515773" lon="8.6546398"><ele>88.0</ele><time>2026-03-29T08:13:11.182Z</time></trkpt><trkpt lat="45.0516557" lon="8.6543007"><ele>88.5</ele><time>2026-03-29T08:13:12.185Z</time></trkpt><trkpt lat="45.0517348" lon="8.6539603"><ele>89.0</ele><time>2026-03-29T08:13:13.186Z</time></trkpt><trkpt lat="45.0518153" lon="8.6536193"><ele>89.0</ele><time>2026-03-29T08:13:14.184Z</time></trkpt><trkpt lat="45.0518958" lon="8.6532778"><ele>89.0</ele><time>2026-03-29T08:13:15.187Z</time></trkpt><trkpt lat="45.051975" lon="8.6529358"><ele>89.0</ele><time>2026-03-29T08:13:16.185Z</time></trkpt><trkpt lat="45.0520537" lon="8.6525942"><ele>89.0</ele><time>2026-03-29T08:13:17.184Z</time></trkpt><trkpt lat="45.052134" lon="8.6522548"><ele>88.5</ele><time>2026-03-29T08:13:18.186Z</time></trkpt><trkpt lat="45.0522137" lon="8.6519182"><ele>88.0</ele><time>2026-03-29T08:13:19.185Z</time></trkpt><trkpt lat="45.0522917" lon="8.6515843"><ele>88.0</ele><time>2026-03-29T08:13:20.184Z</time></trkpt><trkpt lat="45.0523668" lon="8.651257"><ele>88.0</ele><time>2026-03-29T08:13:21.184Z</time></trkpt><trkpt lat="45.052437" lon="8.6509465"><ele>88.66666666666666</ele><time>2026-03-29T08:13:22.184Z</time></trkpt><trkpt lat="45.0525035" lon="8.6506605"><ele>89.33333333333333</ele><time>2026-03-29T08:13:23.184Z</time></trkpt><trkpt lat="45.052574" lon="8.6504007"><ele>90.0</ele><time>2026-03-29T08:13:24.184Z</time></trkpt><trkpt lat="45.0526557" lon="8.6501637"><ele>90.33333333333333</ele><time>2026-03-29T08:13:25.185Z</time></trkpt><trkpt lat="45.0527572" lon="8.6499377"><ele>90.66666666666666</ele><time>2026-03-29T08:13:26.185Z</time></trkpt><trkpt lat="45.0528802" lon="8.6497228"><ele>91.0</ele><time>2026-03-29T08:13:27.186Z</time></trkpt><trkpt lat="45.0530277" lon="8.6495257"><ele>91.0</ele><time>2026-03-29T08:13:28.183Z</time></trkpt><trkpt lat="45.0532003" lon="8.649348"><ele>91.0</ele><time>2026-03-29T08:13:29.182Z</time></trkpt><trkpt lat="45.0533935" lon="8.649195"><ele>91.0</ele><time>2026-03-29T08:13:30.184Z</time></trkpt><trkpt lat="45.0536042" lon="8.6490648"><ele>91.0</ele><time>2026-03-29T08:13:31.185Z</time></trkpt><trkpt lat="45.0538158" lon="8.6489508"><ele>91.0</ele><time>2026-03-29T08:13:32.183Z</time></trkpt><trkpt lat="45.0540107" lon="8.6488502"><ele>91.0</ele><time>2026-03-29T08:13:33.18Z</time></trkpt><trkpt lat="45.0541887" lon="8.6487582"><ele>90.66666666666666</ele><time>2026-03-29T08:13:34.18Z</time></trkpt><trkpt lat="45.0543525" lon="8.6486725"><ele>90.33333333333333</ele><time>2026-03-29T08:13:35.18Z</time></trkpt><trkpt lat="45.0545018" lon="8.6485942"><ele>90.0</ele><time>2026-03-29T08:13:36.18Z</time></trkpt><trkpt lat="45.0546362" lon="8.6485198"><ele>90.0</ele><time>2026-03-29T08:13:37.181Z</time></trkpt><trkpt lat="45.0547538" lon="8.6484397"><ele>90.0</ele><time>2026-03-29T08:13:38.182Z</time></trkpt><trkpt lat="45.0548478" lon="8.648337"><ele>90.0</ele><time>2026-03-29T08:13:39.184Z</time></trkpt><trkpt lat="45.0549148" lon="8.6482092"><ele>90.0</ele><time>2026-03-29T08:13:40.183Z</time></trkpt><trkpt lat="45.0549512" lon="8.6480447"><ele>90.0</ele><time>2026-03-29T08:13:41.183Z</time></trkpt><trkpt lat="45.0549483" lon="8.6478427"><ele>90.0</ele><time>2026-03-29T08:13:42.184Z</time></trkpt><trkpt lat="45.0549117" lon="8.6476168"><ele>90.0</ele><time>2026-03-29T08:13:43.183Z</time></trkpt><trkpt lat="45.0548558" lon="8.6473752"><ele>89.66666666666667</ele><time>2026-03-29T08:13:44.183Z</time></trkpt><trkpt lat="45.054791" lon="8.6471197"><ele>89.33333333333334</ele><time>2026-03-29T08:13:45.183Z</time></trkpt><trkpt lat="45.0547315" lon="8.6468723"><ele>89.0</ele><time>2026-03-29T08:13:46.184Z</time></trkpt><trkpt lat="45.0546668" lon="8.6466098"><ele>89.0</ele><time>2026-03-29T08:13:47.183Z</time></trkpt><trkpt lat="45.0545943" lon="8.646322"><ele>89.0</ele><time>2026-03-29T08:13:48.183Z</time></trkpt><trkpt lat="45.0545188" lon="8.6460202"><ele>89.0</ele><time>2026-03-29T08:13:49.183Z</time></trkpt><trkpt lat="45.054441" lon="8.6457113"><ele>90.5</ele><time>2026-03-29T08:13:50.183Z</time></trkpt><trkpt lat="45.0543588" lon="8.6453883"><ele>92.0</ele><time>2026-03-29T08:13:51.181Z</time></trkpt><trkpt lat="45.0542743" lon="8.6450553"><ele>92.5</ele><time>2026-03-29T08:13:52.184Z</time></trkpt><trkpt lat="45.0541898" lon="8.6447178"><ele>93.0</ele><time>2026-03-29T08:13:53.182Z</time></trkpt><trkpt lat="45.0541055" lon="8.6443787"><ele>91.5</ele><time>2026-03-29T08:13:54.182Z</time></trkpt><trkpt lat="45.0540195" lon="8.6440365"><ele>90.0</ele><time>2026-03-29T08:13:55.183Z</time></trkpt><trkpt lat="45.053931" lon="8.6436928"><ele>89.5</ele><time>2026-03-29T08:13:56.183Z</time></trkpt><trkpt lat="45.0538423" lon="8.6433475"><ele>89.0</ele><time>2026-03-29T08:13:57.182Z</time></trkpt><trkpt lat="45.053754" lon="8.6429978"><ele>89.5</ele><time>2026-03-29T08:13:58.18Z</time></trkpt><trkpt lat="45.0536658" lon="8.6426467"><ele>90.0</ele><time>2026-03-29T08:13:59.179Z</time></trkpt><trkpt lat="45.0535758" lon="8.6422932"><ele>91.0</ele><time>2026-03-29T08:14:00.179Z</time></trkpt><trkpt lat="45.0534845" lon="8.6419373"><ele>92.0</ele><time>2026-03-29T08:14:01.181Z</time></trkpt><trkpt lat="45.0533927" lon="8.6415797"><ele>92.0</ele><time>2026-03-29T08:14:02.183Z</time></trkpt><trkpt lat="45.053302" lon="8.6412202"><ele>92.0</ele><time>2026-03-29T08:14:03.181Z</time></trkpt><trkpt lat="45.0532132" lon="8.6408622"><ele>92.0</ele><time>2026-03-29T08:14:04.182Z</time></trkpt><trkpt lat="45.0531257" lon="8.6405055"><ele>92.0</ele><time>2026-03-29T08:14:05.181Z</time></trkpt><trkpt lat="45.053038" lon="8.64015"><ele>92.0</ele><time>2026-03-29T08:14:06.182Z</time></trkpt><trkpt lat="45.0529503" lon="8.6398"><ele>92.0</ele><time>2026-03-29T08:14:07.182Z</time></trkpt><trkpt lat="45.052861" lon="8.6394522"><ele>92.0</ele><time>2026-03-29T08:14:08.184Z</time></trkpt><trkpt lat="45.0527722" lon="8.6391063"><ele>92.0</ele><time>2026-03-29T08:14:09.182Z</time></trkpt><trkpt lat="45.0526842" lon="8.6387625"><ele>93.0</ele><time>2026-03-29T08:14:10.183Z</time></trkpt><trkpt lat="45.0525973" lon="8.638421"><ele>94.0</ele><time>2026-03-29T08:14:11.181Z</time></trkpt><trkpt lat="45.052513" lon="8.63808"><ele>94.0</ele><time>2026-03-29T08:14:12.183Z</time></trkpt><trkpt lat="45.0524328" lon="8.6377402"><ele>94.0</ele><time>2026-03-29T08:14:13.182Z</time></trkpt><trkpt lat="45.052354" lon="8.6374015"><ele>94.0</ele><time>2026-03-29T08:14:14.183Z</time></trkpt><trkpt lat="45.0522775" lon="8.637065"><ele>94.0</ele><time>2026-03-29T08:14:15.183Z</time></trkpt><trkpt lat="45.052203" lon="8.6367312"><ele>93.0</ele><time>2026-03-29T08:14:16.184Z</time></trkpt><trkpt lat="45.0521313" lon="8.6363997"><ele>92.0</ele><time>2026-03-29T08:14:17.183Z</time></trkpt><trkpt lat="45.0520617" lon="8.6360753"><ele>91.0</ele><time>2026-03-29T08:14:18.182Z</time></trkpt><trkpt lat="45.0519922" lon="8.6357633"><ele>90.0</ele><time>2026-03-29T08:14:19.183Z</time></trkpt><trkpt lat="45.0519165" lon="8.6354587"><ele>90.0</ele><time>2026-03-29T08:14:20.183Z</time></trkpt><trkpt lat="45.0518387" lon="8.6351557"><ele>90.0</ele><time>2026-03-29T08:14:21.18Z</time></trkpt><trkpt lat="45.0517612" lon="8.6348533"><ele>90.0</ele><time>2026-03-29T08:14:22.181Z</time></trkpt><trkpt lat="45.051684" lon="8.6345525"><ele>90.0</ele><time>2026-03-29T08:14:23.18Z</time></trkpt><trkpt lat="45.051607" lon="8.6342553"><ele>88.66666666666667</ele><time>2026-03-29T08:14:24.181Z</time></trkpt><trkpt lat="45.0515333" lon="8.6339648"><ele>87.33333333333334</ele><time>2026-03-29T08:14:25.184Z</time></trkpt><trkpt lat="45.05146" lon="8.6336807"><ele>86.0</ele><time>2026-03-29T08:14:26.183Z</time></trkpt><trkpt lat="45.0513893" lon="8.6333953"><ele>86.0</ele><time>2026-03-29T08:14:27.181Z</time></trkpt><trkpt lat="45.0513203" lon="8.6331143"><ele>86.0</ele><time>2026-03-29T08:14:28.182Z</time></trkpt><trkpt lat="45.0512523" lon="8.632843"><ele>86.0</ele><time>2026-03-29T08:14:29.185Z</time></trkpt><trkpt lat="45.051184" lon="8.6325782"><ele>86.0</ele><time>2026-03-29T08:14:30.183Z</time></trkpt><trkpt lat="45.051116" lon="8.6323088"><ele>86.0</ele><time>2026-03-29T08:14:31.183Z</time></trkpt><trkpt lat="45.0510472" lon="8.6320342"><ele>86.0</ele><time>2026-03-29T08:14:32.183Z</time></trkpt><trkpt lat="45.0509758" lon="8.6317535"><ele>86.33333333333334</ele><time>2026-03-29T08:14:33.185Z</time></trkpt><trkpt lat="45.0509025" lon="8.631465"><ele>86.66666666666667</ele><time>2026-03-29T08:14:34.182Z</time></trkpt><trkpt lat="45.050827" lon="8.6311688"><ele>87.0</ele><time>2026-03-29T08:14:35.184Z</time></trkpt><trkpt lat="45.0507518" lon="8.630868"><ele>87.5</ele><time>2026-03-29T08:14:36.182Z</time></trkpt><trkpt lat="45.0506753" lon="8.6305633"><ele>88.0</ele><time>2026-03-29T08:14:37.182Z</time></trkpt><trkpt lat="45.0505978" lon="8.6302582"><ele>88.5</ele><time>2026-03-29T08:14:38.181Z</time></trkpt><trkpt lat="45.0505193" lon="8.6299542"><ele>89.0</ele><time>2026-03-29T08:14:39.184Z</time></trkpt><trkpt lat="45.0504363" lon="8.6296452"><ele>90.5</ele><time>2026-03-29T08:14:40.183Z</time></trkpt><trkpt lat="45.050351" lon="8.6293347"><ele>92.0</ele><time>2026-03-29T08:14:41.184Z</time></trkpt><trkpt lat="45.0502632" lon="8.6290228"><ele>92.0</ele><time>2026-03-29T08:14:42.183Z</time></trkpt><trkpt lat="45.0501765" lon="8.6287108"><ele>92.0</ele><time>2026-03-29T08:14:43.183Z</time></trkpt><trkpt lat="45.0500927" lon="8.6284005"><ele>92.0</ele><time>2026-03-29T08:14:44.183Z</time></trkpt><trkpt lat="45.0500087" lon="8.6280875"><ele>92.0</ele><time>2026-03-29T08:14:45.182Z</time></trkpt><trkpt lat="45.0499248" lon="8.627771"><ele>90.0</ele><time>2026-03-29T08:14:46.167Z</time></trkpt><trkpt lat="45.0498408" lon="8.6274513"><ele>88.0</ele><time>2026-03-29T08:14:47.182Z</time></trkpt><trkpt lat="45.0497535" lon="8.6271317"><ele>88.0</ele><time>2026-03-29T08:14:48.18Z</time></trkpt><trkpt lat="45.0496635" lon="8.6268125"><ele>88.0</ele><time>2026-03-29T08:14:49.181Z</time></trkpt><trkpt lat="45.049573" lon="8.6264962"><ele>88.0</ele><time>2026-03-29T08:14:50.182Z</time></trkpt><trkpt lat="45.0494803" lon="8.626182"><ele>88.0</ele><time>2026-03-29T08:14:51.183Z</time></trkpt><trkpt lat="45.0493817" lon="8.6258708"><ele>89.0</ele><time>2026-03-29T08:14:52.184Z</time></trkpt><trkpt lat="45.0492742" lon="8.6255635"><ele>90.0</ele><time>2026-03-29T08:14:53.182Z</time></trkpt><trkpt lat="45.0491562" lon="8.625259"><ele>89.5</ele><time>2026-03-29T08:14:54.183Z</time></trkpt><trkpt lat="45.0490313" lon="8.6249565"><ele>89.0</ele><time>2026-03-29T08:14:55.183Z</time></trkpt><trkpt lat="45.0489013" lon="8.6246558"><ele>90.0</ele><time>2026-03-29T08:14:56.184Z</time></trkpt><trkpt lat="45.048769" lon="8.6243577"><ele>91.0</ele><time>2026-03-29T08:14:57.185Z</time></trkpt><trkpt lat="45.0486332" lon="8.6240648"><ele>91.0</ele><time>2026-03-29T08:14:58.183Z</time></trkpt><trkpt lat="45.0484897" lon="8.6237798"><ele>91.0</ele><time>2026-03-29T08:14:59.184Z</time></trkpt><trkpt lat="45.048337" lon="8.6235048"><ele>89.5</ele><time>2026-03-29T08:15:00.183Z</time></trkpt><trkpt lat="45.0481723" lon="8.6232435"><ele>88.0</ele><time>2026-03-29T08:15:01.184Z</time></trkpt><trkpt lat="45.0479968" lon="8.6229917"><ele>90.0</ele><time>2026-03-29T08:15:02.183Z</time></trkpt><trkpt lat="45.0478168" lon="8.6227402"><ele>92.0</ele><time>2026-03-29T08:15:03.184Z</time></trkpt><trkpt lat="45.0476293" lon="8.6224932"><ele>90.5</ele><time>2026-03-29T08:15:04.184Z</time></trkpt><trkpt lat="45.0474343" lon="8.6222535"><ele>89.0</ele><time>2026-03-29T08:15:05.186Z</time></trkpt><trkpt lat="45.047234" lon="8.6220197"><ele>90.0</ele><time>2026-03-29T08:15:06.184Z</time></trkpt><trkpt lat="45.0470267" lon="8.6217953"><ele>91.0</ele><time>2026-03-29T08:15:07.184Z</time></trkpt><trkpt lat="45.0468118" lon="8.6215865"><ele>90.0</ele><time>2026-03-29T08:15:08.181Z</time></trkpt><trkpt lat="45.0465887" lon="8.6213978"><ele>89.0</ele><time>2026-03-29T08:15:09.183Z</time></trkpt><trkpt lat="45.0463573" lon="8.6212287"><ele>90.0</ele><time>2026-03-29T08:15:10.183Z</time></trkpt><trkpt lat="45.0461255" lon="8.6210798"><ele>91.0</ele><time>2026-03-29T08:15:11.18Z</time></trkpt><trkpt lat="45.0458907" lon="8.6209557"><ele>90.0</ele><time>2026-03-29T08:15:12.181Z</time></trkpt><trkpt lat="45.045648" lon="8.6208595"><ele>89.0</ele><time>2026-03-29T08:15:13.183Z</time></trkpt><trkpt lat="45.0453977" lon="8.6207957"><ele>89.0</ele><time>2026-03-29T08:15:14.182Z</time></trkpt><trkpt lat="45.0451392" lon="8.6207648"><ele>89.0</ele><time>2026-03-29T08:15:15.183Z</time></trkpt><trkpt lat="45.0448733" lon="8.6207655"><ele>88.0</ele><time>2026-03-29T08:15:16.184Z</time></trkpt><trkpt lat="45.0446028" lon="8.620788"><ele>87.0</ele><time>2026-03-29T08:15:17.184Z</time></trkpt><trkpt lat="45.0443305" lon="8.6208242"><ele>87.5</ele><time>2026-03-29T08:15:18.183Z</time></trkpt><trkpt lat="45.044059" lon="8.6208672"><ele>88.0</ele><time>2026-03-29T08:15:19.184Z</time></trkpt><trkpt lat="45.0437882" lon="8.6209132"><ele>88.0</ele><time>2026-03-29T08:15:20.184Z</time></trkpt><trkpt lat="45.0435188" lon="8.620958"><ele>88.0</ele><time>2026-03-29T08:15:21.187Z</time></trkpt><trkpt lat="45.0432517" lon="8.6209987"><ele>86.5</ele><time>2026-03-29T08:15:22.181Z</time></trkpt><trkpt lat="45.0429868" lon="8.6210365"><ele>85.0</ele><time>2026-03-29T08:15:23.183Z</time></trkpt><trkpt lat="45.0427248" lon="8.6210748"><ele>85.0</ele><time>2026-03-29T08:15:24.183Z</time></trkpt><trkpt lat="45.0424662" lon="8.6211202"><ele>85.0</ele><time>2026-03-29T08:15:25.184Z</time></trkpt><trkpt lat="45.042211" lon="8.62118"><ele>85.5</ele><time>2026-03-29T08:15:26.184Z</time></trkpt><trkpt lat="45.041961" lon="8.6212622"><ele>86.0</ele><time>2026-03-29T08:15:27.184Z</time></trkpt><trkpt lat="45.0417177" lon="8.6213697"><ele>86.5</ele><time>2026-03-29T08:15:28.184Z</time></trkpt><trkpt lat="45.041484" lon="8.621497"><ele>87.0</ele><time>2026-03-29T08:15:29.18Z</time></trkpt><trkpt lat="45.0412678" lon="8.621632"><ele>87.0</ele><time>2026-03-29T08:15:30.181Z</time></trkpt><trkpt lat="45.0410625" lon="8.6217812"><ele>87.0</ele><time>2026-03-29T08:15:31.183Z</time></trkpt><trkpt lat="45.0408618" lon="8.6219557"><ele>91.0</ele><time>2026-03-29T08:15:32.183Z</time></trkpt><trkpt lat="45.0406665" lon="8.6221502"><ele>95.0</ele><time>2026-03-29T08:15:33.183Z</time></trkpt><trkpt lat="45.0404755" lon="8.622364"><ele>95.0</ele><time>2026-03-29T08:15:34.184Z</time></trkpt><trkpt lat="45.0402895" lon="8.6225965"><ele>95.0</ele><time>2026-03-29T08:15:35.18Z</time></trkpt><trkpt lat="45.0401105" lon="8.6228435"><ele>97.0</ele><time>2026-03-29T08:15:36.182Z</time></trkpt><trkpt lat="45.0399362" lon="8.6231003"><ele>99.0</ele><time>2026-03-29T08:15:37.178Z</time></trkpt><trkpt lat="45.0397633" lon="8.6233592"><ele>99.0</ele><time>2026-03-29T08:15:38.179Z</time></trkpt><trkpt lat="45.03959" lon="8.623616"><ele>99.0</ele><time>2026-03-29T08:15:39.18Z</time></trkpt><trkpt lat="45.0394165" lon="8.6238725"><ele>100.5</ele><time>2026-03-29T08:15:40.182Z</time></trkpt><trkpt lat="45.039244" lon="8.6241282"><ele>102.0</ele><time>2026-03-29T08:15:41.184Z</time></trkpt><trkpt lat="45.039072" lon="8.62438"><ele>97.0</ele><time>2026-03-29T08:15:42.182Z</time></trkpt><trkpt lat="45.0389022" lon="8.62463"><ele>92.0</ele><time>2026-03-29T08:15:43.183Z</time></trkpt><trkpt lat="45.0387355" lon="8.6248797"><ele>92.0</ele><time>2026-03-29T08:15:44.183Z</time></trkpt><trkpt lat="45.0385717" lon="8.6251285"><ele>92.0</ele><time>2026-03-29T08:15:45.183Z</time></trkpt><trkpt lat="45.0384105" lon="8.6253752"><ele>93.5</ele><time>2026-03-29T08:15:46.181Z</time></trkpt><trkpt lat="45.0382493" lon="8.6256205"><ele>95.0</ele><time>2026-03-29T08:15:47.181Z</time></trkpt><trkpt lat="45.0380903" lon="8.6258583"><ele>95.0</ele><time>2026-03-29T08:15:48.181Z</time></trkpt><trkpt lat="45.0379388" lon="8.6260818"><ele>95.0</ele><time>2026-03-29T08:15:49.181Z</time></trkpt><trkpt lat="45.0377865" lon="8.6263045"><ele>95.0</ele><time>2026-03-29T08:15:50.183Z</time></trkpt><trkpt lat="45.0376345" lon="8.6265208"><ele>94.0</ele><time>2026-03-29T08:15:51.181Z</time></trkpt><trkpt lat="45.037486" lon="8.6267167"><ele>93.0</ele><time>2026-03-29T08:15:52.181Z</time></trkpt><trkpt lat="45.0373392" lon="8.6268932"><ele>92.0</ele><time>2026-03-29T08:15:53.182Z</time></trkpt><trkpt lat="45.0371865" lon="8.6270617"><ele>90.33333333333334</ele><time>2026-03-29T08:15:54.181Z</time></trkpt><trkpt lat="45.0370267" lon="8.6272222"><ele>88.66666666666667</ele><time>2026-03-29T08:15:55.183Z</time></trkpt><trkpt lat="45.036859" lon="8.627376"><ele>87.0</ele><time>2026-03-29T08:15:56.182Z</time></trkpt><trkpt lat="45.0366847" lon="8.6275188"><ele>87.33333333333333</ele><time>2026-03-29T08:15:57.182Z</time></trkpt><trkpt lat="45.0365117" lon="8.627648"><ele>87.66666666666666</ele><time>2026-03-29T08:15:58.184Z</time></trkpt><trkpt lat="45.0363405" lon="8.627767"><ele>88.0</ele><time>2026-03-29T08:15:59.181Z</time></trkpt><trkpt lat="45.0361703" lon="8.6278765"><ele>87.33333333333333</ele><time>2026-03-29T08:16:00.18Z</time></trkpt><trkpt lat="45.0359987" lon="8.6279743"><ele>86.66666666666667</ele><time>2026-03-29T08:16:01.182Z</time></trkpt><trkpt lat="45.0358257" lon="8.6280637"><ele>86.0</ele><time>2026-03-29T08:16:02.181Z</time></trkpt><trkpt lat="45.0356483" lon="8.6281525"><ele>86.0</ele><time>2026-03-29T08:16:03.181Z</time></trkpt><trkpt lat="45.0354668" lon="8.628245"><ele>86.0</ele><time>2026-03-29T08:16:04.182Z</time></trkpt><trkpt lat="45.0352827" lon="8.6283398"><ele>86.0</ele><time>2026-03-29T08:16:05.183Z</time></trkpt><trkpt lat="45.0350965" lon="8.6284348"><ele>86.33333333333334</ele><time>2026-03-29T08:16:06.183Z</time></trkpt><trkpt lat="45.0349075" lon="8.6285353"><ele>86.66666666666667</ele><time>2026-03-29T08:16:07.182Z</time></trkpt><trkpt lat="45.0347045" lon="8.6286418"><ele>87.0</ele><time>2026-03-29T08:16:08.183Z</time></trkpt><trkpt lat="45.0344843" lon="8.6287518"><ele>87.0</ele><time>2026-03-29T08:16:09.182Z</time></trkpt><trkpt lat="45.034255" lon="8.6288643"><ele>87.0</ele><time>2026-03-29T08:16:10.185Z</time></trkpt><trkpt lat="45.0340238" lon="8.6289747"><ele>86.5</ele><time>2026-03-29T08:16:11.182Z</time></trkpt><trkpt lat="45.0338037" lon="8.6290773"><ele>86.0</ele><time>2026-03-29T08:16:12.183Z</time></trkpt><trkpt lat="45.0335952" lon="8.6291743"><ele>86.0</ele><time>2026-03-29T08:16:13.184Z</time></trkpt><trkpt lat="45.0333943" lon="8.629272"><ele>86.0</ele><time>2026-03-29T08:16:14.182Z</time></trkpt><trkpt lat="45.033206" lon="8.6293677"><ele>86.0</ele><time>2026-03-29T08:16:15.186Z</time></trkpt><trkpt lat="45.0330267" lon="8.6294583"><ele>85.66666666666667</ele><time>2026-03-29T08:16:16.183Z</time></trkpt><trkpt lat="45.0328503" lon="8.6295445"><ele>85.33333333333333</ele><time>2026-03-29T08:16:17.181Z</time></trkpt><trkpt lat="45.0326745" lon="8.629632"><ele>85.0</ele><time>2026-03-29T08:16:18.182Z</time></trkpt><trkpt lat="45.0324983" lon="8.629725"><ele>87.0</ele><time>2026-03-29T08:16:19.18Z</time></trkpt><trkpt lat="45.0323222" lon="8.6298265"><ele>89.0</ele><time>2026-03-29T08:16:20.182Z</time></trkpt><trkpt lat="45.0321473" lon="8.629937"><ele>91.0</ele><time>2026-03-29T08:16:21.182Z</time></trkpt><trkpt lat="45.031976" lon="8.6300537"><ele>91.0</ele><time>2026-03-29T08:16:22.183Z</time></trkpt><trkpt lat="45.0318083" lon="8.6301783"><ele>91.0</ele><time>2026-03-29T08:16:23.185Z</time></trkpt><trkpt lat="45.0316457" lon="8.6303092"><ele>91.0</ele><time>2026-03-29T08:16:24.181Z</time></trkpt><trkpt lat="45.0314943" lon="8.6304395"><ele>89.66666666666666</ele><time>2026-03-29T08:16:25.184Z</time></trkpt><trkpt lat="45.0313493" lon="8.6305767"><ele>88.33333333333333</ele><time>2026-03-29T08:16:26.179Z</time></trkpt><trkpt lat="45.0312095" lon="8.6307245"><ele>87.0</ele><time>2026-03-29T08:16:27.179Z</time></trkpt><trkpt lat="45.0310765" lon="8.6308823"><ele>87.0</ele><time>2026-03-29T08:16:28.186Z</time></trkpt><trkpt lat="45.0309478" lon="8.6310447"><ele>87.0</ele><time>2026-03-29T08:16:29.184Z</time></trkpt><trkpt lat="45.0308247" lon="8.6312053"><ele>87.0</ele><time>2026-03-29T08:16:30.183Z</time></trkpt><trkpt lat="45.0307037" lon="8.6313632"><ele>86.66666666666667</ele><time>2026-03-29T08:16:31.183Z</time></trkpt><trkpt lat="45.0305823" lon="8.6315212"><ele>86.33333333333334</ele><time>2026-03-29T08:16:32.183Z</time></trkpt><trkpt lat="45.0304565" lon="8.6316812"><ele>86.0</ele><time>2026-03-29T08:16:33.183Z</time></trkpt><trkpt lat="45.0303277" lon="8.631839"><ele>86.0</ele><time>2026-03-29T08:16:34.184Z</time></trkpt><trkpt lat="45.0301995" lon="8.631988"><ele>86.0</ele><time>2026-03-29T08:16:35.183Z</time></trkpt><trkpt lat="45.0300707" lon="8.6321275"><ele>86.0</ele><time>2026-03-29T08:16:36.184Z</time></trkpt><trkpt lat="45.0299392" lon="8.6322552"><ele>86.0</ele><time>2026-03-29T08:16:37.184Z</time></trkpt><trkpt lat="45.0298042" lon="8.6323657"><ele>86.0</ele><time>2026-03-29T08:16:38.184Z</time></trkpt><trkpt lat="45.0296648" lon="8.6324585"><ele>86.0</ele><time>2026-03-29T08:16:39.184Z</time></trkpt><trkpt lat="45.0295198" lon="8.632536"><ele>86.0</ele><time>2026-03-29T08:16:40.184Z</time></trkpt><trkpt lat="45.0293698" lon="8.6325987"><ele>86.0</ele><time>2026-03-29T08:16:41.183Z</time></trkpt><trkpt lat="45.0292145" lon="8.6326468"><ele>86.0</ele><time>2026-03-29T08:16:42.184Z</time></trkpt><trkpt lat="45.0290542" lon="8.632675"><ele>87.66666666666667</ele><time>2026-03-29T08:16:43.184Z</time></trkpt><trkpt lat="45.0288917" lon="8.6326825"><ele>89.33333333333333</ele><time>2026-03-29T08:16:44.183Z</time></trkpt><trkpt lat="45.0287285" lon="8.6326697"><ele>91.0</ele><time>2026-03-29T08:16:45.184Z</time></trkpt><trkpt lat="45.0285747" lon="8.6326363"><ele>91.0</ele><time>2026-03-29T08:16:46.184Z</time></trkpt><trkpt lat="45.0284267" lon="8.6325883"><ele>91.0</ele><time>2026-03-29T08:16:47.185Z</time></trkpt><trkpt lat="45.0282813" lon="8.6325237"><ele>91.0</ele><time>2026-03-29T08:16:48.184Z</time></trkpt><trkpt lat="45.0281407" lon="8.6324407"><ele>91.66666666666666</ele><time>2026-03-29T08:16:49.183Z</time></trkpt><trkpt lat="45.028006" lon="8.632342"><ele>92.33333333333333</ele><time>2026-03-29T08:16:50.183Z</time></trkpt><trkpt lat="45.0278762" lon="8.6322287"><ele>93.0</ele><time>2026-03-29T08:16:51.183Z</time></trkpt><trkpt lat="45.0277507" lon="8.632099"><ele>93.33333333333333</ele><time>2026-03-29T08:16:52.185Z</time></trkpt><trkpt lat="45.0276292" lon="8.631954"><ele>93.66666666666666</ele><time>2026-03-29T08:16:53.186Z</time></trkpt><trkpt lat="45.0275123" lon="8.6317983"><ele>94.0</ele><time>2026-03-29T08:16:54.186Z</time></trkpt><trkpt lat="45.0274012" lon="8.6316363"><ele>94.66666666666666</ele><time>2026-03-29T08:16:55.185Z</time></trkpt><trkpt lat="45.0272945" lon="8.6314703"><ele>95.33333333333333</ele><time>2026-03-29T08:16:56.185Z</time></trkpt><trkpt lat="45.0271892" lon="8.6313002"><ele>96.0</ele><time>2026-03-29T08:16:57.184Z</time></trkpt><trkpt lat="45.0270833" lon="8.631118"><ele>96.0</ele><time>2026-03-29T08:16:58.185Z</time></trkpt><trkpt lat="45.0269743" lon="8.6309198"><ele>96.0</ele><time>2026-03-29T08:16:59.186Z</time></trkpt><trkpt lat="45.0268602" lon="8.6307088"><ele>96.0</ele><time>2026-03-29T08:17:00.185Z</time></trkpt><trkpt lat="45.0267397" lon="8.6304845"><ele>97.33333333333334</ele><time>2026-03-29T08:17:01.185Z</time></trkpt><trkpt lat="45.0266155" lon="8.6302485"><ele>98.66666666666667</ele><time>2026-03-29T08:17:02.185Z</time></trkpt><trkpt lat="45.0264883" lon="8.6300062"><ele>100.0</ele><time>2026-03-29T08:17:03.185Z</time></trkpt><trkpt lat="45.026362" lon="8.6297653"><ele>100.0</ele><time>2026-03-29T08:17:04.186Z</time></trkpt><trkpt lat="45.026243" lon="8.62954"><ele>100.0</ele><time>2026-03-29T08:17:05.187Z</time></trkpt><trkpt lat="45.0261308" lon="8.6293338"><ele>100.0</ele><time>2026-03-29T08:17:06.185Z</time></trkpt><trkpt lat="45.0260203" lon="8.629145"><ele>100.0</ele><time>2026-03-29T08:17:07.185Z</time></trkpt><trkpt lat="45.0259067" lon="8.6289663"><ele>100.0</ele><time>2026-03-29T08:17:08.184Z</time></trkpt><trkpt lat="45.0257857" lon="8.6287943"><ele>100.0</ele><time>2026-03-29T08:17:09.184Z</time></trkpt><trkpt lat="45.025656" lon="8.6286325"><ele>100.0</ele><time>2026-03-29T08:17:10.184Z</time></trkpt><trkpt lat="45.0255182" lon="8.6284858"><ele>100.0</ele><time>2026-03-29T08:17:11.182Z</time></trkpt><trkpt lat="45.0253705" lon="8.6283555"><ele>100.0</ele><time>2026-03-29T08:17:12.182Z</time></trkpt><trkpt lat="45.0252118" lon="8.628237"><ele>100.0</ele><time>2026-03-29T08:17:13.183Z</time></trkpt><trkpt lat="45.0250462" lon="8.62813"><ele>100.0</ele><time>2026-03-29T08:17:14.184Z</time></trkpt><trkpt lat="45.0248787" lon="8.6280373"><ele>100.0</ele><time>2026-03-29T08:17:15.183Z</time></trkpt><trkpt lat="45.0247102" lon="8.6279615"><ele>99.33333333333334</ele><time>2026-03-29T08:17:16.182Z</time></trkpt><trkpt lat="45.0245357" lon="8.6279015"><ele>98.66666666666666</ele><time>2026-03-29T08:17:17.187Z</time></trkpt><trkpt lat="45.024354" lon="8.6278583"><ele>98.0</ele><time>2026-03-29T08:17:18.185Z</time></trkpt><trkpt lat="45.0241652" lon="8.6278323"><ele>98.66666666666666</ele><time>2026-03-29T08:17:19.185Z</time></trkpt><trkpt lat="45.0239735" lon="8.6278253"><ele>99.33333333333334</ele><time>2026-03-29T08:17:20.185Z</time></trkpt><trkpt lat="45.0237823" lon="8.6278388"><ele>100.0</ele><time>2026-03-29T08:17:21.186Z</time></trkpt><trkpt lat="45.023596" lon="8.6278702"><ele>100.0</ele><time>2026-03-29T08:17:22.186Z</time></trkpt><trkpt lat="45.0234142" lon="8.6279213"><ele>100.0</ele><time>2026-03-29T08:17:23.183Z</time></trkpt><trkpt lat="45.0232372" lon="8.6279905"><ele>100.0</ele><time>2026-03-29T08:17:24.182Z</time></trkpt><trkpt lat="45.0230655" lon="8.6280767"><ele>101.33333333333334</ele><time>2026-03-29T08:17:25.183Z</time></trkpt><trkpt lat="45.0228987" lon="8.6281777"><ele>102.66666666666666</ele><time>2026-03-29T08:17:26.183Z</time></trkpt><trkpt lat="45.0227378" lon="8.6282932"><ele>104.0</ele><time>2026-03-29T08:17:27.184Z</time></trkpt><trkpt lat="45.0225862" lon="8.6284205"><ele>103.66666666666666</ele><time>2026-03-29T08:17:28.182Z</time></trkpt><trkpt lat="45.022441" lon="8.6285572"><ele>103.33333333333334</ele><time>2026-03-29T08:17:29.182Z</time></trkpt><trkpt lat="45.0223117" lon="8.6287143"><ele>103.0</ele><time>2026-03-29T08:17:30.181Z</time></trkpt><trkpt lat="45.022188" lon="8.6288775"><ele>103.0</ele><time>2026-03-29T08:17:31.183Z</time></trkpt><trkpt lat="45.0220745" lon="8.629052"><ele>103.0</ele><time>2026-03-29T08:17:32.184Z</time></trkpt><trkpt lat="45.0219682" lon="8.6292422"><ele>103.0</ele><time>2026-03-29T08:17:33.184Z</time></trkpt><trkpt lat="45.0218632" lon="8.629445"><ele>102.33333333333334</ele><time>2026-03-29T08:17:34.185Z</time></trkpt><trkpt lat="45.0217657" lon="8.6296587"><ele>101.66666666666666</ele><time>2026-03-29T08:17:35.182Z</time></trkpt><trkpt lat="45.021674" lon="8.6298745"><ele>101.0</ele><time>2026-03-29T08:17:36.185Z</time></trkpt><trkpt lat="45.0215882" lon="8.6300872"><ele>101.0</ele><time>2026-03-29T08:17:37.182Z</time></trkpt><trkpt lat="45.0215062" lon="8.6302968"><ele>101.0</ele><time>2026-03-29T08:17:38.181Z</time></trkpt><trkpt lat="45.021426" lon="8.630501"><ele>101.0</ele><time>2026-03-29T08:17:39.182Z</time></trkpt><trkpt lat="45.0213445" lon="8.6307013"><ele>102.33333333333333</ele><time>2026-03-29T08:17:40.183Z</time></trkpt><trkpt lat="45.0212605" lon="8.6309012"><ele>103.66666666666666</ele><time>2026-03-29T08:17:41.183Z</time></trkpt><trkpt lat="45.0211718" lon="8.6310987"><ele>105.0</ele><time>2026-03-29T08:17:42.184Z</time></trkpt><trkpt lat="45.0210795" lon="8.6312923"><ele>106.66666666666666</ele><time>2026-03-29T08:17:43.185Z</time></trkpt><trkpt lat="45.0209838" lon="8.6314697"><ele>108.33333333333333</ele><time>2026-03-29T08:17:44.184Z</time></trkpt><trkpt lat="45.0208825" lon="8.6316333"><ele>110.0</ele><time>2026-03-29T08:17:45.185Z</time></trkpt><trkpt lat="45.0207762" lon="8.6317815"><ele>110.0</ele><time>2026-03-29T08:17:46.185Z</time></trkpt><trkpt lat="45.020666" lon="8.631914"><ele>110.0</ele><time>2026-03-29T08:17:47.184Z</time></trkpt><trkpt lat="45.0205522" lon="8.632031"><ele>110.0</ele><time>2026-03-29T08:17:48.184Z</time></trkpt><trkpt lat="45.0204305" lon="8.6321332"><ele>110.0</ele><time>2026-03-29T08:17:49.186Z</time></trkpt><trkpt lat="45.0202998" lon="8.6322217"><ele>112.0</ele><time>2026-03-29T08:17:50.183Z</time></trkpt><trkpt lat="45.0201622" lon="8.6323025"><ele>114.0</ele><time>2026-03-29T08:17:51.183Z</time></trkpt><trkpt lat="45.0200163" lon="8.6323738"><ele>116.0</ele><time>2026-03-29T08:17:52.183Z</time></trkpt><trkpt lat="45.0198643" lon="8.6324272"><ele>116.66666666666666</ele><time>2026-03-29T08:17:53.183Z</time></trkpt><trkpt lat="45.0197105" lon="8.6324587"><ele>117.33333333333334</ele><time>2026-03-29T08:17:54.184Z</time></trkpt><trkpt lat="45.0195528" lon="8.6324687"><ele>118.0</ele><time>2026-03-29T08:17:55.185Z</time></trkpt><trkpt lat="45.0193917" lon="8.6324632"><ele>118.0</ele><time>2026-03-29T08:17:56.183Z</time></trkpt><trkpt lat="45.0192393" lon="8.6324458"><ele>118.0</ele><time>2026-03-29T08:17:57.184Z</time></trkpt><trkpt lat="45.0190903" lon="8.6324192"><ele>118.0</ele><time>2026-03-29T08:17:58.183Z</time></trkpt><trkpt lat="45.018941" lon="8.6323868"><ele>119.0</ele><time>2026-03-29T08:17:59.184Z</time></trkpt><trkpt lat="45.0187945" lon="8.6323492"><ele>120.0</ele><time>2026-03-29T08:18:00.185Z</time></trkpt><trkpt lat="45.0186518" lon="8.6323142"><ele>121.0</ele><time>2026-03-29T08:18:01.185Z</time></trkpt><trkpt lat="45.018514" lon="8.6322925"><ele>122.0</ele><time>2026-03-29T08:18:02.181Z</time></trkpt><trkpt lat="45.0183768" lon="8.6322913"><ele>121.0</ele><time>2026-03-29T08:18:03.182Z</time></trkpt><trkpt lat="45.0182313" lon="8.6323127"><ele>120.0</ele><time>2026-03-29T08:18:04.183Z</time></trkpt><trkpt lat="45.0180773" lon="8.6323587"><ele>119.0</ele><time>2026-03-29T08:18:05.182Z</time></trkpt><trkpt lat="45.0179255" lon="8.6324227"><ele>119.0</ele><time>2026-03-29T08:18:06.186Z</time></trkpt><trkpt lat="45.0177845" lon="8.6325043"><ele>119.0</ele><time>2026-03-29T08:18:07.184Z</time></trkpt><trkpt lat="45.017652" lon="8.6326055"><ele>119.0</ele><time>2026-03-29T08:18:08.184Z</time></trkpt><trkpt lat="45.0175293" lon="8.6327168"><ele>119.0</ele><time>2026-03-29T08:18:09.185Z</time></trkpt><trkpt lat="45.0174157" lon="8.632824"><ele>120.0</ele><time>2026-03-29T08:18:10.184Z</time></trkpt><trkpt lat="45.0173083" lon="8.6329168"><ele>121.0</ele><time>2026-03-29T08:18:11.184Z</time></trkpt><trkpt lat="45.0172048" lon="8.6329872"><ele>122.0</ele><time>2026-03-29T08:18:12.183Z</time></trkpt><trkpt lat="45.017105" lon="8.6330358"><ele>123.0</ele><time>2026-03-29T08:18:13.184Z</time></trkpt><trkpt lat="45.0169977" lon="8.63307"><ele>123.0</ele><time>2026-03-29T08:18:14.184Z</time></trkpt><trkpt lat="45.0168833" lon="8.6330952"><ele>123.0</ele><time>2026-03-29T08:18:15.184Z</time></trkpt><trkpt lat="45.0167618" lon="8.6331152"><ele>123.0</ele><time>2026-03-29T08:18:16.184Z</time></trkpt><trkpt lat="45.0166323" lon="8.6331333"><ele>123.0</ele><time>2026-03-29T08:18:17.184Z</time></trkpt><trkpt lat="45.0165013" lon="8.6331502"><ele>123.0</ele><time>2026-03-29T08:18:18.183Z</time></trkpt><trkpt lat="45.0163798" lon="8.633166"><ele>123.0</ele><time>2026-03-29T08:18:19.186Z</time></trkpt><trkpt lat="45.016266" lon="8.6331793"><ele>123.0</ele><time>2026-03-29T08:18:20.184Z</time></trkpt><trkpt lat="45.0161523" lon="8.6331895"><ele>123.0</ele><time>2026-03-29T08:18:21.184Z</time></trkpt><trkpt lat="45.0160358" lon="8.6331982"><ele>123.0</ele><time>2026-03-29T08:18:22.186Z</time></trkpt><trkpt lat="45.0159133" lon="8.6332012"><ele>123.0</ele><time>2026-03-29T08:18:23.186Z</time></trkpt><trkpt lat="45.0157847" lon="8.6331982"><ele>123.0</ele><time>2026-03-29T08:18:24.184Z</time></trkpt><trkpt lat="45.0156505" lon="8.6331893"><ele>123.0</ele><time>2026-03-29T08:18:25.185Z</time></trkpt><trkpt lat="45.0155117" lon="8.633176"><ele>123.25</ele><time>2026-03-29T08:18:26.183Z</time></trkpt><trkpt lat="45.0153713" lon="8.633159"><ele>123.5</ele><time>2026-03-29T08:18:27.182Z</time></trkpt><trkpt lat="45.0152305" lon="8.6331392"><ele>123.75</ele><time>2026-03-29T08:18:28.183Z</time></trkpt><trkpt lat="45.0150892" lon="8.6331187"><ele>124.0</ele><time>2026-03-29T08:18:29.182Z</time></trkpt><trkpt lat="45.0149498" lon="8.6330968"><ele>124.5</ele><time>2026-03-29T08:18:30.181Z</time></trkpt><trkpt lat="45.0148135" lon="8.6330757"><ele>125.0</ele><time>2026-03-29T08:18:31.184Z</time></trkpt><trkpt lat="45.0146878" lon="8.6330553"><ele>125.5</ele><time>2026-03-29T08:18:32.182Z</time></trkpt><trkpt lat="45.0145658" lon="8.633036"><ele>126.0</ele><time>2026-03-29T08:18:33.183Z</time></trkpt><trkpt lat="45.014443" lon="8.6330145"><ele>126.0</ele><time>2026-03-29T08:18:34.183Z</time></trkpt><trkpt lat="45.014314" lon="8.6329835"><ele>126.0</ele><time>2026-03-29T08:18:35.181Z</time></trkpt><trkpt lat="45.0141797" lon="8.6329402"><ele>126.0</ele><time>2026-03-29T08:18:36.181Z</time></trkpt><trkpt lat="45.0140417" lon="8.632893"><ele>126.0</ele><time>2026-03-29T08:18:37.182Z</time></trkpt><trkpt lat="45.0139117" lon="8.632851"><ele>126.6</ele><time>2026-03-29T08:18:38.183Z</time></trkpt><trkpt lat="45.0137915" lon="8.632821"><ele>127.19999999999999</ele><time>2026-03-29T08:18:39.184Z</time></trkpt><trkpt lat="45.0136782" lon="8.632802"><ele>127.80000000000001</ele><time>2026-03-29T08:18:40.182Z</time></trkpt><trkpt lat="45.0135738" lon="8.6327862"><ele>128.4</ele><time>2026-03-29T08:18:41.185Z</time></trkpt><trkpt lat="45.0134815" lon="8.6327707"><ele>129.0</ele><time>2026-03-29T08:18:42.183Z</time></trkpt><trkpt lat="45.0134062" lon="8.6327495"><ele>128.66666666666666</ele><time>2026-03-29T08:18:43.183Z</time></trkpt><trkpt lat="45.0133417" lon="8.6327202"><ele>128.33333333333334</ele><time>2026-03-29T08:18:44.183Z</time></trkpt><trkpt lat="45.0132772" lon="8.6326858"><ele>128.0</ele><time>2026-03-29T08:18:45.182Z</time></trkpt><trkpt lat="45.0132087" lon="8.6326688"><ele>127.66666666666667</ele><time>2026-03-29T08:18:46.183Z</time></trkpt><trkpt lat="45.01313" lon="8.6326797"><ele>127.33333333333334</ele><time>2026-03-29T08:18:47.182Z</time></trkpt><trkpt lat="45.013039" lon="8.6326972"><ele>127.0</ele><time>2026-03-29T08:18:48.184Z</time></trkpt><trkpt lat="45.012938" lon="8.6326993"><ele>127.0</ele><time>2026-03-29T08:18:49.184Z</time></trkpt><trkpt lat="45.012837" lon="8.6326902"><ele>126.99999999999999</ele><time>2026-03-29T08:18:50.183Z</time></trkpt><trkpt lat="45.012729" lon="8.6326812"><ele>126.99999999999999</ele><time>2026-03-29T08:18:51.181Z</time></trkpt><trkpt lat="45.0126163" lon="8.6326685"><ele>127.0</ele><time>2026-03-29T08:18:52.18Z</time></trkpt><trkpt lat="45.0125032" lon="8.6326497"><ele>127.0</ele><time>2026-03-29T08:18:53.182Z</time></trkpt><trkpt lat="45.0123867" lon="8.6326292"><ele>127.19999999999999</ele><time>2026-03-29T08:18:54.182Z</time></trkpt><trkpt lat="45.0122725" lon="8.6326098"><ele>127.39999999999999</ele><time>2026-03-29T08:18:55.184Z</time></trkpt><trkpt lat="45.0121647" lon="8.6325933"><ele>127.60000000000001</ele><time>2026-03-29T08:18:56.182Z</time></trkpt><trkpt lat="45.0120593" lon="8.6325743"><ele>127.80000000000001</ele><time>2026-03-29T08:18:57.182Z</time></trkpt><trkpt lat="45.011955" lon="8.6325545"><ele>128.0</ele><time>2026-03-29T08:18:58.183Z</time></trkpt><trkpt lat="45.0118488" lon="8.632536"><ele>128.0</ele><time>2026-03-29T08:18:59.182Z</time></trkpt><trkpt lat="45.0117402" lon="8.632518"><ele>128.0</ele><time>2026-03-29T08:19:00.184Z</time></trkpt><trkpt lat="45.0116285" lon="8.6324997"><ele>128.0</ele><time>2026-03-29T08:19:01.183Z</time></trkpt><trkpt lat="45.0115132" lon="8.6324797"><ele>128.0</ele><time>2026-03-29T08:19:02.182Z</time></trkpt><trkpt lat="45.0113998" lon="8.632458"><ele>128.5</ele><time>2026-03-29T08:19:03.181Z</time></trkpt><trkpt lat="45.0112892" lon="8.6324398"><ele>129.0</ele><time>2026-03-29T08:19:04.182Z</time></trkpt><trkpt lat="45.0111737" lon="8.6324218"><ele>129.5</ele><time>2026-03-29T08:19:05.182Z</time></trkpt><trkpt lat="45.011052" lon="8.6324022"><ele>130.0</ele><time>2026-03-29T08:19:06.184Z</time></trkpt><trkpt lat="45.0109262" lon="8.6323822"><ele>131.0</ele><time>2026-03-29T08:19:07.183Z</time></trkpt><trkpt lat="45.010799" lon="8.632362"><ele>132.0</ele><time>2026-03-29T08:19:08.184Z</time></trkpt><trkpt lat="45.0106658" lon="8.632338"><ele>133.0</ele><time>2026-03-29T08:19:09.183Z</time></trkpt><trkpt lat="45.0105192" lon="8.6323148"><ele>134.0</ele><time>2026-03-29T08:19:10.182Z</time></trkpt><trkpt lat="45.01037" lon="8.6322918"><ele>134.0</ele><time>2026-03-29T08:19:11.183Z</time></trkpt><trkpt lat="45.010226" lon="8.6322708"><ele>134.0</ele><time>2026-03-29T08:19:12.186Z</time></trkpt><trkpt lat="45.010088" lon="8.6322478"><ele>134.0</ele><time>2026-03-29T08:19:13.184Z</time></trkpt><trkpt lat="45.0099503" lon="8.6322245"><ele>134.0</ele><time>2026-03-29T08:19:14.182Z</time></trkpt><trkpt lat="45.00981" lon="8.6322022"><ele>133.75</ele><time>2026-03-29T08:19:15.184Z</time></trkpt><trkpt lat="45.0096698" lon="8.632177"><ele>133.5</ele><time>2026-03-29T08:19:16.181Z</time></trkpt><trkpt lat="45.0095325" lon="8.632151"><ele>133.25</ele><time>2026-03-29T08:19:17.181Z</time></trkpt><trkpt lat="45.0093982" lon="8.6321258"><ele>133.0</ele><time>2026-03-29T08:19:18.182Z</time></trkpt><trkpt lat="45.0092665" lon="8.6321005"><ele>132.75</ele><time>2026-03-29T08:19:19.183Z</time></trkpt><trkpt lat="45.0091363" lon="8.6320758"><ele>132.5</ele><time>2026-03-29T08:19:20.184Z</time></trkpt><trkpt lat="45.0090057" lon="8.6320545"><ele>132.25</ele><time>2026-03-29T08:19:21.183Z</time></trkpt><trkpt lat="45.0088727" lon="8.6320332"><ele>132.0</ele><time>2026-03-29T08:19:22.184Z</time></trkpt><trkpt lat="45.008736" lon="8.6320093"><ele>132.0</ele><time>2026-03-29T08:19:23.183Z</time></trkpt><trkpt lat="45.0085968" lon="8.6319838"><ele>132.0</ele><time>2026-03-29T08:19:24.183Z</time></trkpt><trkpt lat="45.0084563" lon="8.6319572"><ele>132.0</ele><time>2026-03-29T08:19:25.184Z</time></trkpt><trkpt lat="45.008315" lon="8.6319298"><ele>132.0</ele><time>2026-03-29T08:19:26.183Z</time></trkpt><trkpt lat="45.008174" lon="8.6319032"><ele>130.0</ele><time>2026-03-29T08:19:27.183Z</time></trkpt><trkpt lat="45.0080368" lon="8.6318782"><ele>128.0</ele><time>2026-03-29T08:19:28.183Z</time></trkpt><trkpt lat="45.0079025" lon="8.6318538"><ele>126.0</ele><time>2026-03-29T08:19:29.183Z</time></trkpt><trkpt lat="45.0077638" lon="8.6318302"><ele>124.0</ele><time>2026-03-29T08:19:30.184Z</time></trkpt><trkpt lat="45.0076217" lon="8.6318103"><ele>124.25</ele><time>2026-03-29T08:19:31.184Z</time></trkpt><trkpt lat="45.0074775" lon="8.6317967"><ele>124.5</ele><time>2026-03-29T08:19:32.184Z</time></trkpt><trkpt lat="45.0073345" lon="8.6317893"><ele>124.75</ele><time>2026-03-29T08:19:33.184Z</time></trkpt><trkpt lat="45.0071977" lon="8.6317882"><ele>125.0</ele><time>2026-03-29T08:19:34.183Z</time></trkpt><trkpt lat="45.0070692" lon="8.6317917"><ele>125.0</ele><time>2026-03-29T08:19:35.184Z</time></trkpt><trkpt lat="45.0069423" lon="8.631797"><ele>125.0</ele><time>2026-03-29T08:19:36.185Z</time></trkpt><trkpt lat="45.0068183" lon="8.6318067"><ele>125.0</ele><time>2026-03-29T08:19:37.184Z</time></trkpt><trkpt lat="45.0067023" lon="8.6318198"><ele>125.0</ele><time>2026-03-29T08:19:38.185Z</time></trkpt><trkpt lat="45.0065865" lon="8.6318337"><ele>125.25</ele><time>2026-03-29T08:19:39.184Z</time></trkpt><trkpt lat="45.0064697" lon="8.6318475"><ele>125.5</ele><time>2026-03-29T08:19:40.183Z</time></trkpt><trkpt lat="45.0063515" lon="8.6318633"><ele>125.75</ele><time>2026-03-29T08:19:41.183Z</time></trkpt><trkpt lat="45.0062397" lon="8.6318807"><ele>126.0</ele><time>2026-03-29T08:19:42.183Z</time></trkpt><trkpt lat="45.0061352" lon="8.6318978"><ele>126.0</ele><time>2026-03-29T08:19:43.183Z</time></trkpt><trkpt lat="45.0060403" lon="8.6319165"><ele>126.0</ele><time>2026-03-29T08:19:44.184Z</time></trkpt><trkpt lat="45.0059553" lon="8.6319352"><ele>126.0</ele><time>2026-03-29T08:19:45.184Z</time></trkpt><trkpt lat="45.0058767" lon="8.6319472"><ele>126.0</ele><time>2026-03-29T08:19:46.186Z</time></trkpt><trkpt lat="45.0058002" lon="8.6319557"><ele>126.0</ele><time>2026-03-29T08:19:47.184Z</time></trkpt><trkpt lat="45.0057193" lon="8.6319755"><ele>126.0</ele><time>2026-03-29T08:19:48.185Z</time></trkpt><trkpt lat="45.0056392" lon="8.6320198"><ele>125.8</ele><time>2026-03-29T08:19:49.185Z</time></trkpt><trkpt lat="45.0055558" lon="8.6320928"><ele>125.6</ele><time>2026-03-29T08:19:50.186Z</time></trkpt><trkpt lat="45.0054715" lon="8.6321895"><ele>125.4</ele><time>2026-03-29T08:19:51.184Z</time></trkpt><trkpt lat="45.005382" lon="8.6322985"><ele>125.2</ele><time>2026-03-29T08:19:52.184Z</time></trkpt><trkpt lat="45.0052903" lon="8.6324083"><ele>125.0</ele><time>2026-03-29T08:19:53.184Z</time></trkpt><trkpt lat="45.0052037" lon="8.6325168"><ele>125.0</ele><time>2026-03-29T08:19:54.184Z</time></trkpt><trkpt lat="45.0051242" lon="8.6326283"><ele>125.0</ele><time>2026-03-29T08:19:55.184Z</time></trkpt><trkpt lat="45.0050508" lon="8.6327535"><ele>125.0</ele><time>2026-03-29T08:19:56.183Z</time></trkpt><trkpt lat="45.0049842" lon="8.632898"><ele>125.0</ele><time>2026-03-29T08:19:57.183Z</time></trkpt><trkpt lat="45.0049263" lon="8.6330662"><ele>124.66666666666666</ele><time>2026-03-29T08:19:58.184Z</time></trkpt><trkpt lat="45.0048768" lon="8.6332523"><ele>124.33333333333334</ele><time>2026-03-29T08:19:59.185Z</time></trkpt><trkpt lat="45.0048343" lon="8.6334542"><ele>124.0</ele><time>2026-03-29T08:20:00.184Z</time></trkpt><trkpt lat="45.0047923" lon="8.6336852"><ele>125.0</ele><time>2026-03-29T08:20:01.185Z</time></trkpt><trkpt lat="45.004751" lon="8.6339367"><ele>126.0</ele><time>2026-03-29T08:20:02.185Z</time></trkpt><trkpt lat="45.004715" lon="8.6341968"><ele>127.0</ele><time>2026-03-29T08:20:03.185Z</time></trkpt><trkpt lat="45.0046858" lon="8.6344575"><ele>128.66666666666669</ele><time>2026-03-29T08:20:04.183Z</time></trkpt><trkpt lat="45.0046593" lon="8.634729"><ele>130.33333333333334</ele><time>2026-03-29T08:20:05.182Z</time></trkpt><trkpt lat="45.0046335" lon="8.6350063"><ele>132.0</ele><time>2026-03-29T08:20:06.182Z</time></trkpt><trkpt lat="45.0046038" lon="8.635285"><ele>133.0</ele><time>2026-03-29T08:20:07.182Z</time></trkpt><trkpt lat="45.0045632" lon="8.6355618"><ele>134.0</ele><time>2026-03-29T08:20:08.184Z</time></trkpt><trkpt lat="45.004503" lon="8.6358302"><ele>135.0</ele><time>2026-03-29T08:20:09.185Z</time></trkpt><trkpt lat="45.0044188" lon="8.6360802"><ele>136.0</ele><time>2026-03-29T08:20:10.183Z</time></trkpt><trkpt lat="45.0043157" lon="8.6363147"><ele>137.0</ele><time>2026-03-29T08:20:11.185Z</time></trkpt><trkpt lat="45.0042025" lon="8.6365422"><ele>138.0</ele><time>2026-03-29T08:20:12.183Z</time></trkpt><trkpt lat="45.0040902" lon="8.636759"><ele>138.0</ele><time>2026-03-29T08:20:13.184Z</time></trkpt><trkpt lat="45.0039868" lon="8.636961"><ele>138.0</ele><time>2026-03-29T08:20:14.184Z</time></trkpt><trkpt lat="45.0038867" lon="8.6371588"><ele>138.0</ele><time>2026-03-29T08:20:15.184Z</time></trkpt><trkpt lat="45.0037862" lon="8.6373573"><ele>138.0</ele><time>2026-03-29T08:20:16.185Z</time></trkpt><trkpt lat="45.0036847" lon="8.63756"><ele>138.0</ele><time>2026-03-29T08:20:17.184Z</time></trkpt><trkpt lat="45.0035798" lon="8.637768"><ele>138.0</ele><time>2026-03-29T08:20:18.187Z</time></trkpt><trkpt lat="45.003473" lon="8.6379658"><ele>138.0</ele><time>2026-03-29T08:20:19.186Z</time></trkpt><trkpt lat="45.0033652" lon="8.6381382"><ele>138.0</ele><time>2026-03-29T08:20:20.186Z</time></trkpt><trkpt lat="45.0032567" lon="8.6382787"><ele>138.0</ele><time>2026-03-29T08:20:21.185Z</time></trkpt><trkpt lat="45.0031488" lon="8.6383935"><ele>138.0</ele><time>2026-03-29T08:20:22.185Z</time></trkpt><trkpt lat="45.0030457" lon="8.6384863"><ele>138.75</ele><time>2026-03-29T08:20:23.185Z</time></trkpt><trkpt lat="45.002945" lon="8.6385563"><ele>139.5</ele><time>2026-03-29T08:20:24.186Z</time></trkpt><trkpt lat="45.0028407" lon="8.6386013"><ele>140.25</ele><time>2026-03-29T08:20:25.185Z</time></trkpt><trkpt lat="45.0027252" lon="8.6386277"><ele>141.0</ele><time>2026-03-29T08:20:26.185Z</time></trkpt><trkpt lat="45.0026012" lon="8.6386367"><ele>140.75</ele><time>2026-03-29T08:20:27.187Z</time></trkpt><trkpt lat="45.0024743" lon="8.6386153"><ele>140.5</ele><time>2026-03-29T08:20:28.186Z</time></trkpt><trkpt lat="45.0023487" lon="8.6385653"><ele>140.25</ele><time>2026-03-29T08:20:29.183Z</time></trkpt><trkpt lat="45.0022233" lon="8.6384937"><ele>140.0</ele><time>2026-03-29T08:20:30.183Z</time></trkpt><trkpt lat="45.0020935" lon="8.638414"><ele>140.0</ele><time>2026-03-29T08:20:31.183Z</time></trkpt><trkpt lat="45.00196" lon="8.6383405"><ele>140.0</ele><time>2026-03-29T08:20:32.184Z</time></trkpt><trkpt lat="45.0018252" lon="8.6382792"><ele>140.0</ele><time>2026-03-29T08:20:33.186Z</time></trkpt><trkpt lat="45.0016887" lon="8.6382292"><ele>140.0</ele><time>2026-03-29T08:20:34.188Z</time></trkpt><trkpt lat="45.001545" lon="8.6381925"><ele>139.33333333333331</ele><time>2026-03-29T08:20:35.188Z</time></trkpt><trkpt lat="45.0013952" lon="8.6381742"><ele>138.66666666666666</ele><time>2026-03-29T08:20:36.186Z</time></trkpt><trkpt lat="45.001242" lon="8.6381775"><ele>138.0</ele><time>2026-03-29T08:20:37.186Z</time></trkpt><trkpt lat="45.0010878" lon="8.6381983"><ele>138.0</ele><time>2026-03-29T08:20:38.185Z</time></trkpt><trkpt lat="45.0009332" lon="8.6382337"><ele>138.0</ele><time>2026-03-29T08:20:39.185Z</time></trkpt><trkpt lat="45.0007792" lon="8.6382763"><ele>138.0</ele><time>2026-03-29T08:20:40.185Z</time></trkpt><trkpt lat="45.000626" lon="8.6383218"><ele>137.0</ele><time>2026-03-29T08:20:41.187Z</time></trkpt><trkpt lat="45.000473" lon="8.638366"><ele>136.0</ele><time>2026-03-29T08:20:42.185Z</time></trkpt><trkpt lat="45.0003235" lon="8.6384085"><ele>135.0</ele><time>2026-03-29T08:20:43.185Z</time></trkpt><trkpt lat="45.0001738" lon="8.638451"><ele>135.0</ele><time>2026-03-29T08:20:44.186Z</time></trkpt><trkpt lat="45.0000205" lon="8.6384947"><ele>135.0</ele><time>2026-03-29T08:20:45.186Z</time></trkpt><trkpt lat="44.9998648" lon="8.6385395"><ele>135.0</ele><time>2026-03-29T08:20:46.187Z</time></trkpt><trkpt lat="44.9997045" lon="8.6385867"><ele>136.66666666666666</ele><time>2026-03-29T08:20:47.186Z</time></trkpt><trkpt lat="44.9995435" lon="8.6386357"><ele>138.33333333333331</ele><time>2026-03-29T08:20:48.189Z</time></trkpt><trkpt lat="44.9993817" lon="8.6386842"><ele>140.0</ele><time>2026-03-29T08:20:49.187Z</time></trkpt><trkpt lat="44.9992185" lon="8.6387303"><ele>139.0</ele><time>2026-03-29T08:20:50.186Z</time></trkpt><trkpt lat="44.9990558" lon="8.6387757"><ele>138.0</ele><time>2026-03-29T08:20:51.185Z</time></trkpt><trkpt lat="44.9988912" lon="8.638822"><ele>137.0</ele><time>2026-03-29T08:20:52.187Z</time></trkpt><trkpt lat="44.998723" lon="8.638869"><ele>137.0</ele><time>2026-03-29T08:20:53.184Z</time></trkpt><trkpt lat="44.9985533" lon="8.6389167"><ele>137.0</ele><time>2026-03-29T08:20:54.185Z</time></trkpt><trkpt lat="44.9983852" lon="8.6389652"><ele>137.0</ele><time>2026-03-29T08:20:55.184Z</time></trkpt><trkpt lat="44.9982185" lon="8.639014"><ele>135.66666666666666</ele><time>2026-03-29T08:20:56.184Z</time></trkpt><trkpt lat="44.9980503" lon="8.639063"><ele>134.33333333333334</ele><time>2026-03-29T08:20:57.185Z</time></trkpt><trkpt lat="44.9978825" lon="8.6391122"><ele>133.0</ele><time>2026-03-29T08:20:58.186Z</time></trkpt><trkpt lat="44.9977127" lon="8.6391612"><ele>133.0</ele><time>2026-03-29T08:20:59.185Z</time></trkpt><trkpt lat="44.9975375" lon="8.6392093"><ele>133.0</ele><time>2026-03-29T08:21:00.185Z</time></trkpt><trkpt lat="44.9973572" lon="8.6392592"><ele>133.0</ele><time>2026-03-29T08:21:01.186Z</time></trkpt><trkpt lat="44.9971727" lon="8.6393112"><ele>133.33333333333334</ele><time>2026-03-29T08:21:02.185Z</time></trkpt><trkpt lat="44.9969875" lon="8.6393638"><ele>133.66666666666666</ele><time>2026-03-29T08:21:03.185Z</time></trkpt><trkpt lat="44.9968052" lon="8.6394165"><ele>134.0</ele><time>2026-03-29T08:21:04.185Z</time></trkpt><trkpt lat="44.9966258" lon="8.6394705"><ele>134.0</ele><time>2026-03-29T08:21:05.184Z</time></trkpt><trkpt lat="44.996445" lon="8.6395262"><ele>134.0</ele><time>2026-03-29T08:21:06.186Z</time></trkpt><trkpt lat="44.9962617" lon="8.6395828"><ele>134.0</ele><time>2026-03-29T08:21:07.186Z</time></trkpt><trkpt lat="44.9960782" lon="8.6396387"><ele>134.0</ele><time>2026-03-29T08:21:08.185Z</time></trkpt><trkpt lat="44.9958973" lon="8.6396937"><ele>134.0</ele><time>2026-03-29T08:21:09.187Z</time></trkpt><trkpt lat="44.9957173" lon="8.6397483"><ele>134.0</ele><time>2026-03-29T08:21:10.186Z</time></trkpt><trkpt lat="44.995537" lon="8.639801"><ele>134.0</ele><time>2026-03-29T08:21:11.184Z</time></trkpt><trkpt lat="44.9953553" lon="8.6398523"><ele>134.0</ele><time>2026-03-29T08:21:12.185Z</time></trkpt><trkpt lat="44.9951743" lon="8.639903"><ele>134.0</ele><time>2026-03-29T08:21:13.185Z</time></trkpt><trkpt lat="44.9949952" lon="8.6399532"><ele>134.0</ele><time>2026-03-29T08:21:14.185Z</time></trkpt><trkpt lat="44.9948137" lon="8.6400033"><ele>134.0</ele><time>2026-03-29T08:21:15.188Z</time></trkpt><trkpt lat="44.9946283" lon="8.6400513"><ele>134.0</ele><time>2026-03-29T08:21:16.185Z</time></trkpt><trkpt lat="44.9944405" lon="8.640095"><ele>134.0</ele><time>2026-03-29T08:21:17.184Z</time></trkpt><trkpt lat="44.9942503" lon="8.6401338"><ele>134.0</ele><time>2026-03-29T08:21:18.183Z</time></trkpt><trkpt lat="44.9940595" lon="8.640168"><ele>134.0</ele><time>2026-03-29T08:21:19.184Z</time></trkpt><trkpt lat="44.9938698" lon="8.6401982"><ele>134.66666666666666</ele><time>2026-03-29T08:21:20.183Z</time></trkpt><trkpt lat="44.9936823" lon="8.640224"><ele>135.33333333333334</ele><time>2026-03-29T08:21:21.183Z</time></trkpt><trkpt lat="44.993498" lon="8.6402462"><ele>136.0</ele><time>2026-03-29T08:21:22.186Z</time></trkpt><trkpt lat="44.9933158" lon="8.6402663"><ele>136.66666666666669</ele><time>2026-03-29T08:21:23.185Z</time></trkpt><trkpt lat="44.9931333" lon="8.6402885"><ele>137.33333333333334</ele><time>2026-03-29T08:21:24.184Z</time></trkpt><trkpt lat="44.9929477" lon="8.640313"><ele>138.0</ele><time>2026-03-29T08:21:25.185Z</time></trkpt><trkpt lat="44.9927552" lon="8.6403402"><ele>138.0</ele><time>2026-03-29T08:21:26.184Z</time></trkpt><trkpt lat="44.9925558" lon="8.6403667"><ele>138.0</ele><time>2026-03-29T08:21:27.185Z</time></trkpt><trkpt lat="44.9923537" lon="8.6403918"><ele>138.0</ele><time>2026-03-29T08:21:28.186Z</time></trkpt><trkpt lat="44.992151" lon="8.6404168"><ele>137.33333333333334</ele><time>2026-03-29T08:21:29.185Z</time></trkpt><trkpt lat="44.991949" lon="8.6404428"><ele>136.66666666666669</ele><time>2026-03-29T08:21:30.186Z</time></trkpt><trkpt lat="44.9917468" lon="8.6404697"><ele>136.0</ele><time>2026-03-29T08:21:31.185Z</time></trkpt><trkpt lat="44.991535" lon="8.6404992"><ele>135.5</ele><time>2026-03-29T08:21:32.185Z</time></trkpt><trkpt lat="44.991306" lon="8.640532"><ele>135.0</ele><time>2026-03-29T08:21:33.185Z</time></trkpt><trkpt lat="44.991064" lon="8.6405598"><ele>136.0</ele><time>2026-03-29T08:21:34.185Z</time></trkpt><trkpt lat="44.9908122" lon="8.6405848"><ele>137.0</ele><time>2026-03-29T08:21:35.185Z</time></trkpt><trkpt lat="44.9905567" lon="8.6406087"><ele>137.0</ele><time>2026-03-29T08:21:36.185Z</time></trkpt><trkpt lat="44.9903148" lon="8.6406322"><ele>137.0</ele><time>2026-03-29T08:21:37.186Z</time></trkpt><trkpt lat="44.9900898" lon="8.6406552"><ele>138.0</ele><time>2026-03-29T08:21:38.185Z</time></trkpt><trkpt lat="44.9898802" lon="8.6406793"><ele>139.0</ele><time>2026-03-29T08:21:39.186Z</time></trkpt><trkpt lat="44.9896852" lon="8.6407013"><ele>140.0</ele><time>2026-03-29T08:21:40.186Z</time></trkpt><trkpt lat="44.9895023" lon="8.6407188"><ele>140.0</ele><time>2026-03-29T08:21:41.185Z</time></trkpt><trkpt lat="44.989333" lon="8.640729"><ele>140.0</ele><time>2026-03-29T08:21:42.183Z</time></trkpt><trkpt lat="44.9891735" lon="8.6407318"><ele>140.0</ele><time>2026-03-29T08:21:43.183Z</time></trkpt><trkpt lat="44.9890145" lon="8.6407273"><ele>140.33333333333331</ele><time>2026-03-29T08:21:44.182Z</time></trkpt><trkpt lat="44.988854" lon="8.6407145"><ele>140.66666666666666</ele><time>2026-03-29T08:21:45.183Z</time></trkpt><trkpt lat="44.9886912" lon="8.640692"><ele>141.0</ele><time>2026-03-29T08:21:46.184Z</time></trkpt><trkpt lat="44.9885253" lon="8.6406618"><ele>141.0</ele><time>2026-03-29T08:21:47.183Z</time></trkpt><trkpt lat="44.9883565" lon="8.6406258"><ele>141.0</ele><time>2026-03-29T08:21:48.185Z</time></trkpt><trkpt lat="44.9881885" lon="8.6405813"><ele>141.0</ele><time>2026-03-29T08:21:49.184Z</time></trkpt><trkpt lat="44.988021" lon="8.640527"><ele>141.0</ele><time>2026-03-29T08:21:50.185Z</time></trkpt><trkpt lat="44.987856" lon="8.640461"><ele>141.0</ele><time>2026-03-29T08:21:51.184Z</time></trkpt><trkpt lat="44.9876953" lon="8.6403885"><ele>141.0</ele><time>2026-03-29T08:21:52.183Z</time></trkpt><trkpt lat="44.987535" lon="8.6403075"><ele>142.66666666666666</ele><time>2026-03-29T08:21:53.183Z</time></trkpt><trkpt lat="44.9873743" lon="8.6402205"><ele>144.33333333333331</ele><time>2026-03-29T08:21:54.184Z</time></trkpt><trkpt lat="44.9872132" lon="8.6401272"><ele>146.0</ele><time>2026-03-29T08:21:55.185Z</time></trkpt><trkpt lat="44.9870507" lon="8.6400325"><ele>146.0</ele><time>2026-03-29T08:21:56.185Z</time></trkpt><trkpt lat="44.9868877" lon="8.6399382"><ele>146.0</ele><time>2026-03-29T08:21:57.184Z</time></trkpt><trkpt lat="44.986723" lon="8.6398448"><ele>146.0</ele><time>2026-03-29T08:21:58.185Z</time></trkpt><trkpt lat="44.9865588" lon="8.639751"><ele>146.66666666666666</ele><time>2026-03-29T08:21:59.183Z</time></trkpt><trkpt lat="44.9863923" lon="8.639656"><ele>147.33333333333334</ele><time>2026-03-29T08:22:00.184Z</time></trkpt><trkpt lat="44.9862208" lon="8.6395577"><ele>148.0</ele><time>2026-03-29T08:22:01.186Z</time></trkpt><trkpt lat="44.9860437" lon="8.6394558"><ele>150.0</ele><time>2026-03-29T08:22:02.184Z</time></trkpt><trkpt lat="44.9858637" lon="8.6393502"><ele>152.0</ele><time>2026-03-29T08:22:03.184Z</time></trkpt><trkpt lat="44.9856803" lon="8.639242"><ele>154.0</ele><time>2026-03-29T08:22:04.184Z</time></trkpt><trkpt lat="44.9854957" lon="8.6391348"><ele>154.0</ele><time>2026-03-29T08:22:05.185Z</time></trkpt><trkpt lat="44.9853062" lon="8.6390287"><ele>154.0</ele><time>2026-03-29T08:22:06.184Z</time></trkpt><trkpt lat="44.9851095" lon="8.6389178"><ele>154.0</ele><time>2026-03-29T08:22:07.182Z</time></trkpt><trkpt lat="44.984909" lon="8.6388025"><ele>154.33333333333334</ele><time>2026-03-29T08:22:08.183Z</time></trkpt><trkpt lat="44.9847078" lon="8.638684"><ele>154.66666666666666</ele><time>2026-03-29T08:22:09.181Z</time></trkpt><trkpt lat="44.9845098" lon="8.6385578"><ele>155.0</ele><time>2026-03-29T08:22:10.182Z</time></trkpt><trkpt lat="44.9843225" lon="8.6384158"><ele>156.0</ele><time>2026-03-29T08:22:11.184Z</time></trkpt><trkpt lat="44.9841602" lon="8.6382557"><ele>157.0</ele><time>2026-03-29T08:22:12.184Z</time></trkpt><trkpt lat="44.9840242" lon="8.6380732"><ele>158.0</ele><time>2026-03-29T08:22:13.184Z</time></trkpt><trkpt lat="44.9839143" lon="8.6378595"><ele>160.33333333333331</ele><time>2026-03-29T08:22:14.183Z</time></trkpt><trkpt lat="44.9838268" lon="8.6376107"><ele>162.66666666666666</ele><time>2026-03-29T08:22:15.185Z</time></trkpt><trkpt lat="44.9837515" lon="8.6373318"><ele>165.0</ele><time>2026-03-29T08:22:16.184Z</time></trkpt><trkpt lat="44.9836805" lon="8.6370388"><ele>168.5</ele><time>2026-03-29T08:22:17.184Z</time></trkpt><trkpt lat="44.9836093" lon="8.6367383"><ele>172.0</ele><time>2026-03-29T08:22:18.184Z</time></trkpt><trkpt lat="44.9835372" lon="8.636433"><ele>174.5</ele><time>2026-03-29T08:22:19.184Z</time></trkpt><trkpt lat="44.9834652" lon="8.6361265"><ele>177.0</ele><time>2026-03-29T08:22:20.184Z</time></trkpt><trkpt lat="44.9833953" lon="8.635822"><ele>173.66666666666666</ele><time>2026-03-29T08:22:21.185Z</time></trkpt><trkpt lat="44.9833262" lon="8.6355223"><ele>170.33333333333331</ele><time>2026-03-29T08:22:22.186Z</time></trkpt><trkpt lat="44.9832567" lon="8.6352283"><ele>167.0</ele><time>2026-03-29T08:22:23.186Z</time></trkpt><trkpt lat="44.983189" lon="8.6349415"><ele>167.0</ele><time>2026-03-29T08:22:24.186Z</time></trkpt><trkpt lat="44.9831232" lon="8.6346627"><ele>167.0</ele><time>2026-03-29T08:22:25.187Z</time></trkpt><trkpt lat="44.9830578" lon="8.6343878"><ele>167.0</ele><time>2026-03-29T08:22:26.186Z</time></trkpt><trkpt lat="44.9829955" lon="8.634111"><ele>169.0</ele><time>2026-03-29T08:22:27.186Z</time></trkpt><trkpt lat="44.9829423" lon="8.633823"><ele>171.0</ele><time>2026-03-29T08:22:28.186Z</time></trkpt><trkpt lat="44.9829038" lon="8.6335302"><ele>173.0</ele><time>2026-03-29T08:22:29.184Z</time></trkpt><trkpt lat="44.9828793" lon="8.633236"><ele>174.0</ele><time>2026-03-29T08:22:30.185Z</time></trkpt><trkpt lat="44.9828643" lon="8.632943"><ele>175.0</ele><time>2026-03-29T08:22:31.185Z</time></trkpt><trkpt lat="44.982855" lon="8.6326495"><ele>176.0</ele><time>2026-03-29T08:22:32.182Z</time></trkpt><trkpt lat="44.9828485" lon="8.6323577"><ele>176.0</ele><time>2026-03-29T08:22:33.182Z</time></trkpt><trkpt lat="44.9828425" lon="8.6320667"><ele>176.0</ele><time>2026-03-29T08:22:34.181Z</time></trkpt><trkpt lat="44.9828357" lon="8.6317752"><ele>176.0</ele><time>2026-03-29T08:22:35.184Z</time></trkpt><trkpt lat="44.982827" lon="8.6314898"><ele>177.66666666666666</ele><time>2026-03-29T08:22:36.184Z</time></trkpt><trkpt lat="44.9828113" lon="8.6312247"><ele>179.33333333333334</ele><time>2026-03-29T08:22:37.185Z</time></trkpt><trkpt lat="44.9827788" lon="8.6309713"><ele>181.0</ele><time>2026-03-29T08:22:38.184Z</time></trkpt><trkpt lat="44.9827207" lon="8.6307245"><ele>180.66666666666669</ele><time>2026-03-29T08:22:39.186Z</time></trkpt><trkpt lat="44.9826333" lon="8.6304868"><ele>180.33333333333334</ele><time>2026-03-29T08:22:40.185Z</time></trkpt><trkpt lat="44.982515" lon="8.6302705"><ele>180.0</ele><time>2026-03-29T08:22:41.184Z</time></trkpt><trkpt lat="44.98237" lon="8.630084"><ele>180.0</ele><time>2026-03-29T08:22:42.184Z</time></trkpt><trkpt lat="44.9822022" lon="8.629939"><ele>180.0</ele><time>2026-03-29T08:22:43.184Z</time></trkpt><trkpt lat="44.9820198" lon="8.6298397"><ele>180.0</ele><time>2026-03-29T08:22:44.184Z</time></trkpt><trkpt lat="44.9818267" lon="8.6297822"><ele>179.66666666666666</ele><time>2026-03-29T08:22:45.183Z</time></trkpt><trkpt lat="44.9816262" lon="8.629758"><ele>179.33333333333331</ele><time>2026-03-29T08:22:46.184Z</time></trkpt><trkpt lat="44.9814218" lon="8.629751"><ele>179.0</ele><time>2026-03-29T08:22:47.184Z</time></trkpt><trkpt lat="44.9812237" lon="8.6297503"><ele>179.0</ele><time>2026-03-29T08:22:48.184Z</time></trkpt><trkpt lat="44.9810347" lon="8.6297535"><ele>179.0</ele><time>2026-03-29T08:22:49.186Z</time></trkpt><trkpt lat="44.980846" lon="8.6297622"><ele>179.0</ele><time>2026-03-29T08:22:50.184Z</time></trkpt><trkpt lat="44.9806593" lon="8.6297717"><ele>179.33333333333331</ele><time>2026-03-29T08:22:51.184Z</time></trkpt><trkpt lat="44.980475" lon="8.6297697"><ele>179.66666666666666</ele><time>2026-03-29T08:22:52.185Z</time></trkpt><trkpt lat="44.980293" lon="8.629753"><ele>180.0</ele><time>2026-03-29T08:22:53.183Z</time></trkpt><trkpt lat="44.9801082" lon="8.6297235"><ele>181.33333333333334</ele><time>2026-03-29T08:22:54.183Z</time></trkpt><trkpt lat="44.9799325" lon="8.6296915"><ele>182.66666666666669</ele><time>2026-03-29T08:22:55.183Z</time></trkpt><trkpt lat="44.979771" lon="8.6296658"><ele>184.0</ele><time>2026-03-29T08:22:56.181Z</time></trkpt><trkpt lat="44.9796255" lon="8.6296433"><ele>184.0</ele><time>2026-03-29T08:22:57.182Z</time></trkpt><trkpt lat="44.9795" lon="8.6296062"><ele>184.0</ele><time>2026-03-29T08:22:58.181Z</time></trkpt><trkpt lat="44.9793903" lon="8.6295382"><ele>184.0</ele><time>2026-03-29T08:22:59.181Z</time></trkpt><trkpt lat="44.9792982" lon="8.6294308"><ele>184.0</ele><time>2026-03-29T08:23:00.183Z</time></trkpt><trkpt lat="44.9792253" lon="8.6292857"><ele>186.25</ele><time>2026-03-29T08:23:01.183Z</time></trkpt><trkpt lat="44.9791685" lon="8.6291303"><ele>188.5</ele><time>2026-03-29T08:23:02.183Z</time></trkpt><trkpt lat="44.9791352" lon="8.6289745"><ele>190.75</ele><time>2026-03-29T08:23:03.184Z</time></trkpt><trkpt lat="44.9791365" lon="8.628818"><ele>193.0</ele><time>2026-03-29T08:23:04.183Z</time></trkpt><trkpt lat="44.9791815" lon="8.628659"><ele>192.75</ele><time>2026-03-29T08:23:05.183Z</time></trkpt><trkpt lat="44.9792653" lon="8.628501"><ele>192.5</ele><time>2026-03-29T08:23:06.183Z</time></trkpt><trkpt lat="44.9793723" lon="8.6283437"><ele>192.25</ele><time>2026-03-29T08:23:07.184Z</time></trkpt><trkpt lat="44.9794797" lon="8.6281878"><ele>192.0</ele><time>2026-03-29T08:23:08.182Z</time></trkpt><trkpt lat="44.979585" lon="8.6280345"><ele>192.0</ele><time>2026-03-29T08:23:09.184Z</time></trkpt><trkpt lat="44.97969" lon="8.6278788"><ele>192.0</ele><time>2026-03-29T08:23:10.184Z</time></trkpt><trkpt lat="44.9797903" lon="8.627731"><ele>192.0</ele><time>2026-03-29T08:23:11.183Z</time></trkpt><trkpt lat="44.979884" lon="8.6275955"><ele>192.0</ele><time>2026-03-29T08:23:12.183Z</time></trkpt><trkpt lat="44.979968" lon="8.6274782"><ele>192.0</ele><time>2026-03-29T08:23:13.186Z</time></trkpt><trkpt lat="44.9800403" lon="8.6273655"><ele>192.0</ele><time>2026-03-29T08:23:14.183Z</time></trkpt><trkpt lat="44.9800902" lon="8.62725"><ele>192.0</ele><time>2026-03-29T08:23:15.181Z</time></trkpt><trkpt lat="44.98011" lon="8.627134"><ele>192.0</ele><time>2026-03-29T08:23:16.179Z</time></trkpt><trkpt lat="44.9800945" lon="8.6270178"><ele>192.0</ele><time>2026-03-29T08:23:17.181Z</time></trkpt><trkpt lat="44.9800462" lon="8.6269117"><ele>187.8</ele><time>2026-03-29T08:23:18.18Z</time></trkpt><trkpt lat="44.9799695" lon="8.6268385"><ele>183.6</ele><time>2026-03-29T08:23:19.182Z</time></trkpt><trkpt lat="44.9798708" lon="8.6268078"><ele>179.4</ele><time>2026-03-29T08:23:20.185Z</time></trkpt><trkpt lat="44.9797607" lon="8.626824"><ele>175.20000000000002</ele><time>2026-03-29T08:23:21.181Z</time></trkpt><trkpt lat="44.9796507" lon="8.6268725"><ele>171.0</ele><time>2026-03-29T08:23:22.183Z</time></trkpt><trkpt lat="44.9795458" lon="8.6269287"><ele>170.20000000000002</ele><time>2026-03-29T08:23:23.181Z</time></trkpt><trkpt lat="44.9794457" lon="8.6269833"><ele>169.4</ele><time>2026-03-29T08:23:24.184Z</time></trkpt><trkpt lat="44.9793467" lon="8.6270338"><ele>168.6</ele><time>2026-03-29T08:23:25.183Z</time></trkpt><trkpt lat="44.9792405" lon="8.627063"><ele>167.8</ele><time>2026-03-29T08:23:26.183Z</time></trkpt><trkpt lat="44.9791268" lon="8.6270438"><ele>167.0</ele><time>2026-03-29T08:23:27.183Z</time></trkpt><trkpt lat="44.9790178" lon="8.6269603"><ele>167.0</ele><time>2026-03-29T08:23:28.183Z</time></trkpt><trkpt lat="44.9789238" lon="8.6268237"><ele>167.0</ele><time>2026-03-29T08:23:29.182Z</time></trkpt><trkpt lat="44.9788427" lon="8.6266583"><ele>167.0</ele><time>2026-03-29T08:23:30.181Z</time></trkpt><trkpt lat="44.978759" lon="8.626482"><ele>167.0</ele><time>2026-03-29T08:23:31.183Z</time></trkpt><trkpt lat="44.9786727" lon="8.6263007"><ele>163.33333333333331</ele><time>2026-03-29T08:23:32.182Z</time></trkpt><trkpt lat="44.9785908" lon="8.6261217"><ele>159.66666666666666</ele><time>2026-03-29T08:23:33.183Z</time></trkpt><trkpt lat="44.978508" lon="8.625938"><ele>156.0</ele><time>2026-03-29T08:23:34.184Z</time></trkpt><trkpt lat="44.9784195" lon="8.625756"><ele>154.66666666666666</ele><time>2026-03-29T08:23:35.181Z</time></trkpt><trkpt lat="44.9783198" lon="8.6255807"><ele>153.33333333333331</ele><time>2026-03-29T08:23:36.183Z</time></trkpt><trkpt lat="44.9782148" lon="8.6254208"><ele>152.0</ele><time>2026-03-29T08:23:37.184Z</time></trkpt><trkpt lat="44.9781108" lon="8.6252795"><ele>152.0</ele><time>2026-03-29T08:23:38.185Z</time></trkpt><trkpt lat="44.9780113" lon="8.6251573"><ele>152.0</ele><time>2026-03-29T08:23:39.184Z</time></trkpt><trkpt lat="44.977914" lon="8.625056"><ele>152.0</ele><time>2026-03-29T08:23:40.183Z</time></trkpt><trkpt lat="44.9778113" lon="8.6249865"><ele>152.0</ele><time>2026-03-29T08:23:41.181Z</time></trkpt><trkpt lat="44.9777067" lon="8.6249668"><ele>152.0</ele><time>2026-03-29T08:23:42.182Z</time></trkpt><trkpt lat="44.9776018" lon="8.625003"><ele>152.0</ele><time>2026-03-29T08:23:43.182Z</time></trkpt><trkpt lat="44.9775013" lon="8.6250792"><ele>152.0</ele><time>2026-03-29T08:23:44.182Z</time></trkpt><trkpt lat="44.9774063" lon="8.6251667"><ele>152.0</ele><time>2026-03-29T08:23:45.181Z</time></trkpt><trkpt lat="44.9773035" lon="8.6252353"><ele>152.0</ele><time>2026-03-29T08:23:46.181Z</time></trkpt><trkpt lat="44.9771898" lon="8.6252685"><ele>152.25</ele><time>2026-03-29T08:23:47.18Z</time></trkpt><trkpt lat="44.9770697" lon="8.6252615"><ele>152.5</ele><time>2026-03-29T08:23:48.18Z</time></trkpt><trkpt lat="44.9769515" lon="8.6252072"><ele>152.75</ele><time>2026-03-29T08:23:49.182Z</time></trkpt><trkpt lat="44.9768523" lon="8.6250935"><ele>153.0</ele><time>2026-03-29T08:23:50.184Z</time></trkpt><trkpt lat="44.9767793" lon="8.6249298"><ele>153.0</ele><time>2026-03-29T08:23:51.182Z</time></trkpt><trkpt lat="44.9767278" lon="8.6247318"><ele>153.0</ele><time>2026-03-29T08:23:52.184Z</time></trkpt><trkpt lat="44.9766865" lon="8.624523"><ele>153.0</ele><time>2026-03-29T08:23:53.181Z</time></trkpt><trkpt lat="44.9766313" lon="8.6243072"><ele>150.66666666666666</ele><time>2026-03-29T08:23:54.182Z</time></trkpt><trkpt lat="44.9765373" lon="8.6240975"><ele>148.33333333333331</ele><time>2026-03-29T08:23:55.181Z</time></trkpt><trkpt lat="44.976414" lon="8.6238928"><ele>146.0</ele><time>2026-03-29T08:23:56.181Z</time></trkpt><trkpt lat="44.9762818" lon="8.6236905"><ele>143.33333333333331</ele><time>2026-03-29T08:23:57.183Z</time></trkpt><trkpt lat="44.97615" lon="8.6234905"><ele>140.66666666666666</ele><time>2026-03-29T08:23:58.183Z</time></trkpt><trkpt lat="44.9760235" lon="8.6232972"><ele>138.0</ele><time>2026-03-29T08:23:59.182Z</time></trkpt><trkpt lat="44.9758963" lon="8.6231022"><ele>137.0</ele><time>2026-03-29T08:24:00.185Z</time></trkpt><trkpt lat="44.975766" lon="8.622905"><ele>136.0</ele><time>2026-03-29T08:24:01.183Z</time></trkpt><trkpt lat="44.9756278" lon="8.6227125"><ele>135.0</ele><time>2026-03-29T08:24:02.184Z</time></trkpt><trkpt lat="44.9754717" lon="8.6225273"><ele>135.0</ele><time>2026-03-29T08:24:03.183Z</time></trkpt><trkpt lat="44.9753043" lon="8.6223547"><ele>135.0</ele><time>2026-03-29T08:24:04.185Z</time></trkpt><trkpt lat="44.9751325" lon="8.6221895"><ele>135.0</ele><time>2026-03-29T08:24:05.184Z</time></trkpt><trkpt lat="44.9749535" lon="8.6220192"><ele>133.66666666666666</ele><time>2026-03-29T08:24:06.182Z</time></trkpt><trkpt lat="44.9747702" lon="8.6218392"><ele>132.33333333333331</ele><time>2026-03-29T08:24:07.183Z</time></trkpt><trkpt lat="44.9745863" lon="8.6216543"><ele>131.0</ele><time>2026-03-29T08:24:08.185Z</time></trkpt><trkpt lat="44.9744053" lon="8.621471"><ele>131.0</ele><time>2026-03-29T08:24:09.184Z</time></trkpt><trkpt lat="44.9742343" lon="8.6212957"><ele>131.0</ele><time>2026-03-29T08:24:10.183Z</time></trkpt><trkpt lat="44.9740733" lon="8.6211278"><ele>131.0</ele><time>2026-03-29T08:24:11.184Z</time></trkpt><trkpt lat="44.9739198" lon="8.6209658"><ele>130.0</ele><time>2026-03-29T08:24:12.182Z</time></trkpt><trkpt lat="44.9737632" lon="8.6208075"><ele>129.0</ele><time>2026-03-29T08:24:13.184Z</time></trkpt><trkpt lat="44.973598" lon="8.6206543"><ele>128.0</ele><time>2026-03-29T08:24:14.186Z</time></trkpt><trkpt lat="44.9734192" lon="8.6205085"><ele>129.0</ele><time>2026-03-29T08:24:15.184Z</time></trkpt><trkpt lat="44.9732272" lon="8.6203642"><ele>130.0</ele><time>2026-03-29T08:24:16.184Z</time></trkpt><trkpt lat="44.9730367" lon="8.620224"><ele>131.0</ele><time>2026-03-29T08:24:17.184Z</time></trkpt><trkpt lat="44.9728538" lon="8.6200942"><ele>129.0</ele><time>2026-03-29T08:24:18.187Z</time></trkpt><trkpt lat="44.9726755" lon="8.6199693"><ele>127.0</ele><time>2026-03-29T08:24:19.183Z</time></trkpt><trkpt lat="44.9724952" lon="8.6198387"><ele>125.0</ele><time>2026-03-29T08:24:20.183Z</time></trkpt><trkpt lat="44.9723152" lon="8.6196908"><ele>124.66666666666666</ele><time>2026-03-29T08:24:21.184Z</time></trkpt><trkpt lat="44.9721395" lon="8.6195153"><ele>124.33333333333334</ele><time>2026-03-29T08:24:22.184Z</time></trkpt><trkpt lat="44.9719738" lon="8.6193123"><ele>124.0</ele><time>2026-03-29T08:24:23.185Z</time></trkpt><trkpt lat="44.9718123" lon="8.6190963"><ele>123.0</ele><time>2026-03-29T08:24:24.184Z</time></trkpt><trkpt lat="44.971651" lon="8.6188777"><ele>122.0</ele><time>2026-03-29T08:24:25.189Z</time></trkpt><trkpt lat="44.971498" lon="8.6186682"><ele>121.0</ele><time>2026-03-29T08:24:26.184Z</time></trkpt><trkpt lat="44.9713537" lon="8.6184695"><ele>121.0</ele><time>2026-03-29T08:24:27.185Z</time></trkpt><trkpt lat="44.9712117" lon="8.6182758"><ele>121.0</ele><time>2026-03-29T08:24:28.184Z</time></trkpt><trkpt lat="44.971068" lon="8.6180842"><ele>121.0</ele><time>2026-03-29T08:24:29.185Z</time></trkpt><trkpt lat="44.9709233" lon="8.6178928"><ele>120.66666666666667</ele><time>2026-03-29T08:24:30.184Z</time></trkpt><trkpt lat="44.9707793" lon="8.617695"><ele>120.33333333333334</ele><time>2026-03-29T08:24:31.185Z</time></trkpt><trkpt lat="44.9706368" lon="8.6174928"><ele>120.0</ele><time>2026-03-29T08:24:32.184Z</time></trkpt><trkpt lat="44.9704997" lon="8.6172808"><ele>120.0</ele><time>2026-03-29T08:24:33.184Z</time></trkpt><trkpt lat="44.9703747" lon="8.6170575"><ele>120.0</ele><time>2026-03-29T08:24:34.182Z</time></trkpt><trkpt lat="44.9702657" lon="8.6168218"><ele>120.0</ele><time>2026-03-29T08:24:35.184Z</time></trkpt><trkpt lat="44.9701728" lon="8.6165732"><ele>120.0</ele><time>2026-03-29T08:24:36.183Z</time></trkpt><trkpt lat="44.9700955" lon="8.6163132"><ele>120.0</ele><time>2026-03-29T08:24:37.182Z</time></trkpt><trkpt lat="44.9700302" lon="8.6160448"><ele>120.0</ele><time>2026-03-29T08:24:38.18Z</time></trkpt><trkpt lat="44.9699718" lon="8.6157715"><ele>119.33333333333334</ele><time>2026-03-29T08:24:39.183Z</time></trkpt><trkpt lat="44.969916" lon="8.6154953"><ele>118.66666666666667</ele><time>2026-03-29T08:24:40.182Z</time></trkpt><trkpt lat="44.969861" lon="8.6152177"><ele>118.0</ele><time>2026-03-29T08:24:41.182Z</time></trkpt><trkpt lat="44.9698052" lon="8.614941"><ele>118.0</ele><time>2026-03-29T08:24:42.185Z</time></trkpt><trkpt lat="44.9697468" lon="8.614662"><ele>118.0</ele><time>2026-03-29T08:24:43.183Z</time></trkpt><trkpt lat="44.9696902" lon="8.6143812"><ele>118.0</ele><time>2026-03-29T08:24:44.182Z</time></trkpt><trkpt lat="44.9696313" lon="8.6140958"><ele>117.66666666666667</ele><time>2026-03-29T08:24:45.183Z</time></trkpt><trkpt lat="44.9695707" lon="8.6138097"><ele>117.33333333333334</ele><time>2026-03-29T08:24:46.183Z</time></trkpt><trkpt lat="44.9695013" lon="8.6135275"><ele>117.0</ele><time>2026-03-29T08:24:47.183Z</time></trkpt><trkpt lat="44.9694263" lon="8.6132642"><ele>116.33333333333334</ele><time>2026-03-29T08:24:48.185Z</time></trkpt><trkpt lat="44.9693502" lon="8.6130178"><ele>115.66666666666667</ele><time>2026-03-29T08:24:49.184Z</time></trkpt><trkpt lat="44.9692762" lon="8.6127843"><ele>115.0</ele><time>2026-03-29T08:24:50.184Z</time></trkpt><trkpt lat="44.9692067" lon="8.612564"><ele>114.66666666666667</ele><time>2026-03-29T08:24:51.184Z</time></trkpt><trkpt lat="44.9691405" lon="8.6123567"><ele>114.33333333333334</ele><time>2026-03-29T08:24:52.184Z</time></trkpt><trkpt lat="44.9690703" lon="8.612159"><ele>114.0</ele><time>2026-03-29T08:24:53.184Z</time></trkpt><trkpt lat="44.9689815" lon="8.6119725"><ele>113.33333333333334</ele><time>2026-03-29T08:24:54.184Z</time></trkpt><trkpt lat="44.9688678" lon="8.6118098"><ele>112.66666666666667</ele><time>2026-03-29T08:24:55.186Z</time></trkpt><trkpt lat="44.9687313" lon="8.6116757"><ele>112.0</ele><time>2026-03-29T08:24:56.184Z</time></trkpt><trkpt lat="44.968575" lon="8.611563"><ele>112.0</ele><time>2026-03-29T08:24:57.183Z</time></trkpt><trkpt lat="44.9684163" lon="8.6114595"><ele>112.0</ele><time>2026-03-29T08:24:58.184Z</time></trkpt><trkpt lat="44.9682678" lon="8.6113617"><ele>112.0</ele><time>2026-03-29T08:24:59.181Z</time></trkpt><trkpt lat="44.9681227" lon="8.6112677"><ele>112.25</ele><time>2026-03-29T08:25:00.181Z</time></trkpt><trkpt lat="44.9679795" lon="8.6111752"><ele>112.5</ele><time>2026-03-29T08:25:01.182Z</time></trkpt><trkpt lat="44.9678462" lon="8.6110898"><ele>112.75</ele><time>2026-03-29T08:25:02.183Z</time></trkpt><trkpt lat="44.967723" lon="8.6110088"><ele>113.0</ele><time>2026-03-29T08:25:03.184Z</time></trkpt><trkpt lat="44.9676032" lon="8.610929"><ele>112.75</ele><time>2026-03-29T08:25:04.184Z</time></trkpt><trkpt lat="44.9674868" lon="8.610853"><ele>112.5</ele><time>2026-03-29T08:25:05.183Z</time></trkpt><trkpt lat="44.9673803" lon="8.610784"><ele>112.25</ele><time>2026-03-29T08:25:06.184Z</time></trkpt><trkpt lat="44.9672827" lon="8.6107197"><ele>112.0</ele><time>2026-03-29T08:25:07.184Z</time></trkpt><trkpt lat="44.9671883" lon="8.6106578"><ele>112.0</ele><time>2026-03-29T08:25:08.184Z</time></trkpt><trkpt lat="44.9670945" lon="8.610597"><ele>111.99999999999999</ele><time>2026-03-29T08:25:09.185Z</time></trkpt><trkpt lat="44.9670013" lon="8.6105347"><ele>111.99999999999999</ele><time>2026-03-29T08:25:10.184Z</time></trkpt><trkpt lat="44.9669083" lon="8.6104722"><ele>112.0</ele><time>2026-03-29T08:25:11.184Z</time></trkpt><trkpt lat="44.9668138" lon="8.6104087"><ele>112.0</ele><time>2026-03-29T08:25:12.185Z</time></trkpt><trkpt lat="44.9667182" lon="8.6103438"><ele>111.8</ele><time>2026-03-29T08:25:13.187Z</time></trkpt><trkpt lat="44.9666197" lon="8.6102783"><ele>111.6</ele><time>2026-03-29T08:25:14.184Z</time></trkpt><trkpt lat="44.9665198" lon="8.6102122"><ele>111.39999999999999</ele><time>2026-03-29T08:25:15.184Z</time></trkpt><trkpt lat="44.966423" lon="8.6101487"><ele>111.19999999999999</ele><time>2026-03-29T08:25:16.184Z</time></trkpt><trkpt lat="44.9663218" lon="8.6100823"><ele>111.0</ele><time>2026-03-29T08:25:17.184Z</time></trkpt><trkpt lat="44.966218" lon="8.610016"><ele>111.0</ele><time>2026-03-29T08:25:18.183Z</time></trkpt><trkpt lat="44.9661113" lon="8.609947"><ele>111.0</ele><time>2026-03-29T08:25:19.185Z</time></trkpt><trkpt lat="44.9660022" lon="8.6098753"><ele>111.0</ele><time>2026-03-29T08:25:20.184Z</time></trkpt><trkpt lat="44.9658892" lon="8.6098058"><ele>111.0</ele><time>2026-03-29T08:25:21.184Z</time></trkpt><trkpt lat="44.9657697" lon="8.6097433"><ele>110.75</ele><time>2026-03-29T08:25:22.187Z</time></trkpt><trkpt lat="44.965642" lon="8.6096882"><ele>110.5</ele><time>2026-03-29T08:25:23.183Z</time></trkpt><trkpt lat="44.9655058" lon="8.6096347"><ele>110.25</ele><time>2026-03-29T08:25:24.183Z</time></trkpt><trkpt lat="44.9653668" lon="8.6095788"><ele>110.0</ele><time>2026-03-29T08:25:25.182Z</time></trkpt><trkpt lat="44.965228" lon="8.6095225"><ele>109.75</ele><time>2026-03-29T08:25:26.182Z</time></trkpt><trkpt lat="44.9650897" lon="8.6094683"><ele>109.5</ele><time>2026-03-29T08:25:27.184Z</time></trkpt><trkpt lat="44.9649527" lon="8.6094178"><ele>109.25</ele><time>2026-03-29T08:25:28.184Z</time></trkpt><trkpt lat="44.9648138" lon="8.6093758"><ele>109.0</ele><time>2026-03-29T08:25:29.185Z</time></trkpt><trkpt lat="44.9646712" lon="8.6093537"><ele>109.0</ele><time>2026-03-29T08:25:30.184Z</time></trkpt><trkpt lat="44.9645238" lon="8.6093563"><ele>109.0</ele><time>2026-03-29T08:25:31.187Z</time></trkpt><trkpt lat="44.964366" lon="8.6093817"><ele>109.0</ele><time>2026-03-29T08:25:32.183Z</time></trkpt><trkpt lat="44.9642035" lon="8.6094178"><ele>108.66666666666667</ele><time>2026-03-29T08:25:33.184Z</time></trkpt><trkpt lat="44.964035" lon="8.6094572"><ele>108.33333333333334</ele><time>2026-03-29T08:25:34.186Z</time></trkpt><trkpt lat="44.9638707" lon="8.6094982"><ele>108.0</ele><time>2026-03-29T08:25:35.184Z</time></trkpt><trkpt lat="44.9637163" lon="8.6095357"><ele>108.5</ele><time>2026-03-29T08:25:36.186Z</time></trkpt><trkpt lat="44.9635703" lon="8.6095692"><ele>109.0</ele><time>2026-03-29T08:25:37.185Z</time></trkpt><trkpt lat="44.9634273" lon="8.609599"><ele>109.5</ele><time>2026-03-29T08:25:38.186Z</time></trkpt><trkpt lat="44.9632853" lon="8.6096283"><ele>110.0</ele><time>2026-03-29T08:25:39.186Z</time></trkpt><trkpt lat="44.9631418" lon="8.6096582"><ele>110.0</ele><time>2026-03-29T08:25:40.185Z</time></trkpt><trkpt lat="44.962997" lon="8.6096882"><ele>110.0</ele><time>2026-03-29T08:25:41.185Z</time></trkpt><trkpt lat="44.9628503" lon="8.6097167"><ele>110.0</ele><time>2026-03-29T08:25:42.184Z</time></trkpt><trkpt lat="44.9627035" lon="8.6097448"><ele>110.0</ele><time>2026-03-29T08:25:43.186Z</time></trkpt><trkpt lat="44.9625583" lon="8.609776"><ele>110.33333333333333</ele><time>2026-03-29T08:25:44.184Z</time></trkpt><trkpt lat="44.9624105" lon="8.6098113"><ele>110.66666666666666</ele><time>2026-03-29T08:25:45.184Z</time></trkpt><trkpt lat="44.9622473" lon="8.6098533"><ele>111.0</ele><time>2026-03-29T08:25:46.185Z</time></trkpt><trkpt lat="44.9620668" lon="8.6098958"><ele>111.0</ele><time>2026-03-29T08:25:47.181Z</time></trkpt><trkpt lat="44.9618717" lon="8.6099367"><ele>111.0</ele><time>2026-03-29T08:25:48.182Z</time></trkpt><trkpt lat="44.961663" lon="8.6099747"><ele>111.0</ele><time>2026-03-29T08:25:49.183Z</time></trkpt><trkpt lat="44.9614495" lon="8.6100108"><ele>110.0</ele><time>2026-03-29T08:25:50.182Z</time></trkpt><trkpt lat="44.9612262" lon="8.6100483"><ele>109.0</ele><time>2026-03-29T08:25:51.183Z</time></trkpt><trkpt lat="44.9609977" lon="8.6100908"><ele>107.5</ele><time>2026-03-29T08:25:52.184Z</time></trkpt><trkpt lat="44.9607662" lon="8.6101408"><ele>106.0</ele><time>2026-03-29T08:25:53.182Z</time></trkpt><trkpt lat="44.9605337" lon="8.6102052"><ele>106.0</ele><time>2026-03-29T08:25:54.186Z</time></trkpt><trkpt lat="44.9603032" lon="8.610292"><ele>106.0</ele><time>2026-03-29T08:25:55.184Z</time></trkpt><trkpt lat="44.9600773" lon="8.6104017"><ele>106.0</ele><time>2026-03-29T08:25:56.186Z</time></trkpt><trkpt lat="44.9598603" lon="8.610528"><ele>106.0</ele><time>2026-03-29T08:25:57.186Z</time></trkpt><trkpt lat="44.9596532" lon="8.6106565"><ele>106.0</ele><time>2026-03-29T08:25:58.185Z</time></trkpt><trkpt lat="44.959456" lon="8.6107698"><ele>106.0</ele><time>2026-03-29T08:25:59.183Z</time></trkpt><trkpt lat="44.959267" lon="8.6108643"><ele>106.0</ele><time>2026-03-29T08:26:00.184Z</time></trkpt><trkpt lat="44.9590867" lon="8.6109432"><ele>105.0</ele><time>2026-03-29T08:26:01.185Z</time></trkpt><trkpt lat="44.9589143" lon="8.6110088"><ele>104.0</ele><time>2026-03-29T08:26:02.186Z</time></trkpt><trkpt lat="44.95875" lon="8.6110668"><ele>103.0</ele><time>2026-03-29T08:26:03.185Z</time></trkpt><trkpt lat="44.9585955" lon="8.6111255"><ele>102.75</ele><time>2026-03-29T08:26:04.184Z</time></trkpt><trkpt lat="44.9584523" lon="8.6111783"><ele>102.5</ele><time>2026-03-29T08:26:05.184Z</time></trkpt><trkpt lat="44.958323" lon="8.6112113"><ele>102.25</ele><time>2026-03-29T08:26:06.186Z</time></trkpt><trkpt lat="44.9582052" lon="8.611217"><ele>102.0</ele><time>2026-03-29T08:26:07.187Z</time></trkpt><trkpt lat="44.9580942" lon="8.6111963"><ele>102.0</ele><time>2026-03-29T08:26:08.185Z</time></trkpt><trkpt lat="44.9579937" lon="8.6111905"><ele>102.0</ele><time>2026-03-29T08:26:09.186Z</time></trkpt><trkpt lat="44.9579033" lon="8.6112293"><ele>102.0</ele><time>2026-03-29T08:26:10.187Z</time></trkpt><trkpt lat="44.9578113" lon="8.6113137"><ele>102.0</ele><time>2026-03-29T08:26:11.185Z</time></trkpt><trkpt lat="44.957698" lon="8.6114053"><ele>102.0</ele><time>2026-03-29T08:26:12.183Z</time></trkpt><trkpt lat="44.957552" lon="8.6114688"><ele>101.66666666666666</ele><time>2026-03-29T08:26:13.184Z</time></trkpt><trkpt lat="44.9573878" lon="8.6115182"><ele>101.33333333333333</ele><time>2026-03-29T08:26:14.185Z</time></trkpt><trkpt lat="44.9572055" lon="8.6115733"><ele>101.0</ele><time>2026-03-29T08:26:15.183Z</time></trkpt><trkpt lat="44.957009" lon="8.6116337"><ele>101.0</ele><time>2026-03-29T08:26:16.186Z</time></trkpt><trkpt lat="44.9568038" lon="8.6116973"><ele>101.0</ele><time>2026-03-29T08:26:17.185Z</time></trkpt><trkpt lat="44.9565887" lon="8.6117645"><ele>101.0</ele><time>2026-03-29T08:26:18.185Z</time></trkpt><trkpt lat="44.9563783" lon="8.6118327"><ele>102.0</ele><time>2026-03-29T08:26:19.185Z</time></trkpt><trkpt lat="44.9561683" lon="8.6119178"><ele>103.0</ele><time>2026-03-29T08:26:20.182Z</time></trkpt><trkpt lat="44.9559587" lon="8.612026"><ele>104.0</ele><time>2026-03-29T08:26:21.185Z</time></trkpt><trkpt lat="44.9557665" lon="8.6121455"><ele>104.66666666666666</ele><time>2026-03-29T08:26:22.185Z</time></trkpt><trkpt lat="44.955584" lon="8.612266"><ele>105.33333333333334</ele><time>2026-03-29T08:26:23.184Z</time></trkpt><trkpt lat="44.955397" lon="8.612383"><ele>106.0</ele><time>2026-03-29T08:26:24.184Z</time></trkpt><trkpt lat="44.955198" lon="8.6124887"><ele>105.0</ele><time>2026-03-29T08:26:25.186Z</time></trkpt><trkpt lat="44.9549868" lon="8.6125795"><ele>104.0</ele><time>2026-03-29T08:26:26.183Z</time></trkpt><trkpt lat="44.9547647" lon="8.612654"><ele>103.0</ele><time>2026-03-29T08:26:27.186Z</time></trkpt><trkpt lat="44.9545378" lon="8.6127125"><ele>103.0</ele><time>2026-03-29T08:26:28.186Z</time></trkpt><trkpt lat="44.9543147" lon="8.612758"><ele>103.0</ele><time>2026-03-29T08:26:29.185Z</time></trkpt><trkpt lat="44.9541025" lon="8.612794"><ele>103.0</ele><time>2026-03-29T08:26:30.185Z</time></trkpt><trkpt lat="44.9538948" lon="8.6128248"><ele>102.33333333333334</ele><time>2026-03-29T08:26:31.185Z</time></trkpt><trkpt lat="44.9536887" lon="8.6128537"><ele>101.66666666666666</ele><time>2026-03-29T08:26:32.185Z</time></trkpt><trkpt lat="44.953485" lon="8.6128823"><ele>101.0</ele><time>2026-03-29T08:26:33.184Z</time></trkpt><trkpt lat="44.9532837" lon="8.6129125"><ele>101.0</ele><time>2026-03-29T08:26:34.185Z</time></trkpt><trkpt lat="44.9530848" lon="8.6129413"><ele>101.0</ele><time>2026-03-29T08:26:35.183Z</time></trkpt><trkpt lat="44.9528883" lon="8.6129675"><ele>101.0</ele><time>2026-03-29T08:26:36.183Z</time></trkpt><trkpt lat="44.9526935" lon="8.6129958"><ele>101.0</ele><time>2026-03-29T08:26:37.183Z</time></trkpt><trkpt lat="44.9525008" lon="8.6130242"><ele>101.0</ele><time>2026-03-29T08:26:38.182Z</time></trkpt><trkpt lat="44.9523173" lon="8.6130473"><ele>101.0</ele><time>2026-03-29T08:26:39.182Z</time></trkpt><trkpt lat="44.9521415" lon="8.613073"><ele>101.0</ele><time>2026-03-29T08:26:40.184Z</time></trkpt><trkpt lat="44.9519665" lon="8.6130965"><ele>101.0</ele><time>2026-03-29T08:26:41.185Z</time></trkpt><trkpt lat="44.95179" lon="8.6131017"><ele>101.0</ele><time>2026-03-29T08:26:42.184Z</time></trkpt><trkpt lat="44.9516122" lon="8.613082"><ele>101.0</ele><time>2026-03-29T08:26:43.185Z</time></trkpt><trkpt lat="44.9514315" lon="8.6130448"><ele>101.0</ele><time>2026-03-29T08:26:44.184Z</time></trkpt><trkpt lat="44.9512472" lon="8.613001"><ele>101.0</ele><time>2026-03-29T08:26:45.184Z</time></trkpt><trkpt lat="44.9510613" lon="8.6129552"><ele>101.0</ele><time>2026-03-29T08:26:46.183Z</time></trkpt><trkpt lat="44.950881" lon="8.6129108"><ele>101.0</ele><time>2026-03-29T08:26:47.184Z</time></trkpt><trkpt lat="44.950701" lon="8.6128703"><ele>101.0</ele><time>2026-03-29T08:26:48.183Z</time></trkpt><trkpt lat="44.9505162" lon="8.6128383"><ele>100.66666666666666</ele><time>2026-03-29T08:26:49.183Z</time></trkpt><trkpt lat="44.9503263" lon="8.6128178"><ele>100.33333333333334</ele><time>2026-03-29T08:26:50.184Z</time></trkpt><trkpt lat="44.9501375" lon="8.612807"><ele>100.0</ele><time>2026-03-29T08:26:51.184Z</time></trkpt><trkpt lat="44.9499542" lon="8.6128017"><ele>99.66666666666667</ele><time>2026-03-29T08:26:52.184Z</time></trkpt><trkpt lat="44.9497787" lon="8.6127997"><ele>99.33333333333334</ele><time>2026-03-29T08:26:53.185Z</time></trkpt><trkpt lat="44.9496022" lon="8.6128008"><ele>99.0</ele><time>2026-03-29T08:26:54.184Z</time></trkpt><trkpt lat="44.9494238" lon="8.6128038"><ele>99.0</ele><time>2026-03-29T08:26:55.186Z</time></trkpt><trkpt lat="44.9492452" lon="8.6128088"><ele>99.0</ele><time>2026-03-29T08:26:56.184Z</time></trkpt><trkpt lat="44.949065" lon="8.6128168"><ele>99.0</ele><time>2026-03-29T08:26:57.184Z</time></trkpt><trkpt lat="44.9488827" lon="8.6128297"><ele>98.66666666666666</ele><time>2026-03-29T08:26:58.184Z</time></trkpt><trkpt lat="44.9486995" lon="8.6128437"><ele>98.33333333333333</ele><time>2026-03-29T08:26:59.183Z</time></trkpt><trkpt lat="44.9485155" lon="8.612858"><ele>98.0</ele><time>2026-03-29T08:27:00.183Z</time></trkpt><trkpt lat="44.9483312" lon="8.6128715"><ele>98.0</ele><time>2026-03-29T08:27:01.181Z</time></trkpt><trkpt lat="44.9481472" lon="8.6128818"><ele>98.0</ele><time>2026-03-29T08:27:02.18Z</time></trkpt><trkpt lat="44.9479622" lon="8.6128932"><ele>98.0</ele><time>2026-03-29T08:27:03.181Z</time></trkpt><trkpt lat="44.9477767" lon="8.612904"><ele>98.0</ele><time>2026-03-29T08:27:04.183Z</time></trkpt><trkpt lat="44.9475912" lon="8.6129137"><ele>98.0</ele><time>2026-03-29T08:27:05.183Z</time></trkpt><trkpt lat="44.9474057" lon="8.6129233"><ele>98.0</ele><time>2026-03-29T08:27:06.184Z</time></trkpt><trkpt lat="44.9472223" lon="8.6129323"><ele>97.33333333333333</ele><time>2026-03-29T08:27:07.183Z</time></trkpt><trkpt lat="44.9470407" lon="8.6129418"><ele>96.66666666666666</ele><time>2026-03-29T08:27:08.183Z</time></trkpt><trkpt lat="44.9468592" lon="8.6129515"><ele>96.0</ele><time>2026-03-29T08:27:09.184Z</time></trkpt><trkpt lat="44.9466843" lon="8.61296"><ele>95.66666666666667</ele><time>2026-03-29T08:27:10.186Z</time></trkpt><trkpt lat="44.9465188" lon="8.6129665"><ele>95.33333333333334</ele><time>2026-03-29T08:27:11.185Z</time></trkpt><trkpt lat="44.9463622" lon="8.6129705"><ele>95.0</ele><time>2026-03-29T08:27:12.186Z</time></trkpt><trkpt lat="44.9462208" lon="8.6129735"><ele>95.0</ele><time>2026-03-29T08:27:13.185Z</time></trkpt><trkpt lat="44.9460937" lon="8.61298"><ele>95.0</ele><time>2026-03-29T08:27:14.185Z</time></trkpt><trkpt lat="44.9459827" lon="8.6129963"><ele>95.0</ele><time>2026-03-29T08:27:15.185Z</time></trkpt><trkpt lat="44.945882" lon="8.61303"><ele>95.0</ele><time>2026-03-29T08:27:16.185Z</time></trkpt><trkpt lat="44.9457898" lon="8.6130823"><ele>95.0</ele><time>2026-03-29T08:27:17.184Z</time></trkpt><trkpt lat="44.9456988" lon="8.61314"><ele>95.25</ele><time>2026-03-29T08:27:18.184Z</time></trkpt><trkpt lat="44.9456005" lon="8.6131895"><ele>95.5</ele><time>2026-03-29T08:27:19.185Z</time></trkpt><trkpt lat="44.9454927" lon="8.613246"><ele>95.75</ele><time>2026-03-29T08:27:20.184Z</time></trkpt><trkpt lat="44.9453823" lon="8.6133145"><ele>96.0</ele><time>2026-03-29T08:27:21.184Z</time></trkpt><trkpt lat="44.9452582" lon="8.6133698"><ele>96.0</ele><time>2026-03-29T08:27:22.184Z</time></trkpt><trkpt lat="44.9451132" lon="8.6133993"><ele>96.0</ele><time>2026-03-29T08:27:23.183Z</time></trkpt><trkpt lat="44.944956" lon="8.6134237"><ele>96.0</ele><time>2026-03-29T08:27:24.184Z</time></trkpt><trkpt lat="44.944795" lon="8.6134603"><ele>94.0</ele><time>2026-03-29T08:27:25.184Z</time></trkpt><trkpt lat="44.9446155" lon="8.6135272"><ele>92.0</ele><time>2026-03-29T08:27:26.181Z</time></trkpt><trkpt lat="44.9444288" lon="8.6136145"><ele>90.0</ele><time>2026-03-29T08:27:27.183Z</time></trkpt><trkpt lat="44.944225" lon="8.613715"><ele>91.33333333333333</ele><time>2026-03-29T08:27:28.183Z</time></trkpt><trkpt lat="44.9440135" lon="8.6138095"><ele>92.66666666666666</ele><time>2026-03-29T08:27:29.184Z</time></trkpt><trkpt lat="44.943803" lon="8.613888"><ele>94.0</ele><time>2026-03-29T08:27:30.185Z</time></trkpt><trkpt lat="44.9435865" lon="8.6139552"><ele>93.66666666666666</ele><time>2026-03-29T08:27:31.185Z</time></trkpt><trkpt lat="44.9433727" lon="8.6140117"><ele>93.33333333333333</ele><time>2026-03-29T08:27:32.184Z</time></trkpt><trkpt lat="44.9431702" lon="8.6140585"><ele>93.0</ele><time>2026-03-29T08:27:33.184Z</time></trkpt><trkpt lat="44.9429705" lon="8.614101"><ele>93.0</ele><time>2026-03-29T08:27:34.186Z</time></trkpt><trkpt lat="44.9427663" lon="8.6141418"><ele>93.0</ele><time>2026-03-29T08:27:35.185Z</time></trkpt><trkpt lat="44.9425542" lon="8.6141777"><ele>93.0</ele><time>2026-03-29T08:27:36.185Z</time></trkpt><trkpt lat="44.9423335" lon="8.6142045"><ele>93.5</ele><time>2026-03-29T08:27:37.186Z</time></trkpt><trkpt lat="44.9421092" lon="8.6142162"><ele>94.0</ele><time>2026-03-29T08:27:38.185Z</time></trkpt><trkpt lat="44.9418823" lon="8.6142125"><ele>92.5</ele><time>2026-03-29T08:27:39.186Z</time></trkpt><trkpt lat="44.9416547" lon="8.6141925"><ele>91.0</ele><time>2026-03-29T08:27:40.186Z</time></trkpt><trkpt lat="44.9414335" lon="8.6141568"><ele>91.0</ele><time>2026-03-29T08:27:41.186Z</time></trkpt><trkpt lat="44.9412225" lon="8.6141082"><ele>91.0</ele><time>2026-03-29T08:27:42.185Z</time></trkpt><trkpt lat="44.9410132" lon="8.6140465"><ele>91.0</ele><time>2026-03-29T08:27:43.185Z</time></trkpt><trkpt lat="44.9408028" lon="8.61397"><ele>90.66666666666666</ele><time>2026-03-29T08:27:44.185Z</time></trkpt><trkpt lat="44.940593" lon="8.613874"><ele>90.33333333333333</ele><time>2026-03-29T08:27:45.184Z</time></trkpt><trkpt lat="44.9403848" lon="8.613763"><ele>90.0</ele><time>2026-03-29T08:27:46.185Z</time></trkpt><trkpt lat="44.940179" lon="8.613645"><ele>90.33333333333333</ele><time>2026-03-29T08:27:47.184Z</time></trkpt><trkpt lat="44.939979" lon="8.6135237"><ele>90.66666666666666</ele><time>2026-03-29T08:27:48.185Z</time></trkpt><trkpt lat="44.9397848" lon="8.613402"><ele>91.0</ele><time>2026-03-29T08:27:49.184Z</time></trkpt><trkpt lat="44.9395928" lon="8.6132825"><ele>91.0</ele><time>2026-03-29T08:27:50.182Z</time></trkpt><trkpt lat="44.9394017" lon="8.613168"><ele>91.0</ele><time>2026-03-29T08:27:51.183Z</time></trkpt><trkpt lat="44.9392093" lon="8.6130608"><ele>91.0</ele><time>2026-03-29T08:27:52.184Z</time></trkpt><trkpt lat="44.9390143" lon="8.6129633"><ele>91.0</ele><time>2026-03-29T08:27:53.183Z</time></trkpt><trkpt lat="44.9388188" lon="8.6128743"><ele>91.0</ele><time>2026-03-29T08:27:54.184Z</time></trkpt><trkpt lat="44.9386255" lon="8.6127938"><ele>91.0</ele><time>2026-03-29T08:27:55.185Z</time></trkpt><trkpt lat="44.9384393" lon="8.6127262"><ele>90.33333333333333</ele><time>2026-03-29T08:27:56.184Z</time></trkpt><trkpt lat="44.9382597" lon="8.61267"><ele>89.66666666666667</ele><time>2026-03-29T08:27:57.185Z</time></trkpt><trkpt lat="44.9380765" lon="8.6126178"><ele>89.0</ele><time>2026-03-29T08:27:58.185Z</time></trkpt><trkpt lat="44.9378963" lon="8.6125678"><ele>89.0</ele><time>2026-03-29T08:27:59.185Z</time></trkpt><trkpt lat="44.937725" lon="8.6125223"><ele>89.0</ele><time>2026-03-29T08:28:00.183Z</time></trkpt><trkpt lat="44.9375575" lon="8.6124825"><ele>89.0</ele><time>2026-03-29T08:28:01.182Z</time></trkpt><trkpt lat="44.9373867" lon="8.612443"><ele>89.33333333333334</ele><time>2026-03-29T08:28:02.183Z</time></trkpt><trkpt lat="44.9372165" lon="8.6124028"><ele>89.66666666666667</ele><time>2026-03-29T08:28:03.183Z</time></trkpt><trkpt lat="44.9370593" lon="8.6123657"><ele>90.0</ele><time>2026-03-29T08:28:04.184Z</time></trkpt><trkpt lat="44.9369195" lon="8.612335"><ele>90.0</ele><time>2026-03-29T08:28:05.182Z</time></trkpt><trkpt lat="44.9368058" lon="8.612318"><ele>90.0</ele><time>2026-03-29T08:28:06.182Z</time></trkpt><trkpt lat="44.9367183" lon="8.6123158"><ele>90.0</ele><time>2026-03-29T08:28:07.184Z</time></trkpt><trkpt lat="44.9366445" lon="8.6123175"><ele>90.0</ele><time>2026-03-29T08:28:08.185Z</time></trkpt><trkpt lat="44.9365698" lon="8.612308"><ele>90.0</ele><time>2026-03-29T08:28:09.185Z</time></trkpt><trkpt lat="44.936485" lon="8.6122892"><ele>90.0</ele><time>2026-03-29T08:28:10.185Z</time></trkpt><trkpt lat="44.9363903" lon="8.6122693"><ele>90.0</ele><time>2026-03-29T08:28:11.186Z</time></trkpt><trkpt lat="44.9362843" lon="8.612243"><ele>90.0</ele><time>2026-03-29T08:28:12.184Z</time></trkpt><trkpt lat="44.9361802" lon="8.612203"><ele>90.0</ele><time>2026-03-29T08:28:13.185Z</time></trkpt><trkpt lat="44.9360852" lon="8.6121562"><ele>90.0</ele><time>2026-03-29T08:28:14.183Z</time></trkpt><trkpt lat="44.9359895" lon="8.6121122"><ele>90.0</ele><time>2026-03-29T08:28:15.184Z</time></trkpt><trkpt lat="44.9358825" lon="8.6120792"><ele>90.0</ele><time>2026-03-29T08:28:16.183Z</time></trkpt><trkpt lat="44.9357692" lon="8.6120532"><ele>90.0</ele><time>2026-03-29T08:28:17.182Z</time></trkpt><trkpt lat="44.935649" lon="8.612028"><ele>90.0</ele><time>2026-03-29T08:28:18.182Z</time></trkpt><trkpt lat="44.9355153" lon="8.6120062"><ele>90.0</ele><time>2026-03-29T08:28:19.183Z</time></trkpt><trkpt lat="44.9353748" lon="8.6119892"><ele>90.0</ele><time>2026-03-29T08:28:20.184Z</time></trkpt><trkpt lat="44.9352192" lon="8.6119778"><ele>90.0</ele><time>2026-03-29T08:28:21.184Z</time></trkpt><trkpt lat="44.9350507" lon="8.611978"><ele>90.0</ele><time>2026-03-29T08:28:22.183Z</time></trkpt><trkpt lat="44.9348725" lon="8.6119912"><ele>90.66666666666667</ele><time>2026-03-29T08:28:23.181Z</time></trkpt><trkpt lat="44.9346963" lon="8.6120322"><ele>91.33333333333334</ele><time>2026-03-29T08:28:24.182Z</time></trkpt><trkpt lat="44.9345208" lon="8.6120755"><ele>92.0</ele><time>2026-03-29T08:28:25.183Z</time></trkpt><trkpt lat="44.9343572" lon="8.612115"><ele>91.66666666666667</ele><time>2026-03-29T08:28:26.183Z</time></trkpt><trkpt lat="44.9342037" lon="8.61215"><ele>91.33333333333333</ele><time>2026-03-29T08:28:27.183Z</time></trkpt><trkpt lat="44.934053" lon="8.6121847"><ele>91.0</ele><time>2026-03-29T08:28:28.185Z</time></trkpt><trkpt lat="44.9339025" lon="8.6122207"><ele>91.0</ele><time>2026-03-29T08:28:29.185Z</time></trkpt><trkpt lat="44.9337477" lon="8.6122595"><ele>91.0</ele><time>2026-03-29T08:28:30.183Z</time></trkpt><trkpt lat="44.9335915" lon="8.6122997"><ele>91.0</ele><time>2026-03-29T08:28:31.185Z</time></trkpt><trkpt lat="44.9334352" lon="8.6123383"><ele>91.0</ele><time>2026-03-29T08:28:32.184Z</time></trkpt><trkpt lat="44.9332795" lon="8.6123737"><ele>91.0</ele><time>2026-03-29T08:28:33.183Z</time></trkpt><trkpt lat="44.9331243" lon="8.6124093"><ele>91.0</ele><time>2026-03-29T08:28:34.184Z</time></trkpt><trkpt lat="44.9329672" lon="8.6124442"><ele>91.0</ele><time>2026-03-29T08:28:35.184Z</time></trkpt><trkpt lat="44.9328105" lon="8.612475"><ele>91.0</ele><time>2026-03-29T08:28:36.183Z</time></trkpt><trkpt lat="44.9326605" lon="8.6124968"><ele>91.0</ele><time>2026-03-29T08:28:37.185Z</time></trkpt><trkpt lat="44.9325142" lon="8.6125072"><ele>90.33333333333333</ele><time>2026-03-29T08:28:38.183Z</time></trkpt><trkpt lat="44.9323672" lon="8.612508"><ele>89.66666666666667</ele><time>2026-03-29T08:28:39.182Z</time></trkpt><trkpt lat="44.932217" lon="8.6125015"><ele>89.0</ele><time>2026-03-29T08:28:40.183Z</time></trkpt><trkpt lat="44.9320652" lon="8.6124822"><ele>89.0</ele><time>2026-03-29T08:28:41.182Z</time></trkpt><trkpt lat="44.931916" lon="8.6124525"><ele>89.0</ele><time>2026-03-29T08:28:42.182Z</time></trkpt><trkpt lat="44.9317815" lon="8.6124213"><ele>89.0</ele><time>2026-03-29T08:28:43.184Z</time></trkpt><trkpt lat="44.9316622" lon="8.6123932"><ele>89.0</ele><time>2026-03-29T08:28:44.184Z</time></trkpt><trkpt lat="44.9315637" lon="8.6123678"><ele>89.0</ele><time>2026-03-29T08:28:45.185Z</time></trkpt><trkpt lat="44.9314823" lon="8.612341"><ele>89.0</ele><time>2026-03-29T08:28:46.187Z</time></trkpt><trkpt lat="44.9314135" lon="8.6123005"><ele>89.0</ele><time>2026-03-29T08:28:47.185Z</time></trkpt><trkpt lat="44.9313548" lon="8.6122397"><ele>89.0</ele><time>2026-03-29T08:28:48.187Z</time></trkpt><trkpt lat="44.9313062" lon="8.6121657"><ele>89.0</ele><time>2026-03-29T08:28:49.185Z</time></trkpt><trkpt lat="44.9312583" lon="8.612082"><ele>89.0</ele><time>2026-03-29T08:28:50.188Z</time></trkpt><trkpt lat="44.931205" lon="8.6119922"><ele>88.66666666666667</ele><time>2026-03-29T08:28:51.184Z</time></trkpt><trkpt lat="44.931142" lon="8.6119142"><ele>88.33333333333334</ele><time>2026-03-29T08:28:52.185Z</time></trkpt><trkpt lat="44.9310625" lon="8.6118588"><ele>88.0</ele><time>2026-03-29T08:28:53.185Z</time></trkpt><trkpt lat="44.9309747" lon="8.6118353"><ele>87.66666666666667</ele><time>2026-03-29T08:28:54.184Z</time></trkpt><trkpt lat="44.930888" lon="8.611848"><ele>87.33333333333333</ele><time>2026-03-29T08:28:55.184Z</time></trkpt><trkpt lat="44.9308093" lon="8.6118948"><ele>87.0</ele><time>2026-03-29T08:28:56.184Z</time></trkpt><trkpt lat="44.9307422" lon="8.6119695"><ele>87.19999999999999</ele><time>2026-03-29T08:28:57.184Z</time></trkpt><trkpt lat="44.9306825" lon="8.6120605"><ele>87.4</ele><time>2026-03-29T08:28:58.185Z</time></trkpt><trkpt lat="44.930625" lon="8.6121577"><ele>87.6</ele><time>2026-03-29T08:28:59.185Z</time></trkpt><trkpt lat="44.9305587" lon="8.6122458"><ele>87.80000000000001</ele><time>2026-03-29T08:29:00.185Z</time></trkpt><trkpt lat="44.9304773" lon="8.6123143"><ele>88.0</ele><time>2026-03-29T08:29:01.186Z</time></trkpt><trkpt lat="44.930377" lon="8.6123608"><ele>88.0</ele><time>2026-03-29T08:29:02.184Z</time></trkpt><trkpt lat="44.9302632" lon="8.6123882"><ele>88.0</ele><time>2026-03-29T08:29:03.185Z</time></trkpt><trkpt lat="44.9301352" lon="8.6124022"><ele>88.0</ele><time>2026-03-29T08:29:04.185Z</time></trkpt><trkpt lat="44.9299833" lon="8.6124085"><ele>88.0</ele><time>2026-03-29T08:29:05.183Z</time></trkpt><trkpt lat="44.9298157" lon="8.6124055"><ele>87.66666666666666</ele><time>2026-03-29T08:29:06.183Z</time></trkpt><trkpt lat="44.9296297" lon="8.6123915"><ele>87.33333333333333</ele><time>2026-03-29T08:29:07.181Z</time></trkpt><trkpt lat="44.9294278" lon="8.6123587"><ele>87.0</ele><time>2026-03-29T08:29:08.18Z</time></trkpt><trkpt lat="44.9292083" lon="8.6123078"><ele>86.5</ele><time>2026-03-29T08:29:09.181Z</time></trkpt><trkpt lat="44.9289833" lon="8.6122477"><ele>86.0</ele><time>2026-03-29T08:29:10.181Z</time></trkpt><trkpt lat="44.9287553" lon="8.6121885"><ele>86.0</ele><time>2026-03-29T08:29:11.181Z</time></trkpt><trkpt lat="44.928519" lon="8.6121313"><ele>86.0</ele><time>2026-03-29T08:29:12.182Z</time></trkpt><trkpt lat="44.9282812" lon="8.612074"><ele>87.5</ele><time>2026-03-29T08:29:13.183Z</time></trkpt><trkpt lat="44.9280487" lon="8.6120197"><ele>89.0</ele><time>2026-03-29T08:29:14.185Z</time></trkpt><trkpt lat="44.9278285" lon="8.61197"><ele>89.0</ele><time>2026-03-29T08:29:15.184Z</time></trkpt><trkpt lat="44.9276207" lon="8.6119215"><ele>89.0</ele><time>2026-03-29T08:29:16.183Z</time></trkpt><trkpt lat="44.927412" lon="8.6118735"><ele>89.0</ele><time>2026-03-29T08:29:17.183Z</time></trkpt><trkpt lat="44.9272028" lon="8.6118282"><ele>88.66666666666667</ele><time>2026-03-29T08:29:18.183Z</time></trkpt><trkpt lat="44.9269935" lon="8.6117835"><ele>88.33333333333333</ele><time>2026-03-29T08:29:19.184Z</time></trkpt><trkpt lat="44.9267853" lon="8.6117375"><ele>88.0</ele><time>2026-03-29T08:29:20.184Z</time></trkpt><trkpt lat="44.926582" lon="8.6116927"><ele>88.0</ele><time>2026-03-29T08:29:21.184Z</time></trkpt><trkpt lat="44.9263882" lon="8.6116502"><ele>88.0</ele><time>2026-03-29T08:29:22.183Z</time></trkpt><trkpt lat="44.9261987" lon="8.6116088"><ele>88.0</ele><time>2026-03-29T08:29:23.183Z</time></trkpt><trkpt lat="44.9260098" lon="8.6115678"><ele>89.0</ele><time>2026-03-29T08:29:24.185Z</time></trkpt><trkpt lat="44.925822" lon="8.6115267"><ele>90.0</ele><time>2026-03-29T08:29:25.184Z</time></trkpt><trkpt lat="44.925631" lon="8.6114818"><ele>91.0</ele><time>2026-03-29T08:29:26.183Z</time></trkpt><trkpt lat="44.9254363" lon="8.611437"><ele>91.0</ele><time>2026-03-29T08:29:27.183Z</time></trkpt><trkpt lat="44.9252393" lon="8.6113908"><ele>91.0</ele><time>2026-03-29T08:29:28.182Z</time></trkpt><trkpt lat="44.9250427" lon="8.6113463"><ele>91.0</ele><time>2026-03-29T08:29:29.179Z</time></trkpt><trkpt lat="44.9248457" lon="8.611304"><ele>91.33333333333333</ele><time>2026-03-29T08:29:30.183Z</time></trkpt><trkpt lat="44.9246475" lon="8.6112622"><ele>91.66666666666667</ele><time>2026-03-29T08:29:31.182Z</time></trkpt><trkpt lat="44.924449" lon="8.6112208"><ele>92.0</ele><time>2026-03-29T08:29:32.183Z</time></trkpt><trkpt lat="44.9242522" lon="8.6111783"><ele>91.0</ele><time>2026-03-29T08:29:33.184Z</time></trkpt><trkpt lat="44.9240602" lon="8.6111362"><ele>90.0</ele><time>2026-03-29T08:29:34.183Z</time></trkpt><trkpt lat="44.9238762" lon="8.6110962"><ele>89.0</ele><time>2026-03-29T08:29:35.183Z</time></trkpt><trkpt lat="44.9236975" lon="8.6110577"><ele>89.0</ele><time>2026-03-29T08:29:36.183Z</time></trkpt><trkpt lat="44.923517" lon="8.6110195"><ele>89.0</ele><time>2026-03-29T08:29:37.183Z</time></trkpt><trkpt lat="44.9233313" lon="8.6109798"><ele>89.0</ele><time>2026-03-29T08:29:38.182Z</time></trkpt><trkpt lat="44.9231402" lon="8.6109373"><ele>89.0</ele><time>2026-03-29T08:29:39.183Z</time></trkpt><trkpt lat="44.9229462" lon="8.6108917"><ele>89.0</ele><time>2026-03-29T08:29:40.184Z</time></trkpt><trkpt lat="44.9227557" lon="8.6108428"><ele>89.0</ele><time>2026-03-29T08:29:41.182Z</time></trkpt><trkpt lat="44.922573" lon="8.6107855"><ele>90.66666666666667</ele><time>2026-03-29T08:29:42.183Z</time></trkpt><trkpt lat="44.9224002" lon="8.6107173"><ele>92.33333333333333</ele><time>2026-03-29T08:29:43.183Z</time></trkpt><trkpt lat="44.9222317" lon="8.6106347"><ele>94.0</ele><time>2026-03-29T08:29:44.184Z</time></trkpt><trkpt lat="44.9220648" lon="8.6105288"><ele>94.0</ele><time>2026-03-29T08:29:45.184Z</time></trkpt><trkpt lat="44.9219023" lon="8.6103965"><ele>94.0</ele><time>2026-03-29T08:29:46.184Z</time></trkpt><trkpt lat="44.9217422" lon="8.6102413"><ele>94.0</ele><time>2026-03-29T08:29:47.182Z</time></trkpt><trkpt lat="44.9215782" lon="8.6100732"><ele>93.33333333333333</ele><time>2026-03-29T08:29:48.183Z</time></trkpt><trkpt lat="44.9214158" lon="8.6099033"><ele>92.66666666666667</ele><time>2026-03-29T08:29:49.183Z</time></trkpt><trkpt lat="44.9212638" lon="8.6097407"><ele>92.0</ele><time>2026-03-29T08:29:50.184Z</time></trkpt><trkpt lat="44.9211187" lon="8.6095903"><ele>92.0</ele><time>2026-03-29T08:29:51.184Z</time></trkpt><trkpt lat="44.920981" lon="8.609449"><ele>92.0</ele><time>2026-03-29T08:29:52.183Z</time></trkpt><trkpt lat="44.9208522" lon="8.609318"><ele>92.0</ele><time>2026-03-29T08:29:53.182Z</time></trkpt><trkpt lat="44.92073" lon="8.6091975"><ele>92.0</ele><time>2026-03-29T08:29:54.181Z</time></trkpt><trkpt lat="44.9206177" lon="8.609081"><ele>92.0</ele><time>2026-03-29T08:29:55.181Z</time></trkpt><trkpt lat="44.9205107" lon="8.608971"><ele>92.0</ele><time>2026-03-29T08:29:56.181Z</time></trkpt><trkpt lat="44.920406" lon="8.6088682"><ele>92.0</ele><time>2026-03-29T08:29:57.182Z</time></trkpt><trkpt lat="44.9203105" lon="8.6087747"><ele>92.0</ele><time>2026-03-29T08:29:58.181Z</time></trkpt><trkpt lat="44.9202248" lon="8.6086852"><ele>92.0</ele><time>2026-03-29T08:29:59.182Z</time></trkpt><trkpt lat="44.9201492" lon="8.6086053"><ele>92.0</ele><time>2026-03-29T08:30:00.182Z</time></trkpt><trkpt lat="44.9200863" lon="8.6085418"><ele>92.0</ele><time>2026-03-29T08:30:01.185Z</time></trkpt><trkpt lat="44.9199965" lon="8.6084587"><ele>92.0</ele><time>2026-03-29T08:30:03.181Z</time></trkpt><trkpt lat="44.9199355" lon="8.608386"><ele>91.85714285714286</ele><time>2026-03-29T08:30:09.184Z</time></trkpt><trkpt lat="44.9198788" lon="8.6083272"><ele>91.71428571428571</ele><time>2026-03-29T08:31:04.184Z</time></trkpt><trkpt lat="44.919828" lon="8.608265"><ele>91.57142857142857</ele><time>2026-03-29T08:31:06.181Z</time></trkpt><trkpt lat="44.9197708" lon="8.6082255"><ele>91.42857142857143</ele><time>2026-03-29T08:31:08.18Z</time></trkpt><trkpt lat="44.9197042" lon="8.6082232"><ele>91.28571428571428</ele><time>2026-03-29T08:31:10.185Z</time></trkpt><trkpt lat="44.919636" lon="8.6083008"><ele>91.14285714285714</ele><time>2026-03-29T08:31:12.183Z</time></trkpt><trkpt lat="44.9195852" lon="8.60837"><ele>91.0</ele><time>2026-03-29T08:31:13.183Z</time></trkpt><trkpt lat="44.9195227" lon="8.6084513"><ele>91.0</ele><time>2026-03-29T08:31:14.182Z</time></trkpt><trkpt lat="44.919454" lon="8.6085355"><ele>91.0</ele><time>2026-03-29T08:31:15.184Z</time></trkpt><trkpt lat="44.919377" lon="8.6086307"><ele>91.0</ele><time>2026-03-29T08:31:16.183Z</time></trkpt><trkpt lat="44.9192947" lon="8.6087387"><ele>91.0</ele><time>2026-03-29T08:31:17.181Z</time></trkpt><trkpt lat="44.9192097" lon="8.6088557"><ele>91.0</ele><time>2026-03-29T08:31:18.182Z</time></trkpt><trkpt lat="44.9191198" lon="8.6089732"><ele>88.75</ele><time>2026-03-29T08:31:19.182Z</time></trkpt><trkpt lat="44.9190202" lon="8.6090965"><ele>86.5</ele><time>2026-03-29T08:31:20.181Z</time></trkpt><trkpt lat="44.918915" lon="8.6092237"><ele>84.25</ele><time>2026-03-29T08:31:21.181Z</time></trkpt><trkpt lat="44.9188062" lon="8.6093515"><ele>82.0</ele><time>2026-03-29T08:31:22.18Z</time></trkpt><trkpt lat="44.9186967" lon="8.609473"><ele>82.0</ele><time>2026-03-29T08:31:23.178Z</time></trkpt><trkpt lat="44.9185928" lon="8.6095758"><ele>82.0</ele><time>2026-03-29T08:31:24.18Z</time></trkpt><trkpt lat="44.9184948" lon="8.6096678"><ele>82.0</ele><time>2026-03-29T08:31:25.182Z</time></trkpt><trkpt lat="44.9184037" lon="8.6097507"><ele>82.0</ele><time>2026-03-29T08:31:26.18Z</time></trkpt><trkpt lat="44.9183225" lon="8.6098267"><ele>83.16666666666666</ele><time>2026-03-29T08:31:27.182Z</time></trkpt><trkpt lat="44.9182585" lon="8.6098867"><ele>84.33333333333333</ele><time>2026-03-29T08:31:28.181Z</time></trkpt><trkpt lat="44.9181733" lon="8.6099652"><ele>85.5</ele><time>2026-03-29T08:31:30.181Z</time></trkpt><trkpt lat="44.9181145" lon="8.6100168"><ele>86.66666666666667</ele><time>2026-03-29T08:31:39.185Z</time></trkpt><trkpt lat="44.9180103" lon="8.6100955"><ele>87.83333333333334</ele><time>2026-03-29T08:31:41.185Z</time></trkpt><trkpt lat="44.917944" lon="8.6101022"><ele>89.0</ele><time>2026-03-29T08:31:42.183Z</time></trkpt><trkpt lat="44.9178855" lon="8.6100617"><ele>89.0</ele><time>2026-03-29T08:31:43.183Z</time></trkpt><trkpt lat="44.9178302" lon="8.6099785"><ele>89.0</ele><time>2026-03-29T08:31:44.183Z</time></trkpt><trkpt lat="44.9177623" lon="8.6098632"><ele>89.0</ele><time>2026-03-29T08:31:45.184Z</time></trkpt><trkpt lat="44.9176832" lon="8.6097305"><ele>89.0</ele><time>2026-03-29T08:31:46.183Z</time></trkpt><trkpt lat="44.9175913" lon="8.6095752"><ele>90.0</ele><time>2026-03-29T08:31:47.184Z</time></trkpt><trkpt lat="44.91749" lon="8.6094087"><ele>91.0</ele><time>2026-03-29T08:31:48.182Z</time></trkpt><trkpt lat="44.9173735" lon="8.6092113"><ele>92.0</ele><time>2026-03-29T08:31:49.182Z</time></trkpt><trkpt lat="44.9172607" lon="8.6090225"><ele>92.0</ele><time>2026-03-29T08:31:50.182Z</time></trkpt><trkpt lat="44.91716" lon="8.6088452"><ele>92.0</ele><time>2026-03-29T08:31:51.181Z</time></trkpt><trkpt lat="44.9170665" lon="8.608676"><ele>92.0</ele><time>2026-03-29T08:31:52.182Z</time></trkpt><trkpt lat="44.9169693" lon="8.6085077"><ele>91.66666666666667</ele><time>2026-03-29T08:31:53.181Z</time></trkpt><trkpt lat="44.9168647" lon="8.608333"><ele>91.33333333333333</ele><time>2026-03-29T08:31:54.181Z</time></trkpt><trkpt lat="44.9167588" lon="8.6081547"><ele>91.0</ele><time>2026-03-29T08:31:55.178Z</time></trkpt><trkpt lat="44.916662" lon="8.6079878"><ele>92.0</ele><time>2026-03-29T08:31:56.18Z</time></trkpt><trkpt lat="44.9165725" lon="8.60783"><ele>93.0</ele><time>2026-03-29T08:31:57.181Z</time></trkpt><trkpt lat="44.9164837" lon="8.6076773"><ele>94.0</ele><time>2026-03-29T08:31:58.18Z</time></trkpt><trkpt lat="44.9163948" lon="8.6075362"><ele>95.0</ele><time>2026-03-29T08:31:59.183Z</time></trkpt><trkpt lat="44.9163132" lon="8.6074105"><ele>95.0</ele><time>2026-03-29T08:32:00.184Z</time></trkpt><trkpt lat="44.9162438" lon="8.6072975"><ele>95.0</ele><time>2026-03-29T08:32:01.184Z</time></trkpt><trkpt lat="44.9161863" lon="8.6071868"><ele>95.0</ele><time>2026-03-29T08:32:02.183Z</time></trkpt><trkpt lat="44.9161413" lon="8.6070723"><ele>95.0</ele><time>2026-03-29T08:32:03.179Z</time></trkpt><trkpt lat="44.9161033" lon="8.6069713"><ele>95.0</ele><time>2026-03-29T08:32:04.182Z</time></trkpt><trkpt lat="44.9160542" lon="8.6069002"><ele>95.0</ele><time>2026-03-29T08:32:05.182Z</time></trkpt><trkpt lat="44.9159872" lon="8.6068648"><ele>94.8</ele><time>2026-03-29T08:32:06.182Z</time></trkpt><trkpt lat="44.9159033" lon="8.606855"><ele>94.6</ele><time>2026-03-29T08:32:07.184Z</time></trkpt><trkpt lat="44.9158142" lon="8.6068398"><ele>94.4</ele><time>2026-03-29T08:32:08.184Z</time></trkpt><trkpt lat="44.9157208" lon="8.6068003"><ele>94.2</ele><time>2026-03-29T08:32:09.184Z</time></trkpt><trkpt lat="44.9156102" lon="8.6067418"><ele>94.0</ele><time>2026-03-29T08:32:10.183Z</time></trkpt><trkpt lat="44.9154817" lon="8.6066815"><ele>94.0</ele><time>2026-03-29T08:32:11.181Z</time></trkpt><trkpt lat="44.9153443" lon="8.6066142"><ele>94.0</ele><time>2026-03-29T08:32:12.18Z</time></trkpt><trkpt lat="44.9151987" lon="8.606541"><ele>94.0</ele><time>2026-03-29T08:32:13.179Z</time></trkpt><trkpt lat="44.9150552" lon="8.606474"><ele>94.25</ele><time>2026-03-29T08:32:14.177Z</time></trkpt><trkpt lat="44.914916" lon="8.6064097"><ele>94.5</ele><time>2026-03-29T08:32:15.181Z</time></trkpt><trkpt lat="44.9147782" lon="8.606345"><ele>94.75</ele><time>2026-03-29T08:32:16.182Z</time></trkpt><trkpt lat="44.9146427" lon="8.6062767"><ele>95.0</ele><time>2026-03-29T08:32:17.181Z</time></trkpt><trkpt lat="44.9145075" lon="8.6062122"><ele>95.0</ele><time>2026-03-29T08:32:18.182Z</time></trkpt><trkpt lat="44.914372" lon="8.6061512"><ele>95.0</ele><time>2026-03-29T08:32:19.181Z</time></trkpt><trkpt lat="44.9142367" lon="8.6060947"><ele>95.0</ele><time>2026-03-29T08:32:20.177Z</time></trkpt><trkpt lat="44.914104" lon="8.6060338"><ele>95.0</ele><time>2026-03-29T08:32:21.178Z</time></trkpt><trkpt lat="44.9139722" lon="8.6059728"><ele>96.0</ele><time>2026-03-29T08:32:22.176Z</time></trkpt><trkpt lat="44.9138363" lon="8.605911"><ele>97.0</ele><time>2026-03-29T08:32:23.177Z</time></trkpt><trkpt lat="44.9136965" lon="8.6058483"><ele>98.0</ele><time>2026-03-29T08:32:24.18Z</time></trkpt><trkpt lat="44.9135567" lon="8.6057848"><ele>99.0</ele><time>2026-03-29T08:32:25.18Z</time></trkpt><trkpt lat="44.9134168" lon="8.6057223"><ele>98.25</ele><time>2026-03-29T08:32:26.178Z</time></trkpt><trkpt lat="44.9132823" lon="8.605662"><ele>97.5</ele><time>2026-03-29T08:32:27.18Z</time></trkpt><trkpt lat="44.9131502" lon="8.6056025"><ele>96.75</ele><time>2026-03-29T08:32:28.18Z</time></trkpt><trkpt lat="44.9130193" lon="8.6055422"><ele>96.0</ele><time>2026-03-29T08:32:29.168Z</time></trkpt><trkpt lat="44.9128897" lon="8.605481"><ele>96.0</ele><time>2026-03-29T08:32:30.184Z</time></trkpt><trkpt lat="44.9127658" lon="8.6054233"><ele>96.0</ele><time>2026-03-29T08:32:31.183Z</time></trkpt><trkpt lat="44.9126523" lon="8.6053707"><ele>96.0</ele><time>2026-03-29T08:32:32.18Z</time></trkpt><trkpt lat="44.912548" lon="8.6053255"><ele>96.0</ele><time>2026-03-29T08:32:33.181Z</time></trkpt><trkpt lat="44.9124513" lon="8.605286"><ele>95.83333333333333</ele><time>2026-03-29T08:32:34.181Z</time></trkpt><trkpt lat="44.9123612" lon="8.6052482"><ele>95.66666666666667</ele><time>2026-03-29T08:32:35.18Z</time></trkpt><trkpt lat="44.9122822" lon="8.605211"><ele>95.5</ele><time>2026-03-29T08:32:36.181Z</time></trkpt><trkpt lat="44.912217" lon="8.6051665"><ele>95.33333333333334</ele><time>2026-03-29T08:32:37.181Z</time></trkpt><trkpt lat="44.9121707" lon="8.6050993"><ele>95.16666666666667</ele><time>2026-03-29T08:32:38.179Z</time></trkpt><trkpt lat="44.9121327" lon="8.6050218"><ele>95.0</ele><time>2026-03-29T08:32:39.182Z</time></trkpt><trkpt lat="44.9120278" lon="8.6049347"><ele>95.0</ele><time>2026-03-29T08:32:41.185Z</time></trkpt><trkpt lat="44.9119535" lon="8.6049397"><ele>95.0</ele><time>2026-03-29T08:32:42.184Z</time></trkpt><trkpt lat="44.9118793" lon="8.6049842"><ele>95.0</ele><time>2026-03-29T08:32:43.182Z</time></trkpt><trkpt lat="44.9117953" lon="8.6050642"><ele>95.0</ele><time>2026-03-29T08:32:44.177Z</time></trkpt><trkpt lat="44.911696" lon="8.6051712"><ele>95.0</ele><time>2026-03-29T08:32:45.177Z</time></trkpt><trkpt lat="44.911586" lon="8.605288"><ele>95.5</ele><time>2026-03-29T08:32:46.178Z</time></trkpt><trkpt lat="44.9114738" lon="8.6054135"><ele>96.0</ele><time>2026-03-29T08:32:47.18Z</time></trkpt><trkpt lat="44.9113608" lon="8.6055468"><ele>96.5</ele><time>2026-03-29T08:32:48.178Z</time></trkpt><trkpt lat="44.911241" lon="8.6056818"><ele>97.0</ele><time>2026-03-29T08:32:49.18Z</time></trkpt><trkpt lat="44.9111252" lon="8.6058152"><ele>97.0</ele><time>2026-03-29T08:32:50.18Z</time></trkpt><trkpt lat="44.9110132" lon="8.6059448"><ele>97.0</ele><time>2026-03-29T08:32:51.182Z</time></trkpt><trkpt lat="44.9109013" lon="8.6060728"><ele>97.0</ele><time>2026-03-29T08:32:52.179Z</time></trkpt><trkpt lat="44.9107912" lon="8.6061983"><ele>97.0</ele><time>2026-03-29T08:32:53.181Z</time></trkpt><trkpt lat="44.910693" lon="8.6063162"><ele>97.8</ele><time>2026-03-29T08:32:54.182Z</time></trkpt><trkpt lat="44.9106082" lon="8.6064267"><ele>98.6</ele><time>2026-03-29T08:32:55.183Z</time></trkpt><trkpt lat="44.910533" lon="8.6065228"><ele>99.39999999999999</ele><time>2026-03-29T08:32:56.181Z</time></trkpt><trkpt lat="44.9104667" lon="8.606616"><ele>100.19999999999999</ele><time>2026-03-29T08:32:57.181Z</time></trkpt><trkpt lat="44.9103962" lon="8.6067035"><ele>101.0</ele><time>2026-03-29T08:32:58.182Z</time></trkpt><trkpt lat="44.9103113" lon="8.6067747"><ele>101.0</ele><time>2026-03-29T08:32:59.184Z</time></trkpt><trkpt lat="44.9102108" lon="8.6068195"><ele>101.0</ele><time>2026-03-29T08:33:00.184Z</time></trkpt><trkpt lat="44.9101012" lon="8.6068538"><ele>101.0</ele><time>2026-03-29T08:33:01.184Z</time></trkpt><trkpt lat="44.9099923" lon="8.606903"><ele>101.0</ele><time>2026-03-29T08:33:02.183Z</time></trkpt><trkpt lat="44.909889" lon="8.606979"><ele>101.0</ele><time>2026-03-29T08:33:03.182Z</time></trkpt><trkpt lat="44.9097888" lon="8.6070747"><ele>100.25</ele><time>2026-03-29T08:33:04.181Z</time></trkpt><trkpt lat="44.9096895" lon="8.607185"><ele>99.5</ele><time>2026-03-29T08:33:05.18Z</time></trkpt><trkpt lat="44.9095858" lon="8.6073007"><ele>98.75</ele><time>2026-03-29T08:33:06.182Z</time></trkpt><trkpt lat="44.9094762" lon="8.6074237"><ele>98.0</ele><time>2026-03-29T08:33:07.183Z</time></trkpt><trkpt lat="44.9093625" lon="8.607554"><ele>98.0</ele><time>2026-03-29T08:33:08.183Z</time></trkpt><trkpt lat="44.909246" lon="8.6076865"><ele>98.0</ele><time>2026-03-29T08:33:09.179Z</time></trkpt><trkpt lat="44.9091292" lon="8.6078197"><ele>98.0</ele><time>2026-03-29T08:33:10.18Z</time></trkpt><trkpt lat="44.9090128" lon="8.6079498"><ele>98.0</ele><time>2026-03-29T08:33:11.18Z</time></trkpt><trkpt lat="44.908898" lon="8.608078"><ele>97.5</ele><time>2026-03-29T08:33:12.18Z</time></trkpt><trkpt lat="44.9087837" lon="8.6082043"><ele>97.0</ele><time>2026-03-29T08:33:13.183Z</time></trkpt><trkpt lat="44.9086695" lon="8.6083293"><ele>96.5</ele><time>2026-03-29T08:33:14.182Z</time></trkpt><trkpt lat="44.9085592" lon="8.6084528"><ele>96.0</ele><time>2026-03-29T08:33:15.183Z</time></trkpt><trkpt lat="44.9084505" lon="8.608575"><ele>96.25</ele><time>2026-03-29T08:33:16.186Z</time></trkpt><trkpt lat="44.9083427" lon="8.608695"><ele>96.5</ele><time>2026-03-29T08:33:17.183Z</time></trkpt><trkpt lat="44.908234" lon="8.6088175"><ele>96.75</ele><time>2026-03-29T08:33:18.181Z</time></trkpt><trkpt lat="44.9081218" lon="8.6089428"><ele>97.0</ele><time>2026-03-29T08:33:19.181Z</time></trkpt><trkpt lat="44.9080023" lon="8.6090693"><ele>97.0</ele><time>2026-03-29T08:33:20.182Z</time></trkpt><trkpt lat="44.907884" lon="8.6091943"><ele>97.0</ele><time>2026-03-29T08:33:21.182Z</time></trkpt><trkpt lat="44.907771" lon="8.6093163"><ele>97.0</ele><time>2026-03-29T08:33:22.182Z</time></trkpt><trkpt lat="44.9076583" lon="8.6094398"><ele>97.0</ele><time>2026-03-29T08:33:23.181Z</time></trkpt><trkpt lat="44.9075493" lon="8.6095603"><ele>96.5</ele><time>2026-03-29T08:33:24.181Z</time></trkpt><trkpt lat="44.9074468" lon="8.6096772"><ele>96.0</ele><time>2026-03-29T08:33:25.182Z</time></trkpt><trkpt lat="44.9073533" lon="8.6097858"><ele>95.5</ele><time>2026-03-29T08:33:26.182Z</time></trkpt><trkpt lat="44.9072752" lon="8.6098975"><ele>95.0</ele><time>2026-03-29T08:33:27.181Z</time></trkpt><trkpt lat="44.90722" lon="8.6100213"><ele>95.0</ele><time>2026-03-29T08:33:28.182Z</time></trkpt><trkpt lat="44.9071932" lon="8.6101732"><ele>95.0</ele><time>2026-03-29T08:33:29.183Z</time></trkpt><trkpt lat="44.9071895" lon="8.6103407"><ele>95.0</ele><time>2026-03-29T08:33:30.184Z</time></trkpt><trkpt lat="44.9072038" lon="8.6105217"><ele>95.0</ele><time>2026-03-29T08:33:31.183Z</time></trkpt><trkpt lat="44.907219" lon="8.6107062"><ele>95.4</ele><time>2026-03-29T08:33:32.181Z</time></trkpt><trkpt lat="44.9072283" lon="8.610874"><ele>95.8</ele><time>2026-03-29T08:33:33.177Z</time></trkpt><trkpt lat="44.9072333" lon="8.6110235"><ele>96.19999999999999</ele><time>2026-03-29T08:33:34.179Z</time></trkpt><trkpt lat="44.9072317" lon="8.6111605"><ele>96.6</ele><time>2026-03-29T08:33:35.179Z</time></trkpt><trkpt lat="44.9072203" lon="8.6112952"><ele>97.0</ele><time>2026-03-29T08:33:36.179Z</time></trkpt><trkpt lat="44.9072097" lon="8.6114055"><ele>97.6</ele><time>2026-03-29T08:33:37.18Z</time></trkpt><trkpt lat="44.907175" lon="8.6115683"><ele>98.19999999999999</ele><time>2026-03-29T08:33:39.181Z</time></trkpt><trkpt lat="44.9070773" lon="8.6116795"><ele>98.8</ele><time>2026-03-29T08:33:41.183Z</time></trkpt><trkpt lat="44.906996" lon="8.6117082"><ele>99.4</ele><time>2026-03-29T08:33:42.182Z</time></trkpt><trkpt lat="44.9068998" lon="8.6117258"><ele>100.0</ele><time>2026-03-29T08:33:43.184Z</time></trkpt><trkpt lat="44.9067963" lon="8.6117377"><ele>99.5</ele><time>2026-03-29T08:33:44.181Z</time></trkpt><trkpt lat="44.9066812" lon="8.6117498"><ele>99.0</ele><time>2026-03-29T08:33:45.181Z</time></trkpt><trkpt lat="44.9065538" lon="8.6117612"><ele>98.5</ele><time>2026-03-29T08:33:46.182Z</time></trkpt><trkpt lat="44.9064158" lon="8.6117738"><ele>98.0</ele><time>2026-03-29T08:33:47.18Z</time></trkpt><trkpt lat="44.90628" lon="8.6117865"><ele>98.0</ele><time>2026-03-29T08:33:48.183Z</time></trkpt><trkpt lat="44.9061407" lon="8.6118068"><ele>98.0</ele><time>2026-03-29T08:33:49.184Z</time></trkpt><trkpt lat="44.9060077" lon="8.6118247"><ele>98.0</ele><time>2026-03-29T08:33:50.183Z</time></trkpt><trkpt lat="44.9058852" lon="8.6118402"><ele>98.0</ele><time>2026-03-29T08:33:51.184Z</time></trkpt><trkpt lat="44.9057693" lon="8.6118547"><ele>98.2</ele><time>2026-03-29T08:33:52.184Z</time></trkpt><trkpt lat="44.9056595" lon="8.6118693"><ele>98.4</ele><time>2026-03-29T08:33:53.183Z</time></trkpt><trkpt lat="44.9055512" lon="8.6118835"><ele>98.60000000000001</ele><time>2026-03-29T08:33:54.183Z</time></trkpt><trkpt lat="44.9054438" lon="8.6118918"><ele>98.80000000000001</ele><time>2026-03-29T08:33:55.184Z</time></trkpt><trkpt lat="44.9053365" lon="8.6118965"><ele>99.0</ele><time>2026-03-29T08:33:56.184Z</time></trkpt><trkpt lat="44.905228" lon="8.6118882"><ele>99.0</ele><time>2026-03-29T08:33:57.184Z</time></trkpt><trkpt lat="44.9051232" lon="8.611858"><ele>99.0</ele><time>2026-03-29T08:33:58.181Z</time></trkpt><trkpt lat="44.9050258" lon="8.6118032"><ele>99.0</ele><time>2026-03-29T08:33:59.181Z</time></trkpt><trkpt lat="44.9049368" lon="8.6117262"><ele>99.0</ele><time>2026-03-29T08:34:00.181Z</time></trkpt><trkpt lat="44.9048582" lon="8.6116298"><ele>99.0</ele><time>2026-03-29T08:34:01.182Z</time></trkpt><trkpt lat="44.904788" lon="8.6115235"><ele>98.6</ele><time>2026-03-29T08:34:02.182Z</time></trkpt><trkpt lat="44.9047235" lon="8.6114122"><ele>98.2</ele><time>2026-03-29T08:34:03.182Z</time></trkpt><trkpt lat="44.9046612" lon="8.6113"><ele>97.8</ele><time>2026-03-29T08:34:04.183Z</time></trkpt><trkpt lat="44.9045935" lon="8.6111852"><ele>97.39999999999999</ele><time>2026-03-29T08:34:05.182Z</time></trkpt><trkpt lat="44.9045233" lon="8.6110655"><ele>97.0</ele><time>2026-03-29T08:34:06.183Z</time></trkpt><trkpt lat="44.9044507" lon="8.6109385"><ele>97.0</ele><time>2026-03-29T08:34:07.184Z</time></trkpt><trkpt lat="44.9043768" lon="8.6107997"><ele>97.0</ele><time>2026-03-29T08:34:08.184Z</time></trkpt><trkpt lat="44.9043055" lon="8.610644"><ele>97.0</ele><time>2026-03-29T08:34:09.184Z</time></trkpt><trkpt lat="44.9042343" lon="8.610475"><ele>97.0</ele><time>2026-03-29T08:34:10.184Z</time></trkpt><trkpt lat="44.9041612" lon="8.6102998"><ele>97.0</ele><time>2026-03-29T08:34:11.182Z</time></trkpt><trkpt lat="44.9040868" lon="8.6101268"><ele>97.0</ele><time>2026-03-29T08:34:12.183Z</time></trkpt><trkpt lat="44.9040115" lon="8.6099523"><ele>97.0</ele><time>2026-03-29T08:34:13.182Z</time></trkpt><trkpt lat="44.9039352" lon="8.609776"><ele>97.0</ele><time>2026-03-29T08:34:14.183Z</time></trkpt><trkpt lat="44.9038625" lon="8.6096102"><ele>97.0</ele><time>2026-03-29T08:34:15.183Z</time></trkpt><trkpt lat="44.9037923" lon="8.6094507"><ele>97.0</ele><time>2026-03-29T08:34:16.182Z</time></trkpt><trkpt lat="44.9037223" lon="8.6092943"><ele>97.0</ele><time>2026-03-29T08:34:17.185Z</time></trkpt><trkpt lat="44.9036533" lon="8.6091392"><ele>97.0</ele><time>2026-03-29T08:34:18.183Z</time></trkpt><trkpt lat="44.9035865" lon="8.6089843"><ele>97.0</ele><time>2026-03-29T08:34:19.183Z</time></trkpt><trkpt lat="44.9035245" lon="8.6088243"><ele>97.0</ele><time>2026-03-29T08:34:20.183Z</time></trkpt><trkpt lat="44.9034707" lon="8.6086565"><ele>97.0</ele><time>2026-03-29T08:34:21.182Z</time></trkpt><trkpt lat="44.903427" lon="8.6084792"><ele>97.0</ele><time>2026-03-29T08:34:22.181Z</time></trkpt><trkpt lat="44.9033982" lon="8.6082922"><ele>97.0</ele><time>2026-03-29T08:34:23.181Z</time></trkpt><trkpt lat="44.9033868" lon="8.6081057"><ele>97.0</ele><time>2026-03-29T08:34:24.181Z</time></trkpt><trkpt lat="44.9033907" lon="8.6079267"><ele>97.0</ele><time>2026-03-29T08:34:25.181Z</time></trkpt><trkpt lat="44.9034087" lon="8.6077585"><ele>97.0</ele><time>2026-03-29T08:34:26.182Z</time></trkpt><trkpt lat="44.9034378" lon="8.6076048"><ele>96.6</ele><time>2026-03-29T08:34:27.183Z</time></trkpt><trkpt lat="44.9034693" lon="8.607459"><ele>96.19999999999999</ele><time>2026-03-29T08:34:28.183Z</time></trkpt><trkpt lat="44.9035012" lon="8.6073138"><ele>95.8</ele><time>2026-03-29T08:34:29.183Z</time></trkpt><trkpt lat="44.9035312" lon="8.607176"><ele>95.4</ele><time>2026-03-29T08:34:30.183Z</time></trkpt><trkpt lat="44.9035502" lon="8.6070472"><ele>95.0</ele><time>2026-03-29T08:34:31.182Z</time></trkpt><trkpt lat="44.9035435" lon="8.6069262"><ele>95.0</ele><time>2026-03-29T08:34:32.181Z</time></trkpt><trkpt lat="44.9035083" lon="8.606808"><ele>95.0</ele><time>2026-03-29T08:34:33.181Z</time></trkpt><trkpt lat="44.9034547" lon="8.6067013"><ele>95.0</ele><time>2026-03-29T08:34:34.183Z</time></trkpt><trkpt lat="44.9033948" lon="8.6066118"><ele>95.0</ele><time>2026-03-29T08:34:35.181Z</time></trkpt><trkpt lat="44.9033497" lon="8.60653"><ele>95.0</ele><time>2026-03-29T08:34:36.18Z</time></trkpt><trkpt lat="44.9032895" lon="8.6064178"><ele>95.0</ele><time>2026-03-29T08:34:38.179Z</time></trkpt><trkpt lat="44.9032252" lon="8.6063525"><ele>95.5</ele><time>2026-03-29T08:34:40.179Z</time></trkpt><trkpt lat="44.9032252" lon="8.6063525"><ele>96.0</ele><time>2026-03-29T08:34:40.179Z</time></trkpt><trkpt lat="44.9032252" lon="8.6063525"><ele>96.5</ele><time>2026-03-29T08:34:40.179Z</time></trkpt><trkpt lat="44.903059" lon="8.6061595"><ele>97.0</ele><time>2026-03-29T08:40:48.181Z</time></trkpt><trkpt lat="44.9029418" lon="8.6060305"><ele>97.49999999999999</ele><time>2026-03-29T08:40:51.182Z</time></trkpt><trkpt lat="44.9028905" lon="8.6059738"><ele>98.0</ele><time>2026-03-29T08:40:52.184Z</time></trkpt><trkpt lat="44.9028375" lon="8.6059118"><ele>97.99999999999999</ele><time>2026-03-29T08:40:53.182Z</time></trkpt><trkpt lat="44.9027838" lon="8.6058448"><ele>98.0</ele><time>2026-03-29T08:40:54.178Z</time></trkpt><trkpt lat="44.90273" lon="8.6057785"><ele>98.0</ele><time>2026-03-29T08:40:55.179Z</time></trkpt><trkpt lat="44.9026765" lon="8.6057155"><ele>98.0</ele><time>2026-03-29T08:40:56.179Z</time></trkpt><trkpt lat="44.9025918" lon="8.6056163"><ele>97.99999999999999</ele><time>2026-03-29T08:40:58.182Z</time></trkpt><trkpt lat="44.902473" lon="8.6056582"><ele>98.0</ele><time>2026-03-29T08:41:42.181Z</time></trkpt><trkpt lat="44.9024225" lon="8.6055762"><ele>97.83333333333333</ele><time>2026-03-29T08:41:44.178Z</time></trkpt><trkpt lat="44.9023675" lon="8.6055067"><ele>97.66666666666666</ele><time>2026-03-29T08:41:45.178Z</time></trkpt><trkpt lat="44.9023033" lon="8.6054282"><ele>97.5</ele><time>2026-03-29T08:41:46.178Z</time></trkpt><trkpt lat="44.9022342" lon="8.605345"><ele>97.33333333333334</ele><time>2026-03-29T08:41:47.181Z</time></trkpt><trkpt lat="44.9021632" lon="8.6052518"><ele>97.16666666666667</ele><time>2026-03-29T08:41:48.181Z</time></trkpt><trkpt lat="44.9020875" lon="8.6051577"><ele>97.0</ele><time>2026-03-29T08:41:49.181Z</time></trkpt><trkpt lat="44.9020135" lon="8.6050578"><ele>96.8</ele><time>2026-03-29T08:41:50.179Z</time></trkpt><trkpt lat="44.9019355" lon="8.604959"><ele>96.6</ele><time>2026-03-29T08:41:51.18Z</time></trkpt><trkpt lat="44.9018593" lon="8.6048572"><ele>96.39999999999999</ele><time>2026-03-29T08:41:52.181Z</time></trkpt><trkpt lat="44.9017765" lon="8.6047622"><ele>96.19999999999999</ele><time>2026-03-29T08:41:53.181Z</time></trkpt><trkpt lat="44.9016888" lon="8.6046582"><ele>96.0</ele><time>2026-03-29T08:41:54.182Z</time></trkpt><trkpt lat="44.9016025" lon="8.6045443"><ele>95.6</ele><time>2026-03-29T08:41:55.183Z</time></trkpt><trkpt lat="44.9015158" lon="8.6044328"><ele>95.19999999999999</ele><time>2026-03-29T08:41:56.182Z</time></trkpt><trkpt lat="44.9014327" lon="8.6043245"><ele>94.80000000000001</ele><time>2026-03-29T08:41:57.182Z</time></trkpt><trkpt lat="44.9013572" lon="8.604225"><ele>94.4</ele><time>2026-03-29T08:41:58.182Z</time></trkpt><trkpt lat="44.9012875" lon="8.6041383"><ele>94.0</ele><time>2026-03-29T08:41:59.182Z</time></trkpt><trkpt lat="44.9012183" lon="8.6040525"><ele>94.0</ele><time>2026-03-29T08:42:00.181Z</time></trkpt><trkpt lat="44.9011517" lon="8.6039643"><ele>94.0</ele><time>2026-03-29T08:42:01.183Z</time></trkpt><trkpt lat="44.9010945" lon="8.603879"><ele>94.0</ele><time>2026-03-29T08:42:02.181Z</time></trkpt><trkpt lat="44.9010457" lon="8.6038092"><ele>94.0</ele><time>2026-03-29T08:42:03.182Z</time></trkpt><trkpt lat="44.9009617" lon="8.6037073"><ele>94.0</ele><time>2026-03-29T08:42:05.183Z</time></trkpt><trkpt lat="44.900854" lon="8.6035875"><ele>94.0</ele><time>2026-03-29T08:42:07.182Z</time></trkpt><trkpt lat="44.9007887" lon="8.6035128"><ele>94.0</ele><time>2026-03-29T08:42:08.18Z</time></trkpt><trkpt lat="44.9007187" lon="8.6034263"><ele>94.0</ele><time>2026-03-29T08:42:09.18Z</time></trkpt><trkpt lat="44.9006452" lon="8.6033313"><ele>94.0</ele><time>2026-03-29T08:42:10.178Z</time></trkpt><trkpt lat="44.9005652" lon="8.6032332"><ele>94.0</ele><time>2026-03-29T08:42:11.178Z</time></trkpt><trkpt lat="44.9004797" lon="8.6031237"><ele>94.0</ele><time>2026-03-29T08:42:12.181Z</time></trkpt><trkpt lat="44.9003933" lon="8.603005"><ele>94.0</ele><time>2026-03-29T08:42:13.182Z</time></trkpt><trkpt lat="44.9003078" lon="8.6028797"><ele>94.0</ele><time>2026-03-29T08:42:14.181Z</time></trkpt><trkpt lat="44.9002227" lon="8.6027592"><ele>94.0</ele><time>2026-03-29T08:42:15.184Z</time></trkpt><trkpt lat="44.9001323" lon="8.6026412"><ele>94.25</ele><time>2026-03-29T08:42:16.182Z</time></trkpt><trkpt lat="44.9000418" lon="8.6025208"><ele>94.5</ele><time>2026-03-29T08:42:17.182Z</time></trkpt><trkpt lat="44.8999478" lon="8.6023997"><ele>94.75</ele><time>2026-03-29T08:42:18.182Z</time></trkpt><trkpt lat="44.8998517" lon="8.6022765"><ele>95.0</ele><time>2026-03-29T08:42:19.182Z</time></trkpt><trkpt lat="44.8997562" lon="8.6021482"><ele>95.0</ele><time>2026-03-29T08:42:20.182Z</time></trkpt><trkpt lat="44.8996567" lon="8.6020222"><ele>95.0</ele><time>2026-03-29T08:42:21.18Z</time></trkpt><trkpt lat="44.8995538" lon="8.6018938"><ele>95.0</ele><time>2026-03-29T08:42:22.181Z</time></trkpt><trkpt lat="44.899449" lon="8.601763"><ele>95.0</ele><time>2026-03-29T08:42:23.181Z</time></trkpt><trkpt lat="44.8993423" lon="8.6016298"><ele>95.0</ele><time>2026-03-29T08:42:24.182Z</time></trkpt><trkpt lat="44.8992368" lon="8.6014952"><ele>95.0</ele><time>2026-03-29T08:42:25.181Z</time></trkpt><trkpt lat="44.8991317" lon="8.6013628"><ele>95.0</ele><time>2026-03-29T08:42:26.181Z</time></trkpt><trkpt lat="44.899028" lon="8.6012295"><ele>95.0</ele><time>2026-03-29T08:42:27.181Z</time></trkpt><trkpt lat="44.8989248" lon="8.601099"><ele>95.25</ele><time>2026-03-29T08:42:28.181Z</time></trkpt><trkpt lat="44.8988223" lon="8.6009707"><ele>95.5</ele><time>2026-03-29T08:42:29.181Z</time></trkpt><trkpt lat="44.8987208" lon="8.6008447"><ele>95.75</ele><time>2026-03-29T08:42:30.181Z</time></trkpt><trkpt lat="44.8986207" lon="8.6007198"><ele>96.0</ele><time>2026-03-29T08:42:31.182Z</time></trkpt><trkpt lat="44.898522" lon="8.6005962"><ele>96.0</ele><time>2026-03-29T08:42:32.18Z</time></trkpt><trkpt lat="44.8984273" lon="8.6004792"><ele>96.0</ele><time>2026-03-29T08:42:33.18Z</time></trkpt><trkpt lat="44.8983412" lon="8.6003722"><ele>96.0</ele><time>2026-03-29T08:42:34.18Z</time></trkpt><trkpt lat="44.8982562" lon="8.6002645"><ele>96.0</ele><time>2026-03-29T08:42:35.18Z</time></trkpt><trkpt lat="44.8981707" lon="8.6001533"><ele>95.8</ele><time>2026-03-29T08:42:36.183Z</time></trkpt><trkpt lat="44.8980845" lon="8.6000435"><ele>95.6</ele><time>2026-03-29T08:42:37.182Z</time></trkpt><trkpt lat="44.8980013" lon="8.5999398"><ele>95.4</ele><time>2026-03-29T08:42:38.183Z</time></trkpt><trkpt lat="44.8979207" lon="8.5998417"><ele>95.2</ele><time>2026-03-29T08:42:39.181Z</time></trkpt><trkpt lat="44.8978437" lon="8.5997447"><ele>95.0</ele><time>2026-03-29T08:42:40.18Z</time></trkpt><trkpt lat="44.8977667" lon="8.5996493"><ele>95.0</ele><time>2026-03-29T08:42:41.179Z</time></trkpt><trkpt lat="44.8976905" lon="8.5995503"><ele>95.0</ele><time>2026-03-29T08:42:42.178Z</time></trkpt><trkpt lat="44.8976107" lon="8.5994518"><ele>95.0</ele><time>2026-03-29T08:42:43.18Z</time></trkpt><trkpt lat="44.8975282" lon="8.5993525"><ele>95.0</ele><time>2026-03-29T08:42:44.181Z</time></trkpt><trkpt lat="44.8974483" lon="8.5992513"><ele>95.0</ele><time>2026-03-29T08:42:45.181Z</time></trkpt><trkpt lat="44.8973715" lon="8.599158"><ele>95.16666666666667</ele><time>2026-03-29T08:42:46.18Z</time></trkpt><trkpt lat="44.8973002" lon="8.5990697"><ele>95.33333333333334</ele><time>2026-03-29T08:42:47.18Z</time></trkpt><trkpt lat="44.8972347" lon="8.5989888"><ele>95.5</ele><time>2026-03-29T08:42:48.181Z</time></trkpt><trkpt lat="44.8971767" lon="8.5989162"><ele>95.66666666666667</ele><time>2026-03-29T08:42:49.181Z</time></trkpt><trkpt lat="44.897122" lon="8.598841"><ele>95.83333333333333</ele><time>2026-03-29T08:42:50.18Z</time></trkpt><trkpt lat="44.8970727" lon="8.5987693"><ele>96.0</ele><time>2026-03-29T08:42:51.181Z</time></trkpt><trkpt lat="44.8969917" lon="8.5986602"><ele>96.0</ele><time>2026-03-29T08:42:53.182Z</time></trkpt><trkpt lat="44.8969302" lon="8.5985825"><ele>96.0</ele><time>2026-03-29T08:42:55.182Z</time></trkpt><trkpt lat="44.8968913" lon="8.5985013"><ele>96.0</ele><time>2026-03-29T08:43:31.183Z</time></trkpt><trkpt lat="44.8968383" lon="8.5984338"><ele>96.0</ele><time>2026-03-29T08:43:33.184Z</time></trkpt><trkpt lat="44.8967637" lon="8.5983373"><ele>96.0</ele><time>2026-03-29T08:43:35.182Z</time></trkpt><trkpt lat="44.896679" lon="8.5982213"><ele>96.0</ele><time>2026-03-29T08:43:37.182Z</time></trkpt><trkpt lat="44.8967043" lon="8.5980935"><ele>96.0</ele><time>2026-03-29T08:43:39.18Z</time></trkpt><trkpt lat="44.8967637" lon="8.5980123"><ele>96.0</ele><time>2026-03-29T08:43:40.18Z</time></trkpt><trkpt lat="44.8968408" lon="8.597913"><ele>96.0</ele><time>2026-03-29T08:43:41.179Z</time></trkpt><trkpt lat="44.8969253" lon="8.5977973"><ele>96.0</ele><time>2026-03-29T08:43:42.181Z</time></trkpt><trkpt lat="44.8970195" lon="8.5976685"><ele>96.0</ele><time>2026-03-29T08:43:43.182Z</time></trkpt><trkpt lat="44.8971182" lon="8.5975357"><ele>96.0</ele><time>2026-03-29T08:43:44.18Z</time></trkpt><trkpt lat="44.8972088" lon="8.5974158"><ele>96.0</ele><time>2026-03-29T08:43:45.179Z</time></trkpt><trkpt lat="44.8972892" lon="8.5973188"><ele>96.0</ele><time>2026-03-29T08:43:46.181Z</time></trkpt><trkpt lat="44.8973518" lon="8.5972402"><ele>96.0</ele><time>2026-03-29T08:43:47.179Z</time></trkpt><trkpt lat="44.8974018" lon="8.597174"><ele>96.0</ele><time>2026-03-29T08:43:48.179Z</time></trkpt><trkpt lat="44.8974473" lon="8.5970945"><ele>95.8</ele><time>2026-03-29T08:43:50.182Z</time></trkpt><trkpt lat="44.8974515" lon="8.5969825"><ele>95.6</ele><time>2026-03-29T08:44:26.181Z</time></trkpt><trkpt lat="44.8975125" lon="8.5968208"><ele>95.4</ele><time>2026-03-29T08:44:28.181Z</time></trkpt><trkpt lat="44.8975208" lon="8.596702"><ele>95.2</ele><time>2026-03-29T08:44:29.177Z</time></trkpt><trkpt lat="44.8975128" lon="8.5965727"><ele>95.0</ele><time>2026-03-29T08:44:30.182Z</time></trkpt><trkpt lat="44.8975058" lon="8.5964218"><ele>95.0</ele><time>2026-03-29T08:44:31.18Z</time></trkpt><trkpt lat="44.8975025" lon="8.5962518"><ele>95.0</ele><time>2026-03-29T08:44:32.181Z</time></trkpt><trkpt lat="44.8974938" lon="8.5960763"><ele>95.0</ele><time>2026-03-29T08:44:33.182Z</time></trkpt><trkpt lat="44.897487" lon="8.5958952"><ele>95.0</ele><time>2026-03-29T08:44:34.181Z</time></trkpt><trkpt lat="44.8974817" lon="8.5957067"><ele>95.25</ele><time>2026-03-29T08:44:35.179Z</time></trkpt><trkpt lat="44.8974757" lon="8.5955168"><ele>95.5</ele><time>2026-03-29T08:44:36.179Z</time></trkpt><trkpt lat="44.8974688" lon="8.5953287"><ele>95.75</ele><time>2026-03-29T08:44:37.181Z</time></trkpt><trkpt lat="44.8974603" lon="8.5951432"><ele>96.0</ele><time>2026-03-29T08:44:38.179Z</time></trkpt><trkpt lat="44.8974515" lon="8.5949605"><ele>96.0</ele><time>2026-03-29T08:44:39.181Z</time></trkpt><trkpt lat="44.8974427" lon="8.5947857"><ele>96.0</ele><time>2026-03-29T08:44:40.182Z</time></trkpt><trkpt lat="44.897435" lon="8.594622"><ele>96.0</ele><time>2026-03-29T08:44:41.181Z</time></trkpt><trkpt lat="44.8974288" lon="8.5944625"><ele>96.0</ele><time>2026-03-29T08:44:42.182Z</time></trkpt><trkpt lat="44.8974228" lon="8.5943148"><ele>96.0</ele><time>2026-03-29T08:44:43.181Z</time></trkpt><trkpt lat="44.8974175" lon="8.5941702"><ele>96.0</ele><time>2026-03-29T08:44:44.18Z</time></trkpt><trkpt lat="44.8974085" lon="8.5940277"><ele>96.0</ele><time>2026-03-29T08:44:45.179Z</time></trkpt><trkpt lat="44.897402" lon="8.5938927"><ele>96.0</ele><time>2026-03-29T08:44:46.181Z</time></trkpt><trkpt lat="44.8973963" lon="8.5937638"><ele>96.0</ele><time>2026-03-29T08:44:47.18Z</time></trkpt><trkpt lat="44.8973902" lon="8.5936408"><ele>96.0</ele><time>2026-03-29T08:44:48.18Z</time></trkpt><trkpt lat="44.8973843" lon="8.5935235"><ele>96.0</ele><time>2026-03-29T08:44:49.181Z</time></trkpt><trkpt lat="44.8973788" lon="8.5934145"><ele>96.0</ele><time>2026-03-29T08:44:50.18Z</time></trkpt><trkpt lat="44.8973777" lon="8.5933178"><ele>96.0</ele><time>2026-03-29T08:44:51.18Z</time></trkpt><trkpt lat="44.8973758" lon="8.5931745"><ele>96.0</ele><time>2026-03-29T08:44:53.182Z</time></trkpt><trkpt lat="44.897374" lon="8.5930678"><ele>96.0</ele><time>2026-03-29T08:44:55.184Z</time></trkpt><trkpt lat="44.8973645" lon="8.592972"><ele>96.0</ele><time>2026-03-29T08:44:56.181Z</time></trkpt><trkpt lat="44.8973498" lon="8.5928402"><ele>96.0</ele><time>2026-03-29T08:44:57.182Z</time></trkpt><trkpt lat="44.8973408" lon="8.5926782"><ele>96.0</ele><time>2026-03-29T08:44:58.18Z</time></trkpt><trkpt lat="44.8973333" lon="8.5924973"><ele>96.0</ele><time>2026-03-29T08:44:59.179Z</time></trkpt><trkpt lat="44.8973228" lon="8.5923007"><ele>96.0</ele><time>2026-03-29T08:45:00.181Z</time></trkpt><trkpt lat="44.8973095" lon="8.5920938"><ele>96.0</ele><time>2026-03-29T08:45:01.18Z</time></trkpt><trkpt lat="44.8972973" lon="8.5918838"><ele>96.0</ele><time>2026-03-29T08:45:02.18Z</time></trkpt><trkpt lat="44.897285" lon="8.591682"><ele>96.0</ele><time>2026-03-29T08:45:03.183Z</time></trkpt><trkpt lat="44.8972732" lon="8.591494"><ele>96.0</ele><time>2026-03-29T08:45:04.187Z</time></trkpt><trkpt lat="44.8972637" lon="8.5913128"><ele>96.0</ele><time>2026-03-29T08:45:05.183Z</time></trkpt><trkpt lat="44.8972547" lon="8.591142"><ele>96.0</ele><time>2026-03-29T08:45:06.184Z</time></trkpt><trkpt lat="44.8972462" lon="8.5909822"><ele>96.0</ele><time>2026-03-29T08:45:07.184Z</time></trkpt><trkpt lat="44.8972387" lon="8.5908272"><ele>96.0</ele><time>2026-03-29T08:45:08.184Z</time></trkpt><trkpt lat="44.8972315" lon="8.5906758"><ele>96.0</ele><time>2026-03-29T08:45:09.183Z</time></trkpt><trkpt lat="44.8972235" lon="8.5905253"><ele>96.0</ele><time>2026-03-29T08:45:10.183Z</time></trkpt><trkpt lat="44.8972163" lon="8.5903778"><ele>96.0</ele><time>2026-03-29T08:45:11.185Z</time></trkpt><trkpt lat="44.8972077" lon="8.5902297"><ele>96.0</ele><time>2026-03-29T08:45:12.184Z</time></trkpt><trkpt lat="44.8971972" lon="8.5900758"><ele>96.0</ele><time>2026-03-29T08:45:13.183Z</time></trkpt><trkpt lat="44.897187" lon="8.5899183"><ele>96.0</ele><time>2026-03-29T08:45:14.181Z</time></trkpt><trkpt lat="44.8971802" lon="8.5897628"><ele>96.0</ele><time>2026-03-29T08:45:15.181Z</time></trkpt><trkpt lat="44.897173" lon="8.5896063"><ele>96.0</ele><time>2026-03-29T08:45:16.181Z</time></trkpt><trkpt lat="44.8971658" lon="8.5894522"><ele>96.0</ele><time>2026-03-29T08:45:17.181Z</time></trkpt><trkpt lat="44.8971592" lon="8.5893043"><ele>96.0</ele><time>2026-03-29T08:45:18.183Z</time></trkpt><trkpt lat="44.8971543" lon="8.5891635"><ele>96.0</ele><time>2026-03-29T08:45:19.182Z</time></trkpt><trkpt lat="44.8971493" lon="8.5890277"><ele>96.0</ele><time>2026-03-29T08:45:20.182Z</time></trkpt><trkpt lat="44.8971443" lon="8.5888957"><ele>96.0</ele><time>2026-03-29T08:45:21.181Z</time></trkpt><trkpt lat="44.8971392" lon="8.5887598"><ele>96.0</ele><time>2026-03-29T08:45:22.182Z</time></trkpt><trkpt lat="44.897134" lon="8.5886157"><ele>95.75</ele><time>2026-03-29T08:45:23.181Z</time></trkpt><trkpt lat="44.8971285" lon="8.588469"><ele>95.5</ele><time>2026-03-29T08:45:24.18Z</time></trkpt><trkpt lat="44.8971235" lon="8.5883185"><ele>95.25</ele><time>2026-03-29T08:45:25.18Z</time></trkpt><trkpt lat="44.8971133" lon="8.5881553"><ele>95.0</ele><time>2026-03-29T08:45:26.18Z</time></trkpt><trkpt lat="44.8970998" lon="8.5879727"><ele>95.0</ele><time>2026-03-29T08:45:27.181Z</time></trkpt><trkpt lat="44.8970843" lon="8.587774"><ele>95.0</ele><time>2026-03-29T08:45:28.183Z</time></trkpt><trkpt lat="44.8970713" lon="8.5875662"><ele>95.0</ele><time>2026-03-29T08:45:29.182Z</time></trkpt><trkpt lat="44.8970585" lon="8.5873587"><ele>95.0</ele><time>2026-03-29T08:45:30.182Z</time></trkpt><trkpt lat="44.8970458" lon="8.5871397"><ele>95.33333333333334</ele><time>2026-03-29T08:45:31.185Z</time></trkpt><trkpt lat="44.8970327" lon="8.5869093"><ele>95.66666666666667</ele><time>2026-03-29T08:45:32.182Z</time></trkpt><trkpt lat="44.897019" lon="8.5866752"><ele>96.0</ele><time>2026-03-29T08:45:33.183Z</time></trkpt><trkpt lat="44.8970055" lon="8.5864432"><ele>96.0</ele><time>2026-03-29T08:45:34.183Z</time></trkpt><trkpt lat="44.8969933" lon="8.5862237"><ele>96.0</ele><time>2026-03-29T08:45:35.185Z</time></trkpt><trkpt lat="44.8969843" lon="8.586033"><ele>96.0</ele><time>2026-03-29T08:45:36.186Z</time></trkpt><trkpt lat="44.8969765" lon="8.5858705"><ele>96.0</ele><time>2026-03-29T08:45:37.184Z</time></trkpt><trkpt lat="44.896969" lon="8.5857158"><ele>95.8</ele><time>2026-03-29T08:45:38.184Z</time></trkpt><trkpt lat="44.8969607" lon="8.5855547"><ele>95.6</ele><time>2026-03-29T08:45:39.184Z</time></trkpt><trkpt lat="44.8969522" lon="8.5853973"><ele>95.4</ele><time>2026-03-29T08:45:40.183Z</time></trkpt><trkpt lat="44.8969435" lon="8.5852448"><ele>95.2</ele><time>2026-03-29T08:45:41.182Z</time></trkpt><trkpt lat="44.8969352" lon="8.5850873"><ele>95.0</ele><time>2026-03-29T08:45:42.184Z</time></trkpt><trkpt lat="44.8969265" lon="8.5849183"><ele>95.0</ele><time>2026-03-29T08:45:43.183Z</time></trkpt><trkpt lat="44.8969187" lon="8.5847417"><ele>95.0</ele><time>2026-03-29T08:45:44.183Z</time></trkpt><trkpt lat="44.8969092" lon="8.5845475"><ele>95.0</ele><time>2026-03-29T08:45:45.183Z</time></trkpt><trkpt lat="44.8969008" lon="8.5843398"><ele>95.0</ele><time>2026-03-29T08:45:46.183Z</time></trkpt><trkpt lat="44.8968915" lon="8.5841247"><ele>94.66666666666667</ele><time>2026-03-29T08:45:47.185Z</time></trkpt><trkpt lat="44.8968793" lon="8.583904"><ele>94.33333333333333</ele><time>2026-03-29T08:45:48.182Z</time></trkpt><trkpt lat="44.8968673" lon="8.5836803"><ele>94.0</ele><time>2026-03-29T08:45:49.183Z</time></trkpt><trkpt lat="44.8968553" lon="8.5834567"><ele>93.66666666666666</ele><time>2026-03-29T08:45:50.181Z</time></trkpt><trkpt lat="44.8968427" lon="8.5832197"><ele>93.33333333333333</ele><time>2026-03-29T08:45:51.181Z</time></trkpt><trkpt lat="44.8968292" lon="8.5829815"><ele>93.0</ele><time>2026-03-29T08:45:52.183Z</time></trkpt><trkpt lat="44.8968163" lon="8.5827592"><ele>93.5</ele><time>2026-03-29T08:45:53.183Z</time></trkpt><trkpt lat="44.8968048" lon="8.582553"><ele>94.0</ele><time>2026-03-29T08:45:54.183Z</time></trkpt><trkpt lat="44.8967943" lon="8.5823603"><ele>94.5</ele><time>2026-03-29T08:45:55.183Z</time></trkpt><trkpt lat="44.8967847" lon="8.5821753"><ele>95.0</ele><time>2026-03-29T08:45:56.183Z</time></trkpt><trkpt lat="44.896775" lon="8.5819928"><ele>95.0</ele><time>2026-03-29T08:45:57.184Z</time></trkpt><trkpt lat="44.8967655" lon="8.5818128"><ele>95.0</ele><time>2026-03-29T08:45:58.183Z</time></trkpt><trkpt lat="44.8967573" lon="8.5816323"><ele>95.0</ele><time>2026-03-29T08:45:59.184Z</time></trkpt><trkpt lat="44.8967503" lon="8.5814412"><ele>95.0</ele><time>2026-03-29T08:46:00.185Z</time></trkpt><trkpt lat="44.8967417" lon="8.5812357"><ele>94.66666666666667</ele><time>2026-03-29T08:46:01.184Z</time></trkpt><trkpt lat="44.8967338" lon="8.581014"><ele>94.33333333333333</ele><time>2026-03-29T08:46:02.184Z</time></trkpt><trkpt lat="44.8967273" lon="8.5807733"><ele>94.0</ele><time>2026-03-29T08:46:03.184Z</time></trkpt><trkpt lat="44.8967205" lon="8.580526"><ele>93.66666666666666</ele><time>2026-03-29T08:46:04.184Z</time></trkpt><trkpt lat="44.8967087" lon="8.5802655"><ele>93.33333333333333</ele><time>2026-03-29T08:46:05.184Z</time></trkpt><trkpt lat="44.896694" lon="8.5799988"><ele>93.0</ele><time>2026-03-29T08:46:06.183Z</time></trkpt><trkpt lat="44.8966785" lon="8.5797323"><ele>93.33333333333333</ele><time>2026-03-29T08:46:07.184Z</time></trkpt><trkpt lat="44.896664" lon="8.579465"><ele>93.66666666666666</ele><time>2026-03-29T08:46:08.183Z</time></trkpt><trkpt lat="44.8966502" lon="8.5792002"><ele>94.0</ele><time>2026-03-29T08:46:09.185Z</time></trkpt><trkpt lat="44.8966348" lon="8.5789288"><ele>94.33333333333333</ele><time>2026-03-29T08:46:10.184Z</time></trkpt><trkpt lat="44.8966193" lon="8.5786487"><ele>94.66666666666667</ele><time>2026-03-29T08:46:11.183Z</time></trkpt><trkpt lat="44.896604" lon="8.5783647"><ele>95.0</ele><time>2026-03-29T08:46:12.183Z</time></trkpt><trkpt lat="44.8965878" lon="8.5780785"><ele>95.0</ele><time>2026-03-29T08:46:13.182Z</time></trkpt><trkpt lat="44.8965725" lon="8.577792"><ele>95.0</ele><time>2026-03-29T08:46:14.182Z</time></trkpt><trkpt lat="44.8965572" lon="8.5775103"><ele>95.0</ele><time>2026-03-29T08:46:15.182Z</time></trkpt><trkpt lat="44.896543" lon="8.5772313"><ele>95.0</ele><time>2026-03-29T08:46:16.183Z</time></trkpt><trkpt lat="44.8965298" lon="8.5769543"><ele>95.0</ele><time>2026-03-29T08:46:17.185Z</time></trkpt><trkpt lat="44.8965162" lon="8.5766817"><ele>95.0</ele><time>2026-03-29T08:46:18.185Z</time></trkpt><trkpt lat="44.8965018" lon="8.5764142"><ele>95.33333333333334</ele><time>2026-03-29T08:46:19.185Z</time></trkpt><trkpt lat="44.8964888" lon="8.5761492"><ele>95.66666666666667</ele><time>2026-03-29T08:46:20.184Z</time></trkpt><trkpt lat="44.8964767" lon="8.5758828"><ele>96.0</ele><time>2026-03-29T08:46:21.185Z</time></trkpt><trkpt lat="44.8964637" lon="8.5756163"><ele>95.66666666666667</ele><time>2026-03-29T08:46:22.184Z</time></trkpt><trkpt lat="44.8964503" lon="8.5753515"><ele>95.33333333333334</ele><time>2026-03-29T08:46:23.183Z</time></trkpt><trkpt lat="44.8964375" lon="8.575089"><ele>95.0</ele><time>2026-03-29T08:46:24.184Z</time></trkpt><trkpt lat="44.896425" lon="8.5748282"><ele>95.0</ele><time>2026-03-29T08:46:25.183Z</time></trkpt><trkpt lat="44.8964125" lon="8.5745672"><ele>95.0</ele><time>2026-03-29T08:46:26.183Z</time></trkpt><trkpt lat="44.8963997" lon="8.574304"><ele>95.0</ele><time>2026-03-29T08:46:27.182Z</time></trkpt><trkpt lat="44.8963867" lon="8.5740398"><ele>94.66666666666667</ele><time>2026-03-29T08:46:28.184Z</time></trkpt><trkpt lat="44.8963712" lon="8.573774"><ele>94.33333333333333</ele><time>2026-03-29T08:46:29.183Z</time></trkpt><trkpt lat="44.8963577" lon="8.5735068"><ele>94.0</ele><time>2026-03-29T08:46:30.183Z</time></trkpt><trkpt lat="44.8963433" lon="8.5732375"><ele>94.0</ele><time>2026-03-29T08:46:31.183Z</time></trkpt><trkpt lat="44.8963272" lon="8.5729665"><ele>94.0</ele><time>2026-03-29T08:46:32.182Z</time></trkpt><trkpt lat="44.896313" lon="8.572694"><ele>94.0</ele><time>2026-03-29T08:46:33.182Z</time></trkpt><trkpt lat="44.8962978" lon="8.5724188"><ele>94.33333333333333</ele><time>2026-03-29T08:46:34.183Z</time></trkpt><trkpt lat="44.8962823" lon="8.5721463"><ele>94.66666666666667</ele><time>2026-03-29T08:46:35.183Z</time></trkpt><trkpt lat="44.896268" lon="8.5718747"><ele>95.0</ele><time>2026-03-29T08:46:36.185Z</time></trkpt><trkpt lat="44.8962538" lon="8.5716025"><ele>94.66666666666667</ele><time>2026-03-29T08:46:37.182Z</time></trkpt><trkpt lat="44.8962392" lon="8.5713278"><ele>94.33333333333333</ele><time>2026-03-29T08:46:38.184Z</time></trkpt><trkpt lat="44.8962248" lon="8.571051"><ele>94.0</ele><time>2026-03-29T08:46:39.182Z</time></trkpt><trkpt lat="44.896211" lon="8.5707747"><ele>94.0</ele><time>2026-03-29T08:46:40.181Z</time></trkpt><trkpt lat="44.8961987" lon="8.5705095"><ele>94.0</ele><time>2026-03-29T08:46:41.192Z</time></trkpt><trkpt lat="44.896187" lon="8.5702615"><ele>94.0</ele><time>2026-03-29T08:46:42.183Z</time></trkpt><trkpt lat="44.8961727" lon="8.5700298"><ele>94.0</ele><time>2026-03-29T08:46:43.183Z</time></trkpt><trkpt lat="44.8961593" lon="8.5698157"><ele>94.0</ele><time>2026-03-29T08:46:44.183Z</time></trkpt><trkpt lat="44.8961473" lon="8.5696172"><ele>94.0</ele><time>2026-03-29T08:46:45.183Z</time></trkpt><trkpt lat="44.8961367" lon="8.5694273"><ele>94.0</ele><time>2026-03-29T08:46:46.184Z</time></trkpt><trkpt lat="44.896126" lon="8.5692372"><ele>94.5</ele><time>2026-03-29T08:46:47.184Z</time></trkpt><trkpt lat="44.8961147" lon="8.5690355"><ele>95.0</ele><time>2026-03-29T08:46:48.183Z</time></trkpt><trkpt lat="44.896103" lon="8.5688225"><ele>95.5</ele><time>2026-03-29T08:46:49.183Z</time></trkpt><trkpt lat="44.8960925" lon="8.5686045"><ele>96.0</ele><time>2026-03-29T08:46:50.181Z</time></trkpt><trkpt lat="44.896085" lon="8.5683783"><ele>96.0</ele><time>2026-03-29T08:46:51.181Z</time></trkpt><trkpt lat="44.896072" lon="8.5681517"><ele>96.0</ele><time>2026-03-29T08:46:52.183Z</time></trkpt><trkpt lat="44.8960597" lon="8.5679302"><ele>96.0</ele><time>2026-03-29T08:46:53.184Z</time></trkpt><trkpt lat="44.8960475" lon="8.567712"><ele>95.66666666666667</ele><time>2026-03-29T08:46:54.182Z</time></trkpt><trkpt lat="44.8960323" lon="8.5674862"><ele>95.33333333333334</ele><time>2026-03-29T08:46:55.184Z</time></trkpt><trkpt lat="44.8960153" lon="8.5672507"><ele>95.0</ele><time>2026-03-29T08:46:56.184Z</time></trkpt><trkpt lat="44.8960008" lon="8.5670095"><ele>95.0</ele><time>2026-03-29T08:46:57.184Z</time></trkpt><trkpt lat="44.8959882" lon="8.5667655"><ele>95.0</ele><time>2026-03-29T08:46:58.184Z</time></trkpt><trkpt lat="44.8959773" lon="8.5665212"><ele>95.0</ele><time>2026-03-29T08:46:59.184Z</time></trkpt><trkpt lat="44.8959662" lon="8.5662762"><ele>95.0</ele><time>2026-03-29T08:47:00.186Z</time></trkpt><trkpt lat="44.8959552" lon="8.5660263"><ele>95.0</ele><time>2026-03-29T08:47:01.183Z</time></trkpt><trkpt lat="44.8959433" lon="8.565765"><ele>95.0</ele><time>2026-03-29T08:47:02.182Z</time></trkpt><trkpt lat="44.8959285" lon="8.5654982"><ele>94.66666666666667</ele><time>2026-03-29T08:47:03.184Z</time></trkpt><trkpt lat="44.8959133" lon="8.5652457"><ele>94.33333333333333</ele><time>2026-03-29T08:47:04.183Z</time></trkpt><trkpt lat="44.895898" lon="8.5650113"><ele>94.0</ele><time>2026-03-29T08:47:05.183Z</time></trkpt><trkpt lat="44.8958832" lon="8.5647912"><ele>94.0</ele><time>2026-03-29T08:47:06.184Z</time></trkpt><trkpt lat="44.8958677" lon="8.5645868"><ele>94.0</ele><time>2026-03-29T08:47:07.186Z</time></trkpt><trkpt lat="44.8958538" lon="8.564395"><ele>94.0</ele><time>2026-03-29T08:47:08.184Z</time></trkpt><trkpt lat="44.8958407" lon="8.5642092"><ele>94.0</ele><time>2026-03-29T08:47:09.183Z</time></trkpt><trkpt lat="44.8958277" lon="8.564025"><ele>94.0</ele><time>2026-03-29T08:47:10.184Z</time></trkpt><trkpt lat="44.8958162" lon="8.5638477"><ele>94.0</ele><time>2026-03-29T08:47:11.184Z</time></trkpt><trkpt lat="44.8958078" lon="8.5636753"><ele>94.0</ele><time>2026-03-29T08:47:12.183Z</time></trkpt><trkpt lat="44.8957985" lon="8.5635042"><ele>94.0</ele><time>2026-03-29T08:47:13.183Z</time></trkpt><trkpt lat="44.8957888" lon="8.5633335"><ele>94.25</ele><time>2026-03-29T08:47:14.185Z</time></trkpt><trkpt lat="44.8957802" lon="8.5631625"><ele>94.5</ele><time>2026-03-29T08:47:15.185Z</time></trkpt><trkpt lat="44.8957702" lon="8.56299"><ele>94.75</ele><time>2026-03-29T08:47:16.185Z</time></trkpt><trkpt lat="44.8957607" lon="8.5628095"><ele>95.0</ele><time>2026-03-29T08:47:17.184Z</time></trkpt><trkpt lat="44.8957527" lon="8.5626073"><ele>95.0</ele><time>2026-03-29T08:47:18.184Z</time></trkpt><trkpt lat="44.8957435" lon="8.5623838"><ele>95.0</ele><time>2026-03-29T08:47:19.184Z</time></trkpt><trkpt lat="44.8957325" lon="8.5621498"><ele>95.0</ele><time>2026-03-29T08:47:20.183Z</time></trkpt><trkpt lat="44.8957195" lon="8.5619053"><ele>95.0</ele><time>2026-03-29T08:47:21.184Z</time></trkpt><trkpt lat="44.8957083" lon="8.5616753"><ele>95.0</ele><time>2026-03-29T08:47:22.186Z</time></trkpt><trkpt lat="44.8957015" lon="8.5614687"><ele>95.0</ele><time>2026-03-29T08:47:23.184Z</time></trkpt><trkpt lat="44.8956947" lon="8.5612733"><ele>95.0</ele><time>2026-03-29T08:47:24.184Z</time></trkpt><trkpt lat="44.8956845" lon="8.5610673"><ele>95.0</ele><time>2026-03-29T08:47:25.184Z</time></trkpt><trkpt lat="44.8956723" lon="8.5608452"><ele>95.0</ele><time>2026-03-29T08:47:26.183Z</time></trkpt><trkpt lat="44.8956605" lon="8.5606083"><ele>95.0</ele><time>2026-03-29T08:47:27.182Z</time></trkpt><trkpt lat="44.8956477" lon="8.5603845"><ele>95.25</ele><time>2026-03-29T08:47:28.183Z</time></trkpt><trkpt lat="44.8956362" lon="8.5601808"><ele>95.5</ele><time>2026-03-29T08:47:29.183Z</time></trkpt><trkpt lat="44.895626" lon="8.559995"><ele>95.75</ele><time>2026-03-29T08:47:30.185Z</time></trkpt><trkpt lat="44.895617" lon="8.5598142"><ele>96.0</ele><time>2026-03-29T08:47:31.185Z</time></trkpt><trkpt lat="44.8956088" lon="8.5596288"><ele>96.25</ele><time>2026-03-29T08:47:32.185Z</time></trkpt><trkpt lat="44.8956017" lon="8.5594443"><ele>96.5</ele><time>2026-03-29T08:47:33.184Z</time></trkpt><trkpt lat="44.895593" lon="8.5592593"><ele>96.75</ele><time>2026-03-29T08:47:34.185Z</time></trkpt><trkpt lat="44.8955823" lon="8.5590748"><ele>97.0</ele><time>2026-03-29T08:47:35.184Z</time></trkpt><trkpt lat="44.8955718" lon="8.5589033"><ele>97.0</ele><time>2026-03-29T08:47:36.184Z</time></trkpt><trkpt lat="44.8955627" lon="8.5587432"><ele>97.0</ele><time>2026-03-29T08:47:37.184Z</time></trkpt><trkpt lat="44.8955542" lon="8.5585855"><ele>97.0</ele><time>2026-03-29T08:47:38.185Z</time></trkpt><trkpt lat="44.8955472" lon="8.558429"><ele>97.0</ele><time>2026-03-29T08:47:39.185Z</time></trkpt><trkpt lat="44.8955397" lon="8.5582783"><ele>97.0</ele><time>2026-03-29T08:47:40.184Z</time></trkpt><trkpt lat="44.8955323" lon="8.5581447"><ele>96.83333333333334</ele><time>2026-03-29T08:47:41.184Z</time></trkpt><trkpt lat="44.895526" lon="8.5580253"><ele>96.66666666666667</ele><time>2026-03-29T08:47:42.185Z</time></trkpt><trkpt lat="44.8955207" lon="8.5579243"><ele>96.5</ele><time>2026-03-29T08:47:43.185Z</time></trkpt><trkpt lat="44.8955167" lon="8.5578027"><ele>96.33333333333334</ele><time>2026-03-29T08:47:45.184Z</time></trkpt><trkpt lat="44.8955123" lon="8.5577092"><ele>96.16666666666667</ele><time>2026-03-29T08:47:52.181Z</time></trkpt><trkpt lat="44.895505" lon="8.557591"><ele>96.0</ele><time>2026-03-29T08:47:54.182Z</time></trkpt><trkpt lat="44.8954962" lon="8.5574423"><ele>95.83333333333333</ele><time>2026-03-29T08:47:56.182Z</time></trkpt><trkpt lat="44.8954875" lon="8.5572857"><ele>95.66666666666667</ele><time>2026-03-29T08:47:58.184Z</time></trkpt><trkpt lat="44.8954845" lon="8.5571877"><ele>95.5</ele><time>2026-03-29T08:47:59.186Z</time></trkpt><trkpt lat="44.8954825" lon="8.5570862"><ele>95.33333333333334</ele><time>2026-03-29T08:48:00.185Z</time></trkpt><trkpt lat="44.895477" lon="8.5569837"><ele>95.16666666666667</ele><time>2026-03-29T08:48:01.186Z</time></trkpt><trkpt lat="44.8954682" lon="8.5568715"><ele>95.0</ele><time>2026-03-29T08:48:02.184Z</time></trkpt><trkpt lat="44.8954605" lon="8.5567615"><ele>95.0</ele><time>2026-03-29T08:48:03.184Z</time></trkpt><trkpt lat="44.8954552" lon="8.5566553"><ele>95.0</ele><time>2026-03-29T08:48:04.185Z</time></trkpt><trkpt lat="44.8954543" lon="8.5565382"><ele>95.0</ele><time>2026-03-29T08:48:05.183Z</time></trkpt><trkpt lat="44.8954632" lon="8.5564112"><ele>95.0</ele><time>2026-03-29T08:48:06.182Z</time></trkpt><trkpt lat="44.8954595" lon="8.5562718"><ele>95.0</ele><time>2026-03-29T08:48:07.182Z</time></trkpt><trkpt lat="44.895452" lon="8.556129"><ele>95.0</ele><time>2026-03-29T08:48:08.18Z</time></trkpt><trkpt lat="44.8954437" lon="8.5559928"><ele>95.0</ele><time>2026-03-29T08:48:09.181Z</time></trkpt><trkpt lat="44.8954308" lon="8.555864"><ele>95.0</ele><time>2026-03-29T08:48:10.183Z</time></trkpt><trkpt lat="44.8954137" lon="8.5557402"><ele>95.0</ele><time>2026-03-29T08:48:11.181Z</time></trkpt><trkpt lat="44.895394" lon="8.5556197"><ele>95.0</ele><time>2026-03-29T08:48:12.182Z</time></trkpt><trkpt lat="44.8953738" lon="8.555501"><ele>95.0</ele><time>2026-03-29T08:48:13.181Z</time></trkpt><trkpt lat="44.8953503" lon="8.555382"><ele>95.0</ele><time>2026-03-29T08:48:14.182Z</time></trkpt><trkpt lat="44.8953253" lon="8.555257"><ele>95.0</ele><time>2026-03-29T08:48:15.185Z</time></trkpt><trkpt lat="44.895297" lon="8.5551293"><ele>95.0</ele><time>2026-03-29T08:48:16.181Z</time></trkpt><trkpt lat="44.8952688" lon="8.5550008"><ele>95.0</ele><time>2026-03-29T08:48:17.18Z</time></trkpt><trkpt lat="44.8952385" lon="8.5548648"><ele>95.0</ele><time>2026-03-29T08:48:18.181Z</time></trkpt><trkpt lat="44.8952067" lon="8.5547238"><ele>95.0</ele><time>2026-03-29T08:48:19.184Z</time></trkpt><trkpt lat="44.895177" lon="8.5545822"><ele>95.0</ele><time>2026-03-29T08:48:20.186Z</time></trkpt><trkpt lat="44.8951412" lon="8.5544313"><ele>95.0</ele><time>2026-03-29T08:48:21.183Z</time></trkpt><trkpt lat="44.8951055" lon="8.5542647"><ele>95.0</ele><time>2026-03-29T08:48:22.184Z</time></trkpt><trkpt lat="44.8950755" lon="8.5540798"><ele>95.0</ele><time>2026-03-29T08:48:23.183Z</time></trkpt><trkpt lat="44.895041" lon="8.5538952"><ele>95.25</ele><time>2026-03-29T08:48:24.182Z</time></trkpt><trkpt lat="44.8950017" lon="8.5537132"><ele>95.5</ele><time>2026-03-29T08:48:25.184Z</time></trkpt><trkpt lat="44.8949617" lon="8.5535403"><ele>95.75</ele><time>2026-03-29T08:48:26.183Z</time></trkpt><trkpt lat="44.894923" lon="8.553371"><ele>96.0</ele><time>2026-03-29T08:48:27.184Z</time></trkpt><trkpt lat="44.8948853" lon="8.5531993"><ele>96.0</ele><time>2026-03-29T08:48:28.185Z</time></trkpt><trkpt lat="44.894847" lon="8.553026"><ele>96.0</ele><time>2026-03-29T08:48:29.184Z</time></trkpt><trkpt lat="44.8948093" lon="8.5528523"><ele>96.0</ele><time>2026-03-29T08:48:30.185Z</time></trkpt><trkpt lat="44.8947715" lon="8.552681"><ele>96.0</ele><time>2026-03-29T08:48:31.185Z</time></trkpt><trkpt lat="44.8947328" lon="8.5525073"><ele>95.75</ele><time>2026-03-29T08:48:32.185Z</time></trkpt><trkpt lat="44.8946923" lon="8.552328"><ele>95.5</ele><time>2026-03-29T08:48:33.184Z</time></trkpt><trkpt lat="44.8946512" lon="8.552142"><ele>95.25</ele><time>2026-03-29T08:48:34.184Z</time></trkpt><trkpt lat="44.8946088" lon="8.5519502"><ele>95.0</ele><time>2026-03-29T08:48:35.184Z</time></trkpt><trkpt lat="44.8945657" lon="8.551758"><ele>95.0</ele><time>2026-03-29T08:48:36.185Z</time></trkpt><trkpt lat="44.8945215" lon="8.5515663"><ele>95.0</ele><time>2026-03-29T08:48:37.185Z</time></trkpt><trkpt lat="44.8944735" lon="8.5513767"><ele>95.0</ele><time>2026-03-29T08:48:38.185Z</time></trkpt><trkpt lat="44.8944165" lon="8.551189"><ele>95.0</ele><time>2026-03-29T08:48:39.185Z</time></trkpt><trkpt lat="44.8943462" lon="8.5510025"><ele>95.0</ele><time>2026-03-29T08:48:40.182Z</time></trkpt><trkpt lat="44.8942612" lon="8.5508257"><ele>95.0</ele><time>2026-03-29T08:48:41.182Z</time></trkpt><trkpt lat="44.8941725" lon="8.5506553"><ele>95.0</ele><time>2026-03-29T08:48:42.182Z</time></trkpt><trkpt lat="44.8940825" lon="8.5504843"><ele>95.25</ele><time>2026-03-29T08:48:43.183Z</time></trkpt><trkpt lat="44.8939962" lon="8.5503207"><ele>95.5</ele><time>2026-03-29T08:48:44.185Z</time></trkpt><trkpt lat="44.8939092" lon="8.55016"><ele>95.75</ele><time>2026-03-29T08:48:45.185Z</time></trkpt><trkpt lat="44.8938192" lon="8.549996"><ele>96.0</ele><time>2026-03-29T08:48:46.185Z</time></trkpt><trkpt lat="44.893729" lon="8.549828"><ele>96.0</ele><time>2026-03-29T08:48:47.185Z</time></trkpt><trkpt lat="44.8936385" lon="8.5496595"><ele>96.0</ele><time>2026-03-29T08:48:48.185Z</time></trkpt><trkpt lat="44.8935462" lon="8.54949"><ele>96.0</ele><time>2026-03-29T08:48:49.186Z</time></trkpt><trkpt lat="44.8934508" lon="8.5493172"><ele>96.0</ele><time>2026-03-29T08:48:50.186Z</time></trkpt><trkpt lat="44.8933523" lon="8.5491378"><ele>96.0</ele><time>2026-03-29T08:48:51.185Z</time></trkpt><trkpt lat="44.8932512" lon="8.548952"><ele>96.0</ele><time>2026-03-29T08:48:52.186Z</time></trkpt><trkpt lat="44.8931473" lon="8.5487602"><ele>96.33333333333334</ele><time>2026-03-29T08:48:53.185Z</time></trkpt><trkpt lat="44.8930438" lon="8.5485667"><ele>96.66666666666667</ele><time>2026-03-29T08:48:54.184Z</time></trkpt><trkpt lat="44.8929407" lon="8.5483737"><ele>97.0</ele><time>2026-03-29T08:48:55.185Z</time></trkpt><trkpt lat="44.892835" lon="8.5481783"><ele>97.0</ele><time>2026-03-29T08:48:56.185Z</time></trkpt><trkpt lat="44.8927267" lon="8.5479798"><ele>97.0</ele><time>2026-03-29T08:48:57.185Z</time></trkpt><trkpt lat="44.892613" lon="8.547775"><ele>97.0</ele><time>2026-03-29T08:48:58.185Z</time></trkpt><trkpt lat="44.892487" lon="8.547557"><ele>97.0</ele><time>2026-03-29T08:48:59.186Z</time></trkpt><trkpt lat="44.8923492" lon="8.5473195"><ele>97.0</ele><time>2026-03-29T08:49:00.185Z</time></trkpt><trkpt lat="44.8922082" lon="8.5470645"><ele>97.0</ele><time>2026-03-29T08:49:01.187Z</time></trkpt><trkpt lat="44.8920617" lon="8.5467848"><ele>96.5</ele><time>2026-03-29T08:49:02.185Z</time></trkpt><trkpt lat="44.8919138" lon="8.5464952"><ele>96.0</ele><time>2026-03-29T08:49:03.186Z</time></trkpt><trkpt lat="44.8917643" lon="8.5462078"><ele>96.0</ele><time>2026-03-29T08:49:04.183Z</time></trkpt><trkpt lat="44.8916147" lon="8.545923"><ele>96.0</ele><time>2026-03-29T08:49:05.18Z</time></trkpt><trkpt lat="44.8914667" lon="8.5456418"><ele>96.0</ele><time>2026-03-29T08:49:06.182Z</time></trkpt><trkpt lat="44.8913223" lon="8.5453723"><ele>96.0</ele><time>2026-03-29T08:49:07.182Z</time></trkpt><trkpt lat="44.891186" lon="8.5451213"><ele>96.0</ele><time>2026-03-29T08:49:08.182Z</time></trkpt><trkpt lat="44.8910573" lon="8.544887"><ele>96.0</ele><time>2026-03-29T08:49:09.184Z</time></trkpt><trkpt lat="44.8909323" lon="8.5446578"><ele>96.0</ele><time>2026-03-29T08:49:10.185Z</time></trkpt><trkpt lat="44.8908053" lon="8.5444242"><ele>96.66666666666666</ele><time>2026-03-29T08:49:11.182Z</time></trkpt><trkpt lat="44.8906757" lon="8.5441863"><ele>97.33333333333333</ele><time>2026-03-29T08:49:12.182Z</time></trkpt><trkpt lat="44.8905453" lon="8.5439475"><ele>98.0</ele><time>2026-03-29T08:49:13.183Z</time></trkpt><trkpt lat="44.8904193" lon="8.5437138"><ele>98.33333333333333</ele><time>2026-03-29T08:49:14.183Z</time></trkpt><trkpt lat="44.8903032" lon="8.5434948"><ele>98.66666666666666</ele><time>2026-03-29T08:49:15.182Z</time></trkpt><trkpt lat="44.8901942" lon="8.5432903"><ele>99.0</ele><time>2026-03-29T08:49:16.181Z</time></trkpt><trkpt lat="44.8900893" lon="8.5430968"><ele>99.0</ele><time>2026-03-29T08:49:17.181Z</time></trkpt><trkpt lat="44.8899842" lon="8.5429027"><ele>99.0</ele><time>2026-03-29T08:49:18.182Z</time></trkpt><trkpt lat="44.8898803" lon="8.5427095"><ele>99.0</ele><time>2026-03-29T08:49:19.182Z</time></trkpt><trkpt lat="44.8897768" lon="8.5425175"><ele>99.0</ele><time>2026-03-29T08:49:20.183Z</time></trkpt><trkpt lat="44.8896735" lon="8.5423238"><ele>99.0</ele><time>2026-03-29T08:49:21.183Z</time></trkpt><trkpt lat="44.8895662" lon="8.5421218"><ele>99.0</ele><time>2026-03-29T08:49:22.182Z</time></trkpt><trkpt lat="44.8894518" lon="8.5419088"><ele>98.33333333333334</ele><time>2026-03-29T08:49:23.182Z</time></trkpt><trkpt lat="44.8893238" lon="8.5416788"><ele>97.66666666666667</ele><time>2026-03-29T08:49:24.184Z</time></trkpt><trkpt lat="44.8891818" lon="8.5414348"><ele>97.0</ele><time>2026-03-29T08:49:25.183Z</time></trkpt><trkpt lat="44.889029" lon="8.54117"><ele>97.0</ele><time>2026-03-29T08:49:26.182Z</time></trkpt><trkpt lat="44.8888702" lon="8.5408762"><ele>97.0</ele><time>2026-03-29T08:49:27.183Z</time></trkpt><trkpt lat="44.8887072" lon="8.5405635"><ele>96.5</ele><time>2026-03-29T08:49:28.182Z</time></trkpt><trkpt lat="44.8885443" lon="8.5402447"><ele>96.0</ele><time>2026-03-29T08:49:29.181Z</time></trkpt><trkpt lat="44.8883812" lon="8.5399293"><ele>96.0</ele><time>2026-03-29T08:49:30.182Z</time></trkpt><trkpt lat="44.8882215" lon="8.5396308"><ele>96.0</ele><time>2026-03-29T08:49:31.181Z</time></trkpt><trkpt lat="44.8880703" lon="8.5393522"><ele>96.5</ele><time>2026-03-29T08:49:32.182Z</time></trkpt><trkpt lat="44.8879253" lon="8.5390853"><ele>97.0</ele><time>2026-03-29T08:49:33.184Z</time></trkpt><trkpt lat="44.8877815" lon="8.5388223"><ele>97.33333333333334</ele><time>2026-03-29T08:49:34.183Z</time></trkpt><trkpt lat="44.8876403" lon="8.5385672"><ele>97.66666666666666</ele><time>2026-03-29T08:49:35.182Z</time></trkpt><trkpt lat="44.8875065" lon="8.5383288"><ele>98.0</ele><time>2026-03-29T08:49:36.182Z</time></trkpt><trkpt lat="44.8873815" lon="8.5381048"><ele>98.33333333333333</ele><time>2026-03-29T08:49:37.181Z</time></trkpt><trkpt lat="44.8872665" lon="8.5378928"><ele>98.66666666666666</ele><time>2026-03-29T08:49:38.188Z</time></trkpt><trkpt lat="44.8871607" lon="8.5376892"><ele>99.0</ele><time>2026-03-29T08:49:39.182Z</time></trkpt><trkpt lat="44.8870665" lon="8.537481"><ele>99.0</ele><time>2026-03-29T08:49:40.185Z</time></trkpt><trkpt lat="44.886991" lon="8.537263"><ele>99.0</ele><time>2026-03-29T08:49:41.185Z</time></trkpt><trkpt lat="44.8869398" lon="8.5370323"><ele>99.0</ele><time>2026-03-29T08:49:42.183Z</time></trkpt><trkpt lat="44.8869125" lon="8.5368028"><ele>99.0</ele><time>2026-03-29T08:49:43.182Z</time></trkpt><trkpt lat="44.8868958" lon="8.5365932"><ele>99.0</ele><time>2026-03-29T08:49:44.183Z</time></trkpt><trkpt lat="44.8868827" lon="8.5364023"><ele>99.0</ele><time>2026-03-29T08:49:45.182Z</time></trkpt><trkpt lat="44.8868688" lon="8.5362033"><ele>99.0</ele><time>2026-03-29T08:49:46.182Z</time></trkpt><trkpt lat="44.8868548" lon="8.5359843"><ele>99.0</ele><time>2026-03-29T08:49:47.181Z</time></trkpt><trkpt lat="44.886841" lon="8.5357537"><ele>99.0</ele><time>2026-03-29T08:49:48.181Z</time></trkpt><trkpt lat="44.8868287" lon="8.5355143"><ele>99.0</ele><time>2026-03-29T08:49:49.183Z</time></trkpt><trkpt lat="44.886818" lon="8.5352668"><ele>98.66666666666666</ele><time>2026-03-29T08:49:50.181Z</time></trkpt><trkpt lat="44.8868047" lon="8.5350363"><ele>98.33333333333333</ele><time>2026-03-29T08:49:51.184Z</time></trkpt><trkpt lat="44.886786" lon="8.534806"><ele>98.0</ele><time>2026-03-29T08:49:52.181Z</time></trkpt><trkpt lat="44.8867578" lon="8.5345752"><ele>98.66666666666666</ele><time>2026-03-29T08:49:53.178Z</time></trkpt><trkpt lat="44.8867247" lon="8.5343493"><ele>99.33333333333334</ele><time>2026-03-29T08:49:54.179Z</time></trkpt><trkpt lat="44.8866887" lon="8.5341292"><ele>100.0</ele><time>2026-03-29T08:49:55.179Z</time></trkpt><trkpt lat="44.886657" lon="8.5339143"><ele>100.0</ele><time>2026-03-29T08:49:56.179Z</time></trkpt><trkpt lat="44.8866353" lon="8.5336983"><ele>100.0</ele><time>2026-03-29T08:49:57.181Z</time></trkpt><trkpt lat="44.8866267" lon="8.533471"><ele>100.0</ele><time>2026-03-29T08:49:58.181Z</time></trkpt><trkpt lat="44.8866292" lon="8.533246"><ele>100.0</ele><time>2026-03-29T08:49:59.181Z</time></trkpt><trkpt lat="44.8866305" lon="8.5330347"><ele>100.0</ele><time>2026-03-29T08:50:00.181Z</time></trkpt><trkpt lat="44.8866245" lon="8.5328213"><ele>100.0</ele><time>2026-03-29T08:50:01.181Z</time></trkpt><trkpt lat="44.8866113" lon="8.5326072"><ele>100.25</ele><time>2026-03-29T08:50:02.183Z</time></trkpt><trkpt lat="44.8865982" lon="8.532404"><ele>100.5</ele><time>2026-03-29T08:50:03.181Z</time></trkpt><trkpt lat="44.886578" lon="8.5322192"><ele>100.75</ele><time>2026-03-29T08:50:04.181Z</time></trkpt><trkpt lat="44.8865412" lon="8.5320465"><ele>101.0</ele><time>2026-03-29T08:50:05.18Z</time></trkpt><trkpt lat="44.8864848" lon="8.5318733"><ele>101.0</ele><time>2026-03-29T08:50:06.18Z</time></trkpt><trkpt lat="44.8864158" lon="8.5316957"><ele>101.0</ele><time>2026-03-29T08:50:07.179Z</time></trkpt><trkpt lat="44.8863455" lon="8.5315092"><ele>101.0</ele><time>2026-03-29T08:50:08.179Z</time></trkpt><trkpt lat="44.8862747" lon="8.5313225"><ele>101.0</ele><time>2026-03-29T08:50:09.181Z</time></trkpt><trkpt lat="44.886203" lon="8.5311488"><ele>101.0</ele><time>2026-03-29T08:50:10.18Z</time></trkpt><trkpt lat="44.8861328" lon="8.5309763"><ele>101.0</ele><time>2026-03-29T08:50:11.18Z</time></trkpt><trkpt lat="44.8860607" lon="8.5307985"><ele>101.0</ele><time>2026-03-29T08:50:12.18Z</time></trkpt><trkpt lat="44.8859858" lon="8.5306032"><ele>101.0</ele><time>2026-03-29T08:50:13.18Z</time></trkpt><trkpt lat="44.8859138" lon="8.5303938"><ele>100.66666666666666</ele><time>2026-03-29T08:50:14.181Z</time></trkpt><trkpt lat="44.885849" lon="8.5301847"><ele>100.33333333333334</ele><time>2026-03-29T08:50:15.182Z</time></trkpt><trkpt lat="44.8857888" lon="8.5299888"><ele>100.0</ele><time>2026-03-29T08:50:16.184Z</time></trkpt><trkpt lat="44.8857333" lon="8.5298075"><ele>100.0</ele><time>2026-03-29T08:50:17.182Z</time></trkpt><trkpt lat="44.8856823" lon="8.5296372"><ele>100.0</ele><time>2026-03-29T08:50:18.181Z</time></trkpt><trkpt lat="44.8856347" lon="8.5294752"><ele>100.0</ele><time>2026-03-29T08:50:19.181Z</time></trkpt><trkpt lat="44.8855907" lon="8.5293185"><ele>100.0</ele><time>2026-03-29T08:50:20.183Z</time></trkpt><trkpt lat="44.885547" lon="8.5291595"><ele>100.0</ele><time>2026-03-29T08:50:21.181Z</time></trkpt><trkpt lat="44.885488" lon="8.5289945"><ele>100.0</ele><time>2026-03-29T08:50:22.183Z</time></trkpt><trkpt lat="44.8853962" lon="8.5288262"><ele>100.0</ele><time>2026-03-29T08:50:23.183Z</time></trkpt><trkpt lat="44.8852702" lon="8.528651"><ele>100.0</ele><time>2026-03-29T08:50:24.182Z</time></trkpt><trkpt lat="44.8851315" lon="8.528464"><ele>100.0</ele><time>2026-03-29T08:50:25.181Z</time></trkpt><trkpt lat="44.8849812" lon="8.5282698"><ele>100.0</ele><time>2026-03-29T08:50:26.184Z</time></trkpt><trkpt lat="44.8848412" lon="8.5280912"><ele>100.33333333333334</ele><time>2026-03-29T08:50:27.184Z</time></trkpt><trkpt lat="44.8847128" lon="8.5279255"><ele>100.66666666666666</ele><time>2026-03-29T08:50:28.183Z</time></trkpt><trkpt lat="44.884592" lon="8.5277598"><ele>101.0</ele><time>2026-03-29T08:50:29.183Z</time></trkpt><trkpt lat="44.884477" lon="8.5275665"><ele>101.0</ele><time>2026-03-29T08:50:30.183Z</time></trkpt><trkpt lat="44.8843668" lon="8.5273323"><ele>101.0</ele><time>2026-03-29T08:50:31.182Z</time></trkpt><trkpt lat="44.8842662" lon="8.5270715"><ele>101.0</ele><time>2026-03-29T08:50:32.185Z</time></trkpt><trkpt lat="44.8841785" lon="8.5267933"><ele>101.0</ele><time>2026-03-29T08:50:33.184Z</time></trkpt><trkpt lat="44.8841072" lon="8.5264895"><ele>101.0</ele><time>2026-03-29T08:50:34.183Z</time></trkpt><trkpt lat="44.8840572" lon="8.5261748"><ele>101.0</ele><time>2026-03-29T08:50:35.183Z</time></trkpt><trkpt lat="44.8840187" lon="8.5258773"><ele>101.0</ele><time>2026-03-29T08:50:36.182Z</time></trkpt><trkpt lat="44.8839667" lon="8.5255922"><ele>101.0</ele><time>2026-03-29T08:50:37.184Z</time></trkpt><trkpt lat="44.8838943" lon="8.525306"><ele>101.0</ele><time>2026-03-29T08:50:38.182Z</time></trkpt><trkpt lat="44.883802" lon="8.525015"><ele>101.0</ele><time>2026-03-29T08:50:39.182Z</time></trkpt><trkpt lat="44.8836952" lon="8.524717"><ele>101.0</ele><time>2026-03-29T08:50:40.182Z</time></trkpt><trkpt lat="44.88358" lon="8.5244142"><ele>101.0</ele><time>2026-03-29T08:50:41.181Z</time></trkpt><trkpt lat="44.8834588" lon="8.5241063"><ele>101.0</ele><time>2026-03-29T08:50:42.182Z</time></trkpt><trkpt lat="44.8833337" lon="8.5237933"><ele>101.0</ele><time>2026-03-29T08:50:43.181Z</time></trkpt><trkpt lat="44.8832063" lon="8.5234785"><ele>100.5</ele><time>2026-03-29T08:50:44.181Z</time></trkpt><trkpt lat="44.8830788" lon="8.5231633"><ele>100.0</ele><time>2026-03-29T08:50:45.183Z</time></trkpt><trkpt lat="44.8829517" lon="8.5228498"><ele>100.0</ele><time>2026-03-29T08:50:46.184Z</time></trkpt><trkpt lat="44.8828225" lon="8.5225445"><ele>100.0</ele><time>2026-03-29T08:50:47.183Z</time></trkpt><trkpt lat="44.882687" lon="8.5222512"><ele>100.5</ele><time>2026-03-29T08:50:48.184Z</time></trkpt><trkpt lat="44.8825403" lon="8.5219718"><ele>101.0</ele><time>2026-03-29T08:50:49.184Z</time></trkpt><trkpt lat="44.882383" lon="8.5217053"><ele>101.0</ele><time>2026-03-29T08:50:50.182Z</time></trkpt><trkpt lat="44.8822162" lon="8.5214528"><ele>101.0</ele><time>2026-03-29T08:50:51.183Z</time></trkpt><trkpt lat="44.8820423" lon="8.5212087"><ele>101.0</ele><time>2026-03-29T08:50:52.184Z</time></trkpt><trkpt lat="44.8818628" lon="8.5209673"><ele>101.0</ele><time>2026-03-29T08:50:53.183Z</time></trkpt><trkpt lat="44.8816795" lon="8.5207278"><ele>101.5</ele><time>2026-03-29T08:50:54.184Z</time></trkpt><trkpt lat="44.881492" lon="8.5204915"><ele>102.0</ele><time>2026-03-29T08:50:55.184Z</time></trkpt><trkpt lat="44.8813017" lon="8.5202563"><ele>102.0</ele><time>2026-03-29T08:50:56.184Z</time></trkpt><trkpt lat="44.8811102" lon="8.5200213"><ele>102.0</ele><time>2026-03-29T08:50:57.184Z</time></trkpt><trkpt lat="44.8809173" lon="8.5197875"><ele>101.0</ele><time>2026-03-29T08:50:58.183Z</time></trkpt><trkpt lat="44.880725" lon="8.5195525"><ele>100.0</ele><time>2026-03-29T08:50:59.184Z</time></trkpt><trkpt lat="44.8805325" lon="8.5193157"><ele>100.0</ele><time>2026-03-29T08:51:00.185Z</time></trkpt><trkpt lat="44.8803398" lon="8.5190778"><ele>100.0</ele><time>2026-03-29T08:51:01.184Z</time></trkpt><trkpt lat="44.8801453" lon="8.5188438"><ele>101.5</ele><time>2026-03-29T08:51:02.184Z</time></trkpt><trkpt lat="44.8799467" lon="8.518616"><ele>103.0</ele><time>2026-03-29T08:51:03.184Z</time></trkpt><trkpt lat="44.879741" lon="8.5183985"><ele>103.0</ele><time>2026-03-29T08:51:04.184Z</time></trkpt><trkpt lat="44.8795277" lon="8.5181937"><ele>103.0</ele><time>2026-03-29T08:51:05.184Z</time></trkpt><trkpt lat="44.8793078" lon="8.5180045"><ele>103.0</ele><time>2026-03-29T08:51:06.182Z</time></trkpt><trkpt lat="44.8790813" lon="8.517831"><ele>103.0</ele><time>2026-03-29T08:51:07.181Z</time></trkpt><trkpt lat="44.8788475" lon="8.5176733"><ele>103.0</ele><time>2026-03-29T08:51:08.181Z</time></trkpt><trkpt lat="44.8786075" lon="8.5175272"><ele>103.0</ele><time>2026-03-29T08:51:09.181Z</time></trkpt><trkpt lat="44.8783633" lon="8.5173865"><ele>103.0</ele><time>2026-03-29T08:51:10.185Z</time></trkpt><trkpt lat="44.878118" lon="8.5172458"><ele>103.0</ele><time>2026-03-29T08:51:11.183Z</time></trkpt><trkpt lat="44.8778738" lon="8.517101"><ele>103.0</ele><time>2026-03-29T08:51:12.184Z</time></trkpt><trkpt lat="44.8776335" lon="8.516945"><ele>103.0</ele><time>2026-03-29T08:51:13.183Z</time></trkpt><trkpt lat="44.8774018" lon="8.5167702"><ele>103.5</ele><time>2026-03-29T08:51:14.183Z</time></trkpt><trkpt lat="44.8771865" lon="8.5165675"><ele>104.0</ele><time>2026-03-29T08:51:15.185Z</time></trkpt><trkpt lat="44.8769885" lon="8.5163345"><ele>104.0</ele><time>2026-03-29T08:51:16.186Z</time></trkpt><trkpt lat="44.8768063" lon="8.5160737"><ele>104.0</ele><time>2026-03-29T08:51:17.184Z</time></trkpt><trkpt lat="44.8766365" lon="8.5157905"><ele>104.0</ele><time>2026-03-29T08:51:18.184Z</time></trkpt><trkpt lat="44.8764725" lon="8.5154953"><ele>104.0</ele><time>2026-03-29T08:51:19.183Z</time></trkpt><trkpt lat="44.8763065" lon="8.5151972"><ele>104.0</ele><time>2026-03-29T08:51:20.183Z</time></trkpt><trkpt lat="44.8761393" lon="8.5148973"><ele>104.0</ele><time>2026-03-29T08:51:21.181Z</time></trkpt><trkpt lat="44.875972" lon="8.5145977"><ele>105.0</ele><time>2026-03-29T08:51:22.182Z</time></trkpt><trkpt lat="44.8758057" lon="8.5142987"><ele>106.0</ele><time>2026-03-29T08:51:23.182Z</time></trkpt><trkpt lat="44.8756398" lon="8.5139993"><ele>105.5</ele><time>2026-03-29T08:51:24.182Z</time></trkpt><trkpt lat="44.8754747" lon="8.5136998"><ele>105.0</ele><time>2026-03-29T08:51:25.182Z</time></trkpt><trkpt lat="44.8753103" lon="8.5134002"><ele>105.0</ele><time>2026-03-29T08:51:26.183Z</time></trkpt><trkpt lat="44.8751458" lon="8.5131017"><ele>105.0</ele><time>2026-03-29T08:51:27.182Z</time></trkpt><trkpt lat="44.8749815" lon="8.5128042"><ele>104.0</ele><time>2026-03-29T08:51:28.184Z</time></trkpt><trkpt lat="44.874818" lon="8.5125087"><ele>103.0</ele><time>2026-03-29T08:51:29.181Z</time></trkpt><trkpt lat="44.874658" lon="8.5122208"><ele>103.5</ele><time>2026-03-29T08:51:30.183Z</time></trkpt><trkpt lat="44.8745018" lon="8.511941"><ele>104.0</ele><time>2026-03-29T08:51:31.18Z</time></trkpt><trkpt lat="44.874349" lon="8.5116683"><ele>104.0</ele><time>2026-03-29T08:51:32.18Z</time></trkpt><trkpt lat="44.8742008" lon="8.511402"><ele>104.0</ele><time>2026-03-29T08:51:33.18Z</time></trkpt><trkpt lat="44.8740572" lon="8.5111412"><ele>104.0</ele><time>2026-03-29T08:51:34.181Z</time></trkpt><trkpt lat="44.873918" lon="8.510884"><ele>104.0</ele><time>2026-03-29T08:51:35.182Z</time></trkpt><trkpt lat="44.8737838" lon="8.5106283"><ele>103.0</ele><time>2026-03-29T08:51:36.184Z</time></trkpt><trkpt lat="44.8736558" lon="8.5103677"><ele>102.0</ele><time>2026-03-29T08:51:37.183Z</time></trkpt><trkpt lat="44.873532" lon="8.510096"><ele>103.0</ele><time>2026-03-29T08:51:38.183Z</time></trkpt><trkpt lat="44.8734122" lon="8.5098102"><ele>104.0</ele><time>2026-03-29T08:51:39.184Z</time></trkpt><trkpt lat="44.8732982" lon="8.5095088"><ele>102.0</ele><time>2026-03-29T08:51:40.184Z</time></trkpt><trkpt lat="44.8731923" lon="8.509194"><ele>100.0</ele><time>2026-03-29T08:51:41.184Z</time></trkpt><trkpt lat="44.8730928" lon="8.5088677"><ele>98.5</ele><time>2026-03-29T08:51:42.186Z</time></trkpt><trkpt lat="44.8729967" lon="8.5085313"><ele>97.0</ele><time>2026-03-29T08:51:43.183Z</time></trkpt><trkpt lat="44.8729025" lon="8.5081897"><ele>97.0</ele><time>2026-03-29T08:51:44.183Z</time></trkpt><trkpt lat="44.8728082" lon="8.5078458"><ele>97.0</ele><time>2026-03-29T08:51:45.184Z</time></trkpt><trkpt lat="44.8727147" lon="8.5074993"><ele>97.0</ele><time>2026-03-29T08:51:46.187Z</time></trkpt><trkpt lat="44.8726228" lon="8.507151"><ele>97.0</ele><time>2026-03-29T08:51:47.186Z</time></trkpt><trkpt lat="44.8725337" lon="8.5068008"><ele>97.0</ele><time>2026-03-29T08:51:48.183Z</time></trkpt><trkpt lat="44.8724468" lon="8.5064507"><ele>97.0</ele><time>2026-03-29T08:51:49.183Z</time></trkpt><trkpt lat="44.8723598" lon="8.5061017"><ele>98.0</ele><time>2026-03-29T08:51:50.186Z</time></trkpt><trkpt lat="44.8722653" lon="8.5057582"><ele>99.0</ele><time>2026-03-29T08:51:51.182Z</time></trkpt><trkpt lat="44.8721513" lon="8.5054275"><ele>100.0</ele><time>2026-03-29T08:51:52.183Z</time></trkpt><trkpt lat="44.8720157" lon="8.5051127"><ele>101.0</ele><time>2026-03-29T08:51:53.183Z</time></trkpt><trkpt lat="44.8718577" lon="8.504818"><ele>99.0</ele><time>2026-03-29T08:51:54.185Z</time></trkpt><trkpt lat="44.8716778" lon="8.5045513"><ele>97.0</ele><time>2026-03-29T08:51:55.182Z</time></trkpt><trkpt lat="44.8714875" lon="8.5043302"><ele>97.0</ele><time>2026-03-29T08:51:56.182Z</time></trkpt><trkpt lat="44.8712852" lon="8.5041478"><ele>97.0</ele><time>2026-03-29T08:51:57.181Z</time></trkpt><trkpt lat="44.8710633" lon="8.5039923"><ele>96.5</ele><time>2026-03-29T08:51:58.181Z</time></trkpt><trkpt lat="44.8708328" lon="8.503852"><ele>96.0</ele><time>2026-03-29T08:51:59.184Z</time></trkpt><trkpt lat="44.87062" lon="8.5037302"><ele>95.66666666666667</ele><time>2026-03-29T08:52:00.184Z</time></trkpt><trkpt lat="44.8704135" lon="8.5036263"><ele>95.33333333333334</ele><time>2026-03-29T08:52:01.187Z</time></trkpt><trkpt lat="44.8701972" lon="8.5035197"><ele>95.0</ele><time>2026-03-29T08:52:02.184Z</time></trkpt><trkpt lat="44.869967" lon="8.5033937"><ele>96.5</ele><time>2026-03-29T08:52:03.184Z</time></trkpt><trkpt lat="44.8697268" lon="8.5032478"><ele>98.0</ele><time>2026-03-29T08:52:04.184Z</time></trkpt><trkpt lat="44.8694812" lon="8.5030937"><ele>98.5</ele><time>2026-03-29T08:52:05.184Z</time></trkpt><trkpt lat="44.869226" lon="8.5029455"><ele>99.0</ele><time>2026-03-29T08:52:06.185Z</time></trkpt><trkpt lat="44.8689657" lon="8.5028048"><ele>99.5</ele><time>2026-03-29T08:52:07.188Z</time></trkpt><trkpt lat="44.8687022" lon="8.502676"><ele>100.0</ele><time>2026-03-29T08:52:08.184Z</time></trkpt><trkpt lat="44.8684363" lon="8.5025592"><ele>100.0</ele><time>2026-03-29T08:52:09.185Z</time></trkpt><trkpt lat="44.8681698" lon="8.5024492"><ele>100.0</ele><time>2026-03-29T08:52:10.184Z</time></trkpt><trkpt lat="44.8679035" lon="8.5023413"><ele>100.0</ele><time>2026-03-29T08:52:11.183Z</time></trkpt><trkpt lat="44.8676385" lon="8.5022337"><ele>100.0</ele><time>2026-03-29T08:52:12.184Z</time></trkpt><trkpt lat="44.8673748" lon="8.5021257"><ele>99.0</ele><time>2026-03-29T08:52:13.184Z</time></trkpt><trkpt lat="44.8671143" lon="8.5020197"><ele>98.0</ele><time>2026-03-29T08:52:14.185Z</time></trkpt><trkpt lat="44.8668593" lon="8.5019147"><ele>98.0</ele><time>2026-03-29T08:52:15.187Z</time></trkpt><trkpt lat="44.8666178" lon="8.5018118"><ele>98.0</ele><time>2026-03-29T08:52:16.186Z</time></trkpt><trkpt lat="44.8663855" lon="8.501704"><ele>98.0</ele><time>2026-03-29T08:52:17.183Z</time></trkpt><trkpt lat="44.8661562" lon="8.5015808"><ele>98.0</ele><time>2026-03-29T08:52:18.183Z</time></trkpt><trkpt lat="44.865929" lon="8.5014442"><ele>99.0</ele><time>2026-03-29T08:52:19.184Z</time></trkpt><trkpt lat="44.8657023" lon="8.501301"><ele>100.0</ele><time>2026-03-29T08:52:20.181Z</time></trkpt><trkpt lat="44.865476" lon="8.5011538"><ele>100.0</ele><time>2026-03-29T08:52:21.182Z</time></trkpt><trkpt lat="44.8652497" lon="8.5010032"><ele>100.0</ele><time>2026-03-29T08:52:22.181Z</time></trkpt><trkpt lat="44.865023" lon="8.5008513"><ele>99.5</ele><time>2026-03-29T08:52:23.181Z</time></trkpt><trkpt lat="44.8647968" lon="8.5007003"><ele>99.0</ele><time>2026-03-29T08:52:24.182Z</time></trkpt><trkpt lat="44.8645745" lon="8.5005512"><ele>99.0</ele><time>2026-03-29T08:52:25.184Z</time></trkpt><trkpt lat="44.8643572" lon="8.500404"><ele>99.0</ele><time>2026-03-29T08:52:26.183Z</time></trkpt><trkpt lat="44.8641453" lon="8.5002605"><ele>99.5</ele><time>2026-03-29T08:52:27.183Z</time></trkpt><trkpt lat="44.8639372" lon="8.5001203"><ele>100.0</ele><time>2026-03-29T08:52:28.184Z</time></trkpt><trkpt lat="44.8637307" lon="8.499983"><ele>100.0</ele><time>2026-03-29T08:52:29.184Z</time></trkpt><trkpt lat="44.8635228" lon="8.4998453"><ele>100.0</ele><time>2026-03-29T08:52:30.183Z</time></trkpt><trkpt lat="44.8633173" lon="8.4997093"><ele>100.0</ele><time>2026-03-29T08:52:31.185Z</time></trkpt><trkpt lat="44.8631233" lon="8.4995845"><ele>100.0</ele><time>2026-03-29T08:52:32.182Z</time></trkpt><trkpt lat="44.8629355" lon="8.4994675"><ele>100.0</ele><time>2026-03-29T08:52:33.183Z</time></trkpt><trkpt lat="44.8627482" lon="8.4993545"><ele>99.66666666666667</ele><time>2026-03-29T08:52:34.185Z</time></trkpt><trkpt lat="44.8625767" lon="8.4992533"><ele>99.33333333333334</ele><time>2026-03-29T08:52:35.182Z</time></trkpt><trkpt lat="44.8624245" lon="8.4991625"><ele>99.0</ele><time>2026-03-29T08:52:36.183Z</time></trkpt><trkpt lat="44.8622978" lon="8.499085"><ele>99.0</ele><time>2026-03-29T08:52:37.183Z</time></trkpt><trkpt lat="44.862175" lon="8.4990088"><ele>99.0</ele><time>2026-03-29T08:52:38.183Z</time></trkpt><trkpt lat="44.8620327" lon="8.49892"><ele>99.0</ele><time>2026-03-29T08:52:39.183Z</time></trkpt><trkpt lat="44.8618755" lon="8.498818"><ele>100.0</ele><time>2026-03-29T08:52:40.185Z</time></trkpt><trkpt lat="44.861714" lon="8.4987007"><ele>101.0</ele><time>2026-03-29T08:52:41.183Z</time></trkpt><trkpt lat="44.8615508" lon="8.4985597"><ele>102.0</ele><time>2026-03-29T08:52:42.182Z</time></trkpt><trkpt lat="44.861399" lon="8.4983933"><ele>102.0</ele><time>2026-03-29T08:52:43.183Z</time></trkpt><trkpt lat="44.8612745" lon="8.498208"><ele>102.0</ele><time>2026-03-29T08:52:44.182Z</time></trkpt><trkpt lat="44.8611753" lon="8.4979972"><ele>102.0</ele><time>2026-03-29T08:52:45.18Z</time></trkpt><trkpt lat="44.8610915" lon="8.4977572"><ele>101.66666666666666</ele><time>2026-03-29T08:52:46.181Z</time></trkpt><trkpt lat="44.8610045" lon="8.4974923"><ele>101.33333333333333</ele><time>2026-03-29T08:52:47.18Z</time></trkpt><trkpt lat="44.860921" lon="8.4972337"><ele>101.0</ele><time>2026-03-29T08:52:48.182Z</time></trkpt><trkpt lat="44.860845" lon="8.496993"><ele>100.66666666666666</ele><time>2026-03-29T08:52:49.183Z</time></trkpt><trkpt lat="44.8607788" lon="8.4967665"><ele>100.33333333333334</ele><time>2026-03-29T08:52:50.183Z</time></trkpt><trkpt lat="44.860721" lon="8.4965448"><ele>100.0</ele><time>2026-03-29T08:52:51.183Z</time></trkpt><trkpt lat="44.8606583" lon="8.4963237"><ele>99.66666666666667</ele><time>2026-03-29T08:52:52.184Z</time></trkpt><trkpt lat="44.86058" lon="8.4961087"><ele>99.33333333333334</ele><time>2026-03-29T08:52:53.183Z</time></trkpt><trkpt lat="44.8604852" lon="8.495909"><ele>99.0</ele><time>2026-03-29T08:52:54.183Z</time></trkpt><trkpt lat="44.8603885" lon="8.4957342"><ele>99.0</ele><time>2026-03-29T08:52:55.184Z</time></trkpt><trkpt lat="44.8602982" lon="8.4955742"><ele>99.0</ele><time>2026-03-29T08:52:56.184Z</time></trkpt><trkpt lat="44.8602162" lon="8.4954362"><ele>99.0</ele><time>2026-03-29T08:52:57.184Z</time></trkpt><trkpt lat="44.8601448" lon="8.4953148"><ele>99.0</ele><time>2026-03-29T08:52:58.184Z</time></trkpt><trkpt lat="44.8600872" lon="8.4951962"><ele>99.80000000000001</ele><time>2026-03-29T08:52:59.182Z</time></trkpt><trkpt lat="44.8600518" lon="8.4950687"><ele>100.60000000000001</ele><time>2026-03-29T08:53:00.184Z</time></trkpt><trkpt lat="44.8600515" lon="8.4949343"><ele>101.4</ele><time>2026-03-29T08:53:01.183Z</time></trkpt><trkpt lat="44.8600868" lon="8.4947915"><ele>102.2</ele><time>2026-03-29T08:53:02.183Z</time></trkpt><trkpt lat="44.8601418" lon="8.4946352"><ele>103.0</ele><time>2026-03-29T08:53:03.183Z</time></trkpt><trkpt lat="44.8602038" lon="8.4944697"><ele>103.0</ele><time>2026-03-29T08:53:04.183Z</time></trkpt><trkpt lat="44.8602682" lon="8.4943"><ele>103.0</ele><time>2026-03-29T08:53:05.181Z</time></trkpt><trkpt lat="44.8603318" lon="8.4941322"><ele>103.0</ele><time>2026-03-29T08:53:06.179Z</time></trkpt><trkpt lat="44.860395" lon="8.4939677"><ele>103.0</ele><time>2026-03-29T08:53:07.182Z</time></trkpt><trkpt lat="44.8604587" lon="8.4938077"><ele>102.80000000000001</ele><time>2026-03-29T08:53:08.181Z</time></trkpt><trkpt lat="44.8605195" lon="8.4936512"><ele>102.6</ele><time>2026-03-29T08:53:09.181Z</time></trkpt><trkpt lat="44.8605762" lon="8.4935052"><ele>102.4</ele><time>2026-03-29T08:53:10.183Z</time></trkpt><trkpt lat="44.8606237" lon="8.4933808"><ele>102.19999999999999</ele><time>2026-03-29T08:53:11.181Z</time></trkpt><trkpt lat="44.8606693" lon="8.4932707"><ele>102.0</ele><time>2026-03-29T08:53:12.181Z</time></trkpt><trkpt lat="44.8607187" lon="8.4931545"><ele>102.0</ele><time>2026-03-29T08:53:13.183Z</time></trkpt><trkpt lat="44.860786" lon="8.4930272"><ele>102.0</ele><time>2026-03-29T08:53:14.183Z</time></trkpt><trkpt lat="44.8608797" lon="8.4928898"><ele>102.0</ele><time>2026-03-29T08:53:15.184Z</time></trkpt><trkpt lat="44.86099" lon="8.4927455"><ele>102.0</ele><time>2026-03-29T08:53:16.186Z</time></trkpt><trkpt lat="44.8611045" lon="8.4926048"><ele>100.33333333333334</ele><time>2026-03-29T08:53:17.184Z</time></trkpt><trkpt lat="44.8612278" lon="8.4924525"><ele>98.66666666666667</ele><time>2026-03-29T08:53:18.184Z</time></trkpt><trkpt lat="44.8613522" lon="8.4922947"><ele>97.0</ele><time>2026-03-29T08:53:19.186Z</time></trkpt><trkpt lat="44.8614797" lon="8.4921355"><ele>98.0</ele><time>2026-03-29T08:53:20.184Z</time></trkpt><trkpt lat="44.8616053" lon="8.4919818"><ele>99.0</ele><time>2026-03-29T08:53:21.186Z</time></trkpt><trkpt lat="44.8617328" lon="8.4918257"><ele>100.0</ele><time>2026-03-29T08:53:22.183Z</time></trkpt><trkpt lat="44.8618593" lon="8.4916695"><ele>100.0</ele><time>2026-03-29T08:53:23.184Z</time></trkpt><trkpt lat="44.8619838" lon="8.4915163"><ele>100.0</ele><time>2026-03-29T08:53:24.184Z</time></trkpt><trkpt lat="44.8621072" lon="8.4913667"><ele>100.0</ele><time>2026-03-29T08:53:25.19Z</time></trkpt><trkpt lat="44.862231" lon="8.4912178"><ele>100.66666666666667</ele><time>2026-03-29T08:53:26.186Z</time></trkpt><trkpt lat="44.862356" lon="8.4910663"><ele>101.33333333333334</ele><time>2026-03-29T08:53:27.184Z</time></trkpt><trkpt lat="44.8624817" lon="8.490914"><ele>102.0</ele><time>2026-03-29T08:53:28.185Z</time></trkpt><trkpt lat="44.8626037" lon="8.4907672"><ele>102.25</ele><time>2026-03-29T08:53:29.183Z</time></trkpt><trkpt lat="44.8627175" lon="8.4906307"><ele>102.5</ele><time>2026-03-29T08:53:30.183Z</time></trkpt><trkpt lat="44.8628272" lon="8.4904995"><ele>102.75</ele><time>2026-03-29T08:53:31.184Z</time></trkpt><trkpt lat="44.8629297" lon="8.4903735"><ele>103.0</ele><time>2026-03-29T08:53:32.185Z</time></trkpt><trkpt lat="44.8630243" lon="8.4902558"><ele>103.4</ele><time>2026-03-29T08:53:33.181Z</time></trkpt><trkpt lat="44.8631053" lon="8.49014"><ele>103.80000000000001</ele><time>2026-03-29T08:53:34.181Z</time></trkpt><trkpt lat="44.8631667" lon="8.4900273"><ele>104.2</ele><time>2026-03-29T08:53:35.18Z</time></trkpt><trkpt lat="44.8632117" lon="8.4899273"><ele>104.6</ele><time>2026-03-29T08:53:36.182Z</time></trkpt><trkpt lat="44.8632472" lon="8.489828"><ele>105.0</ele><time>2026-03-29T08:53:37.182Z</time></trkpt><trkpt lat="44.8632757" lon="8.4897168"><ele>105.4</ele><time>2026-03-29T08:53:38.182Z</time></trkpt><trkpt lat="44.8633017" lon="8.4895742"><ele>105.8</ele><time>2026-03-29T08:53:39.183Z</time></trkpt><trkpt lat="44.8633203" lon="8.4894063"><ele>106.19999999999999</ele><time>2026-03-29T08:53:40.181Z</time></trkpt><trkpt lat="44.8633285" lon="8.4892482"><ele>106.6</ele><time>2026-03-29T08:53:41.182Z</time></trkpt><trkpt lat="44.8633303" lon="8.4891095"><ele>107.0</ele><time>2026-03-29T08:53:42.182Z</time></trkpt><trkpt lat="44.8633308" lon="8.4889877"><ele>106.99999999999999</ele><time>2026-03-29T08:53:43.181Z</time></trkpt><trkpt lat="44.8633322" lon="8.4888633"><ele>107.0</ele><time>2026-03-29T08:53:44.183Z</time></trkpt><trkpt lat="44.8633337" lon="8.4887457"><ele>107.0</ele><time>2026-03-29T08:53:45.181Z</time></trkpt><trkpt lat="44.8633383" lon="8.488642"><ele>107.0</ele><time>2026-03-29T08:53:46.184Z</time></trkpt><trkpt lat="44.8633428" lon="8.4885453"><ele>106.99999999999999</ele><time>2026-03-29T08:53:47.181Z</time></trkpt><trkpt lat="44.8633497" lon="8.4884447"><ele>107.0</ele><time>2026-03-29T08:53:48.182Z</time></trkpt><trkpt lat="44.86336" lon="8.4883335"><ele>107.39999999999999</ele><time>2026-03-29T08:53:49.181Z</time></trkpt><trkpt lat="44.8633715" lon="8.4882115"><ele>107.79999999999998</ele><time>2026-03-29T08:53:50.181Z</time></trkpt><trkpt lat="44.8633782" lon="8.488073"><ele>108.2</ele><time>2026-03-29T08:53:51.182Z</time></trkpt><trkpt lat="44.8633808" lon="8.4879252"><ele>108.6</ele><time>2026-03-29T08:53:52.182Z</time></trkpt><trkpt lat="44.8633822" lon="8.487763"><ele>109.0</ele><time>2026-03-29T08:53:53.181Z</time></trkpt><trkpt lat="44.8633772" lon="8.487599"><ele>109.75</ele><time>2026-03-29T08:53:54.182Z</time></trkpt><trkpt lat="44.8633683" lon="8.4874362"><ele>110.5</ele><time>2026-03-29T08:53:55.183Z</time></trkpt><trkpt lat="44.8633533" lon="8.4872735"><ele>111.25</ele><time>2026-03-29T08:53:56.182Z</time></trkpt><trkpt lat="44.8633257" lon="8.487107"><ele>112.0</ele><time>2026-03-29T08:53:57.182Z</time></trkpt><trkpt lat="44.8632845" lon="8.4869332"><ele>112.25</ele><time>2026-03-29T08:53:58.18Z</time></trkpt><trkpt lat="44.8632345" lon="8.486758"><ele>112.5</ele><time>2026-03-29T08:53:59.179Z</time></trkpt><trkpt lat="44.8631862" lon="8.486599"><ele>112.75</ele><time>2026-03-29T08:54:00.179Z</time></trkpt><trkpt lat="44.8631408" lon="8.4864582"><ele>113.0</ele><time>2026-03-29T08:54:01.181Z</time></trkpt><trkpt lat="44.863104" lon="8.48632"><ele>113.0</ele><time>2026-03-29T08:54:02.183Z</time></trkpt><trkpt lat="44.863084" lon="8.4861717"><ele>113.0</ele><time>2026-03-29T08:54:03.183Z</time></trkpt><trkpt lat="44.863089" lon="8.4860137"><ele>113.0</ele><time>2026-03-29T08:54:04.181Z</time></trkpt><trkpt lat="44.8631238" lon="8.4858582"><ele>113.0</ele><time>2026-03-29T08:54:05.182Z</time></trkpt><trkpt lat="44.863187" lon="8.4857167"><ele>113.0</ele><time>2026-03-29T08:54:06.18Z</time></trkpt><trkpt lat="44.8632772" lon="8.4855987"><ele>113.0</ele><time>2026-03-29T08:54:07.181Z</time></trkpt><trkpt lat="44.8633868" lon="8.485495"><ele>113.0</ele><time>2026-03-29T08:54:08.18Z</time></trkpt><trkpt lat="44.8634997" lon="8.4854013"><ele>113.0</ele><time>2026-03-29T08:54:09.18Z</time></trkpt><trkpt lat="44.8636147" lon="8.4853082"><ele>113.5</ele><time>2026-03-29T08:54:10.182Z</time></trkpt><trkpt lat="44.8637368" lon="8.485206"><ele>114.0</ele><time>2026-03-29T08:54:11.181Z</time></trkpt><trkpt lat="44.8638623" lon="8.4851025"><ele>114.5</ele><time>2026-03-29T08:54:12.183Z</time></trkpt><trkpt lat="44.8639893" lon="8.4850002"><ele>115.0</ele><time>2026-03-29T08:54:13.184Z</time></trkpt><trkpt lat="44.864116" lon="8.4848977"><ele>115.0</ele><time>2026-03-29T08:54:14.182Z</time></trkpt><trkpt lat="44.8642412" lon="8.4847935"><ele>115.0</ele><time>2026-03-29T08:54:15.182Z</time></trkpt><trkpt lat="44.8643677" lon="8.4846862"><ele>115.0</ele><time>2026-03-29T08:54:16.182Z</time></trkpt><trkpt lat="44.864496" lon="8.4845765"><ele>115.0</ele><time>2026-03-29T08:54:17.181Z</time></trkpt><trkpt lat="44.8646202" lon="8.4844647"><ele>115.33333333333334</ele><time>2026-03-29T08:54:18.182Z</time></trkpt><trkpt lat="44.8647395" lon="8.4843475"><ele>115.66666666666666</ele><time>2026-03-29T08:54:19.185Z</time></trkpt><trkpt lat="44.8648585" lon="8.4842195"><ele>116.0</ele><time>2026-03-29T08:54:20.183Z</time></trkpt><trkpt lat="44.86498" lon="8.48408"><ele>116.0</ele><time>2026-03-29T08:54:21.182Z</time></trkpt><trkpt lat="44.8651047" lon="8.4839277"><ele>116.0</ele><time>2026-03-29T08:54:22.182Z</time></trkpt><trkpt lat="44.8652287" lon="8.4837672"><ele>116.0</ele><time>2026-03-29T08:54:23.18Z</time></trkpt><trkpt lat="44.8653502" lon="8.4835967"><ele>115.66666666666666</ele><time>2026-03-29T08:54:24.18Z</time></trkpt><trkpt lat="44.8654678" lon="8.4834115"><ele>115.33333333333334</ele><time>2026-03-29T08:54:25.18Z</time></trkpt><trkpt lat="44.865576" lon="8.4832145"><ele>115.0</ele><time>2026-03-29T08:54:26.182Z</time></trkpt><trkpt lat="44.8656717" lon="8.4830148"><ele>115.0</ele><time>2026-03-29T08:54:27.184Z</time></trkpt><trkpt lat="44.8657605" lon="8.4828038"><ele>115.0</ele><time>2026-03-29T08:54:28.185Z</time></trkpt><trkpt lat="44.865841" lon="8.4825827"><ele>115.0</ele><time>2026-03-29T08:54:29.186Z</time></trkpt><trkpt lat="44.8659135" lon="8.4823502"><ele>115.0</ele><time>2026-03-29T08:54:30.185Z</time></trkpt><trkpt lat="44.8659795" lon="8.4821082"><ele>115.0</ele><time>2026-03-29T08:54:31.185Z</time></trkpt><trkpt lat="44.8660367" lon="8.4818568"><ele>115.0</ele><time>2026-03-29T08:54:32.184Z</time></trkpt><trkpt lat="44.8660843" lon="8.4815987"><ele>115.0</ele><time>2026-03-29T08:54:33.189Z</time></trkpt><trkpt lat="44.8661252" lon="8.4813348"><ele>115.0</ele><time>2026-03-29T08:54:34.19Z</time></trkpt><trkpt lat="44.8661655" lon="8.4810685"><ele>115.0</ele><time>2026-03-29T08:54:35.189Z</time></trkpt><trkpt lat="44.8662052" lon="8.4807998"><ele>115.0</ele><time>2026-03-29T08:54:36.189Z</time></trkpt><trkpt lat="44.8662438" lon="8.4805295"><ele>115.0</ele><time>2026-03-29T08:54:37.186Z</time></trkpt><trkpt lat="44.8662825" lon="8.4802552"><ele>115.0</ele><time>2026-03-29T08:54:38.184Z</time></trkpt><trkpt lat="44.8663225" lon="8.4799715"><ele>115.0</ele><time>2026-03-29T08:54:39.185Z</time></trkpt><trkpt lat="44.8663645" lon="8.4796798"><ele>115.0</ele><time>2026-03-29T08:54:40.185Z</time></trkpt><trkpt lat="44.8664065" lon="8.4793845"><ele>115.0</ele><time>2026-03-29T08:54:41.186Z</time></trkpt><trkpt lat="44.8664498" lon="8.4790807"><ele>115.0</ele><time>2026-03-29T08:54:42.186Z</time></trkpt><trkpt lat="44.8664937" lon="8.4787742"><ele>115.0</ele><time>2026-03-29T08:54:43.185Z</time></trkpt><trkpt lat="44.8665363" lon="8.4784713"><ele>115.0</ele><time>2026-03-29T08:54:44.186Z</time></trkpt><trkpt lat="44.8665767" lon="8.4781772"><ele>116.0</ele><time>2026-03-29T08:54:45.185Z</time></trkpt><trkpt lat="44.8666167" lon="8.477887"><ele>117.0</ele><time>2026-03-29T08:54:46.185Z</time></trkpt><trkpt lat="44.8666573" lon="8.4775972"><ele>118.0</ele><time>2026-03-29T08:54:47.185Z</time></trkpt><trkpt lat="44.8667007" lon="8.4773068"><ele>117.66666666666667</ele><time>2026-03-29T08:54:48.184Z</time></trkpt><trkpt lat="44.8667442" lon="8.4770138"><ele>117.33333333333334</ele><time>2026-03-29T08:54:49.184Z</time></trkpt><trkpt lat="44.8667883" lon="8.4767168"><ele>117.0</ele><time>2026-03-29T08:54:50.183Z</time></trkpt><trkpt lat="44.8668325" lon="8.4764137"><ele>116.33333333333334</ele><time>2026-03-29T08:54:51.185Z</time></trkpt><trkpt lat="44.8668773" lon="8.4761048"><ele>115.66666666666667</ele><time>2026-03-29T08:54:52.189Z</time></trkpt><trkpt lat="44.8669237" lon="8.4757928"><ele>115.0</ele><time>2026-03-29T08:54:53.189Z</time></trkpt><trkpt lat="44.8669695" lon="8.4754813"><ele>115.0</ele><time>2026-03-29T08:54:54.188Z</time></trkpt><trkpt lat="44.8670145" lon="8.4751725"><ele>115.0</ele><time>2026-03-29T08:54:55.184Z</time></trkpt><trkpt lat="44.8670588" lon="8.4748653"><ele>115.0</ele><time>2026-03-29T08:54:56.185Z</time></trkpt><trkpt lat="44.8671023" lon="8.4745588"><ele>115.0</ele><time>2026-03-29T08:54:57.186Z</time></trkpt><trkpt lat="44.8671475" lon="8.474253"><ele>115.0</ele><time>2026-03-29T08:54:58.189Z</time></trkpt><trkpt lat="44.8671942" lon="8.473945"><ele>115.0</ele><time>2026-03-29T08:54:59.185Z</time></trkpt><trkpt lat="44.867241" lon="8.4736322"><ele>113.5</ele><time>2026-03-29T08:55:00.186Z</time></trkpt><trkpt lat="44.8672875" lon="8.4733168"><ele>112.0</ele><time>2026-03-29T08:55:01.19Z</time></trkpt><trkpt lat="44.8673337" lon="8.4730018"><ele>111.66666666666667</ele><time>2026-03-29T08:55:02.189Z</time></trkpt><trkpt lat="44.8673782" lon="8.4726888"><ele>111.33333333333334</ele><time>2026-03-29T08:55:03.189Z</time></trkpt><trkpt lat="44.8674215" lon="8.472383"><ele>111.0</ele><time>2026-03-29T08:55:04.186Z</time></trkpt><trkpt lat="44.8674635" lon="8.4720968"><ele>111.66666666666666</ele><time>2026-03-29T08:55:05.184Z</time></trkpt><trkpt lat="44.8675058" lon="8.4718208"><ele>112.33333333333333</ele><time>2026-03-29T08:55:06.185Z</time></trkpt><trkpt lat="44.867553" lon="8.471542"><ele>113.0</ele><time>2026-03-29T08:55:07.186Z</time></trkpt><trkpt lat="44.8676098" lon="8.4712613"><ele>114.0</ele><time>2026-03-29T08:55:08.185Z</time></trkpt><trkpt lat="44.8676797" lon="8.4709832"><ele>115.0</ele><time>2026-03-29T08:55:09.186Z</time></trkpt><trkpt lat="44.8677613" lon="8.4707097"><ele>116.0</ele><time>2026-03-29T08:55:10.188Z</time></trkpt><trkpt lat="44.8678535" lon="8.47044"><ele>116.0</ele><time>2026-03-29T08:55:11.187Z</time></trkpt><trkpt lat="44.8679578" lon="8.4701777"><ele>116.0</ele><time>2026-03-29T08:55:12.186Z</time></trkpt><trkpt lat="44.8680742" lon="8.4699257"><ele>116.0</ele><time>2026-03-29T08:55:13.187Z</time></trkpt><trkpt lat="44.8681978" lon="8.4696852"><ele>116.0</ele><time>2026-03-29T08:55:14.182Z</time></trkpt><trkpt lat="44.8683237" lon="8.4694525"><ele>116.0</ele><time>2026-03-29T08:55:15.184Z</time></trkpt><trkpt lat="44.8684537" lon="8.4692205"><ele>116.0</ele><time>2026-03-29T08:55:16.187Z</time></trkpt><trkpt lat="44.868585" lon="8.4689867"><ele>116.33333333333333</ele><time>2026-03-29T08:55:17.185Z</time></trkpt><trkpt lat="44.868715" lon="8.4687535"><ele>116.66666666666666</ele><time>2026-03-29T08:55:18.185Z</time></trkpt><trkpt lat="44.8688395" lon="8.4685272"><ele>117.0</ele><time>2026-03-29T08:55:19.185Z</time></trkpt><trkpt lat="44.8689568" lon="8.4683002"><ele>117.0</ele><time>2026-03-29T08:55:20.186Z</time></trkpt><trkpt lat="44.8690642" lon="8.4680558"><ele>117.0</ele><time>2026-03-29T08:55:21.185Z</time></trkpt><trkpt lat="44.8691548" lon="8.4677902"><ele>117.0</ele><time>2026-03-29T08:55:22.189Z</time></trkpt><trkpt lat="44.8692312" lon="8.4675115"><ele>117.0</ele><time>2026-03-29T08:55:23.189Z</time></trkpt><trkpt lat="44.8693" lon="8.4672262"><ele>117.0</ele><time>2026-03-29T08:55:24.189Z</time></trkpt><trkpt lat="44.8693668" lon="8.4669395"><ele>117.0</ele><time>2026-03-29T08:55:25.187Z</time></trkpt><trkpt lat="44.8694315" lon="8.4666545"><ele>117.0</ele><time>2026-03-29T08:55:26.184Z</time></trkpt><trkpt lat="44.8694942" lon="8.4663697"><ele>117.0</ele><time>2026-03-29T08:55:27.187Z</time></trkpt><trkpt lat="44.869556" lon="8.4660807"><ele>117.0</ele><time>2026-03-29T08:55:28.185Z</time></trkpt><trkpt lat="44.8696138" lon="8.4657892"><ele>117.0</ele><time>2026-03-29T08:55:29.189Z</time></trkpt><trkpt lat="44.8696635" lon="8.4655007"><ele>117.0</ele><time>2026-03-29T08:55:30.186Z</time></trkpt><trkpt lat="44.869703" lon="8.4652215"><ele>117.0</ele><time>2026-03-29T08:55:31.187Z</time></trkpt><trkpt lat="44.8697353" lon="8.4649453"><ele>117.0</ele><time>2026-03-29T08:55:32.189Z</time></trkpt><trkpt lat="44.8697642" lon="8.464673"><ele>117.0</ele><time>2026-03-29T08:55:33.187Z</time></trkpt><trkpt lat="44.8697927" lon="8.4644042"><ele>117.0</ele><time>2026-03-29T08:55:34.188Z</time></trkpt><trkpt lat="44.869821" lon="8.4641385"><ele>117.0</ele><time>2026-03-29T08:55:35.185Z</time></trkpt><trkpt lat="44.869851" lon="8.4638755"><ele>117.0</ele><time>2026-03-29T08:55:36.186Z</time></trkpt><trkpt lat="44.8698818" lon="8.4636158"><ele>117.0</ele><time>2026-03-29T08:55:37.183Z</time></trkpt><trkpt lat="44.8699147" lon="8.4633587"><ele>117.66666666666666</ele><time>2026-03-29T08:55:38.184Z</time></trkpt><trkpt lat="44.8699552" lon="8.4630988"><ele>118.33333333333333</ele><time>2026-03-29T08:55:39.182Z</time></trkpt><trkpt lat="44.870008" lon="8.4628368"><ele>119.0</ele><time>2026-03-29T08:55:40.183Z</time></trkpt><trkpt lat="44.870077" lon="8.4625717"><ele>118.66666666666666</ele><time>2026-03-29T08:55:41.183Z</time></trkpt><trkpt lat="44.8701637" lon="8.4623013"><ele>118.33333333333334</ele><time>2026-03-29T08:55:42.184Z</time></trkpt><trkpt lat="44.8702623" lon="8.4620297"><ele>118.0</ele><time>2026-03-29T08:55:43.186Z</time></trkpt><trkpt lat="44.8703645" lon="8.4617625"><ele>117.66666666666667</ele><time>2026-03-29T08:55:44.185Z</time></trkpt><trkpt lat="44.8704673" lon="8.4615015"><ele>117.33333333333334</ele><time>2026-03-29T08:55:45.186Z</time></trkpt><trkpt lat="44.8705688" lon="8.4612465"><ele>117.0</ele><time>2026-03-29T08:55:46.183Z</time></trkpt><trkpt lat="44.8706697" lon="8.4609937"><ele>116.66666666666666</ele><time>2026-03-29T08:55:47.185Z</time></trkpt><trkpt lat="44.8707708" lon="8.4607387"><ele>116.33333333333333</ele><time>2026-03-29T08:55:48.182Z</time></trkpt><trkpt lat="44.8708728" lon="8.4604792"><ele>116.0</ele><time>2026-03-29T08:55:49.183Z</time></trkpt><trkpt lat="44.8709768" lon="8.4602133"><ele>114.33333333333333</ele><time>2026-03-29T08:55:50.184Z</time></trkpt><trkpt lat="44.871083" lon="8.4599435"><ele>112.66666666666666</ele><time>2026-03-29T08:55:51.183Z</time></trkpt><trkpt lat="44.8711898" lon="8.459671"><ele>111.0</ele><time>2026-03-29T08:55:52.185Z</time></trkpt><trkpt lat="44.871297" lon="8.459398"><ele>111.0</ele><time>2026-03-29T08:55:53.183Z</time></trkpt><trkpt lat="44.8714035" lon="8.4591277"><ele>111.0</ele><time>2026-03-29T08:55:54.183Z</time></trkpt><trkpt lat="44.8715095" lon="8.4588605"><ele>111.0</ele><time>2026-03-29T08:55:55.187Z</time></trkpt><trkpt lat="44.871613" lon="8.458597"><ele>111.0</ele><time>2026-03-29T08:55:56.186Z</time></trkpt><trkpt lat="44.871715" lon="8.458338"><ele>111.0</ele><time>2026-03-29T08:55:57.186Z</time></trkpt><trkpt lat="44.8718175" lon="8.4580832"><ele>111.0</ele><time>2026-03-29T08:55:58.188Z</time></trkpt><trkpt lat="44.8719238" lon="8.4578312"><ele>109.33333333333334</ele><time>2026-03-29T08:55:59.183Z</time></trkpt><trkpt lat="44.8720353" lon="8.4575807"><ele>107.66666666666667</ele><time>2026-03-29T08:56:00.186Z</time></trkpt><trkpt lat="44.872152" lon="8.4573282"><ele>106.0</ele><time>2026-03-29T08:56:01.181Z</time></trkpt><trkpt lat="44.8722747" lon="8.4570753"><ele>106.0</ele><time>2026-03-29T08:56:02.181Z</time></trkpt><trkpt lat="44.872404" lon="8.4568292"><ele>106.0</ele><time>2026-03-29T08:56:03.182Z</time></trkpt><trkpt lat="44.8725405" lon="8.4565968"><ele>106.0</ele><time>2026-03-29T08:56:04.185Z</time></trkpt><trkpt lat="44.8726792" lon="8.456386"><ele>105.33333333333334</ele><time>2026-03-29T08:56:05.188Z</time></trkpt><trkpt lat="44.8728143" lon="8.456191"><ele>104.66666666666666</ele><time>2026-03-29T08:56:06.188Z</time></trkpt><trkpt lat="44.8729427" lon="8.4559953"><ele>104.0</ele><time>2026-03-29T08:56:07.187Z</time></trkpt><trkpt lat="44.873063" lon="8.4557807"><ele>104.0</ele><time>2026-03-29T08:56:08.185Z</time></trkpt><trkpt lat="44.8731708" lon="8.45554"><ele>104.0</ele><time>2026-03-29T08:56:09.185Z</time></trkpt><trkpt lat="44.8732608" lon="8.4552747"><ele>104.0</ele><time>2026-03-29T08:56:10.184Z</time></trkpt><trkpt lat="44.8733302" lon="8.4549878"><ele>103.66666666666666</ele><time>2026-03-29T08:56:11.188Z</time></trkpt><trkpt lat="44.873378" lon="8.4546825"><ele>103.33333333333334</ele><time>2026-03-29T08:56:12.185Z</time></trkpt><trkpt lat="44.8734088" lon="8.4543667"><ele>103.0</ele><time>2026-03-29T08:56:13.185Z</time></trkpt><trkpt lat="44.8734282" lon="8.4540485"><ele>103.0</ele><time>2026-03-29T08:56:14.184Z</time></trkpt><trkpt lat="44.8734415" lon="8.453745"><ele>103.0</ele><time>2026-03-29T08:56:15.187Z</time></trkpt><trkpt lat="44.873452" lon="8.453449"><ele>103.0</ele><time>2026-03-29T08:56:16.186Z</time></trkpt><trkpt lat="44.8734647" lon="8.4531547"><ele>102.0</ele><time>2026-03-29T08:56:17.185Z</time></trkpt><trkpt lat="44.8734788" lon="8.4528607"><ele>101.0</ele><time>2026-03-29T08:56:18.186Z</time></trkpt><trkpt lat="44.8734932" lon="8.4525655"><ele>100.0</ele><time>2026-03-29T08:56:19.183Z</time></trkpt><trkpt lat="44.8735062" lon="8.452267"><ele>100.33333333333334</ele><time>2026-03-29T08:56:20.184Z</time></trkpt><trkpt lat="44.8735175" lon="8.4519658"><ele>100.66666666666666</ele><time>2026-03-29T08:56:21.185Z</time></trkpt><trkpt lat="44.8735292" lon="8.4516625"><ele>101.0</ele><time>2026-03-29T08:56:22.184Z</time></trkpt><trkpt lat="44.8735412" lon="8.4513573"><ele>102.0</ele><time>2026-03-29T08:56:23.183Z</time></trkpt><trkpt lat="44.8735528" lon="8.451049"><ele>103.0</ele><time>2026-03-29T08:56:24.183Z</time></trkpt><trkpt lat="44.8735625" lon="8.4507383"><ele>104.0</ele><time>2026-03-29T08:56:25.184Z</time></trkpt><trkpt lat="44.8735708" lon="8.4504267"><ele>104.0</ele><time>2026-03-29T08:56:26.182Z</time></trkpt><trkpt lat="44.873579" lon="8.4501193"><ele>104.0</ele><time>2026-03-29T08:56:27.182Z</time></trkpt><trkpt lat="44.873587" lon="8.4498247"><ele>104.0</ele><time>2026-03-29T08:56:28.183Z</time></trkpt><trkpt lat="44.8735885" lon="8.4495397"><ele>103.66666666666666</ele><time>2026-03-29T08:56:29.184Z</time></trkpt><trkpt lat="44.8735818" lon="8.4492558"><ele>103.33333333333334</ele><time>2026-03-29T08:56:30.184Z</time></trkpt><trkpt lat="44.8735637" lon="8.4489698"><ele>103.0</ele><time>2026-03-29T08:56:31.184Z</time></trkpt><trkpt lat="44.873534" lon="8.4486922"><ele>102.66666666666667</ele><time>2026-03-29T08:56:32.187Z</time></trkpt><trkpt lat="44.873494" lon="8.4484327"><ele>102.33333333333334</ele><time>2026-03-29T08:56:33.187Z</time></trkpt><trkpt lat="44.8734485" lon="8.448193"><ele>102.0</ele><time>2026-03-29T08:56:34.187Z</time></trkpt><trkpt lat="44.8733985" lon="8.4479703"><ele>102.0</ele><time>2026-03-29T08:56:35.182Z</time></trkpt><trkpt lat="44.8733475" lon="8.4477618"><ele>102.0</ele><time>2026-03-29T08:56:36.183Z</time></trkpt><trkpt lat="44.8732952" lon="8.4475565"><ele>102.0</ele><time>2026-03-29T08:56:37.183Z</time></trkpt><trkpt lat="44.8732405" lon="8.447349"><ele>102.0</ele><time>2026-03-29T08:56:38.185Z</time></trkpt><trkpt lat="44.8731858" lon="8.4471415"><ele>102.0</ele><time>2026-03-29T08:56:39.182Z</time></trkpt><trkpt lat="44.8731315" lon="8.446935"><ele>102.0</ele><time>2026-03-29T08:56:40.182Z</time></trkpt><trkpt lat="44.873073" lon="8.4467247"><ele>102.0</ele><time>2026-03-29T08:56:41.185Z</time></trkpt><trkpt lat="44.8730082" lon="8.4464957"><ele>102.0</ele><time>2026-03-29T08:56:42.185Z</time></trkpt><trkpt lat="44.8729372" lon="8.4462455"><ele>102.0</ele><time>2026-03-29T08:56:43.186Z</time></trkpt><trkpt lat="44.872857" lon="8.4459803"><ele>102.0</ele><time>2026-03-29T08:56:44.185Z</time></trkpt><trkpt lat="44.8727695" lon="8.4457008"><ele>102.0</ele><time>2026-03-29T08:56:45.186Z</time></trkpt><trkpt lat="44.8726783" lon="8.4454152"><ele>102.0</ele><time>2026-03-29T08:56:46.183Z</time></trkpt><trkpt lat="44.8725858" lon="8.4451268"><ele>102.0</ele><time>2026-03-29T08:56:47.183Z</time></trkpt><trkpt lat="44.8724932" lon="8.4448267"><ele>102.0</ele><time>2026-03-29T08:56:48.186Z</time></trkpt><trkpt lat="44.8724027" lon="8.4445163"><ele>102.5</ele><time>2026-03-29T08:56:49.183Z</time></trkpt><trkpt lat="44.8723158" lon="8.4441998"><ele>103.0</ele><time>2026-03-29T08:56:50.182Z</time></trkpt><trkpt lat="44.8722418" lon="8.4438748"><ele>102.5</ele><time>2026-03-29T08:56:51.182Z</time></trkpt><trkpt lat="44.8721895" lon="8.4435408"><ele>102.0</ele><time>2026-03-29T08:56:52.181Z</time></trkpt><trkpt lat="44.8721553" lon="8.4432007"><ele>101.0</ele><time>2026-03-29T08:56:53.182Z</time></trkpt><trkpt lat="44.8721332" lon="8.4428562"><ele>100.0</ele><time>2026-03-29T08:56:54.183Z</time></trkpt><trkpt lat="44.8721173" lon="8.4425092"><ele>100.0</ele><time>2026-03-29T08:56:55.184Z</time></trkpt><trkpt lat="44.872108" lon="8.4421622"><ele>100.0</ele><time>2026-03-29T08:56:56.184Z</time></trkpt><trkpt lat="44.8721033" lon="8.4418182"><ele>100.5</ele><time>2026-03-29T08:56:57.185Z</time></trkpt><trkpt lat="44.8720968" lon="8.4414783"><ele>101.0</ele><time>2026-03-29T08:56:58.185Z</time></trkpt><trkpt lat="44.872082" lon="8.4411398"><ele>101.0</ele><time>2026-03-29T08:56:59.189Z</time></trkpt><trkpt lat="44.8720552" lon="8.4408018"><ele>101.0</ele><time>2026-03-29T08:57:00.189Z</time></trkpt><trkpt lat="44.8720162" lon="8.440464"><ele>101.0</ele><time>2026-03-29T08:57:01.189Z</time></trkpt><trkpt lat="44.8719668" lon="8.4401283"><ele>101.0</ele><time>2026-03-29T08:57:02.186Z</time></trkpt><trkpt lat="44.871905" lon="8.439797"><ele>101.5</ele><time>2026-03-29T08:57:03.185Z</time></trkpt><trkpt lat="44.8718332" lon="8.4394692"><ele>102.0</ele><time>2026-03-29T08:57:04.185Z</time></trkpt><trkpt lat="44.8717528" lon="8.4391433"><ele>102.0</ele><time>2026-03-29T08:57:05.185Z</time></trkpt><trkpt lat="44.8716633" lon="8.4388192"><ele>102.0</ele><time>2026-03-29T08:57:06.184Z</time></trkpt><trkpt lat="44.8715637" lon="8.4384988"><ele>102.0</ele><time>2026-03-29T08:57:07.186Z</time></trkpt><trkpt lat="44.8714542" lon="8.4381833"><ele>102.0</ele><time>2026-03-29T08:57:08.184Z</time></trkpt><trkpt lat="44.8713347" lon="8.4378755"><ele>102.0</ele><time>2026-03-29T08:57:09.187Z</time></trkpt><trkpt lat="44.8712075" lon="8.4375753"><ele>102.0</ele><time>2026-03-29T08:57:10.186Z</time></trkpt><trkpt lat="44.8710747" lon="8.4372792"><ele>106.0</ele><time>2026-03-29T08:57:11.186Z</time></trkpt><trkpt lat="44.8709388" lon="8.4369835"><ele>110.0</ele><time>2026-03-29T08:57:12.187Z</time></trkpt><trkpt lat="44.8708027" lon="8.4366897"><ele>110.0</ele><time>2026-03-29T08:57:13.183Z</time></trkpt><trkpt lat="44.8706667" lon="8.436398"><ele>110.0</ele><time>2026-03-29T08:57:14.18Z</time></trkpt><trkpt lat="44.8705325" lon="8.4361088"><ele>109.66666666666666</ele><time>2026-03-29T08:57:15.181Z</time></trkpt><trkpt lat="44.8704045" lon="8.4358395"><ele>109.33333333333334</ele><time>2026-03-29T08:57:16.181Z</time></trkpt><trkpt lat="44.8702843" lon="8.4355868"><ele>109.0</ele><time>2026-03-29T08:57:17.185Z</time></trkpt><trkpt lat="44.8701707" lon="8.4353467"><ele>109.66666666666667</ele><time>2026-03-29T08:57:18.183Z</time></trkpt><trkpt lat="44.8700562" lon="8.4351092"><ele>110.33333333333334</ele><time>2026-03-29T08:57:19.181Z</time></trkpt><trkpt lat="44.8699415" lon="8.434878"><ele>111.0</ele><time>2026-03-29T08:57:20.179Z</time></trkpt><trkpt lat="44.8698343" lon="8.4346542"><ele>107.66666666666666</ele><time>2026-03-29T08:57:21.18Z</time></trkpt><trkpt lat="44.869733" lon="8.4344403"><ele>104.33333333333333</ele><time>2026-03-29T08:57:22.182Z</time></trkpt><trkpt lat="44.8696328" lon="8.4342302"><ele>101.0</ele><time>2026-03-29T08:57:23.179Z</time></trkpt><trkpt lat="44.8695305" lon="8.4340148"><ele>99.66666666666666</ele><time>2026-03-29T08:57:24.183Z</time></trkpt><trkpt lat="44.8694255" lon="8.433793"><ele>98.33333333333334</ele><time>2026-03-29T08:57:25.181Z</time></trkpt><trkpt lat="44.8693202" lon="8.4335688"><ele>97.0</ele><time>2026-03-29T08:57:26.179Z</time></trkpt><trkpt lat="44.8692107" lon="8.4333255"><ele>101.0</ele><time>2026-03-29T08:57:27.18Z</time></trkpt><trkpt lat="44.869097" lon="8.433052"><ele>105.0</ele><time>2026-03-29T08:57:28.179Z</time></trkpt><trkpt lat="44.8689837" lon="8.4327512"><ele>105.0</ele><time>2026-03-29T08:57:29.18Z</time></trkpt><trkpt lat="44.8688707" lon="8.432437"><ele>105.0</ele><time>2026-03-29T08:57:30.179Z</time></trkpt><trkpt lat="44.8687652" lon="8.4321217"><ele>103.0</ele><time>2026-03-29T08:57:31.179Z</time></trkpt><trkpt lat="44.868675" lon="8.4318177"><ele>101.0</ele><time>2026-03-29T08:57:32.18Z</time></trkpt><trkpt lat="44.8686032" lon="8.4315075"><ele>100.0</ele><time>2026-03-29T08:57:33.183Z</time></trkpt><trkpt lat="44.8685558" lon="8.4311917"><ele>99.0</ele><time>2026-03-29T08:57:34.18Z</time></trkpt><trkpt lat="44.8685397" lon="8.4308673"><ele>99.0</ele><time>2026-03-29T08:57:35.182Z</time></trkpt><trkpt lat="44.8685538" lon="8.4305367"><ele>99.0</ele><time>2026-03-29T08:57:36.186Z</time></trkpt><trkpt lat="44.8685857" lon="8.4302105"><ele>99.5</ele><time>2026-03-29T08:57:37.181Z</time></trkpt><trkpt lat="44.868614" lon="8.429889"><ele>100.0</ele><time>2026-03-29T08:57:38.182Z</time></trkpt><trkpt lat="44.86863" lon="8.4295637"><ele>100.5</ele><time>2026-03-29T08:57:39.181Z</time></trkpt><trkpt lat="44.868627" lon="8.429234"><ele>101.0</ele><time>2026-03-29T08:57:40.182Z</time></trkpt><trkpt lat="44.8686013" lon="8.4289015"><ele>100.0</ele><time>2026-03-29T08:57:41.181Z</time></trkpt><trkpt lat="44.868556" lon="8.4285708"><ele>99.0</ele><time>2026-03-29T08:57:42.182Z</time></trkpt><trkpt lat="44.868493" lon="8.4282448"><ele>103.0</ele><time>2026-03-29T08:57:43.185Z</time></trkpt><trkpt lat="44.8684127" lon="8.4279262"><ele>107.0</ele><time>2026-03-29T08:57:44.181Z</time></trkpt><trkpt lat="44.8683123" lon="8.4276182"><ele>107.0</ele><time>2026-03-29T08:57:45.182Z</time></trkpt><trkpt lat="44.8681935" lon="8.4273225"><ele>107.0</ele><time>2026-03-29T08:57:46.186Z</time></trkpt><trkpt lat="44.8680573" lon="8.4270408"><ele>105.0</ele><time>2026-03-29T08:57:47.182Z</time></trkpt><trkpt lat="44.8679048" lon="8.4267735"><ele>103.0</ele><time>2026-03-29T08:57:48.186Z</time></trkpt><trkpt lat="44.8677382" lon="8.4265177"><ele>105.0</ele><time>2026-03-29T08:57:49.188Z</time></trkpt><trkpt lat="44.8675615" lon="8.426268"><ele>107.0</ele><time>2026-03-29T08:57:50.188Z</time></trkpt><trkpt lat="44.8673783" lon="8.4260222"><ele>107.0</ele><time>2026-03-29T08:57:51.187Z</time></trkpt><trkpt lat="44.8671933" lon="8.4257772"><ele>107.0</ele><time>2026-03-29T08:57:52.188Z</time></trkpt><trkpt lat="44.8670098" lon="8.4255307"><ele>105.5</ele><time>2026-03-29T08:57:53.184Z</time></trkpt><trkpt lat="44.866829" lon="8.4252853"><ele>104.0</ele><time>2026-03-29T08:57:54.184Z</time></trkpt><trkpt lat="44.8666572" lon="8.4250467"><ele>104.0</ele><time>2026-03-29T08:57:55.184Z</time></trkpt><trkpt lat="44.8664992" lon="8.4248182"><ele>104.0</ele><time>2026-03-29T08:57:56.189Z</time></trkpt><trkpt lat="44.8663517" lon="8.4245905"><ele>104.0</ele><time>2026-03-29T08:57:57.183Z</time></trkpt><trkpt lat="44.8662193" lon="8.4243647"><ele>103.0</ele><time>2026-03-29T08:57:58.182Z</time></trkpt><trkpt lat="44.866113" lon="8.4241397"><ele>102.0</ele><time>2026-03-29T08:57:59.183Z</time></trkpt><trkpt lat="44.8660402" lon="8.4239038"><ele>101.0</ele><time>2026-03-29T08:58:00.182Z</time></trkpt><trkpt lat="44.866002" lon="8.4236428"><ele>101.0</ele><time>2026-03-29T08:58:01.183Z</time></trkpt><trkpt lat="44.865987" lon="8.4233558"><ele>101.0</ele><time>2026-03-29T08:58:02.184Z</time></trkpt><trkpt lat="44.8659795" lon="8.423051"><ele>101.0</ele><time>2026-03-29T08:58:03.182Z</time></trkpt><trkpt lat="44.8659918" lon="8.4227555"><ele>101.66666666666666</ele><time>2026-03-29T08:58:04.185Z</time></trkpt><trkpt lat="44.8660447" lon="8.4224887"><ele>102.33333333333334</ele><time>2026-03-29T08:58:05.182Z</time></trkpt><trkpt lat="44.8661363" lon="8.4222423"><ele>103.0</ele><time>2026-03-29T08:58:06.182Z</time></trkpt><trkpt lat="44.8662578" lon="8.4220098"><ele>103.33333333333334</ele><time>2026-03-29T08:58:07.184Z</time></trkpt><trkpt lat="44.8663895" lon="8.42179"><ele>103.66666666666666</ele><time>2026-03-29T08:58:08.187Z</time></trkpt><trkpt lat="44.8665167" lon="8.4215922"><ele>104.0</ele><time>2026-03-29T08:58:09.188Z</time></trkpt><trkpt lat="44.8666492" lon="8.4214098"><ele>103.66666666666666</ele><time>2026-03-29T08:58:10.189Z</time></trkpt><trkpt lat="44.8667948" lon="8.4212415"><ele>103.33333333333334</ele><time>2026-03-29T08:58:11.189Z</time></trkpt><trkpt lat="44.8669545" lon="8.4210843"><ele>103.0</ele><time>2026-03-29T08:58:12.185Z</time></trkpt><trkpt lat="44.8671307" lon="8.4209332"><ele>103.0</ele><time>2026-03-29T08:58:13.186Z</time></trkpt><trkpt lat="44.8673122" lon="8.4207868"><ele>103.0</ele><time>2026-03-29T08:58:14.19Z</time></trkpt><trkpt lat="44.8674983" lon="8.4206427"><ele>103.0</ele><time>2026-03-29T08:58:15.185Z</time></trkpt><trkpt lat="44.8676907" lon="8.4205008"><ele>102.66666666666667</ele><time>2026-03-29T08:58:16.19Z</time></trkpt><trkpt lat="44.8678862" lon="8.4203622"><ele>102.33333333333334</ele><time>2026-03-29T08:58:17.19Z</time></trkpt><trkpt lat="44.8680843" lon="8.4202223"><ele>102.0</ele><time>2026-03-29T08:58:18.189Z</time></trkpt><trkpt lat="44.868279" lon="8.4200852"><ele>102.0</ele><time>2026-03-29T08:58:19.188Z</time></trkpt><trkpt lat="44.8684638" lon="8.4199477"><ele>102.0</ele><time>2026-03-29T08:58:20.184Z</time></trkpt><trkpt lat="44.8686283" lon="8.4197977"><ele>102.0</ele><time>2026-03-29T08:58:21.188Z</time></trkpt><trkpt lat="44.8687632" lon="8.4196228"><ele>102.0</ele><time>2026-03-29T08:58:22.189Z</time></trkpt><trkpt lat="44.8688718" lon="8.419412"><ele>102.0</ele><time>2026-03-29T08:58:23.187Z</time></trkpt><trkpt lat="44.8689568" lon="8.419167"><ele>102.0</ele><time>2026-03-29T08:58:24.187Z</time></trkpt><trkpt lat="44.8690138" lon="8.4188947"><ele>102.66666666666666</ele><time>2026-03-29T08:58:25.184Z</time></trkpt><trkpt lat="44.8690513" lon="8.4186213"><ele>103.33333333333333</ele><time>2026-03-29T08:58:26.185Z</time></trkpt><trkpt lat="44.8690775" lon="8.4183777"><ele>104.0</ele><time>2026-03-29T08:58:27.183Z</time></trkpt><trkpt lat="44.8691015" lon="8.4181703"><ele>104.0</ele><time>2026-03-29T08:58:28.184Z</time></trkpt><trkpt lat="44.8691238" lon="8.417993"><ele>104.0</ele><time>2026-03-29T08:58:29.183Z</time></trkpt><trkpt lat="44.8691432" lon="8.4178447"><ele>104.0</ele><time>2026-03-29T08:58:30.186Z</time></trkpt><trkpt lat="44.8691582" lon="8.4177148"><ele>104.0</ele><time>2026-03-29T08:58:31.187Z</time></trkpt><trkpt lat="44.869154" lon="8.417596"><ele>104.0</ele><time>2026-03-29T08:58:32.188Z</time></trkpt><trkpt lat="44.8691192" lon="8.4174882"><ele>104.5</ele><time>2026-03-29T08:58:33.186Z</time></trkpt><trkpt lat="44.8690502" lon="8.4174085"><ele>105.0</ele><time>2026-03-29T08:58:34.184Z</time></trkpt><trkpt lat="44.8689445" lon="8.4173552"><ele>105.5</ele><time>2026-03-29T08:58:35.183Z</time></trkpt><trkpt lat="44.8688143" lon="8.4173143"><ele>106.0</ele><time>2026-03-29T08:58:36.183Z</time></trkpt><trkpt lat="44.8686648" lon="8.4172702"><ele>106.0</ele><time>2026-03-29T08:58:37.184Z</time></trkpt><trkpt lat="44.8685072" lon="8.4172198"><ele>106.0</ele><time>2026-03-29T08:58:38.186Z</time></trkpt><trkpt lat="44.8683398" lon="8.4171625"><ele>106.0</ele><time>2026-03-29T08:58:39.185Z</time></trkpt><trkpt lat="44.8681685" lon="8.4170912"><ele>105.33333333333334</ele><time>2026-03-29T08:58:40.189Z</time></trkpt><trkpt lat="44.868004" lon="8.4169972"><ele>104.66666666666666</ele><time>2026-03-29T08:58:41.19Z</time></trkpt><trkpt lat="44.867842" lon="8.4168727"><ele>104.0</ele><time>2026-03-29T08:58:42.187Z</time></trkpt><trkpt lat="44.8676943" lon="8.4167328"><ele>104.33333333333333</ele><time>2026-03-29T08:58:43.184Z</time></trkpt><trkpt lat="44.8675483" lon="8.4165942"><ele>104.66666666666666</ele><time>2026-03-29T08:58:44.182Z</time></trkpt><trkpt lat="44.8673998" lon="8.4164725"><ele>105.0</ele><time>2026-03-29T08:58:45.185Z</time></trkpt><trkpt lat="44.8672448" lon="8.4163783"><ele>105.0</ele><time>2026-03-29T08:58:46.182Z</time></trkpt><trkpt lat="44.867075" lon="8.4163202"><ele>105.0</ele><time>2026-03-29T08:58:47.185Z</time></trkpt><trkpt lat="44.8668808" lon="8.416306"><ele>105.0</ele><time>2026-03-29T08:58:48.182Z</time></trkpt><trkpt lat="44.8666608" lon="8.4163167"><ele>105.5</ele><time>2026-03-29T08:58:49.181Z</time></trkpt><trkpt lat="44.8664332" lon="8.4163373"><ele>106.0</ele><time>2026-03-29T08:58:50.181Z</time></trkpt><trkpt lat="44.8661972" lon="8.416363"><ele>106.0</ele><time>2026-03-29T08:58:51.181Z</time></trkpt><trkpt lat="44.8659608" lon="8.4163862"><ele>106.0</ele><time>2026-03-29T08:58:52.18Z</time></trkpt><trkpt lat="44.8657442" lon="8.416408"><ele>105.0</ele><time>2026-03-29T08:58:53.181Z</time></trkpt><trkpt lat="44.865547" lon="8.4164278"><ele>104.0</ele><time>2026-03-29T08:58:54.182Z</time></trkpt><trkpt lat="44.8653713" lon="8.4164387"><ele>103.0</ele><time>2026-03-29T08:58:55.182Z</time></trkpt><trkpt lat="44.8652082" lon="8.4164223"><ele>103.33333333333334</ele><time>2026-03-29T08:58:56.184Z</time></trkpt><trkpt lat="44.8650403" lon="8.4163647"><ele>103.66666666666666</ele><time>2026-03-29T08:58:57.186Z</time></trkpt><trkpt lat="44.8648558" lon="8.416262"><ele>104.0</ele><time>2026-03-29T08:58:58.184Z</time></trkpt><trkpt lat="44.8646562" lon="8.4161227"><ele>106.0</ele><time>2026-03-29T08:58:59.184Z</time></trkpt><trkpt lat="44.8644562" lon="8.4159672"><ele>108.0</ele><time>2026-03-29T08:59:00.185Z</time></trkpt><trkpt lat="44.8642498" lon="8.4158012"><ele>108.0</ele><time>2026-03-29T08:59:01.188Z</time></trkpt><trkpt lat="44.8640358" lon="8.4156317"><ele>108.0</ele><time>2026-03-29T08:59:02.187Z</time></trkpt><trkpt lat="44.8638213" lon="8.4154607"><ele>108.0</ele><time>2026-03-29T08:59:03.185Z</time></trkpt><trkpt lat="44.8636075" lon="8.41529"><ele>108.0</ele><time>2026-03-29T08:59:04.185Z</time></trkpt><trkpt lat="44.8633928" lon="8.4151242"><ele>108.0</ele><time>2026-03-29T08:59:05.187Z</time></trkpt><trkpt lat="44.8631767" lon="8.4149645"><ele>108.0</ele><time>2026-03-29T08:59:06.185Z</time></trkpt><trkpt lat="44.8629613" lon="8.4148115"><ele>108.0</ele><time>2026-03-29T08:59:07.187Z</time></trkpt><trkpt lat="44.8627457" lon="8.4146613"><ele>108.0</ele><time>2026-03-29T08:59:08.184Z</time></trkpt><trkpt lat="44.8625292" lon="8.4145077"><ele>109.5</ele><time>2026-03-29T08:59:09.185Z</time></trkpt><trkpt lat="44.8623173" lon="8.4143495"><ele>111.0</ele><time>2026-03-29T08:59:10.185Z</time></trkpt><trkpt lat="44.8621133" lon="8.4141945"><ele>111.0</ele><time>2026-03-29T08:59:11.184Z</time></trkpt><trkpt lat="44.8619133" lon="8.4140508"><ele>111.0</ele><time>2026-03-29T08:59:12.185Z</time></trkpt><trkpt lat="44.8617095" lon="8.4139398"><ele>111.0</ele><time>2026-03-29T08:59:13.187Z</time></trkpt><trkpt lat="44.8615022" lon="8.4138603"><ele>111.0</ele><time>2026-03-29T08:59:14.185Z</time></trkpt><trkpt lat="44.8613012" lon="8.413793"><ele>111.0</ele><time>2026-03-29T08:59:15.186Z</time></trkpt><trkpt lat="44.8611005" lon="8.4137093"><ele>111.0</ele><time>2026-03-29T08:59:16.183Z</time></trkpt><trkpt lat="44.8608975" lon="8.4135972"><ele>110.66666666666666</ele><time>2026-03-29T08:59:17.183Z</time></trkpt><trkpt lat="44.8606908" lon="8.4134577"><ele>110.33333333333333</ele><time>2026-03-29T08:59:18.181Z</time></trkpt><trkpt lat="44.8604978" lon="8.4133087"><ele>110.0</ele><time>2026-03-29T08:59:19.181Z</time></trkpt><trkpt lat="44.8603152" lon="8.4131478"><ele>110.0</ele><time>2026-03-29T08:59:20.181Z</time></trkpt><trkpt lat="44.8601393" lon="8.4129673"><ele>110.0</ele><time>2026-03-29T08:59:21.184Z</time></trkpt><trkpt lat="44.859962" lon="8.4127665"><ele>110.0</ele><time>2026-03-29T08:59:22.186Z</time></trkpt><trkpt lat="44.8597828" lon="8.4125505"><ele>110.0</ele><time>2026-03-29T08:59:23.184Z</time></trkpt><trkpt lat="44.85961" lon="8.4123293"><ele>110.0</ele><time>2026-03-29T08:59:24.184Z</time></trkpt><trkpt lat="44.8594507" lon="8.4121183"><ele>110.66666666666666</ele><time>2026-03-29T08:59:25.185Z</time></trkpt><trkpt lat="44.8592947" lon="8.4119223"><ele>111.33333333333334</ele><time>2026-03-29T08:59:26.187Z</time></trkpt><trkpt lat="44.85913" lon="8.4117353"><ele>112.0</ele><time>2026-03-29T08:59:27.184Z</time></trkpt><trkpt lat="44.858947" lon="8.4115592"><ele>112.0</ele><time>2026-03-29T08:59:28.186Z</time></trkpt><trkpt lat="44.8587418" lon="8.4113895"><ele>112.0</ele><time>2026-03-29T08:59:29.186Z</time></trkpt><trkpt lat="44.8585223" lon="8.4112182"><ele>110.5</ele><time>2026-03-29T08:59:30.184Z</time></trkpt><trkpt lat="44.8582937" lon="8.411047"><ele>109.0</ele><time>2026-03-29T08:59:31.185Z</time></trkpt><trkpt lat="44.8580612" lon="8.4108767"><ele>109.0</ele><time>2026-03-29T08:59:32.185Z</time></trkpt><trkpt lat="44.8578292" lon="8.4107033"><ele>109.0</ele><time>2026-03-29T08:59:33.188Z</time></trkpt><trkpt lat="44.857601" lon="8.4105218"><ele>110.0</ele><time>2026-03-29T08:59:34.185Z</time></trkpt><trkpt lat="44.8573795" lon="8.4103273"><ele>111.0</ele><time>2026-03-29T08:59:35.185Z</time></trkpt><trkpt lat="44.8571658" lon="8.4101218"><ele>111.0</ele><time>2026-03-29T08:59:36.185Z</time></trkpt><trkpt lat="44.856959" lon="8.409907"><ele>111.0</ele><time>2026-03-29T08:59:37.185Z</time></trkpt><trkpt lat="44.856758" lon="8.4096868"><ele>110.0</ele><time>2026-03-29T08:59:38.186Z</time></trkpt><trkpt lat="44.8565605" lon="8.4094673"><ele>109.0</ele><time>2026-03-29T08:59:39.186Z</time></trkpt><trkpt lat="44.8563643" lon="8.4092495"><ele>109.0</ele><time>2026-03-29T08:59:40.185Z</time></trkpt><trkpt lat="44.8561703" lon="8.4090325"><ele>109.0</ele><time>2026-03-29T08:59:41.182Z</time></trkpt><trkpt lat="44.8559798" lon="8.408815"><ele>108.0</ele><time>2026-03-29T08:59:42.183Z</time></trkpt><trkpt lat="44.8557933" lon="8.4085957"><ele>107.0</ele><time>2026-03-29T08:59:43.183Z</time></trkpt><trkpt lat="44.8556117" lon="8.4083757"><ele>107.0</ele><time>2026-03-29T08:59:44.183Z</time></trkpt><trkpt lat="44.855439" lon="8.4081618"><ele>107.0</ele><time>2026-03-29T08:59:45.186Z</time></trkpt><trkpt lat="44.85528" lon="8.4079422"><ele>107.33333333333333</ele><time>2026-03-29T08:59:46.185Z</time></trkpt><trkpt lat="44.8551322" lon="8.407696"><ele>107.66666666666666</ele><time>2026-03-29T08:59:47.185Z</time></trkpt><trkpt lat="44.8550002" lon="8.4074495"><ele>108.0</ele><time>2026-03-29T08:59:48.185Z</time></trkpt><trkpt lat="44.8548777" lon="8.407228"><ele>108.0</ele><time>2026-03-29T08:59:49.184Z</time></trkpt><trkpt lat="44.854749" lon="8.4070372"><ele>108.0</ele><time>2026-03-29T08:59:50.184Z</time></trkpt><trkpt lat="44.8545943" lon="8.4068788"><ele>108.0</ele><time>2026-03-29T08:59:51.184Z</time></trkpt><trkpt lat="44.8544125" lon="8.4067553"><ele>108.66666666666666</ele><time>2026-03-29T08:59:52.184Z</time></trkpt><trkpt lat="44.8542343" lon="8.4066448"><ele>109.33333333333333</ele><time>2026-03-29T08:59:53.185Z</time></trkpt><trkpt lat="44.854074" lon="8.406521"><ele>110.0</ele><time>2026-03-29T08:59:54.185Z</time></trkpt><trkpt lat="44.853926" lon="8.406365"><ele>112.33333333333333</ele><time>2026-03-29T08:59:55.186Z</time></trkpt><trkpt lat="44.8537845" lon="8.4061622"><ele>114.66666666666666</ele><time>2026-03-29T08:59:56.186Z</time></trkpt><trkpt lat="44.8536447" lon="8.4059233"><ele>117.0</ele><time>2026-03-29T08:59:57.185Z</time></trkpt><trkpt lat="44.853506" lon="8.4056743"><ele>115.0</ele><time>2026-03-29T08:59:58.186Z</time></trkpt><trkpt lat="44.8533627" lon="8.4054172"><ele>113.0</ele><time>2026-03-29T08:59:59.185Z</time></trkpt><trkpt lat="44.8532152" lon="8.4051592"><ele>113.0</ele><time>2026-03-29T09:00:00.185Z</time></trkpt><trkpt lat="44.8530583" lon="8.4049098"><ele>113.0</ele><time>2026-03-29T09:00:01.185Z</time></trkpt><trkpt lat="44.8528812" lon="8.404683"><ele>114.0</ele><time>2026-03-29T09:00:02.185Z</time></trkpt><trkpt lat="44.8526853" lon="8.4044722"><ele>115.0</ele><time>2026-03-29T09:00:03.19Z</time></trkpt><trkpt lat="44.8524837" lon="8.4042643"><ele>115.0</ele><time>2026-03-29T09:00:04.185Z</time></trkpt><trkpt lat="44.852283" lon="8.404053"><ele>115.0</ele><time>2026-03-29T09:00:05.183Z</time></trkpt><trkpt lat="44.8520872" lon="8.4038417"><ele>114.0</ele><time>2026-03-29T09:00:06.182Z</time></trkpt><trkpt lat="44.851901" lon="8.403642"><ele>113.0</ele><time>2026-03-29T09:00:07.182Z</time></trkpt><trkpt lat="44.8517255" lon="8.4034565"><ele>113.0</ele><time>2026-03-29T09:00:08.187Z</time></trkpt><trkpt lat="44.8515622" lon="8.4032793"><ele>113.0</ele><time>2026-03-29T09:00:09.185Z</time></trkpt><trkpt lat="44.8514137" lon="8.4031012"><ele>113.0</ele><time>2026-03-29T09:00:10.183Z</time></trkpt><trkpt lat="44.8512803" lon="8.4029015"><ele>115.0</ele><time>2026-03-29T09:00:11.182Z</time></trkpt><trkpt lat="44.851169" lon="8.4026722"><ele>117.0</ele><time>2026-03-29T09:00:12.184Z</time></trkpt><trkpt lat="44.8510832" lon="8.402407"><ele>119.0</ele><time>2026-03-29T09:00:13.184Z</time></trkpt><trkpt lat="44.8510068" lon="8.4021185"><ele>118.33333333333333</ele><time>2026-03-29T09:00:14.183Z</time></trkpt><trkpt lat="44.850921" lon="8.401831"><ele>117.66666666666666</ele><time>2026-03-29T09:00:15.182Z</time></trkpt><trkpt lat="44.8508223" lon="8.401545"><ele>117.0</ele><time>2026-03-29T09:00:16.185Z</time></trkpt><trkpt lat="44.8507233" lon="8.4012792"><ele>117.0</ele><time>2026-03-29T09:00:17.183Z</time></trkpt><trkpt lat="44.8506183" lon="8.4010337"><ele>117.0</ele><time>2026-03-29T09:00:18.183Z</time></trkpt><trkpt lat="44.8504902" lon="8.4008052"><ele>117.0</ele><time>2026-03-29T09:00:19.182Z</time></trkpt><trkpt lat="44.8503272" lon="8.4006013"><ele>118.5</ele><time>2026-03-29T09:00:20.182Z</time></trkpt><trkpt lat="44.8501358" lon="8.40041"><ele>120.0</ele><time>2026-03-29T09:00:21.183Z</time></trkpt><trkpt lat="44.849933" lon="8.4002133"><ele>120.0</ele><time>2026-03-29T09:00:22.182Z</time></trkpt><trkpt lat="44.8497252" lon="8.4000157"><ele>120.0</ele><time>2026-03-29T09:00:23.182Z</time></trkpt><trkpt lat="44.8495197" lon="8.3998173"><ele>117.5</ele><time>2026-03-29T09:00:24.185Z</time></trkpt><trkpt lat="44.8493197" lon="8.3996125"><ele>115.0</ele><time>2026-03-29T09:00:25.184Z</time></trkpt><trkpt lat="44.8491268" lon="8.3993917"><ele>115.0</ele><time>2026-03-29T09:00:26.185Z</time></trkpt><trkpt lat="44.8489415" lon="8.3991558"><ele>115.0</ele><time>2026-03-29T09:00:27.186Z</time></trkpt><trkpt lat="44.84876" lon="8.3989127"><ele>115.0</ele><time>2026-03-29T09:00:28.185Z</time></trkpt><trkpt lat="44.848588" lon="8.3986758"><ele>115.0</ele><time>2026-03-29T09:00:29.186Z</time></trkpt><trkpt lat="44.848424" lon="8.3984575"><ele>115.0</ele><time>2026-03-29T09:00:30.184Z</time></trkpt><trkpt lat="44.8482587" lon="8.3982582"><ele>115.0</ele><time>2026-03-29T09:00:31.182Z</time></trkpt><trkpt lat="44.8480915" lon="8.3980842"><ele>115.0</ele><time>2026-03-29T09:00:32.182Z</time></trkpt><trkpt lat="44.8479202" lon="8.397955"><ele>116.0</ele><time>2026-03-29T09:00:33.182Z</time></trkpt><trkpt lat="44.8477432" lon="8.3978827"><ele>117.0</ele><time>2026-03-29T09:00:34.19Z</time></trkpt><trkpt lat="44.8475562" lon="8.397857"><ele>118.0</ele><time>2026-03-29T09:00:35.185Z</time></trkpt><trkpt lat="44.847377" lon="8.3978377"><ele>118.0</ele><time>2026-03-29T09:00:36.186Z</time></trkpt><trkpt lat="44.8471998" lon="8.3977795"><ele>118.0</ele><time>2026-03-29T09:00:37.185Z</time></trkpt><trkpt lat="44.8470175" lon="8.3976673"><ele>118.0</ele><time>2026-03-29T09:00:38.185Z</time></trkpt><trkpt lat="44.8468353" lon="8.3975023"><ele>118.5</ele><time>2026-03-29T09:00:39.187Z</time></trkpt><trkpt lat="44.8466548" lon="8.3973037"><ele>119.0</ele><time>2026-03-29T09:00:40.187Z</time></trkpt><trkpt lat="44.846475" lon="8.3970947"><ele>119.0</ele><time>2026-03-29T09:00:41.186Z</time></trkpt><trkpt lat="44.8462937" lon="8.3968715"><ele>119.0</ele><time>2026-03-29T09:00:42.185Z</time></trkpt><trkpt lat="44.8461152" lon="8.3966287"><ele>118.5</ele><time>2026-03-29T09:00:43.184Z</time></trkpt><trkpt lat="44.845945" lon="8.3963675"><ele>118.0</ele><time>2026-03-29T09:00:44.187Z</time></trkpt><trkpt lat="44.8457877" lon="8.396104"><ele>118.0</ele><time>2026-03-29T09:00:45.187Z</time></trkpt><trkpt lat="44.8456428" lon="8.3958497"><ele>118.0</ele><time>2026-03-29T09:00:46.187Z</time></trkpt><trkpt lat="44.845497" lon="8.3955968"><ele>120.5</ele><time>2026-03-29T09:00:47.186Z</time></trkpt><trkpt lat="44.8453445" lon="8.3953492"><ele>123.0</ele><time>2026-03-29T09:00:48.185Z</time></trkpt><trkpt lat="44.845196" lon="8.395114"><ele>121.33333333333334</ele><time>2026-03-29T09:00:49.185Z</time></trkpt><trkpt lat="44.8450563" lon="8.3948837"><ele>119.66666666666667</ele><time>2026-03-29T09:00:50.184Z</time></trkpt><trkpt lat="44.8449243" lon="8.3946398"><ele>118.0</ele><time>2026-03-29T09:00:51.184Z</time></trkpt><trkpt lat="44.8448017" lon="8.3943772"><ele>118.0</ele><time>2026-03-29T09:00:52.183Z</time></trkpt><trkpt lat="44.8446765" lon="8.3940983"><ele>118.0</ele><time>2026-03-29T09:00:53.184Z</time></trkpt><trkpt lat="44.8445407" lon="8.3938163"><ele>118.5</ele><time>2026-03-29T09:00:54.182Z</time></trkpt><trkpt lat="44.8443898" lon="8.3935397"><ele>119.0</ele><time>2026-03-29T09:00:55.182Z</time></trkpt><trkpt lat="44.844225" lon="8.3932728"><ele>119.0</ele><time>2026-03-29T09:00:56.182Z</time></trkpt><trkpt lat="44.8440475" lon="8.393024"><ele>119.0</ele><time>2026-03-29T09:00:57.182Z</time></trkpt><trkpt lat="44.8438607" lon="8.3927967"><ele>120.0</ele><time>2026-03-29T09:00:58.184Z</time></trkpt><trkpt lat="44.8436638" lon="8.3925835"><ele>121.0</ele><time>2026-03-29T09:00:59.185Z</time></trkpt><trkpt lat="44.843457" lon="8.3923828"><ele>121.0</ele><time>2026-03-29T09:01:00.185Z</time></trkpt><trkpt lat="44.8432413" lon="8.3921937"><ele>121.0</ele><time>2026-03-29T09:01:01.185Z</time></trkpt><trkpt lat="44.843018" lon="8.3920133"><ele>121.0</ele><time>2026-03-29T09:01:02.184Z</time></trkpt><trkpt lat="44.8427907" lon="8.3918363"><ele>121.0</ele><time>2026-03-29T09:01:03.185Z</time></trkpt><trkpt lat="44.8425615" lon="8.391659"><ele>121.0</ele><time>2026-03-29T09:01:04.189Z</time></trkpt><trkpt lat="44.8423317" lon="8.391481"><ele>121.0</ele><time>2026-03-29T09:01:05.185Z</time></trkpt><trkpt lat="44.8421027" lon="8.3913022"><ele>122.0</ele><time>2026-03-29T09:01:06.186Z</time></trkpt><trkpt lat="44.8418743" lon="8.3911233"><ele>123.0</ele><time>2026-03-29T09:01:07.186Z</time></trkpt><trkpt lat="44.841646" lon="8.3909458"><ele>123.0</ele><time>2026-03-29T09:01:08.185Z</time></trkpt><trkpt lat="44.8414208" lon="8.3907643"><ele>123.0</ele><time>2026-03-29T09:01:09.188Z</time></trkpt><trkpt lat="44.8412068" lon="8.3905655"><ele>123.5</ele><time>2026-03-29T09:01:10.187Z</time></trkpt><trkpt lat="44.8410027" lon="8.3903425"><ele>124.0</ele><time>2026-03-29T09:01:11.184Z</time></trkpt><trkpt lat="44.8408043" lon="8.3901035"><ele>124.0</ele><time>2026-03-29T09:01:12.183Z</time></trkpt><trkpt lat="44.8406067" lon="8.389855"><ele>124.0</ele><time>2026-03-29T09:01:13.185Z</time></trkpt><trkpt lat="44.8404098" lon="8.3896015"><ele>125.5</ele><time>2026-03-29T09:01:14.187Z</time></trkpt><trkpt lat="44.8402163" lon="8.3893482"><ele>127.0</ele><time>2026-03-29T09:01:15.185Z</time></trkpt><trkpt lat="44.8400308" lon="8.3890872"><ele>126.5</ele><time>2026-03-29T09:01:16.184Z</time></trkpt><trkpt lat="44.839856" lon="8.3888112"><ele>126.0</ele><time>2026-03-29T09:01:17.187Z</time></trkpt><trkpt lat="44.839695" lon="8.3885173"><ele>126.0</ele><time>2026-03-29T09:01:18.184Z</time></trkpt><trkpt lat="44.839551" lon="8.3882048"><ele>126.0</ele><time>2026-03-29T09:01:19.184Z</time></trkpt><trkpt lat="44.8394252" lon="8.387875"><ele>127.5</ele><time>2026-03-29T09:01:20.182Z</time></trkpt><trkpt lat="44.8393145" lon="8.3875323"><ele>129.0</ele><time>2026-03-29T09:01:21.184Z</time></trkpt><trkpt lat="44.8392132" lon="8.387181"><ele>124.0</ele><time>2026-03-29T09:01:22.182Z</time></trkpt><trkpt lat="44.8391165" lon="8.3868263"><ele>119.0</ele><time>2026-03-29T09:01:23.184Z</time></trkpt><trkpt lat="44.8390217" lon="8.3864728"><ele>119.5</ele><time>2026-03-29T09:01:24.183Z</time></trkpt><trkpt lat="44.8389233" lon="8.3861247"><ele>120.0</ele><time>2026-03-29T09:01:25.187Z</time></trkpt><trkpt lat="44.8388168" lon="8.3857878"><ele>123.0</ele><time>2026-03-29T09:01:26.184Z</time></trkpt><trkpt lat="44.838696" lon="8.385464"><ele>126.0</ele><time>2026-03-29T09:01:27.184Z</time></trkpt><trkpt lat="44.838567" lon="8.385147"><ele>123.5</ele><time>2026-03-29T09:01:28.185Z</time></trkpt><trkpt lat="44.8384352" lon="8.3848325"><ele>121.0</ele><time>2026-03-29T09:01:29.184Z</time></trkpt><trkpt lat="44.8383017" lon="8.3845198"><ele>121.0</ele><time>2026-03-29T09:01:30.185Z</time></trkpt><trkpt lat="44.8381677" lon="8.3842085"><ele>121.0</ele><time>2026-03-29T09:01:31.185Z</time></trkpt><trkpt lat="44.8380345" lon="8.3838982"><ele>121.5</ele><time>2026-03-29T09:01:32.185Z</time></trkpt><trkpt lat="44.8379015" lon="8.3835877"><ele>122.0</ele><time>2026-03-29T09:01:33.186Z</time></trkpt><trkpt lat="44.837768" lon="8.3832752"><ele>120.5</ele><time>2026-03-29T09:01:34.187Z</time></trkpt><trkpt lat="44.837634" lon="8.3829608"><ele>119.0</ele><time>2026-03-29T09:01:35.186Z</time></trkpt><trkpt lat="44.8375" lon="8.382647"><ele>119.0</ele><time>2026-03-29T09:01:36.184Z</time></trkpt><trkpt lat="44.8373657" lon="8.3823337"><ele>119.0</ele><time>2026-03-29T09:01:37.185Z</time></trkpt><trkpt lat="44.8372313" lon="8.3820207"><ele>118.5</ele><time>2026-03-29T09:01:38.184Z</time></trkpt><trkpt lat="44.8370968" lon="8.381707"><ele>118.0</ele><time>2026-03-29T09:01:39.184Z</time></trkpt><trkpt lat="44.8369643" lon="8.3813908"><ele>118.5</ele><time>2026-03-29T09:01:40.186Z</time></trkpt><trkpt lat="44.8368367" lon="8.3810718"><ele>119.0</ele><time>2026-03-29T09:01:41.183Z</time></trkpt><trkpt lat="44.8367153" lon="8.3807482"><ele>119.0</ele><time>2026-03-29T09:01:42.183Z</time></trkpt><trkpt lat="44.8366035" lon="8.3804178"><ele>119.0</ele><time>2026-03-29T09:01:43.182Z</time></trkpt><trkpt lat="44.8365052" lon="8.380078"><ele>119.0</ele><time>2026-03-29T09:01:44.184Z</time></trkpt><trkpt lat="44.8364175" lon="8.3797312"><ele>119.0</ele><time>2026-03-29T09:01:45.183Z</time></trkpt><trkpt lat="44.8363367" lon="8.379381"><ele>119.5</ele><time>2026-03-29T09:01:46.182Z</time></trkpt><trkpt lat="44.8362608" lon="8.3790295"><ele>120.0</ele><time>2026-03-29T09:01:47.184Z</time></trkpt><trkpt lat="44.836187" lon="8.3786795"><ele>120.0</ele><time>2026-03-29T09:01:48.185Z</time></trkpt><trkpt lat="44.8361082" lon="8.3783322"><ele>120.0</ele><time>2026-03-29T09:01:49.185Z</time></trkpt><trkpt lat="44.8360207" lon="8.37799"><ele>118.5</ele><time>2026-03-29T09:01:50.185Z</time></trkpt><trkpt lat="44.8359225" lon="8.3776537"><ele>117.0</ele><time>2026-03-29T09:01:51.184Z</time></trkpt><trkpt lat="44.8358153" lon="8.377322"><ele>118.5</ele><time>2026-03-29T09:01:52.185Z</time></trkpt><trkpt lat="44.8357008" lon="8.3769933"><ele>120.0</ele><time>2026-03-29T09:01:53.185Z</time></trkpt><trkpt lat="44.8355828" lon="8.3766647"><ele>120.5</ele><time>2026-03-29T09:01:54.186Z</time></trkpt><trkpt lat="44.835464" lon="8.3763315"><ele>121.0</ele><time>2026-03-29T09:01:55.185Z</time></trkpt><trkpt lat="44.8353458" lon="8.3759963"><ele>121.0</ele><time>2026-03-29T09:01:56.185Z</time></trkpt><trkpt lat="44.8352275" lon="8.3756613"><ele>121.0</ele><time>2026-03-29T09:01:57.185Z</time></trkpt><trkpt lat="44.8351085" lon="8.375326"><ele>121.5</ele><time>2026-03-29T09:01:58.186Z</time></trkpt><trkpt lat="44.8349888" lon="8.3749913"><ele>122.0</ele><time>2026-03-29T09:01:59.184Z</time></trkpt><trkpt lat="44.8348687" lon="8.3746575"><ele>121.0</ele><time>2026-03-29T09:02:00.184Z</time></trkpt><trkpt lat="44.8347492" lon="8.374325"><ele>120.0</ele><time>2026-03-29T09:02:01.185Z</time></trkpt><trkpt lat="44.8346295" lon="8.373995"><ele>120.0</ele><time>2026-03-29T09:02:02.185Z</time></trkpt><trkpt lat="44.8345107" lon="8.3736663"><ele>120.0</ele><time>2026-03-29T09:02:03.185Z</time></trkpt><trkpt lat="44.8343933" lon="8.3733393"><ele>119.5</ele><time>2026-03-29T09:02:04.185Z</time></trkpt><trkpt lat="44.8342773" lon="8.3730135"><ele>119.0</ele><time>2026-03-29T09:02:05.185Z</time></trkpt><trkpt lat="44.8341618" lon="8.3726887"><ele>119.0</ele><time>2026-03-29T09:02:06.184Z</time></trkpt><trkpt lat="44.8340468" lon="8.3723645"><ele>119.0</ele><time>2026-03-29T09:02:07.184Z</time></trkpt><trkpt lat="44.8339323" lon="8.372043"><ele>118.0</ele><time>2026-03-29T09:02:08.185Z</time></trkpt><trkpt lat="44.8338167" lon="8.3717228"><ele>117.0</ele><time>2026-03-29T09:02:09.182Z</time></trkpt><trkpt lat="44.8337012" lon="8.3714037"><ele>119.5</ele><time>2026-03-29T09:02:10.182Z</time></trkpt><trkpt lat="44.8335873" lon="8.371086"><ele>122.0</ele><time>2026-03-29T09:02:11.181Z</time></trkpt><trkpt lat="44.8334745" lon="8.3707702"><ele>122.5</ele><time>2026-03-29T09:02:12.185Z</time></trkpt><trkpt lat="44.833358" lon="8.3704598"><ele>123.0</ele><time>2026-03-29T09:02:13.185Z</time></trkpt><trkpt lat="44.8332297" lon="8.3701613"><ele>123.0</ele><time>2026-03-29T09:02:14.183Z</time></trkpt><trkpt lat="44.8330823" lon="8.3698788"><ele>123.0</ele><time>2026-03-29T09:02:15.187Z</time></trkpt><trkpt lat="44.8329147" lon="8.3696167"><ele>126.0</ele><time>2026-03-29T09:02:16.183Z</time></trkpt><trkpt lat="44.8327295" lon="8.3693717"><ele>129.0</ele><time>2026-03-29T09:02:17.182Z</time></trkpt><trkpt lat="44.8325362" lon="8.3691412"><ele>129.0</ele><time>2026-03-29T09:02:18.184Z</time></trkpt><trkpt lat="44.8323537" lon="8.3689163"><ele>129.0</ele><time>2026-03-29T09:02:19.186Z</time></trkpt><trkpt lat="44.8321843" lon="8.3686728"><ele>132.0</ele><time>2026-03-29T09:02:20.184Z</time></trkpt><trkpt lat="44.8320293" lon="8.3684018"><ele>135.0</ele><time>2026-03-29T09:02:21.184Z</time></trkpt><trkpt lat="44.8318862" lon="8.3681065"><ele>129.0</ele><time>2026-03-29T09:02:22.184Z</time></trkpt><trkpt lat="44.8317515" lon="8.367798"><ele>123.0</ele><time>2026-03-29T09:02:23.185Z</time></trkpt><trkpt lat="44.831628" lon="8.3675005"><ele>123.0</ele><time>2026-03-29T09:02:24.183Z</time></trkpt><trkpt lat="44.8315145" lon="8.3672172"><ele>123.0</ele><time>2026-03-29T09:02:25.185Z</time></trkpt><trkpt lat="44.8314183" lon="8.3669293"><ele>126.0</ele><time>2026-03-29T09:02:26.185Z</time></trkpt><trkpt lat="44.8313453" lon="8.3666233"><ele>129.0</ele><time>2026-03-29T09:02:27.184Z</time></trkpt><trkpt lat="44.83129" lon="8.3663197"><ele>132.0</ele><time>2026-03-29T09:02:28.183Z</time></trkpt><trkpt lat="44.8312452" lon="8.3660135"><ele>135.0</ele><time>2026-03-29T09:02:29.185Z</time></trkpt><trkpt lat="44.8312085" lon="8.3656972"><ele>138.0</ele><time>2026-03-29T09:02:30.183Z</time></trkpt><trkpt lat="44.8311775" lon="8.3653783"><ele>140.66666666666666</ele><time>2026-03-29T09:02:31.185Z</time></trkpt><trkpt lat="44.8311472" lon="8.3650745"><ele>143.33333333333331</ele><time>2026-03-29T09:02:32.182Z</time></trkpt><trkpt lat="44.8311162" lon="8.364793"><ele>146.0</ele><time>2026-03-29T09:02:33.181Z</time></trkpt><trkpt lat="44.83109" lon="8.364518"><ele>148.66666666666666</ele><time>2026-03-29T09:02:34.184Z</time></trkpt><trkpt lat="44.8310782" lon="8.3642337"><ele>151.33333333333334</ele><time>2026-03-29T09:02:35.182Z</time></trkpt><trkpt lat="44.8310828" lon="8.3639253"><ele>154.0</ele><time>2026-03-29T09:02:36.183Z</time></trkpt><trkpt lat="44.8310933" lon="8.3635988"><ele>154.5</ele><time>2026-03-29T09:02:37.184Z</time></trkpt><trkpt lat="44.8311067" lon="8.3632633"><ele>155.0</ele><time>2026-03-29T09:02:38.184Z</time></trkpt><trkpt lat="44.8311297" lon="8.362921"><ele>155.0</ele><time>2026-03-29T09:02:39.184Z</time></trkpt><trkpt lat="44.8311667" lon="8.362578"><ele>155.0</ele><time>2026-03-29T09:02:40.183Z</time></trkpt><trkpt lat="44.831214" lon="8.3622548"><ele>155.0</ele><time>2026-03-29T09:02:41.182Z</time></trkpt><trkpt lat="44.8312628" lon="8.3619628"><ele>155.0</ele><time>2026-03-29T09:02:42.183Z</time></trkpt><trkpt lat="44.8312997" lon="8.3617"><ele>155.0</ele><time>2026-03-29T09:02:43.184Z</time></trkpt><trkpt lat="44.8313045" lon="8.3614485"><ele>155.66666666666666</ele><time>2026-03-29T09:02:44.183Z</time></trkpt><trkpt lat="44.8312645" lon="8.3612028"><ele>156.33333333333334</ele><time>2026-03-29T09:02:45.184Z</time></trkpt><trkpt lat="44.831185" lon="8.3609643"><ele>157.0</ele><time>2026-03-29T09:02:46.184Z</time></trkpt><trkpt lat="44.831095" lon="8.3607095"><ele>158.66666666666669</ele><time>2026-03-29T09:02:47.184Z</time></trkpt><trkpt lat="44.8310182" lon="8.3604255"><ele>160.33333333333334</ele><time>2026-03-29T09:02:48.183Z</time></trkpt><trkpt lat="44.8309663" lon="8.3601192"><ele>162.0</ele><time>2026-03-29T09:02:49.183Z</time></trkpt><trkpt lat="44.8309417" lon="8.3598062"><ele>162.5</ele><time>2026-03-29T09:02:50.183Z</time></trkpt><trkpt lat="44.830946" lon="8.359487"><ele>163.0</ele><time>2026-03-29T09:02:51.183Z</time></trkpt><trkpt lat="44.8309798" lon="8.3591725"><ele>163.0</ele><time>2026-03-29T09:02:52.182Z</time></trkpt><trkpt lat="44.831038" lon="8.3588842"><ele>163.0</ele><time>2026-03-29T09:02:53.182Z</time></trkpt><trkpt lat="44.8311118" lon="8.3586208"><ele>163.0</ele><time>2026-03-29T09:02:54.182Z</time></trkpt><trkpt lat="44.8311945" lon="8.3583638"><ele>156.66666666666669</ele><time>2026-03-29T09:02:55.185Z</time></trkpt><trkpt lat="44.8312813" lon="8.3581033"><ele>150.33333333333334</ele><time>2026-03-29T09:02:56.183Z</time></trkpt><trkpt lat="44.8313632" lon="8.3578552"><ele>144.0</ele><time>2026-03-29T09:02:57.181Z</time></trkpt><trkpt lat="44.8314383" lon="8.35762"><ele>139.0</ele><time>2026-03-29T09:02:58.181Z</time></trkpt><trkpt lat="44.8315087" lon="8.3574048"><ele>134.0</ele><time>2026-03-29T09:02:59.183Z</time></trkpt><trkpt lat="44.831582" lon="8.3572227"><ele>129.0</ele><time>2026-03-29T09:03:00.182Z</time></trkpt><trkpt lat="44.8316678" lon="8.3570767"><ele>128.25</ele><time>2026-03-29T09:03:01.186Z</time></trkpt><trkpt lat="44.8317557" lon="8.3569565"><ele>127.5</ele><time>2026-03-29T09:03:02.184Z</time></trkpt><trkpt lat="44.8318307" lon="8.3568265"><ele>126.75</ele><time>2026-03-29T09:03:03.184Z</time></trkpt><trkpt lat="44.8319108" lon="8.356674"><ele>126.0</ele><time>2026-03-29T09:03:04.185Z</time></trkpt><trkpt lat="44.8320063" lon="8.3565207"><ele>128.75</ele><time>2026-03-29T09:03:05.182Z</time></trkpt><trkpt lat="44.8320825" lon="8.356373"><ele>131.5</ele><time>2026-03-29T09:03:06.183Z</time></trkpt><trkpt lat="44.8321273" lon="8.3562197"><ele>134.25</ele><time>2026-03-29T09:03:07.183Z</time></trkpt><trkpt lat="44.8321512" lon="8.3560437"><ele>137.0</ele><time>2026-03-29T09:03:08.181Z</time></trkpt><trkpt lat="44.8321697" lon="8.3558378"><ele>137.0</ele><time>2026-03-29T09:03:09.183Z</time></trkpt><trkpt lat="44.8321888" lon="8.3556108"><ele>137.0</ele><time>2026-03-29T09:03:10.183Z</time></trkpt><trkpt lat="44.832211" lon="8.3553518"><ele>137.0</ele><time>2026-03-29T09:03:11.185Z</time></trkpt><trkpt lat="44.8322363" lon="8.3550837"><ele>136.0</ele><time>2026-03-29T09:03:12.184Z</time></trkpt><trkpt lat="44.8322705" lon="8.3547962"><ele>135.0</ele><time>2026-03-29T09:03:13.185Z</time></trkpt><trkpt lat="44.8323198" lon="8.3544893"><ele>134.0</ele><time>2026-03-29T09:03:14.184Z</time></trkpt><trkpt lat="44.8323777" lon="8.3541843"><ele>132.0</ele><time>2026-03-29T09:03:15.185Z</time></trkpt><trkpt lat="44.8324402" lon="8.3538735"><ele>130.0</ele><time>2026-03-29T09:03:16.185Z</time></trkpt><trkpt lat="44.8325025" lon="8.3535558"><ele>129.0</ele><time>2026-03-29T09:03:17.185Z</time></trkpt><trkpt lat="44.8325655" lon="8.3532358"><ele>128.0</ele><time>2026-03-29T09:03:18.185Z</time></trkpt><trkpt lat="44.8326298" lon="8.3529152"><ele>134.0</ele><time>2026-03-29T09:03:19.185Z</time></trkpt><trkpt lat="44.8327003" lon="8.3525952"><ele>140.0</ele><time>2026-03-29T09:03:20.184Z</time></trkpt><trkpt lat="44.8327833" lon="8.3522823"><ele>138.0</ele><time>2026-03-29T09:03:21.184Z</time></trkpt><trkpt lat="44.8328843" lon="8.3519818"><ele>136.0</ele><time>2026-03-29T09:03:22.183Z</time></trkpt><trkpt lat="44.8329972" lon="8.3516913"><ele>136.0</ele><time>2026-03-29T09:03:23.184Z</time></trkpt><trkpt lat="44.8331108" lon="8.3514032"><ele>136.0</ele><time>2026-03-29T09:03:24.181Z</time></trkpt><trkpt lat="44.8332155" lon="8.3511112"><ele>135.5</ele><time>2026-03-29T09:03:25.182Z</time></trkpt><trkpt lat="44.8333025" lon="8.3508075"><ele>135.0</ele><time>2026-03-29T09:03:26.183Z</time></trkpt><trkpt lat="44.8333718" lon="8.3504882"><ele>135.0</ele><time>2026-03-29T09:03:27.184Z</time></trkpt><trkpt lat="44.8334327" lon="8.3501572"><ele>135.0</ele><time>2026-03-29T09:03:28.182Z</time></trkpt><trkpt lat="44.8335033" lon="8.3498237"><ele>137.0</ele><time>2026-03-29T09:03:29.182Z</time></trkpt><trkpt lat="44.8335858" lon="8.349491"><ele>139.0</ele><time>2026-03-29T09:03:30.183Z</time></trkpt><trkpt lat="44.8336585" lon="8.3491535"><ele>138.0</ele><time>2026-03-29T09:03:31.184Z</time></trkpt><trkpt lat="44.833715" lon="8.3488065"><ele>137.0</ele><time>2026-03-29T09:03:32.183Z</time></trkpt><trkpt lat="44.8337633" lon="8.3484533"><ele>137.0</ele><time>2026-03-29T09:03:33.182Z</time></trkpt><trkpt lat="44.8338093" lon="8.3481113"><ele>137.0</ele><time>2026-03-29T09:03:34.184Z</time></trkpt><trkpt lat="44.8338522" lon="8.3477908"><ele>136.0</ele><time>2026-03-29T09:03:35.184Z</time></trkpt><trkpt lat="44.833885" lon="8.3474812"><ele>135.0</ele><time>2026-03-29T09:03:36.182Z</time></trkpt><trkpt lat="44.8338965" lon="8.347165"><ele>134.0</ele><time>2026-03-29T09:03:37.184Z</time></trkpt><trkpt lat="44.8338768" lon="8.3468407"><ele>133.5</ele><time>2026-03-29T09:03:38.185Z</time></trkpt><trkpt lat="44.8338237" lon="8.3465112"><ele>133.0</ele><time>2026-03-29T09:03:39.184Z</time></trkpt><trkpt lat="44.8337448" lon="8.3461767"><ele>134.0</ele><time>2026-03-29T09:03:40.187Z</time></trkpt><trkpt lat="44.8336558" lon="8.3458385"><ele>135.0</ele><time>2026-03-29T09:03:41.184Z</time></trkpt><trkpt lat="44.8335635" lon="8.3454982"><ele>132.0</ele><time>2026-03-29T09:03:42.185Z</time></trkpt><trkpt lat="44.8334715" lon="8.3451552"><ele>129.0</ele><time>2026-03-29T09:03:43.185Z</time></trkpt><trkpt lat="44.833381" lon="8.3448113"><ele>131.0</ele><time>2026-03-29T09:03:44.184Z</time></trkpt><trkpt lat="44.8332917" lon="8.3444705"><ele>133.0</ele><time>2026-03-29T09:03:45.186Z</time></trkpt><trkpt lat="44.8332017" lon="8.3441332"><ele>135.0</ele><time>2026-03-29T09:03:46.182Z</time></trkpt><trkpt lat="44.8331088" lon="8.3437983"><ele>137.0</ele><time>2026-03-29T09:03:47.182Z</time></trkpt><trkpt lat="44.8330138" lon="8.3434643"><ele>137.0</ele><time>2026-03-29T09:03:48.183Z</time></trkpt><trkpt lat="44.8329188" lon="8.3431305"><ele>137.0</ele><time>2026-03-29T09:03:49.183Z</time></trkpt><trkpt lat="44.8328267" lon="8.3427972"><ele>136.5</ele><time>2026-03-29T09:03:50.184Z</time></trkpt><trkpt lat="44.8327328" lon="8.3424693"><ele>136.0</ele><time>2026-03-29T09:03:51.186Z</time></trkpt><trkpt lat="44.832632" lon="8.342149"><ele>136.0</ele><time>2026-03-29T09:03:52.185Z</time></trkpt><trkpt lat="44.8325262" lon="8.341834"><ele>136.0</ele><time>2026-03-29T09:03:53.186Z</time></trkpt><trkpt lat="44.8324168" lon="8.3415257"><ele>135.5</ele><time>2026-03-29T09:03:54.184Z</time></trkpt><trkpt lat="44.8322997" lon="8.3412283"><ele>135.0</ele><time>2026-03-29T09:03:55.185Z</time></trkpt><trkpt lat="44.8321632" lon="8.340946"><ele>135.0</ele><time>2026-03-29T09:03:56.186Z</time></trkpt><trkpt lat="44.8320022" lon="8.3406828"><ele>135.0</ele><time>2026-03-29T09:03:57.184Z</time></trkpt><trkpt lat="44.8318273" lon="8.3404307"><ele>134.0</ele><time>2026-03-29T09:03:58.185Z</time></trkpt><trkpt lat="44.8316608" lon="8.3401837"><ele>133.0</ele><time>2026-03-29T09:03:59.184Z</time></trkpt><trkpt lat="44.8315133" lon="8.3399315"><ele>139.0</ele><time>2026-03-29T09:04:00.184Z</time></trkpt><trkpt lat="44.8313888" lon="8.3396543"><ele>145.0</ele><time>2026-03-29T09:04:01.186Z</time></trkpt><trkpt lat="44.8312908" lon="8.3393517"><ele>145.0</ele><time>2026-03-29T09:04:02.185Z</time></trkpt><trkpt lat="44.8312233" lon="8.3390303"><ele>145.0</ele><time>2026-03-29T09:04:03.184Z</time></trkpt><trkpt lat="44.8311873" lon="8.338698"><ele>145.5</ele><time>2026-03-29T09:04:04.185Z</time></trkpt><trkpt lat="44.8311637" lon="8.338363"><ele>146.0</ele><time>2026-03-29T09:04:05.184Z</time></trkpt><trkpt lat="44.831134" lon="8.3380283"><ele>145.0</ele><time>2026-03-29T09:04:06.185Z</time></trkpt><trkpt lat="44.8310887" lon="8.3376967"><ele>144.0</ele><time>2026-03-29T09:04:07.185Z</time></trkpt><trkpt lat="44.8310262" lon="8.3373708"><ele>139.5</ele><time>2026-03-29T09:04:08.187Z</time></trkpt><trkpt lat="44.8309545" lon="8.3370497"><ele>135.0</ele><time>2026-03-29T09:04:09.183Z</time></trkpt><trkpt lat="44.8308873" lon="8.3367403"><ele>135.0</ele><time>2026-03-29T09:04:10.183Z</time></trkpt><trkpt lat="44.8308313" lon="8.3364357"><ele>135.0</ele><time>2026-03-29T09:04:11.182Z</time></trkpt><trkpt lat="44.8307918" lon="8.3361235"><ele>135.0</ele><time>2026-03-29T09:04:12.182Z</time></trkpt><trkpt lat="44.8307732" lon="8.3358208"><ele>135.33333333333334</ele><time>2026-03-29T09:04:13.184Z</time></trkpt><trkpt lat="44.8307653" lon="8.3355335"><ele>135.66666666666669</ele><time>2026-03-29T09:04:14.182Z</time></trkpt><trkpt lat="44.8307528" lon="8.3352643"><ele>136.0</ele><time>2026-03-29T09:04:15.185Z</time></trkpt><trkpt lat="44.8307265" lon="8.3350103"><ele>136.0</ele><time>2026-03-29T09:04:16.185Z</time></trkpt><trkpt lat="44.8306847" lon="8.3347638"><ele>136.0</ele><time>2026-03-29T09:04:17.185Z</time></trkpt><trkpt lat="44.830626" lon="8.3345143"><ele>136.0</ele><time>2026-03-29T09:04:18.189Z</time></trkpt><trkpt lat="44.8305523" lon="8.3342605"><ele>136.66666666666669</ele><time>2026-03-29T09:04:19.185Z</time></trkpt><trkpt lat="44.830463" lon="8.3340042"><ele>137.33333333333334</ele><time>2026-03-29T09:04:20.184Z</time></trkpt><trkpt lat="44.8303648" lon="8.3337427"><ele>138.0</ele><time>2026-03-29T09:04:21.183Z</time></trkpt><trkpt lat="44.8302648" lon="8.3334788"><ele>138.0</ele><time>2026-03-29T09:04:22.184Z</time></trkpt><trkpt lat="44.830162" lon="8.3332217"><ele>138.0</ele><time>2026-03-29T09:04:23.184Z</time></trkpt><trkpt lat="44.830054" lon="8.3329627"><ele>138.0</ele><time>2026-03-29T09:04:24.186Z</time></trkpt><trkpt lat="44.8299487" lon="8.3327108"><ele>137.33333333333334</ele><time>2026-03-29T09:04:25.184Z</time></trkpt><trkpt lat="44.8298502" lon="8.3324708"><ele>136.66666666666669</ele><time>2026-03-29T09:04:26.187Z</time></trkpt><trkpt lat="44.82976" lon="8.332239"><ele>136.0</ele><time>2026-03-29T09:04:27.185Z</time></trkpt><trkpt lat="44.8296795" lon="8.3320068"><ele>138.66666666666669</ele><time>2026-03-29T09:04:28.186Z</time></trkpt><trkpt lat="44.8296058" lon="8.3317748"><ele>141.33333333333334</ele><time>2026-03-29T09:04:29.184Z</time></trkpt><trkpt lat="44.8295392" lon="8.3315427"><ele>144.0</ele><time>2026-03-29T09:04:30.185Z</time></trkpt><trkpt lat="44.8294815" lon="8.3313085"><ele>144.33333333333334</ele><time>2026-03-29T09:04:31.184Z</time></trkpt><trkpt lat="44.8294317" lon="8.331072"><ele>144.66666666666669</ele><time>2026-03-29T09:04:32.184Z</time></trkpt><trkpt lat="44.8293887" lon="8.3308348"><ele>145.0</ele><time>2026-03-29T09:04:33.187Z</time></trkpt><trkpt lat="44.8293525" lon="8.3306023"><ele>143.66666666666669</ele><time>2026-03-29T09:04:34.184Z</time></trkpt><trkpt lat="44.8293253" lon="8.3303822"><ele>142.33333333333334</ele><time>2026-03-29T09:04:35.183Z</time></trkpt><trkpt lat="44.8293053" lon="8.3301733"><ele>141.0</ele><time>2026-03-29T09:04:36.183Z</time></trkpt><trkpt lat="44.8292908" lon="8.3299705"><ele>139.5</ele><time>2026-03-29T09:04:37.184Z</time></trkpt><trkpt lat="44.8292843" lon="8.3297755"><ele>138.0</ele><time>2026-03-29T09:04:38.182Z</time></trkpt><trkpt lat="44.829288" lon="8.3295923"><ele>136.5</ele><time>2026-03-29T09:04:39.182Z</time></trkpt><trkpt lat="44.82929" lon="8.3294028"><ele>135.0</ele><time>2026-03-29T09:04:40.184Z</time></trkpt><trkpt lat="44.8292868" lon="8.3292028"><ele>135.0</ele><time>2026-03-29T09:04:41.182Z</time></trkpt><trkpt lat="44.8292827" lon="8.328997"><ele>135.0</ele><time>2026-03-29T09:04:42.185Z</time></trkpt><trkpt lat="44.8292798" lon="8.3287965"><ele>135.0</ele><time>2026-03-29T09:04:43.186Z</time></trkpt><trkpt lat="44.8292795" lon="8.3286005"><ele>135.0</ele><time>2026-03-29T09:04:44.183Z</time></trkpt><trkpt lat="44.8292822" lon="8.3284062"><ele>135.0</ele><time>2026-03-29T09:04:45.185Z</time></trkpt><trkpt lat="44.8292848" lon="8.3282148"><ele>135.0</ele><time>2026-03-29T09:04:46.184Z</time></trkpt><trkpt lat="44.8292877" lon="8.3280267"><ele>135.0</ele><time>2026-03-29T09:04:47.184Z</time></trkpt><trkpt lat="44.8292913" lon="8.327842"><ele>135.0</ele><time>2026-03-29T09:04:48.183Z</time></trkpt><trkpt lat="44.8292942" lon="8.3276592"><ele>135.5</ele><time>2026-03-29T09:04:49.184Z</time></trkpt><trkpt lat="44.829297" lon="8.3274772"><ele>136.0</ele><time>2026-03-29T09:04:50.182Z</time></trkpt><trkpt lat="44.829299" lon="8.3272895"><ele>136.5</ele><time>2026-03-29T09:04:51.184Z</time></trkpt><trkpt lat="44.829301" lon="8.3270983"><ele>137.0</ele><time>2026-03-29T09:04:52.183Z</time></trkpt><trkpt lat="44.8293018" lon="8.326914"><ele>137.0</ele><time>2026-03-29T09:04:53.184Z</time></trkpt><trkpt lat="44.8293042" lon="8.3267387"><ele>137.0</ele><time>2026-03-29T09:04:54.184Z</time></trkpt><trkpt lat="44.8293053" lon="8.3265585"><ele>137.0</ele><time>2026-03-29T09:04:55.186Z</time></trkpt><trkpt lat="44.829308" lon="8.3263718"><ele>137.0</ele><time>2026-03-29T09:04:56.185Z</time></trkpt><trkpt lat="44.8293115" lon="8.3261785"><ele>137.75</ele><time>2026-03-29T09:04:57.184Z</time></trkpt><trkpt lat="44.8293155" lon="8.325982"><ele>138.5</ele><time>2026-03-29T09:04:58.185Z</time></trkpt><trkpt lat="44.8293192" lon="8.3257818"><ele>139.25</ele><time>2026-03-29T09:04:59.182Z</time></trkpt><trkpt lat="44.8293232" lon="8.325578"><ele>140.0</ele><time>2026-03-29T09:05:00.181Z</time></trkpt><trkpt lat="44.8293338" lon="8.3253682"><ele>140.0</ele><time>2026-03-29T09:05:01.182Z</time></trkpt><trkpt lat="44.8293595" lon="8.3251548"><ele>140.0</ele><time>2026-03-29T09:05:02.181Z</time></trkpt><trkpt lat="44.8294005" lon="8.3249367"><ele>140.0</ele><time>2026-03-29T09:05:03.183Z</time></trkpt><trkpt lat="44.8294597" lon="8.3247107"><ele>139.66666666666666</ele><time>2026-03-29T09:05:04.184Z</time></trkpt><trkpt lat="44.82954" lon="8.3244777"><ele>139.33333333333334</ele><time>2026-03-29T09:05:05.183Z</time></trkpt><trkpt lat="44.829636" lon="8.3242497"><ele>139.0</ele><time>2026-03-29T09:05:06.182Z</time></trkpt><trkpt lat="44.8297468" lon="8.324015"><ele>138.33333333333334</ele><time>2026-03-29T09:05:07.182Z</time></trkpt><trkpt lat="44.8298683" lon="8.3237697"><ele>137.66666666666666</ele><time>2026-03-29T09:05:08.182Z</time></trkpt><trkpt lat="44.8299925" lon="8.3235208"><ele>137.0</ele><time>2026-03-29T09:05:09.183Z</time></trkpt><trkpt lat="44.8301122" lon="8.323272"><ele>140.33333333333331</ele><time>2026-03-29T09:05:10.183Z</time></trkpt><trkpt lat="44.8302238" lon="8.3230157"><ele>143.66666666666666</ele><time>2026-03-29T09:05:11.185Z</time></trkpt><trkpt lat="44.8303247" lon="8.3227477"><ele>147.0</ele><time>2026-03-29T09:05:12.182Z</time></trkpt><trkpt lat="44.8304108" lon="8.3224675"><ele>146.0</ele><time>2026-03-29T09:05:13.183Z</time></trkpt><trkpt lat="44.8304783" lon="8.3221745"><ele>145.0</ele><time>2026-03-29T09:05:14.184Z</time></trkpt><trkpt lat="44.8305242" lon="8.3218703"><ele>144.0</ele><time>2026-03-29T09:05:15.183Z</time></trkpt><trkpt lat="44.8305515" lon="8.3215595"><ele>142.66666666666666</ele><time>2026-03-29T09:05:16.183Z</time></trkpt><trkpt lat="44.8305618" lon="8.3212437"><ele>141.33333333333331</ele><time>2026-03-29T09:05:17.184Z</time></trkpt><trkpt lat="44.8305603" lon="8.3209267"><ele>140.0</ele><time>2026-03-29T09:05:18.184Z</time></trkpt><trkpt lat="44.8305487" lon="8.3206148"><ele>139.66666666666666</ele><time>2026-03-29T09:05:19.184Z</time></trkpt><trkpt lat="44.8305213" lon="8.3203052"><ele>139.33333333333334</ele><time>2026-03-29T09:05:20.183Z</time></trkpt><trkpt lat="44.830471" lon="8.3199972"><ele>139.0</ele><time>2026-03-29T09:05:21.184Z</time></trkpt><trkpt lat="44.8303968" lon="8.3196928"><ele>140.0</ele><time>2026-03-29T09:05:22.184Z</time></trkpt><trkpt lat="44.8303117" lon="8.3193982"><ele>141.0</ele><time>2026-03-29T09:05:23.182Z</time></trkpt><trkpt lat="44.8302255" lon="8.3191178"><ele>142.0</ele><time>2026-03-29T09:05:24.183Z</time></trkpt><trkpt lat="44.8301392" lon="8.3188443"><ele>141.33333333333334</ele><time>2026-03-29T09:05:25.181Z</time></trkpt><trkpt lat="44.830054" lon="8.3185725"><ele>140.66666666666666</ele><time>2026-03-29T09:05:26.181Z</time></trkpt><trkpt lat="44.8299687" lon="8.3183"><ele>140.0</ele><time>2026-03-29T09:05:27.181Z</time></trkpt><trkpt lat="44.8298828" lon="8.3180278"><ele>140.0</ele><time>2026-03-29T09:05:28.184Z</time></trkpt><trkpt lat="44.8297953" lon="8.3177565"><ele>140.0</ele><time>2026-03-29T09:05:29.183Z</time></trkpt><trkpt lat="44.829707" lon="8.3174808"><ele>140.0</ele><time>2026-03-29T09:05:30.186Z</time></trkpt><trkpt lat="44.8296188" lon="8.3172"><ele>141.33333333333331</ele><time>2026-03-29T09:05:31.185Z</time></trkpt><trkpt lat="44.8295298" lon="8.3169145"><ele>142.66666666666666</ele><time>2026-03-29T09:05:32.184Z</time></trkpt><trkpt lat="44.8294382" lon="8.3166247"><ele>144.0</ele><time>2026-03-29T09:05:33.184Z</time></trkpt><trkpt lat="44.8293455" lon="8.3163342"><ele>144.33333333333334</ele><time>2026-03-29T09:05:34.185Z</time></trkpt><trkpt lat="44.8292537" lon="8.316046"><ele>144.66666666666669</ele><time>2026-03-29T09:05:35.185Z</time></trkpt><trkpt lat="44.8291577" lon="8.3157598"><ele>145.0</ele><time>2026-03-29T09:05:36.185Z</time></trkpt><trkpt lat="44.8290485" lon="8.3154778"><ele>145.0</ele><time>2026-03-29T09:05:37.184Z</time></trkpt><trkpt lat="44.8289247" lon="8.3152028"><ele>145.0</ele><time>2026-03-29T09:05:38.184Z</time></trkpt><trkpt lat="44.828793" lon="8.3149355"><ele>149.5</ele><time>2026-03-29T09:05:39.186Z</time></trkpt><trkpt lat="44.8286587" lon="8.3146717"><ele>154.0</ele><time>2026-03-29T09:05:40.186Z</time></trkpt><trkpt lat="44.8285228" lon="8.3144058"><ele>149.0</ele><time>2026-03-29T09:05:41.183Z</time></trkpt><trkpt lat="44.8283857" lon="8.3141403"><ele>144.0</ele><time>2026-03-29T09:05:42.185Z</time></trkpt><trkpt lat="44.8282512" lon="8.3138803"><ele>143.33333333333334</ele><time>2026-03-29T09:05:43.182Z</time></trkpt><trkpt lat="44.8281188" lon="8.313623"><ele>142.66666666666669</ele><time>2026-03-29T09:05:44.181Z</time></trkpt><trkpt lat="44.8279898" lon="8.3133682"><ele>142.0</ele><time>2026-03-29T09:05:45.182Z</time></trkpt><trkpt lat="44.8278665" lon="8.3131242"><ele>141.66666666666669</ele><time>2026-03-29T09:05:46.187Z</time></trkpt><trkpt lat="44.8277455" lon="8.3128867"><ele>141.33333333333334</ele><time>2026-03-29T09:05:47.185Z</time></trkpt><trkpt lat="44.8276278" lon="8.312647"><ele>141.0</ele><time>2026-03-29T09:05:48.184Z</time></trkpt><trkpt lat="44.8275142" lon="8.3123952"><ele>141.33333333333334</ele><time>2026-03-29T09:05:49.182Z</time></trkpt><trkpt lat="44.8274153" lon="8.3121215"><ele>141.66666666666669</ele><time>2026-03-29T09:05:50.182Z</time></trkpt><trkpt lat="44.827333" lon="8.3118253"><ele>142.0</ele><time>2026-03-29T09:05:51.183Z</time></trkpt><trkpt lat="44.8272618" lon="8.311513"><ele>143.0</ele><time>2026-03-29T09:05:52.188Z</time></trkpt><trkpt lat="44.8271932" lon="8.3111958"><ele>144.0</ele><time>2026-03-29T09:05:53.184Z</time></trkpt><trkpt lat="44.8271253" lon="8.3108817"><ele>145.0</ele><time>2026-03-29T09:05:54.186Z</time></trkpt><trkpt lat="44.8270588" lon="8.3105725"><ele>146.0</ele><time>2026-03-29T09:05:55.185Z</time></trkpt><trkpt lat="44.826995" lon="8.3102753"><ele>147.0</ele><time>2026-03-29T09:05:56.185Z</time></trkpt><trkpt lat="44.8269358" lon="8.3099922"><ele>146.33333333333334</ele><time>2026-03-29T09:05:57.185Z</time></trkpt><trkpt lat="44.8268775" lon="8.3097115"><ele>145.66666666666669</ele><time>2026-03-29T09:05:58.186Z</time></trkpt><trkpt lat="44.8268177" lon="8.3094298"><ele>145.0</ele><time>2026-03-29T09:05:59.186Z</time></trkpt><trkpt lat="44.826756" lon="8.3091453"><ele>143.66666666666669</ele><time>2026-03-29T09:06:00.185Z</time></trkpt><trkpt lat="44.8266945" lon="8.3088575"><ele>142.33333333333334</ele><time>2026-03-29T09:06:01.186Z</time></trkpt><trkpt lat="44.8266333" lon="8.3085705"><ele>141.0</ele><time>2026-03-29T09:06:02.187Z</time></trkpt><trkpt lat="44.8265732" lon="8.3082893"><ele>141.66666666666666</ele><time>2026-03-29T09:06:03.185Z</time></trkpt><trkpt lat="44.826515" lon="8.3080163"><ele>142.33333333333331</ele><time>2026-03-29T09:06:04.185Z</time></trkpt><trkpt lat="44.8264625" lon="8.3077558"><ele>143.0</ele><time>2026-03-29T09:06:05.185Z</time></trkpt><trkpt lat="44.8264175" lon="8.3075018"><ele>143.0</ele><time>2026-03-29T09:06:06.185Z</time></trkpt><trkpt lat="44.8263803" lon="8.307245"><ele>143.0</ele><time>2026-03-29T09:06:07.185Z</time></trkpt><trkpt lat="44.8263507" lon="8.3069728"><ele>143.0</ele><time>2026-03-29T09:06:08.186Z</time></trkpt><trkpt lat="44.8263262" lon="8.306682"><ele>144.0</ele><time>2026-03-29T09:06:09.188Z</time></trkpt><trkpt lat="44.8263032" lon="8.3063778"><ele>145.0</ele><time>2026-03-29T09:06:10.186Z</time></trkpt><trkpt lat="44.8262792" lon="8.3060643"><ele>146.0</ele><time>2026-03-29T09:06:11.185Z</time></trkpt><trkpt lat="44.8262538" lon="8.3057472"><ele>145.5</ele><time>2026-03-29T09:06:12.187Z</time></trkpt><trkpt lat="44.8262307" lon="8.3054268"><ele>145.0</ele><time>2026-03-29T09:06:13.185Z</time></trkpt><trkpt lat="44.8262087" lon="8.3051032"><ele>145.0</ele><time>2026-03-29T09:06:14.183Z</time></trkpt><trkpt lat="44.8261868" lon="8.3047778"><ele>145.0</ele><time>2026-03-29T09:06:15.184Z</time></trkpt><trkpt lat="44.826165" lon="8.3044505"><ele>145.0</ele><time>2026-03-29T09:06:16.184Z</time></trkpt><trkpt lat="44.8261417" lon="8.3041245"><ele>145.0</ele><time>2026-03-29T09:06:17.186Z</time></trkpt><trkpt lat="44.8261182" lon="8.3038095"><ele>146.0</ele><time>2026-03-29T09:06:18.186Z</time></trkpt><trkpt lat="44.8260953" lon="8.303509"><ele>147.0</ele><time>2026-03-29T09:06:19.185Z</time></trkpt><trkpt lat="44.8260758" lon="8.303208"><ele>148.0</ele><time>2026-03-29T09:06:20.185Z</time></trkpt><trkpt lat="44.8260655" lon="8.3029063"><ele>148.33333333333334</ele><time>2026-03-29T09:06:21.185Z</time></trkpt><trkpt lat="44.8260692" lon="8.302604"><ele>148.66666666666666</ele><time>2026-03-29T09:06:22.185Z</time></trkpt><trkpt lat="44.8260887" lon="8.3023047"><ele>149.0</ele><time>2026-03-29T09:06:23.186Z</time></trkpt><trkpt lat="44.8261177" lon="8.3020187"><ele>149.0</ele><time>2026-03-29T09:06:24.185Z</time></trkpt><trkpt lat="44.8261485" lon="8.3017515"><ele>149.0</ele><time>2026-03-29T09:06:25.184Z</time></trkpt><trkpt lat="44.8261792" lon="8.3014997"><ele>149.0</ele><time>2026-03-29T09:06:26.185Z</time></trkpt><trkpt lat="44.8262092" lon="8.3012565"><ele>149.0</ele><time>2026-03-29T09:06:27.183Z</time></trkpt><trkpt lat="44.8262362" lon="8.301017"><ele>149.0</ele><time>2026-03-29T09:06:28.184Z</time></trkpt><trkpt lat="44.826263" lon="8.3007768"><ele>149.0</ele><time>2026-03-29T09:06:29.183Z</time></trkpt><trkpt lat="44.8262893" lon="8.3005355"><ele>149.33333333333331</ele><time>2026-03-29T09:06:30.184Z</time></trkpt><trkpt lat="44.8263112" lon="8.3003018"><ele>149.66666666666666</ele><time>2026-03-29T09:06:31.185Z</time></trkpt><trkpt lat="44.8263242" lon="8.300082"><ele>150.0</ele><time>2026-03-29T09:06:32.185Z</time></trkpt><trkpt lat="44.8263262" lon="8.2998712"><ele>150.75</ele><time>2026-03-29T09:06:33.187Z</time></trkpt><trkpt lat="44.8263143" lon="8.2996623"><ele>151.5</ele><time>2026-03-29T09:06:34.184Z</time></trkpt><trkpt lat="44.8262898" lon="8.2994567"><ele>152.25</ele><time>2026-03-29T09:06:35.184Z</time></trkpt><trkpt lat="44.8262558" lon="8.2992532"><ele>153.0</ele><time>2026-03-29T09:06:36.186Z</time></trkpt><trkpt lat="44.8262113" lon="8.2990505"><ele>152.0</ele><time>2026-03-29T09:06:37.182Z</time></trkpt><trkpt lat="44.8261592" lon="8.298864"><ele>151.0</ele><time>2026-03-29T09:06:38.181Z</time></trkpt><trkpt lat="44.8261015" lon="8.298699"><ele>150.0</ele><time>2026-03-29T09:06:39.183Z</time></trkpt><trkpt lat="44.8260422" lon="8.2985362"><ele>149.0</ele><time>2026-03-29T09:06:40.182Z</time></trkpt><trkpt lat="44.8259852" lon="8.298377"><ele>148.5</ele><time>2026-03-29T09:06:41.182Z</time></trkpt><trkpt lat="44.8259323" lon="8.2982295"><ele>148.0</ele><time>2026-03-29T09:06:42.183Z</time></trkpt><trkpt lat="44.8258825" lon="8.2980883"><ele>147.5</ele><time>2026-03-29T09:06:43.184Z</time></trkpt><trkpt lat="44.8258358" lon="8.297944"><ele>147.0</ele><time>2026-03-29T09:06:44.183Z</time></trkpt><trkpt lat="44.8257858" lon="8.2978"><ele>147.0</ele><time>2026-03-29T09:06:45.18Z</time></trkpt><trkpt lat="44.8257308" lon="8.2976585"><ele>147.0</ele><time>2026-03-29T09:06:46.183Z</time></trkpt><trkpt lat="44.8256605" lon="8.2975265"><ele>147.0</ele><time>2026-03-29T09:06:47.181Z</time></trkpt><trkpt lat="44.8255942" lon="8.2973975"><ele>147.0</ele><time>2026-03-29T09:06:48.18Z</time></trkpt><trkpt lat="44.8255243" lon="8.2972772"><ele>147.25</ele><time>2026-03-29T09:06:49.185Z</time></trkpt><trkpt lat="44.8254428" lon="8.297161"><ele>147.5</ele><time>2026-03-29T09:06:50.182Z</time></trkpt><trkpt lat="44.8253447" lon="8.2970563"><ele>147.75</ele><time>2026-03-29T09:06:51.183Z</time></trkpt><trkpt lat="44.8252433" lon="8.2969582"><ele>148.0</ele><time>2026-03-29T09:06:52.184Z</time></trkpt><trkpt lat="44.8251345" lon="8.2968642"><ele>147.5</ele><time>2026-03-29T09:06:53.183Z</time></trkpt><trkpt lat="44.8250225" lon="8.2967725"><ele>147.0</ele><time>2026-03-29T09:06:54.184Z</time></trkpt><trkpt lat="44.824909" lon="8.2966783"><ele>146.5</ele><time>2026-03-29T09:06:55.182Z</time></trkpt><trkpt lat="44.8247932" lon="8.2965838"><ele>146.0</ele><time>2026-03-29T09:06:56.182Z</time></trkpt><trkpt lat="44.8246763" lon="8.296484"><ele>146.0</ele><time>2026-03-29T09:06:57.182Z</time></trkpt><trkpt lat="44.8245592" lon="8.2963817"><ele>146.0</ele><time>2026-03-29T09:06:58.185Z</time></trkpt><trkpt lat="44.8244422" lon="8.2962765"><ele>146.0</ele><time>2026-03-29T09:06:59.183Z</time></trkpt><trkpt lat="44.8243238" lon="8.2961692"><ele>146.0</ele><time>2026-03-29T09:07:00.183Z</time></trkpt><trkpt lat="44.8242022" lon="8.2960637"><ele>145.75</ele><time>2026-03-29T09:07:01.185Z</time></trkpt><trkpt lat="44.824079" lon="8.2959602"><ele>145.5</ele><time>2026-03-29T09:07:02.182Z</time></trkpt><trkpt lat="44.8239563" lon="8.295857"><ele>145.25</ele><time>2026-03-29T09:07:03.182Z</time></trkpt><trkpt lat="44.8238363" lon="8.2957558"><ele>145.0</ele><time>2026-03-29T09:07:04.183Z</time></trkpt><trkpt lat="44.8237175" lon="8.2956558"><ele>144.75</ele><time>2026-03-29T09:07:05.182Z</time></trkpt><trkpt lat="44.8235983" lon="8.2955567"><ele>144.5</ele><time>2026-03-29T09:07:06.185Z</time></trkpt><trkpt lat="44.823485" lon="8.2954462"><ele>144.25</ele><time>2026-03-29T09:07:07.185Z</time></trkpt><trkpt lat="44.8233902" lon="8.2953158"><ele>144.0</ele><time>2026-03-29T09:07:08.183Z</time></trkpt><trkpt lat="44.8233183" lon="8.2951582"><ele>144.0</ele><time>2026-03-29T09:07:09.185Z</time></trkpt><trkpt lat="44.8232637" lon="8.2949765"><ele>144.0</ele><time>2026-03-29T09:07:10.185Z</time></trkpt><trkpt lat="44.8232197" lon="8.2947823"><ele>144.0</ele><time>2026-03-29T09:07:11.185Z</time></trkpt><trkpt lat="44.8231847" lon="8.2945993"><ele>144.0</ele><time>2026-03-29T09:07:12.185Z</time></trkpt><trkpt lat="44.823155" lon="8.2944323"><ele>144.0</ele><time>2026-03-29T09:07:13.184Z</time></trkpt><trkpt lat="44.8231272" lon="8.2942732"><ele>144.0</ele><time>2026-03-29T09:07:14.185Z</time></trkpt><trkpt lat="44.8230985" lon="8.2941092"><ele>144.0</ele><time>2026-03-29T09:07:15.187Z</time></trkpt><trkpt lat="44.8230667" lon="8.2939387"><ele>144.0</ele><time>2026-03-29T09:07:16.187Z</time></trkpt><trkpt lat="44.8230345" lon="8.293766"><ele>144.0</ele><time>2026-03-29T09:07:17.185Z</time></trkpt><trkpt lat="44.8230033" lon="8.2935938"><ele>144.0</ele><time>2026-03-29T09:07:18.185Z</time></trkpt><trkpt lat="44.822976" lon="8.2934187"><ele>144.0</ele><time>2026-03-29T09:07:19.184Z</time></trkpt><trkpt lat="44.8229512" lon="8.2932407"><ele>144.0</ele><time>2026-03-29T09:07:20.184Z</time></trkpt><trkpt lat="44.8229323" lon="8.2930518"><ele>144.0</ele><time>2026-03-29T09:07:21.184Z</time></trkpt><trkpt lat="44.8229315" lon="8.2928517"><ele>144.0</ele><time>2026-03-29T09:07:22.183Z</time></trkpt><trkpt lat="44.8229432" lon="8.2926427"><ele>144.0</ele><time>2026-03-29T09:07:23.182Z</time></trkpt><trkpt lat="44.8229677" lon="8.2924243"><ele>144.0</ele><time>2026-03-29T09:07:24.182Z</time></trkpt><trkpt lat="44.8230047" lon="8.2921977"><ele>144.33333333333334</ele><time>2026-03-29T09:07:25.183Z</time></trkpt><trkpt lat="44.8230462" lon="8.2919745"><ele>144.66666666666669</ele><time>2026-03-29T09:07:26.182Z</time></trkpt><trkpt lat="44.8230925" lon="8.2917438"><ele>145.0</ele><time>2026-03-29T09:07:27.182Z</time></trkpt><trkpt lat="44.823141" lon="8.2915028"><ele>145.33333333333334</ele><time>2026-03-29T09:07:28.18Z</time></trkpt><trkpt lat="44.823191" lon="8.2912517"><ele>145.66666666666666</ele><time>2026-03-29T09:07:29.181Z</time></trkpt><trkpt lat="44.8232445" lon="8.2909905"><ele>146.0</ele><time>2026-03-29T09:07:30.182Z</time></trkpt><trkpt lat="44.8233002" lon="8.2907233"><ele>145.33333333333331</ele><time>2026-03-29T09:07:31.184Z</time></trkpt><trkpt lat="44.8233472" lon="8.2904447"><ele>144.66666666666666</ele><time>2026-03-29T09:07:32.182Z</time></trkpt><trkpt lat="44.8233817" lon="8.2901575"><ele>144.0</ele><time>2026-03-29T09:07:33.183Z</time></trkpt><trkpt lat="44.8234055" lon="8.2898722"><ele>144.0</ele><time>2026-03-29T09:07:34.184Z</time></trkpt><trkpt lat="44.8234232" lon="8.2895902"><ele>144.0</ele><time>2026-03-29T09:07:35.183Z</time></trkpt><trkpt lat="44.8234375" lon="8.2893108"><ele>144.0</ele><time>2026-03-29T09:07:36.185Z</time></trkpt><trkpt lat="44.8234508" lon="8.2890335"><ele>144.0</ele><time>2026-03-29T09:07:37.184Z</time></trkpt><trkpt lat="44.8234613" lon="8.28876"><ele>144.0</ele><time>2026-03-29T09:07:38.183Z</time></trkpt><trkpt lat="44.8234658" lon="8.2884955"><ele>144.0</ele><time>2026-03-29T09:07:39.185Z</time></trkpt><trkpt lat="44.8234577" lon="8.2882382"><ele>144.33333333333334</ele><time>2026-03-29T09:07:40.184Z</time></trkpt><trkpt lat="44.823433" lon="8.2879905"><ele>144.66666666666669</ele><time>2026-03-29T09:07:41.184Z</time></trkpt><trkpt lat="44.8233968" lon="8.2877657"><ele>145.0</ele><time>2026-03-29T09:07:42.184Z</time></trkpt><trkpt lat="44.8233565" lon="8.2875592"><ele>145.0</ele><time>2026-03-29T09:07:43.184Z</time></trkpt><trkpt lat="44.8233158" lon="8.2873707"><ele>145.0</ele><time>2026-03-29T09:07:44.184Z</time></trkpt><trkpt lat="44.8232703" lon="8.2871912"><ele>145.0</ele><time>2026-03-29T09:07:45.181Z</time></trkpt><trkpt lat="44.8232228" lon="8.2870017"><ele>145.0</ele><time>2026-03-29T09:07:46.185Z</time></trkpt><trkpt lat="44.8231772" lon="8.2867992"><ele>145.0</ele><time>2026-03-29T09:07:47.182Z</time></trkpt><trkpt lat="44.8231313" lon="8.2865783"><ele>145.0</ele><time>2026-03-29T09:07:48.183Z</time></trkpt><trkpt lat="44.8230807" lon="8.2863412"><ele>145.0</ele><time>2026-03-29T09:07:49.184Z</time></trkpt><trkpt lat="44.8230265" lon="8.286098"><ele>145.0</ele><time>2026-03-29T09:07:50.183Z</time></trkpt><trkpt lat="44.8229697" lon="8.2858462"><ele>145.0</ele><time>2026-03-29T09:07:51.182Z</time></trkpt><trkpt lat="44.8229083" lon="8.2855827"><ele>145.0</ele><time>2026-03-29T09:07:52.182Z</time></trkpt><trkpt lat="44.822843" lon="8.2853058"><ele>145.0</ele><time>2026-03-29T09:07:53.181Z</time></trkpt><trkpt lat="44.8227788" lon="8.2850318"><ele>145.0</ele><time>2026-03-29T09:07:54.181Z</time></trkpt><trkpt lat="44.8227173" lon="8.2847683"><ele>145.0</ele><time>2026-03-29T09:07:55.186Z</time></trkpt><trkpt lat="44.8226547" lon="8.2844998"><ele>145.0</ele><time>2026-03-29T09:07:56.184Z</time></trkpt><trkpt lat="44.8225883" lon="8.2842277"><ele>145.0</ele><time>2026-03-29T09:07:57.187Z</time></trkpt><trkpt lat="44.822514" lon="8.2839537"><ele>145.0</ele><time>2026-03-29T09:07:58.185Z</time></trkpt><trkpt lat="44.8224248" lon="8.283679"><ele>145.33333333333334</ele><time>2026-03-29T09:07:59.186Z</time></trkpt><trkpt lat="44.8223225" lon="8.283407"><ele>145.66666666666666</ele><time>2026-03-29T09:08:00.184Z</time></trkpt><trkpt lat="44.8222075" lon="8.2831405"><ele>146.0</ele><time>2026-03-29T09:08:01.186Z</time></trkpt><trkpt lat="44.8220792" lon="8.2828792"><ele>146.0</ele><time>2026-03-29T09:08:02.186Z</time></trkpt><trkpt lat="44.8219372" lon="8.2826223"><ele>146.0</ele><time>2026-03-29T09:08:03.185Z</time></trkpt><trkpt lat="44.8217835" lon="8.2823678"><ele>144.5</ele><time>2026-03-29T09:08:04.186Z</time></trkpt><trkpt lat="44.821625" lon="8.282116"><ele>143.0</ele><time>2026-03-29T09:08:05.184Z</time></trkpt><trkpt lat="44.8214743" lon="8.2818788"><ele>143.0</ele><time>2026-03-29T09:08:06.186Z</time></trkpt><trkpt lat="44.8213335" lon="8.2816565"><ele>143.0</ele><time>2026-03-29T09:08:07.184Z</time></trkpt><trkpt lat="44.8211995" lon="8.281446"><ele>143.0</ele><time>2026-03-29T09:08:08.184Z</time></trkpt><trkpt lat="44.8210695" lon="8.2812425"><ele>143.33333333333331</ele><time>2026-03-29T09:08:09.185Z</time></trkpt><trkpt lat="44.8209447" lon="8.2810442"><ele>143.66666666666666</ele><time>2026-03-29T09:08:10.184Z</time></trkpt><trkpt lat="44.8208128" lon="8.2808355"><ele>144.0</ele><time>2026-03-29T09:08:11.184Z</time></trkpt><trkpt lat="44.8206705" lon="8.2806132"><ele>145.0</ele><time>2026-03-29T09:08:12.184Z</time></trkpt><trkpt lat="44.8205247" lon="8.2803725"><ele>146.0</ele><time>2026-03-29T09:08:13.184Z</time></trkpt><trkpt lat="44.8203822" lon="8.2801095"><ele>146.0</ele><time>2026-03-29T09:08:14.185Z</time></trkpt><trkpt lat="44.8202462" lon="8.2798242"><ele>146.0</ele><time>2026-03-29T09:08:15.182Z</time></trkpt><trkpt lat="44.82012" lon="8.279518"><ele>145.0</ele><time>2026-03-29T09:08:16.184Z</time></trkpt><trkpt lat="44.8200007" lon="8.2791948"><ele>144.0</ele><time>2026-03-29T09:08:17.182Z</time></trkpt><trkpt lat="44.8198838" lon="8.278863"><ele>144.0</ele><time>2026-03-29T09:08:18.182Z</time></trkpt><trkpt lat="44.8197653" lon="8.2785275"><ele>144.0</ele><time>2026-03-29T09:08:19.182Z</time></trkpt><trkpt lat="44.8196452" lon="8.2781897"><ele>145.0</ele><time>2026-03-29T09:08:20.184Z</time></trkpt><trkpt lat="44.8195252" lon="8.2778517"><ele>146.0</ele><time>2026-03-29T09:08:21.184Z</time></trkpt><trkpt lat="44.8194053" lon="8.2775135"><ele>144.5</ele><time>2026-03-29T09:08:22.184Z</time></trkpt><trkpt lat="44.8192867" lon="8.2771767"><ele>143.0</ele><time>2026-03-29T09:08:23.183Z</time></trkpt><trkpt lat="44.8191685" lon="8.2768412"><ele>143.0</ele><time>2026-03-29T09:08:24.184Z</time></trkpt><trkpt lat="44.8190495" lon="8.2765097"><ele>143.0</ele><time>2026-03-29T09:08:25.184Z</time></trkpt><trkpt lat="44.818931" lon="8.2761838"><ele>143.5</ele><time>2026-03-29T09:08:26.184Z</time></trkpt><trkpt lat="44.8188163" lon="8.275861"><ele>144.0</ele><time>2026-03-29T09:08:27.184Z</time></trkpt><trkpt lat="44.818706" lon="8.2755447"><ele>144.5</ele><time>2026-03-29T09:08:28.185Z</time></trkpt><trkpt lat="44.8185975" lon="8.2752343"><ele>145.0</ele><time>2026-03-29T09:08:29.185Z</time></trkpt><trkpt lat="44.8184897" lon="8.2749298"><ele>146.5</ele><time>2026-03-29T09:08:30.185Z</time></trkpt><trkpt lat="44.8183773" lon="8.2746348"><ele>148.0</ele><time>2026-03-29T09:08:31.186Z</time></trkpt><trkpt lat="44.8182558" lon="8.2743498"><ele>148.0</ele><time>2026-03-29T09:08:32.183Z</time></trkpt><trkpt lat="44.8181173" lon="8.2740797"><ele>148.0</ele><time>2026-03-29T09:08:33.185Z</time></trkpt><trkpt lat="44.8179615" lon="8.2738255"><ele>148.0</ele><time>2026-03-29T09:08:34.185Z</time></trkpt><trkpt lat="44.8177997" lon="8.2735882"><ele>148.0</ele><time>2026-03-29T09:08:35.186Z</time></trkpt><trkpt lat="44.8176477" lon="8.273366"><ele>147.33333333333334</ele><time>2026-03-29T09:08:36.185Z</time></trkpt><trkpt lat="44.8175117" lon="8.273142"><ele>146.66666666666666</ele><time>2026-03-29T09:08:37.184Z</time></trkpt><trkpt lat="44.817394" lon="8.2728945"><ele>146.0</ele><time>2026-03-29T09:08:38.183Z</time></trkpt><trkpt lat="44.8172958" lon="8.2726145"><ele>146.0</ele><time>2026-03-29T09:08:39.189Z</time></trkpt><trkpt lat="44.8172188" lon="8.2723008"><ele>146.0</ele><time>2026-03-29T09:08:40.182Z</time></trkpt><trkpt lat="44.8171653" lon="8.2719582"><ele>146.0</ele><time>2026-03-29T09:08:41.181Z</time></trkpt><trkpt lat="44.8171343" lon="8.2715983"><ele>146.0</ele><time>2026-03-29T09:08:42.181Z</time></trkpt><trkpt lat="44.8171148" lon="8.2712262"><ele>146.5</ele><time>2026-03-29T09:08:43.181Z</time></trkpt><trkpt lat="44.8170973" lon="8.270848"><ele>147.0</ele><time>2026-03-29T09:08:44.184Z</time></trkpt><trkpt lat="44.8170793" lon="8.2704693"><ele>147.0</ele><time>2026-03-29T09:08:45.182Z</time></trkpt><trkpt lat="44.8170618" lon="8.2700928"><ele>147.0</ele><time>2026-03-29T09:08:46.184Z</time></trkpt><trkpt lat="44.8170437" lon="8.2697205"><ele>147.0</ele><time>2026-03-29T09:08:47.184Z</time></trkpt><trkpt lat="44.817025" lon="8.2693492"><ele>147.0</ele><time>2026-03-29T09:08:48.184Z</time></trkpt><trkpt lat="44.8170068" lon="8.2689782"><ele>146.5</ele><time>2026-03-29T09:08:49.187Z</time></trkpt><trkpt lat="44.8169882" lon="8.2686087"><ele>146.0</ele><time>2026-03-29T09:08:50.184Z</time></trkpt><trkpt lat="44.8169687" lon="8.2682403"><ele>146.5</ele><time>2026-03-29T09:08:51.185Z</time></trkpt><trkpt lat="44.8169503" lon="8.267873"><ele>147.0</ele><time>2026-03-29T09:08:52.184Z</time></trkpt><trkpt lat="44.8169337" lon="8.2675053"><ele>147.0</ele><time>2026-03-29T09:08:53.184Z</time></trkpt><trkpt lat="44.8169165" lon="8.2671372"><ele>147.0</ele><time>2026-03-29T09:08:54.184Z</time></trkpt><trkpt lat="44.816898" lon="8.2667672"><ele>148.0</ele><time>2026-03-29T09:08:55.186Z</time></trkpt><trkpt lat="44.8168782" lon="8.2663955"><ele>149.0</ele><time>2026-03-29T09:08:56.186Z</time></trkpt><trkpt lat="44.8168587" lon="8.2660225"><ele>149.0</ele><time>2026-03-29T09:08:57.186Z</time></trkpt><trkpt lat="44.81684" lon="8.2656493"><ele>149.0</ele><time>2026-03-29T09:08:58.186Z</time></trkpt><trkpt lat="44.8168208" lon="8.2652762"><ele>148.0</ele><time>2026-03-29T09:08:59.184Z</time></trkpt><trkpt lat="44.8168017" lon="8.2649037"><ele>147.0</ele><time>2026-03-29T09:09:00.184Z</time></trkpt><trkpt lat="44.8167837" lon="8.2645302"><ele>147.0</ele><time>2026-03-29T09:09:01.184Z</time></trkpt><trkpt lat="44.8167658" lon="8.2641558"><ele>147.0</ele><time>2026-03-29T09:09:02.184Z</time></trkpt><trkpt lat="44.8167462" lon="8.2637813"><ele>147.0</ele><time>2026-03-29T09:09:03.185Z</time></trkpt><trkpt lat="44.8167252" lon="8.2634072"><ele>147.0</ele><time>2026-03-29T09:09:04.183Z</time></trkpt><trkpt lat="44.8167067" lon="8.2630319"><ele>147.5</ele><time>2026-03-29T09:09:05.182Z</time></trkpt><trkpt lat="44.8166908" lon="8.2626569"><ele>148.0</ele><time>2026-03-29T09:09:06.184Z</time></trkpt><trkpt lat="44.8166741" lon="8.2622827"><ele>148.5</ele><time>2026-03-29T09:09:07.182Z</time></trkpt><trkpt lat="44.8166563" lon="8.2619051"><ele>149.0</ele><time>2026-03-29T09:09:08.183Z</time></trkpt><trkpt lat="44.8166374" lon="8.2615231"><ele>149.5</ele><time>2026-03-29T09:09:09.185Z</time></trkpt><trkpt lat="44.8166171" lon="8.2611393"><ele>150.0</ele><time>2026-03-29T09:09:10.187Z</time></trkpt><trkpt lat="44.8165963" lon="8.2607568"><ele>151.5</ele><time>2026-03-29T09:09:11.185Z</time></trkpt><trkpt lat="44.8165756" lon="8.2603756"><ele>153.0</ele><time>2026-03-29T09:09:12.185Z</time></trkpt><trkpt lat="44.8165553" lon="8.2600017"><ele>151.0</ele><time>2026-03-29T09:09:13.186Z</time></trkpt><trkpt lat="44.8165361" lon="8.2596488"><ele>149.0</ele><time>2026-03-29T09:09:14.184Z</time></trkpt><trkpt lat="44.8165188" lon="8.2593111"><ele>149.0</ele><time>2026-03-29T09:09:15.184Z</time></trkpt><trkpt lat="44.8165025" lon="8.2589767"><ele>149.0</ele><time>2026-03-29T09:09:16.185Z</time></trkpt><trkpt lat="44.8164864" lon="8.2586396"><ele>148.5</ele><time>2026-03-29T09:09:17.184Z</time></trkpt><trkpt lat="44.8164702" lon="8.2582982"><ele>148.0</ele><time>2026-03-29T09:09:18.183Z</time></trkpt><trkpt lat="44.8164534" lon="8.2579542"><ele>148.0</ele><time>2026-03-29T09:09:19.187Z</time></trkpt><trkpt lat="44.8164365" lon="8.2576215"><ele>148.0</ele><time>2026-03-29T09:09:20.184Z</time></trkpt><trkpt lat="44.8164204" lon="8.25731"><ele>148.66666666666669</ele><time>2026-03-29T09:09:21.184Z</time></trkpt><trkpt lat="44.8164061" lon="8.2570202"><ele>149.33333333333334</ele><time>2026-03-29T09:09:22.185Z</time></trkpt><trkpt lat="44.8163937" lon="8.256749"><ele>150.0</ele><time>2026-03-29T09:09:23.184Z</time></trkpt><trkpt lat="44.8163813" lon="8.256497"><ele>149.75</ele><time>2026-03-29T09:09:24.184Z</time></trkpt><trkpt lat="44.8163686" lon="8.2562686"><ele>149.5</ele><time>2026-03-29T09:09:25.184Z</time></trkpt><trkpt lat="44.8163562" lon="8.2560638"><ele>149.25</ele><time>2026-03-29T09:09:26.185Z</time></trkpt><trkpt lat="44.8163474" lon="8.2558837"><ele>149.0</ele><time>2026-03-29T09:09:27.184Z</time></trkpt><trkpt lat="44.8163503" lon="8.2557255"><ele>149.0</ele><time>2026-03-29T09:09:28.185Z</time></trkpt><trkpt lat="44.8163746" lon="8.2555856"><ele>149.0</ele><time>2026-03-29T09:09:29.181Z</time></trkpt><trkpt lat="44.8164164" lon="8.2554521"><ele>149.0</ele><time>2026-03-29T09:09:30.18Z</time></trkpt><trkpt lat="44.8164482" lon="8.2553235"><ele>149.0</ele><time>2026-03-29T09:09:31.181Z</time></trkpt><trkpt lat="44.8164477" lon="8.2551942"><ele>149.0</ele><time>2026-03-29T09:09:32.181Z</time></trkpt><trkpt lat="44.8164191" lon="8.2550432"><ele>149.0</ele><time>2026-03-29T09:09:33.184Z</time></trkpt><trkpt lat="44.8163927" lon="8.2548516"><ele>149.0</ele><time>2026-03-29T09:09:34.184Z</time></trkpt><trkpt lat="44.8163869" lon="8.2546245"><ele>149.0</ele><time>2026-03-29T09:09:35.183Z</time></trkpt><trkpt lat="44.8163977" lon="8.2543692"><ele>149.33333333333331</ele><time>2026-03-29T09:09:36.185Z</time></trkpt><trkpt lat="44.8164148" lon="8.254087"><ele>149.66666666666666</ele><time>2026-03-29T09:09:37.186Z</time></trkpt><trkpt lat="44.816431" lon="8.2537883"><ele>150.0</ele><time>2026-03-29T09:09:38.188Z</time></trkpt><trkpt lat="44.8164458" lon="8.2534693"><ele>150.5</ele><time>2026-03-29T09:09:39.185Z</time></trkpt><trkpt lat="44.8164617" lon="8.2531438"><ele>151.0</ele><time>2026-03-29T09:09:40.186Z</time></trkpt><trkpt lat="44.8164769" lon="8.2528291"><ele>151.0</ele><time>2026-03-29T09:09:41.185Z</time></trkpt><trkpt lat="44.8164906" lon="8.2525335"><ele>151.0</ele><time>2026-03-29T09:09:42.184Z</time></trkpt><trkpt lat="44.8165034" lon="8.2522567"><ele>151.0</ele><time>2026-03-29T09:09:43.185Z</time></trkpt><trkpt lat="44.8165142" lon="8.2519962"><ele>151.33333333333334</ele><time>2026-03-29T09:09:44.186Z</time></trkpt><trkpt lat="44.8165257" lon="8.2517493"><ele>151.66666666666666</ele><time>2026-03-29T09:09:45.184Z</time></trkpt><trkpt lat="44.816541" lon="8.2515075"><ele>152.0</ele><time>2026-03-29T09:09:46.184Z</time></trkpt><trkpt lat="44.8165625" lon="8.2512693"><ele>152.0</ele><time>2026-03-29T09:09:47.187Z</time></trkpt><trkpt lat="44.8165925" lon="8.2510372"><ele>152.0</ele><time>2026-03-29T09:09:48.186Z</time></trkpt><trkpt lat="44.8166316" lon="8.2508085"><ele>152.0</ele><time>2026-03-29T09:09:49.185Z</time></trkpt><trkpt lat="44.8166771" lon="8.2505797"><ele>152.0</ele><time>2026-03-29T09:09:50.183Z</time></trkpt><trkpt lat="44.8167256" lon="8.2503485"><ele>152.0</ele><time>2026-03-29T09:09:51.186Z</time></trkpt><trkpt lat="44.8167743" lon="8.2501167"><ele>152.0</ele><time>2026-03-29T09:09:52.183Z</time></trkpt><trkpt lat="44.8168251" lon="8.2498855"><ele>153.0</ele><time>2026-03-29T09:09:53.183Z</time></trkpt><trkpt lat="44.8168762" lon="8.2496567"><ele>154.0</ele><time>2026-03-29T09:09:54.181Z</time></trkpt><trkpt lat="44.8169271" lon="8.2494296"><ele>155.0</ele><time>2026-03-29T09:09:55.181Z</time></trkpt><trkpt lat="44.8169778" lon="8.2492042"><ele>155.0</ele><time>2026-03-29T09:09:56.182Z</time></trkpt><trkpt lat="44.8170269" lon="8.2489826"><ele>155.0</ele><time>2026-03-29T09:09:57.18Z</time></trkpt><trkpt lat="44.8170769" lon="8.2487641"><ele>155.0</ele><time>2026-03-29T09:09:58.183Z</time></trkpt><trkpt lat="44.8171279" lon="8.2485435"><ele>155.0</ele><time>2026-03-29T09:09:59.186Z</time></trkpt><trkpt lat="44.8171786" lon="8.2483188"><ele>155.0</ele><time>2026-03-29T09:10:00.184Z</time></trkpt><trkpt lat="44.8172292" lon="8.2480897"><ele>155.0</ele><time>2026-03-29T09:10:01.184Z</time></trkpt><trkpt lat="44.8172809" lon="8.2478562"><ele>154.66666666666666</ele><time>2026-03-29T09:10:02.183Z</time></trkpt><trkpt lat="44.8173332" lon="8.2476191"><ele>154.33333333333334</ele><time>2026-03-29T09:10:03.184Z</time></trkpt><trkpt lat="44.8173846" lon="8.2473794"><ele>154.0</ele><time>2026-03-29T09:10:04.185Z</time></trkpt><trkpt lat="44.8174367" lon="8.2471416"><ele>154.0</ele><time>2026-03-29T09:10:05.185Z</time></trkpt><trkpt lat="44.817489" lon="8.246908"><ele>154.0</ele><time>2026-03-29T09:10:06.184Z</time></trkpt><trkpt lat="44.8175403" lon="8.2466776"><ele>154.0</ele><time>2026-03-29T09:10:07.185Z</time></trkpt><trkpt lat="44.8175901" lon="8.2464513"><ele>154.0</ele><time>2026-03-29T09:10:08.183Z</time></trkpt><trkpt lat="44.8176402" lon="8.2462287"><ele>154.0</ele><time>2026-03-29T09:10:09.183Z</time></trkpt><trkpt lat="44.8176903" lon="8.2460108"><ele>154.0</ele><time>2026-03-29T09:10:10.185Z</time></trkpt><trkpt lat="44.8177392" lon="8.2457964"><ele>155.0</ele><time>2026-03-29T09:10:11.183Z</time></trkpt><trkpt lat="44.8177876" lon="8.2455814"><ele>156.0</ele><time>2026-03-29T09:10:12.183Z</time></trkpt><trkpt lat="44.8178362" lon="8.245364"><ele>157.0</ele><time>2026-03-29T09:10:13.183Z</time></trkpt><trkpt lat="44.8178848" lon="8.2451457"><ele>157.0</ele><time>2026-03-29T09:10:14.184Z</time></trkpt><trkpt lat="44.8179313" lon="8.2449333"><ele>157.0</ele><time>2026-03-29T09:10:15.182Z</time></trkpt><trkpt lat="44.8179744" lon="8.2447339"><ele>157.0</ele><time>2026-03-29T09:10:16.182Z</time></trkpt><trkpt lat="44.8180163" lon="8.2445427"><ele>157.0</ele><time>2026-03-29T09:10:17.182Z</time></trkpt><trkpt lat="44.8180566" lon="8.2443645"><ele>156.5</ele><time>2026-03-29T09:10:18.179Z</time></trkpt><trkpt lat="44.8180958" lon="8.2441985"><ele>156.0</ele><time>2026-03-29T09:10:19.18Z</time></trkpt><trkpt lat="44.8181349" lon="8.2440306"><ele>155.5</ele><time>2026-03-29T09:10:20.18Z</time></trkpt><trkpt lat="44.8181734" lon="8.2438609"><ele>155.0</ele><time>2026-03-29T09:10:21.178Z</time></trkpt><trkpt lat="44.8182123" lon="8.2436889"><ele>155.0</ele><time>2026-03-29T09:10:22.18Z</time></trkpt><trkpt lat="44.818252" lon="8.2435164"><ele>155.0</ele><time>2026-03-29T09:10:23.183Z</time></trkpt><trkpt lat="44.8182908" lon="8.2433439"><ele>155.0</ele><time>2026-03-29T09:10:24.182Z</time></trkpt><trkpt lat="44.8183298" lon="8.2431673"><ele>155.0</ele><time>2026-03-29T09:10:25.182Z</time></trkpt><trkpt lat="44.8183691" lon="8.2429821"><ele>155.0</ele><time>2026-03-29T09:10:26.183Z</time></trkpt><trkpt lat="44.8184107" lon="8.2427888"><ele>155.0</ele><time>2026-03-29T09:10:27.182Z</time></trkpt><trkpt lat="44.8184559" lon="8.2425873"><ele>155.0</ele><time>2026-03-29T09:10:28.183Z</time></trkpt><trkpt lat="44.8185033" lon="8.2423803"><ele>155.0</ele><time>2026-03-29T09:10:29.182Z</time></trkpt><trkpt lat="44.8185497" lon="8.2421723"><ele>155.66666666666666</ele><time>2026-03-29T09:10:30.181Z</time></trkpt><trkpt lat="44.8185955" lon="8.2419662"><ele>156.33333333333334</ele><time>2026-03-29T09:10:31.182Z</time></trkpt><trkpt lat="44.8186422" lon="8.2417621"><ele>157.0</ele><time>2026-03-29T09:10:32.182Z</time></trkpt><trkpt lat="44.8186887" lon="8.2415551"><ele>157.25</ele><time>2026-03-29T09:10:33.182Z</time></trkpt><trkpt lat="44.8187334" lon="8.2413485"><ele>157.5</ele><time>2026-03-29T09:10:34.182Z</time></trkpt><trkpt lat="44.818777" lon="8.241147"><ele>157.75</ele><time>2026-03-29T09:10:35.181Z</time></trkpt><trkpt lat="44.8188177" lon="8.240956"><ele>158.0</ele><time>2026-03-29T09:10:36.183Z</time></trkpt><trkpt lat="44.8188574" lon="8.2407759"><ele>157.75</ele><time>2026-03-29T09:10:37.182Z</time></trkpt><trkpt lat="44.8188962" lon="8.240601"><ele>157.5</ele><time>2026-03-29T09:10:38.181Z</time></trkpt><trkpt lat="44.8189333" lon="8.2404306"><ele>157.25</ele><time>2026-03-29T09:10:39.182Z</time></trkpt><trkpt lat="44.8189705" lon="8.2402649"><ele>157.0</ele><time>2026-03-29T09:10:40.185Z</time></trkpt><trkpt lat="44.8190062" lon="8.2401064"><ele>157.0</ele><time>2026-03-29T09:10:41.182Z</time></trkpt><trkpt lat="44.8190403" lon="8.2399553"><ele>157.0</ele><time>2026-03-29T09:10:42.182Z</time></trkpt><trkpt lat="44.8190738" lon="8.2398089"><ele>157.0</ele><time>2026-03-29T09:10:43.18Z</time></trkpt><trkpt lat="44.8191073" lon="8.2396651"><ele>157.0</ele><time>2026-03-29T09:10:44.18Z</time></trkpt><trkpt lat="44.8191388" lon="8.2395304"><ele>157.0</ele><time>2026-03-29T09:10:45.18Z</time></trkpt><trkpt lat="44.8191682" lon="8.2394064"><ele>157.2</ele><time>2026-03-29T09:10:46.179Z</time></trkpt><trkpt lat="44.8191954" lon="8.2392894"><ele>157.39999999999998</ele><time>2026-03-29T09:10:47.181Z</time></trkpt><trkpt lat="44.8192195" lon="8.2391698"><ele>157.60000000000002</ele><time>2026-03-29T09:10:48.181Z</time></trkpt><trkpt lat="44.8192442" lon="8.2390468"><ele>157.8</ele><time>2026-03-29T09:10:49.18Z</time></trkpt><trkpt lat="44.8192707" lon="8.238916"><ele>158.0</ele><time>2026-03-29T09:10:50.182Z</time></trkpt><trkpt lat="44.8192993" lon="8.2387781"><ele>158.4</ele><time>2026-03-29T09:10:51.18Z</time></trkpt><trkpt lat="44.8193299" lon="8.2386413"><ele>158.8</ele><time>2026-03-29T09:10:52.18Z</time></trkpt><trkpt lat="44.8193618" lon="8.2385074"><ele>159.2</ele><time>2026-03-29T09:10:53.18Z</time></trkpt><trkpt lat="44.8193944" lon="8.2383748"><ele>159.6</ele><time>2026-03-29T09:10:54.181Z</time></trkpt><trkpt lat="44.8194262" lon="8.2382432"><ele>160.0</ele><time>2026-03-29T09:10:55.181Z</time></trkpt><trkpt lat="44.8194548" lon="8.2381115"><ele>160.0</ele><time>2026-03-29T09:10:56.182Z</time></trkpt><trkpt lat="44.8194821" lon="8.2379778"><ele>160.0</ele><time>2026-03-29T09:10:57.182Z</time></trkpt><trkpt lat="44.8195102" lon="8.2378399"><ele>160.0</ele><time>2026-03-29T09:10:58.181Z</time></trkpt><trkpt lat="44.8195378" lon="8.2377012"><ele>160.0</ele><time>2026-03-29T09:10:59.182Z</time></trkpt><trkpt lat="44.8195672" lon="8.2375634"><ele>160.0</ele><time>2026-03-29T09:11:00.181Z</time></trkpt><trkpt lat="44.8195995" lon="8.2374242"><ele>159.4</ele><time>2026-03-29T09:11:01.18Z</time></trkpt><trkpt lat="44.8196322" lon="8.2372916"><ele>158.8</ele><time>2026-03-29T09:11:02.179Z</time></trkpt><trkpt lat="44.8196616" lon="8.2371691"><ele>158.2</ele><time>2026-03-29T09:11:03.18Z</time></trkpt><trkpt lat="44.8196896" lon="8.2370508"><ele>157.6</ele><time>2026-03-29T09:11:04.18Z</time></trkpt><trkpt lat="44.8197179" lon="8.2369288"><ele>157.0</ele><time>2026-03-29T09:11:05.179Z</time></trkpt><trkpt lat="44.8197477" lon="8.2368008"><ele>157.0</ele><time>2026-03-29T09:11:06.179Z</time></trkpt><trkpt lat="44.819779" lon="8.23667"><ele>157.0</ele><time>2026-03-29T09:11:07.178Z</time></trkpt><trkpt lat="44.8198098" lon="8.2365415"><ele>157.0</ele><time>2026-03-29T09:11:08.18Z</time></trkpt><trkpt lat="44.8198374" lon="8.2364204"><ele>157.0</ele><time>2026-03-29T09:11:09.18Z</time></trkpt><trkpt lat="44.8198635" lon="8.236307"><ele>157.0</ele><time>2026-03-29T09:11:10.18Z</time></trkpt><trkpt lat="44.8198897" lon="8.2362027"><ele>157.0</ele><time>2026-03-29T09:11:11.181Z</time></trkpt><trkpt lat="44.819916" lon="8.2361011"><ele>157.0</ele><time>2026-03-29T09:11:12.18Z</time></trkpt><trkpt lat="44.8199508" lon="8.2359963"><ele>157.0</ele><time>2026-03-29T09:11:13.181Z</time></trkpt><trkpt lat="44.819999" lon="8.2358924"><ele>157.0</ele><time>2026-03-29T09:11:14.18Z</time></trkpt><trkpt lat="44.8200581" lon="8.2357865"><ele>157.0</ele><time>2026-03-29T09:11:15.18Z</time></trkpt><trkpt lat="44.8201261" lon="8.2356794"><ele>157.0</ele><time>2026-03-29T09:11:16.179Z</time></trkpt><trkpt lat="44.8201971" lon="8.2355681"><ele>157.4</ele><time>2026-03-29T09:11:17.182Z</time></trkpt><trkpt lat="44.8202695" lon="8.2354542"><ele>157.79999999999998</ele><time>2026-03-29T09:11:18.18Z</time></trkpt><trkpt lat="44.8203442" lon="8.2353408"><ele>158.2</ele><time>2026-03-29T09:11:19.181Z</time></trkpt><trkpt lat="44.8204174" lon="8.2352301"><ele>158.6</ele><time>2026-03-29T09:11:20.181Z</time></trkpt><trkpt lat="44.8204886" lon="8.2351203"><ele>159.0</ele><time>2026-03-29T09:11:21.182Z</time></trkpt><trkpt lat="44.8205603" lon="8.2350085"><ele>159.0</ele><time>2026-03-29T09:11:22.181Z</time></trkpt><trkpt lat="44.8206327" lon="8.2348954"><ele>159.0</ele><time>2026-03-29T09:11:23.181Z</time></trkpt><trkpt lat="44.8207046" lon="8.2347837"><ele>159.0</ele><time>2026-03-29T09:11:24.181Z</time></trkpt><trkpt lat="44.8207747" lon="8.2346752"><ele>159.0</ele><time>2026-03-29T09:11:25.182Z</time></trkpt><trkpt lat="44.8208437" lon="8.2345692"><ele>159.0</ele><time>2026-03-29T09:11:26.18Z</time></trkpt><trkpt lat="44.8209116" lon="8.2344641"><ele>159.0</ele><time>2026-03-29T09:11:27.18Z</time></trkpt><trkpt lat="44.8209773" lon="8.2343629"><ele>159.0</ele><time>2026-03-29T09:11:28.181Z</time></trkpt><trkpt lat="44.8210411" lon="8.234264"><ele>159.0</ele><time>2026-03-29T09:11:29.181Z</time></trkpt><trkpt lat="44.8211057" lon="8.2341645"><ele>159.0</ele><time>2026-03-29T09:11:30.181Z</time></trkpt><trkpt lat="44.8211685" lon="8.2340705"><ele>159.0</ele><time>2026-03-29T09:11:31.182Z</time></trkpt><trkpt lat="44.8212215" lon="8.2339878"><ele>158.6</ele><time>2026-03-29T09:11:32.18Z</time></trkpt><trkpt lat="44.8212682" lon="8.2339113"><ele>158.2</ele><time>2026-03-29T09:11:33.178Z</time></trkpt><trkpt lat="44.8213433" lon="8.2337873"><ele>157.79999999999998</ele><time>2026-03-29T09:11:35.178Z</time></trkpt><trkpt lat="44.8213888" lon="8.2337088"><ele>157.4</ele><time>2026-03-29T09:11:36.182Z</time></trkpt><trkpt lat="44.821453" lon="8.2336183"><ele>157.0</ele><time>2026-03-29T09:11:37.183Z</time></trkpt><trkpt lat="44.821531" lon="8.233513"><ele>157.0</ele><time>2026-03-29T09:11:38.181Z</time></trkpt><trkpt lat="44.8216163" lon="8.2333842"><ele>157.0</ele><time>2026-03-29T09:11:39.184Z</time></trkpt><trkpt lat="44.8217032" lon="8.2332297"><ele>157.0</ele><time>2026-03-29T09:11:40.182Z</time></trkpt><trkpt lat="44.821784" lon="8.233055"><ele>157.0</ele><time>2026-03-29T09:11:41.181Z</time></trkpt><trkpt lat="44.8218673" lon="8.2328498"><ele>156.66666666666669</ele><time>2026-03-29T09:11:42.182Z</time></trkpt><trkpt lat="44.8219543" lon="8.2326348"><ele>156.33333333333334</ele><time>2026-03-29T09:11:43.183Z</time></trkpt><trkpt lat="44.8220445" lon="8.232406"><ele>156.0</ele><time>2026-03-29T09:11:44.181Z</time></trkpt><trkpt lat="44.8221388" lon="8.232169"><ele>155.66666666666666</ele><time>2026-03-29T09:11:45.183Z</time></trkpt><trkpt lat="44.8222368" lon="8.2319272"><ele>155.33333333333331</ele><time>2026-03-29T09:11:46.182Z</time></trkpt><trkpt lat="44.8223333" lon="8.2316845"><ele>155.0</ele><time>2026-03-29T09:11:47.184Z</time></trkpt><trkpt lat="44.8224263" lon="8.2314463"><ele>155.0</ele><time>2026-03-29T09:11:48.183Z</time></trkpt><trkpt lat="44.8225163" lon="8.231217"><ele>155.0</ele><time>2026-03-29T09:11:49.185Z</time></trkpt><trkpt lat="44.8226037" lon="8.2310043"><ele>155.0</ele><time>2026-03-29T09:11:50.181Z</time></trkpt><trkpt lat="44.8226903" lon="8.2307912"><ele>155.33333333333331</ele><time>2026-03-29T09:11:51.182Z</time></trkpt><trkpt lat="44.8227787" lon="8.2305677"><ele>155.66666666666666</ele><time>2026-03-29T09:11:52.183Z</time></trkpt><trkpt lat="44.822871" lon="8.2303345"><ele>156.0</ele><time>2026-03-29T09:11:53.182Z</time></trkpt><trkpt lat="44.8229658" lon="8.230091"><ele>156.0</ele><time>2026-03-29T09:11:54.181Z</time></trkpt><trkpt lat="44.8230623" lon="8.2298445"><ele>156.0</ele><time>2026-03-29T09:11:55.183Z</time></trkpt><trkpt lat="44.8231585" lon="8.2295942"><ele>156.0</ele><time>2026-03-29T09:11:56.18Z</time></trkpt><trkpt lat="44.8232568" lon="8.2293388"><ele>156.33333333333334</ele><time>2026-03-29T09:11:57.179Z</time></trkpt><trkpt lat="44.8233582" lon="8.2290763"><ele>156.66666666666669</ele><time>2026-03-29T09:11:58.181Z</time></trkpt><trkpt lat="44.8234635" lon="8.2288085"><ele>157.0</ele><time>2026-03-29T09:11:59.182Z</time></trkpt><trkpt lat="44.8235727" lon="8.2285363"><ele>157.0</ele><time>2026-03-29T09:12:00.183Z</time></trkpt><trkpt lat="44.8236807" lon="8.2282645"><ele>157.0</ele><time>2026-03-29T09:12:01.184Z</time></trkpt><trkpt lat="44.8237857" lon="8.2280003"><ele>157.0</ele><time>2026-03-29T09:12:02.184Z</time></trkpt><trkpt lat="44.8238868" lon="8.2277473"><ele>157.0</ele><time>2026-03-29T09:12:03.185Z</time></trkpt><trkpt lat="44.8239848" lon="8.227503"><ele>157.0</ele><time>2026-03-29T09:12:04.188Z</time></trkpt><trkpt lat="44.8240787" lon="8.2272642"><ele>157.0</ele><time>2026-03-29T09:12:05.184Z</time></trkpt><trkpt lat="44.8241685" lon="8.2270292"><ele>157.0</ele><time>2026-03-29T09:12:06.184Z</time></trkpt><trkpt lat="44.8242578" lon="8.2267933"><ele>157.0</ele><time>2026-03-29T09:12:07.187Z</time></trkpt><trkpt lat="44.8243508" lon="8.2265553"><ele>157.0</ele><time>2026-03-29T09:12:08.183Z</time></trkpt><trkpt lat="44.8244498" lon="8.2263123"><ele>157.66666666666669</ele><time>2026-03-29T09:12:09.185Z</time></trkpt><trkpt lat="44.8245515" lon="8.2260635"><ele>158.33333333333334</ele><time>2026-03-29T09:12:10.182Z</time></trkpt><trkpt lat="44.8246528" lon="8.2258083"><ele>159.0</ele><time>2026-03-29T09:12:11.182Z</time></trkpt><trkpt lat="44.8247563" lon="8.2255497"><ele>159.0</ele><time>2026-03-29T09:12:12.182Z</time></trkpt><trkpt lat="44.8248607" lon="8.2252902"><ele>159.0</ele><time>2026-03-29T09:12:13.182Z</time></trkpt><trkpt lat="44.8249633" lon="8.225032"><ele>159.0</ele><time>2026-03-29T09:12:14.182Z</time></trkpt><trkpt lat="44.8250638" lon="8.2247773"><ele>160.0</ele><time>2026-03-29T09:12:15.184Z</time></trkpt><trkpt lat="44.825162" lon="8.2245228"><ele>161.0</ele><time>2026-03-29T09:12:16.185Z</time></trkpt><trkpt lat="44.8252602" lon="8.2242685"><ele>162.0</ele><time>2026-03-29T09:12:17.183Z</time></trkpt><trkpt lat="44.8253582" lon="8.2240152"><ele>161.33333333333334</ele><time>2026-03-29T09:12:18.182Z</time></trkpt><trkpt lat="44.8254567" lon="8.223765"><ele>160.66666666666669</ele><time>2026-03-29T09:12:19.182Z</time></trkpt><trkpt lat="44.8255552" lon="8.2235182"><ele>160.0</ele><time>2026-03-29T09:12:20.182Z</time></trkpt><trkpt lat="44.8256533" lon="8.2232737"><ele>159.66666666666669</ele><time>2026-03-29T09:12:21.18Z</time></trkpt><trkpt lat="44.825751" lon="8.2230312"><ele>159.33333333333334</ele><time>2026-03-29T09:12:22.181Z</time></trkpt><trkpt lat="44.8258467" lon="8.2227893"><ele>159.0</ele><time>2026-03-29T09:12:23.18Z</time></trkpt><trkpt lat="44.8259398" lon="8.2225477"><ele>160.0</ele><time>2026-03-29T09:12:24.181Z</time></trkpt><trkpt lat="44.8260318" lon="8.2223095"><ele>161.0</ele><time>2026-03-29T09:12:25.185Z</time></trkpt><trkpt lat="44.8261237" lon="8.2220772"><ele>162.0</ele><time>2026-03-29T09:12:26.183Z</time></trkpt><trkpt lat="44.8262167" lon="8.2218502"><ele>162.0</ele><time>2026-03-29T09:12:27.185Z</time></trkpt><trkpt lat="44.8263117" lon="8.2216245"><ele>162.0</ele><time>2026-03-29T09:12:28.184Z</time></trkpt><trkpt lat="44.826411" lon="8.2214015"><ele>162.0</ele><time>2026-03-29T09:12:29.18Z</time></trkpt><trkpt lat="44.8265167" lon="8.221184"><ele>161.0</ele><time>2026-03-29T09:12:30.183Z</time></trkpt><trkpt lat="44.826629" lon="8.2209717"><ele>160.0</ele><time>2026-03-29T09:12:31.181Z</time></trkpt><trkpt lat="44.8267468" lon="8.2207615"><ele>159.0</ele><time>2026-03-29T09:12:32.182Z</time></trkpt><trkpt lat="44.8268697" lon="8.2205588"><ele>159.0</ele><time>2026-03-29T09:12:33.182Z</time></trkpt><trkpt lat="44.8269888" lon="8.2203728"><ele>159.0</ele><time>2026-03-29T09:12:34.182Z</time></trkpt><trkpt lat="44.8271022" lon="8.220203"><ele>159.0</ele><time>2026-03-29T09:12:35.184Z</time></trkpt><trkpt lat="44.8272093" lon="8.220048"><ele>159.0</ele><time>2026-03-29T09:12:36.183Z</time></trkpt><trkpt lat="44.8273087" lon="8.2199043"><ele>159.0</ele><time>2026-03-29T09:12:37.183Z</time></trkpt><trkpt lat="44.8274005" lon="8.2197703"><ele>159.0</ele><time>2026-03-29T09:12:38.182Z</time></trkpt><trkpt lat="44.8274852" lon="8.2196477"><ele>159.0</ele><time>2026-03-29T09:12:39.181Z</time></trkpt><trkpt lat="44.8275655" lon="8.2195307"><ele>160.0</ele><time>2026-03-29T09:12:40.184Z</time></trkpt><trkpt lat="44.827648" lon="8.2194065"><ele>161.0</ele><time>2026-03-29T09:12:41.184Z</time></trkpt><trkpt lat="44.8277367" lon="8.2192748"><ele>162.0</ele><time>2026-03-29T09:12:42.183Z</time></trkpt><trkpt lat="44.8278318" lon="8.2191353"><ele>163.0</ele><time>2026-03-29T09:12:43.184Z</time></trkpt><trkpt lat="44.8279303" lon="8.2189892"><ele>162.5</ele><time>2026-03-29T09:12:44.182Z</time></trkpt><trkpt lat="44.8280318" lon="8.218842"><ele>162.0</ele><time>2026-03-29T09:12:45.18Z</time></trkpt><trkpt lat="44.8281308" lon="8.2186952"><ele>161.5</ele><time>2026-03-29T09:12:46.18Z</time></trkpt><trkpt lat="44.8282263" lon="8.2185523"><ele>161.0</ele><time>2026-03-29T09:12:47.18Z</time></trkpt><trkpt lat="44.8283142" lon="8.2184208"><ele>161.0</ele><time>2026-03-29T09:12:48.182Z</time></trkpt><trkpt lat="44.8284008" lon="8.2182882"><ele>161.0</ele><time>2026-03-29T09:12:49.184Z</time></trkpt><trkpt lat="44.8284823" lon="8.2181473"><ele>161.0</ele><time>2026-03-29T09:12:50.182Z</time></trkpt><trkpt lat="44.8285487" lon="8.2179903"><ele>161.0</ele><time>2026-03-29T09:12:51.182Z</time></trkpt><trkpt lat="44.8285963" lon="8.2178028"><ele>161.33333333333331</ele><time>2026-03-29T09:12:52.181Z</time></trkpt><trkpt lat="44.8286277" lon="8.2175885"><ele>161.66666666666666</ele><time>2026-03-29T09:12:53.182Z</time></trkpt><trkpt lat="44.8286505" lon="8.2173625"><ele>162.0</ele><time>2026-03-29T09:12:54.182Z</time></trkpt><trkpt lat="44.8286697" lon="8.2171453"><ele>163.0</ele><time>2026-03-29T09:12:55.182Z</time></trkpt><trkpt lat="44.8286885" lon="8.2169483"><ele>164.0</ele><time>2026-03-29T09:12:56.182Z</time></trkpt><trkpt lat="44.8287075" lon="8.2167678"><ele>165.0</ele><time>2026-03-29T09:12:57.184Z</time></trkpt><trkpt lat="44.8287245" lon="8.2165853"><ele>166.0</ele><time>2026-03-29T09:12:58.183Z</time></trkpt><trkpt lat="44.8287405" lon="8.2163982"><ele>166.25</ele><time>2026-03-29T09:12:59.183Z</time></trkpt><trkpt lat="44.8287557" lon="8.2162088"><ele>166.5</ele><time>2026-03-29T09:13:00.183Z</time></trkpt><trkpt lat="44.8287728" lon="8.2160098"><ele>166.75</ele><time>2026-03-29T09:13:01.182Z</time></trkpt><trkpt lat="44.828792" lon="8.2157933"><ele>167.0</ele><time>2026-03-29T09:13:02.181Z</time></trkpt><trkpt lat="44.8288125" lon="8.2155565"><ele>167.0</ele><time>2026-03-29T09:13:03.182Z</time></trkpt><trkpt lat="44.8288335" lon="8.2153135"><ele>167.0</ele><time>2026-03-29T09:13:04.183Z</time></trkpt><trkpt lat="44.8288555" lon="8.2150727"><ele>167.0</ele><time>2026-03-29T09:13:05.182Z</time></trkpt><trkpt lat="44.8288788" lon="8.2148292"><ele>167.33333333333331</ele><time>2026-03-29T09:13:06.182Z</time></trkpt><trkpt lat="44.8289037" lon="8.2145825"><ele>167.66666666666666</ele><time>2026-03-29T09:13:07.184Z</time></trkpt><trkpt lat="44.8289332" lon="8.2143267"><ele>168.0</ele><time>2026-03-29T09:13:08.183Z</time></trkpt><trkpt lat="44.8289707" lon="8.2140613"><ele>167.0</ele><time>2026-03-29T09:13:09.182Z</time></trkpt><trkpt lat="44.8290133" lon="8.2138155"><ele>166.0</ele><time>2026-03-29T09:13:10.18Z</time></trkpt><trkpt lat="44.8290595" lon="8.2135838"><ele>165.0</ele><time>2026-03-29T09:13:11.181Z</time></trkpt><trkpt lat="44.8291083" lon="8.2133623"><ele>164.75</ele><time>2026-03-29T09:13:12.181Z</time></trkpt><trkpt lat="44.829146" lon="8.2131502"><ele>164.5</ele><time>2026-03-29T09:13:13.181Z</time></trkpt><trkpt lat="44.829155" lon="8.2129523"><ele>164.25</ele><time>2026-03-29T09:13:14.182Z</time></trkpt><trkpt lat="44.8291333" lon="8.2127703"><ele>164.0</ele><time>2026-03-29T09:13:15.182Z</time></trkpt><trkpt lat="44.8290943" lon="8.2125923"><ele>164.0</ele><time>2026-03-29T09:13:16.182Z</time></trkpt><trkpt lat="44.8290707" lon="8.2124078"><ele>164.0</ele><time>2026-03-29T09:13:17.182Z</time></trkpt><trkpt lat="44.8290792" lon="8.2122018"><ele>164.0</ele><time>2026-03-29T09:13:18.185Z</time></trkpt><trkpt lat="44.8291145" lon="8.2119633"><ele>164.0</ele><time>2026-03-29T09:13:19.184Z</time></trkpt><trkpt lat="44.8291577" lon="8.2117137"><ele>164.0</ele><time>2026-03-29T09:13:20.184Z</time></trkpt><trkpt lat="44.8291953" lon="8.2114418"><ele>164.0</ele><time>2026-03-29T09:13:21.185Z</time></trkpt><trkpt lat="44.8292263" lon="8.2111438"><ele>163.33333333333331</ele><time>2026-03-29T09:13:22.184Z</time></trkpt><trkpt lat="44.8292545" lon="8.2108297"><ele>162.66666666666666</ele><time>2026-03-29T09:13:23.183Z</time></trkpt><trkpt lat="44.8292827" lon="8.2105178"><ele>162.0</ele><time>2026-03-29T09:13:24.186Z</time></trkpt><trkpt lat="44.8293122" lon="8.2101988"><ele>162.0</ele><time>2026-03-29T09:13:25.184Z</time></trkpt><trkpt lat="44.8293432" lon="8.2098748"><ele>162.0</ele><time>2026-03-29T09:13:26.184Z</time></trkpt><trkpt lat="44.8293745" lon="8.2095497"><ele>165.0</ele><time>2026-03-29T09:13:27.184Z</time></trkpt><trkpt lat="44.8294057" lon="8.2092228"><ele>168.0</ele><time>2026-03-29T09:13:28.184Z</time></trkpt><trkpt lat="44.8294347" lon="8.2088938"><ele>170.0</ele><time>2026-03-29T09:13:29.184Z</time></trkpt><trkpt lat="44.8294632" lon="8.2085647"><ele>172.0</ele><time>2026-03-29T09:13:30.184Z</time></trkpt><trkpt lat="44.8294927" lon="8.2082365"><ele>169.0</ele><time>2026-03-29T09:13:31.184Z</time></trkpt><trkpt lat="44.8295238" lon="8.2079085"><ele>166.0</ele><time>2026-03-29T09:13:32.182Z</time></trkpt><trkpt lat="44.8295572" lon="8.2075797"><ele>164.5</ele><time>2026-03-29T09:13:33.182Z</time></trkpt><trkpt lat="44.8295913" lon="8.20725"><ele>163.0</ele><time>2026-03-29T09:13:34.18Z</time></trkpt><trkpt lat="44.8296258" lon="8.2069187"><ele>163.0</ele><time>2026-03-29T09:13:35.18Z</time></trkpt><trkpt lat="44.8296603" lon="8.2065833"><ele>163.0</ele><time>2026-03-29T09:13:36.18Z</time></trkpt><trkpt lat="44.8296957" lon="8.2062417"><ele>162.5</ele><time>2026-03-29T09:13:37.183Z</time></trkpt><trkpt lat="44.8297297" lon="8.2058972"><ele>162.0</ele><time>2026-03-29T09:13:38.184Z</time></trkpt><trkpt lat="44.8297575" lon="8.2055547"><ele>162.0</ele><time>2026-03-29T09:13:39.183Z</time></trkpt><trkpt lat="44.8297747" lon="8.2052142"><ele>162.0</ele><time>2026-03-29T09:13:40.184Z</time></trkpt><trkpt lat="44.8297765" lon="8.204874"><ele>162.0</ele><time>2026-03-29T09:13:41.184Z</time></trkpt><trkpt lat="44.8297653" lon="8.2045328"><ele>162.0</ele><time>2026-03-29T09:13:42.183Z</time></trkpt><trkpt lat="44.8297438" lon="8.2041892"><ele>162.0</ele><time>2026-03-29T09:13:43.184Z</time></trkpt><trkpt lat="44.829713" lon="8.2038572"><ele>162.0</ele><time>2026-03-29T09:13:44.182Z</time></trkpt><trkpt lat="44.8296723" lon="8.203546"><ele>162.0</ele><time>2026-03-29T09:13:45.182Z</time></trkpt><trkpt lat="44.829619" lon="8.203236"><ele>162.0</ele><time>2026-03-29T09:13:46.182Z</time></trkpt><trkpt lat="44.8295558" lon="8.2029265"><ele>162.5</ele><time>2026-03-29T09:13:47.182Z</time></trkpt><trkpt lat="44.82948" lon="8.2026137"><ele>163.0</ele><time>2026-03-29T09:13:48.184Z</time></trkpt><trkpt lat="44.8293908" lon="8.2022932"><ele>162.5</ele><time>2026-03-29T09:13:49.184Z</time></trkpt><trkpt lat="44.8292903" lon="8.2019668"><ele>162.0</ele><time>2026-03-29T09:13:50.182Z</time></trkpt><trkpt lat="44.8291818" lon="8.2016375"><ele>166.0</ele><time>2026-03-29T09:13:51.185Z</time></trkpt><trkpt lat="44.829067" lon="8.2013063"><ele>170.0</ele><time>2026-03-29T09:13:52.182Z</time></trkpt><trkpt lat="44.828946" lon="8.2009702"><ele>173.0</ele><time>2026-03-29T09:13:53.18Z</time></trkpt><trkpt lat="44.8288287" lon="8.2006202"><ele>176.0</ele><time>2026-03-29T09:13:54.181Z</time></trkpt><trkpt lat="44.828715" lon="8.200264"><ele>176.0</ele><time>2026-03-29T09:13:55.182Z</time></trkpt><trkpt lat="44.8286037" lon="8.1999073"><ele>176.0</ele><time>2026-03-29T09:13:56.181Z</time></trkpt><trkpt lat="44.828492" lon="8.1995573"><ele>167.5</ele><time>2026-03-29T09:13:57.183Z</time></trkpt><trkpt lat="44.8283813" lon="8.1992148"><ele>159.0</ele><time>2026-03-29T09:13:58.184Z</time></trkpt><trkpt lat="44.8282782" lon="8.1988735"><ele>159.0</ele><time>2026-03-29T09:13:59.18Z</time></trkpt><trkpt lat="44.8281888" lon="8.1985265"><ele>159.0</ele><time>2026-03-29T09:14:00.182Z</time></trkpt><trkpt lat="44.8281195" lon="8.1981712"><ele>160.5</ele><time>2026-03-29T09:14:01.185Z</time></trkpt><trkpt lat="44.828071" lon="8.1978083"><ele>162.0</ele><time>2026-03-29T09:14:02.182Z</time></trkpt><trkpt lat="44.8280387" lon="8.1974405"><ele>162.0</ele><time>2026-03-29T09:14:03.184Z</time></trkpt><trkpt lat="44.8280137" lon="8.19707"><ele>162.0</ele><time>2026-03-29T09:14:04.185Z</time></trkpt><trkpt lat="44.8279892" lon="8.1966977"><ele>161.5</ele><time>2026-03-29T09:14:05.184Z</time></trkpt><trkpt lat="44.8279628" lon="8.196327"><ele>161.0</ele><time>2026-03-29T09:14:06.185Z</time></trkpt><trkpt lat="44.8279333" lon="8.1959587"><ele>161.5</ele><time>2026-03-29T09:14:07.188Z</time></trkpt><trkpt lat="44.8279042" lon="8.195591"><ele>162.0</ele><time>2026-03-29T09:14:08.185Z</time></trkpt><trkpt lat="44.8278773" lon="8.1952203"><ele>162.0</ele><time>2026-03-29T09:14:09.185Z</time></trkpt><trkpt lat="44.8278492" lon="8.1948465"><ele>162.0</ele><time>2026-03-29T09:14:10.186Z</time></trkpt><trkpt lat="44.8278172" lon="8.1944692"><ele>163.5</ele><time>2026-03-29T09:14:11.186Z</time></trkpt><trkpt lat="44.8277837" lon="8.1940862"><ele>165.0</ele><time>2026-03-29T09:14:12.185Z</time></trkpt><trkpt lat="44.8277558" lon="8.1936962"><ele>165.0</ele><time>2026-03-29T09:14:13.184Z</time></trkpt><trkpt lat="44.8277373" lon="8.1932983"><ele>165.0</ele><time>2026-03-29T09:14:14.183Z</time></trkpt><trkpt lat="44.8277207" lon="8.1928987"><ele>165.0</ele><time>2026-03-29T09:14:15.183Z</time></trkpt><trkpt lat="44.8276993" lon="8.1924983"><ele>165.0</ele><time>2026-03-29T09:14:16.187Z</time></trkpt><trkpt lat="44.8276747" lon="8.1920983"><ele>165.5</ele><time>2026-03-29T09:14:17.184Z</time></trkpt><trkpt lat="44.8276502" lon="8.1917027"><ele>166.0</ele><time>2026-03-29T09:14:18.187Z</time></trkpt><trkpt lat="44.8276248" lon="8.1913118"><ele>166.0</ele><time>2026-03-29T09:14:19.186Z</time></trkpt><trkpt lat="44.8275988" lon="8.1909238"><ele>166.0</ele><time>2026-03-29T09:14:20.185Z</time></trkpt><trkpt lat="44.8275723" lon="8.1905397"><ele>166.5</ele><time>2026-03-29T09:14:21.185Z</time></trkpt><trkpt lat="44.8275468" lon="8.1901625"><ele>167.0</ele><time>2026-03-29T09:14:22.185Z</time></trkpt><trkpt lat="44.8275257" lon="8.1898008"><ele>168.5</ele><time>2026-03-29T09:14:23.182Z</time></trkpt><trkpt lat="44.8275103" lon="8.1894623"><ele>170.0</ele><time>2026-03-29T09:14:24.182Z</time></trkpt><trkpt lat="44.827506" lon="8.1891328"><ele>169.0</ele><time>2026-03-29T09:14:25.183Z</time></trkpt><trkpt lat="44.8275242" lon="8.1887968"><ele>168.0</ele><time>2026-03-29T09:14:26.183Z</time></trkpt><trkpt lat="44.8275645" lon="8.1884498"><ele>167.0</ele><time>2026-03-29T09:14:27.183Z</time></trkpt><trkpt lat="44.8276178" lon="8.1880922"><ele>166.0</ele><time>2026-03-29T09:14:28.186Z</time></trkpt><trkpt lat="44.827678" lon="8.1877302"><ele>167.0</ele><time>2026-03-29T09:14:29.186Z</time></trkpt><trkpt lat="44.8277393" lon="8.1873855"><ele>168.0</ele><time>2026-03-29T09:14:30.185Z</time></trkpt><trkpt lat="44.827798" lon="8.1870677"><ele>168.0</ele><time>2026-03-29T09:14:31.185Z</time></trkpt><trkpt lat="44.827852" lon="8.1867762"><ele>168.0</ele><time>2026-03-29T09:14:32.184Z</time></trkpt><trkpt lat="44.827903" lon="8.1865058"><ele>168.0</ele><time>2026-03-29T09:14:33.185Z</time></trkpt><trkpt lat="44.8279503" lon="8.1862562"><ele>168.0</ele><time>2026-03-29T09:14:34.185Z</time></trkpt><trkpt lat="44.8279927" lon="8.1860338"><ele>168.0</ele><time>2026-03-29T09:14:35.184Z</time></trkpt><trkpt lat="44.828029" lon="8.1858443"><ele>168.0</ele><time>2026-03-29T09:14:36.185Z</time></trkpt><trkpt lat="44.8280615" lon="8.18568"><ele>168.0</ele><time>2026-03-29T09:14:37.185Z</time></trkpt><trkpt lat="44.8280912" lon="8.185528"><ele>168.5</ele><time>2026-03-29T09:14:38.184Z</time></trkpt><trkpt lat="44.8281173" lon="8.1853758"><ele>169.0</ele><time>2026-03-29T09:14:39.183Z</time></trkpt><trkpt lat="44.8281428" lon="8.1852158"><ele>169.5</ele><time>2026-03-29T09:14:40.183Z</time></trkpt><trkpt lat="44.8281718" lon="8.1850457"><ele>170.0</ele><time>2026-03-29T09:14:41.182Z</time></trkpt><trkpt lat="44.8282023" lon="8.1848595"><ele>171.0</ele><time>2026-03-29T09:14:42.182Z</time></trkpt><trkpt lat="44.8282302" lon="8.1846555"><ele>172.0</ele><time>2026-03-29T09:14:43.184Z</time></trkpt><trkpt lat="44.8282493" lon="8.184429"><ele>173.0</ele><time>2026-03-29T09:14:44.183Z</time></trkpt><trkpt lat="44.8282565" lon="8.184192"><ele>173.0</ele><time>2026-03-29T09:14:45.182Z</time></trkpt><trkpt lat="44.8282603" lon="8.1839617"><ele>173.0</ele><time>2026-03-29T09:14:46.182Z</time></trkpt><trkpt lat="44.8282635" lon="8.1837352"><ele>173.0</ele><time>2026-03-29T09:14:47.181Z</time></trkpt><trkpt lat="44.8282665" lon="8.1835083"><ele>173.0</ele><time>2026-03-29T09:14:48.182Z</time></trkpt><trkpt lat="44.8282703" lon="8.1832832"><ele>173.0</ele><time>2026-03-29T09:14:49.18Z</time></trkpt><trkpt lat="44.828274" lon="8.1830663"><ele>173.0</ele><time>2026-03-29T09:14:50.183Z</time></trkpt><trkpt lat="44.8282778" lon="8.1828602"><ele>172.25</ele><time>2026-03-29T09:14:51.183Z</time></trkpt><trkpt lat="44.8282848" lon="8.1826592"><ele>171.5</ele><time>2026-03-29T09:14:52.184Z</time></trkpt><trkpt lat="44.828298" lon="8.1824585"><ele>170.75</ele><time>2026-03-29T09:14:53.184Z</time></trkpt><trkpt lat="44.8283198" lon="8.1822523"><ele>170.0</ele><time>2026-03-29T09:14:54.183Z</time></trkpt><trkpt lat="44.8283497" lon="8.182041"><ele>170.0</ele><time>2026-03-29T09:14:55.183Z</time></trkpt><trkpt lat="44.8283843" lon="8.1818322"><ele>170.0</ele><time>2026-03-29T09:14:56.183Z</time></trkpt><trkpt lat="44.8284213" lon="8.18162"><ele>170.0</ele><time>2026-03-29T09:14:57.183Z</time></trkpt><trkpt lat="44.8284582" lon="8.1814042"><ele>172.33333333333331</ele><time>2026-03-29T09:14:58.183Z</time></trkpt><trkpt lat="44.8284963" lon="8.1811892"><ele>174.66666666666666</ele><time>2026-03-29T09:14:59.186Z</time></trkpt><trkpt lat="44.8285362" lon="8.1809837"><ele>177.0</ele><time>2026-03-29T09:15:00.184Z</time></trkpt><trkpt lat="44.828576" lon="8.1807862"><ele>175.0</ele><time>2026-03-29T09:15:01.183Z</time></trkpt><trkpt lat="44.828615" lon="8.1805883"><ele>173.0</ele><time>2026-03-29T09:15:02.182Z</time></trkpt><trkpt lat="44.828651" lon="8.1803968"><ele>171.0</ele><time>2026-03-29T09:15:03.185Z</time></trkpt><trkpt lat="44.8286855" lon="8.1802085"><ele>169.0</ele><time>2026-03-29T09:15:04.183Z</time></trkpt><trkpt lat="44.828721" lon="8.1800192"><ele>166.25</ele><time>2026-03-29T09:15:05.182Z</time></trkpt><trkpt lat="44.8287525" lon="8.1798252"><ele>163.5</ele><time>2026-03-29T09:15:06.184Z</time></trkpt><trkpt lat="44.8287758" lon="8.1796273"><ele>160.75</ele><time>2026-03-29T09:15:07.182Z</time></trkpt><trkpt lat="44.8287853" lon="8.179425"><ele>158.0</ele><time>2026-03-29T09:15:08.185Z</time></trkpt><trkpt lat="44.8287743" lon="8.1792163"><ele>155.5</ele><time>2026-03-29T09:15:09.185Z</time></trkpt><trkpt lat="44.8287377" lon="8.1790162"><ele>153.0</ele><time>2026-03-29T09:15:10.183Z</time></trkpt><trkpt lat="44.8286768" lon="8.1788322"><ele>150.5</ele><time>2026-03-29T09:15:11.184Z</time></trkpt><trkpt lat="44.8285922" lon="8.178664"><ele>148.0</ele><time>2026-03-29T09:15:12.181Z</time></trkpt><trkpt lat="44.8284907" lon="8.178524"><ele>147.75</ele><time>2026-03-29T09:15:13.18Z</time></trkpt><trkpt lat="44.8283727" lon="8.1784045"><ele>147.5</ele><time>2026-03-29T09:15:14.181Z</time></trkpt><trkpt lat="44.8282517" lon="8.1783025"><ele>147.25</ele><time>2026-03-29T09:15:15.182Z</time></trkpt><trkpt lat="44.8281348" lon="8.1782093"><ele>147.0</ele><time>2026-03-29T09:15:16.183Z</time></trkpt><trkpt lat="44.8280192" lon="8.1781187"><ele>147.0</ele><time>2026-03-29T09:15:17.182Z</time></trkpt><trkpt lat="44.827907" lon="8.178027"><ele>147.0</ele><time>2026-03-29T09:15:18.185Z</time></trkpt><trkpt lat="44.8278112" lon="8.1779357"><ele>147.0</ele><time>2026-03-29T09:15:19.182Z</time></trkpt><trkpt lat="44.827737" lon="8.1778443"><ele>147.0</ele><time>2026-03-29T09:15:20.181Z</time></trkpt><trkpt lat="44.8276808" lon="8.1777592"><ele>147.0</ele><time>2026-03-29T09:15:21.18Z</time></trkpt><trkpt lat="44.8276373" lon="8.1776815"><ele>148.2</ele><time>2026-03-29T09:15:22.181Z</time></trkpt><trkpt lat="44.8275893" lon="8.1775452"><ele>149.39999999999998</ele><time>2026-03-29T09:15:24.183Z</time></trkpt><trkpt lat="44.8276132" lon="8.1774148"><ele>150.60000000000002</ele><time>2026-03-29T09:15:26.182Z</time></trkpt><trkpt lat="44.827731" lon="8.1773285"><ele>151.8</ele><time>2026-03-29T09:15:28.184Z</time></trkpt><trkpt lat="44.8278185" lon="8.1773138"><ele>153.0</ele><time>2026-03-29T09:15:29.182Z</time></trkpt><trkpt lat="44.8279103" lon="8.1773025"><ele>151.8</ele><time>2026-03-29T09:15:30.18Z</time></trkpt><trkpt lat="44.8280123" lon="8.1772938"><ele>150.60000000000002</ele><time>2026-03-29T09:15:31.183Z</time></trkpt><trkpt lat="44.828122" lon="8.1772978"><ele>149.39999999999998</ele><time>2026-03-29T09:15:32.181Z</time></trkpt><trkpt lat="44.8282387" lon="8.1773183"><ele>148.2</ele><time>2026-03-29T09:15:33.18Z</time></trkpt><trkpt lat="44.8283418" lon="8.1773497"><ele>147.0</ele><time>2026-03-29T09:15:34.18Z</time></trkpt><trkpt lat="44.8284268" lon="8.1773855"><ele>146.16666666666666</ele><time>2026-03-29T09:15:35.18Z</time></trkpt><trkpt lat="44.8284913" lon="8.1774107"><ele>145.33333333333334</ele><time>2026-03-29T09:15:36.178Z</time></trkpt><trkpt lat="44.828566" lon="8.1774148"><ele>144.5</ele><time>2026-03-29T09:15:38.177Z</time></trkpt><trkpt lat="44.8285178" lon="8.1773232"><ele>143.66666666666669</ele><time>2026-03-29T09:15:42.18Z</time></trkpt><trkpt lat="44.8284278" lon="8.1772345"><ele>142.83333333333334</ele><time>2026-03-29T09:15:44.181Z</time></trkpt><trkpt lat="44.8283933" lon="8.1771395"><ele>142.0</ele><time>2026-03-29T09:15:45.18Z</time></trkpt><trkpt lat="44.828355" lon="8.1770072"><ele>141.25</ele><time>2026-03-29T09:15:46.182Z</time></trkpt><trkpt lat="44.8283042" lon="8.176858"><ele>140.5</ele><time>2026-03-29T09:15:47.18Z</time></trkpt><trkpt lat="44.8282457" lon="8.1766887"><ele>139.75</ele><time>2026-03-29T09:15:48.179Z</time></trkpt><trkpt lat="44.8281932" lon="8.1765255"><ele>139.0</ele><time>2026-03-29T09:15:49.18Z</time></trkpt><trkpt lat="44.8281433" lon="8.1763717"><ele>138.0</ele><time>2026-03-29T09:15:50.179Z</time></trkpt><trkpt lat="44.8280955" lon="8.1762322"><ele>137.0</ele><time>2026-03-29T09:15:51.18Z</time></trkpt><trkpt lat="44.8280537" lon="8.17611"><ele>136.0</ele><time>2026-03-29T09:15:52.18Z</time></trkpt><trkpt lat="44.8280257" lon="8.1760082"><ele>135.0</ele><time>2026-03-29T09:15:53.181Z</time></trkpt><trkpt lat="44.8280062" lon="8.1758715"><ele>134.0</ele><time>2026-03-29T09:15:55.184Z</time></trkpt><trkpt lat="44.8279365" lon="8.1757288"><ele>133.8</ele><time>2026-03-29T09:15:58.182Z</time></trkpt><trkpt lat="44.827853" lon="8.1756588"><ele>133.60000000000002</ele><time>2026-03-29T09:15:59.181Z</time></trkpt><trkpt lat="44.8277485" lon="8.1755918"><ele>133.4</ele><time>2026-03-29T09:16:00.182Z</time></trkpt><trkpt lat="44.8276507" lon="8.1755247"><ele>133.20000000000002</ele><time>2026-03-29T09:16:01.18Z</time></trkpt><trkpt lat="44.8275757" lon="8.1754465"><ele>133.0</ele><time>2026-03-29T09:16:02.18Z</time></trkpt><trkpt lat="44.8275238" lon="8.1753402"><ele>133.0</ele><time>2026-03-29T09:16:03.18Z</time></trkpt><trkpt lat="44.827498" lon="8.1752003"><ele>133.0</ele><time>2026-03-29T09:16:04.181Z</time></trkpt><trkpt lat="44.827498" lon="8.1750128"><ele>133.0</ele><time>2026-03-29T09:16:05.182Z</time></trkpt><trkpt lat="44.8275187" lon="8.1747995"><ele>133.0</ele><time>2026-03-29T09:16:06.187Z</time></trkpt><trkpt lat="44.8275448" lon="8.174581"><ele>131.75</ele><time>2026-03-29T09:16:07.183Z</time></trkpt><trkpt lat="44.8275702" lon="8.1743835"><ele>130.5</ele><time>2026-03-29T09:16:08.185Z</time></trkpt><trkpt lat="44.8275955" lon="8.1742085"><ele>129.25</ele><time>2026-03-29T09:16:09.187Z</time></trkpt><trkpt lat="44.8276208" lon="8.1740532"><ele>128.0</ele><time>2026-03-29T09:16:10.183Z</time></trkpt><trkpt lat="44.827649" lon="8.1739063"><ele>127.25</ele><time>2026-03-29T09:16:11.182Z</time></trkpt><trkpt lat="44.8276845" lon="8.173748"><ele>126.5</ele><time>2026-03-29T09:16:12.18Z</time></trkpt><trkpt lat="44.8277298" lon="8.1735795"><ele>125.75</ele><time>2026-03-29T09:16:13.181Z</time></trkpt><trkpt lat="44.8277847" lon="8.173391"><ele>125.0</ele><time>2026-03-29T09:16:14.183Z</time></trkpt><trkpt lat="44.8278493" lon="8.1731928"><ele>125.66666666666666</ele><time>2026-03-29T09:16:15.182Z</time></trkpt><trkpt lat="44.8279245" lon="8.1729717"><ele>126.33333333333334</ele><time>2026-03-29T09:16:16.183Z</time></trkpt><trkpt lat="44.8280062" lon="8.1727397"><ele>127.0</ele><time>2026-03-29T09:16:17.181Z</time></trkpt><trkpt lat="44.8280772" lon="8.1725338"><ele>127.0</ele><time>2026-03-29T09:16:18.182Z</time></trkpt><trkpt lat="44.8281383" lon="8.1723597"><ele>126.99999999999999</ele><time>2026-03-29T09:16:19.171Z</time></trkpt><trkpt lat="44.8281868" lon="8.1722235"><ele>126.99999999999999</ele><time>2026-03-29T09:16:20.182Z</time></trkpt><trkpt lat="44.8282267" lon="8.1721163"><ele>127.0</ele><time>2026-03-29T09:16:21.182Z</time></trkpt><trkpt lat="44.8282732" lon="8.1719963"><ele>127.0</ele><time>2026-03-29T09:16:23.182Z</time></trkpt><trkpt lat="44.828259" lon="8.1718533"><ele>127.0</ele><time>2026-03-29T09:16:28.18Z</time></trkpt><trkpt lat="44.8282038" lon="8.1717523"><ele>127.0</ele><time>2026-03-29T09:16:29.18Z</time></trkpt><trkpt lat="44.8281092" lon="8.1716382"><ele>127.0</ele><time>2026-03-29T09:16:30.182Z</time></trkpt><trkpt lat="44.8279955" lon="8.171508"><ele>127.0</ele><time>2026-03-29T09:16:31.182Z</time></trkpt><trkpt lat="44.827873" lon="8.1713542"><ele>126.33333333333334</ele><time>2026-03-29T09:16:32.181Z</time></trkpt><trkpt lat="44.8277418" lon="8.1711742"><ele>125.66666666666666</ele><time>2026-03-29T09:16:33.182Z</time></trkpt><trkpt lat="44.8276067" lon="8.1709775"><ele>125.0</ele><time>2026-03-29T09:16:34.186Z</time></trkpt><trkpt lat="44.8274672" lon="8.1707658"><ele>125.33333333333333</ele><time>2026-03-29T09:16:35.183Z</time></trkpt><trkpt lat="44.8273232" lon="8.1705455"><ele>125.66666666666666</ele><time>2026-03-29T09:16:36.183Z</time></trkpt><trkpt lat="44.8271763" lon="8.1703247"><ele>126.0</ele><time>2026-03-29T09:16:37.183Z</time></trkpt><trkpt lat="44.8270288" lon="8.170106"><ele>126.0</ele><time>2026-03-29T09:16:38.181Z</time></trkpt><trkpt lat="44.8268828" lon="8.1698887"><ele>126.0</ele><time>2026-03-29T09:16:39.185Z</time></trkpt><trkpt lat="44.82674" lon="8.169674"><ele>126.0</ele><time>2026-03-29T09:16:40.182Z</time></trkpt><trkpt lat="44.826597" lon="8.16946"><ele>126.66666666666666</ele><time>2026-03-29T09:16:41.182Z</time></trkpt><trkpt lat="44.8264522" lon="8.1692473"><ele>127.33333333333333</ele><time>2026-03-29T09:16:42.182Z</time></trkpt><trkpt lat="44.8263077" lon="8.1690375"><ele>128.0</ele><time>2026-03-29T09:16:43.185Z</time></trkpt><trkpt lat="44.8261667" lon="8.1688305"><ele>128.33333333333331</ele><time>2026-03-29T09:16:44.18Z</time></trkpt><trkpt lat="44.826028" lon="8.1686262"><ele>128.66666666666666</ele><time>2026-03-29T09:16:45.181Z</time></trkpt><trkpt lat="44.8258905" lon="8.1684215"><ele>129.0</ele><time>2026-03-29T09:16:46.182Z</time></trkpt><trkpt lat="44.8257522" lon="8.1682145"><ele>128.33333333333334</ele><time>2026-03-29T09:16:47.181Z</time></trkpt><trkpt lat="44.8256108" lon="8.1680068"><ele>127.66666666666667</ele><time>2026-03-29T09:16:48.183Z</time></trkpt><trkpt lat="44.8254705" lon="8.1678012"><ele>127.0</ele><time>2026-03-29T09:16:49.189Z</time></trkpt><trkpt lat="44.8253335" lon="8.1675977"><ele>127.0</ele><time>2026-03-29T09:16:50.181Z</time></trkpt><trkpt lat="44.8251985" lon="8.1673953"><ele>127.0</ele><time>2026-03-29T09:16:51.181Z</time></trkpt><trkpt lat="44.8250638" lon="8.1671935"><ele>127.0</ele><time>2026-03-29T09:16:52.181Z</time></trkpt><trkpt lat="44.82493" lon="8.166994"><ele>127.0</ele><time>2026-03-29T09:16:53.181Z</time></trkpt><trkpt lat="44.8247955" lon="8.1667953"><ele>127.0</ele><time>2026-03-29T09:16:54.184Z</time></trkpt><trkpt lat="44.8246587" lon="8.1665945"><ele>127.0</ele><time>2026-03-29T09:16:55.184Z</time></trkpt><trkpt lat="44.824521" lon="8.1663913"><ele>127.33333333333334</ele><time>2026-03-29T09:16:56.183Z</time></trkpt><trkpt lat="44.8243835" lon="8.1661887"><ele>127.66666666666666</ele><time>2026-03-29T09:16:57.184Z</time></trkpt><trkpt lat="44.8242465" lon="8.1659867"><ele>128.0</ele><time>2026-03-29T09:16:58.183Z</time></trkpt><trkpt lat="44.8241095" lon="8.165784"><ele>128.66666666666666</ele><time>2026-03-29T09:16:59.186Z</time></trkpt><trkpt lat="44.8239737" lon="8.1655815"><ele>129.33333333333334</ele><time>2026-03-29T09:17:00.182Z</time></trkpt><trkpt lat="44.8238387" lon="8.165381"><ele>130.0</ele><time>2026-03-29T09:17:01.182Z</time></trkpt><trkpt lat="44.8237032" lon="8.1651782"><ele>130.0</ele><time>2026-03-29T09:17:02.182Z</time></trkpt><trkpt lat="44.8235652" lon="8.1649715"><ele>130.0</ele><time>2026-03-29T09:17:03.182Z</time></trkpt><trkpt lat="44.8234247" lon="8.1647635"><ele>130.0</ele><time>2026-03-29T09:17:04.183Z</time></trkpt><trkpt lat="44.8232843" lon="8.164557"><ele>128.66666666666669</ele><time>2026-03-29T09:17:05.181Z</time></trkpt><trkpt lat="44.8231482" lon="8.1643575"><ele>127.33333333333334</ele><time>2026-03-29T09:17:06.183Z</time></trkpt><trkpt lat="44.823014" lon="8.1641598"><ele>126.0</ele><time>2026-03-29T09:17:07.183Z</time></trkpt><trkpt lat="44.822881" lon="8.1639617"><ele>126.0</ele><time>2026-03-29T09:17:08.182Z</time></trkpt><trkpt lat="44.822747" lon="8.1637612"><ele>126.0</ele><time>2026-03-29T09:17:09.186Z</time></trkpt><trkpt lat="44.8226128" lon="8.1635607"><ele>126.0</ele><time>2026-03-29T09:17:10.186Z</time></trkpt><trkpt lat="44.8224802" lon="8.163365"><ele>126.33333333333334</ele><time>2026-03-29T09:17:11.181Z</time></trkpt><trkpt lat="44.8223497" lon="8.1631727"><ele>126.66666666666667</ele><time>2026-03-29T09:17:12.184Z</time></trkpt><trkpt lat="44.8222198" lon="8.1629832"><ele>127.0</ele><time>2026-03-29T09:17:13.182Z</time></trkpt><trkpt lat="44.8220898" lon="8.1627933"><ele>127.0</ele><time>2026-03-29T09:17:14.183Z</time></trkpt><trkpt lat="44.8219583" lon="8.1625987"><ele>127.0</ele><time>2026-03-29T09:17:15.18Z</time></trkpt><trkpt lat="44.8218245" lon="8.1623982"><ele>127.0</ele><time>2026-03-29T09:17:16.18Z</time></trkpt><trkpt lat="44.8216883" lon="8.162193"><ele>127.33333333333334</ele><time>2026-03-29T09:17:17.18Z</time></trkpt><trkpt lat="44.8215498" lon="8.161984"><ele>127.66666666666666</ele><time>2026-03-29T09:17:18.18Z</time></trkpt><trkpt lat="44.8214083" lon="8.1617745"><ele>128.0</ele><time>2026-03-29T09:17:19.185Z</time></trkpt><trkpt lat="44.8212647" lon="8.1615638"><ele>128.0</ele><time>2026-03-29T09:17:20.181Z</time></trkpt><trkpt lat="44.8211205" lon="8.1613502"><ele>128.0</ele><time>2026-03-29T09:17:21.181Z</time></trkpt><trkpt lat="44.820977" lon="8.1611343"><ele>128.0</ele><time>2026-03-29T09:17:22.182Z</time></trkpt><trkpt lat="44.8208345" lon="8.1609233"><ele>127.66666666666666</ele><time>2026-03-29T09:17:23.181Z</time></trkpt><trkpt lat="44.8206932" lon="8.1607175"><ele>127.33333333333334</ele><time>2026-03-29T09:17:24.182Z</time></trkpt><trkpt lat="44.820555" lon="8.1605147"><ele>127.0</ele><time>2026-03-29T09:17:25.182Z</time></trkpt><trkpt lat="44.8204188" lon="8.1603118"><ele>127.0</ele><time>2026-03-29T09:17:26.18Z</time></trkpt><trkpt lat="44.8202842" lon="8.1601082"><ele>127.0</ele><time>2026-03-29T09:17:27.181Z</time></trkpt><trkpt lat="44.8201495" lon="8.1599063"><ele>127.0</ele><time>2026-03-29T09:17:28.183Z</time></trkpt><trkpt lat="44.8200142" lon="8.1597065"><ele>127.0</ele><time>2026-03-29T09:17:29.18Z</time></trkpt><trkpt lat="44.8198797" lon="8.159506"><ele>127.0</ele><time>2026-03-29T09:17:30.185Z</time></trkpt><trkpt lat="44.8197455" lon="8.1593055"><ele>127.0</ele><time>2026-03-29T09:17:31.182Z</time></trkpt><trkpt lat="44.8196112" lon="8.1591045"><ele>126.66666666666667</ele><time>2026-03-29T09:17:32.181Z</time></trkpt><trkpt lat="44.8194763" lon="8.1589028"><ele>126.33333333333334</ele><time>2026-03-29T09:17:33.182Z</time></trkpt><trkpt lat="44.8193412" lon="8.158699"><ele>126.0</ele><time>2026-03-29T09:17:34.183Z</time></trkpt><trkpt lat="44.8192043" lon="8.1584932"><ele>127.33333333333334</ele><time>2026-03-29T09:17:35.18Z</time></trkpt><trkpt lat="44.8190645" lon="8.158288"><ele>128.66666666666669</ele><time>2026-03-29T09:17:36.183Z</time></trkpt><trkpt lat="44.8189213" lon="8.1580828"><ele>130.0</ele><time>2026-03-29T09:17:37.182Z</time></trkpt><trkpt lat="44.818776" lon="8.15788"><ele>130.0</ele><time>2026-03-29T09:17:38.183Z</time></trkpt><trkpt lat="44.8186363" lon="8.1576895"><ele>130.0</ele><time>2026-03-29T09:17:39.182Z</time></trkpt><trkpt lat="44.8184998" lon="8.1575125"><ele>130.0</ele><time>2026-03-29T09:17:40.18Z</time></trkpt><trkpt lat="44.8183628" lon="8.1573427"><ele>129.33333333333334</ele><time>2026-03-29T09:17:41.179Z</time></trkpt><trkpt lat="44.818221" lon="8.1571717"><ele>128.66666666666666</ele><time>2026-03-29T09:17:42.18Z</time></trkpt><trkpt lat="44.8180788" lon="8.1570018"><ele>128.0</ele><time>2026-03-29T09:17:43.182Z</time></trkpt><trkpt lat="44.8179382" lon="8.1568332"><ele>128.0</ele><time>2026-03-29T09:17:44.182Z</time></trkpt><trkpt lat="44.817798" lon="8.1566627"><ele>128.0</ele><time>2026-03-29T09:17:45.182Z</time></trkpt><trkpt lat="44.8176578" lon="8.1564925"><ele>128.0</ele><time>2026-03-29T09:17:46.185Z</time></trkpt><trkpt lat="44.8175185" lon="8.156323"><ele>128.0</ele><time>2026-03-29T09:17:47.182Z</time></trkpt><trkpt lat="44.8173803" lon="8.156154"><ele>128.0</ele><time>2026-03-29T09:17:48.183Z</time></trkpt><trkpt lat="44.8172418" lon="8.1559857"><ele>128.0</ele><time>2026-03-29T09:17:49.182Z</time></trkpt><trkpt lat="44.8171057" lon="8.1558213"><ele>128.0</ele><time>2026-03-29T09:17:50.182Z</time></trkpt><trkpt lat="44.8169647" lon="8.1556573"><ele>128.0</ele><time>2026-03-29T09:17:51.183Z</time></trkpt><trkpt lat="44.8168082" lon="8.1554815"><ele>128.0</ele><time>2026-03-29T09:17:52.185Z</time></trkpt><trkpt lat="44.8166395" lon="8.1552872"><ele>128.0</ele><time>2026-03-29T09:17:53.182Z</time></trkpt><trkpt lat="44.8164703" lon="8.1550815"><ele>128.0</ele><time>2026-03-29T09:17:54.183Z</time></trkpt><trkpt lat="44.816307" lon="8.1548727"><ele>128.0</ele><time>2026-03-29T09:17:55.183Z</time></trkpt><trkpt lat="44.8161475" lon="8.1546653"><ele>128.0</ele><time>2026-03-29T09:17:56.184Z</time></trkpt><trkpt lat="44.815995" lon="8.1544707"><ele>128.0</ele><time>2026-03-29T09:17:57.183Z</time></trkpt><trkpt lat="44.8158495" lon="8.1542912"><ele>128.0</ele><time>2026-03-29T09:17:58.184Z</time></trkpt><trkpt lat="44.8157077" lon="8.1541202"><ele>127.66666666666666</ele><time>2026-03-29T09:17:59.182Z</time></trkpt><trkpt lat="44.8155715" lon="8.1539553"><ele>127.33333333333334</ele><time>2026-03-29T09:18:00.184Z</time></trkpt><trkpt lat="44.8154402" lon="8.1537962"><ele>127.0</ele><time>2026-03-29T09:18:01.187Z</time></trkpt><trkpt lat="44.8153107" lon="8.153639"><ele>127.0</ele><time>2026-03-29T09:18:02.183Z</time></trkpt><trkpt lat="44.8151827" lon="8.1534828"><ele>127.0</ele><time>2026-03-29T09:18:03.184Z</time></trkpt><trkpt lat="44.815057" lon="8.1533285"><ele>127.0</ele><time>2026-03-29T09:18:04.182Z</time></trkpt><trkpt lat="44.8149338" lon="8.1531762"><ele>127.66666666666667</ele><time>2026-03-29T09:18:05.182Z</time></trkpt><trkpt lat="44.8148127" lon="8.1530258"><ele>128.33333333333334</ele><time>2026-03-29T09:18:06.181Z</time></trkpt><trkpt lat="44.8146908" lon="8.1528745"><ele>129.0</ele><time>2026-03-29T09:18:07.182Z</time></trkpt><trkpt lat="44.814568" lon="8.1527232"><ele>129.0</ele><time>2026-03-29T09:18:08.182Z</time></trkpt><trkpt lat="44.8144445" lon="8.1525727"><ele>129.0</ele><time>2026-03-29T09:18:09.186Z</time></trkpt><trkpt lat="44.8143225" lon="8.1524233"><ele>129.0</ele><time>2026-03-29T09:18:10.183Z</time></trkpt><trkpt lat="44.8142035" lon="8.1522758"><ele>129.33333333333334</ele><time>2026-03-29T09:18:11.184Z</time></trkpt><trkpt lat="44.814086" lon="8.15213"><ele>129.66666666666669</ele><time>2026-03-29T09:18:12.183Z</time></trkpt><trkpt lat="44.813967" lon="8.1519845"><ele>130.0</ele><time>2026-03-29T09:18:13.184Z</time></trkpt><trkpt lat="44.8138463" lon="8.1518395"><ele>130.0</ele><time>2026-03-29T09:18:14.185Z</time></trkpt><trkpt lat="44.8137262" lon="8.1516947"><ele>130.0</ele><time>2026-03-29T09:18:15.185Z</time></trkpt><trkpt lat="44.8136087" lon="8.1515528"><ele>130.0</ele><time>2026-03-29T09:18:16.186Z</time></trkpt><trkpt lat="44.8134987" lon="8.1514202"><ele>130.25</ele><time>2026-03-29T09:18:17.184Z</time></trkpt><trkpt lat="44.8133972" lon="8.151297"><ele>130.5</ele><time>2026-03-29T09:18:18.183Z</time></trkpt><trkpt lat="44.8133007" lon="8.1511788"><ele>130.75</ele><time>2026-03-29T09:18:19.185Z</time></trkpt><trkpt lat="44.8132042" lon="8.1510613"><ele>131.0</ele><time>2026-03-29T09:18:20.184Z</time></trkpt><trkpt lat="44.8131088" lon="8.1509458"><ele>131.0</ele><time>2026-03-29T09:18:21.183Z</time></trkpt><trkpt lat="44.8130188" lon="8.1508367"><ele>131.0</ele><time>2026-03-29T09:18:22.186Z</time></trkpt><trkpt lat="44.812932" lon="8.150732"><ele>131.0</ele><time>2026-03-29T09:18:23.183Z</time></trkpt><trkpt lat="44.8128457" lon="8.1506273"><ele>131.0</ele><time>2026-03-29T09:18:24.183Z</time></trkpt><trkpt lat="44.8127617" lon="8.1505237"><ele>130.8</ele><time>2026-03-29T09:18:25.184Z</time></trkpt><trkpt lat="44.812679" lon="8.1504218"><ele>130.6</ele><time>2026-03-29T09:18:26.185Z</time></trkpt><trkpt lat="44.8125948" lon="8.150318"><ele>130.4</ele><time>2026-03-29T09:18:27.184Z</time></trkpt><trkpt lat="44.8125118" lon="8.1502155"><ele>130.2</ele><time>2026-03-29T09:18:28.182Z</time></trkpt><trkpt lat="44.8124307" lon="8.1501142"><ele>130.0</ele><time>2026-03-29T09:18:29.183Z</time></trkpt><trkpt lat="44.8123448" lon="8.1500083"><ele>130.0</ele><time>2026-03-29T09:18:30.182Z</time></trkpt><trkpt lat="44.812248" lon="8.1498947"><ele>130.0</ele><time>2026-03-29T09:18:31.182Z</time></trkpt><trkpt lat="44.8121502" lon="8.1497803"><ele>130.0</ele><time>2026-03-29T09:18:32.183Z</time></trkpt><trkpt lat="44.8120555" lon="8.1496638"><ele>130.0</ele><time>2026-03-29T09:18:33.184Z</time></trkpt><trkpt lat="44.81196" lon="8.1495438"><ele>130.0</ele><time>2026-03-29T09:18:34.185Z</time></trkpt><trkpt lat="44.8118633" lon="8.1494218"><ele>130.0</ele><time>2026-03-29T09:18:35.183Z</time></trkpt><trkpt lat="44.811766" lon="8.1492977"><ele>130.0</ele><time>2026-03-29T09:18:36.184Z</time></trkpt><trkpt lat="44.8116668" lon="8.1491732"><ele>130.0</ele><time>2026-03-29T09:18:37.186Z</time></trkpt><trkpt lat="44.8115662" lon="8.1490493"><ele>130.25</ele><time>2026-03-29T09:18:38.187Z</time></trkpt><trkpt lat="44.8114647" lon="8.1489257"><ele>130.5</ele><time>2026-03-29T09:18:39.183Z</time></trkpt><trkpt lat="44.8113632" lon="8.1488005"><ele>130.75</ele><time>2026-03-29T09:18:40.186Z</time></trkpt><trkpt lat="44.8112613" lon="8.1486747"><ele>131.0</ele><time>2026-03-29T09:18:41.183Z</time></trkpt><trkpt lat="44.8111592" lon="8.1485452"><ele>131.0</ele><time>2026-03-29T09:18:42.183Z</time></trkpt><trkpt lat="44.8110547" lon="8.1484115"><ele>131.0</ele><time>2026-03-29T09:18:43.183Z</time></trkpt><trkpt lat="44.810948" lon="8.1482755"><ele>131.0</ele><time>2026-03-29T09:18:44.184Z</time></trkpt><trkpt lat="44.8108403" lon="8.148137"><ele>131.0</ele><time>2026-03-29T09:18:45.183Z</time></trkpt><trkpt lat="44.810732" lon="8.1479932"><ele>130.66666666666666</ele><time>2026-03-29T09:18:46.183Z</time></trkpt><trkpt lat="44.8106263" lon="8.147848"><ele>130.33333333333334</ele><time>2026-03-29T09:18:47.183Z</time></trkpt><trkpt lat="44.8105183" lon="8.1476928"><ele>130.0</ele><time>2026-03-29T09:18:48.184Z</time></trkpt><trkpt lat="44.8104105" lon="8.1475275"><ele>130.25</ele><time>2026-03-29T09:18:49.186Z</time></trkpt><trkpt lat="44.8103097" lon="8.147365"><ele>130.5</ele><time>2026-03-29T09:18:50.184Z</time></trkpt><trkpt lat="44.8102158" lon="8.1472073"><ele>130.75</ele><time>2026-03-29T09:18:51.184Z</time></trkpt><trkpt lat="44.8101258" lon="8.1470503"><ele>131.0</ele><time>2026-03-29T09:18:52.182Z</time></trkpt><trkpt lat="44.8100402" lon="8.1468988"><ele>131.0</ele><time>2026-03-29T09:18:53.181Z</time></trkpt><trkpt lat="44.8099595" lon="8.1467528"><ele>131.0</ele><time>2026-03-29T09:18:54.181Z</time></trkpt><trkpt lat="44.8098803" lon="8.1466068"><ele>131.0</ele><time>2026-03-29T09:18:55.182Z</time></trkpt><trkpt lat="44.8098062" lon="8.1464648"><ele>131.0</ele><time>2026-03-29T09:18:56.184Z</time></trkpt><trkpt lat="44.8097383" lon="8.1463297"><ele>131.2</ele><time>2026-03-29T09:18:57.183Z</time></trkpt><trkpt lat="44.809676" lon="8.1462073"><ele>131.39999999999998</ele><time>2026-03-29T09:18:58.186Z</time></trkpt><trkpt lat="44.8096185" lon="8.1460968"><ele>131.6</ele><time>2026-03-29T09:18:59.184Z</time></trkpt><trkpt lat="44.8095682" lon="8.1460002"><ele>131.79999999999998</ele><time>2026-03-29T09:19:00.184Z</time></trkpt><trkpt lat="44.8095285" lon="8.1459195"><ele>132.0</ele><time>2026-03-29T09:19:01.185Z</time></trkpt><trkpt lat="44.8094807" lon="8.1458077"><ele>132.0</ele><time>2026-03-29T09:19:03.185Z</time></trkpt><trkpt lat="44.8094557" lon="8.145717"><ele>132.0</ele><time>2026-03-29T09:19:05.182Z</time></trkpt><trkpt lat="44.8094038" lon="8.1455512"><ele>132.0</ele><time>2026-03-29T09:19:07.184Z</time></trkpt><trkpt lat="44.80934" lon="8.14544"><ele>132.0</ele><time>2026-03-29T09:19:08.185Z</time></trkpt><trkpt lat="44.8092588" lon="8.1453267"><ele>132.0</ele><time>2026-03-29T09:19:09.185Z</time></trkpt><trkpt lat="44.8091638" lon="8.145192"><ele>131.66666666666666</ele><time>2026-03-29T09:19:10.185Z</time></trkpt><trkpt lat="44.8090677" lon="8.1450398"><ele>131.33333333333331</ele><time>2026-03-29T09:19:11.185Z</time></trkpt><trkpt lat="44.8089698" lon="8.1448752"><ele>131.0</ele><time>2026-03-29T09:19:12.184Z</time></trkpt><trkpt lat="44.8088718" lon="8.1447063"><ele>131.0</ele><time>2026-03-29T09:19:13.185Z</time></trkpt><trkpt lat="44.8087838" lon="8.1445573"><ele>131.0</ele><time>2026-03-29T09:19:14.184Z</time></trkpt><trkpt lat="44.8087028" lon="8.1444202"><ele>131.0</ele><time>2026-03-29T09:19:15.183Z</time></trkpt><trkpt lat="44.8086225" lon="8.1442865"><ele>131.0</ele><time>2026-03-29T09:19:16.183Z</time></trkpt><trkpt lat="44.8085402" lon="8.1441495"><ele>131.5</ele><time>2026-03-29T09:19:17.18Z</time></trkpt><trkpt lat="44.8084602" lon="8.1440135"><ele>132.0</ele><time>2026-03-29T09:19:18.181Z</time></trkpt><trkpt lat="44.8083872" lon="8.1438837"><ele>132.5</ele><time>2026-03-29T09:19:19.181Z</time></trkpt><trkpt lat="44.8083168" lon="8.1437583"><ele>133.0</ele><time>2026-03-29T09:19:20.18Z</time></trkpt><trkpt lat="44.808247" lon="8.1436377"><ele>133.0</ele><time>2026-03-29T09:19:21.182Z</time></trkpt><trkpt lat="44.8081798" lon="8.1435225"><ele>133.0</ele><time>2026-03-29T09:19:22.186Z</time></trkpt><trkpt lat="44.8081132" lon="8.1434068"><ele>133.0</ele><time>2026-03-29T09:19:23.184Z</time></trkpt><trkpt lat="44.8080487" lon="8.143294"><ele>133.0</ele><time>2026-03-29T09:19:24.183Z</time></trkpt><trkpt lat="44.807985" lon="8.143183"><ele>133.0</ele><time>2026-03-29T09:19:25.184Z</time></trkpt><trkpt lat="44.8079223" lon="8.1430742"><ele>133.0</ele><time>2026-03-29T09:19:26.184Z</time></trkpt><trkpt lat="44.8078587" lon="8.1429613"><ele>133.0</ele><time>2026-03-29T09:19:27.185Z</time></trkpt><trkpt lat="44.8077953" lon="8.14285"><ele>133.0</ele><time>2026-03-29T09:19:28.184Z</time></trkpt><trkpt lat="44.8077305" lon="8.1427375"><ele>133.0</ele><time>2026-03-29T09:19:29.182Z</time></trkpt><trkpt lat="44.8076643" lon="8.1426245"><ele>133.0</ele><time>2026-03-29T09:19:30.187Z</time></trkpt><trkpt lat="44.8075963" lon="8.1425093"><ele>133.0</ele><time>2026-03-29T09:19:31.182Z</time></trkpt><trkpt lat="44.8075267" lon="8.1423898"><ele>133.0</ele><time>2026-03-29T09:19:32.183Z</time></trkpt><trkpt lat="44.8074555" lon="8.1422668"><ele>133.0</ele><time>2026-03-29T09:19:33.183Z</time></trkpt><trkpt lat="44.8073817" lon="8.142142"><ele>133.0</ele><time>2026-03-29T09:19:34.185Z</time></trkpt><trkpt lat="44.8073058" lon="8.1420153"><ele>132.75</ele><time>2026-03-29T09:19:35.184Z</time></trkpt><trkpt lat="44.8072285" lon="8.1418853"><ele>132.5</ele><time>2026-03-29T09:19:36.184Z</time></trkpt><trkpt lat="44.8071488" lon="8.1417505"><ele>132.25</ele><time>2026-03-29T09:19:37.185Z</time></trkpt><trkpt lat="44.8070653" lon="8.1416103"><ele>132.0</ele><time>2026-03-29T09:19:38.184Z</time></trkpt><trkpt lat="44.806978" lon="8.141462"><ele>132.0</ele><time>2026-03-29T09:19:39.185Z</time></trkpt><trkpt lat="44.806887" lon="8.1413035"><ele>132.0</ele><time>2026-03-29T09:19:40.187Z</time></trkpt><trkpt lat="44.8067923" lon="8.1411378"><ele>132.0</ele><time>2026-03-29T09:19:41.183Z</time></trkpt><trkpt lat="44.8066965" lon="8.1409708"><ele>132.0</ele><time>2026-03-29T09:19:42.181Z</time></trkpt><trkpt lat="44.8065973" lon="8.1407978"><ele>132.66666666666666</ele><time>2026-03-29T09:19:43.181Z</time></trkpt><trkpt lat="44.8064923" lon="8.140617"><ele>133.33333333333331</ele><time>2026-03-29T09:19:44.181Z</time></trkpt><trkpt lat="44.8063837" lon="8.1404337"><ele>134.0</ele><time>2026-03-29T09:19:45.183Z</time></trkpt><trkpt lat="44.8062758" lon="8.1402528"><ele>134.0</ele><time>2026-03-29T09:19:46.184Z</time></trkpt><trkpt lat="44.8061718" lon="8.1400757"><ele>134.0</ele><time>2026-03-29T09:19:47.184Z</time></trkpt><trkpt lat="44.8060702" lon="8.1399007"><ele>134.0</ele><time>2026-03-29T09:19:48.184Z</time></trkpt><trkpt lat="44.8059693" lon="8.139727"><ele>133.33333333333331</ele><time>2026-03-29T09:19:49.184Z</time></trkpt><trkpt lat="44.805867" lon="8.1395528"><ele>132.66666666666666</ele><time>2026-03-29T09:19:50.182Z</time></trkpt><trkpt lat="44.8057625" lon="8.1393742"><ele>132.0</ele><time>2026-03-29T09:19:51.184Z</time></trkpt><trkpt lat="44.8056558" lon="8.1391905"><ele>132.0</ele><time>2026-03-29T09:19:52.184Z</time></trkpt><trkpt lat="44.8055497" lon="8.1390063"><ele>132.0</ele><time>2026-03-29T09:19:53.183Z</time></trkpt><trkpt lat="44.8054447" lon="8.1388243"><ele>132.0</ele><time>2026-03-29T09:19:54.185Z</time></trkpt><trkpt lat="44.8053402" lon="8.1386442"><ele>132.0</ele><time>2026-03-29T09:19:55.184Z</time></trkpt><trkpt lat="44.8052362" lon="8.1384643"><ele>132.0</ele><time>2026-03-29T09:19:56.183Z</time></trkpt><trkpt lat="44.8051328" lon="8.1382847"><ele>132.0</ele><time>2026-03-29T09:19:57.184Z</time></trkpt><trkpt lat="44.8050283" lon="8.1381062"><ele>131.66666666666666</ele><time>2026-03-29T09:19:58.185Z</time></trkpt><trkpt lat="44.8049227" lon="8.1379298"><ele>131.33333333333331</ele><time>2026-03-29T09:19:59.182Z</time></trkpt><trkpt lat="44.804812" lon="8.1377565"><ele>131.0</ele><time>2026-03-29T09:20:00.186Z</time></trkpt><trkpt lat="44.8046942" lon="8.1375875"><ele>131.0</ele><time>2026-03-29T09:20:01.184Z</time></trkpt><trkpt lat="44.804568" lon="8.1374245"><ele>131.0</ele><time>2026-03-29T09:20:02.185Z</time></trkpt><trkpt lat="44.8044337" lon="8.1372682"><ele>131.0</ele><time>2026-03-29T09:20:03.183Z</time></trkpt><trkpt lat="44.8042953" lon="8.137116"><ele>131.66666666666666</ele><time>2026-03-29T09:20:04.184Z</time></trkpt><trkpt lat="44.8041572" lon="8.136965"><ele>132.33333333333334</ele><time>2026-03-29T09:20:05.183Z</time></trkpt><trkpt lat="44.8040188" lon="8.1368165"><ele>133.0</ele><time>2026-03-29T09:20:06.182Z</time></trkpt><trkpt lat="44.8038803" lon="8.1366715"><ele>132.33333333333334</ele><time>2026-03-29T09:20:07.183Z</time></trkpt><trkpt lat="44.8037425" lon="8.1365323"><ele>131.66666666666666</ele><time>2026-03-29T09:20:08.182Z</time></trkpt><trkpt lat="44.8036055" lon="8.1363975"><ele>131.0</ele><time>2026-03-29T09:20:09.182Z</time></trkpt><trkpt lat="44.8034713" lon="8.1362617"><ele>131.0</ele><time>2026-03-29T09:20:10.19Z</time></trkpt><trkpt lat="44.8033388" lon="8.1361243"><ele>131.0</ele><time>2026-03-29T09:20:11.187Z</time></trkpt><trkpt lat="44.803206" lon="8.1359867"><ele>131.0</ele><time>2026-03-29T09:20:12.184Z</time></trkpt><trkpt lat="44.8030717" lon="8.13585"><ele>130.66666666666666</ele><time>2026-03-29T09:20:13.187Z</time></trkpt><trkpt lat="44.802936" lon="8.1357135"><ele>130.33333333333334</ele><time>2026-03-29T09:20:14.183Z</time></trkpt><trkpt lat="44.8028008" lon="8.1355742"><ele>130.0</ele><time>2026-03-29T09:20:15.183Z</time></trkpt><trkpt lat="44.8026673" lon="8.1354332"><ele>131.0</ele><time>2026-03-29T09:20:16.183Z</time></trkpt><trkpt lat="44.8025427" lon="8.135298"><ele>132.0</ele><time>2026-03-29T09:20:17.184Z</time></trkpt><trkpt lat="44.8024237" lon="8.1351678"><ele>133.0</ele><time>2026-03-29T09:20:18.185Z</time></trkpt><trkpt lat="44.8023067" lon="8.1350412"><ele>133.0</ele><time>2026-03-29T09:20:19.186Z</time></trkpt><trkpt lat="44.8021898" lon="8.1349182"><ele>133.0</ele><time>2026-03-29T09:20:20.183Z</time></trkpt><trkpt lat="44.8020728" lon="8.134798"><ele>133.0</ele><time>2026-03-29T09:20:21.185Z</time></trkpt><trkpt lat="44.801959" lon="8.1346837"><ele>133.0</ele><time>2026-03-29T09:20:22.184Z</time></trkpt><trkpt lat="44.8018515" lon="8.1345768"><ele>133.0</ele><time>2026-03-29T09:20:23.184Z</time></trkpt><trkpt lat="44.8017565" lon="8.1344803"><ele>133.0</ele><time>2026-03-29T09:20:24.183Z</time></trkpt><trkpt lat="44.8016785" lon="8.134397"><ele>133.0</ele><time>2026-03-29T09:20:25.184Z</time></trkpt><trkpt lat="44.8016187" lon="8.1343252"><ele>133.0</ele><time>2026-03-29T09:20:26.182Z</time></trkpt><trkpt lat="44.8015728" lon="8.1342518"><ele>133.0</ele><time>2026-03-29T09:20:27.184Z</time></trkpt><trkpt lat="44.8015413" lon="8.1341685"><ele>133.0</ele><time>2026-03-29T09:20:28.186Z</time></trkpt><trkpt lat="44.801518" lon="8.1340705"><ele>133.0</ele><time>2026-03-29T09:20:29.187Z</time></trkpt><trkpt lat="44.8014985" lon="8.1339653"><ele>133.0</ele><time>2026-03-29T09:20:30.183Z</time></trkpt><trkpt lat="44.8014757" lon="8.1338583"><ele>133.0</ele><time>2026-03-29T09:20:31.183Z</time></trkpt><trkpt lat="44.8014447" lon="8.1337552"><ele>133.0</ele><time>2026-03-29T09:20:32.18Z</time></trkpt><trkpt lat="44.8014015" lon="8.1336592"><ele>133.0</ele><time>2026-03-29T09:20:33.183Z</time></trkpt><trkpt lat="44.801343" lon="8.1335747"><ele>133.0</ele><time>2026-03-29T09:20:34.182Z</time></trkpt><trkpt lat="44.801271" lon="8.1335117"><ele>133.0</ele><time>2026-03-29T09:20:35.186Z</time></trkpt><trkpt lat="44.8011927" lon="8.1334713"><ele>133.0</ele><time>2026-03-29T09:20:36.183Z</time></trkpt><trkpt lat="44.8011128" lon="8.1334543"><ele>133.0</ele><time>2026-03-29T09:20:37.184Z</time></trkpt><trkpt lat="44.8010218" lon="8.1334517"><ele>133.0</ele><time>2026-03-29T09:20:38.186Z</time></trkpt><trkpt lat="44.8009122" lon="8.1334517"><ele>133.0</ele><time>2026-03-29T09:20:39.184Z</time></trkpt><trkpt lat="44.8008027" lon="8.1334255"><ele>133.0</ele><time>2026-03-29T09:20:40.182Z</time></trkpt><trkpt lat="44.8006908" lon="8.1333505"><ele>133.0</ele><time>2026-03-29T09:20:41.182Z</time></trkpt><trkpt lat="44.8005683" lon="8.1332338"><ele>133.0</ele><time>2026-03-29T09:20:42.183Z</time></trkpt><trkpt lat="44.8004373" lon="8.1330947"><ele>133.0</ele><time>2026-03-29T09:20:43.185Z</time></trkpt><trkpt lat="44.8002862" lon="8.132935"><ele>132.66666666666669</ele><time>2026-03-29T09:20:44.182Z</time></trkpt><trkpt lat="44.8001273" lon="8.1327725"><ele>132.33333333333334</ele><time>2026-03-29T09:20:45.183Z</time></trkpt><trkpt lat="44.7999592" lon="8.132603"><ele>132.0</ele><time>2026-03-29T09:20:46.184Z</time></trkpt><trkpt lat="44.7998012" lon="8.1324423"><ele>131.66666666666666</ele><time>2026-03-29T09:20:47.182Z</time></trkpt><trkpt lat="44.7996558" lon="8.1322933"><ele>131.33333333333331</ele><time>2026-03-29T09:20:48.183Z</time></trkpt><trkpt lat="44.7995202" lon="8.1321553"><ele>131.0</ele><time>2026-03-29T09:20:49.183Z</time></trkpt><trkpt lat="44.7993945" lon="8.1320263"><ele>131.0</ele><time>2026-03-29T09:20:50.183Z</time></trkpt><trkpt lat="44.7992773" lon="8.1319045"><ele>131.0</ele><time>2026-03-29T09:20:51.184Z</time></trkpt><trkpt lat="44.7991617" lon="8.1317847"><ele>131.0</ele><time>2026-03-29T09:20:52.185Z</time></trkpt><trkpt lat="44.7990428" lon="8.1316617"><ele>131.0</ele><time>2026-03-29T09:20:53.183Z</time></trkpt><trkpt lat="44.798922" lon="8.1315355"><ele>131.0</ele><time>2026-03-29T09:20:54.183Z</time></trkpt><trkpt lat="44.7987998" lon="8.1314075"><ele>131.0</ele><time>2026-03-29T09:20:55.183Z</time></trkpt><trkpt lat="44.798675" lon="8.131279"><ele>131.0</ele><time>2026-03-29T09:20:56.18Z</time></trkpt><trkpt lat="44.7985487" lon="8.1311498"><ele>131.33333333333331</ele><time>2026-03-29T09:20:57.178Z</time></trkpt><trkpt lat="44.798422" lon="8.1310135"><ele>131.66666666666666</ele><time>2026-03-29T09:20:58.178Z</time></trkpt><trkpt lat="44.7982928" lon="8.1308818"><ele>132.0</ele><time>2026-03-29T09:20:59.18Z</time></trkpt><trkpt lat="44.7981628" lon="8.1307493"><ele>131.66666666666666</ele><time>2026-03-29T09:21:00.179Z</time></trkpt><trkpt lat="44.7980267" lon="8.1306162"><ele>131.33333333333331</ele><time>2026-03-29T09:21:01.182Z</time></trkpt><trkpt lat="44.7978638" lon="8.130465"><ele>131.0</ele><time>2026-03-29T09:21:02.18Z</time></trkpt><trkpt lat="44.7976795" lon="8.1302835"><ele>131.5</ele><time>2026-03-29T09:21:03.182Z</time></trkpt><trkpt lat="44.7974917" lon="8.1300742"><ele>132.0</ele><time>2026-03-29T09:21:04.182Z</time></trkpt><trkpt lat="44.797302" lon="8.129857"><ele>132.0</ele><time>2026-03-29T09:21:05.182Z</time></trkpt><trkpt lat="44.7970997" lon="8.1296362"><ele>132.0</ele><time>2026-03-29T09:21:06.184Z</time></trkpt><trkpt lat="44.7968932" lon="8.1294163"><ele>132.0</ele><time>2026-03-29T09:21:07.185Z</time></trkpt><trkpt lat="44.796684" lon="8.1291963"><ele>132.0</ele><time>2026-03-29T09:21:08.183Z</time></trkpt><trkpt lat="44.7964753" lon="8.1289792"><ele>132.0</ele><time>2026-03-29T09:21:09.187Z</time></trkpt><trkpt lat="44.7962685" lon="8.1287637"><ele>132.0</ele><time>2026-03-29T09:21:10.186Z</time></trkpt><trkpt lat="44.7960633" lon="8.1285495"><ele>130.5</ele><time>2026-03-29T09:21:11.182Z</time></trkpt><trkpt lat="44.7958592" lon="8.1283378"><ele>129.0</ele><time>2026-03-29T09:21:12.182Z</time></trkpt><trkpt lat="44.7956547" lon="8.1281257"><ele>127.5</ele><time>2026-03-29T09:21:13.183Z</time></trkpt><trkpt lat="44.79545" lon="8.1279122"><ele>126.0</ele><time>2026-03-29T09:21:14.186Z</time></trkpt><trkpt lat="44.7952448" lon="8.1276993"><ele>127.0</ele><time>2026-03-29T09:21:15.183Z</time></trkpt><trkpt lat="44.7950393" lon="8.127487"><ele>128.0</ele><time>2026-03-29T09:21:16.185Z</time></trkpt><trkpt lat="44.7948347" lon="8.1272755"><ele>128.0</ele><time>2026-03-29T09:21:17.188Z</time></trkpt><trkpt lat="44.7946325" lon="8.1270673"><ele>128.0</ele><time>2026-03-29T09:21:18.183Z</time></trkpt><trkpt lat="44.7944375" lon="8.1268637"><ele>131.5</ele><time>2026-03-29T09:21:19.184Z</time></trkpt><trkpt lat="44.7942553" lon="8.1266685"><ele>135.0</ele><time>2026-03-29T09:21:20.181Z</time></trkpt><trkpt lat="44.7940808" lon="8.1264718"><ele>136.0</ele><time>2026-03-29T09:21:21.182Z</time></trkpt><trkpt lat="44.7939138" lon="8.1262622"><ele>137.0</ele><time>2026-03-29T09:21:22.182Z</time></trkpt><trkpt lat="44.7937563" lon="8.1260303"><ele>137.0</ele><time>2026-03-29T09:21:23.183Z</time></trkpt><trkpt lat="44.7936083" lon="8.1257718"><ele>137.0</ele><time>2026-03-29T09:21:24.183Z</time></trkpt><trkpt lat="44.7934777" lon="8.1254917"><ele>136.0</ele><time>2026-03-29T09:21:25.183Z</time></trkpt><trkpt lat="44.7933703" lon="8.1251877"><ele>135.0</ele><time>2026-03-29T09:21:26.183Z</time></trkpt><trkpt lat="44.7932823" lon="8.124861"><ele>135.0</ele><time>2026-03-29T09:21:27.182Z</time></trkpt><trkpt lat="44.7932163" lon="8.1245197"><ele>135.0</ele><time>2026-03-29T09:21:28.183Z</time></trkpt><trkpt lat="44.7931757" lon="8.1241665"><ele>134.5</ele><time>2026-03-29T09:21:29.183Z</time></trkpt><trkpt lat="44.7931568" lon="8.1238077"><ele>134.0</ele><time>2026-03-29T09:21:30.184Z</time></trkpt><trkpt lat="44.7931463" lon="8.1234442"><ele>133.5</ele><time>2026-03-29T09:21:31.184Z</time></trkpt><trkpt lat="44.7931377" lon="8.1230785"><ele>133.0</ele><time>2026-03-29T09:21:32.184Z</time></trkpt><trkpt lat="44.7931283" lon="8.122714"><ele>133.0</ele><time>2026-03-29T09:21:33.185Z</time></trkpt><trkpt lat="44.7931155" lon="8.1223513"><ele>133.0</ele><time>2026-03-29T09:21:34.185Z</time></trkpt><trkpt lat="44.7931025" lon="8.1219897"><ele>133.0</ele><time>2026-03-29T09:21:35.185Z</time></trkpt><trkpt lat="44.7930912" lon="8.1216278"><ele>133.0</ele><time>2026-03-29T09:21:36.186Z</time></trkpt><trkpt lat="44.7930802" lon="8.121263"><ele>133.0</ele><time>2026-03-29T09:21:37.185Z</time></trkpt><trkpt lat="44.793069" lon="8.120894"><ele>133.0</ele><time>2026-03-29T09:21:38.184Z</time></trkpt><trkpt lat="44.7930575" lon="8.1205213"><ele>133.0</ele><time>2026-03-29T09:21:39.185Z</time></trkpt><trkpt lat="44.7930453" lon="8.1201472"><ele>133.0</ele><time>2026-03-29T09:21:40.185Z</time></trkpt><trkpt lat="44.7930335" lon="8.1197715"><ele>132.5</ele><time>2026-03-29T09:21:41.186Z</time></trkpt><trkpt lat="44.7930223" lon="8.1193955"><ele>132.0</ele><time>2026-03-29T09:21:42.182Z</time></trkpt><trkpt lat="44.7930118" lon="8.1190202"><ele>133.0</ele><time>2026-03-29T09:21:43.187Z</time></trkpt><trkpt lat="44.7929995" lon="8.1186475"><ele>134.0</ele><time>2026-03-29T09:21:44.182Z</time></trkpt><trkpt lat="44.7929872" lon="8.1182768"><ele>136.5</ele><time>2026-03-29T09:21:45.182Z</time></trkpt><trkpt lat="44.7929767" lon="8.1179087"><ele>139.0</ele><time>2026-03-29T09:21:46.183Z</time></trkpt><trkpt lat="44.7929662" lon="8.1175433"><ele>140.0</ele><time>2026-03-29T09:21:47.182Z</time></trkpt><trkpt lat="44.792955" lon="8.1171805"><ele>141.0</ele><time>2026-03-29T09:21:48.185Z</time></trkpt><trkpt lat="44.7929433" lon="8.116821"><ele>141.0</ele><time>2026-03-29T09:21:49.186Z</time></trkpt><trkpt lat="44.7929313" lon="8.1164643"><ele>141.0</ele><time>2026-03-29T09:21:50.185Z</time></trkpt><trkpt lat="44.7929198" lon="8.1161097"><ele>141.0</ele><time>2026-03-29T09:21:51.187Z</time></trkpt><trkpt lat="44.7929085" lon="8.1157572"><ele>141.0</ele><time>2026-03-29T09:21:52.186Z</time></trkpt><trkpt lat="44.7928972" lon="8.1154065"><ele>141.5</ele><time>2026-03-29T09:21:53.187Z</time></trkpt><trkpt lat="44.7928867" lon="8.1150578"><ele>142.0</ele><time>2026-03-29T09:21:54.186Z</time></trkpt><trkpt lat="44.7928777" lon="8.1147105"><ele>141.0</ele><time>2026-03-29T09:21:55.186Z</time></trkpt><trkpt lat="44.7928692" lon="8.1143648"><ele>140.0</ele><time>2026-03-29T09:21:56.185Z</time></trkpt><trkpt lat="44.7928597" lon="8.1140208"><ele>139.5</ele><time>2026-03-29T09:21:57.185Z</time></trkpt><trkpt lat="44.7928492" lon="8.1136792"><ele>139.0</ele><time>2026-03-29T09:21:58.186Z</time></trkpt><trkpt lat="44.7928383" lon="8.1133388"><ele>140.5</ele><time>2026-03-29T09:21:59.188Z</time></trkpt><trkpt lat="44.792828" lon="8.1130025"><ele>142.0</ele><time>2026-03-29T09:22:00.185Z</time></trkpt><trkpt lat="44.7928185" lon="8.1126718"><ele>142.0</ele><time>2026-03-29T09:22:01.188Z</time></trkpt><trkpt lat="44.7928085" lon="8.112345"><ele>142.0</ele><time>2026-03-29T09:22:02.184Z</time></trkpt><trkpt lat="44.7927972" lon="8.1120215"><ele>142.0</ele><time>2026-03-29T09:22:03.185Z</time></trkpt><trkpt lat="44.7927852" lon="8.111702"><ele>142.0</ele><time>2026-03-29T09:22:04.185Z</time></trkpt><trkpt lat="44.792774" lon="8.1113857"><ele>142.33333333333334</ele><time>2026-03-29T09:22:05.186Z</time></trkpt><trkpt lat="44.792764" lon="8.1110722"><ele>142.66666666666666</ele><time>2026-03-29T09:22:06.185Z</time></trkpt><trkpt lat="44.7927548" lon="8.1107602"><ele>143.0</ele><time>2026-03-29T09:22:07.185Z</time></trkpt><trkpt lat="44.792746" lon="8.1104502"><ele>143.33333333333331</ele><time>2026-03-29T09:22:08.182Z</time></trkpt><trkpt lat="44.7927368" lon="8.1101402"><ele>143.66666666666666</ele><time>2026-03-29T09:22:09.182Z</time></trkpt><trkpt lat="44.7927268" lon="8.1098305"><ele>144.0</ele><time>2026-03-29T09:22:10.184Z</time></trkpt><trkpt lat="44.7927172" lon="8.1095282"><ele>144.33333333333334</ele><time>2026-03-29T09:22:11.182Z</time></trkpt><trkpt lat="44.7927107" lon="8.1092445"><ele>144.66666666666669</ele><time>2026-03-29T09:22:12.184Z</time></trkpt><trkpt lat="44.7927067" lon="8.1089785"><ele>145.0</ele><time>2026-03-29T09:22:13.185Z</time></trkpt><trkpt lat="44.7927053" lon="8.1087308"><ele>146.75</ele><time>2026-03-29T09:22:14.185Z</time></trkpt><trkpt lat="44.7927107" lon="8.1085095"><ele>148.5</ele><time>2026-03-29T09:22:15.185Z</time></trkpt><trkpt lat="44.7927292" lon="8.1083163"><ele>150.25</ele><time>2026-03-29T09:22:16.187Z</time></trkpt><trkpt lat="44.7927627" lon="8.1081497"><ele>152.0</ele><time>2026-03-29T09:22:17.186Z</time></trkpt><trkpt lat="44.7928038" lon="8.1080052"><ele>150.75</ele><time>2026-03-29T09:22:18.185Z</time></trkpt><trkpt lat="44.792826" lon="8.10787"><ele>149.5</ele><time>2026-03-29T09:22:19.185Z</time></trkpt><trkpt lat="44.792811" lon="8.1077375"><ele>148.25</ele><time>2026-03-29T09:22:20.184Z</time></trkpt><trkpt lat="44.7927567" lon="8.1076008"><ele>147.0</ele><time>2026-03-29T09:22:21.184Z</time></trkpt><trkpt lat="44.7926715" lon="8.107435"><ele>149.66666666666666</ele><time>2026-03-29T09:22:22.185Z</time></trkpt><trkpt lat="44.792578" lon="8.1072395"><ele>152.33333333333331</ele><time>2026-03-29T09:22:23.183Z</time></trkpt><trkpt lat="44.7924823" lon="8.1070228"><ele>155.0</ele><time>2026-03-29T09:22:24.183Z</time></trkpt><trkpt lat="44.7923767" lon="8.1067858"><ele>159.0</ele><time>2026-03-29T09:22:25.184Z</time></trkpt><trkpt lat="44.7922605" lon="8.1065398"><ele>163.0</ele><time>2026-03-29T09:22:26.182Z</time></trkpt><trkpt lat="44.7921313" lon="8.1062805"><ele>167.0</ele><time>2026-03-29T09:22:27.182Z</time></trkpt><trkpt lat="44.7919977" lon="8.1060207"><ele>167.0</ele><time>2026-03-29T09:22:28.184Z</time></trkpt><trkpt lat="44.791868" lon="8.1057685"><ele>167.0</ele><time>2026-03-29T09:22:29.183Z</time></trkpt><trkpt lat="44.7917445" lon="8.1055315"><ele>167.0</ele><time>2026-03-29T09:22:30.184Z</time></trkpt><trkpt lat="44.7916212" lon="8.1053007"><ele>166.66666666666666</ele><time>2026-03-29T09:22:31.184Z</time></trkpt><trkpt lat="44.791505" lon="8.1050807"><ele>166.33333333333334</ele><time>2026-03-29T09:22:32.183Z</time></trkpt><trkpt lat="44.7914008" lon="8.104875"><ele>166.0</ele><time>2026-03-29T09:22:33.181Z</time></trkpt><trkpt lat="44.791302" lon="8.1046817"><ele>166.0</ele><time>2026-03-29T09:22:34.181Z</time></trkpt><trkpt lat="44.7912077" lon="8.1044962"><ele>166.0</ele><time>2026-03-29T09:22:35.181Z</time></trkpt><trkpt lat="44.7911147" lon="8.1043118"><ele>166.0</ele><time>2026-03-29T09:22:36.181Z</time></trkpt><trkpt lat="44.7910222" lon="8.1041302"><ele>162.33333333333334</ele><time>2026-03-29T09:22:37.185Z</time></trkpt><trkpt lat="44.7909282" lon="8.1039467"><ele>158.66666666666666</ele><time>2026-03-29T09:22:38.185Z</time></trkpt><trkpt lat="44.790834" lon="8.1037592"><ele>155.0</ele><time>2026-03-29T09:22:39.184Z</time></trkpt><trkpt lat="44.7907395" lon="8.1035697"><ele>155.0</ele><time>2026-03-29T09:22:40.182Z</time></trkpt><trkpt lat="44.7906448" lon="8.1033823"><ele>155.0</ele><time>2026-03-29T09:22:41.186Z</time></trkpt><trkpt lat="44.7905493" lon="8.1031967"><ele>155.0</ele><time>2026-03-29T09:22:42.184Z</time></trkpt><trkpt lat="44.7904502" lon="8.103014"><ele>152.33333333333331</ele><time>2026-03-29T09:22:43.184Z</time></trkpt><trkpt lat="44.7903433" lon="8.1028315"><ele>149.66666666666666</ele><time>2026-03-29T09:22:44.183Z</time></trkpt><trkpt lat="44.7902255" lon="8.1026443"><ele>147.0</ele><time>2026-03-29T09:22:45.186Z</time></trkpt><trkpt lat="44.7900887" lon="8.1024445"><ele>148.66666666666666</ele><time>2026-03-29T09:22:46.184Z</time></trkpt><trkpt lat="44.7899372" lon="8.1022283"><ele>150.33333333333331</ele><time>2026-03-29T09:22:47.183Z</time></trkpt><trkpt lat="44.7897852" lon="8.1019885"><ele>152.0</ele><time>2026-03-29T09:22:48.185Z</time></trkpt><trkpt lat="44.789634" lon="8.1017318"><ele>150.5</ele><time>2026-03-29T09:22:49.185Z</time></trkpt><trkpt lat="44.7894788" lon="8.1014652"><ele>149.0</ele><time>2026-03-29T09:22:50.182Z</time></trkpt><trkpt lat="44.7893168" lon="8.1011985"><ele>149.0</ele><time>2026-03-29T09:22:51.183Z</time></trkpt><trkpt lat="44.7891512" lon="8.1009358"><ele>149.0</ele><time>2026-03-29T09:22:52.185Z</time></trkpt><trkpt lat="44.7889852" lon="8.1006768"><ele>150.0</ele><time>2026-03-29T09:22:53.183Z</time></trkpt><trkpt lat="44.788819" lon="8.1004205"><ele>151.0</ele><time>2026-03-29T09:22:54.182Z</time></trkpt><trkpt lat="44.7886547" lon="8.100168"><ele>151.5</ele><time>2026-03-29T09:22:55.186Z</time></trkpt><trkpt lat="44.788494" lon="8.0999217"><ele>152.0</ele><time>2026-03-29T09:22:56.184Z</time></trkpt><trkpt lat="44.7883348" lon="8.0996848"><ele>152.0</ele><time>2026-03-29T09:22:57.182Z</time></trkpt><trkpt lat="44.7881723" lon="8.0994575"><ele>152.0</ele><time>2026-03-29T09:22:58.181Z</time></trkpt><trkpt lat="44.7880022" lon="8.0992437"><ele>152.0</ele><time>2026-03-29T09:22:59.18Z</time></trkpt><trkpt lat="44.7878215" lon="8.0990465"><ele>152.0</ele><time>2026-03-29T09:23:00.181Z</time></trkpt><trkpt lat="44.7876335" lon="8.0988615"><ele>152.0</ele><time>2026-03-29T09:23:01.182Z</time></trkpt><trkpt lat="44.7874408" lon="8.0986835"><ele>152.0</ele><time>2026-03-29T09:23:02.186Z</time></trkpt><trkpt lat="44.7872463" lon="8.098508"><ele>152.0</ele><time>2026-03-29T09:23:03.184Z</time></trkpt><trkpt lat="44.7870512" lon="8.0983323"><ele>152.0</ele><time>2026-03-29T09:23:04.187Z</time></trkpt><trkpt lat="44.7868557" lon="8.0981575"><ele>152.0</ele><time>2026-03-29T09:23:05.184Z</time></trkpt><trkpt lat="44.7866598" lon="8.0979832"><ele>152.0</ele><time>2026-03-29T09:23:06.183Z</time></trkpt><trkpt lat="44.7864642" lon="8.0978085"><ele>152.0</ele><time>2026-03-29T09:23:07.183Z</time></trkpt><trkpt lat="44.786269" lon="8.0976343"><ele>152.0</ele><time>2026-03-29T09:23:08.182Z</time></trkpt><trkpt lat="44.786073" lon="8.097461"><ele>152.0</ele><time>2026-03-29T09:23:09.184Z</time></trkpt><trkpt lat="44.7858762" lon="8.0972898"><ele>152.0</ele><time>2026-03-29T09:23:10.182Z</time></trkpt><trkpt lat="44.7856797" lon="8.097117"><ele>152.0</ele><time>2026-03-29T09:23:11.183Z</time></trkpt><trkpt lat="44.7854842" lon="8.0969423"><ele>152.0</ele><time>2026-03-29T09:23:12.184Z</time></trkpt><trkpt lat="44.7852888" lon="8.0967668"><ele>150.5</ele><time>2026-03-29T09:23:13.184Z</time></trkpt><trkpt lat="44.7850928" lon="8.0965935"><ele>149.0</ele><time>2026-03-29T09:23:14.184Z</time></trkpt><trkpt lat="44.7848955" lon="8.0964218"><ele>148.5</ele><time>2026-03-29T09:23:15.187Z</time></trkpt><trkpt lat="44.7846983" lon="8.0962495"><ele>148.0</ele><time>2026-03-29T09:23:16.184Z</time></trkpt><trkpt lat="44.784502" lon="8.0960762"><ele>148.0</ele><time>2026-03-29T09:23:17.184Z</time></trkpt><trkpt lat="44.7843055" lon="8.0959015"><ele>148.0</ele><time>2026-03-29T09:23:18.183Z</time></trkpt><trkpt lat="44.784109" lon="8.0957267"><ele>148.5</ele><time>2026-03-29T09:23:19.185Z</time></trkpt><trkpt lat="44.7839132" lon="8.0955517"><ele>149.0</ele><time>2026-03-29T09:23:20.185Z</time></trkpt><trkpt lat="44.783717" lon="8.095376"><ele>149.0</ele><time>2026-03-29T09:23:21.185Z</time></trkpt><trkpt lat="44.7835207" lon="8.0952018"><ele>149.0</ele><time>2026-03-29T09:23:22.183Z</time></trkpt><trkpt lat="44.7833245" lon="8.0950275"><ele>149.5</ele><time>2026-03-29T09:23:23.182Z</time></trkpt><trkpt lat="44.7831283" lon="8.0948523"><ele>150.0</ele><time>2026-03-29T09:23:24.184Z</time></trkpt><trkpt lat="44.7829322" lon="8.0946773"><ele>150.0</ele><time>2026-03-29T09:23:25.182Z</time></trkpt><trkpt lat="44.7827348" lon="8.0945027"><ele>150.0</ele><time>2026-03-29T09:23:26.186Z</time></trkpt><trkpt lat="44.7825385" lon="8.0943283"><ele>150.0</ele><time>2026-03-29T09:23:27.185Z</time></trkpt><trkpt lat="44.7823433" lon="8.0941538"><ele>150.0</ele><time>2026-03-29T09:23:28.185Z</time></trkpt><trkpt lat="44.7821495" lon="8.0939793"><ele>149.5</ele><time>2026-03-29T09:23:29.185Z</time></trkpt><trkpt lat="44.7819555" lon="8.0938093"><ele>149.0</ele><time>2026-03-29T09:23:30.183Z</time></trkpt><trkpt lat="44.7817615" lon="8.0936412"><ele>149.0</ele><time>2026-03-29T09:23:31.186Z</time></trkpt><trkpt lat="44.7815673" lon="8.0934748"><ele>149.0</ele><time>2026-03-29T09:23:32.185Z</time></trkpt><trkpt lat="44.7813742" lon="8.0933062"><ele>150.0</ele><time>2026-03-29T09:23:33.186Z</time></trkpt><trkpt lat="44.781182" lon="8.0931352"><ele>151.0</ele><time>2026-03-29T09:23:34.183Z</time></trkpt><trkpt lat="44.7809897" lon="8.0929623"><ele>151.0</ele><time>2026-03-29T09:23:35.186Z</time></trkpt><trkpt lat="44.7807962" lon="8.0927897"><ele>151.0</ele><time>2026-03-29T09:23:36.183Z</time></trkpt><trkpt lat="44.7806032" lon="8.0926195"><ele>151.0</ele><time>2026-03-29T09:23:37.184Z</time></trkpt><trkpt lat="44.7804143" lon="8.0924513"><ele>151.0</ele><time>2026-03-29T09:23:38.181Z</time></trkpt><trkpt lat="44.7802297" lon="8.0922897"><ele>151.0</ele><time>2026-03-29T09:23:39.182Z</time></trkpt><trkpt lat="44.7800487" lon="8.0921343"><ele>151.33333333333334</ele><time>2026-03-29T09:23:40.183Z</time></trkpt><trkpt lat="44.7798667" lon="8.0919875"><ele>151.66666666666666</ele><time>2026-03-29T09:23:41.183Z</time></trkpt><trkpt lat="44.779682" lon="8.0918553"><ele>152.0</ele><time>2026-03-29T09:23:42.183Z</time></trkpt><trkpt lat="44.7794957" lon="8.0917373"><ele>152.0</ele><time>2026-03-29T09:23:43.184Z</time></trkpt><trkpt lat="44.7793113" lon="8.0916233"><ele>152.0</ele><time>2026-03-29T09:23:44.185Z</time></trkpt><trkpt lat="44.779131" lon="8.09151"><ele>152.0</ele><time>2026-03-29T09:23:45.186Z</time></trkpt><trkpt lat="44.7789533" lon="8.0914002"><ele>152.0</ele><time>2026-03-29T09:23:46.185Z</time></trkpt><trkpt lat="44.778776" lon="8.091295"><ele>152.0</ele><time>2026-03-29T09:23:47.181Z</time></trkpt><trkpt lat="44.7785977" lon="8.0911923"><ele>152.0</ele><time>2026-03-29T09:23:48.181Z</time></trkpt><trkpt lat="44.7784143" lon="8.0910892"><ele>152.0</ele><time>2026-03-29T09:23:49.182Z</time></trkpt><trkpt lat="44.778228" lon="8.0909853"><ele>152.0</ele><time>2026-03-29T09:23:50.182Z</time></trkpt><trkpt lat="44.7780415" lon="8.0908823"><ele>152.0</ele><time>2026-03-29T09:23:51.184Z</time></trkpt><trkpt lat="44.7778555" lon="8.0907782"><ele>152.66666666666666</ele><time>2026-03-29T09:23:52.183Z</time></trkpt><trkpt lat="44.7776712" lon="8.0906712"><ele>153.33333333333334</ele><time>2026-03-29T09:23:53.184Z</time></trkpt><trkpt lat="44.7774865" lon="8.090562"><ele>154.0</ele><time>2026-03-29T09:23:54.185Z</time></trkpt><trkpt lat="44.7773057" lon="8.09045"><ele>154.0</ele><time>2026-03-29T09:23:55.185Z</time></trkpt><trkpt lat="44.777134" lon="8.0903362"><ele>154.0</ele><time>2026-03-29T09:23:56.186Z</time></trkpt><trkpt lat="44.7769683" lon="8.0902192"><ele>154.0</ele><time>2026-03-29T09:23:57.184Z</time></trkpt><trkpt lat="44.7768018" lon="8.090095"><ele>153.66666666666669</ele><time>2026-03-29T09:23:58.184Z</time></trkpt><trkpt lat="44.7766308" lon="8.0899612"><ele>153.33333333333334</ele><time>2026-03-29T09:23:59.185Z</time></trkpt><trkpt lat="44.7764572" lon="8.0898173"><ele>153.0</ele><time>2026-03-29T09:24:00.186Z</time></trkpt><trkpt lat="44.7762812" lon="8.089665"><ele>152.66666666666666</ele><time>2026-03-29T09:24:01.185Z</time></trkpt><trkpt lat="44.776104" lon="8.0895057"><ele>152.33333333333331</ele><time>2026-03-29T09:24:02.187Z</time></trkpt><trkpt lat="44.7759297" lon="8.0893425"><ele>152.0</ele><time>2026-03-29T09:24:03.189Z</time></trkpt><trkpt lat="44.7757682" lon="8.0891838"><ele>151.66666666666666</ele><time>2026-03-29T09:24:04.186Z</time></trkpt><trkpt lat="44.7756188" lon="8.0890298"><ele>151.33333333333334</ele><time>2026-03-29T09:24:05.185Z</time></trkpt><trkpt lat="44.7754838" lon="8.088883"><ele>151.0</ele><time>2026-03-29T09:24:06.185Z</time></trkpt><trkpt lat="44.7753637" lon="8.0887453"><ele>151.0</ele><time>2026-03-29T09:24:07.186Z</time></trkpt><trkpt lat="44.7752592" lon="8.0886133"><ele>151.0</ele><time>2026-03-29T09:24:08.186Z</time></trkpt><trkpt lat="44.7751742" lon="8.0884847"><ele>151.0</ele><time>2026-03-29T09:24:09.186Z</time></trkpt><trkpt lat="44.775117" lon="8.0883602"><ele>151.0</ele><time>2026-03-29T09:24:10.185Z</time></trkpt><trkpt lat="44.7750887" lon="8.0882357"><ele>151.0</ele><time>2026-03-29T09:24:11.183Z</time></trkpt><trkpt lat="44.7750707" lon="8.088109"><ele>151.0</ele><time>2026-03-29T09:24:12.183Z</time></trkpt><trkpt lat="44.7750362" lon="8.0880025"><ele>151.0</ele><time>2026-03-29T09:24:13.183Z</time></trkpt><trkpt lat="44.7749733" lon="8.0879262"><ele>151.0</ele><time>2026-03-29T09:24:14.183Z</time></trkpt><trkpt lat="44.7748763" lon="8.0878613"><ele>151.0</ele><time>2026-03-29T09:24:15.185Z</time></trkpt><trkpt lat="44.7747685" lon="8.0877728"><ele>151.0</ele><time>2026-03-29T09:24:16.183Z</time></trkpt><trkpt lat="44.7746463" lon="8.0876363"><ele>151.0</ele><time>2026-03-29T09:24:17.186Z</time></trkpt><trkpt lat="44.7745198" lon="8.0874777"><ele>151.0</ele><time>2026-03-29T09:24:18.185Z</time></trkpt><trkpt lat="44.7743775" lon="8.0872992"><ele>149.66666666666669</ele><time>2026-03-29T09:24:19.187Z</time></trkpt><trkpt lat="44.7742333" lon="8.0871147"><ele>148.33333333333334</ele><time>2026-03-29T09:24:20.186Z</time></trkpt><trkpt lat="44.7740852" lon="8.0869308"><ele>147.0</ele><time>2026-03-29T09:24:21.186Z</time></trkpt><trkpt lat="44.7739242" lon="8.0867543"><ele>146.66666666666666</ele><time>2026-03-29T09:24:22.186Z</time></trkpt><trkpt lat="44.7737438" lon="8.0865828"><ele>146.33333333333331</ele><time>2026-03-29T09:24:23.187Z</time></trkpt><trkpt lat="44.7735535" lon="8.0864073"><ele>146.0</ele><time>2026-03-29T09:24:24.186Z</time></trkpt><trkpt lat="44.7733653" lon="8.0862322"><ele>146.0</ele><time>2026-03-29T09:24:25.186Z</time></trkpt><trkpt lat="44.7731708" lon="8.0860527"><ele>146.0</ele><time>2026-03-29T09:24:26.186Z</time></trkpt><trkpt lat="44.7729715" lon="8.0858678"><ele>146.0</ele><time>2026-03-29T09:24:27.184Z</time></trkpt><trkpt lat="44.7727695" lon="8.0856783"><ele>146.0</ele><time>2026-03-29T09:24:28.185Z</time></trkpt><trkpt lat="44.7725648" lon="8.0854863"><ele>146.0</ele><time>2026-03-29T09:24:29.186Z</time></trkpt><trkpt lat="44.772359" lon="8.0852938"><ele>146.0</ele><time>2026-03-29T09:24:30.187Z</time></trkpt><trkpt lat="44.7721527" lon="8.085101"><ele>145.5</ele><time>2026-03-29T09:24:31.186Z</time></trkpt><trkpt lat="44.7719462" lon="8.0849092"><ele>145.0</ele><time>2026-03-29T09:24:32.186Z</time></trkpt><trkpt lat="44.7717418" lon="8.0847178"><ele>144.5</ele><time>2026-03-29T09:24:33.187Z</time></trkpt><trkpt lat="44.7715398" lon="8.0845277"><ele>144.0</ele><time>2026-03-29T09:24:34.186Z</time></trkpt><trkpt lat="44.771341" lon="8.0843408"><ele>144.0</ele><time>2026-03-29T09:24:35.183Z</time></trkpt><trkpt lat="44.771146" lon="8.0841582"><ele>144.0</ele><time>2026-03-29T09:24:36.183Z</time></trkpt><trkpt lat="44.7709548" lon="8.0839797"><ele>144.0</ele><time>2026-03-29T09:24:37.182Z</time></trkpt><trkpt lat="44.7707668" lon="8.0838062"><ele>144.0</ele><time>2026-03-29T09:24:38.185Z</time></trkpt><trkpt lat="44.7705823" lon="8.0836365"><ele>144.0</ele><time>2026-03-29T09:24:39.184Z</time></trkpt><trkpt lat="44.7704053" lon="8.0834737"><ele>144.0</ele><time>2026-03-29T09:24:40.186Z</time></trkpt><trkpt lat="44.770239" lon="8.0833213"><ele>144.0</ele><time>2026-03-29T09:24:41.184Z</time></trkpt><trkpt lat="44.770079" lon="8.083177"><ele>144.0</ele><time>2026-03-29T09:24:42.188Z</time></trkpt><trkpt lat="44.7699245" lon="8.083038"><ele>144.33333333333334</ele><time>2026-03-29T09:24:43.186Z</time></trkpt><trkpt lat="44.7697825" lon="8.0829083"><ele>144.66666666666669</ele><time>2026-03-29T09:24:44.185Z</time></trkpt><trkpt lat="44.7696528" lon="8.0827848"><ele>145.0</ele><time>2026-03-29T09:24:45.184Z</time></trkpt><trkpt lat="44.7695323" lon="8.082667"><ele>145.0</ele><time>2026-03-29T09:24:46.185Z</time></trkpt><trkpt lat="44.7694185" lon="8.082557"><ele>145.0</ele><time>2026-03-29T09:24:47.182Z</time></trkpt><trkpt lat="44.7693087" lon="8.0824552"><ele>145.0</ele><time>2026-03-29T09:24:48.187Z</time></trkpt><trkpt lat="44.7691962" lon="8.0823498"><ele>145.0</ele><time>2026-03-29T09:24:49.186Z</time></trkpt><trkpt lat="44.7690827" lon="8.0822438"><ele>146.5</ele><time>2026-03-29T09:24:50.186Z</time></trkpt><trkpt lat="44.7689673" lon="8.08214"><ele>148.0</ele><time>2026-03-29T09:24:51.185Z</time></trkpt><trkpt lat="44.7688582" lon="8.0820425"><ele>149.5</ele><time>2026-03-29T09:24:52.187Z</time></trkpt><trkpt lat="44.7687535" lon="8.0819442"><ele>151.0</ele><time>2026-03-29T09:24:53.185Z</time></trkpt><trkpt lat="44.7686527" lon="8.0818472"><ele>151.0</ele><time>2026-03-29T09:24:54.187Z</time></trkpt><trkpt lat="44.7685533" lon="8.0817525"><ele>151.0</ele><time>2026-03-29T09:24:55.189Z</time></trkpt><trkpt lat="44.7684535" lon="8.0816612"><ele>151.0</ele><time>2026-03-29T09:24:56.186Z</time></trkpt><trkpt lat="44.7683568" lon="8.081575"><ele>151.0</ele><time>2026-03-29T09:24:57.187Z</time></trkpt><trkpt lat="44.768257" lon="8.0814862"><ele>151.0</ele><time>2026-03-29T09:24:58.188Z</time></trkpt><trkpt lat="44.7681557" lon="8.0813933"><ele>151.0</ele><time>2026-03-29T09:24:59.186Z</time></trkpt><trkpt lat="44.768052" lon="8.081299"><ele>151.0</ele><time>2026-03-29T09:25:00.184Z</time></trkpt><trkpt lat="44.767947" lon="8.0812037"><ele>151.0</ele><time>2026-03-29T09:25:01.183Z</time></trkpt><trkpt lat="44.7678405" lon="8.0811067"><ele>151.0</ele><time>2026-03-29T09:25:02.182Z</time></trkpt><trkpt lat="44.7677368" lon="8.081011"><ele>151.0</ele><time>2026-03-29T09:25:03.182Z</time></trkpt><trkpt lat="44.767637" lon="8.0809167"><ele>151.0</ele><time>2026-03-29T09:25:04.184Z</time></trkpt><trkpt lat="44.7675355" lon="8.0808198"><ele>151.0</ele><time>2026-03-29T09:25:05.185Z</time></trkpt><trkpt lat="44.7674272" lon="8.0807207"><ele>150.33333333333334</ele><time>2026-03-29T09:25:06.186Z</time></trkpt><trkpt lat="44.767308" lon="8.080618"><ele>149.66666666666666</ele><time>2026-03-29T09:25:07.185Z</time></trkpt><trkpt lat="44.7671738" lon="8.080506"><ele>149.0</ele><time>2026-03-29T09:25:08.184Z</time></trkpt><trkpt lat="44.7670262" lon="8.0803755"><ele>149.0</ele><time>2026-03-29T09:25:09.185Z</time></trkpt><trkpt lat="44.7668705" lon="8.0802238"><ele>149.0</ele><time>2026-03-29T09:25:10.19Z</time></trkpt><trkpt lat="44.7667137" lon="8.0800642"><ele>149.0</ele><time>2026-03-29T09:25:11.184Z</time></trkpt><trkpt lat="44.766547" lon="8.0798963"><ele>149.66666666666666</ele><time>2026-03-29T09:25:12.188Z</time></trkpt><trkpt lat="44.7663687" lon="8.0797263"><ele>150.33333333333334</ele><time>2026-03-29T09:25:13.188Z</time></trkpt><trkpt lat="44.7661883" lon="8.0795578"><ele>151.0</ele><time>2026-03-29T09:25:14.188Z</time></trkpt><trkpt lat="44.7660055" lon="8.0793877"><ele>149.66666666666669</ele><time>2026-03-29T09:25:15.188Z</time></trkpt><trkpt lat="44.7658222" lon="8.0792152"><ele>148.33333333333334</ele><time>2026-03-29T09:25:16.186Z</time></trkpt><trkpt lat="44.7656367" lon="8.0790397"><ele>147.0</ele><time>2026-03-29T09:25:17.187Z</time></trkpt><trkpt lat="44.76545" lon="8.0788638"><ele>146.0</ele><time>2026-03-29T09:25:18.188Z</time></trkpt><trkpt lat="44.7652617" lon="8.0786888"><ele>145.0</ele><time>2026-03-29T09:25:19.188Z</time></trkpt><trkpt lat="44.7650728" lon="8.0785135"><ele>145.0</ele><time>2026-03-29T09:25:20.187Z</time></trkpt><trkpt lat="44.764884" lon="8.0783383"><ele>145.0</ele><time>2026-03-29T09:25:21.187Z</time></trkpt><trkpt lat="44.7646958" lon="8.0781637"><ele>146.5</ele><time>2026-03-29T09:25:22.188Z</time></trkpt><trkpt lat="44.7645082" lon="8.0779895"><ele>148.0</ele><time>2026-03-29T09:25:23.187Z</time></trkpt><trkpt lat="44.7643193" lon="8.0778165"><ele>149.5</ele><time>2026-03-29T09:25:24.185Z</time></trkpt><trkpt lat="44.7641302" lon="8.0776437"><ele>151.0</ele><time>2026-03-29T09:25:25.183Z</time></trkpt><trkpt lat="44.763942" lon="8.077469"><ele>151.5</ele><time>2026-03-29T09:25:26.182Z</time></trkpt><trkpt lat="44.763754" lon="8.0772932"><ele>152.0</ele><time>2026-03-29T09:25:27.182Z</time></trkpt><trkpt lat="44.7635668" lon="8.0771183"><ele>151.66666666666666</ele><time>2026-03-29T09:25:28.183Z</time></trkpt><trkpt lat="44.763381" lon="8.0769468"><ele>151.33333333333334</ele><time>2026-03-29T09:25:29.184Z</time></trkpt><trkpt lat="44.7631963" lon="8.0767773"><ele>151.0</ele><time>2026-03-29T09:25:30.185Z</time></trkpt><trkpt lat="44.7630137" lon="8.0766087"><ele>151.33333333333334</ele><time>2026-03-29T09:25:31.184Z</time></trkpt><trkpt lat="44.7628312" lon="8.0764397"><ele>151.66666666666666</ele><time>2026-03-29T09:25:32.184Z</time></trkpt><trkpt lat="44.7626492" lon="8.0762707"><ele>152.0</ele><time>2026-03-29T09:25:33.188Z</time></trkpt><trkpt lat="44.7624707" lon="8.0761042"><ele>151.66666666666666</ele><time>2026-03-29T09:25:34.186Z</time></trkpt><trkpt lat="44.7623035" lon="8.0759472"><ele>151.33333333333334</ele><time>2026-03-29T09:25:35.186Z</time></trkpt><trkpt lat="44.7621482" lon="8.0758005"><ele>151.0</ele><time>2026-03-29T09:25:36.186Z</time></trkpt><trkpt lat="44.7620042" lon="8.0756617"><ele>151.66666666666669</ele><time>2026-03-29T09:25:37.187Z</time></trkpt><trkpt lat="44.761861" lon="8.0755248"><ele>152.33333333333334</ele><time>2026-03-29T09:25:38.187Z</time></trkpt><trkpt lat="44.7617112" lon="8.0753875"><ele>153.0</ele><time>2026-03-29T09:25:39.186Z</time></trkpt><trkpt lat="44.761565" lon="8.075254"><ele>153.0</ele><time>2026-03-29T09:25:40.187Z</time></trkpt><trkpt lat="44.7614283" lon="8.0751293"><ele>153.0</ele><time>2026-03-29T09:25:41.185Z</time></trkpt><trkpt lat="44.7612953" lon="8.075008"><ele>153.0</ele><time>2026-03-29T09:25:42.186Z</time></trkpt><trkpt lat="44.7611645" lon="8.0748882"><ele>153.0</ele><time>2026-03-29T09:25:43.185Z</time></trkpt><trkpt lat="44.7610347" lon="8.0747682"><ele>153.0</ele><time>2026-03-29T09:25:44.185Z</time></trkpt><trkpt lat="44.760903" lon="8.0746467"><ele>153.0</ele><time>2026-03-29T09:25:45.185Z</time></trkpt><trkpt lat="44.7607712" lon="8.0745242"><ele>152.75</ele><time>2026-03-29T09:25:46.186Z</time></trkpt><trkpt lat="44.7606435" lon="8.0744045"><ele>152.5</ele><time>2026-03-29T09:25:47.184Z</time></trkpt><trkpt lat="44.7605237" lon="8.0742922"><ele>152.25</ele><time>2026-03-29T09:25:48.187Z</time></trkpt><trkpt lat="44.7604113" lon="8.0741872"><ele>152.0</ele><time>2026-03-29T09:25:49.182Z</time></trkpt><trkpt lat="44.7603073" lon="8.0740903"><ele>152.0</ele><time>2026-03-29T09:25:50.182Z</time></trkpt><trkpt lat="44.7602102" lon="8.0739998"><ele>152.0</ele><time>2026-03-29T09:25:51.182Z</time></trkpt><trkpt lat="44.7601178" lon="8.0739148"><ele>152.0</ele><time>2026-03-29T09:25:52.182Z</time></trkpt><trkpt lat="44.7600297" lon="8.073834"><ele>152.0</ele><time>2026-03-29T09:25:53.184Z</time></trkpt><trkpt lat="44.7599447" lon="8.073755"><ele>152.0</ele><time>2026-03-29T09:25:54.185Z</time></trkpt><trkpt lat="44.7598628" lon="8.0736778"><ele>152.4</ele><time>2026-03-29T09:25:55.186Z</time></trkpt><trkpt lat="44.7597827" lon="8.0736038"><ele>152.79999999999998</ele><time>2026-03-29T09:25:56.184Z</time></trkpt><trkpt lat="44.7597035" lon="8.0735312"><ele>153.2</ele><time>2026-03-29T09:25:57.184Z</time></trkpt><trkpt lat="44.759625" lon="8.0734602"><ele>153.6</ele><time>2026-03-29T09:25:58.186Z</time></trkpt><trkpt lat="44.7595488" lon="8.0733908"><ele>154.0</ele><time>2026-03-29T09:25:59.186Z</time></trkpt><trkpt lat="44.7594745" lon="8.0733235"><ele>153.83333333333334</ele><time>2026-03-29T09:26:00.185Z</time></trkpt><trkpt lat="44.7594007" lon="8.0732578"><ele>153.66666666666669</ele><time>2026-03-29T09:26:01.185Z</time></trkpt><trkpt lat="44.7593267" lon="8.0731925"><ele>153.5</ele><time>2026-03-29T09:26:02.189Z</time></trkpt><trkpt lat="44.759255" lon="8.0731303"><ele>153.33333333333334</ele><time>2026-03-29T09:26:03.185Z</time></trkpt><trkpt lat="44.7591907" lon="8.0730725"><ele>153.16666666666666</ele><time>2026-03-29T09:26:04.185Z</time></trkpt><trkpt lat="44.7591337" lon="8.0730175"><ele>153.0</ele><time>2026-03-29T09:26:05.187Z</time></trkpt><trkpt lat="44.7590477" lon="8.0729283"><ele>153.0</ele><time>2026-03-29T09:26:07.184Z</time></trkpt><trkpt lat="44.7589808" lon="8.0728575"><ele>153.0</ele><time>2026-03-29T09:26:29.183Z</time></trkpt><trkpt lat="44.7589163" lon="8.072797"><ele>153.0</ele><time>2026-03-29T09:26:30.183Z</time></trkpt><trkpt lat="44.7588308" lon="8.072718"><ele>153.0</ele><time>2026-03-29T09:26:31.184Z</time></trkpt><trkpt lat="44.7587375" lon="8.0726273"><ele>153.0</ele><time>2026-03-29T09:26:32.182Z</time></trkpt><trkpt lat="44.758633" lon="8.0725262"><ele>153.25</ele><time>2026-03-29T09:26:33.182Z</time></trkpt><trkpt lat="44.7585197" lon="8.072417"><ele>153.5</ele><time>2026-03-29T09:26:34.184Z</time></trkpt><trkpt lat="44.7583957" lon="8.0722993"><ele>153.75</ele><time>2026-03-29T09:26:35.185Z</time></trkpt><trkpt lat="44.7582662" lon="8.0721793"><ele>154.0</ele><time>2026-03-29T09:26:36.17Z</time></trkpt><trkpt lat="44.7581195" lon="8.0720437"><ele>154.0</ele><time>2026-03-29T09:26:37.184Z</time></trkpt><trkpt lat="44.757965" lon="8.0719003"><ele>154.0</ele><time>2026-03-29T09:26:38.183Z</time></trkpt><trkpt lat="44.7578012" lon="8.071748"><ele>154.0</ele><time>2026-03-29T09:26:39.182Z</time></trkpt><trkpt lat="44.7576443" lon="8.0716028"><ele>153.66666666666669</ele><time>2026-03-29T09:26:40.184Z</time></trkpt><trkpt lat="44.7574947" lon="8.0714593"><ele>153.33333333333334</ele><time>2026-03-29T09:26:41.181Z</time></trkpt><trkpt lat="44.757342" lon="8.0713155"><ele>153.0</ele><time>2026-03-29T09:26:42.185Z</time></trkpt><trkpt lat="44.7571862" lon="8.0711713"><ele>153.0</ele><time>2026-03-29T09:26:43.184Z</time></trkpt><trkpt lat="44.7570267" lon="8.0710245"><ele>153.0</ele><time>2026-03-29T09:26:44.181Z</time></trkpt><trkpt lat="44.7568635" lon="8.0708733"><ele>153.0</ele><time>2026-03-29T09:26:45.184Z</time></trkpt><trkpt lat="44.7566965" lon="8.0707185"><ele>152.66666666666666</ele><time>2026-03-29T09:26:46.186Z</time></trkpt><trkpt lat="44.7565268" lon="8.0705608"><ele>152.33333333333331</ele><time>2026-03-29T09:26:47.184Z</time></trkpt><trkpt lat="44.7563542" lon="8.0704027"><ele>152.0</ele><time>2026-03-29T09:26:48.182Z</time></trkpt><trkpt lat="44.7561853" lon="8.070247"><ele>152.0</ele><time>2026-03-29T09:26:49.188Z</time></trkpt><trkpt lat="44.756017" lon="8.0700882"><ele>152.0</ele><time>2026-03-29T09:26:50.185Z</time></trkpt><trkpt lat="44.7558447" lon="8.0699255"><ele>152.0</ele><time>2026-03-29T09:26:51.185Z</time></trkpt><trkpt lat="44.7556678" lon="8.0697605"><ele>152.0</ele><time>2026-03-29T09:26:52.184Z</time></trkpt><trkpt lat="44.7554895" lon="8.0695958"><ele>152.0</ele><time>2026-03-29T09:26:53.186Z</time></trkpt><trkpt lat="44.755313" lon="8.0694323"><ele>152.0</ele><time>2026-03-29T09:26:54.184Z</time></trkpt><trkpt lat="44.7551377" lon="8.069268"><ele>151.66666666666666</ele><time>2026-03-29T09:26:55.185Z</time></trkpt><trkpt lat="44.7549632" lon="8.0691038"><ele>151.33333333333334</ele><time>2026-03-29T09:26:56.185Z</time></trkpt><trkpt lat="44.7547895" lon="8.068941"><ele>151.0</ele><time>2026-03-29T09:26:57.185Z</time></trkpt><trkpt lat="44.7546163" lon="8.068779"><ele>151.0</ele><time>2026-03-29T09:26:58.183Z</time></trkpt><trkpt lat="44.7544433" lon="8.068618"><ele>151.0</ele><time>2026-03-29T09:26:59.186Z</time></trkpt><trkpt lat="44.7542687" lon="8.068457"><ele>151.0</ele><time>2026-03-29T09:27:00.186Z</time></trkpt><trkpt lat="44.7540928" lon="8.0682942"><ele>151.66666666666669</ele><time>2026-03-29T09:27:01.187Z</time></trkpt><trkpt lat="44.7539173" lon="8.0681293"><ele>152.33333333333334</ele><time>2026-03-29T09:27:02.184Z</time></trkpt><trkpt lat="44.753742" lon="8.067965"><ele>153.0</ele><time>2026-03-29T09:27:03.183Z</time></trkpt><trkpt lat="44.7535668" lon="8.0678017"><ele>152.66666666666666</ele><time>2026-03-29T09:27:04.182Z</time></trkpt><trkpt lat="44.7533917" lon="8.0676378"><ele>152.33333333333331</ele><time>2026-03-29T09:27:05.183Z</time></trkpt><trkpt lat="44.7532153" lon="8.0674748"><ele>152.0</ele><time>2026-03-29T09:27:06.183Z</time></trkpt><trkpt lat="44.7530385" lon="8.06731"><ele>152.0</ele><time>2026-03-29T09:27:07.184Z</time></trkpt><trkpt lat="44.7528608" lon="8.0671452"><ele>152.0</ele><time>2026-03-29T09:27:08.185Z</time></trkpt><trkpt lat="44.7526822" lon="8.0669795"><ele>152.0</ele><time>2026-03-29T09:27:09.186Z</time></trkpt><trkpt lat="44.752502" lon="8.0668118"><ele>152.0</ele><time>2026-03-29T09:27:10.185Z</time></trkpt><trkpt lat="44.7523192" lon="8.066643"><ele>152.0</ele><time>2026-03-29T09:27:11.184Z</time></trkpt><trkpt lat="44.7521347" lon="8.0664725"><ele>152.0</ele><time>2026-03-29T09:27:12.184Z</time></trkpt><trkpt lat="44.7519488" lon="8.0662995"><ele>152.5</ele><time>2026-03-29T09:27:13.188Z</time></trkpt><trkpt lat="44.7517617" lon="8.0661245"><ele>153.0</ele><time>2026-03-29T09:27:14.185Z</time></trkpt><trkpt lat="44.7515735" lon="8.0659488"><ele>153.0</ele><time>2026-03-29T09:27:15.186Z</time></trkpt><trkpt lat="44.7513848" lon="8.0657725"><ele>153.0</ele><time>2026-03-29T09:27:16.184Z</time></trkpt><trkpt lat="44.751196" lon="8.0655952"><ele>152.5</ele><time>2026-03-29T09:27:17.184Z</time></trkpt><trkpt lat="44.7510068" lon="8.0654175"><ele>152.0</ele><time>2026-03-29T09:27:18.184Z</time></trkpt><trkpt lat="44.750818" lon="8.0652388"><ele>152.0</ele><time>2026-03-29T09:27:19.189Z</time></trkpt><trkpt lat="44.750629" lon="8.065061"><ele>152.0</ele><time>2026-03-29T09:27:20.187Z</time></trkpt><trkpt lat="44.7504502" lon="8.064894"><ele>152.0</ele><time>2026-03-29T09:27:21.186Z</time></trkpt><trkpt lat="44.7502912" lon="8.0647462"><ele>151.66666666666666</ele><time>2026-03-29T09:27:22.186Z</time></trkpt><trkpt lat="44.7501488" lon="8.0646135"><ele>151.33333333333334</ele><time>2026-03-29T09:27:23.189Z</time></trkpt><trkpt lat="44.7500213" lon="8.0644978"><ele>151.0</ele><time>2026-03-29T09:27:24.184Z</time></trkpt><trkpt lat="44.749911" lon="8.0643992"><ele>151.0</ele><time>2026-03-29T09:27:25.184Z</time></trkpt><trkpt lat="44.7498207" lon="8.064318"><ele>151.0</ele><time>2026-03-29T09:27:26.183Z</time></trkpt><trkpt lat="44.7497505" lon="8.0642532"><ele>151.0</ele><time>2026-03-29T09:27:27.181Z</time></trkpt><trkpt lat="44.7496872" lon="8.0641922"><ele>151.0</ele><time>2026-03-29T09:27:29.181Z</time></trkpt><trkpt lat="44.7496277" lon="8.06413"><ele>151.0</ele><time>2026-03-29T09:27:47.185Z</time></trkpt><trkpt lat="44.749549" lon="8.0640535"><ele>151.0</ele><time>2026-03-29T09:27:48.184Z</time></trkpt><trkpt lat="44.7494485" lon="8.0639568"><ele>152.0</ele><time>2026-03-29T09:27:49.184Z</time></trkpt><trkpt lat="44.7493252" lon="8.0638407"><ele>153.0</ele><time>2026-03-29T09:27:50.184Z</time></trkpt><trkpt lat="44.7491867" lon="8.0637125"><ele>154.0</ele><time>2026-03-29T09:27:51.184Z</time></trkpt><trkpt lat="44.7490275" lon="8.0635672"><ele>154.0</ele><time>2026-03-29T09:27:52.182Z</time></trkpt><trkpt lat="44.7488617" lon="8.0634157"><ele>154.0</ele><time>2026-03-29T09:27:53.181Z</time></trkpt><trkpt lat="44.7486865" lon="8.0632533"><ele>154.0</ele><time>2026-03-29T09:27:54.182Z</time></trkpt><trkpt lat="44.7485055" lon="8.0630842"><ele>154.0</ele><time>2026-03-29T09:27:55.183Z</time></trkpt><trkpt lat="44.7483217" lon="8.0629125"><ele>154.0</ele><time>2026-03-29T09:27:56.182Z</time></trkpt><trkpt lat="44.7481322" lon="8.0627373"><ele>154.0</ele><time>2026-03-29T09:27:57.183Z</time></trkpt><trkpt lat="44.7479403" lon="8.0625603"><ele>154.0</ele><time>2026-03-29T09:27:58.183Z</time></trkpt><trkpt lat="44.7477478" lon="8.062383"><ele>154.0</ele><time>2026-03-29T09:27:59.181Z</time></trkpt><trkpt lat="44.7475585" lon="8.0622067"><ele>154.33333333333334</ele><time>2026-03-29T09:28:00.181Z</time></trkpt><trkpt lat="44.7473737" lon="8.062033"><ele>154.66666666666666</ele><time>2026-03-29T09:28:01.183Z</time></trkpt><trkpt lat="44.7471888" lon="8.0618578"><ele>155.0</ele><time>2026-03-29T09:28:02.182Z</time></trkpt><trkpt lat="44.7469993" lon="8.0616797"><ele>155.0</ele><time>2026-03-29T09:28:03.183Z</time></trkpt><trkpt lat="44.7468187" lon="8.0615098"><ele>155.0</ele><time>2026-03-29T09:28:04.183Z</time></trkpt><trkpt lat="44.7466512" lon="8.0613518"><ele>155.0</ele><time>2026-03-29T09:28:05.181Z</time></trkpt><trkpt lat="44.7464967" lon="8.0612032"><ele>155.0</ele><time>2026-03-29T09:28:06.181Z</time></trkpt><trkpt lat="44.746353" lon="8.061066"><ele>155.0</ele><time>2026-03-29T09:28:07.185Z</time></trkpt><trkpt lat="44.7462168" lon="8.0609407"><ele>155.0</ele><time>2026-03-29T09:28:08.184Z</time></trkpt><trkpt lat="44.746089" lon="8.0608247"><ele>154.75</ele><time>2026-03-29T09:28:09.183Z</time></trkpt><trkpt lat="44.7459695" lon="8.0607203"><ele>154.5</ele><time>2026-03-29T09:28:10.183Z</time></trkpt><trkpt lat="44.7458608" lon="8.0606257"><ele>154.25</ele><time>2026-03-29T09:28:11.183Z</time></trkpt><trkpt lat="44.7457695" lon="8.0605302"><ele>154.0</ele><time>2026-03-29T09:28:12.184Z</time></trkpt><trkpt lat="44.7456955" lon="8.0604227"><ele>154.0</ele><time>2026-03-29T09:28:13.186Z</time></trkpt><trkpt lat="44.7456407" lon="8.0603032"><ele>154.0</ele><time>2026-03-29T09:28:14.185Z</time></trkpt><trkpt lat="44.7455873" lon="8.060205"><ele>154.0</ele><time>2026-03-29T09:28:15.186Z</time></trkpt><trkpt lat="44.7455172" lon="8.0601455"><ele>154.0</ele><time>2026-03-29T09:28:16.182Z</time></trkpt><trkpt lat="44.745418" lon="8.0601083"><ele>154.0</ele><time>2026-03-29T09:28:17.181Z</time></trkpt><trkpt lat="44.7452933" lon="8.0600588"><ele>154.0</ele><time>2026-03-29T09:28:18.181Z</time></trkpt><trkpt lat="44.745159" lon="8.059966"><ele>154.0</ele><time>2026-03-29T09:28:19.182Z</time></trkpt><trkpt lat="44.7450215" lon="8.0598425"><ele>154.0</ele><time>2026-03-29T09:28:20.185Z</time></trkpt><trkpt lat="44.7448803" lon="8.0597068"><ele>154.33333333333334</ele><time>2026-03-29T09:28:21.185Z</time></trkpt><trkpt lat="44.7447408" lon="8.0595747"><ele>154.66666666666666</ele><time>2026-03-29T09:28:22.186Z</time></trkpt><trkpt lat="44.7446115" lon="8.0594557"><ele>155.0</ele><time>2026-03-29T09:28:23.184Z</time></trkpt><trkpt lat="44.744495" lon="8.0593518"><ele>155.0</ele><time>2026-03-29T09:28:24.184Z</time></trkpt><trkpt lat="44.7443913" lon="8.059262"><ele>155.0</ele><time>2026-03-29T09:28:25.185Z</time></trkpt><trkpt lat="44.7442965" lon="8.0591747"><ele>155.0</ele><time>2026-03-29T09:28:26.184Z</time></trkpt><trkpt lat="44.7442062" lon="8.0590893"><ele>155.0</ele><time>2026-03-29T09:28:27.185Z</time></trkpt><trkpt lat="44.7441145" lon="8.059003"><ele>154.75</ele><time>2026-03-29T09:28:28.186Z</time></trkpt><trkpt lat="44.7440133" lon="8.0589083"><ele>154.5</ele><time>2026-03-29T09:28:29.185Z</time></trkpt><trkpt lat="44.7439013" lon="8.0588073"><ele>154.25</ele><time>2026-03-29T09:28:30.185Z</time></trkpt><trkpt lat="44.7437793" lon="8.0587038"><ele>154.0</ele><time>2026-03-29T09:28:31.185Z</time></trkpt><trkpt lat="44.743642" lon="8.0585895"><ele>153.33333333333334</ele><time>2026-03-29T09:28:32.185Z</time></trkpt><trkpt lat="44.7434882" lon="8.0584527"><ele>152.66666666666666</ele><time>2026-03-29T09:28:33.187Z</time></trkpt><trkpt lat="44.7433258" lon="8.0583033"><ele>152.0</ele><time>2026-03-29T09:28:34.186Z</time></trkpt><trkpt lat="44.7431497" lon="8.0581405"><ele>151.66666666666666</ele><time>2026-03-29T09:28:35.186Z</time></trkpt><trkpt lat="44.742972" lon="8.0579735"><ele>151.33333333333334</ele><time>2026-03-29T09:28:36.186Z</time></trkpt><trkpt lat="44.742796" lon="8.0577965"><ele>151.0</ele><time>2026-03-29T09:28:37.185Z</time></trkpt><trkpt lat="44.7426182" lon="8.0576138"><ele>151.33333333333334</ele><time>2026-03-29T09:28:38.185Z</time></trkpt><trkpt lat="44.742436" lon="8.0574362"><ele>151.66666666666666</ele><time>2026-03-29T09:28:39.185Z</time></trkpt><trkpt lat="44.7422515" lon="8.0572615"><ele>152.0</ele><time>2026-03-29T09:28:40.184Z</time></trkpt><trkpt lat="44.7420675" lon="8.0570878"><ele>152.0</ele><time>2026-03-29T09:28:41.183Z</time></trkpt><trkpt lat="44.7418835" lon="8.0569148"><ele>152.0</ele><time>2026-03-29T09:28:42.184Z</time></trkpt><trkpt lat="44.7416987" lon="8.0567428"><ele>152.0</ele><time>2026-03-29T09:28:43.182Z</time></trkpt><trkpt lat="44.7415132" lon="8.0565712"><ele>152.66666666666666</ele><time>2026-03-29T09:28:44.188Z</time></trkpt><trkpt lat="44.7413275" lon="8.0563998"><ele>153.33333333333334</ele><time>2026-03-29T09:28:45.183Z</time></trkpt><trkpt lat="44.7411417" lon="8.0562273"><ele>154.0</ele><time>2026-03-29T09:28:46.187Z</time></trkpt><trkpt lat="44.7409548" lon="8.0560535"><ele>154.5</ele><time>2026-03-29T09:28:47.186Z</time></trkpt><trkpt lat="44.7407672" lon="8.0558792"><ele>155.0</ele><time>2026-03-29T09:28:48.172Z</time></trkpt><trkpt lat="44.7405795" lon="8.0557047"><ele>155.0</ele><time>2026-03-29T09:28:49.185Z</time></trkpt><trkpt lat="44.7403915" lon="8.0555297"><ele>155.0</ele><time>2026-03-29T09:28:50.187Z</time></trkpt><trkpt lat="44.7402042" lon="8.0553547"><ele>155.0</ele><time>2026-03-29T09:28:51.184Z</time></trkpt><trkpt lat="44.740017" lon="8.0551812"><ele>155.0</ele><time>2026-03-29T09:28:52.186Z</time></trkpt><trkpt lat="44.7398288" lon="8.0550095"><ele>155.0</ele><time>2026-03-29T09:28:53.185Z</time></trkpt><trkpt lat="44.739641" lon="8.054839"><ele>154.33333333333331</ele><time>2026-03-29T09:28:54.185Z</time></trkpt><trkpt lat="44.7394543" lon="8.0546678"><ele>153.66666666666666</ele><time>2026-03-29T09:28:55.186Z</time></trkpt><trkpt lat="44.7392683" lon="8.0544965"><ele>153.0</ele><time>2026-03-29T09:28:56.183Z</time></trkpt><trkpt lat="44.7390827" lon="8.0543247"><ele>152.66666666666666</ele><time>2026-03-29T09:28:57.183Z</time></trkpt><trkpt lat="44.7388973" lon="8.0541518"><ele>152.33333333333331</ele><time>2026-03-29T09:28:58.184Z</time></trkpt><trkpt lat="44.7387117" lon="8.0539792"><ele>152.0</ele><time>2026-03-29T09:28:59.188Z</time></trkpt><trkpt lat="44.7385253" lon="8.0538062"><ele>153.0</ele><time>2026-03-29T09:29:00.184Z</time></trkpt><trkpt lat="44.7383377" lon="8.053632"><ele>154.0</ele><time>2026-03-29T09:29:01.185Z</time></trkpt><trkpt lat="44.7381493" lon="8.0534575"><ele>153.5</ele><time>2026-03-29T09:29:02.186Z</time></trkpt><trkpt lat="44.7379607" lon="8.0532818"><ele>153.0</ele><time>2026-03-29T09:29:03.186Z</time></trkpt><trkpt lat="44.7377715" lon="8.0531053"><ele>152.5</ele><time>2026-03-29T09:29:04.186Z</time></trkpt><trkpt lat="44.7375828" lon="8.0529283"><ele>152.0</ele><time>2026-03-29T09:29:05.186Z</time></trkpt><trkpt lat="44.7373948" lon="8.0527517"><ele>152.0</ele><time>2026-03-29T09:29:06.181Z</time></trkpt><trkpt lat="44.7372135" lon="8.0525797"><ele>152.0</ele><time>2026-03-29T09:29:07.184Z</time></trkpt><trkpt lat="44.7370452" lon="8.052419"><ele>152.0</ele><time>2026-03-29T09:29:08.182Z</time></trkpt><trkpt lat="44.7368867" lon="8.0522702"><ele>152.0</ele><time>2026-03-29T09:29:09.183Z</time></trkpt><trkpt lat="44.736734" lon="8.0521308"><ele>152.0</ele><time>2026-03-29T09:29:10.185Z</time></trkpt><trkpt lat="44.7365848" lon="8.051996"><ele>152.0</ele><time>2026-03-29T09:29:11.187Z</time></trkpt><trkpt lat="44.736439" lon="8.0518637"><ele>152.0</ele><time>2026-03-29T09:29:12.186Z</time></trkpt><trkpt lat="44.7362965" lon="8.051733"><ele>152.0</ele><time>2026-03-29T09:29:13.186Z</time></trkpt><trkpt lat="44.7361597" lon="8.0516053"><ele>152.0</ele><time>2026-03-29T09:29:14.184Z</time></trkpt><trkpt lat="44.736033" lon="8.0514865"><ele>152.75</ele><time>2026-03-29T09:29:15.187Z</time></trkpt><trkpt lat="44.7359162" lon="8.051377"><ele>153.5</ele><time>2026-03-29T09:29:16.185Z</time></trkpt><trkpt lat="44.7358088" lon="8.0512768"><ele>154.25</ele><time>2026-03-29T09:29:17.184Z</time></trkpt><trkpt lat="44.73571" lon="8.0511857"><ele>155.0</ele><time>2026-03-29T09:29:18.186Z</time></trkpt><trkpt lat="44.7356178" lon="8.0511018"><ele>155.0</ele><time>2026-03-29T09:29:19.185Z</time></trkpt><trkpt lat="44.7355347" lon="8.0510257"><ele>155.0</ele><time>2026-03-29T09:29:20.184Z</time></trkpt><trkpt lat="44.7354567" lon="8.0509545"><ele>155.0</ele><time>2026-03-29T09:29:21.185Z</time></trkpt><trkpt lat="44.7353853" lon="8.0508887"><ele>155.0</ele><time>2026-03-29T09:29:22.185Z</time></trkpt><trkpt lat="44.7353172" lon="8.0508252"><ele>155.0</ele><time>2026-03-29T09:29:23.185Z</time></trkpt><trkpt lat="44.7352438" lon="8.050758"><ele>155.0</ele><time>2026-03-29T09:29:24.186Z</time></trkpt><trkpt lat="44.7351662" lon="8.0506867"><ele>155.16666666666666</ele><time>2026-03-29T09:29:25.187Z</time></trkpt><trkpt lat="44.7350912" lon="8.050616"><ele>155.33333333333331</ele><time>2026-03-29T09:29:26.186Z</time></trkpt><trkpt lat="44.7350187" lon="8.0505482"><ele>155.5</ele><time>2026-03-29T09:29:27.185Z</time></trkpt><trkpt lat="44.7349463" lon="8.0504807"><ele>155.66666666666666</ele><time>2026-03-29T09:29:28.186Z</time></trkpt><trkpt lat="44.7348735" lon="8.0504132"><ele>155.83333333333334</ele><time>2026-03-29T09:29:29.183Z</time></trkpt><trkpt lat="44.7348008" lon="8.0503458"><ele>156.0</ele><time>2026-03-29T09:29:30.181Z</time></trkpt><trkpt lat="44.7347307" lon="8.0502783"><ele>156.0</ele><time>2026-03-29T09:29:31.184Z</time></trkpt><trkpt lat="44.7346625" lon="8.050214"><ele>156.0</ele><time>2026-03-29T09:29:32.182Z</time></trkpt><trkpt lat="44.734593" lon="8.0501493"><ele>156.0</ele><time>2026-03-29T09:29:33.184Z</time></trkpt><trkpt lat="44.7345222" lon="8.0500855"><ele>156.0</ele><time>2026-03-29T09:29:34.186Z</time></trkpt><trkpt lat="44.734451" lon="8.0500217"><ele>156.0</ele><time>2026-03-29T09:29:35.185Z</time></trkpt><trkpt lat="44.7343807" lon="8.0499568"><ele>156.0</ele><time>2026-03-29T09:29:36.185Z</time></trkpt><trkpt lat="44.734313" lon="8.0498935"><ele>156.33333333333334</ele><time>2026-03-29T09:29:37.185Z</time></trkpt><trkpt lat="44.7342472" lon="8.0498332"><ele>156.66666666666666</ele><time>2026-03-29T09:29:38.186Z</time></trkpt><trkpt lat="44.7341805" lon="8.0497742"><ele>157.0</ele><time>2026-03-29T09:29:39.187Z</time></trkpt><trkpt lat="44.7341125" lon="8.0497162"><ele>157.33333333333331</ele><time>2026-03-29T09:29:40.186Z</time></trkpt><trkpt lat="44.7340428" lon="8.0496587"><ele>157.66666666666666</ele><time>2026-03-29T09:29:41.185Z</time></trkpt><trkpt lat="44.733971" lon="8.0496052"><ele>158.0</ele><time>2026-03-29T09:29:42.186Z</time></trkpt><trkpt lat="44.7338982" lon="8.0495545"><ele>158.0</ele><time>2026-03-29T09:29:43.186Z</time></trkpt><trkpt lat="44.7338303" lon="8.0495095"><ele>158.0</ele><time>2026-03-29T09:29:44.185Z</time></trkpt><trkpt lat="44.7337673" lon="8.0494625"><ele>158.0</ele><time>2026-03-29T09:29:45.188Z</time></trkpt><trkpt lat="44.7337127" lon="8.0494067"><ele>158.0</ele><time>2026-03-29T09:29:46.186Z</time></trkpt><trkpt lat="44.7336595" lon="8.0493338"><ele>158.0</ele><time>2026-03-29T09:29:47.185Z</time></trkpt><trkpt lat="44.7335957" lon="8.0492457"><ele>158.0</ele><time>2026-03-29T09:29:48.185Z</time></trkpt><trkpt lat="44.73351" lon="8.049161"><ele>158.0</ele><time>2026-03-29T09:29:49.185Z</time></trkpt><trkpt lat="44.7334008" lon="8.0490703"><ele>158.0</ele><time>2026-03-29T09:29:50.184Z</time></trkpt><trkpt lat="44.7332797" lon="8.0489568"><ele>158.0</ele><time>2026-03-29T09:29:51.185Z</time></trkpt><trkpt lat="44.733157" lon="8.0488255"><ele>158.0</ele><time>2026-03-29T09:29:52.186Z</time></trkpt><trkpt lat="44.733021" lon="8.0486822"><ele>158.0</ele><time>2026-03-29T09:29:53.186Z</time></trkpt><trkpt lat="44.7328725" lon="8.0485387"><ele>158.0</ele><time>2026-03-29T09:29:54.185Z</time></trkpt><trkpt lat="44.732719" lon="8.0483973"><ele>158.0</ele><time>2026-03-29T09:29:55.186Z</time></trkpt><trkpt lat="44.7325532" lon="8.0482453"><ele>157.66666666666666</ele><time>2026-03-29T09:29:56.184Z</time></trkpt><trkpt lat="44.7323797" lon="8.0480855"><ele>157.33333333333334</ele><time>2026-03-29T09:29:57.183Z</time></trkpt><trkpt lat="44.7322062" lon="8.0479238"><ele>157.0</ele><time>2026-03-29T09:29:58.186Z</time></trkpt><trkpt lat="44.7320275" lon="8.047761"><ele>156.66666666666669</ele><time>2026-03-29T09:29:59.186Z</time></trkpt><trkpt lat="44.731847" lon="8.0475968"><ele>156.33333333333334</ele><time>2026-03-29T09:30:00.185Z</time></trkpt><trkpt lat="44.7316687" lon="8.0474255"><ele>156.0</ele><time>2026-03-29T09:30:01.186Z</time></trkpt><trkpt lat="44.731489" lon="8.047253"><ele>156.0</ele><time>2026-03-29T09:30:02.186Z</time></trkpt><trkpt lat="44.7313057" lon="8.0470782"><ele>156.0</ele><time>2026-03-29T09:30:03.187Z</time></trkpt><trkpt lat="44.7311223" lon="8.0469033"><ele>156.0</ele><time>2026-03-29T09:30:04.185Z</time></trkpt><trkpt lat="44.7309377" lon="8.0467295"><ele>156.33333333333334</ele><time>2026-03-29T09:30:05.187Z</time></trkpt><trkpt lat="44.7307527" lon="8.0465577"><ele>156.66666666666669</ele><time>2026-03-29T09:30:06.186Z</time></trkpt><trkpt lat="44.7305675" lon="8.046387"><ele>157.0</ele><time>2026-03-29T09:30:07.187Z</time></trkpt><trkpt lat="44.7303828" lon="8.0462177"><ele>157.66666666666669</ele><time>2026-03-29T09:30:08.19Z</time></trkpt><trkpt lat="44.7302008" lon="8.0460508"><ele>158.33333333333334</ele><time>2026-03-29T09:30:09.186Z</time></trkpt><trkpt lat="44.730029" lon="8.0458918"><ele>159.0</ele><time>2026-03-29T09:30:10.186Z</time></trkpt><trkpt lat="44.7298698" lon="8.0457433"><ele>159.0</ele><time>2026-03-29T09:30:11.185Z</time></trkpt><trkpt lat="44.7297227" lon="8.0456042"><ele>159.0</ele><time>2026-03-29T09:30:12.186Z</time></trkpt><trkpt lat="44.729586" lon="8.0454742"><ele>159.0</ele><time>2026-03-29T09:30:13.186Z</time></trkpt><trkpt lat="44.7294588" lon="8.0453537"><ele>159.25</ele><time>2026-03-29T09:30:14.187Z</time></trkpt><trkpt lat="44.7293403" lon="8.045243"><ele>159.5</ele><time>2026-03-29T09:30:15.188Z</time></trkpt><trkpt lat="44.7292328" lon="8.0451423"><ele>159.75</ele><time>2026-03-29T09:30:16.187Z</time></trkpt><trkpt lat="44.7291373" lon="8.04505"><ele>160.0</ele><time>2026-03-29T09:30:17.186Z</time></trkpt><trkpt lat="44.7290543" lon="8.0449657"><ele>159.6</ele><time>2026-03-29T09:30:18.184Z</time></trkpt><trkpt lat="44.7289875" lon="8.0448783"><ele>159.2</ele><time>2026-03-29T09:30:19.184Z</time></trkpt><trkpt lat="44.7289415" lon="8.0447752"><ele>158.8</ele><time>2026-03-29T09:30:20.182Z</time></trkpt><trkpt lat="44.7289285" lon="8.0446653"><ele>158.4</ele><time>2026-03-29T09:30:21.182Z</time></trkpt><trkpt lat="44.7289477" lon="8.0445425"><ele>158.0</ele><time>2026-03-29T09:30:22.182Z</time></trkpt><trkpt lat="44.7289933" lon="8.0443865"><ele>158.0</ele><time>2026-03-29T09:30:23.185Z</time></trkpt><trkpt lat="44.7290542" lon="8.044197"><ele>158.0</ele><time>2026-03-29T09:30:24.185Z</time></trkpt><trkpt lat="44.7291212" lon="8.043984"><ele>158.0</ele><time>2026-03-29T09:30:25.186Z</time></trkpt><trkpt lat="44.7291967" lon="8.043743"><ele>157.66666666666666</ele><time>2026-03-29T09:30:26.189Z</time></trkpt><trkpt lat="44.7292758" lon="8.0434862"><ele>157.33333333333334</ele><time>2026-03-29T09:30:27.185Z</time></trkpt><trkpt lat="44.7293625" lon="8.0432038"><ele>157.0</ele><time>2026-03-29T09:30:28.187Z</time></trkpt><trkpt lat="44.729452" lon="8.0429163"><ele>156.5</ele><time>2026-03-29T09:30:29.186Z</time></trkpt><trkpt lat="44.7295452" lon="8.0426267"><ele>156.0</ele><time>2026-03-29T09:30:30.186Z</time></trkpt><trkpt lat="44.7296458" lon="8.0423295"><ele>156.0</ele><time>2026-03-29T09:30:31.186Z</time></trkpt><trkpt lat="44.7297543" lon="8.0420263"><ele>156.0</ele><time>2026-03-29T09:30:32.185Z</time></trkpt><trkpt lat="44.7298678" lon="8.0417185"><ele>157.0</ele><time>2026-03-29T09:30:33.173Z</time></trkpt><trkpt lat="44.7299822" lon="8.0414067"><ele>158.0</ele><time>2026-03-29T09:30:34.186Z</time></trkpt><trkpt lat="44.7300972" lon="8.0410948"><ele>158.5</ele><time>2026-03-29T09:30:35.185Z</time></trkpt><trkpt lat="44.730212" lon="8.040785"><ele>159.0</ele><time>2026-03-29T09:30:36.186Z</time></trkpt><trkpt lat="44.7303243" lon="8.0404783"><ele>159.0</ele><time>2026-03-29T09:30:37.187Z</time></trkpt><trkpt lat="44.7304343" lon="8.0401733"><ele>159.0</ele><time>2026-03-29T09:30:38.189Z</time></trkpt><trkpt lat="44.7305428" lon="8.0398747"><ele>159.5</ele><time>2026-03-29T09:30:39.185Z</time></trkpt><trkpt lat="44.7306495" lon="8.039583"><ele>160.0</ele><time>2026-03-29T09:30:40.187Z</time></trkpt><trkpt lat="44.7307555" lon="8.0392938"><ele>160.0</ele><time>2026-03-29T09:30:41.186Z</time></trkpt><trkpt lat="44.7308632" lon="8.039011"><ele>160.0</ele><time>2026-03-29T09:30:42.185Z</time></trkpt><trkpt lat="44.730979" lon="8.0387398"><ele>160.0</ele><time>2026-03-29T09:30:43.184Z</time></trkpt><trkpt lat="44.7311135" lon="8.0384847"><ele>160.0</ele><time>2026-03-29T09:30:44.183Z</time></trkpt><trkpt lat="44.7312695" lon="8.0382537"><ele>160.0</ele><time>2026-03-29T09:30:45.181Z</time></trkpt><trkpt lat="44.7314427" lon="8.038038"><ele>160.0</ele><time>2026-03-29T09:30:46.184Z</time></trkpt><trkpt lat="44.7316245" lon="8.037823"><ele>160.0</ele><time>2026-03-29T09:30:47.184Z</time></trkpt><trkpt lat="44.7318117" lon="8.0376053"><ele>160.0</ele><time>2026-03-29T09:30:48.186Z</time></trkpt><trkpt lat="44.732002" lon="8.037385"><ele>162.5</ele><time>2026-03-29T09:30:49.185Z</time></trkpt><trkpt lat="44.732192" lon="8.0371637"><ele>165.0</ele><time>2026-03-29T09:30:50.185Z</time></trkpt><trkpt lat="44.732381" lon="8.0369432"><ele>165.0</ele><time>2026-03-29T09:30:51.186Z</time></trkpt><trkpt lat="44.7325615" lon="8.0367342"><ele>165.0</ele><time>2026-03-29T09:30:52.185Z</time></trkpt><trkpt lat="44.732729" lon="8.0365398"><ele>166.33333333333334</ele><time>2026-03-29T09:30:53.187Z</time></trkpt><trkpt lat="44.7328918" lon="8.0363507"><ele>167.66666666666669</ele><time>2026-03-29T09:30:54.185Z</time></trkpt><trkpt lat="44.7330513" lon="8.036166"><ele>169.0</ele><time>2026-03-29T09:30:55.185Z</time></trkpt><trkpt lat="44.7332003" lon="8.0359915"><ele>169.0</ele><time>2026-03-29T09:30:56.184Z</time></trkpt><trkpt lat="44.7333323" lon="8.0358217"><ele>169.0</ele><time>2026-03-29T09:30:57.183Z</time></trkpt><trkpt lat="44.7334482" lon="8.0356343"><ele>169.0</ele><time>2026-03-29T09:30:58.184Z</time></trkpt><trkpt lat="44.7335388" lon="8.0354163"><ele>172.33333333333334</ele><time>2026-03-29T09:30:59.183Z</time></trkpt><trkpt lat="44.7335948" lon="8.0351668"><ele>175.66666666666666</ele><time>2026-03-29T09:31:00.182Z</time></trkpt><trkpt lat="44.7336195" lon="8.034886"><ele>179.0</ele><time>2026-03-29T09:31:01.185Z</time></trkpt><trkpt lat="44.7336155" lon="8.034573"><ele>185.5</ele><time>2026-03-29T09:31:02.183Z</time></trkpt><trkpt lat="44.7335967" lon="8.0342475"><ele>192.0</ele><time>2026-03-29T09:31:03.183Z</time></trkpt><trkpt lat="44.7335763" lon="8.0339273"><ele>190.0</ele><time>2026-03-29T09:31:04.188Z</time></trkpt><trkpt lat="44.7335507" lon="8.0335998"><ele>188.0</ele><time>2026-03-29T09:31:05.182Z</time></trkpt><trkpt lat="44.733518" lon="8.0332958"><ele>188.0</ele><time>2026-03-29T09:31:06.184Z</time></trkpt><trkpt lat="44.7334862" lon="8.0330227"><ele>188.0</ele><time>2026-03-29T09:31:07.181Z</time></trkpt><trkpt lat="44.7334557" lon="8.0327767"><ele>188.0</ele><time>2026-03-29T09:31:08.179Z</time></trkpt><trkpt lat="44.7334082" lon="8.032561"><ele>193.0</ele><time>2026-03-29T09:31:09.18Z</time></trkpt><trkpt lat="44.7333263" lon="8.0323542"><ele>198.0</ele><time>2026-03-29T09:31:10.181Z</time></trkpt><trkpt lat="44.7332135" lon="8.0321447"><ele>203.0</ele><time>2026-03-29T09:31:11.181Z</time></trkpt><trkpt lat="44.7330887" lon="8.0319342"><ele>203.0</ele><time>2026-03-29T09:31:12.184Z</time></trkpt><trkpt lat="44.732964" lon="8.0317045"><ele>203.0</ele><time>2026-03-29T09:31:13.185Z</time></trkpt><trkpt lat="44.732854" lon="8.0314885"><ele>203.0</ele><time>2026-03-29T09:31:14.183Z</time></trkpt><trkpt lat="44.732745" lon="8.0313048"><ele>202.5</ele><time>2026-03-29T09:31:15.183Z</time></trkpt><trkpt lat="44.7326352" lon="8.0311585"><ele>202.0</ele><time>2026-03-29T09:31:16.185Z</time></trkpt><trkpt lat="44.73253" lon="8.0310473"><ele>201.5</ele><time>2026-03-29T09:31:17.182Z</time></trkpt><trkpt lat="44.7324358" lon="8.0309617"><ele>201.0</ele><time>2026-03-29T09:31:18.183Z</time></trkpt><trkpt lat="44.7323695" lon="8.030886"><ele>205.0</ele><time>2026-03-29T09:31:19.181Z</time></trkpt><trkpt lat="44.732342" lon="8.0308005"><ele>209.0</ele><time>2026-03-29T09:31:20.183Z</time></trkpt><trkpt lat="44.7323983" lon="8.0306568"><ele>213.00000000000003</ele><time>2026-03-29T09:31:22.185Z</time></trkpt><trkpt lat="44.732471" lon="8.0306452"><ele>217.0</ele><time>2026-03-29T09:31:23.182Z</time></trkpt><trkpt lat="44.732563" lon="8.0306898"><ele>221.0</ele><time>2026-03-29T09:31:24.183Z</time></trkpt><trkpt lat="44.732671" lon="8.0307812"><ele>222.33333333333334</ele><time>2026-03-29T09:31:25.183Z</time></trkpt><trkpt lat="44.7327917" lon="8.030907"><ele>223.66666666666669</ele><time>2026-03-29T09:31:26.183Z</time></trkpt><trkpt lat="44.7329303" lon="8.0310507"><ele>225.0</ele><time>2026-03-29T09:31:27.183Z</time></trkpt><trkpt lat="44.7330823" lon="8.0312025"><ele>225.0</ele><time>2026-03-29T09:31:28.184Z</time></trkpt><trkpt lat="44.7332408" lon="8.031362"><ele>225.0</ele><time>2026-03-29T09:31:29.183Z</time></trkpt><trkpt lat="44.733383" lon="8.0315173"><ele>225.0</ele><time>2026-03-29T09:31:30.182Z</time></trkpt><trkpt lat="44.7335047" lon="8.0316737"><ele>226.5</ele><time>2026-03-29T09:31:31.183Z</time></trkpt><trkpt lat="44.7336083" lon="8.0318285"><ele>228.0</ele><time>2026-03-29T09:31:32.181Z</time></trkpt><trkpt lat="44.7337003" lon="8.0319612"><ele>229.5</ele><time>2026-03-29T09:31:33.181Z</time></trkpt><trkpt lat="44.7337892" lon="8.032034"><ele>231.0</ele><time>2026-03-29T09:31:34.182Z</time></trkpt><trkpt lat="44.7338742" lon="8.0320443"><ele>231.0</ele><time>2026-03-29T09:31:35.179Z</time></trkpt><trkpt lat="44.7339463" lon="8.0319968"><ele>231.00000000000003</ele><time>2026-03-29T09:31:36.18Z</time></trkpt><trkpt lat="44.7339837" lon="8.0319033"><ele>231.00000000000003</ele><time>2026-03-29T09:31:37.18Z</time></trkpt><trkpt lat="44.733978" lon="8.0317895"><ele>231.0</ele><time>2026-03-29T09:31:38.181Z</time></trkpt><trkpt lat="44.7339245" lon="8.03167"><ele>231.0</ele><time>2026-03-29T09:31:39.181Z</time></trkpt><trkpt lat="44.7338368" lon="8.0315352"><ele>229.0</ele><time>2026-03-29T09:31:40.182Z</time></trkpt><trkpt lat="44.7337352" lon="8.0313743"><ele>227.0</ele><time>2026-03-29T09:31:41.181Z</time></trkpt><trkpt lat="44.7336292" lon="8.031188"><ele>225.0</ele><time>2026-03-29T09:31:42.183Z</time></trkpt><trkpt lat="44.7335118" lon="8.0309902"><ele>232.66666666666669</ele><time>2026-03-29T09:31:43.184Z</time></trkpt><trkpt lat="44.7333738" lon="8.030792"><ele>240.33333333333334</ele><time>2026-03-29T09:31:44.183Z</time></trkpt><trkpt lat="44.7332242" lon="8.0306"><ele>248.0</ele><time>2026-03-29T09:31:45.183Z</time></trkpt><trkpt lat="44.7330597" lon="8.0304017"><ele>248.0</ele><time>2026-03-29T09:31:46.183Z</time></trkpt><trkpt lat="44.7329018" lon="8.0302197"><ele>248.0</ele><time>2026-03-29T09:31:47.183Z</time></trkpt><trkpt lat="44.7327605" lon="8.0300605"><ele>248.0</ele><time>2026-03-29T09:31:48.183Z</time></trkpt><trkpt lat="44.732643" lon="8.0299213"><ele>243.5</ele><time>2026-03-29T09:31:49.182Z</time></trkpt><trkpt lat="44.7325532" lon="8.0297882"><ele>239.0</ele><time>2026-03-29T09:31:50.182Z</time></trkpt><trkpt lat="44.7324975" lon="8.029646"><ele>234.5</ele><time>2026-03-29T09:31:51.181Z</time></trkpt><trkpt lat="44.7324837" lon="8.0294948"><ele>230.0</ele><time>2026-03-29T09:31:52.183Z</time></trkpt><trkpt lat="44.7325192" lon="8.0293443"><ele>230.0</ele><time>2026-03-29T09:31:53.185Z</time></trkpt><trkpt lat="44.732599" lon="8.0291918"><ele>230.0</ele><time>2026-03-29T09:31:54.184Z</time></trkpt><trkpt lat="44.7327152" lon="8.0290307"><ele>230.0</ele><time>2026-03-29T09:31:55.185Z</time></trkpt><trkpt lat="44.7328462" lon="8.0288647"><ele>234.66666666666669</ele><time>2026-03-29T09:31:56.182Z</time></trkpt><trkpt lat="44.7329805" lon="8.0286872"><ele>239.33333333333331</ele><time>2026-03-29T09:31:57.181Z</time></trkpt><trkpt lat="44.7330963" lon="8.028505"><ele>244.0</ele><time>2026-03-29T09:31:58.181Z</time></trkpt><trkpt lat="44.7331823" lon="8.0283068"><ele>244.0</ele><time>2026-03-29T09:31:59.183Z</time></trkpt><trkpt lat="44.7332412" lon="8.0280725"><ele>244.0</ele><time>2026-03-29T09:32:00.181Z</time></trkpt><trkpt lat="44.73328" lon="8.0277987"><ele>244.0</ele><time>2026-03-29T09:32:01.183Z</time></trkpt><trkpt lat="44.7333062" lon="8.027507"><ele>245.0</ele><time>2026-03-29T09:32:02.183Z</time></trkpt><trkpt lat="44.7333272" lon="8.0271928"><ele>246.0</ele><time>2026-03-29T09:32:03.184Z</time></trkpt><trkpt lat="44.7333483" lon="8.0268988"><ele>247.0</ele><time>2026-03-29T09:32:04.185Z</time></trkpt><trkpt lat="44.7333662" lon="8.0266365"><ele>250.33333333333331</ele><time>2026-03-29T09:32:05.184Z</time></trkpt><trkpt lat="44.733369" lon="8.0264017"><ele>253.66666666666669</ele><time>2026-03-29T09:32:06.183Z</time></trkpt><trkpt lat="44.7333405" lon="8.0261883"><ele>257.0</ele><time>2026-03-29T09:32:07.183Z</time></trkpt><trkpt lat="44.7332735" lon="8.0259977"><ele>257.0</ele><time>2026-03-29T09:32:08.187Z</time></trkpt><trkpt lat="44.7331657" lon="8.0258315"><ele>257.0</ele><time>2026-03-29T09:32:09.185Z</time></trkpt><trkpt lat="44.733043" lon="8.0256902"><ele>257.0</ele><time>2026-03-29T09:32:10.187Z</time></trkpt><trkpt lat="44.7329278" lon="8.0255672"><ele>255.39999999999998</ele><time>2026-03-29T09:32:11.184Z</time></trkpt><trkpt lat="44.7328258" lon="8.0254533"><ele>253.79999999999998</ele><time>2026-03-29T09:32:12.185Z</time></trkpt><trkpt lat="44.7327448" lon="8.0253392"><ele>252.2</ele><time>2026-03-29T09:32:13.185Z</time></trkpt><trkpt lat="44.7327003" lon="8.0252192"><ele>250.6</ele><time>2026-03-29T09:32:14.182Z</time></trkpt><trkpt lat="44.7326935" lon="8.0251142"><ele>249.0</ele><time>2026-03-29T09:32:15.184Z</time></trkpt><trkpt lat="44.7327152" lon="8.0250058"><ele>251.2</ele><time>2026-03-29T09:32:17.185Z</time></trkpt><trkpt lat="44.7326953" lon="8.0248712"><ele>253.39999999999998</ele><time>2026-03-29T09:32:20.186Z</time></trkpt><trkpt lat="44.7326352" lon="8.0247883"><ele>255.6</ele><time>2026-03-29T09:32:21.184Z</time></trkpt><trkpt lat="44.7325413" lon="8.0246908"><ele>257.8</ele><time>2026-03-29T09:32:22.184Z</time></trkpt><trkpt lat="44.7324263" lon="8.0245683"><ele>260.0</ele><time>2026-03-29T09:32:23.181Z</time></trkpt><trkpt lat="44.7323043" lon="8.0244188"><ele>260.0</ele><time>2026-03-29T09:32:24.184Z</time></trkpt><trkpt lat="44.7321772" lon="8.024251"><ele>260.0</ele><time>2026-03-29T09:32:25.186Z</time></trkpt><trkpt lat="44.7320395" lon="8.0240878"><ele>260.0</ele><time>2026-03-29T09:32:26.184Z</time></trkpt><trkpt lat="44.7318798" lon="8.0239478"><ele>262.0</ele><time>2026-03-29T09:32:27.185Z</time></trkpt><trkpt lat="44.731702" lon="8.0238335"><ele>264.0</ele><time>2026-03-29T09:32:28.186Z</time></trkpt><trkpt lat="44.731537" lon="8.0237368"><ele>266.0</ele><time>2026-03-29T09:32:29.185Z</time></trkpt><trkpt lat="44.7313868" lon="8.0236492"><ele>266.0</ele><time>2026-03-29T09:32:30.186Z</time></trkpt><trkpt lat="44.7312502" lon="8.023563"><ele>266.0</ele><time>2026-03-29T09:32:31.185Z</time></trkpt><trkpt lat="44.7311263" lon="8.023467"><ele>266.0</ele><time>2026-03-29T09:32:32.185Z</time></trkpt><trkpt lat="44.7310207" lon="8.0233498"><ele>266.0</ele><time>2026-03-29T09:32:33.186Z</time></trkpt><trkpt lat="44.7309295" lon="8.0231947"><ele>264.6666666666667</ele><time>2026-03-29T09:32:34.183Z</time></trkpt><trkpt lat="44.7308453" lon="8.022987"><ele>263.3333333333333</ele><time>2026-03-29T09:32:35.185Z</time></trkpt><trkpt lat="44.7307653" lon="8.0227438"><ele>262.0</ele><time>2026-03-29T09:32:36.183Z</time></trkpt><trkpt lat="44.730681" lon="8.0224718"><ele>262.0</ele><time>2026-03-29T09:32:37.186Z</time></trkpt><trkpt lat="44.7305928" lon="8.0221862"><ele>262.0</ele><time>2026-03-29T09:32:38.188Z</time></trkpt><trkpt lat="44.7304998" lon="8.0218872"><ele>264.5</ele><time>2026-03-29T09:32:39.183Z</time></trkpt><trkpt lat="44.7304035" lon="8.0215827"><ele>267.0</ele><time>2026-03-29T09:32:40.187Z</time></trkpt><trkpt lat="44.7303057" lon="8.021273"><ele>256.5</ele><time>2026-03-29T09:32:41.184Z</time></trkpt><trkpt lat="44.7302117" lon="8.0209715"><ele>246.0</ele><time>2026-03-29T09:32:42.185Z</time></trkpt><trkpt lat="44.7301212" lon="8.0206855"><ele>246.0</ele><time>2026-03-29T09:32:43.187Z</time></trkpt><trkpt lat="44.730035" lon="8.0204128"><ele>246.0</ele><time>2026-03-29T09:32:44.185Z</time></trkpt><trkpt lat="44.7299538" lon="8.0201527"><ele>246.0</ele><time>2026-03-29T09:32:45.183Z</time></trkpt><trkpt lat="44.7298757" lon="8.0198983"><ele>248.33333333333331</ele><time>2026-03-29T09:32:46.184Z</time></trkpt><trkpt lat="44.7297973" lon="8.0196413"><ele>250.66666666666666</ele><time>2026-03-29T09:32:47.183Z</time></trkpt><trkpt lat="44.7297197" lon="8.0193917"><ele>253.0</ele><time>2026-03-29T09:32:48.182Z</time></trkpt><trkpt lat="44.7296448" lon="8.0191548"><ele>252.66666666666666</ele><time>2026-03-29T09:32:49.184Z</time></trkpt><trkpt lat="44.7295732" lon="8.0189298"><ele>252.33333333333331</ele><time>2026-03-29T09:32:50.185Z</time></trkpt><trkpt lat="44.7295042" lon="8.0187135"><ele>252.0</ele><time>2026-03-29T09:32:51.183Z</time></trkpt><trkpt lat="44.7294377" lon="8.0185075"><ele>248.33333333333331</ele><time>2026-03-29T09:32:52.185Z</time></trkpt><trkpt lat="44.7293667" lon="8.0183012"><ele>244.66666666666666</ele><time>2026-03-29T09:32:53.183Z</time></trkpt><trkpt lat="44.7292895" lon="8.0180842"><ele>241.0</ele><time>2026-03-29T09:32:54.183Z</time></trkpt><trkpt lat="44.7292055" lon="8.017848"><ele>241.0</ele><time>2026-03-29T09:32:55.183Z</time></trkpt><trkpt lat="44.7291168" lon="8.0175977"><ele>241.0</ele><time>2026-03-29T09:32:56.185Z</time></trkpt><trkpt lat="44.7290323" lon="8.017366"><ele>241.0</ele><time>2026-03-29T09:32:57.183Z</time></trkpt><trkpt lat="44.7289468" lon="8.0171525"><ele>242.0</ele><time>2026-03-29T09:32:58.183Z</time></trkpt><trkpt lat="44.7288482" lon="8.0169503"><ele>243.0</ele><time>2026-03-29T09:32:59.184Z</time></trkpt><trkpt lat="44.728731" lon="8.0167632"><ele>244.0</ele><time>2026-03-29T09:33:00.183Z</time></trkpt><trkpt lat="44.7285932" lon="8.0165955"><ele>241.33333333333331</ele><time>2026-03-29T09:33:01.185Z</time></trkpt><trkpt lat="44.7284483" lon="8.0164543"><ele>238.66666666666669</ele><time>2026-03-29T09:33:02.185Z</time></trkpt><trkpt lat="44.7283073" lon="8.0163393"><ele>236.0</ele><time>2026-03-29T09:33:03.186Z</time></trkpt><trkpt lat="44.7281723" lon="8.0162377"><ele>236.0</ele><time>2026-03-29T09:33:04.187Z</time></trkpt><trkpt lat="44.728052" lon="8.0161355"><ele>236.0</ele><time>2026-03-29T09:33:05.183Z</time></trkpt><trkpt lat="44.727946" lon="8.0160187"><ele>236.0</ele><time>2026-03-29T09:33:06.183Z</time></trkpt><trkpt lat="44.7278627" lon="8.015898"><ele>236.0</ele><time>2026-03-29T09:33:07.183Z</time></trkpt><trkpt lat="44.7277995" lon="8.0157912"><ele>235.4</ele><time>2026-03-29T09:33:08.182Z</time></trkpt><trkpt lat="44.7277377" lon="8.0157038"><ele>234.8</ele><time>2026-03-29T09:33:09.182Z</time></trkpt><trkpt lat="44.7276658" lon="8.0156438"><ele>234.20000000000002</ele><time>2026-03-29T09:33:10.181Z</time></trkpt><trkpt lat="44.7275688" lon="8.0156003"><ele>233.60000000000002</ele><time>2026-03-29T09:33:11.179Z</time></trkpt><trkpt lat="44.7274542" lon="8.0155442"><ele>233.0</ele><time>2026-03-29T09:33:12.183Z</time></trkpt><trkpt lat="44.7273267" lon="8.0154748"><ele>233.0</ele><time>2026-03-29T09:33:13.181Z</time></trkpt><trkpt lat="44.7271865" lon="8.015415"><ele>233.0</ele><time>2026-03-29T09:33:14.18Z</time></trkpt><trkpt lat="44.72703" lon="8.0153595"><ele>233.0</ele><time>2026-03-29T09:33:15.182Z</time></trkpt><trkpt lat="44.7268627" lon="8.0153073"><ele>233.0</ele><time>2026-03-29T09:33:16.186Z</time></trkpt><trkpt lat="44.7266885" lon="8.0152607"><ele>233.0</ele><time>2026-03-29T09:33:17.183Z</time></trkpt><trkpt lat="44.7265132" lon="8.0152122"><ele>233.0</ele><time>2026-03-29T09:33:18.182Z</time></trkpt><trkpt lat="44.7263258" lon="8.015163"><ele>233.0</ele><time>2026-03-29T09:33:19.185Z</time></trkpt><trkpt lat="44.7261537" lon="8.0151158"><ele>233.0</ele><time>2026-03-29T09:33:20.182Z</time></trkpt><trkpt lat="44.725994" lon="8.0150705"><ele>233.0</ele><time>2026-03-29T09:33:21.182Z</time></trkpt><trkpt lat="44.725847" lon="8.0150117"><ele>228.0</ele><time>2026-03-29T09:33:22.182Z</time></trkpt><trkpt lat="44.7257065" lon="8.0149135"><ele>223.0</ele><time>2026-03-29T09:33:23.181Z</time></trkpt><trkpt lat="44.7255658" lon="8.0147738"><ele>218.0</ele><time>2026-03-29T09:33:24.183Z</time></trkpt><trkpt lat="44.725423" lon="8.0146062"><ele>218.0</ele><time>2026-03-29T09:33:25.184Z</time></trkpt><trkpt lat="44.7252743" lon="8.014422"><ele>218.0</ele><time>2026-03-29T09:33:26.184Z</time></trkpt><trkpt lat="44.7251205" lon="8.0142322"><ele>218.0</ele><time>2026-03-29T09:33:27.185Z</time></trkpt><trkpt lat="44.7249728" lon="8.0140475"><ele>214.66666666666669</ele><time>2026-03-29T09:33:28.182Z</time></trkpt><trkpt lat="44.7248308" lon="8.0138738"><ele>211.33333333333331</ele><time>2026-03-29T09:33:29.181Z</time></trkpt><trkpt lat="44.7246938" lon="8.0137092"><ele>208.0</ele><time>2026-03-29T09:33:30.182Z</time></trkpt><trkpt lat="44.7245638" lon="8.0135515"><ele>208.0</ele><time>2026-03-29T09:33:31.182Z</time></trkpt><trkpt lat="44.7244367" lon="8.0133935"><ele>208.0</ele><time>2026-03-29T09:33:32.181Z</time></trkpt><trkpt lat="44.7243045" lon="8.0132252"><ele>208.0</ele><time>2026-03-29T09:33:33.183Z</time></trkpt><trkpt lat="44.7241698" lon="8.0130672"><ele>206.0</ele><time>2026-03-29T09:33:34.182Z</time></trkpt><trkpt lat="44.7240257" lon="8.0129342"><ele>204.0</ele><time>2026-03-29T09:33:35.18Z</time></trkpt><trkpt lat="44.723856" lon="8.0128298"><ele>202.0</ele><time>2026-03-29T09:33:36.184Z</time></trkpt><trkpt lat="44.7236568" lon="8.012736"><ele>201.0</ele><time>2026-03-29T09:33:37.182Z</time></trkpt><trkpt lat="44.7234485" lon="8.012645"><ele>200.0</ele><time>2026-03-29T09:33:38.182Z</time></trkpt><trkpt lat="44.7232568" lon="8.0125605"><ele>199.0</ele><time>2026-03-29T09:33:39.185Z</time></trkpt><trkpt lat="44.723085" lon="8.0124843"><ele>196.75</ele><time>2026-03-29T09:33:40.187Z</time></trkpt><trkpt lat="44.7229315" lon="8.0124163"><ele>194.5</ele><time>2026-03-29T09:33:41.186Z</time></trkpt><trkpt lat="44.7227902" lon="8.0123605"><ele>192.25</ele><time>2026-03-29T09:33:42.185Z</time></trkpt><trkpt lat="44.7226522" lon="8.0123352"><ele>190.0</ele><time>2026-03-29T09:33:43.186Z</time></trkpt><trkpt lat="44.722521" lon="8.0123582"><ele>189.25</ele><time>2026-03-29T09:33:44.186Z</time></trkpt><trkpt lat="44.7224043" lon="8.0124385"><ele>188.5</ele><time>2026-03-29T09:33:45.185Z</time></trkpt><trkpt lat="44.7222977" lon="8.0125777"><ele>187.75</ele><time>2026-03-29T09:33:46.185Z</time></trkpt><trkpt lat="44.7221933" lon="8.0127577"><ele>187.0</ele><time>2026-03-29T09:33:47.185Z</time></trkpt><trkpt lat="44.7220947" lon="8.0129358"><ele>186.5</ele><time>2026-03-29T09:33:48.185Z</time></trkpt><trkpt lat="44.7220097" lon="8.0130863"><ele>186.0</ele><time>2026-03-29T09:33:49.183Z</time></trkpt><trkpt lat="44.7219328" lon="8.0132037"><ele>185.5</ele><time>2026-03-29T09:33:50.186Z</time></trkpt><trkpt lat="44.721852" lon="8.0132892"><ele>185.0</ele><time>2026-03-29T09:33:51.181Z</time></trkpt><trkpt lat="44.7217543" lon="8.0133412"><ele>185.0</ele><time>2026-03-29T09:33:52.182Z</time></trkpt><trkpt lat="44.7216405" lon="8.013352"><ele>185.0</ele><time>2026-03-29T09:33:53.182Z</time></trkpt><trkpt lat="44.7215142" lon="8.0133288"><ele>185.0</ele><time>2026-03-29T09:33:54.183Z</time></trkpt><trkpt lat="44.7213597" lon="8.0132863"><ele>185.0</ele><time>2026-03-29T09:33:55.183Z</time></trkpt><trkpt lat="44.7211865" lon="8.0132215"><ele>183.66666666666666</ele><time>2026-03-29T09:33:56.18Z</time></trkpt><trkpt lat="44.7210033" lon="8.0131387"><ele>182.33333333333334</ele><time>2026-03-29T09:33:57.184Z</time></trkpt><trkpt lat="44.720829" lon="8.0130645"><ele>181.0</ele><time>2026-03-29T09:33:58.183Z</time></trkpt><trkpt lat="44.720663" lon="8.0130012"><ele>181.0</ele><time>2026-03-29T09:33:59.181Z</time></trkpt><trkpt lat="44.7205057" lon="8.0129422"><ele>181.0</ele><time>2026-03-29T09:34:00.181Z</time></trkpt><trkpt lat="44.7203528" lon="8.012886"><ele>181.0</ele><time>2026-03-29T09:34:01.179Z</time></trkpt><trkpt lat="44.7202012" lon="8.0128332"><ele>178.66666666666669</ele><time>2026-03-29T09:34:02.181Z</time></trkpt><trkpt lat="44.720048" lon="8.0127782"><ele>176.33333333333334</ele><time>2026-03-29T09:34:03.183Z</time></trkpt><trkpt lat="44.7198947" lon="8.0127182"><ele>174.0</ele><time>2026-03-29T09:34:04.183Z</time></trkpt><trkpt lat="44.7197418" lon="8.012658"><ele>174.0</ele><time>2026-03-29T09:34:05.181Z</time></trkpt><trkpt lat="44.7195958" lon="8.01261"><ele>174.0</ele><time>2026-03-29T09:34:06.181Z</time></trkpt><trkpt lat="44.7194567" lon="8.0125887"><ele>174.0</ele><time>2026-03-29T09:34:07.181Z</time></trkpt><trkpt lat="44.7193315" lon="8.0126027"><ele>174.0</ele><time>2026-03-29T09:34:08.181Z</time></trkpt><trkpt lat="44.7192263" lon="8.012634"><ele>174.0</ele><time>2026-03-29T09:34:09.183Z</time></trkpt><trkpt lat="44.7191413" lon="8.0126583"><ele>174.0</ele><time>2026-03-29T09:34:10.183Z</time></trkpt><trkpt lat="44.7190622" lon="8.0126603"><ele>174.0</ele><time>2026-03-29T09:34:11.182Z</time></trkpt><trkpt lat="44.7189757" lon="8.0126368"><ele>174.0</ele><time>2026-03-29T09:34:12.183Z</time></trkpt><trkpt lat="44.7188782" lon="8.0125935"><ele>174.0</ele><time>2026-03-29T09:34:13.185Z</time></trkpt><trkpt lat="44.718771" lon="8.0125243"><ele>173.5</ele><time>2026-03-29T09:34:14.182Z</time></trkpt><trkpt lat="44.7186615" lon="8.0124265"><ele>173.0</ele><time>2026-03-29T09:34:15.18Z</time></trkpt><trkpt lat="44.7185485" lon="8.012307"><ele>172.5</ele><time>2026-03-29T09:34:16.181Z</time></trkpt><trkpt lat="44.7184413" lon="8.0121712"><ele>172.0</ele><time>2026-03-29T09:34:17.181Z</time></trkpt><trkpt lat="44.7183335" lon="8.0120232"><ele>172.0</ele><time>2026-03-29T09:34:18.183Z</time></trkpt><trkpt lat="44.7182332" lon="8.011854"><ele>172.0</ele><time>2026-03-29T09:34:19.183Z</time></trkpt><trkpt lat="44.71815" lon="8.0116665"><ele>172.0</ele><time>2026-03-29T09:34:20.183Z</time></trkpt><trkpt lat="44.7180825" lon="8.0114897"><ele>172.0</ele><time>2026-03-29T09:34:21.184Z</time></trkpt><trkpt lat="44.7180235" lon="8.0113265"><ele>172.0</ele><time>2026-03-29T09:34:22.185Z</time></trkpt><trkpt lat="44.7179707" lon="8.011177"><ele>172.0</ele><time>2026-03-29T09:34:23.183Z</time></trkpt><trkpt lat="44.7179223" lon="8.0110387"><ele>172.0</ele><time>2026-03-29T09:34:24.18Z</time></trkpt><trkpt lat="44.717881" lon="8.0109178"><ele>172.0</ele><time>2026-03-29T09:34:25.182Z</time></trkpt><trkpt lat="44.717849" lon="8.0108135"><ele>172.0</ele><time>2026-03-29T09:34:26.18Z</time></trkpt><trkpt lat="44.7178292" lon="8.0107142"><ele>172.0</ele><time>2026-03-29T09:34:27.181Z</time></trkpt><trkpt lat="44.7178213" lon="8.0106213"><ele>172.0</ele><time>2026-03-29T09:34:28.182Z</time></trkpt><trkpt lat="44.7177998" lon="8.0104577"><ele>172.0</ele><time>2026-03-29T09:34:30.183Z</time></trkpt><trkpt lat="44.7177272" lon="8.0103553"><ele>172.0</ele><time>2026-03-29T09:34:32.183Z</time></trkpt><trkpt lat="44.7176065" lon="8.0103737"><ele>172.0</ele><time>2026-03-29T09:34:34.182Z</time></trkpt><trkpt lat="44.7175417" lon="8.010432"><ele>172.0</ele><time>2026-03-29T09:34:35.181Z</time></trkpt><trkpt lat="44.7174763" lon="8.0105132"><ele>172.0</ele><time>2026-03-29T09:34:36.182Z</time></trkpt><trkpt lat="44.717412" lon="8.010602"><ele>172.0</ele><time>2026-03-29T09:34:37.183Z</time></trkpt><trkpt lat="44.7173433" lon="8.010695"><ele>172.0</ele><time>2026-03-29T09:34:38.182Z</time></trkpt><trkpt lat="44.7172685" lon="8.0107968"><ele>171.75</ele><time>2026-03-29T09:34:39.182Z</time></trkpt><trkpt lat="44.7171895" lon="8.010905"><ele>171.5</ele><time>2026-03-29T09:34:40.185Z</time></trkpt><trkpt lat="44.7171095" lon="8.0110163"><ele>171.25</ele><time>2026-03-29T09:34:41.184Z</time></trkpt><trkpt lat="44.7170295" lon="8.0111283"><ele>171.0</ele><time>2026-03-29T09:34:42.185Z</time></trkpt><trkpt lat="44.7169492" lon="8.011243"><ele>170.75</ele><time>2026-03-29T09:34:43.185Z</time></trkpt><trkpt lat="44.7168698" lon="8.0113595"><ele>170.5</ele><time>2026-03-29T09:34:44.184Z</time></trkpt><trkpt lat="44.7167875" lon="8.0114753"><ele>170.25</ele><time>2026-03-29T09:34:45.18Z</time></trkpt><trkpt lat="44.7167032" lon="8.0115938"><ele>170.0</ele><time>2026-03-29T09:34:46.181Z</time></trkpt><trkpt lat="44.7166197" lon="8.0117143"><ele>170.0</ele><time>2026-03-29T09:34:47.18Z</time></trkpt><trkpt lat="44.7165295" lon="8.0118443"><ele>170.0</ele><time>2026-03-29T09:34:48.177Z</time></trkpt><trkpt lat="44.7164395" lon="8.0119765"><ele>170.0</ele><time>2026-03-29T09:34:49.178Z</time></trkpt><trkpt lat="44.7163552" lon="8.0121005"><ele>170.0</ele><time>2026-03-29T09:34:50.178Z</time></trkpt><trkpt lat="44.716272" lon="8.0122203"><ele>170.0</ele><time>2026-03-29T09:34:51.179Z</time></trkpt><trkpt lat="44.7161902" lon="8.0123372"><ele>170.0</ele><time>2026-03-29T09:34:52.181Z</time></trkpt><trkpt lat="44.71611" lon="8.0124527"><ele>170.0</ele><time>2026-03-29T09:34:53.179Z</time></trkpt><trkpt lat="44.716031" lon="8.0125645"><ele>170.0</ele><time>2026-03-29T09:34:54.18Z</time></trkpt><trkpt lat="44.7159533" lon="8.0126787"><ele>170.0</ele><time>2026-03-29T09:34:55.181Z</time></trkpt><trkpt lat="44.715876" lon="8.0127892"><ele>170.0</ele><time>2026-03-29T09:34:56.183Z</time></trkpt><trkpt lat="44.7158" lon="8.0128967"><ele>170.0</ele><time>2026-03-29T09:34:57.182Z</time></trkpt><trkpt lat="44.7157223" lon="8.0130005"><ele>170.0</ele><time>2026-03-29T09:34:58.184Z</time></trkpt><trkpt lat="44.715642" lon="8.0130975"><ele>170.0</ele><time>2026-03-29T09:34:59.182Z</time></trkpt><trkpt lat="44.715558" lon="8.0131877"><ele>170.0</ele><time>2026-03-29T09:35:00.183Z</time></trkpt><trkpt lat="44.7154675" lon="8.0132738"><ele>170.0</ele><time>2026-03-29T09:35:01.185Z</time></trkpt><trkpt lat="44.715377" lon="8.0133508"><ele>170.0</ele><time>2026-03-29T09:35:02.185Z</time></trkpt><trkpt lat="44.7152893" lon="8.013417"><ele>170.0</ele><time>2026-03-29T09:35:03.183Z</time></trkpt><trkpt lat="44.7152035" lon="8.0134717"><ele>170.0</ele><time>2026-03-29T09:35:04.183Z</time></trkpt><trkpt lat="44.7151185" lon="8.0135125"><ele>170.0</ele><time>2026-03-29T09:35:05.181Z</time></trkpt><trkpt lat="44.7150268" lon="8.0135472"><ele>170.0</ele><time>2026-03-29T09:35:06.181Z</time></trkpt><trkpt lat="44.714918" lon="8.0135967"><ele>170.0</ele><time>2026-03-29T09:35:07.183Z</time></trkpt><trkpt lat="44.7147907" lon="8.0136538"><ele>170.0</ele><time>2026-03-29T09:35:08.182Z</time></trkpt><trkpt lat="44.7146485" lon="8.0136888"><ele>170.0</ele><time>2026-03-29T09:35:09.182Z</time></trkpt><trkpt lat="44.7144792" lon="8.0137047"><ele>170.0</ele><time>2026-03-29T09:35:10.181Z</time></trkpt><trkpt lat="44.7142982" lon="8.0136977"><ele>170.0</ele><time>2026-03-29T09:35:11.185Z</time></trkpt><trkpt lat="44.7141088" lon="8.0136677"><ele>170.0</ele><time>2026-03-29T09:35:12.182Z</time></trkpt><trkpt lat="44.7139078" lon="8.0136168"><ele>170.0</ele><time>2026-03-29T09:35:13.181Z</time></trkpt><trkpt lat="44.7137048" lon="8.0135533"><ele>170.0</ele><time>2026-03-29T09:35:14.18Z</time></trkpt><trkpt lat="44.7135013" lon="8.013483"><ele>169.33333333333331</ele><time>2026-03-29T09:35:15.18Z</time></trkpt><trkpt lat="44.713293" lon="8.0134087"><ele>168.66666666666666</ele><time>2026-03-29T09:35:16.181Z</time></trkpt><trkpt lat="44.713089" lon="8.0133335"><ele>168.0</ele><time>2026-03-29T09:35:17.182Z</time></trkpt><trkpt lat="44.7128917" lon="8.0132618"><ele>168.33333333333334</ele><time>2026-03-29T09:35:18.183Z</time></trkpt><trkpt lat="44.7127" lon="8.0131943"><ele>168.66666666666669</ele><time>2026-03-29T09:35:19.183Z</time></trkpt><trkpt lat="44.7125138" lon="8.0131293"><ele>169.0</ele><time>2026-03-29T09:35:20.184Z</time></trkpt><trkpt lat="44.7123315" lon="8.0130655"><ele>169.0</ele><time>2026-03-29T09:35:21.183Z</time></trkpt><trkpt lat="44.7121512" lon="8.0129995"><ele>169.0</ele><time>2026-03-29T09:35:22.183Z</time></trkpt><trkpt lat="44.7119705" lon="8.0129287"><ele>169.0</ele><time>2026-03-29T09:35:23.182Z</time></trkpt><trkpt lat="44.711791" lon="8.0128412"><ele>168.66666666666669</ele><time>2026-03-29T09:35:24.182Z</time></trkpt><trkpt lat="44.7116178" lon="8.0127248"><ele>168.33333333333334</ele><time>2026-03-29T09:35:25.183Z</time></trkpt><trkpt lat="44.711448" lon="8.0125708"><ele>168.0</ele><time>2026-03-29T09:35:26.182Z</time></trkpt><trkpt lat="44.7112885" lon="8.0123845"><ele>167.66666666666666</ele><time>2026-03-29T09:35:27.181Z</time></trkpt><trkpt lat="44.711147" lon="8.0121707"><ele>167.33333333333331</ele><time>2026-03-29T09:35:28.184Z</time></trkpt><trkpt lat="44.7110252" lon="8.0119302"><ele>167.0</ele><time>2026-03-29T09:35:29.182Z</time></trkpt><trkpt lat="44.710919" lon="8.011664"><ele>167.0</ele><time>2026-03-29T09:35:30.183Z</time></trkpt><trkpt lat="44.7108248" lon="8.0113778"><ele>167.0</ele><time>2026-03-29T09:35:31.182Z</time></trkpt><trkpt lat="44.7107375" lon="8.0110838"><ele>166.66666666666666</ele><time>2026-03-29T09:35:32.183Z</time></trkpt><trkpt lat="44.7106568" lon="8.0108042"><ele>166.33333333333334</ele><time>2026-03-29T09:35:33.183Z</time></trkpt><trkpt lat="44.7105803" lon="8.0105433"><ele>166.0</ele><time>2026-03-29T09:35:34.183Z</time></trkpt><trkpt lat="44.7105042" lon="8.0103025"><ele>166.0</ele><time>2026-03-29T09:35:35.185Z</time></trkpt><trkpt lat="44.710426" lon="8.0100708"><ele>166.0</ele><time>2026-03-29T09:35:36.185Z</time></trkpt><trkpt lat="44.710343" lon="8.0098268"><ele>166.0</ele><time>2026-03-29T09:35:37.181Z</time></trkpt><trkpt lat="44.7102557" lon="8.0095673"><ele>165.66666666666669</ele><time>2026-03-29T09:35:38.182Z</time></trkpt><trkpt lat="44.7101668" lon="8.0092928"><ele>165.33333333333334</ele><time>2026-03-29T09:35:39.18Z</time></trkpt><trkpt lat="44.7100788" lon="8.0090028"><ele>165.0</ele><time>2026-03-29T09:35:40.181Z</time></trkpt><trkpt lat="44.70999" lon="8.0086995"><ele>165.0</ele><time>2026-03-29T09:35:41.182Z</time></trkpt><trkpt lat="44.7098998" lon="8.0083873"><ele>165.0</ele><time>2026-03-29T09:35:42.182Z</time></trkpt><trkpt lat="44.7098085" lon="8.0080703"><ele>166.5</ele><time>2026-03-29T09:35:43.185Z</time></trkpt><trkpt lat="44.7097163" lon="8.0077503"><ele>168.0</ele><time>2026-03-29T09:35:44.184Z</time></trkpt><trkpt lat="44.709624" lon="8.0074297"><ele>168.5</ele><time>2026-03-29T09:35:45.182Z</time></trkpt><trkpt lat="44.7095325" lon="8.0071117"><ele>169.0</ele><time>2026-03-29T09:35:46.185Z</time></trkpt><trkpt lat="44.7094427" lon="8.006798"><ele>168.0</ele><time>2026-03-29T09:35:47.182Z</time></trkpt><trkpt lat="44.7093577" lon="8.0064952"><ele>167.0</ele><time>2026-03-29T09:35:48.185Z</time></trkpt><trkpt lat="44.7092768" lon="8.006203"><ele>167.0</ele><time>2026-03-29T09:35:49.185Z</time></trkpt><trkpt lat="44.7091995" lon="8.0059122"><ele>167.0</ele><time>2026-03-29T09:35:50.183Z</time></trkpt><trkpt lat="44.7091318" lon="8.0056227"><ele>167.0</ele><time>2026-03-29T09:35:51.184Z</time></trkpt><trkpt lat="44.7090795" lon="8.0053427"><ele>167.66666666666666</ele><time>2026-03-29T09:35:52.184Z</time></trkpt><trkpt lat="44.7090423" lon="8.0050772"><ele>168.33333333333334</ele><time>2026-03-29T09:35:53.182Z</time></trkpt><trkpt lat="44.709015" lon="8.0048265"><ele>169.0</ele><time>2026-03-29T09:35:54.182Z</time></trkpt><trkpt lat="44.7089927" lon="8.004587"><ele>169.0</ele><time>2026-03-29T09:35:55.181Z</time></trkpt><trkpt lat="44.7089742" lon="8.004357"><ele>169.0</ele><time>2026-03-29T09:35:56.182Z</time></trkpt><trkpt lat="44.7089575" lon="8.0041207"><ele>169.0</ele><time>2026-03-29T09:35:57.182Z</time></trkpt><trkpt lat="44.7089427" lon="8.0038655"><ele>169.33333333333334</ele><time>2026-03-29T09:35:58.183Z</time></trkpt><trkpt lat="44.708931" lon="8.0036037"><ele>169.66666666666666</ele><time>2026-03-29T09:35:59.185Z</time></trkpt><trkpt lat="44.7089205" lon="8.0033573"><ele>170.0</ele><time>2026-03-29T09:36:00.183Z</time></trkpt><trkpt lat="44.7089073" lon="8.0031257"><ele>170.33333333333331</ele><time>2026-03-29T09:36:01.183Z</time></trkpt><trkpt lat="44.7088898" lon="8.0028927"><ele>170.66666666666666</ele><time>2026-03-29T09:36:02.18Z</time></trkpt><trkpt lat="44.7088617" lon="8.0026683"><ele>171.0</ele><time>2026-03-29T09:36:03.181Z</time></trkpt><trkpt lat="44.7088207" lon="8.0024412"><ele>171.0</ele><time>2026-03-29T09:36:04.181Z</time></trkpt><trkpt lat="44.7087672" lon="8.002214"><ele>171.0</ele><time>2026-03-29T09:36:05.183Z</time></trkpt><trkpt lat="44.708705" lon="8.0019843"><ele>171.0</ele><time>2026-03-29T09:36:06.182Z</time></trkpt><trkpt lat="44.7086372" lon="8.0017512"><ele>170.33333333333334</ele><time>2026-03-29T09:36:07.181Z</time></trkpt><trkpt lat="44.7085658" lon="8.0015098"><ele>169.66666666666669</ele><time>2026-03-29T09:36:08.179Z</time></trkpt><trkpt lat="44.7084918" lon="8.0012605"><ele>169.0</ele><time>2026-03-29T09:36:09.182Z</time></trkpt><trkpt lat="44.708417" lon="8.0010047"><ele>170.0</ele><time>2026-03-29T09:36:10.182Z</time></trkpt><trkpt lat="44.7083413" lon="8.0007463"><ele>171.0</ele><time>2026-03-29T09:36:11.183Z</time></trkpt><trkpt lat="44.7082675" lon="8.0004955"><ele>172.0</ele><time>2026-03-29T09:36:12.182Z</time></trkpt><trkpt lat="44.7081932" lon="8.0002447"><ele>172.0</ele><time>2026-03-29T09:36:13.185Z</time></trkpt><trkpt lat="44.7081185" lon="7.9999942"><ele>172.0</ele><time>2026-03-29T09:36:14.185Z</time></trkpt><trkpt lat="44.7080443" lon="7.9997485"><ele>172.0</ele><time>2026-03-29T09:36:15.185Z</time></trkpt><trkpt lat="44.7079733" lon="7.99951"><ele>172.0</ele><time>2026-03-29T09:36:16.183Z</time></trkpt><trkpt lat="44.7079043" lon="7.9992792"><ele>172.0</ele><time>2026-03-29T09:36:17.185Z</time></trkpt><trkpt lat="44.707837" lon="7.9990578"><ele>172.0</ele><time>2026-03-29T09:36:18.182Z</time></trkpt><trkpt lat="44.7077687" lon="7.9988412"><ele>171.66666666666669</ele><time>2026-03-29T09:36:19.18Z</time></trkpt><trkpt lat="44.7076927" lon="7.9986097"><ele>171.33333333333334</ele><time>2026-03-29T09:36:20.181Z</time></trkpt><trkpt lat="44.7076128" lon="7.9983552"><ele>171.0</ele><time>2026-03-29T09:36:21.18Z</time></trkpt><trkpt lat="44.707537" lon="7.9980893"><ele>171.0</ele><time>2026-03-29T09:36:22.181Z</time></trkpt><trkpt lat="44.7074643" lon="7.9978217"><ele>171.0</ele><time>2026-03-29T09:36:23.182Z</time></trkpt><trkpt lat="44.7073915" lon="7.997555"><ele>171.0</ele><time>2026-03-29T09:36:24.182Z</time></trkpt><trkpt lat="44.7073137" lon="7.9972735"><ele>170.0</ele><time>2026-03-29T09:36:25.182Z</time></trkpt><trkpt lat="44.7072323" lon="7.9969773"><ele>169.0</ele><time>2026-03-29T09:36:26.182Z</time></trkpt><trkpt lat="44.7071482" lon="7.9966712"><ele>168.5</ele><time>2026-03-29T09:36:27.181Z</time></trkpt><trkpt lat="44.707063" lon="7.9963582"><ele>168.0</ele><time>2026-03-29T09:36:28.18Z</time></trkpt><trkpt lat="44.7069805" lon="7.9960418"><ele>169.33333333333334</ele><time>2026-03-29T09:36:29.181Z</time></trkpt><trkpt lat="44.7069025" lon="7.9957372"><ele>170.66666666666669</ele><time>2026-03-29T09:36:30.184Z</time></trkpt><trkpt lat="44.7068312" lon="7.9954528"><ele>172.0</ele><time>2026-03-29T09:36:31.182Z</time></trkpt><trkpt lat="44.7067663" lon="7.9951872"><ele>172.0</ele><time>2026-03-29T09:36:32.183Z</time></trkpt><trkpt lat="44.7067092" lon="7.994936"><ele>172.0</ele><time>2026-03-29T09:36:33.183Z</time></trkpt><trkpt lat="44.7066523" lon="7.9946877"><ele>172.0</ele><time>2026-03-29T09:36:34.183Z</time></trkpt><trkpt lat="44.7065938" lon="7.9944395"><ele>172.0</ele><time>2026-03-29T09:36:35.181Z</time></trkpt><trkpt lat="44.7065388" lon="7.9942028"><ele>172.0</ele><time>2026-03-29T09:36:36.182Z</time></trkpt><trkpt lat="44.7064885" lon="7.9939825"><ele>172.0</ele><time>2026-03-29T09:36:37.182Z</time></trkpt><trkpt lat="44.7064417" lon="7.9937747"><ele>171.75</ele><time>2026-03-29T09:36:38.181Z</time></trkpt><trkpt lat="44.7063948" lon="7.993573"><ele>171.5</ele><time>2026-03-29T09:36:39.182Z</time></trkpt><trkpt lat="44.7063502" lon="7.9933772"><ele>171.25</ele><time>2026-03-29T09:36:40.184Z</time></trkpt><trkpt lat="44.7063062" lon="7.9931828"><ele>171.0</ele><time>2026-03-29T09:36:41.182Z</time></trkpt><trkpt lat="44.7062618" lon="7.992989"><ele>171.0</ele><time>2026-03-29T09:36:42.182Z</time></trkpt><trkpt lat="44.7062173" lon="7.9927957"><ele>171.0</ele><time>2026-03-29T09:36:43.182Z</time></trkpt><trkpt lat="44.7061725" lon="7.992603"><ele>171.0</ele><time>2026-03-29T09:36:44.171Z</time></trkpt><trkpt lat="44.706126" lon="7.9924095"><ele>171.0</ele><time>2026-03-29T09:36:45.183Z</time></trkpt><trkpt lat="44.706079" lon="7.9922142"><ele>171.0</ele><time>2026-03-29T09:36:46.183Z</time></trkpt><trkpt lat="44.706033" lon="7.992016"><ele>171.0</ele><time>2026-03-29T09:36:47.183Z</time></trkpt><trkpt lat="44.7059882" lon="7.9918193"><ele>171.0</ele><time>2026-03-29T09:36:48.185Z</time></trkpt><trkpt lat="44.705945" lon="7.991634"><ele>171.0</ele><time>2026-03-29T09:36:49.182Z</time></trkpt><trkpt lat="44.705898" lon="7.9914465"><ele>171.33333333333334</ele><time>2026-03-29T09:36:50.18Z</time></trkpt><trkpt lat="44.7058433" lon="7.9912417"><ele>171.66666666666669</ele><time>2026-03-29T09:36:51.181Z</time></trkpt><trkpt lat="44.7057857" lon="7.9910178"><ele>172.0</ele><time>2026-03-29T09:36:52.18Z</time></trkpt><trkpt lat="44.7057258" lon="7.9907688"><ele>172.33333333333334</ele><time>2026-03-29T09:36:53.179Z</time></trkpt><trkpt lat="44.7056678" lon="7.9905048"><ele>172.66666666666666</ele><time>2026-03-29T09:36:54.18Z</time></trkpt><trkpt lat="44.7056157" lon="7.9902453"><ele>173.0</ele><time>2026-03-29T09:36:55.182Z</time></trkpt><trkpt lat="44.705565" lon="7.9900048"><ele>174.33333333333331</ele><time>2026-03-29T09:36:56.182Z</time></trkpt><trkpt lat="44.7055117" lon="7.9897725"><ele>175.66666666666666</ele><time>2026-03-29T09:36:57.184Z</time></trkpt><trkpt lat="44.70546" lon="7.9895497"><ele>177.0</ele><time>2026-03-29T09:36:58.184Z</time></trkpt><trkpt lat="44.705412" lon="7.9893407"><ele>177.0</ele><time>2026-03-29T09:36:59.182Z</time></trkpt><trkpt lat="44.7053638" lon="7.9891343"><ele>177.0</ele><time>2026-03-29T09:37:00.172Z</time></trkpt><trkpt lat="44.7053107" lon="7.988924"><ele>177.0</ele><time>2026-03-29T09:37:01.184Z</time></trkpt><trkpt lat="44.7052515" lon="7.9886983"><ele>176.33333333333334</ele><time>2026-03-29T09:37:02.183Z</time></trkpt><trkpt lat="44.7051897" lon="7.9884502"><ele>175.66666666666669</ele><time>2026-03-29T09:37:03.183Z</time></trkpt><trkpt lat="44.7051285" lon="7.9881905"><ele>175.0</ele><time>2026-03-29T09:37:04.183Z</time></trkpt><trkpt lat="44.7050657" lon="7.9879195"><ele>175.0</ele><time>2026-03-29T09:37:05.185Z</time></trkpt><trkpt lat="44.705002" lon="7.9876422"><ele>175.0</ele><time>2026-03-29T09:37:06.185Z</time></trkpt><trkpt lat="44.704941" lon="7.987368"><ele>175.0</ele><time>2026-03-29T09:37:07.185Z</time></trkpt><trkpt lat="44.7048802" lon="7.9870995"><ele>175.0</ele><time>2026-03-29T09:37:08.183Z</time></trkpt><trkpt lat="44.7048205" lon="7.9868395"><ele>175.0</ele><time>2026-03-29T09:37:09.185Z</time></trkpt><trkpt lat="44.7047578" lon="7.9865677"><ele>175.0</ele><time>2026-03-29T09:37:10.183Z</time></trkpt><trkpt lat="44.7047025" lon="7.986316"><ele>174.33333333333334</ele><time>2026-03-29T09:37:11.183Z</time></trkpt><trkpt lat="44.7046548" lon="7.9860835"><ele>173.66666666666666</ele><time>2026-03-29T09:37:12.185Z</time></trkpt><trkpt lat="44.7046105" lon="7.9858712"><ele>173.0</ele><time>2026-03-29T09:37:13.183Z</time></trkpt><trkpt lat="44.7045685" lon="7.9856825"><ele>172.75</ele><time>2026-03-29T09:37:14.183Z</time></trkpt><trkpt lat="44.7045298" lon="7.9855127"><ele>172.5</ele><time>2026-03-29T09:37:15.181Z</time></trkpt><trkpt lat="44.7044938" lon="7.9853545"><ele>172.25</ele><time>2026-03-29T09:37:16.182Z</time></trkpt><trkpt lat="44.704459" lon="7.985197"><ele>172.0</ele><time>2026-03-29T09:37:17.183Z</time></trkpt><trkpt lat="44.7044258" lon="7.9850432"><ele>172.2</ele><time>2026-03-29T09:37:18.181Z</time></trkpt><trkpt lat="44.7043987" lon="7.9848992"><ele>172.39999999999998</ele><time>2026-03-29T09:37:19.185Z</time></trkpt><trkpt lat="44.7043837" lon="7.9847633"><ele>172.60000000000002</ele><time>2026-03-29T09:37:20.185Z</time></trkpt><trkpt lat="44.7043872" lon="7.9846285"><ele>172.8</ele><time>2026-03-29T09:37:21.186Z</time></trkpt><trkpt lat="44.7044125" lon="7.984486"><ele>173.0</ele><time>2026-03-29T09:37:22.187Z</time></trkpt><trkpt lat="44.704444" lon="7.9843507"><ele>173.0</ele><time>2026-03-29T09:37:23.184Z</time></trkpt><trkpt lat="44.7044538" lon="7.9842262"><ele>173.0</ele><time>2026-03-29T09:37:24.185Z</time></trkpt><trkpt lat="44.704432" lon="7.984112"><ele>173.0</ele><time>2026-03-29T09:37:25.185Z</time></trkpt><trkpt lat="44.7043787" lon="7.984015"><ele>173.0</ele><time>2026-03-29T09:37:26.184Z</time></trkpt><trkpt lat="44.7043055" lon="7.9839373"><ele>173.0</ele><time>2026-03-29T09:37:27.185Z</time></trkpt><trkpt lat="44.7042298" lon="7.983855"><ele>173.0</ele><time>2026-03-29T09:37:28.185Z</time></trkpt><trkpt lat="44.7041658" lon="7.9837527"><ele>173.25</ele><time>2026-03-29T09:37:29.186Z</time></trkpt><trkpt lat="44.7041138" lon="7.983623"><ele>173.5</ele><time>2026-03-29T09:37:30.185Z</time></trkpt><trkpt lat="44.704066" lon="7.9834555"><ele>173.75</ele><time>2026-03-29T09:37:31.185Z</time></trkpt><trkpt lat="44.7040142" lon="7.983262"><ele>174.0</ele><time>2026-03-29T09:37:32.183Z</time></trkpt><trkpt lat="44.7039617" lon="7.9830423"><ele>174.33333333333334</ele><time>2026-03-29T09:37:33.184Z</time></trkpt><trkpt lat="44.7039095" lon="7.9827983"><ele>174.66666666666669</ele><time>2026-03-29T09:37:34.186Z</time></trkpt><trkpt lat="44.7038577" lon="7.9825527"><ele>175.0</ele><time>2026-03-29T09:37:35.183Z</time></trkpt><trkpt lat="44.7038033" lon="7.9823022"><ele>175.0</ele><time>2026-03-29T09:37:36.185Z</time></trkpt><trkpt lat="44.703748" lon="7.9820507"><ele>175.0</ele><time>2026-03-29T09:37:37.184Z</time></trkpt><trkpt lat="44.7036918" lon="7.981798"><ele>175.0</ele><time>2026-03-29T09:37:38.184Z</time></trkpt><trkpt lat="44.7036343" lon="7.9815417"><ele>175.66666666666669</ele><time>2026-03-29T09:37:39.184Z</time></trkpt><trkpt lat="44.7035752" lon="7.9812843"><ele>176.33333333333334</ele><time>2026-03-29T09:37:40.182Z</time></trkpt><trkpt lat="44.70352" lon="7.9810397"><ele>177.0</ele><time>2026-03-29T09:37:41.181Z</time></trkpt><trkpt lat="44.7034658" lon="7.980799"><ele>177.0</ele><time>2026-03-29T09:37:42.182Z</time></trkpt><trkpt lat="44.7034103" lon="7.9805555"><ele>177.0</ele><time>2026-03-29T09:37:43.181Z</time></trkpt><trkpt lat="44.7033527" lon="7.9803097"><ele>177.0</ele><time>2026-03-29T09:37:44.182Z</time></trkpt><trkpt lat="44.7032945" lon="7.9800608"><ele>177.0</ele><time>2026-03-29T09:37:45.184Z</time></trkpt><trkpt lat="44.7032357" lon="7.9798077"><ele>177.0</ele><time>2026-03-29T09:37:46.182Z</time></trkpt><trkpt lat="44.7031757" lon="7.9795517"><ele>177.0</ele><time>2026-03-29T09:37:47.183Z</time></trkpt><trkpt lat="44.7031143" lon="7.979296"><ele>177.33333333333334</ele><time>2026-03-29T09:37:48.183Z</time></trkpt><trkpt lat="44.7030527" lon="7.9790402"><ele>177.66666666666669</ele><time>2026-03-29T09:37:49.184Z</time></trkpt><trkpt lat="44.7029918" lon="7.9787822"><ele>178.0</ele><time>2026-03-29T09:37:50.183Z</time></trkpt><trkpt lat="44.7029317" lon="7.9785237"><ele>178.0</ele><time>2026-03-29T09:37:51.183Z</time></trkpt><trkpt lat="44.702873" lon="7.978266"><ele>178.0</ele><time>2026-03-29T09:37:52.184Z</time></trkpt><trkpt lat="44.7028153" lon="7.9780105"><ele>178.0</ele><time>2026-03-29T09:37:53.182Z</time></trkpt><trkpt lat="44.702758" lon="7.9777572"><ele>177.66666666666669</ele><time>2026-03-29T09:37:54.182Z</time></trkpt><trkpt lat="44.7027" lon="7.9775067"><ele>177.33333333333334</ele><time>2026-03-29T09:37:55.183Z</time></trkpt><trkpt lat="44.7026415" lon="7.9772583"><ele>177.0</ele><time>2026-03-29T09:37:56.185Z</time></trkpt><trkpt lat="44.7025853" lon="7.9770132"><ele>177.0</ele><time>2026-03-29T09:37:57.184Z</time></trkpt><trkpt lat="44.702532" lon="7.9767738"><ele>177.0</ele><time>2026-03-29T09:37:58.183Z</time></trkpt><trkpt lat="44.702479" lon="7.9765413"><ele>177.0</ele><time>2026-03-29T09:37:59.183Z</time></trkpt><trkpt lat="44.7024267" lon="7.9763208"><ele>177.33333333333334</ele><time>2026-03-29T09:38:00.182Z</time></trkpt><trkpt lat="44.702375" lon="7.9761058"><ele>177.66666666666669</ele><time>2026-03-29T09:38:01.183Z</time></trkpt><trkpt lat="44.7023237" lon="7.9758878"><ele>178.0</ele><time>2026-03-29T09:38:02.182Z</time></trkpt><trkpt lat="44.7022722" lon="7.9756658"><ele>178.66666666666669</ele><time>2026-03-29T09:38:03.184Z</time></trkpt><trkpt lat="44.7022205" lon="7.9754422"><ele>179.33333333333334</ele><time>2026-03-29T09:38:04.181Z</time></trkpt><trkpt lat="44.7021675" lon="7.9752193"><ele>180.0</ele><time>2026-03-29T09:38:05.18Z</time></trkpt><trkpt lat="44.7021127" lon="7.974996"><ele>180.0</ele><time>2026-03-29T09:38:06.182Z</time></trkpt><trkpt lat="44.7020567" lon="7.9747717"><ele>180.0</ele><time>2026-03-29T09:38:07.18Z</time></trkpt><trkpt lat="44.7020023" lon="7.9745482"><ele>180.0</ele><time>2026-03-29T09:38:08.182Z</time></trkpt><trkpt lat="44.7019527" lon="7.9743313"><ele>180.0</ele><time>2026-03-29T09:38:09.184Z</time></trkpt><trkpt lat="44.7019052" lon="7.9741193"><ele>180.0</ele><time>2026-03-29T09:38:10.182Z</time></trkpt><trkpt lat="44.7018568" lon="7.9739088"><ele>180.0</ele><time>2026-03-29T09:38:11.182Z</time></trkpt><trkpt lat="44.701805" lon="7.9736903"><ele>180.0</ele><time>2026-03-29T09:38:12.183Z</time></trkpt><trkpt lat="44.7017533" lon="7.9734698"><ele>180.0</ele><time>2026-03-29T09:38:13.183Z</time></trkpt><trkpt lat="44.7017008" lon="7.9732525"><ele>180.0</ele><time>2026-03-29T09:38:14.183Z</time></trkpt><trkpt lat="44.701635" lon="7.9730128"><ele>180.0</ele><time>2026-03-29T09:38:15.184Z</time></trkpt><trkpt lat="44.7015693" lon="7.972748"><ele>180.0</ele><time>2026-03-29T09:38:16.183Z</time></trkpt><trkpt lat="44.7015138" lon="7.9724692"><ele>180.0</ele><time>2026-03-29T09:38:17.183Z</time></trkpt><trkpt lat="44.7014578" lon="7.9721913"><ele>180.0</ele><time>2026-03-29T09:38:18.183Z</time></trkpt><trkpt lat="44.701402" lon="7.9719352"><ele>180.0</ele><time>2026-03-29T09:38:19.185Z</time></trkpt><trkpt lat="44.7013473" lon="7.9716995"><ele>180.0</ele><time>2026-03-29T09:38:20.183Z</time></trkpt><trkpt lat="44.7012963" lon="7.9714862"><ele>180.0</ele><time>2026-03-29T09:38:21.185Z</time></trkpt><trkpt lat="44.7012512" lon="7.9712938"><ele>180.0</ele><time>2026-03-29T09:38:22.185Z</time></trkpt><trkpt lat="44.7012102" lon="7.9711188"><ele>180.0</ele><time>2026-03-29T09:38:23.186Z</time></trkpt><trkpt lat="44.7011735" lon="7.9709637"><ele>180.0</ele><time>2026-03-29T09:38:24.183Z</time></trkpt><trkpt lat="44.701143" lon="7.9708262"><ele>179.8</ele><time>2026-03-29T09:38:25.184Z</time></trkpt><trkpt lat="44.7011255" lon="7.9707137"><ele>179.6</ele><time>2026-03-29T09:38:26.183Z</time></trkpt><trkpt lat="44.7011235" lon="7.970624"><ele>179.39999999999998</ele><time>2026-03-29T09:38:27.184Z</time></trkpt><trkpt lat="44.7011527" lon="7.9704615"><ele>179.2</ele><time>2026-03-29T09:38:29.181Z</time></trkpt><trkpt lat="44.7011757" lon="7.9703765"><ele>179.0</ele><time>2026-03-29T09:38:30.182Z</time></trkpt><trkpt lat="44.7011673" lon="7.9702037"><ele>179.0</ele><time>2026-03-29T09:38:32.181Z</time></trkpt><trkpt lat="44.7011227" lon="7.9701178"><ele>179.0</ele><time>2026-03-29T09:38:33.183Z</time></trkpt><trkpt lat="44.7010603" lon="7.970047"><ele>179.0</ele><time>2026-03-29T09:38:34.184Z</time></trkpt><trkpt lat="44.7009983" lon="7.9699755"><ele>179.0</ele><time>2026-03-29T09:38:35.183Z</time></trkpt><trkpt lat="44.7009425" lon="7.969872"><ele>179.0</ele><time>2026-03-29T09:38:36.185Z</time></trkpt><trkpt lat="44.7008963" lon="7.9697375"><ele>179.0</ele><time>2026-03-29T09:38:37.186Z</time></trkpt><trkpt lat="44.700854" lon="7.9695783"><ele>179.66666666666666</ele><time>2026-03-29T09:38:38.184Z</time></trkpt><trkpt lat="44.700804" lon="7.9693827"><ele>180.33333333333334</ele><time>2026-03-29T09:38:39.186Z</time></trkpt><trkpt lat="44.7007533" lon="7.9691648"><ele>181.0</ele><time>2026-03-29T09:38:40.185Z</time></trkpt><trkpt lat="44.700701" lon="7.9689187"><ele>181.0</ele><time>2026-03-29T09:38:41.184Z</time></trkpt><trkpt lat="44.7006492" lon="7.9686645"><ele>181.0</ele><time>2026-03-29T09:38:42.183Z</time></trkpt><trkpt lat="44.700592" lon="7.9683952"><ele>181.0</ele><time>2026-03-29T09:38:43.184Z</time></trkpt><trkpt lat="44.7005308" lon="7.9681228"><ele>181.0</ele><time>2026-03-29T09:38:44.183Z</time></trkpt><trkpt lat="44.7004702" lon="7.9678552"><ele>181.0</ele><time>2026-03-29T09:38:45.183Z</time></trkpt><trkpt lat="44.7004112" lon="7.967595"><ele>181.0</ele><time>2026-03-29T09:38:46.184Z</time></trkpt><trkpt lat="44.700349" lon="7.9673283"><ele>181.0</ele><time>2026-03-29T09:38:47.188Z</time></trkpt><trkpt lat="44.7002852" lon="7.9670615"><ele>181.0</ele><time>2026-03-29T09:38:48.184Z</time></trkpt><trkpt lat="44.7002235" lon="7.9667998"><ele>181.0</ele><time>2026-03-29T09:38:49.184Z</time></trkpt><trkpt lat="44.7001625" lon="7.9665412"><ele>181.33333333333334</ele><time>2026-03-29T09:38:50.184Z</time></trkpt><trkpt lat="44.700101" lon="7.9662777"><ele>181.66666666666666</ele><time>2026-03-29T09:38:51.18Z</time></trkpt><trkpt lat="44.700037" lon="7.9660115"><ele>182.0</ele><time>2026-03-29T09:38:52.186Z</time></trkpt><trkpt lat="44.699972" lon="7.9657392"><ele>182.0</ele><time>2026-03-29T09:38:53.18Z</time></trkpt><trkpt lat="44.6999067" lon="7.96546"><ele>182.0</ele><time>2026-03-29T09:38:54.181Z</time></trkpt><trkpt lat="44.6998415" lon="7.9651762"><ele>182.0</ele><time>2026-03-29T09:38:55.18Z</time></trkpt><trkpt lat="44.6997767" lon="7.9648895"><ele>182.33333333333331</ele><time>2026-03-29T09:38:56.18Z</time></trkpt><trkpt lat="44.699711" lon="7.9645995"><ele>182.66666666666666</ele><time>2026-03-29T09:38:57.184Z</time></trkpt><trkpt lat="44.699643" lon="7.9643045"><ele>183.0</ele><time>2026-03-29T09:38:58.184Z</time></trkpt><trkpt lat="44.6995733" lon="7.9640048"><ele>183.0</ele><time>2026-03-29T09:38:59.184Z</time></trkpt><trkpt lat="44.6995035" lon="7.963704"><ele>183.0</ele><time>2026-03-29T09:39:00.184Z</time></trkpt><trkpt lat="44.699434" lon="7.9634035"><ele>182.33333333333334</ele><time>2026-03-29T09:39:01.186Z</time></trkpt><trkpt lat="44.6993655" lon="7.9631032"><ele>181.66666666666669</ele><time>2026-03-29T09:39:02.183Z</time></trkpt><trkpt lat="44.6992975" lon="7.9628027"><ele>181.0</ele><time>2026-03-29T09:39:03.188Z</time></trkpt><trkpt lat="44.6992278" lon="7.9625032"><ele>180.33333333333334</ele><time>2026-03-29T09:39:04.185Z</time></trkpt><trkpt lat="44.6991573" lon="7.9622033"><ele>179.66666666666666</ele><time>2026-03-29T09:39:05.184Z</time></trkpt><trkpt lat="44.6990882" lon="7.9619033"><ele>179.0</ele><time>2026-03-29T09:39:06.184Z</time></trkpt><trkpt lat="44.6990193" lon="7.9616017"><ele>178.0</ele><time>2026-03-29T09:39:07.186Z</time></trkpt><trkpt lat="44.6989502" lon="7.9612988"><ele>177.0</ele><time>2026-03-29T09:39:08.184Z</time></trkpt><trkpt lat="44.6988793" lon="7.9609947"><ele>179.0</ele><time>2026-03-29T09:39:09.183Z</time></trkpt><trkpt lat="44.6988083" lon="7.9606862"><ele>181.0</ele><time>2026-03-29T09:39:10.184Z</time></trkpt><trkpt lat="44.6987378" lon="7.9603702"><ele>181.0</ele><time>2026-03-29T09:39:11.183Z</time></trkpt><trkpt lat="44.6986698" lon="7.960046"><ele>181.0</ele><time>2026-03-29T09:39:12.183Z</time></trkpt><trkpt lat="44.6986005" lon="7.9597192"><ele>181.0</ele><time>2026-03-29T09:39:13.185Z</time></trkpt><trkpt lat="44.6985295" lon="7.9593917"><ele>181.0</ele><time>2026-03-29T09:39:14.183Z</time></trkpt><trkpt lat="44.6984545" lon="7.959066"><ele>181.0</ele><time>2026-03-29T09:39:15.184Z</time></trkpt><trkpt lat="44.6983768" lon="7.958743"><ele>181.0</ele><time>2026-03-29T09:39:16.184Z</time></trkpt><trkpt lat="44.6982968" lon="7.9584225"><ele>181.5</ele><time>2026-03-29T09:39:17.183Z</time></trkpt><trkpt lat="44.6982155" lon="7.9581045"><ele>182.0</ele><time>2026-03-29T09:39:18.182Z</time></trkpt><trkpt lat="44.6981355" lon="7.9577872"><ele>182.0</ele><time>2026-03-29T09:39:19.183Z</time></trkpt><trkpt lat="44.698057" lon="7.95747"><ele>182.0</ele><time>2026-03-29T09:39:20.181Z</time></trkpt><trkpt lat="44.6979795" lon="7.9571528"><ele>182.0</ele><time>2026-03-29T09:39:21.182Z</time></trkpt><trkpt lat="44.6979047" lon="7.9568358"><ele>182.0</ele><time>2026-03-29T09:39:22.184Z</time></trkpt><trkpt lat="44.6978315" lon="7.9565197"><ele>182.0</ele><time>2026-03-29T09:39:23.184Z</time></trkpt><trkpt lat="44.697759" lon="7.9562055"><ele>182.0</ele><time>2026-03-29T09:39:24.183Z</time></trkpt><trkpt lat="44.6976875" lon="7.9558933"><ele>181.5</ele><time>2026-03-29T09:39:25.183Z</time></trkpt><trkpt lat="44.697616" lon="7.9555827"><ele>181.0</ele><time>2026-03-29T09:39:26.183Z</time></trkpt><trkpt lat="44.6975447" lon="7.9552723"><ele>180.5</ele><time>2026-03-29T09:39:27.185Z</time></trkpt><trkpt lat="44.697474" lon="7.9549613"><ele>180.0</ele><time>2026-03-29T09:39:28.183Z</time></trkpt><trkpt lat="44.6974037" lon="7.9546508"><ele>180.0</ele><time>2026-03-29T09:39:29.183Z</time></trkpt><trkpt lat="44.6973327" lon="7.9543413"><ele>180.0</ele><time>2026-03-29T09:39:30.183Z</time></trkpt><trkpt lat="44.6972615" lon="7.9540332"><ele>180.0</ele><time>2026-03-29T09:39:31.184Z</time></trkpt><trkpt lat="44.697191" lon="7.9537268"><ele>180.0</ele><time>2026-03-29T09:39:32.183Z</time></trkpt><trkpt lat="44.6971208" lon="7.9534208"><ele>180.0</ele><time>2026-03-29T09:39:33.184Z</time></trkpt><trkpt lat="44.6970505" lon="7.9531135"><ele>180.0</ele><time>2026-03-29T09:39:34.183Z</time></trkpt><trkpt lat="44.6969795" lon="7.9528067"><ele>180.0</ele><time>2026-03-29T09:39:35.182Z</time></trkpt><trkpt lat="44.6969087" lon="7.9525012"><ele>180.0</ele><time>2026-03-29T09:39:36.183Z</time></trkpt><trkpt lat="44.6968377" lon="7.9521945"><ele>180.0</ele><time>2026-03-29T09:39:37.185Z</time></trkpt><trkpt lat="44.6967665" lon="7.9518888"><ele>180.0</ele><time>2026-03-29T09:39:38.182Z</time></trkpt><trkpt lat="44.6966957" lon="7.9515832"><ele>180.0</ele><time>2026-03-29T09:39:39.183Z</time></trkpt><trkpt lat="44.696625" lon="7.9512777"><ele>180.0</ele><time>2026-03-29T09:39:40.184Z</time></trkpt><trkpt lat="44.6965542" lon="7.9509725"><ele>180.0</ele><time>2026-03-29T09:39:41.182Z</time></trkpt><trkpt lat="44.6964833" lon="7.9506675"><ele>180.0</ele><time>2026-03-29T09:39:42.18Z</time></trkpt><trkpt lat="44.6964132" lon="7.9503628"><ele>180.0</ele><time>2026-03-29T09:39:43.18Z</time></trkpt><trkpt lat="44.696343" lon="7.9500603"><ele>180.0</ele><time>2026-03-29T09:39:44.181Z</time></trkpt><trkpt lat="44.6962738" lon="7.949764"><ele>180.0</ele><time>2026-03-29T09:39:45.181Z</time></trkpt><trkpt lat="44.6962093" lon="7.9494882"><ele>179.66666666666666</ele><time>2026-03-29T09:39:46.183Z</time></trkpt><trkpt lat="44.6961497" lon="7.9492332"><ele>179.33333333333331</ele><time>2026-03-29T09:39:47.184Z</time></trkpt><trkpt lat="44.6960922" lon="7.9489867"><ele>179.0</ele><time>2026-03-29T09:39:48.183Z</time></trkpt><trkpt lat="44.6960365" lon="7.9487405"><ele>179.0</ele><time>2026-03-29T09:39:49.185Z</time></trkpt><trkpt lat="44.6959863" lon="7.9485085"><ele>179.0</ele><time>2026-03-29T09:39:50.184Z</time></trkpt><trkpt lat="44.6959417" lon="7.9482833"><ele>179.0</ele><time>2026-03-29T09:39:51.184Z</time></trkpt><trkpt lat="44.6958975" lon="7.9480593"><ele>179.0</ele><time>2026-03-29T09:39:52.183Z</time></trkpt><trkpt lat="44.695851" lon="7.947849"><ele>179.0</ele><time>2026-03-29T09:39:53.184Z</time></trkpt><trkpt lat="44.6958052" lon="7.9476585"><ele>179.0</ele><time>2026-03-29T09:39:54.186Z</time></trkpt><trkpt lat="44.695767" lon="7.9474905"><ele>179.0</ele><time>2026-03-29T09:39:55.184Z</time></trkpt><trkpt lat="44.6957447" lon="7.9473488"><ele>179.39999999999998</ele><time>2026-03-29T09:39:56.184Z</time></trkpt><trkpt lat="44.6957495" lon="7.9472305"><ele>179.8</ele><time>2026-03-29T09:39:57.185Z</time></trkpt><trkpt lat="44.695789" lon="7.9471388"><ele>180.2</ele><time>2026-03-29T09:39:58.184Z</time></trkpt><trkpt lat="44.6958623" lon="7.9470615"><ele>180.60000000000002</ele><time>2026-03-29T09:39:59.183Z</time></trkpt><trkpt lat="44.6959655" lon="7.9469877"><ele>181.0</ele><time>2026-03-29T09:40:00.183Z</time></trkpt><trkpt lat="44.696087" lon="7.9469108"><ele>181.20000000000002</ele><time>2026-03-29T09:40:01.184Z</time></trkpt><trkpt lat="44.6961977" lon="7.946838"><ele>181.4</ele><time>2026-03-29T09:40:02.186Z</time></trkpt><trkpt lat="44.6962902" lon="7.9467718"><ele>181.6</ele><time>2026-03-29T09:40:03.183Z</time></trkpt><trkpt lat="44.6963675" lon="7.946709"><ele>181.8</ele><time>2026-03-29T09:40:04.184Z</time></trkpt><trkpt lat="44.6964268" lon="7.94664"><ele>182.0</ele><time>2026-03-29T09:40:05.183Z</time></trkpt><trkpt lat="44.6964595" lon="7.9465592"><ele>182.0</ele><time>2026-03-29T09:40:06.183Z</time></trkpt><trkpt lat="44.6964625" lon="7.9464707"><ele>182.0</ele><time>2026-03-29T09:40:07.179Z</time></trkpt><trkpt lat="44.6964357" lon="7.9463538"><ele>182.0</ele><time>2026-03-29T09:40:08.18Z</time></trkpt><trkpt lat="44.6963885" lon="7.9462085"><ele>182.0</ele><time>2026-03-29T09:40:09.18Z</time></trkpt><trkpt lat="44.6963297" lon="7.946028"><ele>182.0</ele><time>2026-03-29T09:40:10.185Z</time></trkpt><trkpt lat="44.6962717" lon="7.9458193"><ele>182.0</ele><time>2026-03-29T09:40:11.184Z</time></trkpt><trkpt lat="44.6962202" lon="7.9455792"><ele>182.0</ele><time>2026-03-29T09:40:12.183Z</time></trkpt><trkpt lat="44.6961797" lon="7.9453345"><ele>182.0</ele><time>2026-03-29T09:40:13.184Z</time></trkpt><trkpt lat="44.6961463" lon="7.9451073"><ele>182.0</ele><time>2026-03-29T09:40:14.184Z</time></trkpt><trkpt lat="44.6961185" lon="7.9448932"><ele>182.0</ele><time>2026-03-29T09:40:15.184Z</time></trkpt><trkpt lat="44.6960975" lon="7.9446913"><ele>182.0</ele><time>2026-03-29T09:40:16.184Z</time></trkpt><trkpt lat="44.6960825" lon="7.9444998"><ele>182.0</ele><time>2026-03-29T09:40:17.184Z</time></trkpt><trkpt lat="44.6960765" lon="7.9443227"><ele>182.0</ele><time>2026-03-29T09:40:18.183Z</time></trkpt><trkpt lat="44.6960837" lon="7.9441527"><ele>182.0</ele><time>2026-03-29T09:40:19.183Z</time></trkpt><trkpt lat="44.6961077" lon="7.9439983"><ele>182.0</ele><time>2026-03-29T09:40:20.183Z</time></trkpt><trkpt lat="44.6961402" lon="7.9438765"><ele>182.0</ele><time>2026-03-29T09:40:21.182Z</time></trkpt><trkpt lat="44.6961745" lon="7.943778"><ele>182.0</ele><time>2026-03-29T09:40:22.183Z</time></trkpt><trkpt lat="44.69622" lon="7.9436757"><ele>182.75</ele><time>2026-03-29T09:40:23.183Z</time></trkpt><trkpt lat="44.696285" lon="7.9435615"><ele>183.5</ele><time>2026-03-29T09:40:24.184Z</time></trkpt><trkpt lat="44.6963512" lon="7.94343"><ele>184.25</ele><time>2026-03-29T09:40:25.182Z</time></trkpt><trkpt lat="44.6964022" lon="7.9432717"><ele>185.0</ele><time>2026-03-29T09:40:26.184Z</time></trkpt><trkpt lat="44.6964377" lon="7.9430768"><ele>186.5</ele><time>2026-03-29T09:40:27.181Z</time></trkpt><trkpt lat="44.6964585" lon="7.9428725"><ele>188.0</ele><time>2026-03-29T09:40:28.182Z</time></trkpt><trkpt lat="44.6964703" lon="7.9426943"><ele>189.5</ele><time>2026-03-29T09:40:29.183Z</time></trkpt><trkpt lat="44.6964808" lon="7.9425257"><ele>191.0</ele><time>2026-03-29T09:40:30.183Z</time></trkpt><trkpt lat="44.6964952" lon="7.9423513"><ele>193.25</ele><time>2026-03-29T09:40:31.181Z</time></trkpt><trkpt lat="44.6965107" lon="7.9421702"><ele>195.5</ele><time>2026-03-29T09:40:32.18Z</time></trkpt><trkpt lat="44.6965202" lon="7.9419683"><ele>197.75</ele><time>2026-03-29T09:40:33.181Z</time></trkpt><trkpt lat="44.696528" lon="7.9417395"><ele>200.0</ele><time>2026-03-29T09:40:34.182Z</time></trkpt><trkpt lat="44.6965372" lon="7.9414835"><ele>202.0</ele><time>2026-03-29T09:40:35.183Z</time></trkpt><trkpt lat="44.6965543" lon="7.941212"><ele>204.0</ele><time>2026-03-29T09:40:36.183Z</time></trkpt><trkpt lat="44.696579" lon="7.9409697"><ele>206.0</ele><time>2026-03-29T09:40:37.183Z</time></trkpt><trkpt lat="44.6965988" lon="7.940768"><ele>206.8</ele><time>2026-03-29T09:40:38.182Z</time></trkpt><trkpt lat="44.6965928" lon="7.940601"><ele>207.60000000000002</ele><time>2026-03-29T09:40:39.183Z</time></trkpt><trkpt lat="44.6965468" lon="7.9404697"><ele>208.4</ele><time>2026-03-29T09:40:40.182Z</time></trkpt><trkpt lat="44.6964702" lon="7.9403637"><ele>209.2</ele><time>2026-03-29T09:40:41.182Z</time></trkpt><trkpt lat="44.6964055" lon="7.940276"><ele>210.0</ele><time>2026-03-29T09:40:42.182Z</time></trkpt><trkpt lat="44.6963787" lon="7.9401858"><ele>210.0</ele><time>2026-03-29T09:40:43.182Z</time></trkpt><trkpt lat="44.696401" lon="7.9401013"><ele>210.0</ele><time>2026-03-29T09:40:44.181Z</time></trkpt><trkpt lat="44.6964617" lon="7.9400477"><ele>210.0</ele><time>2026-03-29T09:40:45.179Z</time></trkpt><trkpt lat="44.6965455" lon="7.9400435"><ele>210.0</ele><time>2026-03-29T09:40:46.18Z</time></trkpt><trkpt lat="44.6966545" lon="7.9400755"><ele>210.0</ele><time>2026-03-29T09:40:47.18Z</time></trkpt><trkpt lat="44.6967598" lon="7.9400977"><ele>210.0</ele><time>2026-03-29T09:40:48.179Z</time></trkpt><trkpt lat="44.6968435" lon="7.9400672"><ele>211.33333333333334</ele><time>2026-03-29T09:40:49.179Z</time></trkpt><trkpt lat="44.6968965" lon="7.9399852"><ele>212.66666666666669</ele><time>2026-03-29T09:40:50.179Z</time></trkpt><trkpt lat="44.6969092" lon="7.9398718"><ele>214.0</ele><time>2026-03-29T09:40:51.18Z</time></trkpt><trkpt lat="44.6968745" lon="7.9397595"><ele>215.33333333333334</ele><time>2026-03-29T09:40:52.182Z</time></trkpt><trkpt lat="44.6968193" lon="7.939668"><ele>216.66666666666669</ele><time>2026-03-29T09:40:53.181Z</time></trkpt><trkpt lat="44.696839" lon="7.939522"><ele>218.0</ele><time>2026-03-29T09:40:55.18Z</time></trkpt><trkpt lat="44.6969088" lon="7.9395017"><ele>219.60000000000002</ele><time>2026-03-29T09:40:56.178Z</time></trkpt><trkpt lat="44.6970008" lon="7.9395247"><ele>221.20000000000002</ele><time>2026-03-29T09:40:57.178Z</time></trkpt><trkpt lat="44.6970887" lon="7.939527"><ele>222.8</ele><time>2026-03-29T09:40:58.178Z</time></trkpt><trkpt lat="44.6971738" lon="7.9394765"><ele>224.4</ele><time>2026-03-29T09:40:59.178Z</time></trkpt><trkpt lat="44.6972638" lon="7.9393732"><ele>226.0</ele><time>2026-03-29T09:41:00.18Z</time></trkpt><trkpt lat="44.6973568" lon="7.9392457"><ele>226.33333333333331</ele><time>2026-03-29T09:41:01.18Z</time></trkpt><trkpt lat="44.6974252" lon="7.9391255"><ele>226.66666666666666</ele><time>2026-03-29T09:41:02.18Z</time></trkpt><trkpt lat="44.6974527" lon="7.9390203"><ele>227.0</ele><time>2026-03-29T09:41:03.181Z</time></trkpt><trkpt lat="44.6974332" lon="7.9389302"><ele>227.33333333333331</ele><time>2026-03-29T09:41:04.183Z</time></trkpt><trkpt lat="44.6973747" lon="7.9388793"><ele>227.66666666666666</ele><time>2026-03-29T09:41:05.18Z</time></trkpt><trkpt lat="44.6972895" lon="7.9388863"><ele>228.0</ele><time>2026-03-29T09:41:06.18Z</time></trkpt><trkpt lat="44.6971888" lon="7.9389298"><ele>228.0</ele><time>2026-03-29T09:41:07.18Z</time></trkpt><trkpt lat="44.697103" lon="7.9389587"><ele>228.0</ele><time>2026-03-29T09:41:08.183Z</time></trkpt><trkpt lat="44.6970373" lon="7.938934"><ele>228.0</ele><time>2026-03-29T09:41:09.184Z</time></trkpt><trkpt lat="44.6970243" lon="7.9387763"><ele>228.0</ele><time>2026-03-29T09:41:11.185Z</time></trkpt><trkpt lat="44.6970893" lon="7.9387163"><ele>228.0</ele><time>2026-03-29T09:41:12.181Z</time></trkpt><trkpt lat="44.697193" lon="7.9386797"><ele>228.0</ele><time>2026-03-29T09:41:13.181Z</time></trkpt><trkpt lat="44.6973268" lon="7.9386637"><ele>228.0</ele><time>2026-03-29T09:41:14.18Z</time></trkpt><trkpt lat="44.6974782" lon="7.93866"><ele>228.0</ele><time>2026-03-29T09:41:15.182Z</time></trkpt><trkpt lat="44.697618" lon="7.9386467"><ele>228.0</ele><time>2026-03-29T09:41:16.182Z</time></trkpt><trkpt lat="44.6977575" lon="7.9385908"><ele>231.33333333333331</ele><time>2026-03-29T09:41:17.183Z</time></trkpt><trkpt lat="44.697899" lon="7.9384807"><ele>234.66666666666666</ele><time>2026-03-29T09:41:18.181Z</time></trkpt><trkpt lat="44.6980472" lon="7.9383297"><ele>238.0</ele><time>2026-03-29T09:41:19.181Z</time></trkpt><trkpt lat="44.6981827" lon="7.938185"><ele>238.0</ele><time>2026-03-29T09:41:20.18Z</time></trkpt><trkpt lat="44.6983067" lon="7.9380563"><ele>238.0</ele><time>2026-03-29T09:41:21.18Z</time></trkpt><trkpt lat="44.6984227" lon="7.9379302"><ele>238.0</ele><time>2026-03-29T09:41:22.18Z</time></trkpt><trkpt lat="44.6985267" lon="7.9377935"><ele>238.0</ele><time>2026-03-29T09:41:23.177Z</time></trkpt><trkpt lat="44.6986157" lon="7.9376428"><ele>240.75</ele><time>2026-03-29T09:41:24.18Z</time></trkpt><trkpt lat="44.6986953" lon="7.9374807"><ele>243.5</ele><time>2026-03-29T09:41:25.181Z</time></trkpt><trkpt lat="44.6987728" lon="7.9373072"><ele>246.25</ele><time>2026-03-29T09:41:26.18Z</time></trkpt><trkpt lat="44.698847" lon="7.9371293"><ele>249.0</ele><time>2026-03-29T09:41:27.181Z</time></trkpt><trkpt lat="44.6989093" lon="7.9369515"><ele>249.0</ele><time>2026-03-29T09:41:28.183Z</time></trkpt><trkpt lat="44.6989592" lon="7.9367763"><ele>249.0</ele><time>2026-03-29T09:41:29.182Z</time></trkpt><trkpt lat="44.699" lon="7.936613"><ele>249.0</ele><time>2026-03-29T09:41:30.183Z</time></trkpt><trkpt lat="44.6990365" lon="7.9364648"><ele>249.0</ele><time>2026-03-29T09:41:31.182Z</time></trkpt><trkpt lat="44.6990728" lon="7.9363153"><ele>249.6</ele><time>2026-03-29T09:41:32.18Z</time></trkpt><trkpt lat="44.6991127" lon="7.9361677"><ele>250.2</ele><time>2026-03-29T09:41:33.18Z</time></trkpt><trkpt lat="44.6991488" lon="7.9360408"><ele>250.79999999999998</ele><time>2026-03-29T09:41:34.182Z</time></trkpt><trkpt lat="44.6991818" lon="7.9359442"><ele>251.39999999999998</ele><time>2026-03-29T09:41:35.179Z</time></trkpt><trkpt lat="44.6992185" lon="7.9358273"><ele>252.0</ele><time>2026-03-29T09:41:37.181Z</time></trkpt><trkpt lat="44.6992612" lon="7.9356903"><ele>252.5</ele><time>2026-03-29T09:41:39.182Z</time></trkpt><trkpt lat="44.6992943" lon="7.9355658"><ele>253.0</ele><time>2026-03-29T09:41:40.181Z</time></trkpt><trkpt lat="44.699322" lon="7.9354172"><ele>253.5</ele><time>2026-03-29T09:41:41.182Z</time></trkpt><trkpt lat="44.6993327" lon="7.9352463"><ele>254.0</ele><time>2026-03-29T09:41:42.18Z</time></trkpt><trkpt lat="44.6993248" lon="7.935068"><ele>254.50000000000003</ele><time>2026-03-29T09:41:43.181Z</time></trkpt><trkpt lat="44.6993037" lon="7.9349173"><ele>255.0</ele><time>2026-03-29T09:41:44.18Z</time></trkpt><trkpt lat="44.6992797" lon="7.934791"><ele>255.5</ele><time>2026-03-29T09:41:45.181Z</time></trkpt><trkpt lat="44.6992547" lon="7.9346868"><ele>256.0</ele><time>2026-03-29T09:41:46.181Z</time></trkpt><trkpt lat="44.6992308" lon="7.9346033"><ele>256.5</ele><time>2026-03-29T09:41:47.18Z</time></trkpt><trkpt lat="44.699214" lon="7.934497"><ele>257.0</ele><time>2026-03-29T09:41:49.183Z</time></trkpt><trkpt lat="44.6991855" lon="7.93458"><ele>257.0</ele><time>2026-03-29T09:41:55.182Z</time></trkpt><trkpt lat="44.6992267" lon="7.9347042"><ele>257.0</ele><time>2026-03-29T09:41:56.184Z</time></trkpt><trkpt lat="44.6992662" lon="7.934856"><ele>257.0</ele><time>2026-03-29T09:41:57.183Z</time></trkpt><trkpt lat="44.6992918" lon="7.935018"><ele>257.0</ele><time>2026-03-29T09:41:58.183Z</time></trkpt><trkpt lat="44.6993037" lon="7.9351663"><ele>257.0</ele><time>2026-03-29T09:41:59.181Z</time></trkpt><trkpt lat="44.6993037" lon="7.9353028"><ele>256.5</ele><time>2026-03-29T09:42:00.181Z</time></trkpt><trkpt lat="44.6992933" lon="7.935425"><ele>256.0</ele><time>2026-03-29T09:42:01.182Z</time></trkpt><trkpt lat="44.6992703" lon="7.9355258"><ele>255.5</ele><time>2026-03-29T09:42:02.182Z</time></trkpt><trkpt lat="44.6992027" lon="7.9356403"><ele>255.0</ele><time>2026-03-29T09:42:04.181Z</time></trkpt><trkpt lat="44.6991285" lon="7.9356217"><ele>254.50000000000003</ele><time>2026-03-29T09:42:06.18Z</time></trkpt><trkpt lat="44.6990772" lon="7.9355703"><ele>254.0</ele><time>2026-03-29T09:42:07.18Z</time></trkpt><trkpt lat="44.6990027" lon="7.9355007"><ele>254.0</ele><time>2026-03-29T09:42:08.179Z</time></trkpt><trkpt lat="44.6989132" lon="7.9354112"><ele>254.0</ele><time>2026-03-29T09:42:09.181Z</time></trkpt><trkpt lat="44.6988135" lon="7.9353077"><ele>254.0</ele><time>2026-03-29T09:42:10.177Z</time></trkpt><trkpt lat="44.698718" lon="7.9352017"><ele>254.0</ele><time>2026-03-29T09:42:11.178Z</time></trkpt><trkpt lat="44.698633" lon="7.9351055"><ele>255.66666666666669</ele><time>2026-03-29T09:42:12.177Z</time></trkpt><trkpt lat="44.6985505" lon="7.935022"><ele>257.33333333333337</ele><time>2026-03-29T09:42:13.181Z</time></trkpt><trkpt lat="44.698477" lon="7.9349483"><ele>259.0</ele><time>2026-03-29T09:42:14.179Z</time></trkpt><trkpt lat="44.698415" lon="7.9348932"><ele>260.6666666666667</ele><time>2026-03-29T09:42:15.181Z</time></trkpt><trkpt lat="44.69836" lon="7.9348382"><ele>262.3333333333333</ele><time>2026-03-29T09:42:16.18Z</time></trkpt><trkpt lat="44.698317" lon="7.9347697"><ele>264.0</ele><time>2026-03-29T09:42:17.179Z</time></trkpt><trkpt lat="44.6982805" lon="7.9346582"><ele>264.0</ele><time>2026-03-29T09:42:18.182Z</time></trkpt><trkpt lat="44.6982468" lon="7.9345212"><ele>264.0</ele><time>2026-03-29T09:42:19.181Z</time></trkpt><trkpt lat="44.6982075" lon="7.9343642"><ele>264.0</ele><time>2026-03-29T09:42:20.192Z</time></trkpt><trkpt lat="44.6981397" lon="7.9341985"><ele>264.0</ele><time>2026-03-29T09:42:21.183Z</time></trkpt><trkpt lat="44.6980663" lon="7.9340355"><ele>265.25</ele><time>2026-03-29T09:42:22.179Z</time></trkpt><trkpt lat="44.6980008" lon="7.933897"><ele>266.5</ele><time>2026-03-29T09:42:23.178Z</time></trkpt><trkpt lat="44.6979275" lon="7.9337592"><ele>267.75</ele><time>2026-03-29T09:42:24.178Z</time></trkpt><trkpt lat="44.6978632" lon="7.9336042"><ele>269.0</ele><time>2026-03-29T09:42:25.179Z</time></trkpt><trkpt lat="44.6978177" lon="7.933433"><ele>268.5</ele><time>2026-03-29T09:42:26.178Z</time></trkpt><trkpt lat="44.697793" lon="7.9332492"><ele>268.0</ele><time>2026-03-29T09:42:27.181Z</time></trkpt><trkpt lat="44.6977857" lon="7.9330602"><ele>267.5</ele><time>2026-03-29T09:42:28.18Z</time></trkpt><trkpt lat="44.697779" lon="7.9328675"><ele>267.0</ele><time>2026-03-29T09:42:29.179Z</time></trkpt><trkpt lat="44.6977612" lon="7.9327037"><ele>271.8</ele><time>2026-03-29T09:42:30.181Z</time></trkpt><trkpt lat="44.6977303" lon="7.9325582"><ele>276.6</ele><time>2026-03-29T09:42:31.18Z</time></trkpt><trkpt lat="44.6976873" lon="7.9324195"><ele>281.40000000000003</ele><time>2026-03-29T09:42:32.18Z</time></trkpt><trkpt lat="44.6976265" lon="7.932292"><ele>286.2</ele><time>2026-03-29T09:42:33.177Z</time></trkpt><trkpt lat="44.697546" lon="7.9321857"><ele>291.0</ele><time>2026-03-29T09:42:34.177Z</time></trkpt><trkpt lat="44.697477" lon="7.9320958"><ele>291.25</ele><time>2026-03-29T09:42:35.177Z</time></trkpt><trkpt lat="44.6974293" lon="7.9319852"><ele>291.5</ele><time>2026-03-29T09:42:36.177Z</time></trkpt><trkpt lat="44.6974057" lon="7.9318432"><ele>291.75</ele><time>2026-03-29T09:42:37.182Z</time></trkpt><trkpt lat="44.6973958" lon="7.9316693"><ele>292.0</ele><time>2026-03-29T09:42:38.179Z</time></trkpt><trkpt lat="44.6973983" lon="7.9314742"><ele>292.0</ele><time>2026-03-29T09:42:39.179Z</time></trkpt><trkpt lat="44.6974028" lon="7.931278"><ele>292.0</ele><time>2026-03-29T09:42:40.18Z</time></trkpt><trkpt lat="44.6973968" lon="7.9310903"><ele>292.0</ele><time>2026-03-29T09:42:41.179Z</time></trkpt><trkpt lat="44.6973805" lon="7.9309165"><ele>292.0</ele><time>2026-03-29T09:42:42.182Z</time></trkpt><trkpt lat="44.697356" lon="7.930767"><ele>292.0</ele><time>2026-03-29T09:42:43.179Z</time></trkpt><trkpt lat="44.6973253" lon="7.9306327"><ele>292.0</ele><time>2026-03-29T09:42:44.18Z</time></trkpt><trkpt lat="44.6972765" lon="7.9304992"><ele>292.0</ele><time>2026-03-29T09:42:45.18Z</time></trkpt><trkpt lat="44.6972073" lon="7.9303608"><ele>292.0</ele><time>2026-03-29T09:42:46.18Z</time></trkpt><trkpt lat="44.6971217" lon="7.9302125"><ele>287.66666666666663</ele><time>2026-03-29T09:42:47.18Z</time></trkpt><trkpt lat="44.6970355" lon="7.930058"><ele>283.3333333333333</ele><time>2026-03-29T09:42:48.182Z</time></trkpt><trkpt lat="44.6969362" lon="7.929881"><ele>279.0</ele><time>2026-03-29T09:42:49.182Z</time></trkpt><trkpt lat="44.6968242" lon="7.9296933"><ele>286.0</ele><time>2026-03-29T09:42:50.182Z</time></trkpt><trkpt lat="44.6967063" lon="7.9294945"><ele>293.0</ele><time>2026-03-29T09:42:51.182Z</time></trkpt><trkpt lat="44.6965928" lon="7.9292848"><ele>300.0</ele><time>2026-03-29T09:42:52.184Z</time></trkpt><trkpt lat="44.6964895" lon="7.9290712"><ele>300.0</ele><time>2026-03-29T09:42:53.181Z</time></trkpt><trkpt lat="44.696404" lon="7.92887"><ele>300.0</ele><time>2026-03-29T09:42:54.182Z</time></trkpt><trkpt lat="44.6963357" lon="7.9286718"><ele>300.0</ele><time>2026-03-29T09:42:55.182Z</time></trkpt><trkpt lat="44.6962857" lon="7.9284642"><ele>298.25</ele><time>2026-03-29T09:42:56.182Z</time></trkpt><trkpt lat="44.6962585" lon="7.9282528"><ele>296.5</ele><time>2026-03-29T09:42:57.183Z</time></trkpt><trkpt lat="44.6962527" lon="7.928059"><ele>294.75</ele><time>2026-03-29T09:42:58.182Z</time></trkpt><trkpt lat="44.696251" lon="7.9278978"><ele>293.0</ele><time>2026-03-29T09:42:59.179Z</time></trkpt><trkpt lat="44.6962353" lon="7.9277645"><ele>293.0</ele><time>2026-03-29T09:43:00.18Z</time></trkpt><trkpt lat="44.696198" lon="7.9276467"><ele>293.0</ele><time>2026-03-29T09:43:01.177Z</time></trkpt><trkpt lat="44.6961548" lon="7.927561"><ele>293.0</ele><time>2026-03-29T09:43:02.182Z</time></trkpt><trkpt lat="44.6960938" lon="7.9274752"><ele>293.0</ele><time>2026-03-29T09:43:04.18Z</time></trkpt><trkpt lat="44.6961313" lon="7.9273212"><ele>293.0</ele><time>2026-03-29T09:43:07.18Z</time></trkpt><trkpt lat="44.696175" lon="7.927244"><ele>293.0</ele><time>2026-03-29T09:43:08.179Z</time></trkpt><trkpt lat="44.6962227" lon="7.927147"><ele>295.6</ele><time>2026-03-29T09:43:09.18Z</time></trkpt><trkpt lat="44.696274" lon="7.9270207"><ele>298.20000000000005</ele><time>2026-03-29T09:43:10.182Z</time></trkpt><trkpt lat="44.6963243" lon="7.9268727"><ele>300.8</ele><time>2026-03-29T09:43:11.18Z</time></trkpt><trkpt lat="44.696368" lon="7.9267357"><ele>303.40000000000003</ele><time>2026-03-29T09:43:12.179Z</time></trkpt><trkpt lat="44.6964087" lon="7.9266045"><ele>306.0</ele><time>2026-03-29T09:43:13.181Z</time></trkpt><trkpt lat="44.69644" lon="7.9264843"><ele>307.75</ele><time>2026-03-29T09:43:14.183Z</time></trkpt><trkpt lat="44.6964658" lon="7.9263535"><ele>309.5</ele><time>2026-03-29T09:43:15.182Z</time></trkpt><trkpt lat="44.6964862" lon="7.926195"><ele>311.25</ele><time>2026-03-29T09:43:16.18Z</time></trkpt><trkpt lat="44.6964985" lon="7.926015"><ele>313.0</ele><time>2026-03-29T09:43:17.181Z</time></trkpt><trkpt lat="44.696501" lon="7.9258255"><ele>313.0</ele><time>2026-03-29T09:43:18.182Z</time></trkpt><trkpt lat="44.6964928" lon="7.9256465"><ele>313.0</ele><time>2026-03-29T09:43:19.182Z</time></trkpt><trkpt lat="44.6964758" lon="7.9254792"><ele>313.0</ele><time>2026-03-29T09:43:20.181Z</time></trkpt><trkpt lat="44.696452" lon="7.9253252"><ele>313.0</ele><time>2026-03-29T09:43:21.181Z</time></trkpt><trkpt lat="44.6964203" lon="7.9251828"><ele>311.6</ele><time>2026-03-29T09:43:22.18Z</time></trkpt><trkpt lat="44.6963845" lon="7.9250498"><ele>310.20000000000005</ele><time>2026-03-29T09:43:23.18Z</time></trkpt><trkpt lat="44.6963462" lon="7.9249165"><ele>308.8</ele><time>2026-03-29T09:43:24.181Z</time></trkpt><trkpt lat="44.6963027" lon="7.9247682"><ele>307.40000000000003</ele><time>2026-03-29T09:43:25.18Z</time></trkpt><trkpt lat="44.6962438" lon="7.9246032"><ele>306.0</ele><time>2026-03-29T09:43:26.179Z</time></trkpt><trkpt lat="44.696161" lon="7.9244312"><ele>301.75</ele><time>2026-03-29T09:43:27.182Z</time></trkpt><trkpt lat="44.6960677" lon="7.9242707"><ele>297.5</ele><time>2026-03-29T09:43:28.181Z</time></trkpt><trkpt lat="44.6959762" lon="7.9241242"><ele>293.25</ele><time>2026-03-29T09:43:29.182Z</time></trkpt><trkpt lat="44.695893" lon="7.9239855"><ele>289.0</ele><time>2026-03-29T09:43:30.18Z</time></trkpt><trkpt lat="44.69583" lon="7.9238393"><ele>289.0</ele><time>2026-03-29T09:43:31.182Z</time></trkpt><trkpt lat="44.6957968" lon="7.9236745"><ele>289.0</ele><time>2026-03-29T09:43:32.181Z</time></trkpt><trkpt lat="44.6957902" lon="7.9234852"><ele>289.0</ele><time>2026-03-29T09:43:33.181Z</time></trkpt><trkpt lat="44.695797" lon="7.9232685"><ele>289.0</ele><time>2026-03-29T09:43:34.181Z</time></trkpt><trkpt lat="44.6958072" lon="7.9230537"><ele>288.8</ele><time>2026-03-29T09:43:35.181Z</time></trkpt><trkpt lat="44.6958157" lon="7.9228668"><ele>288.59999999999997</ele><time>2026-03-29T09:43:36.181Z</time></trkpt><trkpt lat="44.6958283" lon="7.9227167"><ele>288.4</ele><time>2026-03-29T09:43:37.181Z</time></trkpt><trkpt lat="44.6958623" lon="7.9225962"><ele>288.2</ele><time>2026-03-29T09:43:38.182Z</time></trkpt><trkpt lat="44.6959277" lon="7.9225217"><ele>288.0</ele><time>2026-03-29T09:43:39.182Z</time></trkpt><trkpt lat="44.6960092" lon="7.9225072"><ele>288.6</ele><time>2026-03-29T09:43:40.181Z</time></trkpt><trkpt lat="44.6961042" lon="7.9225395"><ele>289.20000000000005</ele><time>2026-03-29T09:43:41.18Z</time></trkpt><trkpt lat="44.6962092" lon="7.9225977"><ele>289.8</ele><time>2026-03-29T09:43:42.179Z</time></trkpt><trkpt lat="44.6963073" lon="7.9226453"><ele>290.40000000000003</ele><time>2026-03-29T09:43:43.181Z</time></trkpt><trkpt lat="44.696387" lon="7.9226722"><ele>291.0</ele><time>2026-03-29T09:43:44.182Z</time></trkpt><trkpt lat="44.6964795" lon="7.9226435"><ele>291.0</ele><time>2026-03-29T09:43:46.181Z</time></trkpt><trkpt lat="44.6964637" lon="7.922512"><ele>291.0</ele><time>2026-03-29T09:43:50.181Z</time></trkpt><trkpt lat="44.6964028" lon="7.9224313"><ele>291.0</ele><time>2026-03-29T09:43:51.182Z</time></trkpt><trkpt lat="44.6963225" lon="7.9223283"><ele>291.0</ele><time>2026-03-29T09:43:52.182Z</time></trkpt><trkpt lat="44.6962518" lon="7.9221948"><ele>291.0</ele><time>2026-03-29T09:43:53.181Z</time></trkpt><trkpt lat="44.696202" lon="7.9220252"><ele>291.0</ele><time>2026-03-29T09:43:54.182Z</time></trkpt><trkpt lat="44.6961615" lon="7.9218148"><ele>291.0</ele><time>2026-03-29T09:43:55.182Z</time></trkpt><trkpt lat="44.696117" lon="7.921574"><ele>291.0</ele><time>2026-03-29T09:43:56.181Z</time></trkpt><trkpt lat="44.6960845" lon="7.9213383"><ele>293.3333333333333</ele><time>2026-03-29T09:43:57.182Z</time></trkpt><trkpt lat="44.696078" lon="7.9211115"><ele>295.66666666666663</ele><time>2026-03-29T09:43:58.184Z</time></trkpt><trkpt lat="44.6960913" lon="7.9208785"><ele>298.0</ele><time>2026-03-29T09:43:59.182Z</time></trkpt><trkpt lat="44.6961097" lon="7.9206428"><ele>298.0</ele><time>2026-03-29T09:44:00.183Z</time></trkpt><trkpt lat="44.6961265" lon="7.9204198"><ele>298.0</ele><time>2026-03-29T09:44:01.183Z</time></trkpt><trkpt lat="44.6961397" lon="7.920208"><ele>298.0</ele><time>2026-03-29T09:44:02.182Z</time></trkpt><trkpt lat="44.6961533" lon="7.920007"><ele>294.0</ele><time>2026-03-29T09:44:03.181Z</time></trkpt><trkpt lat="44.6961742" lon="7.9198182"><ele>290.0</ele><time>2026-03-29T09:44:04.182Z</time></trkpt><trkpt lat="44.6962087" lon="7.9196542"><ele>286.0</ele><time>2026-03-29T09:44:05.183Z</time></trkpt><trkpt lat="44.6962673" lon="7.9195257"><ele>282.0</ele><time>2026-03-29T09:44:06.181Z</time></trkpt><trkpt lat="44.6963403" lon="7.9194353"><ele>282.0</ele><time>2026-03-29T09:44:07.181Z</time></trkpt><trkpt lat="44.6964053" lon="7.9193623"><ele>282.0</ele><time>2026-03-29T09:44:08.18Z</time></trkpt><trkpt lat="44.6964422" lon="7.9192767"><ele>282.0</ele><time>2026-03-29T09:44:09.181Z</time></trkpt><trkpt lat="44.6964425" lon="7.919183"><ele>282.0</ele><time>2026-03-29T09:44:10.181Z</time></trkpt><trkpt lat="44.696405" lon="7.9191095"><ele>282.0</ele><time>2026-03-29T09:44:11.181Z</time></trkpt><trkpt lat="44.696341" lon="7.9190777"><ele>282.0</ele><time>2026-03-29T09:44:12.18Z</time></trkpt><trkpt lat="44.696269" lon="7.9191037"><ele>282.0</ele><time>2026-03-29T09:44:13.181Z</time></trkpt><trkpt lat="44.6962035" lon="7.9191895"><ele>282.0</ele><time>2026-03-29T09:44:14.181Z</time></trkpt><trkpt lat="44.6961447" lon="7.9193177"><ele>282.0</ele><time>2026-03-29T09:44:15.181Z</time></trkpt><trkpt lat="44.6960875" lon="7.9194802"><ele>282.0</ele><time>2026-03-29T09:44:16.182Z</time></trkpt><trkpt lat="44.6960438" lon="7.9196383"><ele>282.0</ele><time>2026-03-29T09:44:17.181Z</time></trkpt><trkpt lat="44.6960187" lon="7.919777"><ele>276.0</ele><time>2026-03-29T09:44:18.181Z</time></trkpt><trkpt lat="44.6960045" lon="7.9198865"><ele>270.0</ele><time>2026-03-29T09:44:19.183Z</time></trkpt><trkpt lat="44.6959623" lon="7.9200025"><ele>264.0</ele><time>2026-03-29T09:44:21.182Z</time></trkpt><trkpt lat="44.6958975" lon="7.9199928"><ele>258.0</ele><time>2026-03-29T09:44:23.181Z</time></trkpt><trkpt lat="44.695885" lon="7.9198238"><ele>252.0</ele><time>2026-03-29T09:44:25.182Z</time></trkpt><trkpt lat="44.6959112" lon="7.9196812"><ele>252.0</ele><time>2026-03-29T09:44:26.182Z</time></trkpt><trkpt lat="44.6959483" lon="7.9195308"><ele>252.0</ele><time>2026-03-29T09:44:27.183Z</time></trkpt><trkpt lat="44.6959858" lon="7.9193892"><ele>252.0</ele><time>2026-03-29T09:44:28.182Z</time></trkpt><trkpt lat="44.6960242" lon="7.9192467"><ele>252.0</ele><time>2026-03-29T09:44:29.183Z</time></trkpt><trkpt lat="44.6960602" lon="7.9190953"><ele>252.0</ele><time>2026-03-29T09:44:30.181Z</time></trkpt><trkpt lat="44.6960897" lon="7.9189342"><ele>252.0</ele><time>2026-03-29T09:44:31.182Z</time></trkpt><trkpt lat="44.6961102" lon="7.9187763"><ele>252.0</ele><time>2026-03-29T09:44:32.181Z</time></trkpt><trkpt lat="44.6961188" lon="7.9186283"><ele>252.0</ele><time>2026-03-29T09:44:33.181Z</time></trkpt><trkpt lat="44.696114" lon="7.9184933"><ele>252.0</ele><time>2026-03-29T09:44:34.181Z</time></trkpt><trkpt lat="44.696093" lon="7.9183822"><ele>252.0</ele><time>2026-03-29T09:44:35.182Z</time></trkpt><trkpt lat="44.69605" lon="7.9183033"><ele>250.66666666666666</ele><time>2026-03-29T09:44:36.177Z</time></trkpt><trkpt lat="44.6959397" lon="7.9183102"><ele>249.33333333333331</ele><time>2026-03-29T09:44:38.178Z</time></trkpt><trkpt lat="44.6959082" lon="7.9183892"><ele>248.0</ele><time>2026-03-29T09:44:39.18Z</time></trkpt><trkpt lat="44.6958943" lon="7.9185083"><ele>246.66666666666666</ele><time>2026-03-29T09:44:40.186Z</time></trkpt><trkpt lat="44.695897" lon="7.9186445"><ele>245.33333333333331</ele><time>2026-03-29T09:44:41.182Z</time></trkpt><trkpt lat="44.6959082" lon="7.9187663"><ele>244.0</ele><time>2026-03-29T09:44:42.182Z</time></trkpt><trkpt lat="44.6959162" lon="7.918876"><ele>243.99999999999997</ele><time>2026-03-29T09:44:43.183Z</time></trkpt><trkpt lat="44.6959148" lon="7.9189733"><ele>244.0</ele><time>2026-03-29T09:44:44.182Z</time></trkpt><trkpt lat="44.6958983" lon="7.9190588"><ele>244.0</ele><time>2026-03-29T09:44:45.181Z</time></trkpt><trkpt lat="44.695807" lon="7.9191315"><ele>244.0</ele><time>2026-03-29T09:44:47.182Z</time></trkpt><trkpt lat="44.6957352" lon="7.9190053"><ele>243.99999999999997</ele><time>2026-03-29T09:44:49.182Z</time></trkpt><trkpt lat="44.6957302" lon="7.9188845"><ele>244.0</ele><time>2026-03-29T09:44:50.182Z</time></trkpt><trkpt lat="44.6957347" lon="7.9187447"><ele>244.0</ele><time>2026-03-29T09:44:51.182Z</time></trkpt><trkpt lat="44.6957418" lon="7.9185903"><ele>244.0</ele><time>2026-03-29T09:44:52.182Z</time></trkpt><trkpt lat="44.6957515" lon="7.9184202"><ele>244.0</ele><time>2026-03-29T09:44:53.181Z</time></trkpt><trkpt lat="44.695765" lon="7.918234"><ele>244.0</ele><time>2026-03-29T09:44:54.183Z</time></trkpt><trkpt lat="44.6957793" lon="7.9180432"><ele>241.33333333333331</ele><time>2026-03-29T09:44:55.182Z</time></trkpt><trkpt lat="44.6957945" lon="7.917839"><ele>238.66666666666669</ele><time>2026-03-29T09:44:56.18Z</time></trkpt><trkpt lat="44.6958155" lon="7.9176158"><ele>236.0</ele><time>2026-03-29T09:44:57.18Z</time></trkpt><trkpt lat="44.6958458" lon="7.9173907"><ele>233.33333333333334</ele><time>2026-03-29T09:44:58.182Z</time></trkpt><trkpt lat="44.695889" lon="7.9171663"><ele>230.66666666666669</ele><time>2026-03-29T09:44:59.18Z</time></trkpt><trkpt lat="44.6959435" lon="7.9169402"><ele>228.0</ele><time>2026-03-29T09:45:00.179Z</time></trkpt><trkpt lat="44.6960025" lon="7.9167273"><ele>229.5</ele><time>2026-03-29T09:45:01.179Z</time></trkpt><trkpt lat="44.696061" lon="7.9165265"><ele>231.0</ele><time>2026-03-29T09:45:02.18Z</time></trkpt><trkpt lat="44.6961227" lon="7.9163393"><ele>232.5</ele><time>2026-03-29T09:45:03.179Z</time></trkpt><trkpt lat="44.6962007" lon="7.9161788"><ele>234.0</ele><time>2026-03-29T09:45:04.18Z</time></trkpt><trkpt lat="44.6963002" lon="7.9160588"><ele>234.0</ele><time>2026-03-29T09:45:05.18Z</time></trkpt><trkpt lat="44.6964143" lon="7.9159678"><ele>234.0</ele><time>2026-03-29T09:45:06.182Z</time></trkpt><trkpt lat="44.6965312" lon="7.9158822"><ele>234.0</ele><time>2026-03-29T09:45:07.179Z</time></trkpt><trkpt lat="44.6966355" lon="7.915796"><ele>234.0</ele><time>2026-03-29T09:45:08.18Z</time></trkpt><trkpt lat="44.6967157" lon="7.9156977"><ele>231.2</ele><time>2026-03-29T09:45:09.181Z</time></trkpt><trkpt lat="44.6967628" lon="7.9155815"><ele>228.39999999999998</ele><time>2026-03-29T09:45:10.18Z</time></trkpt><trkpt lat="44.6967677" lon="7.915459"><ele>225.6</ele><time>2026-03-29T09:45:11.183Z</time></trkpt><trkpt lat="44.6967338" lon="7.9153393"><ele>222.8</ele><time>2026-03-29T09:45:12.182Z</time></trkpt><trkpt lat="44.6966743" lon="7.9152193"><ele>220.0</ele><time>2026-03-29T09:45:13.183Z</time></trkpt><trkpt lat="44.6966045" lon="7.915085"><ele>218.4</ele><time>2026-03-29T09:45:14.181Z</time></trkpt><trkpt lat="44.6965385" lon="7.9149528"><ele>216.8</ele><time>2026-03-29T09:45:15.183Z</time></trkpt><trkpt lat="44.6964825" lon="7.9148385"><ele>215.2</ele><time>2026-03-29T09:45:16.183Z</time></trkpt><trkpt lat="44.696436" lon="7.9147407"><ele>213.6</ele><time>2026-03-29T09:45:17.182Z</time></trkpt><trkpt lat="44.6963905" lon="7.9146378"><ele>212.0</ele><time>2026-03-29T09:45:18.18Z</time></trkpt><trkpt lat="44.6963433" lon="7.9145118"><ele>212.0</ele><time>2026-03-29T09:45:19.181Z</time></trkpt><trkpt lat="44.696298" lon="7.914362"><ele>212.0</ele><time>2026-03-29T09:45:20.18Z</time></trkpt><trkpt lat="44.6962492" lon="7.9141923"><ele>212.0</ele><time>2026-03-29T09:45:21.182Z</time></trkpt><trkpt lat="44.6961937" lon="7.9140147"><ele>212.0</ele><time>2026-03-29T09:45:22.186Z</time></trkpt><trkpt lat="44.6961318" lon="7.9138368"><ele>210.5</ele><time>2026-03-29T09:45:23.183Z</time></trkpt><trkpt lat="44.6960613" lon="7.9136622"><ele>209.0</ele><time>2026-03-29T09:45:24.183Z</time></trkpt><trkpt lat="44.6959835" lon="7.9134897"><ele>207.5</ele><time>2026-03-29T09:45:25.181Z</time></trkpt><trkpt lat="44.6958952" lon="7.9133158"><ele>206.0</ele><time>2026-03-29T09:45:26.18Z</time></trkpt><trkpt lat="44.6957923" lon="7.9131348"><ele>206.0</ele><time>2026-03-29T09:45:27.181Z</time></trkpt><trkpt lat="44.695681" lon="7.9129495"><ele>206.0</ele><time>2026-03-29T09:45:28.181Z</time></trkpt><trkpt lat="44.695564" lon="7.912753"><ele>206.0</ele><time>2026-03-29T09:45:29.184Z</time></trkpt><trkpt lat="44.69545" lon="7.9125617"><ele>205.33333333333334</ele><time>2026-03-29T09:45:30.183Z</time></trkpt><trkpt lat="44.6953433" lon="7.9123805"><ele>204.66666666666669</ele><time>2026-03-29T09:45:31.183Z</time></trkpt><trkpt lat="44.695242" lon="7.9121932"><ele>204.0</ele><time>2026-03-29T09:45:32.183Z</time></trkpt><trkpt lat="44.6951427" lon="7.9119818"><ele>203.0</ele><time>2026-03-29T09:45:33.183Z</time></trkpt><trkpt lat="44.6950515" lon="7.9117723"><ele>202.0</ele><time>2026-03-29T09:45:34.186Z</time></trkpt><trkpt lat="44.6949665" lon="7.9115798"><ele>201.0</ele><time>2026-03-29T09:45:35.184Z</time></trkpt><trkpt lat="44.6948875" lon="7.9114027"><ele>201.0</ele><time>2026-03-29T09:45:36.185Z</time></trkpt><trkpt lat="44.6948167" lon="7.9112427"><ele>201.0</ele><time>2026-03-29T09:45:37.185Z</time></trkpt><trkpt lat="44.694754" lon="7.9111007"><ele>201.0</ele><time>2026-03-29T09:45:38.185Z</time></trkpt><trkpt lat="44.6947042" lon="7.9109815"><ele>201.0</ele><time>2026-03-29T09:45:39.185Z</time></trkpt><trkpt lat="44.6946755" lon="7.9108697"><ele>201.0</ele><time>2026-03-29T09:45:40.185Z</time></trkpt><trkpt lat="44.6946705" lon="7.9107575"><ele>201.0</ele><time>2026-03-29T09:45:41.184Z</time></trkpt><trkpt lat="44.6946742" lon="7.9106498"><ele>201.0</ele><time>2026-03-29T09:45:42.183Z</time></trkpt><trkpt lat="44.6946668" lon="7.9105573"><ele>201.0</ele><time>2026-03-29T09:45:43.186Z</time></trkpt><trkpt lat="44.6945718" lon="7.9104498"><ele>201.0</ele><time>2026-03-29T09:45:45.182Z</time></trkpt><trkpt lat="44.6944853" lon="7.910428"><ele>201.0</ele><time>2026-03-29T09:45:46.183Z</time></trkpt><trkpt lat="44.6944013" lon="7.9103832"><ele>201.0</ele><time>2026-03-29T09:45:47.183Z</time></trkpt><trkpt lat="44.6943215" lon="7.9102943"><ele>200.75</ele><time>2026-03-29T09:45:48.183Z</time></trkpt><trkpt lat="44.6942405" lon="7.9101665"><ele>200.5</ele><time>2026-03-29T09:45:49.182Z</time></trkpt><trkpt lat="44.6941575" lon="7.9100242"><ele>200.25</ele><time>2026-03-29T09:45:50.18Z</time></trkpt><trkpt lat="44.6940772" lon="7.90988"><ele>200.0</ele><time>2026-03-29T09:45:51.183Z</time></trkpt><trkpt lat="44.6939933" lon="7.909729"><ele>200.66666666666669</ele><time>2026-03-29T09:45:52.182Z</time></trkpt><trkpt lat="44.6938992" lon="7.9095623"><ele>201.33333333333331</ele><time>2026-03-29T09:45:53.181Z</time></trkpt><trkpt lat="44.6937977" lon="7.9093832"><ele>202.0</ele><time>2026-03-29T09:45:54.186Z</time></trkpt><trkpt lat="44.6936903" lon="7.9091963"><ele>201.33333333333331</ele><time>2026-03-29T09:45:55.184Z</time></trkpt><trkpt lat="44.6935802" lon="7.9090035"><ele>200.66666666666669</ele><time>2026-03-29T09:45:56.186Z</time></trkpt><trkpt lat="44.693469" lon="7.9088095"><ele>200.0</ele><time>2026-03-29T09:45:57.183Z</time></trkpt><trkpt lat="44.693352" lon="7.9086048"><ele>200.0</ele><time>2026-03-29T09:45:58.183Z</time></trkpt><trkpt lat="44.6932305" lon="7.9083925"><ele>200.0</ele><time>2026-03-29T09:45:59.184Z</time></trkpt><trkpt lat="44.6931057" lon="7.9081762"><ele>200.0</ele><time>2026-03-29T09:46:00.183Z</time></trkpt><trkpt lat="44.6929783" lon="7.9079575"><ele>200.0</ele><time>2026-03-29T09:46:01.185Z</time></trkpt><trkpt lat="44.6928513" lon="7.9077367"><ele>200.0</ele><time>2026-03-29T09:46:02.183Z</time></trkpt><trkpt lat="44.6927258" lon="7.9075157"><ele>200.0</ele><time>2026-03-29T09:46:03.183Z</time></trkpt><trkpt lat="44.6926" lon="7.9072937"><ele>199.33333333333334</ele><time>2026-03-29T09:46:04.183Z</time></trkpt><trkpt lat="44.692472" lon="7.9070688"><ele>198.66666666666669</ele><time>2026-03-29T09:46:05.186Z</time></trkpt><trkpt lat="44.6923425" lon="7.9068422"><ele>198.0</ele><time>2026-03-29T09:46:06.183Z</time></trkpt><trkpt lat="44.6922115" lon="7.906614"><ele>198.0</ele><time>2026-03-29T09:46:07.184Z</time></trkpt><trkpt lat="44.6920803" lon="7.9063863"><ele>198.0</ele><time>2026-03-29T09:46:08.183Z</time></trkpt><trkpt lat="44.6919462" lon="7.906153"><ele>198.0</ele><time>2026-03-29T09:46:09.182Z</time></trkpt><trkpt lat="44.6918098" lon="7.9059148"><ele>198.66666666666669</ele><time>2026-03-29T09:46:10.183Z</time></trkpt><trkpt lat="44.6916713" lon="7.9056732"><ele>199.33333333333334</ele><time>2026-03-29T09:46:11.189Z</time></trkpt><trkpt lat="44.6915317" lon="7.9054263"><ele>200.0</ele><time>2026-03-29T09:46:12.185Z</time></trkpt><trkpt lat="44.69139" lon="7.9051757"><ele>200.5</ele><time>2026-03-29T09:46:13.184Z</time></trkpt><trkpt lat="44.6912455" lon="7.9049233"><ele>201.0</ele><time>2026-03-29T09:46:14.182Z</time></trkpt><trkpt lat="44.6910993" lon="7.9046687"><ele>200.5</ele><time>2026-03-29T09:46:15.182Z</time></trkpt><trkpt lat="44.6909537" lon="7.9044113"><ele>200.0</ele><time>2026-03-29T09:46:16.182Z</time></trkpt><trkpt lat="44.6908077" lon="7.9041523"><ele>200.0</ele><time>2026-03-29T09:46:17.181Z</time></trkpt><trkpt lat="44.690661" lon="7.9038928"><ele>200.0</ele><time>2026-03-29T09:46:18.183Z</time></trkpt><trkpt lat="44.690513" lon="7.9036338"><ele>200.0</ele><time>2026-03-29T09:46:19.184Z</time></trkpt><trkpt lat="44.6903633" lon="7.9033745"><ele>200.0</ele><time>2026-03-29T09:46:20.183Z</time></trkpt><trkpt lat="44.6902133" lon="7.9031148"><ele>200.0</ele><time>2026-03-29T09:46:21.184Z</time></trkpt><trkpt lat="44.690063" lon="7.9028543"><ele>200.0</ele><time>2026-03-29T09:46:22.183Z</time></trkpt><trkpt lat="44.6899125" lon="7.9025937"><ele>200.0</ele><time>2026-03-29T09:46:23.184Z</time></trkpt><trkpt lat="44.6897612" lon="7.9023323"><ele>200.0</ele><time>2026-03-29T09:46:24.183Z</time></trkpt><trkpt lat="44.6896098" lon="7.90207"><ele>200.0</ele><time>2026-03-29T09:46:25.185Z</time></trkpt><trkpt lat="44.6894588" lon="7.9018057"><ele>200.0</ele><time>2026-03-29T09:46:26.183Z</time></trkpt><trkpt lat="44.6893087" lon="7.9015393"><ele>200.0</ele><time>2026-03-29T09:46:27.183Z</time></trkpt><trkpt lat="44.6891593" lon="7.9012733"><ele>200.0</ele><time>2026-03-29T09:46:28.185Z</time></trkpt><trkpt lat="44.6890102" lon="7.9010078"><ele>201.0</ele><time>2026-03-29T09:46:29.183Z</time></trkpt><trkpt lat="44.6888607" lon="7.900744"><ele>202.0</ele><time>2026-03-29T09:46:30.184Z</time></trkpt><trkpt lat="44.6887103" lon="7.900482"><ele>200.5</ele><time>2026-03-29T09:46:31.184Z</time></trkpt><trkpt lat="44.6885597" lon="7.9002198"><ele>199.0</ele><time>2026-03-29T09:46:32.184Z</time></trkpt><trkpt lat="44.688409" lon="7.8999568"><ele>199.0</ele><time>2026-03-29T09:46:33.184Z</time></trkpt><trkpt lat="44.6882583" lon="7.8996942"><ele>199.0</ele><time>2026-03-29T09:46:34.184Z</time></trkpt><trkpt lat="44.6881083" lon="7.899432"><ele>199.5</ele><time>2026-03-29T09:46:35.186Z</time></trkpt><trkpt lat="44.6879585" lon="7.8991705"><ele>200.0</ele><time>2026-03-29T09:46:36.185Z</time></trkpt><trkpt lat="44.6878153" lon="7.898921"><ele>200.66666666666669</ele><time>2026-03-29T09:46:37.182Z</time></trkpt><trkpt lat="44.687681" lon="7.8986885"><ele>201.33333333333331</ele><time>2026-03-29T09:46:38.185Z</time></trkpt><trkpt lat="44.687555" lon="7.8984682"><ele>202.0</ele><time>2026-03-29T09:46:39.181Z</time></trkpt><trkpt lat="44.6874322" lon="7.8982517"><ele>202.0</ele><time>2026-03-29T09:46:40.181Z</time></trkpt><trkpt lat="44.6873193" lon="7.8980358"><ele>202.0</ele><time>2026-03-29T09:46:41.181Z</time></trkpt><trkpt lat="44.687223" lon="7.8978125"><ele>202.0</ele><time>2026-03-29T09:46:42.182Z</time></trkpt><trkpt lat="44.6871485" lon="7.8975665"><ele>201.33333333333331</ele><time>2026-03-29T09:46:43.182Z</time></trkpt><trkpt lat="44.6870988" lon="7.8972963"><ele>200.66666666666669</ele><time>2026-03-29T09:46:44.185Z</time></trkpt><trkpt lat="44.687076" lon="7.8970348"><ele>200.0</ele><time>2026-03-29T09:46:45.183Z</time></trkpt><trkpt lat="44.6870657" lon="7.8967947"><ele>200.25</ele><time>2026-03-29T09:46:46.186Z</time></trkpt><trkpt lat="44.6870525" lon="7.8965908"><ele>200.5</ele><time>2026-03-29T09:46:47.184Z</time></trkpt><trkpt lat="44.6870323" lon="7.896424"><ele>200.75</ele><time>2026-03-29T09:46:48.184Z</time></trkpt><trkpt lat="44.6870092" lon="7.8962842"><ele>201.0</ele><time>2026-03-29T09:46:49.186Z</time></trkpt><trkpt lat="44.6869855" lon="7.8961513"><ele>201.0</ele><time>2026-03-29T09:46:50.184Z</time></trkpt><trkpt lat="44.6869485" lon="7.8960223"><ele>201.0</ele><time>2026-03-29T09:46:51.185Z</time></trkpt><trkpt lat="44.686884" lon="7.8958933"><ele>201.0</ele><time>2026-03-29T09:46:52.188Z</time></trkpt><trkpt lat="44.6868002" lon="7.8957605"><ele>201.0</ele><time>2026-03-29T09:46:53.185Z</time></trkpt><trkpt lat="44.6867075" lon="7.8956102"><ele>201.0</ele><time>2026-03-29T09:46:54.185Z</time></trkpt><trkpt lat="44.6866107" lon="7.8954248"><ele>201.0</ele><time>2026-03-29T09:46:55.185Z</time></trkpt><trkpt lat="44.6865157" lon="7.8952207"><ele>201.0</ele><time>2026-03-29T09:46:56.183Z</time></trkpt><trkpt lat="44.6864102" lon="7.8949845"><ele>201.0</ele><time>2026-03-29T09:46:57.183Z</time></trkpt><trkpt lat="44.6863052" lon="7.8947252"><ele>201.0</ele><time>2026-03-29T09:46:58.184Z</time></trkpt><trkpt lat="44.6861993" lon="7.8944467"><ele>201.0</ele><time>2026-03-29T09:46:59.185Z</time></trkpt><trkpt lat="44.686093" lon="7.8941742"><ele>201.0</ele><time>2026-03-29T09:47:00.185Z</time></trkpt><trkpt lat="44.6859792" lon="7.8939075"><ele>201.0</ele><time>2026-03-29T09:47:01.185Z</time></trkpt><trkpt lat="44.6858532" lon="7.8936567"><ele>201.0</ele><time>2026-03-29T09:47:02.183Z</time></trkpt><trkpt lat="44.6857145" lon="7.8934325"><ele>201.33333333333331</ele><time>2026-03-29T09:47:03.182Z</time></trkpt><trkpt lat="44.6855663" lon="7.8932355"><ele>201.66666666666666</ele><time>2026-03-29T09:47:04.182Z</time></trkpt><trkpt lat="44.6854115" lon="7.893064"><ele>202.0</ele><time>2026-03-29T09:47:05.181Z</time></trkpt><trkpt lat="44.6852512" lon="7.8929143"><ele>202.0</ele><time>2026-03-29T09:47:06.182Z</time></trkpt><trkpt lat="44.6850825" lon="7.8927872"><ele>202.0</ele><time>2026-03-29T09:47:07.184Z</time></trkpt><trkpt lat="44.684903" lon="7.8926828"><ele>202.0</ele><time>2026-03-29T09:47:08.184Z</time></trkpt><trkpt lat="44.6847145" lon="7.8925893"><ele>202.33333333333331</ele><time>2026-03-29T09:47:09.186Z</time></trkpt><trkpt lat="44.6845197" lon="7.8925035"><ele>202.66666666666669</ele><time>2026-03-29T09:47:10.185Z</time></trkpt><trkpt lat="44.6843195" lon="7.8924223"><ele>203.0</ele><time>2026-03-29T09:47:11.184Z</time></trkpt><trkpt lat="44.684128" lon="7.8923472"><ele>202.33333333333334</ele><time>2026-03-29T09:47:12.185Z</time></trkpt><trkpt lat="44.6839497" lon="7.8922758"><ele>201.66666666666669</ele><time>2026-03-29T09:47:13.185Z</time></trkpt><trkpt lat="44.6837837" lon="7.8922083"><ele>201.0</ele><time>2026-03-29T09:47:14.186Z</time></trkpt><trkpt lat="44.6836275" lon="7.8921472"><ele>201.0</ele><time>2026-03-29T09:47:15.185Z</time></trkpt><trkpt lat="44.683484" lon="7.8920928"><ele>201.0</ele><time>2026-03-29T09:47:16.185Z</time></trkpt><trkpt lat="44.6833515" lon="7.8920418"><ele>201.0</ele><time>2026-03-29T09:47:17.185Z</time></trkpt><trkpt lat="44.6832132" lon="7.8919872"><ele>201.0</ele><time>2026-03-29T09:47:18.184Z</time></trkpt><trkpt lat="44.6830542" lon="7.8919248"><ele>201.0</ele><time>2026-03-29T09:47:19.188Z</time></trkpt><trkpt lat="44.6828758" lon="7.8918573"><ele>201.0</ele><time>2026-03-29T09:47:20.184Z</time></trkpt><trkpt lat="44.6826845" lon="7.8917842"><ele>201.0</ele><time>2026-03-29T09:47:21.184Z</time></trkpt><trkpt lat="44.6824775" lon="7.891703"><ele>201.5</ele><time>2026-03-29T09:47:22.185Z</time></trkpt><trkpt lat="44.682265" lon="7.8916185"><ele>202.0</ele><time>2026-03-29T09:47:23.185Z</time></trkpt><trkpt lat="44.6820395" lon="7.8915293"><ele>201.5</ele><time>2026-03-29T09:47:24.185Z</time></trkpt><trkpt lat="44.6818047" lon="7.8914392"><ele>201.0</ele><time>2026-03-29T09:47:25.185Z</time></trkpt><trkpt lat="44.6815648" lon="7.8913482"><ele>201.0</ele><time>2026-03-29T09:47:26.184Z</time></trkpt><trkpt lat="44.6813278" lon="7.891257"><ele>201.0</ele><time>2026-03-29T09:47:27.184Z</time></trkpt><trkpt lat="44.6811072" lon="7.8911685"><ele>201.0</ele><time>2026-03-29T09:47:28.182Z</time></trkpt><trkpt lat="44.6809028" lon="7.8910723"><ele>201.0</ele><time>2026-03-29T09:47:29.183Z</time></trkpt><trkpt lat="44.6807112" lon="7.8909532"><ele>201.0</ele><time>2026-03-29T09:47:30.181Z</time></trkpt><trkpt lat="44.6805363" lon="7.8908007"><ele>200.66666666666669</ele><time>2026-03-29T09:47:31.182Z</time></trkpt><trkpt lat="44.6803795" lon="7.8906112"><ele>200.33333333333334</ele><time>2026-03-29T09:47:32.183Z</time></trkpt><trkpt lat="44.6802397" lon="7.8903842"><ele>200.0</ele><time>2026-03-29T09:47:33.184Z</time></trkpt><trkpt lat="44.680125" lon="7.8901227"><ele>203.0</ele><time>2026-03-29T09:47:34.185Z</time></trkpt><trkpt lat="44.6800407" lon="7.8898312"><ele>206.0</ele><time>2026-03-29T09:47:35.184Z</time></trkpt><trkpt lat="44.6799847" lon="7.8895157"><ele>206.0</ele><time>2026-03-29T09:47:36.186Z</time></trkpt><trkpt lat="44.6799457" lon="7.889179"><ele>206.0</ele><time>2026-03-29T09:47:37.183Z</time></trkpt><trkpt lat="44.6799107" lon="7.8888327"><ele>206.0</ele><time>2026-03-29T09:47:38.183Z</time></trkpt><trkpt lat="44.6798765" lon="7.8884808"><ele>206.0</ele><time>2026-03-29T09:47:39.183Z</time></trkpt><trkpt lat="44.6798413" lon="7.8881258"><ele>204.5</ele><time>2026-03-29T09:47:40.184Z</time></trkpt><trkpt lat="44.6798053" lon="7.8877682"><ele>203.0</ele><time>2026-03-29T09:47:41.184Z</time></trkpt><trkpt lat="44.679769" lon="7.8874115"><ele>203.0</ele><time>2026-03-29T09:47:42.184Z</time></trkpt><trkpt lat="44.6797328" lon="7.88706"><ele>203.0</ele><time>2026-03-29T09:47:43.185Z</time></trkpt><trkpt lat="44.6796975" lon="7.8867142"><ele>203.5</ele><time>2026-03-29T09:47:44.184Z</time></trkpt><trkpt lat="44.6796625" lon="7.8863747"><ele>204.0</ele><time>2026-03-29T09:47:45.183Z</time></trkpt><trkpt lat="44.6796297" lon="7.8860367"><ele>203.5</ele><time>2026-03-29T09:47:46.184Z</time></trkpt><trkpt lat="44.679597" lon="7.8856998"><ele>203.0</ele><time>2026-03-29T09:47:47.184Z</time></trkpt><trkpt lat="44.679563" lon="7.8853633"><ele>202.5</ele><time>2026-03-29T09:47:48.184Z</time></trkpt><trkpt lat="44.6795278" lon="7.8850272"><ele>202.0</ele><time>2026-03-29T09:47:49.184Z</time></trkpt><trkpt lat="44.6794928" lon="7.8846928"><ele>202.0</ele><time>2026-03-29T09:47:50.184Z</time></trkpt><trkpt lat="44.6794588" lon="7.8843675"><ele>202.0</ele><time>2026-03-29T09:47:51.183Z</time></trkpt><trkpt lat="44.6794267" lon="7.8840547"><ele>202.66666666666666</ele><time>2026-03-29T09:47:52.184Z</time></trkpt><trkpt lat="44.6793957" lon="7.8837488"><ele>203.33333333333331</ele><time>2026-03-29T09:47:53.182Z</time></trkpt><trkpt lat="44.6793643" lon="7.8834425"><ele>204.0</ele><time>2026-03-29T09:47:54.182Z</time></trkpt><trkpt lat="44.6793327" lon="7.8831353"><ele>204.33333333333331</ele><time>2026-03-29T09:47:55.182Z</time></trkpt><trkpt lat="44.679303" lon="7.8828333"><ele>204.66666666666666</ele><time>2026-03-29T09:47:56.184Z</time></trkpt><trkpt lat="44.6792755" lon="7.8825437"><ele>205.0</ele><time>2026-03-29T09:47:57.187Z</time></trkpt><trkpt lat="44.6792497" lon="7.8822725"><ele>205.33333333333331</ele><time>2026-03-29T09:47:58.185Z</time></trkpt><trkpt lat="44.6792238" lon="7.8820175"><ele>205.66666666666669</ele><time>2026-03-29T09:47:59.185Z</time></trkpt><trkpt lat="44.6791975" lon="7.8817662"><ele>206.0</ele><time>2026-03-29T09:48:00.184Z</time></trkpt><trkpt lat="44.6791712" lon="7.8815157"><ele>206.33333333333334</ele><time>2026-03-29T09:48:01.185Z</time></trkpt><trkpt lat="44.6791462" lon="7.881269"><ele>206.66666666666669</ele><time>2026-03-29T09:48:02.183Z</time></trkpt><trkpt lat="44.6791223" lon="7.8810287"><ele>207.0</ele><time>2026-03-29T09:48:03.183Z</time></trkpt><trkpt lat="44.6790997" lon="7.880796"><ele>207.66666666666669</ele><time>2026-03-29T09:48:04.183Z</time></trkpt><trkpt lat="44.6790778" lon="7.8805677"><ele>208.33333333333334</ele><time>2026-03-29T09:48:05.183Z</time></trkpt><trkpt lat="44.6790543" lon="7.8803362"><ele>209.0</ele><time>2026-03-29T09:48:06.184Z</time></trkpt><trkpt lat="44.6790295" lon="7.8801023"><ele>208.33333333333334</ele><time>2026-03-29T09:48:07.184Z</time></trkpt><trkpt lat="44.6790027" lon="7.8798713"><ele>207.66666666666669</ele><time>2026-03-29T09:48:08.183Z</time></trkpt><trkpt lat="44.678967" lon="7.879644"><ele>207.0</ele><time>2026-03-29T09:48:09.185Z</time></trkpt><trkpt lat="44.678909" lon="7.8794062"><ele>207.0</ele><time>2026-03-29T09:48:10.184Z</time></trkpt><trkpt lat="44.6788237" lon="7.879147"><ele>207.0</ele><time>2026-03-29T09:48:11.183Z</time></trkpt><trkpt lat="44.6787202" lon="7.8788603"><ele>207.0</ele><time>2026-03-29T09:48:12.185Z</time></trkpt><trkpt lat="44.6786143" lon="7.8785533"><ele>206.66666666666669</ele><time>2026-03-29T09:48:13.185Z</time></trkpt><trkpt lat="44.6785153" lon="7.8782588"><ele>206.33333333333334</ele><time>2026-03-29T09:48:14.186Z</time></trkpt><trkpt lat="44.6784238" lon="7.877985"><ele>206.0</ele><time>2026-03-29T09:48:15.183Z</time></trkpt><trkpt lat="44.6783347" lon="7.8777222"><ele>206.33333333333334</ele><time>2026-03-29T09:48:16.183Z</time></trkpt><trkpt lat="44.678245" lon="7.8774633"><ele>206.66666666666669</ele><time>2026-03-29T09:48:17.181Z</time></trkpt><trkpt lat="44.6781583" lon="7.8772138"><ele>207.0</ele><time>2026-03-29T09:48:18.182Z</time></trkpt><trkpt lat="44.6780743" lon="7.8769712"><ele>207.0</ele><time>2026-03-29T09:48:19.183Z</time></trkpt><trkpt lat="44.6779933" lon="7.8767338"><ele>207.0</ele><time>2026-03-29T09:48:20.183Z</time></trkpt><trkpt lat="44.6779155" lon="7.8764982"><ele>207.0</ele><time>2026-03-29T09:48:21.185Z</time></trkpt><trkpt lat="44.6778425" lon="7.8762558"><ele>207.0</ele><time>2026-03-29T09:48:22.185Z</time></trkpt><trkpt lat="44.6777752" lon="7.8760068"><ele>207.0</ele><time>2026-03-29T09:48:23.185Z</time></trkpt><trkpt lat="44.6777083" lon="7.8757545"><ele>207.0</ele><time>2026-03-29T09:48:24.187Z</time></trkpt><trkpt lat="44.677645" lon="7.8755092"><ele>208.0</ele><time>2026-03-29T09:48:25.185Z</time></trkpt><trkpt lat="44.6775778" lon="7.875259"><ele>209.0</ele><time>2026-03-29T09:48:26.183Z</time></trkpt><trkpt lat="44.6775035" lon="7.8749805"><ele>210.0</ele><time>2026-03-29T09:48:27.186Z</time></trkpt><trkpt lat="44.6774363" lon="7.8746877"><ele>210.0</ele><time>2026-03-29T09:48:28.185Z</time></trkpt><trkpt lat="44.6773778" lon="7.8744078"><ele>210.0</ele><time>2026-03-29T09:48:29.183Z</time></trkpt><trkpt lat="44.6773213" lon="7.8741503"><ele>210.0</ele><time>2026-03-29T09:48:30.186Z</time></trkpt><trkpt lat="44.677268" lon="7.873923"><ele>210.0</ele><time>2026-03-29T09:48:31.186Z</time></trkpt><trkpt lat="44.677217" lon="7.8737107"><ele>210.0</ele><time>2026-03-29T09:48:32.185Z</time></trkpt><trkpt lat="44.677167" lon="7.8735043"><ele>210.0</ele><time>2026-03-29T09:48:33.185Z</time></trkpt><trkpt lat="44.677116" lon="7.8732955"><ele>210.0</ele><time>2026-03-29T09:48:34.185Z</time></trkpt><trkpt lat="44.6770667" lon="7.8730927"><ele>210.0</ele><time>2026-03-29T09:48:35.184Z</time></trkpt><trkpt lat="44.6770185" lon="7.8728938"><ele>210.0</ele><time>2026-03-29T09:48:36.184Z</time></trkpt><trkpt lat="44.676969" lon="7.8726907"><ele>209.66666666666669</ele><time>2026-03-29T09:48:37.185Z</time></trkpt><trkpt lat="44.676919" lon="7.872488"><ele>209.33333333333334</ele><time>2026-03-29T09:48:38.185Z</time></trkpt><trkpt lat="44.6768697" lon="7.8722857"><ele>209.0</ele><time>2026-03-29T09:48:39.183Z</time></trkpt><trkpt lat="44.6768202" lon="7.8720775"><ele>209.0</ele><time>2026-03-29T09:48:40.184Z</time></trkpt><trkpt lat="44.6767707" lon="7.8718617"><ele>209.0</ele><time>2026-03-29T09:48:41.181Z</time></trkpt><trkpt lat="44.6767207" lon="7.8716447"><ele>209.0</ele><time>2026-03-29T09:48:42.185Z</time></trkpt><trkpt lat="44.6766687" lon="7.8714292"><ele>209.66666666666669</ele><time>2026-03-29T09:48:43.182Z</time></trkpt><trkpt lat="44.6766173" lon="7.8712203"><ele>210.33333333333331</ele><time>2026-03-29T09:48:44.182Z</time></trkpt><trkpt lat="44.6765678" lon="7.8710143"><ele>211.0</ele><time>2026-03-29T09:48:45.185Z</time></trkpt><trkpt lat="44.6765187" lon="7.8708065"><ele>211.0</ele><time>2026-03-29T09:48:46.185Z</time></trkpt><trkpt lat="44.6764692" lon="7.8705967"><ele>211.0</ele><time>2026-03-29T09:48:47.185Z</time></trkpt><trkpt lat="44.6764168" lon="7.8703827"><ele>211.0</ele><time>2026-03-29T09:48:48.185Z</time></trkpt><trkpt lat="44.6763598" lon="7.8701583"><ele>211.0</ele><time>2026-03-29T09:48:49.185Z</time></trkpt><trkpt lat="44.676297" lon="7.869924"><ele>211.0</ele><time>2026-03-29T09:48:50.185Z</time></trkpt><trkpt lat="44.6762267" lon="7.869671"><ele>211.0</ele><time>2026-03-29T09:48:51.185Z</time></trkpt><trkpt lat="44.6761507" lon="7.8693807"><ele>211.0</ele><time>2026-03-29T09:48:52.187Z</time></trkpt><trkpt lat="44.676072" lon="7.8690645"><ele>211.0</ele><time>2026-03-29T09:48:53.186Z</time></trkpt><trkpt lat="44.6759915" lon="7.868729"><ele>210.5</ele><time>2026-03-29T09:48:54.186Z</time></trkpt><trkpt lat="44.6759073" lon="7.868373"><ele>210.0</ele><time>2026-03-29T09:48:55.185Z</time></trkpt><trkpt lat="44.6758288" lon="7.8680132"><ele>210.0</ele><time>2026-03-29T09:48:56.187Z</time></trkpt><trkpt lat="44.6757625" lon="7.8676755"><ele>210.0</ele><time>2026-03-29T09:48:57.185Z</time></trkpt><trkpt lat="44.6756997" lon="7.8673618"><ele>210.33333333333331</ele><time>2026-03-29T09:48:58.185Z</time></trkpt><trkpt lat="44.6756365" lon="7.867066"><ele>210.66666666666666</ele><time>2026-03-29T09:48:59.184Z</time></trkpt><trkpt lat="44.6755725" lon="7.8667793"><ele>211.0</ele><time>2026-03-29T09:49:00.185Z</time></trkpt><trkpt lat="44.6755077" lon="7.8665035"><ele>211.66666666666666</ele><time>2026-03-29T09:49:01.185Z</time></trkpt><trkpt lat="44.6754415" lon="7.8662358"><ele>212.33333333333331</ele><time>2026-03-29T09:49:02.184Z</time></trkpt><trkpt lat="44.6753722" lon="7.8659737"><ele>213.0</ele><time>2026-03-29T09:49:03.184Z</time></trkpt><trkpt lat="44.6752997" lon="7.865719"><ele>213.33333333333331</ele><time>2026-03-29T09:49:04.187Z</time></trkpt><trkpt lat="44.6752245" lon="7.8654737"><ele>213.66666666666666</ele><time>2026-03-29T09:49:05.185Z</time></trkpt><trkpt lat="44.675146" lon="7.8652387"><ele>214.0</ele><time>2026-03-29T09:49:06.182Z</time></trkpt><trkpt lat="44.6750628" lon="7.865012"><ele>214.0</ele><time>2026-03-29T09:49:07.182Z</time></trkpt><trkpt lat="44.6749762" lon="7.8647945"><ele>214.0</ele><time>2026-03-29T09:49:08.182Z</time></trkpt><trkpt lat="44.6748857" lon="7.8645865"><ele>214.0</ele><time>2026-03-29T09:49:09.183Z</time></trkpt><trkpt lat="44.6747897" lon="7.8643872"><ele>213.66666666666666</ele><time>2026-03-29T09:49:10.185Z</time></trkpt><trkpt lat="44.6746927" lon="7.8642008"><ele>213.33333333333331</ele><time>2026-03-29T09:49:11.185Z</time></trkpt><trkpt lat="44.6745912" lon="7.8640192"><ele>213.0</ele><time>2026-03-29T09:49:12.184Z</time></trkpt><trkpt lat="44.6744833" lon="7.863839"><ele>214.0</ele><time>2026-03-29T09:49:13.186Z</time></trkpt><trkpt lat="44.6743692" lon="7.863662"><ele>215.0</ele><time>2026-03-29T09:49:14.181Z</time></trkpt><trkpt lat="44.6742517" lon="7.8634925"><ele>216.0</ele><time>2026-03-29T09:49:15.181Z</time></trkpt><trkpt lat="44.67413" lon="7.8633333"><ele>216.0</ele><time>2026-03-29T09:49:16.183Z</time></trkpt><trkpt lat="44.6740073" lon="7.8631823"><ele>216.0</ele><time>2026-03-29T09:49:17.182Z</time></trkpt><trkpt lat="44.6738828" lon="7.8630418"><ele>216.0</ele><time>2026-03-29T09:49:18.182Z</time></trkpt><trkpt lat="44.6737553" lon="7.8629085"><ele>216.0</ele><time>2026-03-29T09:49:19.184Z</time></trkpt><trkpt lat="44.6736243" lon="7.8627818"><ele>216.0</ele><time>2026-03-29T09:49:20.182Z</time></trkpt><trkpt lat="44.673489" lon="7.862661"><ele>216.0</ele><time>2026-03-29T09:49:21.187Z</time></trkpt><trkpt lat="44.6733512" lon="7.8625445"><ele>215.33333333333331</ele><time>2026-03-29T09:49:22.185Z</time></trkpt><trkpt lat="44.6732093" lon="7.8624347"><ele>214.66666666666666</ele><time>2026-03-29T09:49:23.183Z</time></trkpt><trkpt lat="44.6730642" lon="7.8623308"><ele>214.0</ele><time>2026-03-29T09:49:24.183Z</time></trkpt><trkpt lat="44.6729163" lon="7.862233"><ele>213.66666666666666</ele><time>2026-03-29T09:49:25.187Z</time></trkpt><trkpt lat="44.6727657" lon="7.862144"><ele>213.33333333333331</ele><time>2026-03-29T09:49:26.183Z</time></trkpt><trkpt lat="44.6726118" lon="7.862063"><ele>213.0</ele><time>2026-03-29T09:49:27.183Z</time></trkpt><trkpt lat="44.672456" lon="7.8619908"><ele>213.0</ele><time>2026-03-29T09:49:28.184Z</time></trkpt><trkpt lat="44.6722993" lon="7.861926"><ele>213.0</ele><time>2026-03-29T09:49:29.185Z</time></trkpt><trkpt lat="44.6721418" lon="7.861865"><ele>213.0</ele><time>2026-03-29T09:49:30.183Z</time></trkpt><trkpt lat="44.671984" lon="7.8618067"><ele>213.33333333333331</ele><time>2026-03-29T09:49:31.182Z</time></trkpt><trkpt lat="44.6718258" lon="7.8617512"><ele>213.66666666666666</ele><time>2026-03-29T09:49:32.181Z</time></trkpt><trkpt lat="44.6716672" lon="7.861697"><ele>214.0</ele><time>2026-03-29T09:49:33.181Z</time></trkpt><trkpt lat="44.671508" lon="7.8616438"><ele>214.0</ele><time>2026-03-29T09:49:34.184Z</time></trkpt><trkpt lat="44.6713488" lon="7.8615922"><ele>214.0</ele><time>2026-03-29T09:49:35.183Z</time></trkpt><trkpt lat="44.6711888" lon="7.8615415"><ele>214.0</ele><time>2026-03-29T09:49:36.182Z</time></trkpt><trkpt lat="44.671026" lon="7.8614902"><ele>214.0</ele><time>2026-03-29T09:49:37.181Z</time></trkpt><trkpt lat="44.6708612" lon="7.861439"><ele>214.0</ele><time>2026-03-29T09:49:38.18Z</time></trkpt><trkpt lat="44.6706973" lon="7.8613878"><ele>214.0</ele><time>2026-03-29T09:49:39.181Z</time></trkpt><trkpt lat="44.6705342" lon="7.861337"><ele>214.0</ele><time>2026-03-29T09:49:40.182Z</time></trkpt><trkpt lat="44.6703702" lon="7.8612862"><ele>214.0</ele><time>2026-03-29T09:49:41.182Z</time></trkpt><trkpt lat="44.6702052" lon="7.8612323"><ele>214.0</ele><time>2026-03-29T09:49:42.182Z</time></trkpt><trkpt lat="44.6700402" lon="7.8611723"><ele>214.33333333333331</ele><time>2026-03-29T09:49:43.182Z</time></trkpt><trkpt lat="44.6698758" lon="7.8611048"><ele>214.66666666666669</ele><time>2026-03-29T09:49:44.183Z</time></trkpt><trkpt lat="44.6697132" lon="7.8610262"><ele>215.0</ele><time>2026-03-29T09:49:45.185Z</time></trkpt><trkpt lat="44.669553" lon="7.8609348"><ele>216.0</ele><time>2026-03-29T09:49:46.183Z</time></trkpt><trkpt lat="44.6693955" lon="7.8608308"><ele>217.0</ele><time>2026-03-29T09:49:47.186Z</time></trkpt><trkpt lat="44.6692417" lon="7.8607142"><ele>218.0</ele><time>2026-03-29T09:49:48.184Z</time></trkpt><trkpt lat="44.6690917" lon="7.8605865"><ele>218.0</ele><time>2026-03-29T09:49:49.186Z</time></trkpt><trkpt lat="44.6689452" lon="7.8604488"><ele>218.0</ele><time>2026-03-29T09:49:50.184Z</time></trkpt><trkpt lat="44.6688017" lon="7.8603023"><ele>218.0</ele><time>2026-03-29T09:49:51.184Z</time></trkpt><trkpt lat="44.668661" lon="7.8601457"><ele>217.0</ele><time>2026-03-29T09:49:52.184Z</time></trkpt><trkpt lat="44.6685242" lon="7.8599775"><ele>216.0</ele><time>2026-03-29T09:49:53.183Z</time></trkpt><trkpt lat="44.6683917" lon="7.8597972"><ele>215.0</ele><time>2026-03-29T09:49:54.183Z</time></trkpt><trkpt lat="44.6682632" lon="7.8596035"><ele>215.0</ele><time>2026-03-29T09:49:55.182Z</time></trkpt><trkpt lat="44.6681387" lon="7.8593943"><ele>215.0</ele><time>2026-03-29T09:49:56.183Z</time></trkpt><trkpt lat="44.6680185" lon="7.859168"><ele>215.0</ele><time>2026-03-29T09:49:57.182Z</time></trkpt><trkpt lat="44.667904" lon="7.8589247"><ele>215.33333333333334</ele><time>2026-03-29T09:49:58.182Z</time></trkpt><trkpt lat="44.6677965" lon="7.8586667"><ele>215.66666666666669</ele><time>2026-03-29T09:49:59.185Z</time></trkpt><trkpt lat="44.6676963" lon="7.8584002"><ele>216.0</ele><time>2026-03-29T09:50:00.185Z</time></trkpt><trkpt lat="44.6676017" lon="7.8581282"><ele>216.0</ele><time>2026-03-29T09:50:01.185Z</time></trkpt><trkpt lat="44.6675087" lon="7.8578542"><ele>216.0</ele><time>2026-03-29T09:50:02.185Z</time></trkpt><trkpt lat="44.6674218" lon="7.8575978"><ele>216.0</ele><time>2026-03-29T09:50:03.183Z</time></trkpt><trkpt lat="44.6673412" lon="7.8573577"><ele>216.0</ele><time>2026-03-29T09:50:04.184Z</time></trkpt><trkpt lat="44.6672663" lon="7.8571332"><ele>216.0</ele><time>2026-03-29T09:50:05.183Z</time></trkpt><trkpt lat="44.6671918" lon="7.8569113"><ele>216.0</ele><time>2026-03-29T09:50:06.185Z</time></trkpt><trkpt lat="44.6671145" lon="7.8566845"><ele>216.0</ele><time>2026-03-29T09:50:07.182Z</time></trkpt><trkpt lat="44.6670377" lon="7.856458"><ele>216.0</ele><time>2026-03-29T09:50:08.183Z</time></trkpt><trkpt lat="44.6669683" lon="7.8562485"><ele>216.0</ele><time>2026-03-29T09:50:09.184Z</time></trkpt><trkpt lat="44.6669062" lon="7.8560568"><ele>216.25</ele><time>2026-03-29T09:50:10.183Z</time></trkpt><trkpt lat="44.6668507" lon="7.8558798"><ele>216.5</ele><time>2026-03-29T09:50:11.183Z</time></trkpt><trkpt lat="44.6668023" lon="7.8557147"><ele>216.75</ele><time>2026-03-29T09:50:12.183Z</time></trkpt><trkpt lat="44.6667568" lon="7.8555482"><ele>217.0</ele><time>2026-03-29T09:50:13.183Z</time></trkpt><trkpt lat="44.6667135" lon="7.8553825"><ele>217.0</ele><time>2026-03-29T09:50:14.185Z</time></trkpt><trkpt lat="44.6666737" lon="7.8552237"><ele>217.0</ele><time>2026-03-29T09:50:15.184Z</time></trkpt><trkpt lat="44.6666407" lon="7.8550758"><ele>217.0</ele><time>2026-03-29T09:50:16.183Z</time></trkpt><trkpt lat="44.6666197" lon="7.8549403"><ele>217.0</ele><time>2026-03-29T09:50:17.183Z</time></trkpt><trkpt lat="44.6666145" lon="7.8548217"><ele>217.0</ele><time>2026-03-29T09:50:18.183Z</time></trkpt><trkpt lat="44.6666225" lon="7.8547227"><ele>217.0</ele><time>2026-03-29T09:50:19.185Z</time></trkpt><trkpt lat="44.6666555" lon="7.8545713"><ele>217.0</ele><time>2026-03-29T09:50:21.182Z</time></trkpt><trkpt lat="44.6666723" lon="7.8544388"><ele>217.0</ele><time>2026-03-29T09:50:23.183Z</time></trkpt><trkpt lat="44.6666435" lon="7.854312"><ele>217.0</ele><time>2026-03-29T09:50:25.183Z</time></trkpt><trkpt lat="44.6665648" lon="7.8542495"><ele>217.0</ele><time>2026-03-29T09:50:27.185Z</time></trkpt><trkpt lat="44.6664472" lon="7.8542937"><ele>216.99999999999997</ele><time>2026-03-29T09:50:29.183Z</time></trkpt><trkpt lat="44.6663833" lon="7.8543572"><ele>217.0</ele><time>2026-03-29T09:50:30.183Z</time></trkpt><trkpt lat="44.6663132" lon="7.854419"><ele>217.0</ele><time>2026-03-29T09:50:31.185Z</time></trkpt><trkpt lat="44.6662327" lon="7.8544645"><ele>217.0</ele><time>2026-03-29T09:50:32.185Z</time></trkpt><trkpt lat="44.666142" lon="7.8544955"><ele>216.99999999999997</ele><time>2026-03-29T09:50:33.184Z</time></trkpt><trkpt lat="44.6660435" lon="7.8545155"><ele>217.0</ele><time>2026-03-29T09:50:34.184Z</time></trkpt><trkpt lat="44.665942" lon="7.8545288"><ele>217.5</ele><time>2026-03-29T09:50:35.184Z</time></trkpt><trkpt lat="44.6658353" lon="7.8545395"><ele>218.0</ele><time>2026-03-29T09:50:36.185Z</time></trkpt><trkpt lat="44.6657232" lon="7.8545485"><ele>218.5</ele><time>2026-03-29T09:50:37.185Z</time></trkpt><trkpt lat="44.6656088" lon="7.8545512"><ele>219.0</ele><time>2026-03-29T09:50:38.182Z</time></trkpt><trkpt lat="44.6654918" lon="7.8545487"><ele>219.0</ele><time>2026-03-29T09:50:39.184Z</time></trkpt><trkpt lat="44.6653713" lon="7.8545453"><ele>219.0</ele><time>2026-03-29T09:50:40.184Z</time></trkpt><trkpt lat="44.665249" lon="7.8545427"><ele>219.0</ele><time>2026-03-29T09:50:41.184Z</time></trkpt><trkpt lat="44.6651218" lon="7.8545412"><ele>219.0</ele><time>2026-03-29T09:50:42.185Z</time></trkpt><trkpt lat="44.6649902" lon="7.8545392"><ele>219.0</ele><time>2026-03-29T09:50:43.184Z</time></trkpt><trkpt lat="44.6648545" lon="7.8545375"><ele>219.0</ele><time>2026-03-29T09:50:44.181Z</time></trkpt><trkpt lat="44.6647157" lon="7.8545362"><ele>219.0</ele><time>2026-03-29T09:50:45.181Z</time></trkpt><trkpt lat="44.6645798" lon="7.8545345"><ele>219.0</ele><time>2026-03-29T09:50:46.184Z</time></trkpt><trkpt lat="44.6644493" lon="7.8545327"><ele>219.25</ele><time>2026-03-29T09:50:47.181Z</time></trkpt><trkpt lat="44.6643182" lon="7.8545288"><ele>219.5</ele><time>2026-03-29T09:50:48.183Z</time></trkpt><trkpt lat="44.6641857" lon="7.8545247"><ele>219.75</ele><time>2026-03-29T09:50:49.185Z</time></trkpt><trkpt lat="44.6640528" lon="7.8545228"><ele>220.0</ele><time>2026-03-29T09:50:50.182Z</time></trkpt><trkpt lat="44.6639197" lon="7.8545228"><ele>220.0</ele><time>2026-03-29T09:50:51.182Z</time></trkpt><trkpt lat="44.6637887" lon="7.854524"><ele>220.0</ele><time>2026-03-29T09:50:52.185Z</time></trkpt><trkpt lat="44.6636628" lon="7.8545248"><ele>220.0</ele><time>2026-03-29T09:50:53.183Z</time></trkpt><trkpt lat="44.6635383" lon="7.8545242"><ele>220.0</ele><time>2026-03-29T09:50:54.184Z</time></trkpt><trkpt lat="44.6634158" lon="7.8545222"><ele>219.25</ele><time>2026-03-29T09:50:55.186Z</time></trkpt><trkpt lat="44.6632942" lon="7.8545197"><ele>218.5</ele><time>2026-03-29T09:50:56.187Z</time></trkpt><trkpt lat="44.663174" lon="7.8545168"><ele>217.75</ele><time>2026-03-29T09:50:57.184Z</time></trkpt><trkpt lat="44.6630562" lon="7.8545145"><ele>217.0</ele><time>2026-03-29T09:50:58.184Z</time></trkpt><trkpt lat="44.6629517" lon="7.8545138"><ele>216.99999999999997</ele><time>2026-03-29T09:50:59.183Z</time></trkpt><trkpt lat="44.662859" lon="7.8545132"><ele>217.0</ele><time>2026-03-29T09:51:00.184Z</time></trkpt><trkpt lat="44.6627803" lon="7.854503"><ele>217.0</ele><time>2026-03-29T09:51:01.185Z</time></trkpt><trkpt lat="44.6627153" lon="7.8544768"><ele>217.0</ele><time>2026-03-29T09:51:02.183Z</time></trkpt><trkpt lat="44.662658" lon="7.854431"><ele>216.99999999999997</ele><time>2026-03-29T09:51:03.171Z</time></trkpt><trkpt lat="44.6626018" lon="7.8543685"><ele>217.0</ele><time>2026-03-29T09:51:04.184Z</time></trkpt><trkpt lat="44.6625397" lon="7.8543025"><ele>216.99999999999997</ele><time>2026-03-29T09:51:05.187Z</time></trkpt><trkpt lat="44.6624692" lon="7.8542507"><ele>217.0</ele><time>2026-03-29T09:51:06.185Z</time></trkpt><trkpt lat="44.66239" lon="7.8542272"><ele>217.0</ele><time>2026-03-29T09:51:07.193Z</time></trkpt><trkpt lat="44.6623117" lon="7.8542355"><ele>217.0</ele><time>2026-03-29T09:51:08.177Z</time></trkpt><trkpt lat="44.66225" lon="7.8542672"><ele>216.99999999999997</ele><time>2026-03-29T09:51:09.177Z</time></trkpt><trkpt lat="44.6621888" lon="7.8543345"><ele>217.0</ele><time>2026-03-29T09:51:10.18Z</time></trkpt><trkpt lat="44.6621247" lon="7.8544113"><ele>217.0</ele><time>2026-03-29T09:51:11.18Z</time></trkpt><trkpt lat="44.662043" lon="7.8544762"><ele>217.0</ele><time>2026-03-29T09:51:12.181Z</time></trkpt><trkpt lat="44.6619407" lon="7.854517"><ele>217.0</ele><time>2026-03-29T09:51:13.182Z</time></trkpt><trkpt lat="44.6618257" lon="7.8545357"><ele>217.0</ele><time>2026-03-29T09:51:14.182Z</time></trkpt><trkpt lat="44.6617083" lon="7.8545468"><ele>217.0</ele><time>2026-03-29T09:51:15.182Z</time></trkpt><trkpt lat="44.6615805" lon="7.8545592"><ele>217.25</ele><time>2026-03-29T09:51:16.184Z</time></trkpt><trkpt lat="44.6614418" lon="7.8545743"><ele>217.5</ele><time>2026-03-29T09:51:17.181Z</time></trkpt><trkpt lat="44.6612988" lon="7.8545955"><ele>217.75</ele><time>2026-03-29T09:51:18.181Z</time></trkpt><trkpt lat="44.6611602" lon="7.8546252"><ele>218.0</ele><time>2026-03-29T09:51:19.183Z</time></trkpt><trkpt lat="44.6610235" lon="7.8546632"><ele>215.5</ele><time>2026-03-29T09:51:20.181Z</time></trkpt><trkpt lat="44.6608897" lon="7.8547052"><ele>213.0</ele><time>2026-03-29T09:51:21.182Z</time></trkpt><trkpt lat="44.660756" lon="7.8547513"><ele>210.5</ele><time>2026-03-29T09:51:22.185Z</time></trkpt><trkpt lat="44.6606198" lon="7.8548043"><ele>208.0</ele><time>2026-03-29T09:51:23.181Z</time></trkpt><trkpt lat="44.66048" lon="7.8548602"><ele>208.0</ele><time>2026-03-29T09:51:24.182Z</time></trkpt><trkpt lat="44.6603378" lon="7.8549173"><ele>208.0</ele><time>2026-03-29T09:51:25.186Z</time></trkpt><trkpt lat="44.6601952" lon="7.854975"><ele>208.0</ele><time>2026-03-29T09:51:26.181Z</time></trkpt><trkpt lat="44.6600545" lon="7.8550303"><ele>208.0</ele><time>2026-03-29T09:51:27.181Z</time></trkpt><trkpt lat="44.6599147" lon="7.8550853"><ele>207.25</ele><time>2026-03-29T09:51:28.183Z</time></trkpt><trkpt lat="44.6597762" lon="7.855141"><ele>206.5</ele><time>2026-03-29T09:51:29.179Z</time></trkpt><trkpt lat="44.65964" lon="7.8551948"><ele>205.75</ele><time>2026-03-29T09:51:30.182Z</time></trkpt><trkpt lat="44.6595033" lon="7.8552465"><ele>205.0</ele><time>2026-03-29T09:51:31.181Z</time></trkpt><trkpt lat="44.6593663" lon="7.8552977"><ele>204.5</ele><time>2026-03-29T09:51:32.18Z</time></trkpt><trkpt lat="44.6592282" lon="7.8553507"><ele>204.0</ele><time>2026-03-29T09:51:33.179Z</time></trkpt><trkpt lat="44.6590908" lon="7.8554042"><ele>203.5</ele><time>2026-03-29T09:51:34.179Z</time></trkpt><trkpt lat="44.6589603" lon="7.855455"><ele>203.0</ele><time>2026-03-29T09:51:35.18Z</time></trkpt><trkpt lat="44.6588372" lon="7.8555032"><ele>203.0</ele><time>2026-03-29T09:51:36.179Z</time></trkpt><trkpt lat="44.6587137" lon="7.8555502"><ele>203.0</ele><time>2026-03-29T09:51:37.182Z</time></trkpt><trkpt lat="44.6585908" lon="7.8555963"><ele>203.0</ele><time>2026-03-29T09:51:38.18Z</time></trkpt><trkpt lat="44.6584775" lon="7.8556393"><ele>203.0</ele><time>2026-03-29T09:51:39.181Z</time></trkpt><trkpt lat="44.6583705" lon="7.85568"><ele>204.75</ele><time>2026-03-29T09:51:40.185Z</time></trkpt><trkpt lat="44.6582618" lon="7.8557203"><ele>206.5</ele><time>2026-03-29T09:51:41.181Z</time></trkpt><trkpt lat="44.6581497" lon="7.8557608"><ele>208.25</ele><time>2026-03-29T09:51:42.18Z</time></trkpt><trkpt lat="44.6580343" lon="7.8558005"><ele>210.0</ele><time>2026-03-29T09:51:43.181Z</time></trkpt><trkpt lat="44.6579172" lon="7.8558415"><ele>210.0</ele><time>2026-03-29T09:51:44.18Z</time></trkpt><trkpt lat="44.6578053" lon="7.8558803"><ele>210.0</ele><time>2026-03-29T09:51:45.18Z</time></trkpt><trkpt lat="44.657702" lon="7.8559167"><ele>210.0</ele><time>2026-03-29T09:51:46.181Z</time></trkpt><trkpt lat="44.6576082" lon="7.8559543"><ele>210.0</ele><time>2026-03-29T09:51:47.181Z</time></trkpt><trkpt lat="44.6575237" lon="7.8559918"><ele>210.0</ele><time>2026-03-29T09:51:48.181Z</time></trkpt><trkpt lat="44.6574467" lon="7.8560328"><ele>210.33333333333334</ele><time>2026-03-29T09:51:49.181Z</time></trkpt><trkpt lat="44.6573745" lon="7.8560813"><ele>210.66666666666669</ele><time>2026-03-29T09:51:50.181Z</time></trkpt><trkpt lat="44.6573062" lon="7.8561383"><ele>211.0</ele><time>2026-03-29T09:51:51.182Z</time></trkpt><trkpt lat="44.6572452" lon="7.8562052"><ele>211.33333333333334</ele><time>2026-03-29T09:51:52.182Z</time></trkpt><trkpt lat="44.657186" lon="7.8562888"><ele>211.66666666666669</ele><time>2026-03-29T09:51:53.181Z</time></trkpt><trkpt lat="44.6571325" lon="7.8563992"><ele>212.0</ele><time>2026-03-29T09:51:54.181Z</time></trkpt><trkpt lat="44.6570883" lon="7.8565358"><ele>212.0</ele><time>2026-03-29T09:51:55.181Z</time></trkpt><trkpt lat="44.6570567" lon="7.8566802"><ele>212.0</ele><time>2026-03-29T09:51:56.18Z</time></trkpt><trkpt lat="44.6570343" lon="7.8568342"><ele>212.0</ele><time>2026-03-29T09:51:57.178Z</time></trkpt><trkpt lat="44.6570193" lon="7.8569918"><ele>212.0</ele><time>2026-03-29T09:51:58.179Z</time></trkpt><trkpt lat="44.6570067" lon="7.8571537"><ele>212.0</ele><time>2026-03-29T09:51:59.179Z</time></trkpt><trkpt lat="44.6569948" lon="7.8573227"><ele>212.0</ele><time>2026-03-29T09:52:00.178Z</time></trkpt><trkpt lat="44.656981" lon="7.8575007"><ele>212.0</ele><time>2026-03-29T09:52:01.181Z</time></trkpt><trkpt lat="44.6569695" lon="7.8576795"><ele>212.0</ele><time>2026-03-29T09:52:02.18Z</time></trkpt><trkpt lat="44.6569578" lon="7.8578598"><ele>212.0</ele><time>2026-03-29T09:52:03.181Z</time></trkpt><trkpt lat="44.6569453" lon="7.8580422"><ele>213.5</ele><time>2026-03-29T09:52:04.18Z</time></trkpt><trkpt lat="44.6569305" lon="7.8582285"><ele>215.0</ele><time>2026-03-29T09:52:05.182Z</time></trkpt><trkpt lat="44.6569163" lon="7.8584177"><ele>216.5</ele><time>2026-03-29T09:52:06.182Z</time></trkpt><trkpt lat="44.6569032" lon="7.8586008"><ele>218.0</ele><time>2026-03-29T09:52:07.182Z</time></trkpt><trkpt lat="44.6568907" lon="7.8587815"><ele>218.5</ele><time>2026-03-29T09:52:08.182Z</time></trkpt><trkpt lat="44.6568793" lon="7.8589653"><ele>219.0</ele><time>2026-03-29T09:52:09.181Z</time></trkpt><trkpt lat="44.6568662" lon="7.8591497"><ele>219.5</ele><time>2026-03-29T09:52:10.181Z</time></trkpt><trkpt lat="44.6568502" lon="7.859338"><ele>220.0</ele><time>2026-03-29T09:52:11.182Z</time></trkpt><trkpt lat="44.6568342" lon="7.8595307"><ele>220.0</ele><time>2026-03-29T09:52:12.182Z</time></trkpt><trkpt lat="44.6568187" lon="7.8597247"><ele>220.0</ele><time>2026-03-29T09:52:13.183Z</time></trkpt><trkpt lat="44.6568032" lon="7.859921"><ele>220.0</ele><time>2026-03-29T09:52:14.184Z</time></trkpt><trkpt lat="44.6567905" lon="7.8601198"><ele>220.0</ele><time>2026-03-29T09:52:15.183Z</time></trkpt><trkpt lat="44.6567793" lon="7.8603178"><ele>220.0</ele><time>2026-03-29T09:52:16.183Z</time></trkpt><trkpt lat="44.6567642" lon="7.8605143"><ele>220.0</ele><time>2026-03-29T09:52:17.183Z</time></trkpt><trkpt lat="44.6567472" lon="7.8607048"><ele>220.0</ele><time>2026-03-29T09:52:18.184Z</time></trkpt><trkpt lat="44.6567322" lon="7.8608873"><ele>220.0</ele><time>2026-03-29T09:52:19.184Z</time></trkpt><trkpt lat="44.6567197" lon="7.8610677"><ele>219.25</ele><time>2026-03-29T09:52:20.185Z</time></trkpt><trkpt lat="44.6567077" lon="7.8612465"><ele>218.5</ele><time>2026-03-29T09:52:21.184Z</time></trkpt><trkpt lat="44.656694" lon="7.8614328"><ele>217.75</ele><time>2026-03-29T09:52:22.181Z</time></trkpt><trkpt lat="44.6566805" lon="7.8616287"><ele>217.0</ele><time>2026-03-29T09:52:23.18Z</time></trkpt><trkpt lat="44.6566663" lon="7.8618273"><ele>216.75</ele><time>2026-03-29T09:52:24.18Z</time></trkpt><trkpt lat="44.6566507" lon="7.8620237"><ele>216.5</ele><time>2026-03-29T09:52:25.182Z</time></trkpt><trkpt lat="44.6566343" lon="7.8622138"><ele>216.25</ele><time>2026-03-29T09:52:26.185Z</time></trkpt><trkpt lat="44.656618" lon="7.8623997"><ele>216.0</ele><time>2026-03-29T09:52:27.185Z</time></trkpt><trkpt lat="44.6566023" lon="7.862582"><ele>215.0</ele><time>2026-03-29T09:52:28.184Z</time></trkpt><trkpt lat="44.6565837" lon="7.862765"><ele>214.0</ele><time>2026-03-29T09:52:29.182Z</time></trkpt><trkpt lat="44.6565588" lon="7.8629472"><ele>213.0</ele><time>2026-03-29T09:52:30.184Z</time></trkpt><trkpt lat="44.6565278" lon="7.8631248"><ele>212.0</ele><time>2026-03-29T09:52:31.183Z</time></trkpt><trkpt lat="44.6564902" lon="7.8632968"><ele>211.0</ele><time>2026-03-29T09:52:32.182Z</time></trkpt><trkpt lat="44.6564458" lon="7.8634623"><ele>210.0</ele><time>2026-03-29T09:52:33.183Z</time></trkpt><trkpt lat="44.6563953" lon="7.8636238"><ele>209.0</ele><time>2026-03-29T09:52:34.185Z</time></trkpt><trkpt lat="44.65634" lon="7.8637835"><ele>208.0</ele><time>2026-03-29T09:52:35.183Z</time></trkpt><trkpt lat="44.6562792" lon="7.863943"><ele>208.0</ele><time>2026-03-29T09:52:36.184Z</time></trkpt><trkpt lat="44.656211" lon="7.8641027"><ele>208.0</ele><time>2026-03-29T09:52:37.183Z</time></trkpt><trkpt lat="44.6561345" lon="7.8642598"><ele>208.0</ele><time>2026-03-29T09:52:38.183Z</time></trkpt><trkpt lat="44.6560507" lon="7.8644135"><ele>208.0</ele><time>2026-03-29T09:52:39.183Z</time></trkpt><trkpt lat="44.65596" lon="7.8645638"><ele>209.0</ele><time>2026-03-29T09:52:40.184Z</time></trkpt><trkpt lat="44.6558657" lon="7.8647055"><ele>210.0</ele><time>2026-03-29T09:52:41.184Z</time></trkpt><trkpt lat="44.6557702" lon="7.8648337"><ele>211.0</ele><time>2026-03-29T09:52:42.181Z</time></trkpt><trkpt lat="44.6556708" lon="7.8649538"><ele>212.0</ele><time>2026-03-29T09:52:43.183Z</time></trkpt><trkpt lat="44.655567" lon="7.8650672"><ele>211.0</ele><time>2026-03-29T09:52:44.182Z</time></trkpt><trkpt lat="44.6554583" lon="7.8651733"><ele>210.0</ele><time>2026-03-29T09:52:45.185Z</time></trkpt><trkpt lat="44.6553453" lon="7.8652757"><ele>209.0</ele><time>2026-03-29T09:52:46.18Z</time></trkpt><trkpt lat="44.6552285" lon="7.8653737"><ele>208.0</ele><time>2026-03-29T09:52:47.18Z</time></trkpt><trkpt lat="44.655105" lon="7.8654645"><ele>208.0</ele><time>2026-03-29T09:52:48.18Z</time></trkpt><trkpt lat="44.6549758" lon="7.8655458"><ele>208.0</ele><time>2026-03-29T09:52:49.18Z</time></trkpt><trkpt lat="44.6548438" lon="7.8656167"><ele>208.0</ele><time>2026-03-29T09:52:50.18Z</time></trkpt><trkpt lat="44.6547095" lon="7.8656772"><ele>208.0</ele><time>2026-03-29T09:52:51.182Z</time></trkpt><trkpt lat="44.6545797" lon="7.865724"><ele>209.0</ele><time>2026-03-29T09:52:52.181Z</time></trkpt><trkpt lat="44.6544507" lon="7.8657617"><ele>210.0</ele><time>2026-03-29T09:52:53.181Z</time></trkpt><trkpt lat="44.6543127" lon="7.8658002"><ele>211.0</ele><time>2026-03-29T09:52:54.18Z</time></trkpt><trkpt lat="44.654159" lon="7.865843"><ele>212.0</ele><time>2026-03-29T09:52:55.18Z</time></trkpt><trkpt lat="44.6539742" lon="7.8658795"><ele>212.0</ele><time>2026-03-29T09:52:56.18Z</time></trkpt><trkpt lat="44.6537557" lon="7.8659067"><ele>212.0</ele><time>2026-03-29T09:52:57.18Z</time></trkpt><trkpt lat="44.6535167" lon="7.8659335"><ele>211.5</ele><time>2026-03-29T09:52:58.181Z</time></trkpt><trkpt lat="44.653254" lon="7.865957"><ele>211.0</ele><time>2026-03-29T09:52:59.18Z</time></trkpt><trkpt lat="44.6529975" lon="7.8659692"><ele>211.5</ele><time>2026-03-29T09:53:00.18Z</time></trkpt><trkpt lat="44.6527602" lon="7.8659817"><ele>212.0</ele><time>2026-03-29T09:53:01.181Z</time></trkpt><trkpt lat="44.6525433" lon="7.8660015"><ele>212.0</ele><time>2026-03-29T09:53:02.181Z</time></trkpt><trkpt lat="44.6523447" lon="7.866026"><ele>212.0</ele><time>2026-03-29T09:53:03.181Z</time></trkpt><trkpt lat="44.6521618" lon="7.8660488"><ele>212.0</ele><time>2026-03-29T09:53:04.182Z</time></trkpt><trkpt lat="44.65199" lon="7.8660602"><ele>212.33333333333334</ele><time>2026-03-29T09:53:05.18Z</time></trkpt><trkpt lat="44.6518187" lon="7.8660478"><ele>212.66666666666669</ele><time>2026-03-29T09:53:06.181Z</time></trkpt><trkpt lat="44.6516445" lon="7.8660087"><ele>213.0</ele><time>2026-03-29T09:53:07.182Z</time></trkpt><trkpt lat="44.651471" lon="7.865948"><ele>214.25</ele><time>2026-03-29T09:53:08.181Z</time></trkpt><trkpt lat="44.6513143" lon="7.8658808"><ele>215.5</ele><time>2026-03-29T09:53:09.184Z</time></trkpt><trkpt lat="44.6511783" lon="7.8658128"><ele>216.75</ele><time>2026-03-29T09:53:10.181Z</time></trkpt><trkpt lat="44.6510602" lon="7.865742"><ele>218.0</ele><time>2026-03-29T09:53:11.18Z</time></trkpt><trkpt lat="44.6509645" lon="7.865658"><ele>218.2</ele><time>2026-03-29T09:53:12.182Z</time></trkpt><trkpt lat="44.6509047" lon="7.8655518"><ele>218.4</ele><time>2026-03-29T09:53:13.181Z</time></trkpt><trkpt lat="44.6508862" lon="7.8654347"><ele>218.59999999999997</ele><time>2026-03-29T09:53:14.182Z</time></trkpt><trkpt lat="44.6509092" lon="7.8653112"><ele>218.79999999999998</ele><time>2026-03-29T09:53:15.183Z</time></trkpt><trkpt lat="44.6509698" lon="7.8651877"><ele>219.0</ele><time>2026-03-29T09:53:16.185Z</time></trkpt><trkpt lat="44.6510603" lon="7.8650882"><ele>222.66666666666669</ele><time>2026-03-29T09:53:17.183Z</time></trkpt><trkpt lat="44.6511908" lon="7.8650012"><ele>226.33333333333334</ele><time>2026-03-29T09:53:18.182Z</time></trkpt><trkpt lat="44.6513463" lon="7.8649323"><ele>230.0</ele><time>2026-03-29T09:53:19.183Z</time></trkpt><trkpt lat="44.6515242" lon="7.8648705"><ele>230.0</ele><time>2026-03-29T09:53:20.181Z</time></trkpt><trkpt lat="44.6517068" lon="7.8648227"><ele>230.0</ele><time>2026-03-29T09:53:21.182Z</time></trkpt><trkpt lat="44.6518793" lon="7.8648132"><ele>230.0</ele><time>2026-03-29T09:53:22.183Z</time></trkpt><trkpt lat="44.6520317" lon="7.8648403"><ele>231.8</ele><time>2026-03-29T09:53:23.182Z</time></trkpt><trkpt lat="44.652163" lon="7.8648817"><ele>233.6</ele><time>2026-03-29T09:53:24.181Z</time></trkpt><trkpt lat="44.6522728" lon="7.8649122"><ele>235.39999999999998</ele><time>2026-03-29T09:53:25.183Z</time></trkpt><trkpt lat="44.6523598" lon="7.8649085"><ele>237.2</ele><time>2026-03-29T09:53:26.18Z</time></trkpt><trkpt lat="44.6524218" lon="7.8648613"><ele>239.0</ele><time>2026-03-29T09:53:27.182Z</time></trkpt><trkpt lat="44.6524393" lon="7.86469"><ele>239.0</ele><time>2026-03-29T09:53:29.182Z</time></trkpt><trkpt lat="44.6523907" lon="7.864609"><ele>238.99999999999997</ele><time>2026-03-29T09:53:30.182Z</time></trkpt><trkpt lat="44.6523055" lon="7.864551"><ele>238.99999999999997</ele><time>2026-03-29T09:53:31.183Z</time></trkpt><trkpt lat="44.6521875" lon="7.864508"><ele>239.0</ele><time>2026-03-29T09:53:32.181Z</time></trkpt><trkpt lat="44.6520458" lon="7.8644617"><ele>239.0</ele><time>2026-03-29T09:53:33.182Z</time></trkpt><trkpt lat="44.651883" lon="7.8643872"><ele>242.66666666666669</ele><time>2026-03-29T09:53:34.183Z</time></trkpt><trkpt lat="44.6517075" lon="7.8642792"><ele>246.33333333333331</ele><time>2026-03-29T09:53:35.18Z</time></trkpt><trkpt lat="44.651528" lon="7.8641527"><ele>250.0</ele><time>2026-03-29T09:53:36.179Z</time></trkpt><trkpt lat="44.6513465" lon="7.8640263"><ele>250.0</ele><time>2026-03-29T09:53:37.18Z</time></trkpt><trkpt lat="44.6511478" lon="7.8639005"><ele>250.0</ele><time>2026-03-29T09:53:38.179Z</time></trkpt><trkpt lat="44.6509437" lon="7.8637797"><ele>250.0</ele><time>2026-03-29T09:53:39.182Z</time></trkpt><trkpt lat="44.650735" lon="7.8636578"><ele>252.0</ele><time>2026-03-29T09:53:40.181Z</time></trkpt><trkpt lat="44.6505263" lon="7.8635368"><ele>254.0</ele><time>2026-03-29T09:53:41.182Z</time></trkpt><trkpt lat="44.650322" lon="7.8634205"><ele>256.0</ele><time>2026-03-29T09:53:42.182Z</time></trkpt><trkpt lat="44.6501277" lon="7.8633113"><ele>256.0</ele><time>2026-03-29T09:53:43.183Z</time></trkpt><trkpt lat="44.6499432" lon="7.8632095"><ele>256.0</ele><time>2026-03-29T09:53:44.182Z</time></trkpt><trkpt lat="44.6497688" lon="7.8631118"><ele>256.0</ele><time>2026-03-29T09:53:45.182Z</time></trkpt><trkpt lat="44.6496078" lon="7.8630215"><ele>254.75</ele><time>2026-03-29T09:53:46.182Z</time></trkpt><trkpt lat="44.6494573" lon="7.8629502"><ele>253.5</ele><time>2026-03-29T09:53:47.182Z</time></trkpt><trkpt lat="44.6493182" lon="7.8629112"><ele>252.25</ele><time>2026-03-29T09:53:48.182Z</time></trkpt><trkpt lat="44.649192" lon="7.8628997"><ele>251.0</ele><time>2026-03-29T09:53:49.181Z</time></trkpt><trkpt lat="44.6490858" lon="7.8628967"><ele>251.0</ele><time>2026-03-29T09:53:50.182Z</time></trkpt><trkpt lat="44.649004" lon="7.862887"><ele>251.00000000000003</ele><time>2026-03-29T09:53:51.181Z</time></trkpt><trkpt lat="44.6489367" lon="7.8627945"><ele>251.00000000000003</ele><time>2026-03-29T09:53:53.182Z</time></trkpt><trkpt lat="44.6490007" lon="7.8627113"><ele>251.0</ele><time>2026-03-29T09:53:55.182Z</time></trkpt><trkpt lat="44.6490812" lon="7.862703"><ele>251.0</ele><time>2026-03-29T09:53:56.181Z</time></trkpt><trkpt lat="44.6491902" lon="7.8627155"><ele>251.0</ele><time>2026-03-29T09:53:57.18Z</time></trkpt><trkpt lat="44.6493163" lon="7.8627292"><ele>251.0</ele><time>2026-03-29T09:53:58.18Z</time></trkpt><trkpt lat="44.649461" lon="7.8627362"><ele>251.0</ele><time>2026-03-29T09:53:59.18Z</time></trkpt><trkpt lat="44.6496177" lon="7.8627328"><ele>251.0</ele><time>2026-03-29T09:54:00.18Z</time></trkpt><trkpt lat="44.649765" lon="7.862725"><ele>252.25</ele><time>2026-03-29T09:54:01.18Z</time></trkpt><trkpt lat="44.649901" lon="7.862716"><ele>253.5</ele><time>2026-03-29T09:54:02.179Z</time></trkpt><trkpt lat="44.6500293" lon="7.8627065"><ele>254.75</ele><time>2026-03-29T09:54:03.182Z</time></trkpt><trkpt lat="44.6501538" lon="7.8627013"><ele>256.0</ele><time>2026-03-29T09:54:04.182Z</time></trkpt><trkpt lat="44.6502825" lon="7.8627018"><ele>258.25</ele><time>2026-03-29T09:54:05.183Z</time></trkpt><trkpt lat="44.6504183" lon="7.8627092"><ele>260.5</ele><time>2026-03-29T09:54:06.182Z</time></trkpt><trkpt lat="44.6505575" lon="7.8627243"><ele>262.75</ele><time>2026-03-29T09:54:07.184Z</time></trkpt><trkpt lat="44.650696" lon="7.8627482"><ele>265.0</ele><time>2026-03-29T09:54:08.183Z</time></trkpt><trkpt lat="44.650831" lon="7.8627787"><ele>265.0</ele><time>2026-03-29T09:54:09.183Z</time></trkpt><trkpt lat="44.6509518" lon="7.8628115"><ele>265.0</ele><time>2026-03-29T09:54:10.183Z</time></trkpt><trkpt lat="44.6510627" lon="7.8628482"><ele>265.0</ele><time>2026-03-29T09:54:11.18Z</time></trkpt><trkpt lat="44.6511662" lon="7.8628872"><ele>265.0</ele><time>2026-03-29T09:54:12.179Z</time></trkpt><trkpt lat="44.6512707" lon="7.8629157"><ele>266.3333333333333</ele><time>2026-03-29T09:54:13.18Z</time></trkpt><trkpt lat="44.6513675" lon="7.8629405"><ele>267.66666666666663</ele><time>2026-03-29T09:54:14.181Z</time></trkpt><trkpt lat="44.651453" lon="7.8629663"><ele>269.0</ele><time>2026-03-29T09:54:15.183Z</time></trkpt><trkpt lat="44.6515375" lon="7.8629915"><ele>270.3333333333333</ele><time>2026-03-29T09:54:16.182Z</time></trkpt><trkpt lat="44.651622" lon="7.8630187"><ele>271.6666666666667</ele><time>2026-03-29T09:54:17.182Z</time></trkpt><trkpt lat="44.651706" lon="7.8630483"><ele>273.0</ele><time>2026-03-29T09:54:18.182Z</time></trkpt><trkpt lat="44.651787" lon="7.8630787"><ele>273.0</ele><time>2026-03-29T09:54:19.181Z</time></trkpt><trkpt lat="44.65186" lon="7.863102"><ele>273.0</ele><time>2026-03-29T09:54:20.182Z</time></trkpt><trkpt lat="44.6519222" lon="7.8631198"><ele>273.0</ele><time>2026-03-29T09:54:21.182Z</time></trkpt><trkpt lat="44.6520045" lon="7.8631163"><ele>273.0</ele><time>2026-03-29T09:54:34.18Z</time></trkpt><trkpt lat="44.6520863" lon="7.8630655"><ele>273.0</ele><time>2026-03-29T09:54:36.182Z</time></trkpt><trkpt lat="44.65214" lon="7.8629753"><ele>273.0</ele><time>2026-03-29T09:54:38.182Z</time></trkpt><trkpt lat="44.6521397" lon="7.8628753"><ele>273.0</ele><time>2026-03-29T09:54:43.181Z</time></trkpt><trkpt lat="44.6520408" lon="7.8628195"><ele>273.0</ele><time>2026-03-29T09:54:45.181Z</time></trkpt><trkpt lat="44.6519617" lon="7.8628067"><ele>273.0</ele><time>2026-03-29T09:54:46.182Z</time></trkpt><trkpt lat="44.6518765" lon="7.8627898"><ele>273.0</ele><time>2026-03-29T09:54:47.183Z</time></trkpt><trkpt lat="44.65178" lon="7.8627627"><ele>273.0</ele><time>2026-03-29T09:54:48.182Z</time></trkpt><trkpt lat="44.6516865" lon="7.8627343"><ele>273.0</ele><time>2026-03-29T09:54:49.18Z</time></trkpt><trkpt lat="44.6516015" lon="7.8627128"><ele>273.0</ele><time>2026-03-29T09:54:50.18Z</time></trkpt><trkpt lat="44.651527" lon="7.8626958"><ele>273.0</ele><time>2026-03-29T09:54:51.185Z</time></trkpt><trkpt lat="44.6514505" lon="7.8626807"><ele>273.0</ele><time>2026-03-29T09:54:52.18Z</time></trkpt><trkpt lat="44.6513683" lon="7.8626602"><ele>273.0</ele><time>2026-03-29T09:54:53.181Z</time></trkpt><trkpt lat="44.6512817" lon="7.8626282"><ele>273.0</ele><time>2026-03-29T09:54:54.181Z</time></trkpt><trkpt lat="44.6511812" lon="7.8625898"><ele>274.8333333333333</ele><time>2026-03-29T09:54:55.182Z</time></trkpt><trkpt lat="44.6510913" lon="7.8625547"><ele>276.6666666666667</ele><time>2026-03-29T09:54:56.179Z</time></trkpt><trkpt lat="44.6510142" lon="7.8625197"><ele>278.5</ele><time>2026-03-29T09:54:57.181Z</time></trkpt><trkpt lat="44.6509548" lon="7.8624852"><ele>280.33333333333337</ele><time>2026-03-29T09:54:58.182Z</time></trkpt><trkpt lat="44.6508818" lon="7.8624382"><ele>282.1666666666667</ele><time>2026-03-29T09:55:00.182Z</time></trkpt><trkpt lat="44.650796" lon="7.8623717"><ele>284.0</ele><time>2026-03-29T09:55:06.182Z</time></trkpt><trkpt lat="44.6506682" lon="7.8623157"><ele>284.0</ele><time>2026-03-29T09:55:08.182Z</time></trkpt><trkpt lat="44.6505955" lon="7.8622822"><ele>284.0</ele><time>2026-03-29T09:55:09.181Z</time></trkpt><trkpt lat="44.6505367" lon="7.8622405"><ele>284.0</ele><time>2026-03-29T09:55:10.182Z</time></trkpt><trkpt lat="44.6504685" lon="7.8620978"><ele>284.0</ele><time>2026-03-29T09:55:12.182Z</time></trkpt><trkpt lat="44.6504468" lon="7.8619832"><ele>284.0</ele><time>2026-03-29T09:55:13.182Z</time></trkpt><trkpt lat="44.6504323" lon="7.861859"><ele>284.0</ele><time>2026-03-29T09:55:14.181Z</time></trkpt><trkpt lat="44.6504273" lon="7.861728"><ele>285.0</ele><time>2026-03-29T09:55:15.18Z</time></trkpt><trkpt lat="44.6504327" lon="7.8615928"><ele>286.0</ele><time>2026-03-29T09:55:16.18Z</time></trkpt><trkpt lat="44.6504395" lon="7.8614697"><ele>287.0</ele><time>2026-03-29T09:55:17.182Z</time></trkpt><trkpt lat="44.650441" lon="7.8613657"><ele>288.0</ele><time>2026-03-29T09:55:18.184Z</time></trkpt><trkpt lat="44.65044" lon="7.8612767"><ele>289.0</ele><time>2026-03-29T09:55:19.183Z</time></trkpt><trkpt lat="44.6504373" lon="7.8611342"><ele>290.0</ele><time>2026-03-29T09:55:21.183Z</time></trkpt><trkpt lat="44.6504003" lon="7.8610397"><ele>290.0</ele><time>2026-03-29T09:55:23.183Z</time></trkpt><trkpt lat="44.6503032" lon="7.8610075"><ele>290.0</ele><time>2026-03-29T09:55:25.183Z</time></trkpt><trkpt lat="44.6502093" lon="7.8610143"><ele>290.0</ele><time>2026-03-29T09:55:27.182Z</time></trkpt><trkpt lat="44.650135" lon="7.8610128"><ele>290.0</ele><time>2026-03-29T09:55:29.182Z</time></trkpt><trkpt lat="44.650055" lon="7.8610192"><ele>290.0</ele><time>2026-03-29T09:55:32.183Z</time></trkpt><trkpt lat="44.6499625" lon="7.8610255"><ele>290.0</ele><time>2026-03-29T09:55:35.183Z</time></trkpt><trkpt lat="44.6498975" lon="7.8610428"><ele>290.1666666666667</ele><time>2026-03-29T09:55:37.181Z</time></trkpt><trkpt lat="44.6498203" lon="7.8610465"><ele>290.33333333333337</ele><time>2026-03-29T09:55:39.179Z</time></trkpt><trkpt lat="44.6497567" lon="7.8610473"><ele>290.5</ele><time>2026-03-29T09:55:42.182Z</time></trkpt><trkpt lat="44.6496905" lon="7.8610578"><ele>290.6666666666667</ele><time>2026-03-29T09:55:44.181Z</time></trkpt><trkpt lat="44.6495798" lon="7.861085"><ele>290.8333333333333</ele><time>2026-03-29T09:55:46.182Z</time></trkpt><trkpt lat="44.6495118" lon="7.8611213"><ele>291.0</ele><time>2026-03-29T09:55:48.18Z</time></trkpt><trkpt lat="44.6493603" lon="7.8611458"><ele>291.0</ele><time>2026-03-29T09:55:50.181Z</time></trkpt><trkpt lat="44.6492525" lon="7.8611507"><ele>291.0</ele><time>2026-03-29T09:55:51.181Z</time></trkpt><trkpt lat="44.64913" lon="7.8611545"><ele>291.0</ele><time>2026-03-29T09:55:52.181Z</time></trkpt><trkpt lat="44.6489957" lon="7.861161"><ele>291.0</ele><time>2026-03-29T09:55:53.182Z</time></trkpt><trkpt lat="44.6488597" lon="7.8611677"><ele>291.0</ele><time>2026-03-29T09:55:54.182Z</time></trkpt><trkpt lat="44.6487262" lon="7.8611745"><ele>291.0</ele><time>2026-03-29T09:55:55.181Z</time></trkpt><trkpt lat="44.6486013" lon="7.8611797"><ele>291.0</ele><time>2026-03-29T09:55:56.181Z</time></trkpt><trkpt lat="44.648489" lon="7.8611827"><ele>291.0</ele><time>2026-03-29T09:55:57.182Z</time></trkpt><trkpt lat="44.6483838" lon="7.8611883"><ele>290.2</ele><time>2026-03-29T09:55:58.184Z</time></trkpt><trkpt lat="44.648281" lon="7.8611962"><ele>289.40000000000003</ele><time>2026-03-29T09:55:59.181Z</time></trkpt><trkpt lat="44.6481733" lon="7.8612077"><ele>288.6</ele><time>2026-03-29T09:56:00.182Z</time></trkpt><trkpt lat="44.648067" lon="7.8612112"><ele>287.8</ele><time>2026-03-29T09:56:01.183Z</time></trkpt><trkpt lat="44.6479732" lon="7.8612152"><ele>287.0</ele><time>2026-03-29T09:56:02.18Z</time></trkpt><trkpt lat="44.6478908" lon="7.8612313"><ele>287.0</ele><time>2026-03-29T09:56:03.18Z</time></trkpt><trkpt lat="44.6478237" lon="7.8612773"><ele>287.0</ele><time>2026-03-29T09:56:04.182Z</time></trkpt><trkpt lat="44.6477708" lon="7.8613592"><ele>287.0</ele><time>2026-03-29T09:56:05.18Z</time></trkpt><trkpt lat="44.6477223" lon="7.861472"><ele>287.0</ele><time>2026-03-29T09:56:06.181Z</time></trkpt><trkpt lat="44.6476655" lon="7.8615687"><ele>287.0</ele><time>2026-03-29T09:56:07.182Z</time></trkpt><trkpt lat="44.6475943" lon="7.8616268"><ele>287.0</ele><time>2026-03-29T09:56:08.182Z</time></trkpt><trkpt lat="44.6474963" lon="7.8616665"><ele>287.25</ele><time>2026-03-29T09:56:09.183Z</time></trkpt><trkpt lat="44.6473728" lon="7.8616853"><ele>287.5</ele><time>2026-03-29T09:56:10.182Z</time></trkpt><trkpt lat="44.6472348" lon="7.8616972"><ele>287.75</ele><time>2026-03-29T09:56:11.18Z</time></trkpt><trkpt lat="44.647102" lon="7.8617083"><ele>288.0</ele><time>2026-03-29T09:56:12.181Z</time></trkpt><trkpt lat="44.646979" lon="7.8617238"><ele>288.0</ele><time>2026-03-29T09:56:13.182Z</time></trkpt><trkpt lat="44.6468587" lon="7.8617502"><ele>288.0</ele><time>2026-03-29T09:56:14.181Z</time></trkpt><trkpt lat="44.6467418" lon="7.8617903"><ele>288.0</ele><time>2026-03-29T09:56:15.18Z</time></trkpt><trkpt lat="44.6466305" lon="7.8618342"><ele>288.0</ele><time>2026-03-29T09:56:16.18Z</time></trkpt><trkpt lat="44.6465303" lon="7.8618705"><ele>285.8</ele><time>2026-03-29T09:56:17.181Z</time></trkpt><trkpt lat="44.6464385" lon="7.86191"><ele>283.6</ele><time>2026-03-29T09:56:18.181Z</time></trkpt><trkpt lat="44.6463397" lon="7.8619442"><ele>281.4</ele><time>2026-03-29T09:56:19.181Z</time></trkpt><trkpt lat="44.6462298" lon="7.861963"><ele>279.2</ele><time>2026-03-29T09:56:20.18Z</time></trkpt><trkpt lat="44.6461053" lon="7.8619668"><ele>277.0</ele><time>2026-03-29T09:56:21.181Z</time></trkpt><trkpt lat="44.6459772" lon="7.8619563"><ele>277.0</ele><time>2026-03-29T09:56:22.183Z</time></trkpt><trkpt lat="44.6458515" lon="7.8619427"><ele>277.0</ele><time>2026-03-29T09:56:23.181Z</time></trkpt><trkpt lat="44.6457385" lon="7.8619375"><ele>277.0</ele><time>2026-03-29T09:56:24.182Z</time></trkpt><trkpt lat="44.6456512" lon="7.8619488"><ele>277.0</ele><time>2026-03-29T09:56:25.183Z</time></trkpt><trkpt lat="44.6455597" lon="7.861994"><ele>277.0</ele><time>2026-03-29T09:56:27.18Z</time></trkpt></trkseg></trk></gpx>